<?xml version="1.0" encoding="UTF-8"?>
<gpx version="1.1" creator="https://www.youtrack.es" xsi:schemaLocation="http://www.topografix.com/GPX/1/1 http://www.topografix.com/GPX/1/1/gpx.xsd http://www.garmin.com/xmlschemas/GpxExtensions/v3 http://www.garmin.com/xmlschemas/GpxExtensionsv3.xsd http://www.garmin.com/xmlschemas/TrackPointExtension/v1 http://www.garmin.com/xmlschemas/TrackPointExtensionv1.xsd" xmlns:gpxtpx="http://www.garmin.com/xmlschemas/TrackPointExtension/v1" xmlns:gpxx="http://www.garmin.com/xmlschemas/GpxExtensions/v3" xmlns:xsi="http://www.w3.org/2001/XMLSchema-instance">
  <metadata>
    <link href="https://www.youtrack.es">
      <text>YouTrack.es</text>
    </link>
    <time>2026-05-08T06:43:03Z</time>
  </metadata>
  <trk>
    <src>https://www.youtrack.es</src>
    <link href="https://www.youtrack.es/ruta/9231-ruta-1-nivel-1">
      <text>YouTrack.es</text>
    </link>
    <trkseg>
      <trkpt lat="42.123671" lon="2.313066">
        <ele>950.799987792969</ele>
        <time>2019-10-07T08:53:00.000Z</time>
      </trkpt>
      <trkpt lat="42.123568" lon="2.31306">
        <ele>951.799987792969</ele>
        <time>2019-10-07T08:53:04.000Z</time>
      </trkpt>
      <trkpt lat="42.123506" lon="2.313059">
        <ele>974.200012207031</ele>
        <time>2019-10-07T08:53:06.000Z</time>
      </trkpt>
      <trkpt lat="42.123476" lon="2.313053">
        <ele>973.853991728906</ele>
        <time>2019-10-07T08:53:07.000Z</time>
      </trkpt>
      <trkpt lat="42.123446" lon="2.313045">
        <ele>973.972998032031</ele>
        <time>2019-10-07T08:53:08.000Z</time>
      </trkpt>
      <trkpt lat="42.123421" lon="2.313036">
        <ele>973.826989760938</ele>
        <time>2019-10-07T08:53:09.000Z</time>
      </trkpt>
      <trkpt lat="42.123396" lon="2.313022">
        <ele>973.626977553906</ele>
        <time>2019-10-07T08:53:10.000Z</time>
      </trkpt>
      <trkpt lat="42.123373" lon="2.313009">
        <ele>973.080997664062</ele>
        <time>2019-10-07T08:53:11.000Z</time>
      </trkpt>
      <trkpt lat="42.123353" lon="2.312998">
        <ele>972.653979521875</ele>
        <time>2019-10-07T08:53:12.000Z</time>
      </trkpt>
      <trkpt lat="42.123277" lon="2.312968">
        <ele>971.937516154776</ele>
        <time>2019-10-07T08:53:15.000Z</time>
      </trkpt>
      <trkpt lat="42.123246" lon="2.312954">
        <ele>971.345563644048</ele>
        <time>2019-10-07T08:53:16.000Z</time>
      </trkpt>
      <trkpt lat="42.123217" lon="2.312945">
        <ele>971.027001967969</ele>
        <time>2019-10-07T08:53:17.000Z</time>
      </trkpt>
      <trkpt lat="42.123189" lon="2.312938">
        <ele>970.308011839062</ele>
        <time>2019-10-07T08:53:18.000Z</time>
      </trkpt>
      <trkpt lat="42.123161" lon="2.312929">
        <ele>969.680981489844</ele>
        <time>2019-10-07T08:53:19.000Z</time>
      </trkpt>
      <trkpt lat="42.123135" lon="2.312918">
        <ele>969.427018142188</ele>
        <time>2019-10-07T08:53:20.000Z</time>
      </trkpt>
      <trkpt lat="42.123107" lon="2.312898">
        <ele>968.880993696875</ele>
        <time>2019-10-07T08:53:21.000Z</time>
      </trkpt>
      <trkpt lat="42.123074" lon="2.312871">
        <ele>968.799987792969</ele>
        <time>2019-10-07T08:53:22.000Z</time>
      </trkpt>
      <trkpt lat="42.123049" lon="2.312843">
        <ele>968.281009871094</ele>
        <time>2019-10-07T08:53:23.000Z</time>
      </trkpt>
      <trkpt lat="42.123028" lon="2.31281">
        <ele>968.200012207031</ele>
        <time>2019-10-07T08:53:24.000Z</time>
      </trkpt>
      <trkpt lat="42.123011" lon="2.312773">
        <ele>967.853991728906</ele>
        <time>2019-10-07T08:53:25.000Z</time>
      </trkpt>
      <trkpt lat="42.122992" lon="2.312693">
        <ele>967.080997664062</ele>
        <time>2019-10-07T08:53:27.000Z</time>
      </trkpt>
      <trkpt lat="42.122989" lon="2.312651">
        <ele>967</ele>
        <time>2019-10-07T08:53:28.000Z</time>
      </trkpt>
      <trkpt lat="42.12298" lon="2.312609">
        <ele>966.653979521875</ele>
        <time>2019-10-07T08:53:29.000Z</time>
      </trkpt>
      <trkpt lat="42.122974" lon="2.312572">
        <ele>966.080997664062</ele>
        <time>2019-10-07T08:53:30.000Z</time>
      </trkpt>
      <trkpt lat="42.122958" lon="2.312536">
        <ele>966</ele>
        <time>2019-10-07T08:53:31.000Z</time>
      </trkpt>
      <trkpt lat="42.122944" lon="2.31252">
        <ele>965.481022078125</ele>
        <time>2019-10-07T08:53:32.000Z</time>
      </trkpt>
      <trkpt lat="42.122927" lon="2.312554">
        <ele>965.173010239062</ele>
        <time>2019-10-07T08:53:35.000Z</time>
      </trkpt>
      <trkpt lat="42.122925" lon="2.312588">
        <ele>965.027001967969</ele>
        <time>2019-10-07T08:53:36.000Z</time>
      </trkpt>
      <trkpt lat="42.122925" lon="2.312622">
        <ele>964.653979521875</ele>
        <time>2019-10-07T08:53:37.000Z</time>
      </trkpt>
      <trkpt lat="42.12293" lon="2.312658">
        <ele>964.427018142188</ele>
        <time>2019-10-07T08:53:38.000Z</time>
      </trkpt>
      <trkpt lat="42.122934" lon="2.312698">
        <ele>963.880993696875</ele>
        <time>2019-10-07T08:53:39.000Z</time>
      </trkpt>
      <trkpt lat="42.122938" lon="2.312736">
        <ele>964.146008271094</ele>
        <time>2019-10-07T08:53:40.000Z</time>
      </trkpt>
      <trkpt lat="42.122944" lon="2.312774">
        <ele>963.853991728906</ele>
        <time>2019-10-07T08:53:41.000Z</time>
      </trkpt>
      <trkpt lat="42.122947" lon="2.312817">
        <ele>963.799987792969</ele>
        <time>2019-10-07T08:53:42.000Z</time>
      </trkpt>
      <trkpt lat="42.122952" lon="2.312855">
        <ele>963.626977553906</ele>
        <time>2019-10-07T08:53:43.000Z</time>
      </trkpt>
      <trkpt lat="42.122956" lon="2.312896">
        <ele>964.119006303125</ele>
        <time>2019-10-07T08:53:44.000Z</time>
      </trkpt>
      <trkpt lat="42.122961" lon="2.312934">
        <ele>963.853991728906</ele>
        <time>2019-10-07T08:53:45.000Z</time>
      </trkpt>
      <trkpt lat="42.122969" lon="2.312975">
        <ele>963.626977553906</ele>
        <time>2019-10-07T08:53:46.000Z</time>
      </trkpt>
      <trkpt lat="42.122972" lon="2.313018">
        <ele>963.427018142188</ele>
        <time>2019-10-07T08:53:47.000Z</time>
      </trkpt>
      <trkpt lat="42.122979" lon="2.313064">
        <ele>963.400024414063</ele>
        <time>2019-10-07T08:53:48.000Z</time>
      </trkpt>
      <trkpt lat="42.122984" lon="2.313103">
        <ele>962.707983457812</ele>
        <time>2019-10-07T08:53:49.000Z</time>
      </trkpt>
      <trkpt lat="42.122987" lon="2.313143">
        <ele>962.254007903125</ele>
        <time>2019-10-07T08:53:50.000Z</time>
      </trkpt>
      <trkpt lat="42.122991" lon="2.313184">
        <ele>962.545979889844</ele>
        <time>2019-10-07T08:53:51.000Z</time>
      </trkpt>
      <trkpt lat="42.122987" lon="2.31323">
        <ele>962.427018142188</ele>
        <time>2019-10-07T08:53:52.000Z</time>
      </trkpt>
      <trkpt lat="42.122987" lon="2.313266">
        <ele>962.572981857812</ele>
        <time>2019-10-07T08:53:53.000Z</time>
      </trkpt>
      <trkpt lat="42.122985" lon="2.313305">
        <ele>962.254007903125</ele>
        <time>2019-10-07T08:53:54.000Z</time>
      </trkpt>
      <trkpt lat="42.12298" lon="2.313345">
        <ele>962.200012207031</ele>
        <time>2019-10-07T08:53:55.000Z</time>
      </trkpt>
      <trkpt lat="42.122972" lon="2.313382">
        <ele>962.027001967969</ele>
        <time>2019-10-07T08:53:56.000Z</time>
      </trkpt>
      <trkpt lat="42.12296" lon="2.313414">
        <ele>962.518977921875</ele>
        <time>2019-10-07T08:53:57.000Z</time>
      </trkpt>
      <trkpt lat="42.122941" lon="2.313444">
        <ele>962.080997664062</ele>
        <time>2019-10-07T08:53:58.000Z</time>
      </trkpt>
      <trkpt lat="42.122921" lon="2.31347">
        <ele>962.518977921875</ele>
        <time>2019-10-07T08:53:59.000Z</time>
      </trkpt>
      <trkpt lat="42.122896" lon="2.313498">
        <ele>962.080997664062</ele>
        <time>2019-10-07T08:54:00.000Z</time>
      </trkpt>
      <trkpt lat="42.122878" lon="2.313523">
        <ele>962</ele>
        <time>2019-10-07T08:54:01.000Z</time>
      </trkpt>
      <trkpt lat="42.12286" lon="2.31355">
        <ele>962</ele>
        <time>2019-10-07T08:54:02.000Z</time>
      </trkpt>
      <trkpt lat="42.122837" lon="2.313579">
        <ele>962</ele>
        <time>2019-10-07T08:54:03.000Z</time>
      </trkpt>
      <trkpt lat="42.122813" lon="2.31361">
        <ele>961.653979521875</ele>
        <time>2019-10-07T08:54:04.000Z</time>
      </trkpt>
      <trkpt lat="42.12279" lon="2.313641">
        <ele>961.254007903125</ele>
        <time>2019-10-07T08:54:05.000Z</time>
      </trkpt>
      <trkpt lat="42.122771" lon="2.313669">
        <ele>961.200012207031</ele>
        <time>2019-10-07T08:54:06.000Z</time>
      </trkpt>
      <trkpt lat="42.122748" lon="2.313697">
        <ele>960.508024046094</ele>
        <time>2019-10-07T08:54:07.000Z</time>
      </trkpt>
      <trkpt lat="42.122722" lon="2.31372">
        <ele>960.919002335938</ele>
        <time>2019-10-07T08:54:08.000Z</time>
      </trkpt>
      <trkpt lat="42.122696" lon="2.313739">
        <ele>960.653979521875</ele>
        <time>2019-10-07T08:54:09.000Z</time>
      </trkpt>
      <trkpt lat="42.122661" lon="2.313753">
        <ele>960.945996064062</ele>
        <time>2019-10-07T08:54:10.000Z</time>
      </trkpt>
      <trkpt lat="42.122629" lon="2.313758">
        <ele>960.653979521875</ele>
        <time>2019-10-07T08:54:11.000Z</time>
      </trkpt>
      <trkpt lat="42.122592" lon="2.313755">
        <ele>960.772985825</ele>
        <time>2019-10-07T08:54:12.000Z</time>
      </trkpt>
      <trkpt lat="42.122557" lon="2.313754">
        <ele>960.454020110156</ele>
        <time>2019-10-07T08:54:13.000Z</time>
      </trkpt>
      <trkpt lat="42.12252" lon="2.31375">
        <ele>960.227014175</ele>
        <time>2019-10-07T08:54:14.000Z</time>
      </trkpt>
      <trkpt lat="42.122487" lon="2.313745">
        <ele>959.853991728906</ele>
        <time>2019-10-07T08:54:15.000Z</time>
      </trkpt>
      <trkpt lat="42.122453" lon="2.313731">
        <ele>959.281009871094</ele>
        <time>2019-10-07T08:54:16.000Z</time>
      </trkpt>
      <trkpt lat="42.122422" lon="2.313713">
        <ele>959.373022446094</ele>
        <time>2019-10-07T08:54:17.000Z</time>
      </trkpt>
      <trkpt lat="42.12239" lon="2.313696">
        <ele>959.054003935938</ele>
        <time>2019-10-07T08:54:18.000Z</time>
      </trkpt>
      <trkpt lat="42.122358" lon="2.313682">
        <ele>959.173010239062</ele>
        <time>2019-10-07T08:54:19.000Z</time>
      </trkpt>
      <trkpt lat="42.12233" lon="2.313675">
        <ele>959.027001967969</ele>
        <time>2019-10-07T08:54:20.000Z</time>
      </trkpt>
      <trkpt lat="42.1223" lon="2.313674">
        <ele>959</ele>
        <time>2019-10-07T08:54:21.000Z</time>
      </trkpt>
      <trkpt lat="42.122272" lon="2.313677">
        <ele>957.961991360938</ele>
        <time>2019-10-07T08:54:22.000Z</time>
      </trkpt>
      <trkpt lat="42.122248" lon="2.31368">
        <ele>957.107999632031</ele>
        <time>2019-10-07T08:54:23.000Z</time>
      </trkpt>
      <trkpt lat="42.122221" lon="2.313678">
        <ele>957</ele>
        <time>2019-10-07T08:54:24.000Z</time>
      </trkpt>
      <trkpt lat="42.122191" lon="2.313676">
        <ele>956.481022078125</ele>
        <time>2019-10-07T08:54:25.000Z</time>
      </trkpt>
      <trkpt lat="42.122164" lon="2.313673">
        <ele>956.919002335938</ele>
        <time>2019-10-07T08:54:26.000Z</time>
      </trkpt>
      <trkpt lat="42.122138" lon="2.313668">
        <ele>956.481022078125</ele>
        <time>2019-10-07T08:54:27.000Z</time>
      </trkpt>
      <trkpt lat="42.122114" lon="2.313665">
        <ele>956.572981857812</ele>
        <time>2019-10-07T08:54:28.000Z</time>
      </trkpt>
      <trkpt lat="42.122087" lon="2.313665">
        <ele>956.254007903125</ele>
        <time>2019-10-07T08:54:29.000Z</time>
      </trkpt>
      <trkpt lat="42.122056" lon="2.313661">
        <ele>955.853991728906</ele>
        <time>2019-10-07T08:54:30.000Z</time>
      </trkpt>
      <trkpt lat="42.122024" lon="2.313656">
        <ele>955.281009871094</ele>
        <time>2019-10-07T08:54:31.000Z</time>
      </trkpt>
      <trkpt lat="42.121989" lon="2.313654">
        <ele>954.508024046094</ele>
        <time>2019-10-07T08:54:32.000Z</time>
      </trkpt>
      <trkpt lat="42.121953" lon="2.313652">
        <ele>954.745992096875</ele>
        <time>2019-10-07T08:54:33.000Z</time>
      </trkpt>
      <trkpt lat="42.12192" lon="2.31365">
        <ele>954.454020110156</ele>
        <time>2019-10-07T08:54:34.000Z</time>
      </trkpt>
      <trkpt lat="42.121885" lon="2.313644">
        <ele>954.572981857812</ele>
        <time>2019-10-07T08:54:35.000Z</time>
      </trkpt>
      <trkpt lat="42.121852" lon="2.313641">
        <ele>954.080997664062</ele>
        <time>2019-10-07T08:54:36.000Z</time>
      </trkpt>
      <trkpt lat="42.12182" lon="2.313635">
        <ele>954.173010239062</ele>
        <time>2019-10-07T08:54:37.000Z</time>
      </trkpt>
      <trkpt lat="42.121792" lon="2.313632">
        <ele>953.853991728906</ele>
        <time>2019-10-07T08:54:38.000Z</time>
      </trkpt>
      <trkpt lat="42.12176" lon="2.313625">
        <ele>953.799987792969</ele>
        <time>2019-10-07T08:54:39.000Z</time>
      </trkpt>
      <trkpt lat="42.121729" lon="2.313614">
        <ele>953.626977553906</ele>
        <time>2019-10-07T08:54:40.000Z</time>
      </trkpt>
      <trkpt lat="42.121701" lon="2.313605">
        <ele>952.215999264062</ele>
        <time>2019-10-07T08:54:41.000Z</time>
      </trkpt>
      <trkpt lat="42.121673" lon="2.313598">
        <ele>951.481022078125</ele>
        <time>2019-10-07T08:54:42.000Z</time>
      </trkpt>
      <trkpt lat="42.121641" lon="2.313589">
        <ele>951.227014175</ele>
        <time>2019-10-07T08:54:43.000Z</time>
      </trkpt>
      <trkpt lat="42.121609" lon="2.313573">
        <ele>951.718990128906</ele>
        <time>2019-10-07T08:54:44.000Z</time>
      </trkpt>
      <trkpt lat="42.121576" lon="2.313558">
        <ele>951.454020110156</ele>
        <time>2019-10-07T08:54:45.000Z</time>
      </trkpt>
      <trkpt lat="42.12154" lon="2.313539">
        <ele>951.572981857812</ele>
        <time>2019-10-07T08:54:46.000Z</time>
      </trkpt>
      <trkpt lat="42.121513" lon="2.313528">
        <ele>951.599975585938</ele>
        <time>2019-10-07T08:54:47.000Z</time>
      </trkpt>
      <trkpt lat="42.121482" lon="2.313515">
        <ele>951.427018142188</ele>
        <time>2019-10-07T08:54:48.000Z</time>
      </trkpt>
      <trkpt lat="42.121453" lon="2.313506">
        <ele>951.572981857812</ele>
        <time>2019-10-07T08:54:49.000Z</time>
      </trkpt>
      <trkpt lat="42.121423" lon="2.3135">
        <ele>951.080997664062</ele>
        <time>2019-10-07T08:54:50.000Z</time>
      </trkpt>
      <trkpt lat="42.121398" lon="2.313496">
        <ele>951</ele>
        <time>2019-10-07T08:54:51.000Z</time>
      </trkpt>
      <trkpt lat="42.121372" lon="2.313494">
        <ele>950.481022078125</ele>
        <time>2019-10-07T08:54:52.000Z</time>
      </trkpt>
      <trkpt lat="42.121343" lon="2.313499">
        <ele>950.745992096875</ele>
        <time>2019-10-07T08:54:53.000Z</time>
      </trkpt>
      <trkpt lat="42.121315" lon="2.31351">
        <ele>949.934989392969</ele>
        <time>2019-10-07T08:54:54.000Z</time>
      </trkpt>
      <trkpt lat="42.12129" lon="2.313527">
        <ele>949.972998032031</ele>
        <time>2019-10-07T08:54:55.000Z</time>
      </trkpt>
      <trkpt lat="42.121265" lon="2.313545">
        <ele>949.308011839062</ele>
        <time>2019-10-07T08:54:56.000Z</time>
      </trkpt>
      <trkpt lat="42.121237" lon="2.313556">
        <ele>949.027001967969</ele>
        <time>2019-10-07T08:54:57.000Z</time>
      </trkpt>
      <trkpt lat="42.121209" lon="2.313565">
        <ele>949</ele>
        <time>2019-10-07T08:54:58.000Z</time>
      </trkpt>
      <trkpt lat="42.121185" lon="2.313575">
        <ele>948.653979521875</ele>
        <time>2019-10-07T08:54:59.000Z</time>
      </trkpt>
      <trkpt lat="42.121157" lon="2.313584">
        <ele>948.772985825</ele>
        <time>2019-10-07T08:55:00.000Z</time>
      </trkpt>
      <trkpt lat="42.12112" lon="2.313596">
        <ele>948.107999632031</ele>
        <time>2019-10-07T08:55:01.000Z</time>
      </trkpt>
      <trkpt lat="42.121084" lon="2.313613">
        <ele>948.346020478125</ele>
        <time>2019-10-07T08:55:02.000Z</time>
      </trkpt>
      <trkpt lat="42.121054" lon="2.313629">
        <ele>948.054003935938</ele>
        <time>2019-10-07T08:55:03.000Z</time>
      </trkpt>
      <trkpt lat="42.121027" lon="2.313648">
        <ele>947.481022078125</ele>
        <time>2019-10-07T08:55:04.000Z</time>
      </trkpt>
      <trkpt lat="42.121004" lon="2.313672">
        <ele>946.708673702363</ele>
        <time>2019-10-07T08:55:05.000Z</time>
      </trkpt>
      <trkpt lat="42.120991" lon="2.313708">
        <ele>946.254061866305</ele>
        <time>2019-10-07T08:55:06.000Z</time>
      </trkpt>
      <trkpt lat="42.120977" lon="2.313742">
        <ele>946.373022446094</ele>
        <time>2019-10-07T08:55:07.000Z</time>
      </trkpt>
      <trkpt lat="42.120965" lon="2.313775">
        <ele>946.054003935938</ele>
        <time>2019-10-07T08:55:08.000Z</time>
      </trkpt>
      <trkpt lat="42.120963" lon="2.313808">
        <ele>946</ele>
        <time>2019-10-07T08:55:09.000Z</time>
      </trkpt>
      <trkpt lat="42.120958" lon="2.313846">
        <ele>945.653979521875</ele>
        <time>2019-10-07T08:55:10.000Z</time>
      </trkpt>
      <trkpt lat="42.120957" lon="2.313887">
        <ele>945.254007903125</ele>
        <time>2019-10-07T08:55:11.000Z</time>
      </trkpt>
      <trkpt lat="42.120955" lon="2.313927">
        <ele>944.508024046094</ele>
        <time>2019-10-07T08:55:12.000Z</time>
      </trkpt>
      <trkpt lat="42.120953" lon="2.313966">
        <ele>943.880993696875</ele>
        <time>2019-10-07T08:55:13.000Z</time>
      </trkpt>
      <trkpt lat="42.120948" lon="2.313994">
        <ele>944.146008271094</ele>
        <time>2019-10-07T08:55:14.000Z</time>
      </trkpt>
      <trkpt lat="42.120939" lon="2.314022">
        <ele>944.027001967969</ele>
        <time>2019-10-07T08:55:15.000Z</time>
      </trkpt>
      <trkpt lat="42.120925" lon="2.314052">
        <ele>944</ele>
        <time>2019-10-07T08:55:16.000Z</time>
      </trkpt>
      <trkpt lat="42.120905" lon="2.314079">
        <ele>943.826989760938</ele>
        <time>2019-10-07T08:55:17.000Z</time>
      </trkpt>
      <trkpt lat="42.120887" lon="2.314108">
        <ele>943.626977553906</ele>
        <time>2019-10-07T08:55:18.000Z</time>
      </trkpt>
      <trkpt lat="42.120867" lon="2.314129">
        <ele>943.772985825</ele>
        <time>2019-10-07T08:55:19.000Z</time>
      </trkpt>
      <trkpt lat="42.12084" lon="2.314147">
        <ele>943.108689823924</ele>
        <time>2019-10-07T08:55:20.000Z</time>
      </trkpt>
      <trkpt lat="42.120814" lon="2.314161">
        <ele>942.827016746645</ele>
        <time>2019-10-07T08:55:21.000Z</time>
      </trkpt>
      <trkpt lat="42.120786" lon="2.314162">
        <ele>942.281009871094</ele>
        <time>2019-10-07T08:55:22.000Z</time>
      </trkpt>
      <trkpt lat="42.120764" lon="2.314156">
        <ele>942.373022446094</ele>
        <time>2019-10-07T08:55:23.000Z</time>
      </trkpt>
      <trkpt lat="42.120742" lon="2.314152">
        <ele>941.707983457812</ele>
        <time>2019-10-07T08:55:24.000Z</time>
      </trkpt>
      <trkpt lat="42.120718" lon="2.314149">
        <ele>941.599975585938</ele>
        <time>2019-10-07T08:55:25.000Z</time>
      </trkpt>
      <trkpt lat="42.12069" lon="2.314139">
        <ele>941.254007903125</ele>
        <time>2019-10-07T08:55:26.000Z</time>
      </trkpt>
      <trkpt lat="42.120661" lon="2.314137">
        <ele>941.373022446094</ele>
        <time>2019-10-07T08:55:27.000Z</time>
      </trkpt>
      <trkpt lat="42.120641" lon="2.314138">
        <ele>940.880993696875</ele>
        <time>2019-10-07T08:55:28.000Z</time>
      </trkpt>
      <trkpt lat="42.120617" lon="2.314134">
        <ele>940.454020110156</ele>
        <time>2019-10-07T08:55:29.000Z</time>
      </trkpt>
      <trkpt lat="42.120594" lon="2.314137">
        <ele>940.054349058213</ele>
        <time>2019-10-07T08:55:30.000Z</time>
      </trkpt>
      <trkpt lat="42.120574" lon="2.314145">
        <ele>939.481103027012</ele>
        <time>2019-10-07T08:55:31.000Z</time>
      </trkpt>
      <trkpt lat="42.120522" lon="2.314149">
        <ele>938.481022078125</ele>
        <time>2019-10-07T08:55:33.000Z</time>
      </trkpt>
      <trkpt lat="42.120493" lon="2.314152">
        <ele>938.572981857812</ele>
        <time>2019-10-07T08:55:34.000Z</time>
      </trkpt>
      <trkpt lat="42.120461" lon="2.314155">
        <ele>938.254007903125</ele>
        <time>2019-10-07T08:55:35.000Z</time>
      </trkpt>
      <trkpt lat="42.12043" lon="2.314158">
        <ele>938.545979889844</ele>
        <time>2019-10-07T08:55:36.000Z</time>
      </trkpt>
      <trkpt lat="42.120397" lon="2.314157">
        <ele>938.254007903125</ele>
        <time>2019-10-07T08:55:37.000Z</time>
      </trkpt>
      <trkpt lat="42.120356" lon="2.314148">
        <ele>938.373022446094</ele>
        <time>2019-10-07T08:55:38.000Z</time>
      </trkpt>
      <trkpt lat="42.120328" lon="2.314149">
        <ele>938.227014175</ele>
        <time>2019-10-07T08:55:39.000Z</time>
      </trkpt>
      <trkpt lat="42.120305" lon="2.314152">
        <ele>938.027001967969</ele>
        <time>2019-10-07T08:55:40.000Z</time>
      </trkpt>
      <trkpt lat="42.120278" lon="2.314149">
        <ele>937.653979521875</ele>
        <time>2019-10-07T08:55:41.000Z</time>
      </trkpt>
      <trkpt lat="42.120252" lon="2.314147">
        <ele>937.080997664062</ele>
        <time>2019-10-07T08:55:42.000Z</time>
      </trkpt>
      <trkpt lat="42.120161" lon="2.314147">
        <ele>936.599975585938</ele>
        <time>2019-10-07T08:55:45.000Z</time>
      </trkpt>
      <trkpt lat="42.120061" lon="2.314159">
        <ele>935.427018142188</ele>
        <time>2019-10-07T08:55:49.000Z</time>
      </trkpt>
      <trkpt lat="42.120036" lon="2.314155">
        <ele>935.400024414063</ele>
        <time>2019-10-07T08:55:50.000Z</time>
      </trkpt>
      <trkpt lat="42.120017" lon="2.314154">
        <ele>934.880993696875</ele>
        <time>2019-10-07T08:55:51.000Z</time>
      </trkpt>
      <trkpt lat="42.119999" lon="2.314151">
        <ele>934.626977553906</ele>
        <time>2019-10-07T08:55:52.000Z</time>
      </trkpt>
      <trkpt lat="42.119968" lon="2.314138">
        <ele>934.427018142188</ele>
        <time>2019-10-07T08:55:54.000Z</time>
      </trkpt>
      <trkpt lat="42.119949" lon="2.314138">
        <ele>934</ele>
        <time>2019-10-07T08:55:57.000Z</time>
      </trkpt>
      <trkpt lat="42.119928" lon="2.314156">
        <ele>933.799987792969</ele>
        <time>2019-10-07T08:55:59.000Z</time>
      </trkpt>
      <trkpt lat="42.119904" lon="2.314174">
        <ele>933.626977553906</ele>
        <time>2019-10-07T08:56:01.000Z</time>
      </trkpt>
      <trkpt lat="42.119878" lon="2.314196">
        <ele>933.627150115044</ele>
        <time>2019-10-07T08:56:03.000Z</time>
      </trkpt>
      <trkpt lat="42.11985" lon="2.314228">
        <ele>933.626977553906</ele>
        <time>2019-10-07T08:56:05.000Z</time>
      </trkpt>
      <trkpt lat="42.119828" lon="2.314244">
        <ele>933.772985825</ele>
        <time>2019-10-07T08:56:06.000Z</time>
      </trkpt>
      <trkpt lat="42.119805" lon="2.314266">
        <ele>933.626977553906</ele>
        <time>2019-10-07T08:56:07.000Z</time>
      </trkpt>
      <trkpt lat="42.119778" lon="2.314286">
        <ele>933.772985825</ele>
        <time>2019-10-07T08:56:08.000Z</time>
      </trkpt>
      <trkpt lat="42.119757" lon="2.314315">
        <ele>933.626977553906</ele>
        <time>2019-10-07T08:56:09.000Z</time>
      </trkpt>
      <trkpt lat="42.119736" lon="2.314337">
        <ele>933.772985825</ele>
        <time>2019-10-07T08:56:10.000Z</time>
      </trkpt>
      <trkpt lat="42.119714" lon="2.314356">
        <ele>933.454020110156</ele>
        <time>2019-10-07T08:56:11.000Z</time>
      </trkpt>
      <trkpt lat="42.119691" lon="2.314379">
        <ele>933.400024414063</ele>
        <time>2019-10-07T08:56:12.000Z</time>
      </trkpt>
      <trkpt lat="42.119671" lon="2.314398">
        <ele>933.227014175</ele>
        <time>2019-10-07T08:56:13.000Z</time>
      </trkpt>
      <trkpt lat="42.119654" lon="2.314416">
        <ele>932.853991728906</ele>
        <time>2019-10-07T08:56:14.000Z</time>
      </trkpt>
      <trkpt lat="42.119626" lon="2.314435">
        <ele>932.799987792969</ele>
        <time>2019-10-07T08:56:15.000Z</time>
      </trkpt>
      <trkpt lat="42.119539" lon="2.314541">
        <ele>932.400024414063</ele>
        <time>2019-10-07T08:56:19.000Z</time>
      </trkpt>
      <trkpt lat="42.119462" lon="2.314664">
        <ele>931.826989760938</ele>
        <time>2019-10-07T08:56:23.000Z</time>
      </trkpt>
      <trkpt lat="42.119441" lon="2.314695">
        <ele>931.972998032031</ele>
        <time>2019-10-07T08:56:24.000Z</time>
      </trkpt>
      <trkpt lat="42.119403" lon="2.314746">
        <ele>931.972998032031</ele>
        <time>2019-10-07T08:56:26.000Z</time>
      </trkpt>
      <trkpt lat="42.119386" lon="2.314772">
        <ele>931.826989760938</ele>
        <time>2019-10-07T08:56:27.000Z</time>
      </trkpt>
      <trkpt lat="42.119364" lon="2.314798">
        <ele>932.319018510156</ele>
        <time>2019-10-07T08:56:28.000Z</time>
      </trkpt>
      <trkpt lat="42.119344" lon="2.314817">
        <ele>932.400024414063</ele>
        <time>2019-10-07T08:56:29.000Z</time>
      </trkpt>
      <trkpt lat="42.119318" lon="2.314828">
        <ele>932.054003935938</ele>
        <time>2019-10-07T08:56:30.000Z</time>
      </trkpt>
      <trkpt lat="42.119292" lon="2.314833">
        <ele>931.826989760938</ele>
        <time>2019-10-07T08:56:31.000Z</time>
      </trkpt>
      <trkpt lat="42.11927" lon="2.314834">
        <ele>931.281009871094</ele>
        <time>2019-10-07T08:56:32.000Z</time>
      </trkpt>
      <trkpt lat="42.119248" lon="2.314836">
        <ele>930.680981489844</ele>
        <time>2019-10-07T08:56:33.000Z</time>
      </trkpt>
      <trkpt lat="42.11923" lon="2.314833">
        <ele>930.254007903125</ele>
        <time>2019-10-07T08:56:34.000Z</time>
      </trkpt>
      <trkpt lat="42.119207" lon="2.314834">
        <ele>930.200012207031</ele>
        <time>2019-10-07T08:56:35.000Z</time>
      </trkpt>
      <trkpt lat="42.119189" lon="2.31484">
        <ele>929.853991728906</ele>
        <time>2019-10-07T08:56:36.000Z</time>
      </trkpt>
      <trkpt lat="42.119157" lon="2.314856">
        <ele>929.454020110156</ele>
        <time>2019-10-07T08:56:38.000Z</time>
      </trkpt>
      <trkpt lat="42.119106" lon="2.314895">
        <ele>927.880993696875</ele>
        <time>2019-10-07T08:56:41.000Z</time>
      </trkpt>
      <trkpt lat="42.119086" lon="2.314915">
        <ele>927.972998032031</ele>
        <time>2019-10-07T08:56:42.000Z</time>
      </trkpt>
      <trkpt lat="42.119071" lon="2.314936">
        <ele>928</ele>
        <time>2019-10-07T08:56:43.000Z</time>
      </trkpt>
      <trkpt lat="42.119059" lon="2.314959">
        <ele>928.173010239062</ele>
        <time>2019-10-07T08:56:44.000Z</time>
      </trkpt>
      <trkpt lat="42.119049" lon="2.314982">
        <ele>928.027001967969</ele>
        <time>2019-10-07T08:56:45.000Z</time>
      </trkpt>
      <trkpt lat="42.119038" lon="2.315009">
        <ele>928</ele>
        <time>2019-10-07T08:56:46.000Z</time>
      </trkpt>
      <trkpt lat="42.119047" lon="2.315055">
        <ele>927.626977553906</ele>
        <time>2019-10-07T08:56:48.000Z</time>
      </trkpt>
      <trkpt lat="42.119045" lon="2.315084">
        <ele>927.254007903125</ele>
        <time>2019-10-07T08:56:49.000Z</time>
      </trkpt>
      <trkpt lat="42.11904" lon="2.315124">
        <ele>926.853991728906</ele>
        <time>2019-10-07T08:56:50.000Z</time>
      </trkpt>
      <trkpt lat="42.119031" lon="2.315162">
        <ele>927.146008271094</ele>
        <time>2019-10-07T08:56:51.000Z</time>
      </trkpt>
      <trkpt lat="42.119017" lon="2.315196">
        <ele>927.027001967969</ele>
        <time>2019-10-07T08:56:52.000Z</time>
      </trkpt>
      <trkpt lat="42.119001" lon="2.315225">
        <ele>927.173010239062</ele>
        <time>2019-10-07T08:56:53.000Z</time>
      </trkpt>
      <trkpt lat="42.118981" lon="2.315247">
        <ele>926.853991728906</ele>
        <time>2019-10-07T08:56:54.000Z</time>
      </trkpt>
      <trkpt lat="42.118884" lon="2.315277">
        <ele>926.626977553906</ele>
        <time>2019-10-07T08:56:59.000Z</time>
      </trkpt>
      <trkpt lat="42.118783" lon="2.315322">
        <ele>927</ele>
        <time>2019-10-07T08:57:03.000Z</time>
      </trkpt>
      <trkpt lat="42.11868" lon="2.315377">
        <ele>926.119006303125</ele>
        <time>2019-10-07T08:57:07.000Z</time>
      </trkpt>
      <trkpt lat="42.118581" lon="2.315412">
        <ele>926.200012207031</ele>
        <time>2019-10-07T08:57:10.000Z</time>
      </trkpt>
      <trkpt lat="42.118482" lon="2.315447">
        <ele>926.173010239062</ele>
        <time>2019-10-07T08:57:14.000Z</time>
      </trkpt>
      <trkpt lat="42.118453" lon="2.315445">
        <ele>926.027001967969</ele>
        <time>2019-10-07T08:57:15.000Z</time>
      </trkpt>
      <trkpt lat="42.118419" lon="2.31544">
        <ele>926.518977921875</ele>
        <time>2019-10-07T08:57:16.000Z</time>
      </trkpt>
      <trkpt lat="42.118386" lon="2.31544">
        <ele>926.427018142188</ele>
        <time>2019-10-07T08:57:17.000Z</time>
      </trkpt>
      <trkpt lat="42.118358" lon="2.315441">
        <ele>926.919002335938</ele>
        <time>2019-10-07T08:57:18.000Z</time>
      </trkpt>
      <trkpt lat="42.118329" lon="2.31545">
        <ele>927</ele>
        <time>2019-10-07T08:57:19.000Z</time>
      </trkpt>
      <trkpt lat="42.1183" lon="2.315463">
        <ele>927.518977921875</ele>
        <time>2019-10-07T08:57:20.000Z</time>
      </trkpt>
      <trkpt lat="42.118275" lon="2.315476">
        <ele>927.599975585938</ele>
        <time>2019-10-07T08:57:21.000Z</time>
      </trkpt>
      <trkpt lat="42.11825" lon="2.315494">
        <ele>927.772985825</ele>
        <time>2019-10-07T08:57:22.000Z</time>
      </trkpt>
      <trkpt lat="42.118226" lon="2.315514">
        <ele>927.799987792969</ele>
        <time>2019-10-07T08:57:23.000Z</time>
      </trkpt>
      <trkpt lat="42.118201" lon="2.31554">
        <ele>927.626977553906</ele>
        <time>2019-10-07T08:57:24.000Z</time>
      </trkpt>
      <trkpt lat="42.118185" lon="2.315568">
        <ele>927.945996064062</ele>
        <time>2019-10-07T08:57:25.000Z</time>
      </trkpt>
      <trkpt lat="42.118176" lon="2.315593">
        <ele>928</ele>
        <time>2019-10-07T08:57:26.000Z</time>
      </trkpt>
      <trkpt lat="42.11818" lon="2.315638">
        <ele>927.826989760938</ele>
        <time>2019-10-07T08:57:28.000Z</time>
      </trkpt>
      <trkpt lat="42.118179" lon="2.315669">
        <ele>927.454020110156</ele>
        <time>2019-10-07T08:57:29.000Z</time>
      </trkpt>
      <trkpt lat="42.11818" lon="2.3157">
        <ele>927.572981857812</ele>
        <time>2019-10-07T08:57:30.000Z</time>
      </trkpt>
      <trkpt lat="42.118188" lon="2.315729">
        <ele>927.254007903125</ele>
        <time>2019-10-07T08:57:31.000Z</time>
      </trkpt>
      <trkpt lat="42.118196" lon="2.315766">
        <ele>927.373022446094</ele>
        <time>2019-10-07T08:57:32.000Z</time>
      </trkpt>
      <trkpt lat="42.118199" lon="2.315834">
        <ele>927.173010239062</ele>
        <time>2019-10-07T08:57:34.000Z</time>
      </trkpt>
      <trkpt lat="42.118201" lon="2.315865">
        <ele>926.680981489844</ele>
        <time>2019-10-07T08:57:35.000Z</time>
      </trkpt>
      <trkpt lat="42.118206" lon="2.315901">
        <ele>926.080997664062</ele>
        <time>2019-10-07T08:57:36.000Z</time>
      </trkpt>
      <trkpt lat="42.118213" lon="2.315931">
        <ele>925.1350016</ele>
        <time>2019-10-07T08:57:37.000Z</time>
      </trkpt>
      <trkpt lat="42.118226" lon="2.315964">
        <ele>925</ele>
        <time>2019-10-07T08:57:38.000Z</time>
      </trkpt>
      <trkpt lat="42.118242" lon="2.315994">
        <ele>925</ele>
        <time>2019-10-07T08:57:39.000Z</time>
      </trkpt>
      <trkpt lat="42.11825" lon="2.316026">
        <ele>924.653979521875</ele>
        <time>2019-10-07T08:57:40.000Z</time>
      </trkpt>
      <trkpt lat="42.118251" lon="2.316059">
        <ele>924.772985825</ele>
        <time>2019-10-07T08:57:41.000Z</time>
      </trkpt>
      <trkpt lat="42.118256" lon="2.316094">
        <ele>924.281527501848</ele>
        <time>2019-10-07T08:57:42.000Z</time>
      </trkpt>
      <trkpt lat="42.118263" lon="2.316131">
        <ele>924.200012207031</ele>
        <time>2019-10-07T08:57:43.000Z</time>
      </trkpt>
      <trkpt lat="42.118268" lon="2.316157">
        <ele>923.853991728906</ele>
        <time>2019-10-07T08:57:44.000Z</time>
      </trkpt>
      <trkpt lat="42.118266" lon="2.316193">
        <ele>923.254007903125</ele>
        <time>2019-10-07T08:57:46.000Z</time>
      </trkpt>
      <trkpt lat="42.118262" lon="2.316218">
        <ele>923.373022446094</ele>
        <time>2019-10-07T08:57:47.000Z</time>
      </trkpt>
      <trkpt lat="42.118255" lon="2.31625">
        <ele>923.054003935938</ele>
        <time>2019-10-07T08:57:48.000Z</time>
      </trkpt>
      <trkpt lat="42.118247" lon="2.316277">
        <ele>922.826989760938</ele>
        <time>2019-10-07T08:57:49.000Z</time>
      </trkpt>
      <trkpt lat="42.118146" lon="2.316289">
        <ele>921.281009871094</ele>
        <time>2019-10-07T08:57:55.000Z</time>
      </trkpt>
      <trkpt lat="42.118036" lon="2.316249">
        <ele>919.853991728906</ele>
        <time>2019-10-07T08:58:00.000Z</time>
      </trkpt>
      <trkpt lat="42.117932" lon="2.316237">
        <ele>918.718990128906</ele>
        <time>2019-10-07T08:58:05.000Z</time>
      </trkpt>
      <trkpt lat="42.117871" lon="2.316252">
        <ele>918.826989760938</ele>
        <time>2019-10-07T08:58:08.000Z</time>
      </trkpt>
      <trkpt lat="42.117835" lon="2.316299">
        <ele>918.799987792969</ele>
        <time>2019-10-07T08:58:10.000Z</time>
      </trkpt>
      <trkpt lat="42.117815" lon="2.316326">
        <ele>918.799987792969</ele>
        <time>2019-10-07T08:58:11.000Z</time>
      </trkpt>
      <trkpt lat="42.117789" lon="2.316355">
        <ele>918.626977553906</ele>
        <time>2019-10-07T08:58:12.000Z</time>
      </trkpt>
      <trkpt lat="42.117761" lon="2.31639">
        <ele>918.254007903125</ele>
        <time>2019-10-07T08:58:13.000Z</time>
      </trkpt>
      <trkpt lat="42.117735" lon="2.316419">
        <ele>918.545979889844</ele>
        <time>2019-10-07T08:58:14.000Z</time>
      </trkpt>
      <trkpt lat="42.117662" lon="2.316499">
        <ele>918.454020110156</ele>
        <time>2019-10-07T08:58:17.000Z</time>
      </trkpt>
      <trkpt lat="42.11764" lon="2.316518">
        <ele>918.572981857812</ele>
        <time>2019-10-07T08:58:18.000Z</time>
      </trkpt>
      <trkpt lat="42.117617" lon="2.316533">
        <ele>918.427018142188</ele>
        <time>2019-10-07T08:58:19.000Z</time>
      </trkpt>
      <trkpt lat="42.117591" lon="2.316545">
        <ele>918.572981857812</ele>
        <time>2019-10-07T08:58:20.000Z</time>
      </trkpt>
      <trkpt lat="42.117567" lon="2.316556">
        <ele>918.254007903125</ele>
        <time>2019-10-07T08:58:21.000Z</time>
      </trkpt>
      <trkpt lat="42.117546" lon="2.316564">
        <ele>916.988993328906</ele>
        <time>2019-10-07T08:58:22.000Z</time>
      </trkpt>
      <trkpt lat="42.117519" lon="2.316576">
        <ele>916.545979889844</ele>
        <time>2019-10-07T08:58:24.000Z</time>
      </trkpt>
      <trkpt lat="42.117499" lon="2.316582">
        <ele>916.254007903125</ele>
        <time>2019-10-07T08:58:25.000Z</time>
      </trkpt>
      <trkpt lat="42.117392" lon="2.316632">
        <ele>916.427018142188</ele>
        <time>2019-10-07T08:58:30.000Z</time>
      </trkpt>
      <trkpt lat="42.117293" lon="2.316661">
        <ele>915.880993696875</ele>
        <time>2019-10-07T08:58:34.000Z</time>
      </trkpt>
      <trkpt lat="42.117275" lon="2.31668">
        <ele>916.146008271094</ele>
        <time>2019-10-07T08:58:35.000Z</time>
      </trkpt>
      <trkpt lat="42.117257" lon="2.316702">
        <ele>916.027001967969</ele>
        <time>2019-10-07T08:58:36.000Z</time>
      </trkpt>
      <trkpt lat="42.117237" lon="2.316724">
        <ele>916.346020478125</ele>
        <time>2019-10-07T08:58:37.000Z</time>
      </trkpt>
      <trkpt lat="42.11722" lon="2.316751">
        <ele>916.400024414063</ele>
        <time>2019-10-07T08:58:38.000Z</time>
      </trkpt>
      <trkpt lat="42.117203" lon="2.316782">
        <ele>916.919002335938</ele>
        <time>2019-10-07T08:58:39.000Z</time>
      </trkpt>
      <trkpt lat="42.117185" lon="2.316807">
        <ele>917</ele>
        <time>2019-10-07T08:58:40.000Z</time>
      </trkpt>
      <trkpt lat="42.117161" lon="2.316835">
        <ele>917.346020478125</ele>
        <time>2019-10-07T08:58:41.000Z</time>
      </trkpt>
      <trkpt lat="42.117142" lon="2.316859">
        <ele>917.054003935938</ele>
        <time>2019-10-07T08:58:42.000Z</time>
      </trkpt>
      <trkpt lat="42.117119" lon="2.316882">
        <ele>917</ele>
        <time>2019-10-07T08:58:43.000Z</time>
      </trkpt>
      <trkpt lat="42.117091" lon="2.316904">
        <ele>917.173010239062</ele>
        <time>2019-10-07T08:58:44.000Z</time>
      </trkpt>
      <trkpt lat="42.117064" lon="2.316926">
        <ele>917.027001967969</ele>
        <time>2019-10-07T08:58:45.000Z</time>
      </trkpt>
      <trkpt lat="42.117036" lon="2.316949">
        <ele>917</ele>
        <time>2019-10-07T08:58:46.000Z</time>
      </trkpt>
      <trkpt lat="42.117013" lon="2.316973">
        <ele>916.653979521875</ele>
        <time>2019-10-07T08:58:47.000Z</time>
      </trkpt>
      <trkpt lat="42.116987" lon="2.316994">
        <ele>916.772985825</ele>
        <time>2019-10-07T08:58:48.000Z</time>
      </trkpt>
      <trkpt lat="42.116959" lon="2.31702">
        <ele>916.454020110156</ele>
        <time>2019-10-07T08:58:49.000Z</time>
      </trkpt>
      <trkpt lat="42.116935" lon="2.317043">
        <ele>916.745992096875</ele>
        <time>2019-10-07T08:58:50.000Z</time>
      </trkpt>
      <trkpt lat="42.116911" lon="2.317062">
        <ele>916.281009871094</ele>
        <time>2019-10-07T08:58:51.000Z</time>
      </trkpt>
      <trkpt lat="42.116884" lon="2.317074">
        <ele>916.545979889844</ele>
        <time>2019-10-07T08:58:52.000Z</time>
      </trkpt>
      <trkpt lat="42.116863" lon="2.317088">
        <ele>916.254007903125</ele>
        <time>2019-10-07T08:58:53.000Z</time>
      </trkpt>
      <trkpt lat="42.116842" lon="2.317105">
        <ele>916.200012207031</ele>
        <time>2019-10-07T08:58:54.000Z</time>
      </trkpt>
      <trkpt lat="42.116814" lon="2.317128">
        <ele>915.853991728906</ele>
        <time>2019-10-07T08:58:55.000Z</time>
      </trkpt>
      <trkpt lat="42.116786" lon="2.317147">
        <ele>915.454020110156</ele>
        <time>2019-10-07T08:58:56.000Z</time>
      </trkpt>
      <trkpt lat="42.116726" lon="2.317206">
        <ele>915.400024414063</ele>
        <time>2019-10-07T08:58:58.000Z</time>
      </trkpt>
      <trkpt lat="42.116699" lon="2.317235">
        <ele>915.745992096875</ele>
        <time>2019-10-07T08:58:59.000Z</time>
      </trkpt>
      <trkpt lat="42.116672" lon="2.317264">
        <ele>915.626977553906</ele>
        <time>2019-10-07T08:59:00.000Z</time>
      </trkpt>
      <trkpt lat="42.11665" lon="2.317289">
        <ele>915.599975585938</ele>
        <time>2019-10-07T08:59:01.000Z</time>
      </trkpt>
      <trkpt lat="42.116617" lon="2.317334">
        <ele>915.200012207031</ele>
        <time>2019-10-07T08:59:03.000Z</time>
      </trkpt>
      <trkpt lat="42.116619" lon="2.317387">
        <ele>913.907987425</ele>
        <time>2019-10-07T08:59:05.000Z</time>
      </trkpt>
      <trkpt lat="42.116614" lon="2.317413">
        <ele>913.972998032031</ele>
        <time>2019-10-07T08:59:06.000Z</time>
      </trkpt>
      <trkpt lat="42.116596" lon="2.317463">
        <ele>913.853991728906</ele>
        <time>2019-10-07T08:59:09.000Z</time>
      </trkpt>
      <trkpt lat="42.116578" lon="2.317484">
        <ele>913.454020110156</ele>
        <time>2019-10-07T08:59:10.000Z</time>
      </trkpt>
      <trkpt lat="42.116565" lon="2.317513">
        <ele>913.400024414063</ele>
        <time>2019-10-07T08:59:11.000Z</time>
      </trkpt>
      <trkpt lat="42.116553" lon="2.317537">
        <ele>913.227014175</ele>
        <time>2019-10-07T08:59:12.000Z</time>
      </trkpt>
      <trkpt lat="42.116519" lon="2.317578">
        <ele>912.481022078125</ele>
        <time>2019-10-07T08:59:15.000Z</time>
      </trkpt>
      <trkpt lat="42.116495" lon="2.317588">
        <ele>911.853991728906</ele>
        <time>2019-10-07T08:59:17.000Z</time>
      </trkpt>
      <trkpt lat="42.116402" lon="2.317636">
        <ele>911.027001967969</ele>
        <time>2019-10-07T08:59:23.000Z</time>
      </trkpt>
      <trkpt lat="42.116302" lon="2.317665">
        <ele>909.799987792969</ele>
        <time>2019-10-07T08:59:29.000Z</time>
      </trkpt>
      <trkpt lat="42.116212" lon="2.317713">
        <ele>909</ele>
        <time>2019-10-07T08:59:34.000Z</time>
      </trkpt>
      <trkpt lat="42.11618" lon="2.31784">
        <ele>907.653979521875</ele>
        <time>2019-10-07T08:59:38.000Z</time>
      </trkpt>
      <trkpt lat="42.116156" lon="2.31796">
        <ele>907.454020110156</ele>
        <time>2019-10-07T08:59:42.000Z</time>
      </trkpt>
      <trkpt lat="42.116138" lon="2.318092">
        <ele>906.080997664062</ele>
        <time>2019-10-07T08:59:46.000Z</time>
      </trkpt>
      <trkpt lat="42.116116" lon="2.318221">
        <ele>905.373022446094</ele>
        <time>2019-10-07T08:59:50.000Z</time>
      </trkpt>
      <trkpt lat="42.116082" lon="2.318324">
        <ele>904.508024046094</ele>
        <time>2019-10-07T08:59:53.000Z</time>
      </trkpt>
      <trkpt lat="42.11607" lon="2.318352">
        <ele>904.400024414063</ele>
        <time>2019-10-07T08:59:54.000Z</time>
      </trkpt>
      <trkpt lat="42.116056" lon="2.318373">
        <ele>903.707983457812</ele>
        <time>2019-10-07T08:59:55.000Z</time>
      </trkpt>
      <trkpt lat="42.116044" lon="2.318398">
        <ele>902.826989760938</ele>
        <time>2019-10-07T08:59:57.000Z</time>
      </trkpt>
      <trkpt lat="42.116027" lon="2.318431">
        <ele>902.400024414063</ele>
        <time>2019-10-07T08:59:59.000Z</time>
      </trkpt>
      <trkpt lat="42.116026" lon="2.318467">
        <ele>901.680100500384</ele>
        <time>2019-10-07T09:00:01.000Z</time>
      </trkpt>
      <trkpt lat="42.116018" lon="2.318511">
        <ele>900.680981489844</ele>
        <time>2019-10-07T09:00:03.000Z</time>
      </trkpt>
      <trkpt lat="42.116016" lon="2.31854">
        <ele>900.254007903125</ele>
        <time>2019-10-07T09:00:04.000Z</time>
      </trkpt>
      <trkpt lat="42.116022" lon="2.318575">
        <ele>899.680981489844</ele>
        <time>2019-10-07T09:00:05.000Z</time>
      </trkpt>
      <trkpt lat="42.116024" lon="2.318607">
        <ele>899.599975585938</ele>
        <time>2019-10-07T09:00:06.000Z</time>
      </trkpt>
      <trkpt lat="42.116018" lon="2.318639">
        <ele>899.080997664062</ele>
        <time>2019-10-07T09:00:07.000Z</time>
      </trkpt>
      <trkpt lat="42.115993" lon="2.318664">
        <ele>898.772985825</ele>
        <time>2019-10-07T09:00:09.000Z</time>
      </trkpt>
      <trkpt lat="42.115963" lon="2.318678">
        <ele>898.054003935938</ele>
        <time>2019-10-07T09:00:11.000Z</time>
      </trkpt>
      <trkpt lat="42.115936" lon="2.318686">
        <ele>897.799987792969</ele>
        <time>2019-10-07T09:00:13.000Z</time>
      </trkpt>
      <trkpt lat="42.115918" lon="2.318692">
        <ele>897.454020110156</ele>
        <time>2019-10-07T09:00:14.000Z</time>
      </trkpt>
      <trkpt lat="42.115897" lon="2.318692">
        <ele>896.880993696875</ele>
        <time>2019-10-07T09:00:15.000Z</time>
      </trkpt>
      <trkpt lat="42.115877" lon="2.318688">
        <ele>896.972998032031</ele>
        <time>2019-10-07T09:00:16.000Z</time>
      </trkpt>
      <trkpt lat="42.115859" lon="2.318675">
        <ele>896.481022078125</ele>
        <time>2019-10-07T09:00:17.000Z</time>
      </trkpt>
      <trkpt lat="42.11584" lon="2.31867">
        <ele>896.227014175</ele>
        <time>2019-10-07T09:00:18.000Z</time>
      </trkpt>
      <trkpt lat="42.115821" lon="2.318668">
        <ele>895.853991728906</ele>
        <time>2019-10-07T09:00:19.000Z</time>
      </trkpt>
      <trkpt lat="42.115786" lon="2.318687">
        <ele>894.734977185938</ele>
        <time>2019-10-07T09:00:21.000Z</time>
      </trkpt>
      <trkpt lat="42.115764" lon="2.318696">
        <ele>894.427018142188</ele>
        <time>2019-10-07T09:00:22.000Z</time>
      </trkpt>
      <trkpt lat="42.115742" lon="2.318699">
        <ele>894.054003935938</ele>
        <time>2019-10-07T09:00:23.000Z</time>
      </trkpt>
      <trkpt lat="42.115718" lon="2.318745">
        <ele>891.256418115147</ele>
        <time>2019-10-07T09:01:54.000Z</time>
      </trkpt>
      <trkpt lat="42.115735" lon="2.318779">
        <ele>891.200012207031</ele>
        <time>2019-10-07T09:01:56.000Z</time>
      </trkpt>
      <trkpt lat="42.115758" lon="2.3188">
        <ele>890.530780001562</ele>
        <time>2019-10-07T09:01:58.000Z</time>
      </trkpt>
      <trkpt lat="42.115785" lon="2.318823">
        <ele>890</ele>
        <time>2019-10-07T09:02:00.000Z</time>
      </trkpt>
      <trkpt lat="42.115796" lon="2.318844">
        <ele>889.93079385625</ele>
        <time>2019-10-07T09:02:01.000Z</time>
      </trkpt>
      <trkpt lat="42.115806" lon="2.318867">
        <ele>889.565383073437</ele>
        <time>2019-10-07T09:02:02.000Z</time>
      </trkpt>
      <trkpt lat="42.115822" lon="2.318903">
        <ele>888</ele>
        <time>2019-10-07T09:02:04.000Z</time>
      </trkpt>
      <trkpt lat="42.115832" lon="2.318936">
        <ele>887.565383073437</ele>
        <time>2019-10-07T09:02:06.000Z</time>
      </trkpt>
      <trkpt lat="42.115848" lon="2.318961">
        <ele>886.89620134375</ele>
        <time>2019-10-07T09:02:08.000Z</time>
      </trkpt>
      <trkpt lat="42.115853" lon="2.318999">
        <ele>885.89620134375</ele>
        <time>2019-10-07T09:02:10.000Z</time>
      </trkpt>
      <trkpt lat="42.115866" lon="2.319026">
        <ele>885.130806063281</ele>
        <time>2019-10-07T09:02:12.000Z</time>
      </trkpt>
      <trkpt lat="42.115889" lon="2.319035">
        <ele>884.426970785938</ele>
        <time>2019-10-07T09:02:14.000Z</time>
      </trkpt>
      <trkpt lat="42.115898" lon="2.319058">
        <ele>882.93079385625</ele>
        <time>2019-10-07T09:02:16.000Z</time>
      </trkpt>
      <trkpt lat="42.115885" lon="2.319075">
        <ele>882.565383073437</ele>
        <time>2019-10-07T09:02:17.000Z</time>
      </trkpt>
      <trkpt lat="42.115951" lon="2.319112">
        <ele>879.165244155392</ele>
        <time>2019-10-07T09:02:23.000Z</time>
      </trkpt>
      <trkpt lat="42.115993" lon="2.319115">
        <ele>878.496176929688</ele>
        <time>2019-10-07T09:02:26.000Z</time>
      </trkpt>
      <trkpt lat="42.116004" lon="2.319216">
        <ele>876.696189136719</ele>
        <time>2019-10-07T09:02:30.000Z</time>
      </trkpt>
      <trkpt lat="42.116006" lon="2.319254">
        <ele>875.565383073437</ele>
        <time>2019-10-07T09:02:32.000Z</time>
      </trkpt>
      <trkpt lat="42.116041" lon="2.319288">
        <ele>872.93079385625</ele>
        <time>2019-10-07T09:02:38.000Z</time>
      </trkpt>
      <trkpt lat="42.116034" lon="2.319331">
        <ele>872</ele>
        <time>2019-10-07T09:02:40.000Z</time>
      </trkpt>
      <trkpt lat="42.116033" lon="2.319357">
        <ele>871.860799564063</ele>
        <time>2019-10-07T09:02:41.000Z</time>
      </trkpt>
      <trkpt lat="42.11604" lon="2.319382">
        <ele>871.165244155392</ele>
        <time>2019-10-07T09:02:42.000Z</time>
      </trkpt>
      <trkpt lat="42.116045" lon="2.319406">
        <ele>870.965396928125</ele>
        <time>2019-10-07T09:02:43.000Z</time>
      </trkpt>
      <trkpt lat="42.116066" lon="2.319394">
        <ele>869.930394471875</ele>
        <time>2019-10-07T09:02:46.000Z</time>
      </trkpt>
      <trkpt lat="42.116152" lon="2.319334">
        <ele>867.695590121094</ele>
        <time>2019-10-07T09:02:51.000Z</time>
      </trkpt>
      <trkpt lat="42.11621" lon="2.319389">
        <ele>863.330818270313</ele>
        <time>2019-10-07T09:02:59.000Z</time>
      </trkpt>
      <trkpt lat="42.116232" lon="2.319411">
        <ele>863</ele>
        <time>2019-10-07T09:03:01.000Z</time>
      </trkpt>
      <trkpt lat="42.116235" lon="2.31944">
        <ele>862.565383073437</ele>
        <time>2019-10-07T09:03:03.000Z</time>
      </trkpt>
      <trkpt lat="42.116228" lon="2.31947">
        <ele>862.165409135156</ele>
        <time>2019-10-07T09:03:05.000Z</time>
      </trkpt>
      <trkpt lat="42.116251" lon="2.319473">
        <ele>861.565218144018</ele>
        <time>2019-10-07T09:03:20.000Z</time>
      </trkpt>
      <trkpt lat="42.116267" lon="2.319488">
        <ele>861.365421342187</ele>
        <time>2019-10-07T09:03:23.000Z</time>
      </trkpt>
      <trkpt lat="42.116274" lon="2.319465">
        <ele>860.365421342187</ele>
        <time>2019-10-07T09:03:29.000Z</time>
      </trkpt>
      <trkpt lat="42.116292" lon="2.319462">
        <ele>860.434816557813</ele>
        <time>2019-10-07T09:03:35.000Z</time>
      </trkpt>
      <trkpt lat="42.116308" lon="2.319446">
        <ele>860.400024414063</ele>
        <time>2019-10-07T09:03:40.000Z</time>
      </trkpt>
      <trkpt lat="42.11633" lon="2.319397">
        <ele>859.400024414063</ele>
        <time>2019-10-07T09:03:55.000Z</time>
      </trkpt>
      <trkpt lat="42.116304" lon="2.31941">
        <ele>859.599975585938</ele>
        <time>2019-10-07T09:03:59.000Z</time>
      </trkpt>
      <trkpt lat="42.116285" lon="2.319424">
        <ele>859.565383073437</ele>
        <time>2019-10-07T09:04:00.000Z</time>
      </trkpt>
      <trkpt lat="42.116263" lon="2.319444">
        <ele>859.200012207031</ele>
        <time>2019-10-07T09:04:02.000Z</time>
      </trkpt>
      <trkpt lat="42.116244" lon="2.319461">
        <ele>859.23464986114</ele>
        <time>2019-10-07T09:04:04.000Z</time>
      </trkpt>
      <trkpt lat="42.116233" lon="2.319486">
        <ele>859.599975585938</ele>
        <time>2019-10-07T09:04:06.000Z</time>
      </trkpt>
      <trkpt lat="42.116211" lon="2.319511">
        <ele>859.834590864844</ele>
        <time>2019-10-07T09:04:09.000Z</time>
      </trkpt>
      <trkpt lat="42.116198" lon="2.319536">
        <ele>860.234615278906</ele>
        <time>2019-10-07T09:04:11.000Z</time>
      </trkpt>
      <trkpt lat="42.116183" lon="2.319562">
        <ele>860.634578657813</ele>
        <time>2019-10-07T09:04:13.000Z</time>
      </trkpt>
      <trkpt lat="42.116165" lon="2.319578">
        <ele>860.799987792969</ele>
        <time>2019-10-07T09:04:15.000Z</time>
      </trkpt>
      <trkpt lat="42.116148" lon="2.319606">
        <ele>860.599975585938</ele>
        <time>2019-10-07T09:04:18.000Z</time>
      </trkpt>
      <trkpt lat="42.116136" lon="2.319628">
        <ele>860.565383073437</ele>
        <time>2019-10-07T09:04:20.000Z</time>
      </trkpt>
      <trkpt lat="42.116115" lon="2.319653">
        <ele>860.130806063281</ele>
        <time>2019-10-07T09:04:22.000Z</time>
      </trkpt>
      <trkpt lat="42.116082" lon="2.319673">
        <ele>859.765384721094</ele>
        <time>2019-10-07T09:04:24.000Z</time>
      </trkpt>
      <trkpt lat="42.116047" lon="2.319679">
        <ele>859.530450092378</ele>
        <time>2019-10-07T09:04:26.000Z</time>
      </trkpt>
      <trkpt lat="42.116014" lon="2.319686">
        <ele>858.957801263281</ele>
        <time>2019-10-07T09:04:28.000Z</time>
      </trkpt>
      <trkpt lat="42.115986" lon="2.319669">
        <ele>857.234615278906</ele>
        <time>2019-10-07T09:04:30.000Z</time>
      </trkpt>
      <trkpt lat="42.115952" lon="2.319667">
        <ele>857.330818270313</ele>
        <time>2019-10-07T09:04:32.000Z</time>
      </trkpt>
      <trkpt lat="42.115932" lon="2.319673">
        <ele>856.965396928125</ele>
        <time>2019-10-07T09:04:33.000Z</time>
      </trkpt>
      <trkpt lat="42.115911" lon="2.319673">
        <ele>856.799987792969</ele>
        <time>2019-10-07T09:04:34.000Z</time>
      </trkpt>
      <trkpt lat="42.115887" lon="2.319667">
        <ele>856.661586064844</ele>
        <time>2019-10-07T09:04:35.000Z</time>
      </trkpt>
      <trkpt lat="42.115868" lon="2.319652">
        <ele>856.034603071875</ele>
        <time>2019-10-07T09:04:36.000Z</time>
      </trkpt>
      <trkpt lat="42.115777" lon="2.319601">
        <ele>854.365421342187</ele>
        <time>2019-10-07T09:04:41.000Z</time>
      </trkpt>
      <trkpt lat="42.115762" lon="2.319586">
        <ele>853.557787408594</ele>
        <time>2019-10-07T09:04:44.000Z</time>
      </trkpt>
      <trkpt lat="42.115667" lon="2.319554">
        <ele>850.861459953493</ele>
        <time>2019-10-07T09:04:50.000Z</time>
      </trkpt>
      <trkpt lat="42.1156" lon="2.319512">
        <ele>848.965396928125</ele>
        <time>2019-10-07T09:04:56.000Z</time>
      </trkpt>
      <trkpt lat="42.115575" lon="2.319519">
        <ele>848.165409135156</ele>
        <time>2019-10-07T09:04:59.000Z</time>
      </trkpt>
      <trkpt lat="42.114066" lon="2.318591">
        <ele>848.581671983445</ele>
        <time>2019-10-07T09:07:57.000Z</time>
      </trkpt>
      <trkpt lat="42.114074" lon="2.318566">
        <ele>848.588782931284</ele>
        <time>2019-10-07T09:07:58.000Z</time>
      </trkpt>
      <trkpt lat="42.114082" lon="2.318542">
        <ele>848.595893879123</ele>
        <time>2019-10-07T09:07:59.000Z</time>
      </trkpt>
      <trkpt lat="42.114087" lon="2.318513">
        <ele>848.429592466406</ele>
        <time>2019-10-07T09:08:00.000Z</time>
      </trkpt>
      <trkpt lat="42.114092" lon="2.318472">
        <ele>847.459195553125</ele>
        <time>2019-10-07T09:08:02.000Z</time>
      </trkpt>
      <trkpt lat="42.114094" lon="2.318447">
        <ele>846.34438790625</ele>
        <time>2019-10-07T09:08:04.000Z</time>
      </trkpt>
      <trkpt lat="42.114091" lon="2.318415">
        <ele>844.22961529375</ele>
        <time>2019-10-07T09:08:07.000Z</time>
      </trkpt>
      <trkpt lat="42.11411" lon="2.318419">
        <ele>842.22961529375</ele>
        <time>2019-10-07T09:08:13.000Z</time>
      </trkpt>
      <trkpt lat="42.114132" lon="2.318435">
        <ele>841.914795439844</ele>
        <time>2019-10-07T09:08:15.000Z</time>
      </trkpt>
      <trkpt lat="42.114124" lon="2.318401">
        <ele>841.599975585938</ele>
        <time>2019-10-07T09:08:18.000Z</time>
      </trkpt>
      <trkpt lat="42.114138" lon="2.318378">
        <ele>840.799987792969</ele>
        <time>2019-10-07T09:08:23.000Z</time>
      </trkpt>
      <trkpt lat="42.11415" lon="2.318404">
        <ele>840.799987792969</ele>
        <time>2019-10-07T09:08:31.000Z</time>
      </trkpt>
      <trkpt lat="42.114141" lon="2.318436">
        <ele>840.485202973437</ele>
        <time>2019-10-07T09:08:34.000Z</time>
      </trkpt>
      <trkpt lat="42.11413" lon="2.318455">
        <ele>840.485202973437</ele>
        <time>2019-10-07T09:08:36.000Z</time>
      </trkpt>
      <trkpt lat="42.114115" lon="2.318481">
        <ele>840.714783232812</ele>
        <time>2019-10-07T09:08:39.000Z</time>
      </trkpt>
      <trkpt lat="42.114113" lon="2.318506">
        <ele>840.970396913281</ele>
        <time>2019-10-07T09:08:41.000Z</time>
      </trkpt>
      <trkpt lat="42.11412" lon="2.318536">
        <ele>841.685180146094</ele>
        <time>2019-10-07T09:08:43.000Z</time>
      </trkpt>
      <trkpt lat="42.114115" lon="2.31857">
        <ele>842.570407533594</ele>
        <time>2019-10-07T09:08:45.000Z</time>
      </trkpt>
      <trkpt lat="42.114105" lon="2.318603">
        <ele>843.285216767188</ele>
        <time>2019-10-07T09:08:47.000Z</time>
      </trkpt>
      <trkpt lat="42.114088" lon="2.318627">
        <ele>843.685180146094</ele>
        <time>2019-10-07T09:08:49.000Z</time>
      </trkpt>
      <trkpt lat="42.114073" lon="2.318653">
        <ele>844.77038470625</ele>
        <time>2019-10-07T09:08:52.000Z</time>
      </trkpt>
      <trkpt lat="42.114065" lon="2.318676">
        <ele>846.085204560156</ele>
        <time>2019-10-07T09:08:55.000Z</time>
      </trkpt>
      <trkpt lat="42.114049" lon="2.31869">
        <ele>846.485202973437</ele>
        <time>2019-10-07T09:08:57.000Z</time>
      </trkpt>
      <trkpt lat="42.114027" lon="2.31871">
        <ele>847.255587679688</ele>
        <time>2019-10-07T09:08:59.000Z</time>
      </trkpt>
      <trkpt lat="42.11401" lon="2.318734">
        <ele>848.170409120312</ele>
        <time>2019-10-07T09:09:01.000Z</time>
      </trkpt>
      <trkpt lat="42.113936" lon="2.318832">
        <ele>847.629604673437</ele>
        <time>2019-10-07T09:09:09.000Z</time>
      </trkpt>
      <trkpt lat="42.113825" lon="2.318815">
        <ele>846.029603086719</ele>
        <time>2019-10-07T09:09:15.000Z</time>
      </trkpt>
      <trkpt lat="42.113739" lon="2.318753">
        <ele>844.544400113281</ele>
        <time>2019-10-07T09:09:19.000Z</time>
      </trkpt>
      <trkpt lat="42.113799" lon="2.318651">
        <ele>840.944398526563</ele>
        <time>2019-10-07T09:09:28.000Z</time>
      </trkpt>
      <trkpt lat="42.113816" lon="2.318506">
        <ele>834.514797026563</ele>
        <time>2019-10-07T09:09:42.000Z</time>
      </trkpt>
      <trkpt lat="42.113839" lon="2.318389">
        <ele>831.029603086719</ele>
        <time>2019-10-07T09:09:49.000Z</time>
      </trkpt>
      <trkpt lat="42.113768" lon="2.318312">
        <ele>824.659207760156</ele>
        <time>2019-10-07T09:09:59.000Z</time>
      </trkpt>
      <trkpt lat="42.113793" lon="2.318184">
        <ele>820.514797026563</ele>
        <time>2019-10-07T09:10:06.000Z</time>
      </trkpt>
      <trkpt lat="42.113812" lon="2.31805">
        <ele>819.599975585938</ele>
        <time>2019-10-07T09:10:16.000Z</time>
      </trkpt>
      <trkpt lat="42.113794" lon="2.317855">
        <ele>823.974797821875</ele>
        <time>2019-10-07T09:16:48.000Z</time>
      </trkpt>
      <trkpt lat="42.113822" lon="2.317933">
        <ele>826.749940483548</ele>
        <time>2019-10-07T09:16:57.000Z</time>
      </trkpt>
      <trkpt lat="42.113779" lon="2.318044">
        <ele>830.174835165664</ele>
        <time>2019-10-07T09:17:08.000Z</time>
      </trkpt>
      <trkpt lat="42.113676" lon="2.318102">
        <ele>831.174810028906</ele>
        <time>2019-10-07T09:17:13.000Z</time>
      </trkpt>
      <trkpt lat="42.113616" lon="2.318104">
        <ele>831.774785614844</ele>
        <time>2019-10-07T09:17:18.000Z</time>
      </trkpt>
      <trkpt lat="42.113596" lon="2.3181">
        <ele>832.374822235937</ele>
        <time>2019-10-07T09:17:20.000Z</time>
      </trkpt>
      <trkpt lat="42.113574" lon="2.318104">
        <ele>833.12492978693</ele>
        <time>2019-10-07T09:17:22.000Z</time>
      </trkpt>
      <trkpt lat="42.113553" lon="2.318095">
        <ele>833.974797821875</ele>
        <time>2019-10-07T09:17:25.000Z</time>
      </trkpt>
      <trkpt lat="42.113535" lon="2.318102">
        <ele>835.499174564063</ele>
        <time>2019-10-07T09:17:28.000Z</time>
      </trkpt>
      <trkpt lat="42.113543" lon="2.318074">
        <ele>836.549629186158</ele>
        <time>2019-10-07T09:17:32.000Z</time>
      </trkpt>
      <trkpt lat="42.113524" lon="2.318044">
        <ele>837.324417879688</ele>
        <time>2019-10-07T09:17:35.000Z</time>
      </trkpt>
      <trkpt lat="42.113524" lon="2.318014">
        <ele>838.174810028906</ele>
        <time>2019-10-07T09:17:37.000Z</time>
      </trkpt>
      <trkpt lat="42.113521" lon="2.317967">
        <ele>839.949645917266</ele>
        <time>2019-10-07T09:17:41.000Z</time>
      </trkpt>
      <trkpt lat="42.113513" lon="2.317914">
        <ele>841.374822235937</ele>
        <time>2019-10-07T09:17:45.000Z</time>
      </trkpt>
      <trkpt lat="42.113507" lon="2.317886">
        <ele>841.774785614844</ele>
        <time>2019-10-07T09:17:47.000Z</time>
      </trkpt>
      <trkpt lat="42.1135" lon="2.31786">
        <ele>842.549578920312</ele>
        <time>2019-10-07T09:17:49.000Z</time>
      </trkpt>
      <trkpt lat="42.113501" lon="2.317822">
        <ele>843.174810028906</ele>
        <time>2019-10-07T09:17:52.000Z</time>
      </trkpt>
      <trkpt lat="42.113502" lon="2.317787">
        <ele>843.94959564375</ele>
        <time>2019-10-07T09:17:55.000Z</time>
      </trkpt>
      <trkpt lat="42.113503" lon="2.317761">
        <ele>844.200012207031</ele>
        <time>2019-10-07T09:17:57.000Z</time>
      </trkpt>
      <trkpt lat="42.113506" lon="2.317735">
        <ele>844.225214385156</ele>
        <time>2019-10-07T09:17:59.000Z</time>
      </trkpt>
      <trkpt lat="42.113496" lon="2.317703">
        <ele>844.374822235937</ele>
        <time>2019-10-07T09:18:01.000Z</time>
      </trkpt>
      <trkpt lat="42.113486" lon="2.317673">
        <ele>844.974797821875</ele>
        <time>2019-10-07T09:18:03.000Z</time>
      </trkpt>
      <trkpt lat="42.113477" lon="2.317644">
        <ele>845.924925217212</ele>
        <time>2019-10-07T09:18:05.000Z</time>
      </trkpt>
      <trkpt lat="42.113473" lon="2.317616">
        <ele>846.499174564063</ele>
        <time>2019-10-07T09:18:07.000Z</time>
      </trkpt>
      <trkpt lat="42.113468" lon="2.317576">
        <ele>846.774785614844</ele>
        <time>2019-10-07T09:18:09.000Z</time>
      </trkpt>
      <trkpt lat="42.113463" lon="2.317551">
        <ele>847.324417879688</ele>
        <time>2019-10-07T09:18:10.000Z</time>
      </trkpt>
      <trkpt lat="42.113455" lon="2.317526">
        <ele>847.05040435625</ele>
        <time>2019-10-07T09:18:11.000Z</time>
      </trkpt>
      <trkpt lat="42.113441" lon="2.317494">
        <ele>848.099211185156</ele>
        <time>2019-10-07T09:18:13.000Z</time>
      </trkpt>
      <trkpt lat="42.113414" lon="2.317456">
        <ele>848.974972526633</ele>
        <time>2019-10-07T09:18:17.000Z</time>
      </trkpt>
      <trkpt lat="42.113399" lon="2.31744">
        <ele>850.149607850781</ele>
        <time>2019-10-07T09:18:19.000Z</time>
      </trkpt>
      <trkpt lat="42.11337" lon="2.31742">
        <ele>850.949645917266</ele>
        <time>2019-10-07T09:18:21.000Z</time>
      </trkpt>
      <trkpt lat="42.113354" lon="2.317402">
        <ele>851.749591127344</ele>
        <time>2019-10-07T09:18:23.000Z</time>
      </trkpt>
      <trkpt lat="42.113339" lon="2.317387">
        <ele>852.749641393189</ele>
        <time>2019-10-07T09:18:25.000Z</time>
      </trkpt>
      <trkpt lat="42.113323" lon="2.317357">
        <ele>853.749591127344</ele>
        <time>2019-10-07T09:18:28.000Z</time>
      </trkpt>
      <trkpt lat="42.113311" lon="2.317326">
        <ele>854.574781098437</ele>
        <time>2019-10-07T09:18:30.000Z</time>
      </trkpt>
      <trkpt lat="42.113291" lon="2.3173">
        <ele>855.149607850781</ele>
        <time>2019-10-07T09:18:32.000Z</time>
      </trkpt>
      <trkpt lat="42.113282" lon="2.317276">
        <ele>856.349670331329</ele>
        <time>2019-10-07T09:18:34.000Z</time>
      </trkpt>
      <trkpt lat="42.113273" lon="2.317246">
        <ele>856.94959564375</ele>
        <time>2019-10-07T09:18:36.000Z</time>
      </trkpt>
      <trkpt lat="42.113253" lon="2.317221">
        <ele>857.749591127344</ele>
        <time>2019-10-07T09:18:39.000Z</time>
      </trkpt>
      <trkpt lat="42.113227" lon="2.317211">
        <ele>858.749591127344</ele>
        <time>2019-10-07T09:18:42.000Z</time>
      </trkpt>
      <trkpt lat="42.113212" lon="2.317186">
        <ele>859.524452144791</ele>
        <time>2019-10-07T09:18:44.000Z</time>
      </trkpt>
      <trkpt lat="42.113198" lon="2.317164">
        <ele>860</ele>
        <time>2019-10-07T09:18:46.000Z</time>
      </trkpt>
      <trkpt lat="42.113187" lon="2.317141">
        <ele>860.574781098437</ele>
        <time>2019-10-07T09:18:48.000Z</time>
      </trkpt>
      <trkpt lat="42.113172" lon="2.317122">
        <ele>861.749591127344</ele>
        <time>2019-10-07T09:18:51.000Z</time>
      </trkpt>
      <trkpt lat="42.113153" lon="2.317104">
        <ele>862.774810751602</ele>
        <time>2019-10-07T09:18:54.000Z</time>
      </trkpt>
      <trkpt lat="42.113141" lon="2.317086">
        <ele>863.574781098437</ele>
        <time>2019-10-07T09:18:56.000Z</time>
      </trkpt>
      <trkpt lat="42.113132" lon="2.317057">
        <ele>864.524376742188</ele>
        <time>2019-10-07T09:18:58.000Z</time>
      </trkpt>
      <trkpt lat="42.113122" lon="2.317029">
        <ele>865.524900803149</ele>
        <time>2019-10-07T09:19:01.000Z</time>
      </trkpt>
      <trkpt lat="42.113113" lon="2.317007">
        <ele>866.549578920312</ele>
        <time>2019-10-07T09:19:03.000Z</time>
      </trkpt>
      <trkpt lat="42.113103" lon="2.316983">
        <ele>867.174810028906</ele>
        <time>2019-10-07T09:19:05.000Z</time>
      </trkpt>
      <trkpt lat="42.113093" lon="2.31696">
        <ele>867.749591127344</ele>
        <time>2019-10-07T09:19:07.000Z</time>
      </trkpt>
      <trkpt lat="42.113083" lon="2.316939">
        <ele>868</ele>
        <time>2019-10-07T09:19:09.000Z</time>
      </trkpt>
      <trkpt lat="42.113064" lon="2.316927">
        <ele>868.400024414063</ele>
        <time>2019-10-07T09:19:12.000Z</time>
      </trkpt>
      <trkpt lat="42.113049" lon="2.316903">
        <ele>868.949645917266</ele>
        <time>2019-10-07T09:19:14.000Z</time>
      </trkpt>
      <trkpt lat="42.113038" lon="2.316882">
        <ele>869.94959564375</ele>
        <time>2019-10-07T09:19:16.000Z</time>
      </trkpt>
      <trkpt lat="42.113021" lon="2.316861">
        <ele>871.324417879688</ele>
        <time>2019-10-07T09:19:19.000Z</time>
      </trkpt>
      <trkpt lat="42.113006" lon="2.316838">
        <ele>872.124481082931</ele>
        <time>2019-10-07T09:19:21.000Z</time>
      </trkpt>
      <trkpt lat="42.113002" lon="2.316806">
        <ele>872.94959564375</ele>
        <time>2019-10-07T09:19:23.000Z</time>
      </trkpt>
      <trkpt lat="42.112994" lon="2.316779">
        <ele>873.749591127344</ele>
        <time>2019-10-07T09:19:25.000Z</time>
      </trkpt>
      <trkpt lat="42.112987" lon="2.31675">
        <ele>874</ele>
        <time>2019-10-07T09:19:27.000Z</time>
      </trkpt>
      <trkpt lat="42.112984" lon="2.316724">
        <ele>874.574781098437</ele>
        <time>2019-10-07T09:19:29.000Z</time>
      </trkpt>
      <trkpt lat="42.112977" lon="2.316699">
        <ele>874.949645917266</ele>
        <time>2019-10-07T09:19:31.000Z</time>
      </trkpt>
      <trkpt lat="42.112967" lon="2.316669">
        <ele>875</ele>
        <time>2019-10-07T09:19:33.000Z</time>
      </trkpt>
      <trkpt lat="42.112956" lon="2.31664">
        <ele>875.549578920312</ele>
        <time>2019-10-07T09:19:35.000Z</time>
      </trkpt>
      <trkpt lat="42.112942" lon="2.316622">
        <ele>876</ele>
        <time>2019-10-07T09:19:37.000Z</time>
      </trkpt>
      <trkpt lat="42.112932" lon="2.316594">
        <ele>876.374822235937</ele>
        <time>2019-10-07T09:19:39.000Z</time>
      </trkpt>
      <trkpt lat="42.112924" lon="2.316568">
        <ele>876.599975585938</ele>
        <time>2019-10-07T09:19:41.000Z</time>
      </trkpt>
      <trkpt lat="42.112913" lon="2.316545">
        <ele>876.774785614844</ele>
        <time>2019-10-07T09:19:43.000Z</time>
      </trkpt>
      <trkpt lat="42.112901" lon="2.316518">
        <ele>877.174810028906</ele>
        <time>2019-10-07T09:19:45.000Z</time>
      </trkpt>
      <trkpt lat="42.112886" lon="2.316487">
        <ele>877.374822235937</ele>
        <time>2019-10-07T09:19:47.000Z</time>
      </trkpt>
      <trkpt lat="42.112875" lon="2.31645">
        <ele>877.400024414063</ele>
        <time>2019-10-07T09:19:49.000Z</time>
      </trkpt>
      <trkpt lat="42.112862" lon="2.316414">
        <ele>877.425218901563</ele>
        <time>2019-10-07T09:19:51.000Z</time>
      </trkpt>
      <trkpt lat="42.112856" lon="2.31638">
        <ele>877.400024414063</ele>
        <time>2019-10-07T09:19:53.000Z</time>
      </trkpt>
      <trkpt lat="42.112857" lon="2.316334">
        <ele>877.799987792969</ele>
        <time>2019-10-07T09:19:55.000Z</time>
      </trkpt>
      <trkpt lat="42.112861" lon="2.316303">
        <ele>877.974797821875</ele>
        <time>2019-10-07T09:19:57.000Z</time>
      </trkpt>
      <trkpt lat="42.112866" lon="2.316271">
        <ele>877.799987792969</ele>
        <time>2019-10-07T09:19:59.000Z</time>
      </trkpt>
      <trkpt lat="42.11281" lon="2.316268">
        <ele>878.014049629499</ele>
        <time>2019-10-07T09:21:58.000Z</time>
      </trkpt>
      <trkpt lat="42.11277" lon="2.316237">
        <ele>878</ele>
        <time>2019-10-07T09:22:00.000Z</time>
      </trkpt>
      <trkpt lat="42.112747" lon="2.31621">
        <ele>877.967798354687</ele>
        <time>2019-10-07T09:22:01.000Z</time>
      </trkpt>
      <trkpt lat="42.112725" lon="2.316183">
        <ele>877.832189438281</ele>
        <time>2019-10-07T09:22:02.000Z</time>
      </trkpt>
      <trkpt lat="42.112702" lon="2.316154">
        <ele>877.935596709375</ele>
        <time>2019-10-07T09:22:03.000Z</time>
      </trkpt>
      <trkpt lat="42.11268" lon="2.316121">
        <ele>877.503380476562</ele>
        <time>2019-10-07T09:22:04.000Z</time>
      </trkpt>
      <trkpt lat="42.112662" lon="2.316094">
        <ele>876.967798354687</ele>
        <time>2019-10-07T09:22:05.000Z</time>
      </trkpt>
      <trkpt lat="42.112636" lon="2.316056">
        <ele>876.671191038281</ele>
        <time>2019-10-07T09:22:06.000Z</time>
      </trkpt>
      <trkpt lat="42.112565" lon="2.315961">
        <ele>875.200012207031</ele>
        <time>2019-10-07T09:22:09.000Z</time>
      </trkpt>
      <trkpt lat="42.112513" lon="2.315893">
        <ele>874.400024414063</ele>
        <time>2019-10-07T09:22:11.000Z</time>
      </trkpt>
      <trkpt lat="42.112488" lon="2.315857">
        <ele>874.271217832812</ele>
        <time>2019-10-07T09:22:12.000Z</time>
      </trkpt>
      <trkpt lat="42.112459" lon="2.315819">
        <ele>873.599975585938</ele>
        <time>2019-10-07T09:22:13.000Z</time>
      </trkpt>
      <trkpt lat="42.112435" lon="2.315788">
        <ele>873.567783767188</ele>
        <time>2019-10-07T09:22:14.000Z</time>
      </trkpt>
      <trkpt lat="42.112352" lon="2.315717">
        <ele>873.167810561719</ele>
        <time>2019-10-07T09:22:17.000Z</time>
      </trkpt>
      <trkpt lat="42.112321" lon="2.315695">
        <ele>873</ele>
        <time>2019-10-07T09:22:18.000Z</time>
      </trkpt>
      <trkpt lat="42.112227" lon="2.315656">
        <ele>872.767786147656</ele>
        <time>2019-10-07T09:22:21.000Z</time>
      </trkpt>
      <trkpt lat="42.112196" lon="2.315657">
        <ele>872.599975585938</ele>
        <time>2019-10-07T09:22:22.000Z</time>
      </trkpt>
      <trkpt lat="42.112162" lon="2.315654">
        <ele>872.567783767188</ele>
        <time>2019-10-07T09:22:23.000Z</time>
      </trkpt>
      <trkpt lat="42.112132" lon="2.315651">
        <ele>872.400024414063</ele>
        <time>2019-10-07T09:22:24.000Z</time>
      </trkpt>
      <trkpt lat="42.112102" lon="2.315656">
        <ele>872.303419478125</ele>
        <time>2019-10-07T09:22:25.000Z</time>
      </trkpt>
      <trkpt lat="42.11207" lon="2.315662">
        <ele>871.832189438281</ele>
        <time>2019-10-07T09:22:26.000Z</time>
      </trkpt>
      <trkpt lat="42.112041" lon="2.315666">
        <ele>872.096595109375</ele>
        <time>2019-10-07T09:22:27.000Z</time>
      </trkpt>
      <trkpt lat="42.112011" lon="2.315666">
        <ele>872.696580521875</ele>
        <time>2019-10-07T09:22:28.000Z</time>
      </trkpt>
      <trkpt lat="42.11198" lon="2.315658">
        <ele>873.264405671094</ele>
        <time>2019-10-07T09:22:29.000Z</time>
      </trkpt>
      <trkpt lat="42.111948" lon="2.315646">
        <ele>873.664378876563</ele>
        <time>2019-10-07T09:22:30.000Z</time>
      </trkpt>
      <trkpt lat="42.11192" lon="2.315642">
        <ele>874.096595109375</ele>
        <time>2019-10-07T09:22:31.000Z</time>
      </trkpt>
      <trkpt lat="42.111887" lon="2.315638">
        <ele>874.63217723125</ele>
        <time>2019-10-07T09:22:32.000Z</time>
      </trkpt>
      <trkpt lat="42.111855" lon="2.315636">
        <ele>874.864391083594</ele>
        <time>2019-10-07T09:22:33.000Z</time>
      </trkpt>
      <trkpt lat="42.111827" lon="2.315644">
        <ele>875.232213852344</ele>
        <time>2019-10-07T09:22:34.000Z</time>
      </trkpt>
      <trkpt lat="42.111796" lon="2.315652">
        <ele>875.496619523438</ele>
        <time>2019-10-07T09:22:35.000Z</time>
      </trkpt>
      <trkpt lat="42.11177" lon="2.315659">
        <ele>876.032201645313</ele>
        <time>2019-10-07T09:22:36.000Z</time>
      </trkpt>
      <trkpt lat="42.111746" lon="2.315668">
        <ele>876.232213852344</ele>
        <time>2019-10-07T09:22:37.000Z</time>
      </trkpt>
      <trkpt lat="42.111724" lon="2.315684">
        <ele>876.432216232812</ele>
        <time>2019-10-07T09:22:38.000Z</time>
      </trkpt>
      <trkpt lat="42.1117" lon="2.315697">
        <ele>876.696580521875</ele>
        <time>2019-10-07T09:22:39.000Z</time>
      </trkpt>
      <trkpt lat="42.111675" lon="2.315708">
        <ele>877.232213852344</ele>
        <time>2019-10-07T09:22:40.000Z</time>
      </trkpt>
      <trkpt lat="42.111651" lon="2.315713">
        <ele>877.496619523438</ele>
        <time>2019-10-07T09:22:41.000Z</time>
      </trkpt>
      <trkpt lat="42.111629" lon="2.31572">
        <ele>878.064403290625</ele>
        <time>2019-10-07T09:22:42.000Z</time>
      </trkpt>
      <trkpt lat="42.111601" lon="2.315721">
        <ele>878.464417878125</ele>
        <time>2019-10-07T09:22:43.000Z</time>
      </trkpt>
      <trkpt lat="42.11157" lon="2.315709">
        <ele>878.864391083594</ele>
        <time>2019-10-07T09:22:44.000Z</time>
      </trkpt>
      <trkpt lat="42.111544" lon="2.315676">
        <ele>879.232213852344</ele>
        <time>2019-10-07T09:22:45.000Z</time>
      </trkpt>
      <trkpt lat="42.111523" lon="2.315629">
        <ele>879.496619523438</ele>
        <time>2019-10-07T09:22:46.000Z</time>
      </trkpt>
      <trkpt lat="42.111508" lon="2.315583">
        <ele>880</ele>
        <time>2019-10-07T09:22:47.000Z</time>
      </trkpt>
      <trkpt lat="42.111503" lon="2.315532">
        <ele>880.096595109375</ele>
        <time>2019-10-07T09:22:48.000Z</time>
      </trkpt>
      <trkpt lat="42.111502" lon="2.315479">
        <ele>880.567783767188</ele>
        <time>2019-10-07T09:22:49.000Z</time>
      </trkpt>
      <trkpt lat="42.111505" lon="2.315423">
        <ele>880.464417878125</ele>
        <time>2019-10-07T09:22:50.000Z</time>
      </trkpt>
      <trkpt lat="42.111505" lon="2.315369">
        <ele>880.703392683594</ele>
        <time>2019-10-07T09:22:51.000Z</time>
      </trkpt>
      <trkpt lat="42.111504" lon="2.315318">
        <ele>880.232213852344</ele>
        <time>2019-10-07T09:22:52.000Z</time>
      </trkpt>
      <trkpt lat="42.11151" lon="2.315169">
        <ele>879.638989392969</ele>
        <time>2019-10-07T09:22:55.000Z</time>
      </trkpt>
      <trkpt lat="42.111512" lon="2.315011">
        <ele>878.200012207031</ele>
        <time>2019-10-07T09:22:58.000Z</time>
      </trkpt>
      <trkpt lat="42.111493" lon="2.314862">
        <ele>877.071215452344</ele>
        <time>2019-10-07T09:23:01.000Z</time>
      </trkpt>
      <trkpt lat="42.111464" lon="2.314714">
        <ele>875.599975585938</ele>
        <time>2019-10-07T09:23:04.000Z</time>
      </trkpt>
      <trkpt lat="42.111456" lon="2.314551">
        <ele>874.8390016</ele>
        <time>2019-10-07T09:23:07.000Z</time>
      </trkpt>
      <trkpt lat="42.111449" lon="2.314402">
        <ele>873.400024414063</ele>
        <time>2019-10-07T09:23:10.000Z</time>
      </trkpt>
      <trkpt lat="42.11144" lon="2.314258">
        <ele>872.871203245312</ele>
        <time>2019-10-07T09:23:13.000Z</time>
      </trkpt>
      <trkpt lat="42.111389" lon="2.314133">
        <ele>871.63217723125</ele>
        <time>2019-10-07T09:23:16.000Z</time>
      </trkpt>
      <trkpt lat="42.111289" lon="2.314034">
        <ele>870.47117883125</ele>
        <time>2019-10-07T09:23:19.000Z</time>
      </trkpt>
      <trkpt lat="42.111216" lon="2.313958">
        <ele>869.174622723438</ele>
        <time>2019-10-07T09:23:21.000Z</time>
      </trkpt>
      <trkpt lat="42.111114" lon="2.313843">
        <ele>866.239026014062</ele>
        <time>2019-10-07T09:23:24.000Z</time>
      </trkpt>
      <trkpt lat="42.111034" lon="2.313716">
        <ele>863.935596709375</ele>
        <time>2019-10-07T09:23:27.000Z</time>
      </trkpt>
      <trkpt lat="42.110958" lon="2.313588">
        <ele>861.735259630067</ele>
        <time>2019-10-07T09:23:30.000Z</time>
      </trkpt>
      <trkpt lat="42.110895" lon="2.313475">
        <ele>860.871203245312</ele>
        <time>2019-10-07T09:23:33.000Z</time>
      </trkpt>
      <trkpt lat="42.110822" lon="2.313352">
        <ele>859.464417878125</ele>
        <time>2019-10-07T09:23:36.000Z</time>
      </trkpt>
      <trkpt lat="42.110745" lon="2.313234">
        <ele>858.8390016</ele>
        <time>2019-10-07T09:23:39.000Z</time>
      </trkpt>
      <trkpt lat="42.110766" lon="2.313169">
        <ele>855.967798354687</ele>
        <time>2019-10-07T09:23:47.000Z</time>
      </trkpt>
      <trkpt lat="42.11077" lon="2.313141">
        <ele>856.567783767188</ele>
        <time>2019-10-07T09:23:56.000Z</time>
      </trkpt>
      <trkpt lat="42.110756" lon="2.313121">
        <ele>856.400024414063</ele>
        <time>2019-10-07T09:23:58.000Z</time>
      </trkpt>
      <trkpt lat="42.110779" lon="2.313114">
        <ele>855.967798354687</ele>
        <time>2019-10-07T09:24:29.000Z</time>
      </trkpt>
      <trkpt lat="42.110725" lon="2.313094">
        <ele>855.415966127896</ele>
        <time>2019-10-07T09:25:38.000Z</time>
      </trkpt>
      <trkpt lat="42.110704" lon="2.313084">
        <ele>855.404179271509</ele>
        <time>2019-10-07T09:25:40.000Z</time>
      </trkpt>
      <trkpt lat="42.110684" lon="2.313075">
        <ele>855.400024414063</ele>
        <time>2019-10-07T09:25:41.000Z</time>
      </trkpt>
      <trkpt lat="42.11066" lon="2.313064">
        <ele>855.518014250781</ele>
        <time>2019-10-07T09:25:42.000Z</time>
      </trkpt>
      <trkpt lat="42.110628" lon="2.313061">
        <ele>855.68199795625</ele>
        <time>2019-10-07T09:25:43.000Z</time>
      </trkpt>
      <trkpt lat="42.110524" lon="2.31306">
        <ele>855.518014250781</ele>
        <time>2019-10-07T09:25:46.000Z</time>
      </trkpt>
      <trkpt lat="42.110415" lon="2.313061">
        <ele>855.164008729687</ele>
        <time>2019-10-07T09:25:49.000Z</time>
      </trkpt>
      <trkpt lat="42.110305" lon="2.313056">
        <ele>853.823006242187</ele>
        <time>2019-10-07T09:25:52.000Z</time>
      </trkpt>
      <trkpt lat="42.110204" lon="2.313029">
        <ele>853.717983428125</ele>
        <time>2019-10-07T09:25:55.000Z</time>
      </trkpt>
      <trkpt lat="42.110111" lon="2.31302">
        <ele>853.563990114062</ele>
        <time>2019-10-07T09:25:58.000Z</time>
      </trkpt>
      <trkpt lat="42.110043" lon="2.313103">
        <ele>851.799987792969</ele>
        <time>2019-10-07T09:26:04.000Z</time>
      </trkpt>
      <trkpt lat="42.110063" lon="2.313087">
        <ele>851.200012207031</ele>
        <time>2019-10-07T09:26:10.000Z</time>
      </trkpt>
      <trkpt lat="42.110082" lon="2.313075">
        <ele>851</ele>
        <time>2019-10-07T09:26:14.000Z</time>
      </trkpt>
      <trkpt lat="42.110108" lon="2.313078">
        <ele>850.940996078906</ele>
        <time>2019-10-07T09:26:29.000Z</time>
      </trkpt>
      <trkpt lat="42.110051" lon="2.313186">
        <ele>850.658979507031</ele>
        <time>2019-10-07T09:26:34.000Z</time>
      </trkpt>
      <trkpt lat="42.110021" lon="2.313336">
        <ele>850.717983428125</ele>
        <time>2019-10-07T09:26:38.000Z</time>
      </trkpt>
      <trkpt lat="42.109991" lon="2.313466">
        <ele>850.68199795625</ele>
        <time>2019-10-07T09:26:41.000Z</time>
      </trkpt>
      <trkpt lat="42.109939" lon="2.313621">
        <ele>850.658979507031</ele>
        <time>2019-10-07T09:26:45.000Z</time>
      </trkpt>
      <trkpt lat="42.109919" lon="2.313766">
        <ele>850.363977907031</ele>
        <time>2019-10-07T09:26:48.000Z</time>
      </trkpt>
      <trkpt lat="42.109921" lon="2.313916">
        <ele>849.905010607031</ele>
        <time>2019-10-07T09:26:51.000Z</time>
      </trkpt>
      <trkpt lat="42.109925" lon="2.314055">
        <ele>849</ele>
        <time>2019-10-07T09:26:54.000Z</time>
      </trkpt>
      <trkpt lat="42.109876" lon="2.314206">
        <ele>848.540989670312</ele>
        <time>2019-10-07T09:26:57.000Z</time>
      </trkpt>
      <trkpt lat="42.10983" lon="2.314332">
        <ele>848.282016571875</ele>
        <time>2019-10-07T09:27:00.000Z</time>
      </trkpt>
      <trkpt lat="42.10979" lon="2.314457">
        <ele>848.282016571875</ele>
        <time>2019-10-07T09:27:03.000Z</time>
      </trkpt>
      <trkpt lat="42.10972" lon="2.314543">
        <ele>847.97699955625</ele>
        <time>2019-10-07T09:27:06.000Z</time>
      </trkpt>
      <trkpt lat="42.109662" lon="2.314644">
        <ele>848.940996078906</ele>
        <time>2019-10-07T09:27:09.000Z</time>
      </trkpt>
      <trkpt lat="42.109598" lon="2.31474">
        <ele>848.02300044375</ele>
        <time>2019-10-07T09:27:12.000Z</time>
      </trkpt>
      <trkpt lat="42.109538" lon="2.314878">
        <ele>848.400024414063</ele>
        <time>2019-10-07T09:27:16.000Z</time>
      </trkpt>
      <trkpt lat="42.109517" lon="2.314999">
        <ele>848.02300044375</ele>
        <time>2019-10-07T09:27:19.000Z</time>
      </trkpt>
      <trkpt lat="42.109483" lon="2.315138">
        <ele>847.799987792969</ele>
        <time>2019-10-07T09:27:23.000Z</time>
      </trkpt>
      <trkpt lat="42.109457" lon="2.315184">
        <ele>847.799987792969</ele>
        <time>2019-10-07T09:27:25.000Z</time>
      </trkpt>
      <trkpt lat="42.109429" lon="2.315203">
        <ele>847.740983871875</ele>
        <time>2019-10-07T09:27:27.000Z</time>
      </trkpt>
      <trkpt lat="42.109417" lon="2.315222">
        <ele>847.599975585938</ele>
        <time>2019-10-07T09:27:32.000Z</time>
      </trkpt>
      <trkpt lat="42.109416" lon="2.315192">
        <ele>847.940996078906</ele>
        <time>2019-10-07T09:27:50.000Z</time>
      </trkpt>
      <trkpt lat="42.109392" lon="2.31518">
        <ele>847.481985749219</ele>
        <time>2019-10-07T09:27:53.000Z</time>
      </trkpt>
      <trkpt lat="42.109381" lon="2.315159">
        <ele>847.082004364844</ele>
        <time>2019-10-07T09:27:58.000Z</time>
      </trkpt>
      <trkpt lat="42.10938" lon="2.315188">
        <ele>846.740983871875</ele>
        <time>2019-10-07T09:28:28.000Z</time>
      </trkpt>
      <trkpt lat="42.109393" lon="2.315164">
        <ele>846.400024414063</ele>
        <time>2019-10-07T09:28:33.000Z</time>
      </trkpt>
      <trkpt lat="42.109441" lon="2.315056">
        <ele>846.68199795625</ele>
        <time>2019-10-07T09:28:39.000Z</time>
      </trkpt>
      <trkpt lat="42.109519" lon="2.314965">
        <ele>843.164008729687</ele>
        <time>2019-10-07T09:28:46.000Z</time>
      </trkpt>
      <trkpt lat="42.10959" lon="2.314851">
        <ele>840.02300044375</ele>
        <time>2019-10-07T09:28:51.000Z</time>
      </trkpt>
      <trkpt lat="42.10968" lon="2.314752">
        <ele>837.964014528125</ele>
        <time>2019-10-07T09:28:55.000Z</time>
      </trkpt>
      <trkpt lat="42.109752" lon="2.314653">
        <ele>834.823006242187</ele>
        <time>2019-10-07T09:28:59.000Z</time>
      </trkpt>
      <trkpt lat="42.10983" lon="2.314589">
        <ele>833.481985749219</ele>
        <time>2019-10-07T09:29:02.000Z</time>
      </trkpt>
      <trkpt lat="42.10991" lon="2.314532">
        <ele>830.141008285937</ele>
        <time>2019-10-07T09:29:06.000Z</time>
      </trkpt>
      <trkpt lat="42.110004" lon="2.314475">
        <ele>827.764002321094</ele>
        <time>2019-10-07T09:29:11.000Z</time>
      </trkpt>
      <trkpt lat="42.110054" lon="2.314602">
        <ele>823.481985749219</ele>
        <time>2019-10-07T09:29:16.000Z</time>
      </trkpt>
      <trkpt lat="42.110046" lon="2.314731">
        <ele>820.68199795625</ele>
        <time>2019-10-07T09:29:21.000Z</time>
      </trkpt>
      <trkpt lat="42.110001" lon="2.314881">
        <ele>818.282016571875</ele>
        <time>2019-10-07T09:29:27.000Z</time>
      </trkpt>
      <trkpt lat="42.109989" lon="2.315017">
        <ele>816.563990114062</ele>
        <time>2019-10-07T09:29:30.000Z</time>
      </trkpt>
      <trkpt lat="42.110007" lon="2.31515">
        <ele>815.200012207031</ele>
        <time>2019-10-07T09:29:33.000Z</time>
      </trkpt>
      <trkpt lat="42.11003" lon="2.31531">
        <ele>813.645994478906</ele>
        <time>2019-10-07T09:29:36.000Z</time>
      </trkpt>
      <trkpt lat="42.110076" lon="2.315469">
        <ele>811.881992157813</ele>
        <time>2019-10-07T09:29:39.000Z</time>
      </trkpt>
      <trkpt lat="42.110107" lon="2.315623">
        <ele>809.787002764844</ele>
        <time>2019-10-07T09:29:42.000Z</time>
      </trkpt>
      <trkpt lat="42.110138" lon="2.315743">
        <ele>806.881992157813</ele>
        <time>2019-10-07T09:29:45.000Z</time>
      </trkpt>
      <trkpt lat="42.110161" lon="2.315892">
        <ele>805.31800204375</ele>
        <time>2019-10-07T09:29:49.000Z</time>
      </trkpt>
      <trkpt lat="42.110121" lon="2.316003">
        <ele>805.259016128125</ele>
        <time>2019-10-07T09:29:53.000Z</time>
      </trkpt>
      <trkpt lat="42.11001" lon="2.315957">
        <ele>804.740983871875</ele>
        <time>2019-10-07T09:29:57.000Z</time>
      </trkpt>
      <trkpt lat="42.109922" lon="2.315838">
        <ele>805.400024414063</ele>
        <time>2019-10-07T09:30:01.000Z</time>
      </trkpt>
      <trkpt lat="42.109875" lon="2.315732">
        <ele>807.459010329688</ele>
        <time>2019-10-07T09:30:06.000Z</time>
      </trkpt>
      <trkpt lat="42.10978" lon="2.315704">
        <ele>809.717983428125</ele>
        <time>2019-10-07T09:30:11.000Z</time>
      </trkpt>
      <trkpt lat="42.109687" lon="2.315693">
        <ele>811.776987349219</ele>
        <time>2019-10-07T09:30:15.000Z</time>
      </trkpt>
      <trkpt lat="42.109565" lon="2.315741">
        <ele>813.200012207031</ele>
        <time>2019-10-07T09:30:19.000Z</time>
      </trkpt>
      <trkpt lat="42.109475" lon="2.315773">
        <ele>813.835991270313</ele>
        <time>2019-10-07T09:30:22.000Z</time>
      </trkpt>
      <trkpt lat="42.109391" lon="2.315836">
        <ele>815.400024414063</ele>
        <time>2019-10-07T09:30:25.000Z</time>
      </trkpt>
      <trkpt lat="42.109291" lon="2.31591">
        <ele>816.540989670312</ele>
        <time>2019-10-07T09:30:29.000Z</time>
      </trkpt>
      <trkpt lat="42.1092" lon="2.315969">
        <ele>816.776987349219</ele>
        <time>2019-10-07T09:30:33.000Z</time>
      </trkpt>
      <trkpt lat="42.1091" lon="2.31606">
        <ele>816.917995635156</ele>
        <time>2019-10-07T09:30:37.000Z</time>
      </trkpt>
      <trkpt lat="42.109018" lon="2.316132">
        <ele>817.341020492969</ele>
        <time>2019-10-07T09:30:40.000Z</time>
      </trkpt>
      <trkpt lat="42.108931" lon="2.31621">
        <ele>817.917995635156</ele>
        <time>2019-10-07T09:30:43.000Z</time>
      </trkpt>
      <trkpt lat="42.108864" lon="2.316306">
        <ele>817.940996078906</ele>
        <time>2019-10-07T09:30:46.000Z</time>
      </trkpt>
      <trkpt lat="42.108801" lon="2.316409">
        <ele>817.422981828125</ele>
        <time>2019-10-07T09:30:49.000Z</time>
      </trkpt>
      <trkpt lat="42.108728" lon="2.316536">
        <ele>818</ele>
        <time>2019-10-07T09:30:53.000Z</time>
      </trkpt>
      <trkpt lat="42.108651" lon="2.316612">
        <ele>818.459010329688</ele>
        <time>2019-10-07T09:30:56.000Z</time>
      </trkpt>
      <trkpt lat="42.108586" lon="2.316723">
        <ele>818.858991714063</ele>
        <time>2019-10-07T09:31:00.000Z</time>
      </trkpt>
      <trkpt lat="42.108536" lon="2.316848">
        <ele>819.259016128125</ele>
        <time>2019-10-07T09:31:04.000Z</time>
      </trkpt>
      <trkpt lat="42.108478" lon="2.316977">
        <ele>819.940996078906</ele>
        <time>2019-10-07T09:31:08.000Z</time>
      </trkpt>
      <trkpt lat="42.108436" lon="2.317097">
        <ele>821.259016128125</ele>
        <time>2019-10-07T09:31:12.000Z</time>
      </trkpt>
      <trkpt lat="42.108396" lon="2.317221">
        <ele>823.259016128125</ele>
        <time>2019-10-07T09:31:16.000Z</time>
      </trkpt>
      <trkpt lat="42.108339" lon="2.317357">
        <ele>824.400024414063</ele>
        <time>2019-10-07T09:31:20.000Z</time>
      </trkpt>
      <trkpt lat="42.108288" lon="2.317457">
        <ele>824.282016571875</ele>
        <time>2019-10-07T09:31:23.000Z</time>
      </trkpt>
      <trkpt lat="42.108226" lon="2.317555">
        <ele>825.118007842187</ele>
        <time>2019-10-07T09:31:26.000Z</time>
      </trkpt>
      <trkpt lat="42.108161" lon="2.317641">
        <ele>826.400024414063</ele>
        <time>2019-10-07T09:31:29.000Z</time>
      </trkpt>
      <trkpt lat="42.108094" lon="2.317728">
        <ele>827.176993757813</ele>
        <time>2019-10-07T09:31:32.000Z</time>
      </trkpt>
      <trkpt lat="42.10802" lon="2.317814">
        <ele>827.799987792969</ele>
        <time>2019-10-07T09:31:35.000Z</time>
      </trkpt>
      <trkpt lat="42.107936" lon="2.317909">
        <ele>827.940996078906</ele>
        <time>2019-10-07T09:31:39.000Z</time>
      </trkpt>
      <trkpt lat="42.107868" lon="2.318008">
        <ele>827.858991714063</ele>
        <time>2019-10-07T09:31:43.000Z</time>
      </trkpt>
      <trkpt lat="42.107828" lon="2.318117">
        <ele>828.200012207031</ele>
        <time>2019-10-07T09:31:46.000Z</time>
      </trkpt>
      <trkpt lat="42.107802" lon="2.318248">
        <ele>828.658979507031</ele>
        <time>2019-10-07T09:31:49.000Z</time>
      </trkpt>
      <trkpt lat="42.107775" lon="2.318392">
        <ele>829.259016128125</ele>
        <time>2019-10-07T09:31:53.000Z</time>
      </trkpt>
      <trkpt lat="42.107763" lon="2.31854">
        <ele>828.799987792969</ele>
        <time>2019-10-07T09:31:57.000Z</time>
      </trkpt>
      <trkpt lat="42.10766" lon="2.318735">
        <ele>827.257825195457</ele>
        <time>2019-10-07T09:32:33.000Z</time>
      </trkpt>
      <trkpt lat="42.107588" lon="2.31883">
        <ele>826.817186922656</ele>
        <time>2019-10-07T09:32:36.000Z</time>
      </trkpt>
      <trkpt lat="42.107501" lon="2.31894">
        <ele>827.182813077344</ele>
        <time>2019-10-07T09:32:39.000Z</time>
      </trkpt>
      <trkpt lat="42.107417" lon="2.319026">
        <ele>826.034395635156</ele>
        <time>2019-10-07T09:32:42.000Z</time>
      </trkpt>
      <trkpt lat="42.107322" lon="2.319125">
        <ele>825.591378645312</ele>
        <time>2019-10-07T09:32:45.000Z</time>
      </trkpt>
      <trkpt lat="42.107239" lon="2.319233">
        <ele>824.234407842187</ele>
        <time>2019-10-07T09:32:48.000Z</time>
      </trkpt>
      <trkpt lat="42.10715" lon="2.319353">
        <ele>823.599975585938</ele>
        <time>2019-10-07T09:32:51.000Z</time>
      </trkpt>
      <trkpt lat="42.107081" lon="2.31946">
        <ele>822.234407842187</ele>
        <time>2019-10-07T09:32:54.000Z</time>
      </trkpt>
      <trkpt lat="42.107007" lon="2.319578">
        <ele>822.182813077344</ele>
        <time>2019-10-07T09:32:57.000Z</time>
      </trkpt>
      <trkpt lat="42.106954" lon="2.3197">
        <ele>820.400024414063</ele>
        <time>2019-10-07T09:33:01.000Z</time>
      </trkpt>
      <trkpt lat="42.106881" lon="2.319819">
        <ele>821.974203929688</ele>
        <time>2019-10-07T09:33:04.000Z</time>
      </trkpt>
      <trkpt lat="42.106794" lon="2.319906">
        <ele>821.817186922656</ele>
        <time>2019-10-07T09:33:07.000Z</time>
      </trkpt>
      <trkpt lat="42.106708" lon="2.320006">
        <ele>821.799987792969</ele>
        <time>2019-10-07T09:33:10.000Z</time>
      </trkpt>
      <trkpt lat="42.10662" lon="2.320111">
        <ele>821.391424849219</ele>
        <time>2019-10-07T09:33:13.000Z</time>
      </trkpt>
      <trkpt lat="42.106534" lon="2.320226">
        <ele>820.634373845313</ele>
        <time>2019-10-07T09:33:16.000Z</time>
      </trkpt>
      <trkpt lat="42.106448" lon="2.32033">
        <ele>819.034395635156</ele>
        <time>2019-10-07T09:33:19.000Z</time>
      </trkpt>
      <trkpt lat="42.106348" lon="2.320421">
        <ele>818.991400435156</ele>
        <time>2019-10-07T09:33:22.000Z</time>
      </trkpt>
      <trkpt lat="42.106273" lon="2.32052">
        <ele>819.200012207031</ele>
        <time>2019-10-07T09:33:25.000Z</time>
      </trkpt>
      <trkpt lat="42.106205" lon="2.320637">
        <ele>820.191412642188</ele>
        <time>2019-10-07T09:33:29.000Z</time>
      </trkpt>
      <trkpt lat="42.106155" lon="2.320745">
        <ele>820.982800870313</ele>
        <time>2019-10-07T09:33:32.000Z</time>
      </trkpt>
      <trkpt lat="42.10611" lon="2.320876">
        <ele>821.974203929688</ele>
        <time>2019-10-07T09:33:36.000Z</time>
      </trkpt>
      <trkpt lat="42.106099" lon="2.320997">
        <ele>822.991400435156</ele>
        <time>2019-10-07T09:33:41.000Z</time>
      </trkpt>
      <trkpt lat="42.106023" lon="2.321092">
        <ele>824.574179515625</ele>
        <time>2019-10-07T09:33:46.000Z</time>
      </trkpt>
      <trkpt lat="42.105942" lon="2.321181">
        <ele>826.165616571875</ele>
        <time>2019-10-07T09:33:49.000Z</time>
      </trkpt>
      <trkpt lat="42.105873" lon="2.321274">
        <ele>827</ele>
        <time>2019-10-07T09:33:52.000Z</time>
      </trkpt>
      <trkpt lat="42.105784" lon="2.321375">
        <ele>828.599975585938</ele>
        <time>2019-10-07T09:33:56.000Z</time>
      </trkpt>
      <trkpt lat="42.105707" lon="2.321451">
        <ele>828.991400435156</ele>
        <time>2019-10-07T09:33:59.000Z</time>
      </trkpt>
      <trkpt lat="42.105623" lon="2.321496">
        <ele>828.408621354688</ele>
        <time>2019-10-07T09:34:02.000Z</time>
      </trkpt>
      <trkpt lat="42.105519" lon="2.32154">
        <ele>828</ele>
        <time>2019-10-07T09:34:05.000Z</time>
      </trkpt>
      <trkpt lat="42.105404" lon="2.321579">
        <ele>828.191412642188</ele>
        <time>2019-10-07T09:34:09.000Z</time>
      </trkpt>
      <trkpt lat="42.105298" lon="2.321625">
        <ele>829.200012207031</ele>
        <time>2019-10-07T09:34:13.000Z</time>
      </trkpt>
      <trkpt lat="42.105217" lon="2.32168">
        <ele>830.791388228125</ele>
        <time>2019-10-07T09:34:17.000Z</time>
      </trkpt>
      <trkpt lat="42.105126" lon="2.321732">
        <ele>832.400024414063</ele>
        <time>2019-10-07T09:34:21.000Z</time>
      </trkpt>
      <trkpt lat="42.105023" lon="2.321771">
        <ele>833.591378645312</ele>
        <time>2019-10-07T09:34:25.000Z</time>
      </trkpt>
      <trkpt lat="42.104907" lon="2.321789">
        <ele>833.817186922656</ele>
        <time>2019-10-07T09:34:29.000Z</time>
      </trkpt>
      <trkpt lat="42.104819" lon="2.321825">
        <ele>833.025796070312</ele>
        <time>2019-10-07T09:34:32.000Z</time>
      </trkpt>
      <trkpt lat="42.104748" lon="2.321906">
        <ele>833.991400435156</ele>
        <time>2019-10-07T09:34:36.000Z</time>
      </trkpt>
      <trkpt lat="42.104711" lon="2.321971">
        <ele>834.400024414063</ele>
        <time>2019-10-07T09:34:40.000Z</time>
      </trkpt>
      <trkpt lat="42.104693" lon="2.321987">
        <ele>834.400024414063</ele>
        <time>2019-10-07T09:34:41.000Z</time>
      </trkpt>
      <trkpt lat="42.104633" lon="2.322094">
        <ele>836.173633429688</ele>
        <time>2019-10-07T09:34:46.000Z</time>
      </trkpt>
      <trkpt lat="42.104599" lon="2.322228">
        <ele>837.157017007031</ele>
        <time>2019-10-07T09:34:51.000Z</time>
      </trkpt>
      <trkpt lat="42.104567" lon="2.322368">
        <ele>838.408621354688</ele>
        <time>2019-10-07T09:34:56.000Z</time>
      </trkpt>
      <trkpt lat="42.104538" lon="2.322514">
        <ele>839.574179515625</ele>
        <time>2019-10-07T09:35:00.000Z</time>
      </trkpt>
      <trkpt lat="42.104474" lon="2.322639">
        <ele>841.182813077344</ele>
        <time>2019-10-07T09:35:04.000Z</time>
      </trkpt>
      <trkpt lat="42.104427" lon="2.32278">
        <ele>840.817186922656</ele>
        <time>2019-10-07T09:35:08.000Z</time>
      </trkpt>
      <trkpt lat="42.104393" lon="2.322921">
        <ele>842</ele>
        <time>2019-10-07T09:35:12.000Z</time>
      </trkpt>
      <trkpt lat="42.104386" lon="2.323072">
        <ele>843.391424849219</ele>
        <time>2019-10-07T09:35:16.000Z</time>
      </trkpt>
      <trkpt lat="42.104372" lon="2.323222">
        <ele>844.191412642188</ele>
        <time>2019-10-07T09:35:20.000Z</time>
      </trkpt>
      <trkpt lat="42.104372" lon="2.323362">
        <ele>844.374225719531</ele>
        <time>2019-10-07T09:35:24.000Z</time>
      </trkpt>
      <trkpt lat="42.10437" lon="2.323484">
        <ele>845.200012207031</ele>
        <time>2019-10-07T09:35:27.000Z</time>
      </trkpt>
      <trkpt lat="42.104367" lon="2.323639">
        <ele>844.791388228125</ele>
        <time>2019-10-07T09:35:31.000Z</time>
      </trkpt>
      <trkpt lat="42.10435" lon="2.323758">
        <ele>844.608575150781</ele>
        <time>2019-10-07T09:35:34.000Z</time>
      </trkpt>
      <trkpt lat="42.104351" lon="2.323902">
        <ele>844.808587357812</ele>
        <time>2019-10-07T09:35:38.000Z</time>
      </trkpt>
      <trkpt lat="42.104328" lon="2.324021">
        <ele>844.991400435156</ele>
        <time>2019-10-07T09:35:46.000Z</time>
      </trkpt>
      <trkpt lat="42.10432" lon="2.324051">
        <ele>845.191412642188</ele>
        <time>2019-10-07T09:35:48.000Z</time>
      </trkpt>
      <trkpt lat="42.104317" lon="2.32408">
        <ele>845.200012207031</ele>
        <time>2019-10-07T09:35:50.000Z</time>
      </trkpt>
      <trkpt lat="42.104313" lon="2.324119">
        <ele>845.400024414063</ele>
        <time>2019-10-07T09:35:52.000Z</time>
      </trkpt>
      <trkpt lat="42.104297" lon="2.324241">
        <ele>846.382825284375</ele>
        <time>2019-10-07T09:35:56.000Z</time>
      </trkpt>
      <trkpt lat="42.104276" lon="2.324367">
        <ele>848.400024414063</ele>
        <time>2019-10-07T09:36:16.000Z</time>
      </trkpt>
      <trkpt lat="42.104276" lon="2.324413">
        <ele>848.400024414063</ele>
        <time>2019-10-07T09:36:19.000Z</time>
      </trkpt>
      <trkpt lat="42.10426" lon="2.324556">
        <ele>848.400024414063</ele>
        <time>2019-10-07T09:36:24.000Z</time>
      </trkpt>
      <trkpt lat="42.10426" lon="2.324679">
        <ele>848.182813077344</ele>
        <time>2019-10-07T09:36:28.000Z</time>
      </trkpt>
      <trkpt lat="42.10428" lon="2.324806">
        <ele>848.974203929688</ele>
        <time>2019-10-07T09:36:31.000Z</time>
      </trkpt>
      <trkpt lat="42.104285" lon="2.324967">
        <ele>849.374225719531</ele>
        <time>2019-10-07T09:36:35.000Z</time>
      </trkpt>
      <trkpt lat="42.104265" lon="2.325095">
        <ele>850.574179515625</ele>
        <time>2019-10-07T09:36:39.000Z</time>
      </trkpt>
      <trkpt lat="42.104211" lon="2.325199">
        <ele>852.374225719531</ele>
        <time>2019-10-07T09:36:42.000Z</time>
      </trkpt>
      <trkpt lat="42.104167" lon="2.325341">
        <ele>854.191412642188</ele>
        <time>2019-10-07T09:36:46.000Z</time>
      </trkpt>
      <trkpt lat="42.104169" lon="2.325466">
        <ele>854.7827912875</ele>
        <time>2019-10-07T09:36:49.000Z</time>
      </trkpt>
      <trkpt lat="42.104159" lon="2.325612">
        <ele>855.200012207031</ele>
        <time>2019-10-07T09:36:53.000Z</time>
      </trkpt>
      <trkpt lat="42.104109" lon="2.325715">
        <ele>854.991400435156</ele>
        <time>2019-10-07T09:36:56.000Z</time>
      </trkpt>
      <trkpt lat="42.104021" lon="2.325784">
        <ele>855.365626154687</ele>
        <time>2019-10-07T09:37:00.000Z</time>
      </trkpt>
      <trkpt lat="42.103946" lon="2.325874">
        <ele>857.565579950781</ele>
        <time>2019-10-07T09:37:04.000Z</time>
      </trkpt>
      <trkpt lat="42.103882" lon="2.325978">
        <ele>858.382825284375</ele>
        <time>2019-10-07T09:37:08.000Z</time>
      </trkpt>
      <trkpt lat="42.103828" lon="2.32609">
        <ele>860.374225719531</ele>
        <time>2019-10-07T09:37:12.000Z</time>
      </trkpt>
      <trkpt lat="42.103798" lon="2.32621">
        <ele>861.982800870313</ele>
        <time>2019-10-07T09:37:17.000Z</time>
      </trkpt>
      <trkpt lat="42.103779" lon="2.326338">
        <ele>864.191412642188</ele>
        <time>2019-10-07T09:37:22.000Z</time>
      </trkpt>
      <trkpt lat="42.103772" lon="2.326478">
        <ele>864.599975585938</ele>
        <time>2019-10-07T09:37:26.000Z</time>
      </trkpt>
      <trkpt lat="42.103761" lon="2.326617">
        <ele>865.408621354688</ele>
        <time>2019-10-07T09:37:30.000Z</time>
      </trkpt>
      <trkpt lat="42.103712" lon="2.326752">
        <ele>864.400024414063</ele>
        <time>2019-10-07T09:37:34.000Z</time>
      </trkpt>
      <trkpt lat="42.103654" lon="2.326866">
        <ele>865.191412642188</ele>
        <time>2019-10-07T09:37:40.000Z</time>
      </trkpt>
      <trkpt lat="42.103587" lon="2.326954">
        <ele>866.574179515625</ele>
        <time>2019-10-07T09:37:45.000Z</time>
      </trkpt>
      <trkpt lat="42.103514" lon="2.327049">
        <ele>867.991400435156</ele>
        <time>2019-10-07T09:37:49.000Z</time>
      </trkpt>
      <trkpt lat="42.103446" lon="2.327136">
        <ele>869.982800870313</ele>
        <time>2019-10-07T09:37:56.000Z</time>
      </trkpt>
      <trkpt lat="42.103447" lon="2.327187">
        <ele>871.191412642188</ele>
        <time>2019-10-07T09:38:01.000Z</time>
      </trkpt>
      <trkpt lat="42.103392" lon="2.327293">
        <ele>873.400024414063</ele>
        <time>2019-10-07T09:38:13.000Z</time>
      </trkpt>
      <trkpt lat="42.103308" lon="2.327339">
        <ele>875.191412642188</ele>
        <time>2019-10-07T09:38:20.000Z</time>
      </trkpt>
      <trkpt lat="42.103237" lon="2.327428">
        <ele>877.374225719531</ele>
        <time>2019-10-07T09:38:30.000Z</time>
      </trkpt>
      <trkpt lat="42.103169" lon="2.327514">
        <ele>879.382825284375</ele>
        <time>2019-10-07T09:38:39.000Z</time>
      </trkpt>
      <trkpt lat="42.103076" lon="2.327581">
        <ele>881.182813077344</ele>
        <time>2019-10-07T09:38:46.000Z</time>
      </trkpt>
      <trkpt lat="42.103003" lon="2.327675">
        <ele>882.791388228125</ele>
        <time>2019-10-07T09:38:53.000Z</time>
      </trkpt>
      <trkpt lat="42.102991" lon="2.327724">
        <ele>885.382825284375</ele>
        <time>2019-10-07T09:39:01.000Z</time>
      </trkpt>
      <trkpt lat="42.103016" lon="2.327857">
        <ele>887.1742135125</ele>
        <time>2019-10-07T09:39:13.000Z</time>
      </trkpt>
      <trkpt lat="42.10299" lon="2.327973">
        <ele>888.7827912875</ele>
        <time>2019-10-07T09:39:17.000Z</time>
      </trkpt>
      <trkpt lat="42.103002" lon="2.328101">
        <ele>889.365626154687</ele>
        <time>2019-10-07T09:39:22.000Z</time>
      </trkpt>
      <trkpt lat="42.103054" lon="2.3282">
        <ele>890.991400435156</ele>
        <time>2019-10-07T09:39:25.000Z</time>
      </trkpt>
      <trkpt lat="42.103096" lon="2.328325">
        <ele>892.774191722656</ele>
        <time>2019-10-07T09:39:28.000Z</time>
      </trkpt>
      <trkpt lat="42.103145" lon="2.328444">
        <ele>893.391424849219</ele>
        <time>2019-10-07T09:39:31.000Z</time>
      </trkpt>
      <trkpt lat="42.103192" lon="2.328551">
        <ele>893.400024414063</ele>
        <time>2019-10-07T09:39:34.000Z</time>
      </trkpt>
      <trkpt lat="42.103219" lon="2.328673">
        <ele>893.974203929688</ele>
        <time>2019-10-07T09:39:37.000Z</time>
      </trkpt>
      <trkpt lat="42.10326" lon="2.328781">
        <ele>894.599975585938</ele>
        <time>2019-10-07T09:39:40.000Z</time>
      </trkpt>
      <trkpt lat="42.103306" lon="2.328925">
        <ele>895.599975585938</ele>
        <time>2019-10-07T09:39:44.000Z</time>
      </trkpt>
      <trkpt lat="42.103326" lon="2.329043">
        <ele>896.191412642188</ele>
        <time>2019-10-07T09:39:47.000Z</time>
      </trkpt>
      <trkpt lat="42.103371" lon="2.329185">
        <ele>895.2172087125</ele>
        <time>2019-10-07T09:39:51.000Z</time>
      </trkpt>
      <trkpt lat="42.103395" lon="2.329349">
        <ele>894.982800870313</ele>
        <time>2019-10-07T09:39:54.000Z</time>
      </trkpt>
      <trkpt lat="42.103418" lon="2.329513">
        <ele>894.608575150781</ele>
        <time>2019-10-07T09:39:57.000Z</time>
      </trkpt>
      <trkpt lat="42.103393" lon="2.329648">
        <ele>895.408621354688</ele>
        <time>2019-10-07T09:40:01.000Z</time>
      </trkpt>
      <trkpt lat="42.103371" lon="2.3298">
        <ele>896.799987792969</ele>
        <time>2019-10-07T09:40:05.000Z</time>
      </trkpt>
      <trkpt lat="42.103332" lon="2.329932">
        <ele>897.808587357812</ele>
        <time>2019-10-07T09:40:09.000Z</time>
      </trkpt>
      <trkpt lat="42.103293" lon="2.330058">
        <ele>898.574179515625</ele>
        <time>2019-10-07T09:40:13.000Z</time>
      </trkpt>
      <trkpt lat="42.103278" lon="2.330193">
        <ele>900.7827912875</ele>
        <time>2019-10-07T09:40:18.000Z</time>
      </trkpt>
      <trkpt lat="42.103266" lon="2.330329">
        <ele>902.791388228125</ele>
        <time>2019-10-07T09:40:22.000Z</time>
      </trkpt>
      <trkpt lat="42.103218" lon="2.330456">
        <ele>903.400024414063</ele>
        <time>2019-10-07T09:40:26.000Z</time>
      </trkpt>
      <trkpt lat="42.103154" lon="2.330581">
        <ele>903.599975585938</ele>
        <time>2019-10-07T09:40:31.000Z</time>
      </trkpt>
      <trkpt lat="42.103112" lon="2.330691">
        <ele>904.965604364844</ele>
        <time>2019-10-07T09:40:34.000Z</time>
      </trkpt>
      <trkpt lat="42.103039" lon="2.330805">
        <ele>906.382825284375</ele>
        <time>2019-10-07T09:40:38.000Z</time>
      </trkpt>
      <trkpt lat="42.102989" lon="2.330922">
        <ele>906.991400435156</ele>
        <time>2019-10-07T09:40:42.000Z</time>
      </trkpt>
      <trkpt lat="42.102959" lon="2.33107">
        <ele>908.974203929688</ele>
        <time>2019-10-07T09:40:47.000Z</time>
      </trkpt>
      <trkpt lat="42.102944" lon="2.331208">
        <ele>909.791388228125</ele>
        <time>2019-10-07T09:40:51.000Z</time>
      </trkpt>
      <trkpt lat="42.102914" lon="2.331325">
        <ele>911.391424849219</ele>
        <time>2019-10-07T09:40:55.000Z</time>
      </trkpt>
      <trkpt lat="42.102884" lon="2.331443">
        <ele>912.799987792969</ele>
        <time>2019-10-07T09:41:00.000Z</time>
      </trkpt>
      <trkpt lat="42.10286" lon="2.33159">
        <ele>914.7827912875</ele>
        <time>2019-10-07T09:41:06.000Z</time>
      </trkpt>
      <trkpt lat="42.102821" lon="2.331713">
        <ele>915.799987792969</ele>
        <time>2019-10-07T09:41:10.000Z</time>
      </trkpt>
      <trkpt lat="42.102788" lon="2.331839">
        <ele>917.365626154687</ele>
        <time>2019-10-07T09:41:16.000Z</time>
      </trkpt>
      <trkpt lat="42.102786" lon="2.331993">
        <ele>918.574179515625</ele>
        <time>2019-10-07T09:41:20.000Z</time>
      </trkpt>
      <trkpt lat="42.102789" lon="2.332129">
        <ele>919.982800870313</ele>
        <time>2019-10-07T09:41:24.000Z</time>
      </trkpt>
      <trkpt lat="42.102779" lon="2.332287">
        <ele>920.400024414063</ele>
        <time>2019-10-07T09:41:28.000Z</time>
      </trkpt>
      <trkpt lat="42.102751" lon="2.332419">
        <ele>920.599975585938</ele>
        <time>2019-10-07T09:41:32.000Z</time>
      </trkpt>
      <trkpt lat="42.102716" lon="2.332545">
        <ele>921.991400435156</ele>
        <time>2019-10-07T09:41:36.000Z</time>
      </trkpt>
      <trkpt lat="42.102693" lon="2.332662">
        <ele>922.982800870313</ele>
        <time>2019-10-07T09:41:39.000Z</time>
      </trkpt>
      <trkpt lat="42.10264" lon="2.332803">
        <ele>923.791388228125</ele>
        <time>2019-10-07T09:41:43.000Z</time>
      </trkpt>
      <trkpt lat="42.102587" lon="2.33294">
        <ele>923.599975585938</ele>
        <time>2019-10-07T09:41:47.000Z</time>
      </trkpt>
      <trkpt lat="42.102519" lon="2.333049">
        <ele>925.200012207031</ele>
        <time>2019-10-07T09:41:51.000Z</time>
      </trkpt>
      <trkpt lat="42.102444" lon="2.333158">
        <ele>927.391424849219</ele>
        <time>2019-10-07T09:41:55.000Z</time>
      </trkpt>
      <trkpt lat="42.102375" lon="2.333253">
        <ele>929.191412642188</ele>
        <time>2019-10-07T09:41:59.000Z</time>
      </trkpt>
      <trkpt lat="42.102322" lon="2.333381">
        <ele>931.1742135125</ele>
        <time>2019-10-07T09:42:04.000Z</time>
      </trkpt>
      <trkpt lat="42.102268" lon="2.333491">
        <ele>932.182813077344</ele>
        <time>2019-10-07T09:42:08.000Z</time>
      </trkpt>
      <trkpt lat="42.102214" lon="2.333597">
        <ele>932.391424849219</ele>
        <time>2019-10-07T09:42:12.000Z</time>
      </trkpt>
      <trkpt lat="42.102176" lon="2.33373">
        <ele>934.365626154687</ele>
        <time>2019-10-07T09:42:17.000Z</time>
      </trkpt>
      <trkpt lat="42.102118" lon="2.333858">
        <ele>935.965604364844</ele>
        <time>2019-10-07T09:42:21.000Z</time>
      </trkpt>
      <trkpt lat="42.102059" lon="2.333963">
        <ele>937.582779080469</ele>
        <time>2019-10-07T09:42:25.000Z</time>
      </trkpt>
      <trkpt lat="42.101984" lon="2.334058">
        <ele>937.608575150781</ele>
        <time>2019-10-07T09:42:29.000Z</time>
      </trkpt>
      <trkpt lat="42.101939" lon="2.334168">
        <ele>940.191412642188</ele>
        <time>2019-10-07T09:42:35.000Z</time>
      </trkpt>
      <trkpt lat="42.101901" lon="2.334305">
        <ele>942.182813077344</ele>
        <time>2019-10-07T09:42:40.000Z</time>
      </trkpt>
      <trkpt lat="42.101938" lon="2.334424">
        <ele>942.208611771875</ele>
        <time>2019-10-07T09:42:46.000Z</time>
      </trkpt>
      <trkpt lat="42.102006" lon="2.334517">
        <ele>944.382825284375</ele>
        <time>2019-10-07T09:42:50.000Z</time>
      </trkpt>
      <trkpt lat="42.102089" lon="2.334628">
        <ele>945.7827912875</ele>
        <time>2019-10-07T09:42:53.000Z</time>
      </trkpt>
      <trkpt lat="42.102145" lon="2.334749">
        <ele>946.391424849219</ele>
        <time>2019-10-07T09:42:57.000Z</time>
      </trkpt>
      <trkpt lat="42.102169" lon="2.334871">
        <ele>947.200012207031</ele>
        <time>2019-10-07T09:43:01.000Z</time>
      </trkpt>
      <trkpt lat="42.102201" lon="2.335008">
        <ele>948.799987792969</ele>
        <time>2019-10-07T09:43:05.000Z</time>
      </trkpt>
      <trkpt lat="42.102266" lon="2.335115">
        <ele>950.591378645312</ele>
        <time>2019-10-07T09:43:11.000Z</time>
      </trkpt>
      <trkpt lat="42.102315" lon="2.335228">
        <ele>951.991400435156</ele>
        <time>2019-10-07T09:43:16.000Z</time>
      </trkpt>
      <trkpt lat="42.102395" lon="2.335317">
        <ele>953.808587357812</ele>
        <time>2019-10-07T09:43:25.000Z</time>
      </trkpt>
      <trkpt lat="42.102498" lon="2.335374">
        <ele>954.799987792969</ele>
        <time>2019-10-07T09:43:29.000Z</time>
      </trkpt>
      <trkpt lat="42.102584" lon="2.335459">
        <ele>956.191412642188</ele>
        <time>2019-10-07T09:43:33.000Z</time>
      </trkpt>
      <trkpt lat="42.10267" lon="2.335529">
        <ele>957.382825284375</ele>
        <time>2019-10-07T09:43:38.000Z</time>
      </trkpt>
      <trkpt lat="42.102741" lon="2.335618">
        <ele>958.400024414063</ele>
        <time>2019-10-07T09:43:42.000Z</time>
      </trkpt>
      <trkpt lat="42.102815" lon="2.335709">
        <ele>958.974203929688</ele>
        <time>2019-10-07T09:43:46.000Z</time>
      </trkpt>
      <trkpt lat="42.102898" lon="2.335795">
        <ele>960.182813077344</ele>
        <time>2019-10-07T09:43:50.000Z</time>
      </trkpt>
      <trkpt lat="42.102946" lon="2.335923">
        <ele>961.1742135125</ele>
        <time>2019-10-07T09:43:55.000Z</time>
      </trkpt>
      <trkpt lat="42.102987" lon="2.33604">
        <ele>962</ele>
        <time>2019-10-07T09:43:59.000Z</time>
      </trkpt>
      <trkpt lat="42.103021" lon="2.336176">
        <ele>963.574179515625</ele>
        <time>2019-10-07T09:44:04.000Z</time>
      </trkpt>
      <trkpt lat="42.103082" lon="2.336283">
        <ele>964.991400435156</ele>
        <time>2019-10-07T09:44:10.000Z</time>
      </trkpt>
      <trkpt lat="42.103144" lon="2.336394">
        <ele>966</ele>
        <time>2019-10-07T09:44:15.000Z</time>
      </trkpt>
      <trkpt lat="42.103238" lon="2.336483">
        <ele>966.991400435156</ele>
        <time>2019-10-07T09:44:19.000Z</time>
      </trkpt>
      <trkpt lat="42.10332" lon="2.336583">
        <ele>968.400024414063</ele>
        <time>2019-10-07T09:44:23.000Z</time>
      </trkpt>
      <trkpt lat="42.103371" lon="2.336687">
        <ele>968.608575150781</ele>
        <time>2019-10-07T09:44:27.000Z</time>
      </trkpt>
      <trkpt lat="42.103426" lon="2.336832">
        <ele>970.165616571875</ele>
        <time>2019-10-07T09:44:31.000Z</time>
      </trkpt>
      <trkpt lat="42.103456" lon="2.336953">
        <ele>971</ele>
        <time>2019-10-07T09:44:35.000Z</time>
      </trkpt>
      <trkpt lat="42.103493" lon="2.337075">
        <ele>972.1742135125</ele>
        <time>2019-10-07T09:44:40.000Z</time>
      </trkpt>
      <trkpt lat="42.103545" lon="2.337195">
        <ele>973.791388228125</ele>
        <time>2019-10-07T09:44:45.000Z</time>
      </trkpt>
      <trkpt lat="42.103618" lon="2.337303">
        <ele>973.591378645312</ele>
        <time>2019-10-07T09:44:49.000Z</time>
      </trkpt>
      <trkpt lat="42.103689" lon="2.337425">
        <ele>973.991400435156</ele>
        <time>2019-10-07T09:44:53.000Z</time>
      </trkpt>
      <trkpt lat="42.103739" lon="2.337551">
        <ele>974.599975585938</ele>
        <time>2019-10-07T09:44:56.000Z</time>
      </trkpt>
      <trkpt lat="42.103816" lon="2.337654">
        <ele>975.191412642188</ele>
        <time>2019-10-07T09:44:59.000Z</time>
      </trkpt>
      <trkpt lat="42.103898" lon="2.337756">
        <ele>975.591378645312</ele>
        <time>2019-10-07T09:45:03.000Z</time>
      </trkpt>
      <trkpt lat="42.103972" lon="2.33786">
        <ele>975.382825284375</ele>
        <time>2019-10-07T09:45:08.000Z</time>
      </trkpt>
      <trkpt lat="42.104078" lon="2.337917">
        <ele>976.774191722656</ele>
        <time>2019-10-07T09:45:12.000Z</time>
      </trkpt>
      <trkpt lat="42.104172" lon="2.337974">
        <ele>977.599975585938</ele>
        <time>2019-10-07T09:45:16.000Z</time>
      </trkpt>
      <trkpt lat="42.104258" lon="2.338035">
        <ele>977.608575150781</ele>
        <time>2019-10-07T09:45:19.000Z</time>
      </trkpt>
      <trkpt lat="42.104339" lon="2.338092">
        <ele>977.208611771875</ele>
        <time>2019-10-07T09:45:22.000Z</time>
      </trkpt>
      <trkpt lat="42.104449" lon="2.338156">
        <ele>978.191412642188</ele>
        <time>2019-10-07T09:45:26.000Z</time>
      </trkpt>
      <trkpt lat="42.104559" lon="2.338193">
        <ele>979.400024414063</ele>
        <time>2019-10-07T09:45:30.000Z</time>
      </trkpt>
      <trkpt lat="42.104652" lon="2.338214">
        <ele>981.200012207031</ele>
        <time>2019-10-07T09:45:34.000Z</time>
      </trkpt>
      <trkpt lat="42.104749" lon="2.338195">
        <ele>982.582779080469</ele>
        <time>2019-10-07T09:45:39.000Z</time>
      </trkpt>
      <trkpt lat="42.104705" lon="2.338085">
        <ele>983.182813077344</ele>
        <time>2019-10-07T09:45:48.000Z</time>
      </trkpt>
      <trkpt lat="42.104646" lon="2.337994">
        <ele>984.182813077344</ele>
        <time>2019-10-07T09:45:52.000Z</time>
      </trkpt>
      <trkpt lat="42.104554" lon="2.3379">
        <ele>985.191412642188</ele>
        <time>2019-10-07T09:45:56.000Z</time>
      </trkpt>
      <trkpt lat="42.104488" lon="2.337778">
        <ele>984.8257864875</ele>
        <time>2019-10-07T09:46:00.000Z</time>
      </trkpt>
      <trkpt lat="42.104498" lon="2.337808">
        <ele>987.591378645312</ele>
        <time>2019-10-07T09:46:08.000Z</time>
      </trkpt>
      <trkpt lat="42.104526" lon="2.337824">
        <ele>987.991400435156</ele>
        <time>2019-10-07T09:46:10.000Z</time>
      </trkpt>
      <trkpt lat="42.104552" lon="2.337836">
        <ele>988</ele>
        <time>2019-10-07T09:46:11.000Z</time>
      </trkpt>
      <trkpt lat="42.104582" lon="2.337839">
        <ele>988.391424849219</ele>
        <time>2019-10-07T09:46:13.000Z</time>
      </trkpt>
      <trkpt lat="42.104596" lon="2.337823">
        <ele>988.791388228125</ele>
        <time>2019-10-07T09:46:15.000Z</time>
      </trkpt>
      <trkpt lat="42.104602" lon="2.33779">
        <ele>989.391424849219</ele>
        <time>2019-10-07T09:46:17.000Z</time>
      </trkpt>
      <trkpt lat="42.104594" lon="2.337766">
        <ele>989.982800870313</ele>
        <time>2019-10-07T09:46:19.000Z</time>
      </trkpt>
      <trkpt lat="42.104584" lon="2.337728">
        <ele>990.191412642188</ele>
        <time>2019-10-07T09:46:21.000Z</time>
      </trkpt>
      <trkpt lat="42.104582" lon="2.337703">
        <ele>990.200012207031</ele>
        <time>2019-10-07T09:46:22.000Z</time>
      </trkpt>
      <trkpt lat="42.104586" lon="2.337679">
        <ele>990.200012207031</ele>
        <time>2019-10-07T09:46:23.000Z</time>
      </trkpt>
      <trkpt lat="42.104593" lon="2.337654">
        <ele>990.965604364844</ele>
        <time>2019-10-07T09:46:24.000Z</time>
      </trkpt>
      <trkpt lat="42.104603" lon="2.337625">
        <ele>991.191412642188</ele>
        <time>2019-10-07T09:46:25.000Z</time>
      </trkpt>
      <trkpt lat="42.10461" lon="2.3376">
        <ele>991.391424849219</ele>
        <time>2019-10-07T09:46:26.000Z</time>
      </trkpt>
      <trkpt lat="42.104623" lon="2.337566">
        <ele>991.974203929688</ele>
        <time>2019-10-07T09:46:27.000Z</time>
      </trkpt>
      <trkpt lat="42.104628" lon="2.337536">
        <ele>992</ele>
        <time>2019-10-07T09:46:28.000Z</time>
      </trkpt>
      <trkpt lat="42.104632" lon="2.337507">
        <ele>992.765592157813</ele>
        <time>2019-10-07T09:46:29.000Z</time>
      </trkpt>
      <trkpt lat="42.104639" lon="2.337483">
        <ele>992.799987792969</ele>
        <time>2019-10-07T09:46:30.000Z</time>
      </trkpt>
      <trkpt lat="42.104653" lon="2.337437">
        <ele>993.391424849219</ele>
        <time>2019-10-07T09:46:32.000Z</time>
      </trkpt>
      <trkpt lat="42.10465" lon="2.337398">
        <ele>994.382825284375</ele>
        <time>2019-10-07T09:46:35.000Z</time>
      </trkpt>
      <trkpt lat="42.10464" lon="2.337363">
        <ele>994.408621354688</ele>
        <time>2019-10-07T09:46:37.000Z</time>
      </trkpt>
      <trkpt lat="42.104632" lon="2.337332">
        <ele>994.591378645312</ele>
        <time>2019-10-07T09:46:39.000Z</time>
      </trkpt>
      <trkpt lat="42.104633" lon="2.337305">
        <ele>995.200012207031</ele>
        <time>2019-10-07T09:46:44.000Z</time>
      </trkpt>
      <trkpt lat="42.104645" lon="2.337274">
        <ele>995.200012207031</ele>
        <time>2019-10-07T09:46:47.000Z</time>
      </trkpt>
      <trkpt lat="42.104662" lon="2.337256">
        <ele>995</ele>
        <time>2019-10-07T09:46:49.000Z</time>
      </trkpt>
      <trkpt lat="42.104688" lon="2.337228">
        <ele>994.799987792969</ele>
        <time>2019-10-07T09:46:51.000Z</time>
      </trkpt>
      <trkpt lat="42.104707" lon="2.337207">
        <ele>994.799987792969</ele>
        <time>2019-10-07T09:46:52.000Z</time>
      </trkpt>
      <trkpt lat="42.104736" lon="2.337188">
        <ele>994.608575150781</ele>
        <time>2019-10-07T09:46:53.000Z</time>
      </trkpt>
      <trkpt lat="42.104766" lon="2.337165">
        <ele>994.599975585938</ele>
        <time>2019-10-07T09:46:54.000Z</time>
      </trkpt>
      <trkpt lat="42.104802" lon="2.337145">
        <ele>994.599975585938</ele>
        <time>2019-10-07T09:46:55.000Z</time>
      </trkpt>
      <trkpt lat="42.104896" lon="2.337061">
        <ele>993.817186922656</ele>
        <time>2019-10-07T09:46:58.000Z</time>
      </trkpt>
      <trkpt lat="42.104921" lon="2.33704">
        <ele>993.417220919531</ele>
        <time>2019-10-07T09:46:59.000Z</time>
      </trkpt>
      <trkpt lat="42.104937" lon="2.337019">
        <ele>993.208611771875</ele>
        <time>2019-10-07T09:47:00.000Z</time>
      </trkpt>
      <trkpt lat="42.104951" lon="2.33699">
        <ele>993.408621354688</ele>
        <time>2019-10-07T09:47:02.000Z</time>
      </trkpt>
      <trkpt lat="42.104969" lon="2.336972">
        <ele>993.799987792969</ele>
        <time>2019-10-07T09:47:04.000Z</time>
      </trkpt>
      <trkpt lat="42.104995" lon="2.336955">
        <ele>993.408621354688</ele>
        <time>2019-10-07T09:47:06.000Z</time>
      </trkpt>
      <trkpt lat="42.105022" lon="2.336953">
        <ele>993.591378645312</ele>
        <time>2019-10-07T09:47:09.000Z</time>
      </trkpt>
      <trkpt lat="42.105041" lon="2.336939">
        <ele>993.599975585938</ele>
        <time>2019-10-07T09:47:12.000Z</time>
      </trkpt>
      <trkpt lat="42.104657" lon="2.337365">
        <ele>994.513511918204</ele>
        <time>2019-10-07T09:47:36.000Z</time>
      </trkpt>
      <trkpt lat="42.104765" lon="2.337354">
        <ele>995.729594238281</ele>
        <time>2019-10-07T09:47:43.000Z</time>
      </trkpt>
      <trkpt lat="42.104861" lon="2.337309">
        <ele>996.764785644531</ele>
        <time>2019-10-07T09:47:48.000Z</time>
      </trkpt>
      <trkpt lat="42.104962" lon="2.337248">
        <ele>997.400024414063</ele>
        <time>2019-10-07T09:47:53.000Z</time>
      </trkpt>
      <trkpt lat="42.105057" lon="2.337166">
        <ele>999.164810058594</ele>
        <time>2019-10-07T09:47:57.000Z</time>
      </trkpt>
      <trkpt lat="42.105154" lon="2.337106">
        <ele>999.200012207031</ele>
        <time>2019-10-07T09:48:00.000Z</time>
      </trkpt>
      <trkpt lat="42.105077" lon="2.337184">
        <ele>1004.72959423828</ele>
        <time>2019-10-07T09:48:22.000Z</time>
      </trkpt>
      <trkpt lat="42.105074" lon="2.337306">
        <ele>1009.56478417969</ele>
        <time>2019-10-07T09:48:37.000Z</time>
      </trkpt>
      <trkpt lat="42.105078" lon="2.337426">
        <ele>1014.36482226563</ele>
        <time>2019-10-07T09:48:51.000Z</time>
      </trkpt>
      <trkpt lat="42.105074" lon="2.337458">
        <ele>1016.29441796875</ele>
        <time>2019-10-07T09:48:56.000Z</time>
      </trkpt>
      <trkpt lat="42.105091" lon="2.337474">
        <ele>1016.59997558594</ele>
        <time>2019-10-07T09:48:58.000Z</time>
      </trkpt>
      <trkpt lat="42.105108" lon="2.337494">
        <ele>1017.32962011719</ele>
        <time>2019-10-07T09:49:00.000Z</time>
      </trkpt>
      <trkpt lat="42.105158" lon="2.337527">
        <ele>1018.36482226563</ele>
        <time>2019-10-07T09:49:05.000Z</time>
      </trkpt>
      <trkpt lat="42.105184" lon="2.337523">
        <ele>1019.12960791016</ele>
        <time>2019-10-07T09:49:07.000Z</time>
      </trkpt>
      <trkpt lat="42.105208" lon="2.337521">
        <ele>1019.40002441406</ele>
        <time>2019-10-07T09:49:09.000Z</time>
      </trkpt>
      <trkpt lat="42.105226" lon="2.337518">
        <ele>1019.92959570313</ele>
        <time>2019-10-07T09:49:11.000Z</time>
      </trkpt>
      <trkpt lat="42.105287" lon="2.337594">
        <ele>1023.03520214844</ele>
        <time>2019-10-07T09:49:23.000Z</time>
      </trkpt>
      <trkpt lat="42.105305" lon="2.337612">
        <ele>1023.89440429688</ele>
        <time>2019-10-07T09:49:25.000Z</time>
      </trkpt>
      <trkpt lat="42.105323" lon="2.337625">
        <ele>1024.36481152344</ele>
        <time>2019-10-07T09:49:27.000Z</time>
      </trkpt>
      <trkpt lat="42.105331" lon="2.337649">
        <ele>1025.12956835938</ele>
        <time>2019-10-07T09:49:29.000Z</time>
      </trkpt>
      <trkpt lat="42.105341" lon="2.337673">
        <ele>1025.72964453125</ele>
        <time>2019-10-07T09:49:31.000Z</time>
      </trkpt>
      <trkpt lat="42.105399" lon="2.337785">
        <ele>1028.0591640625</ele>
        <time>2019-10-07T09:49:38.000Z</time>
      </trkpt>
      <trkpt lat="42.105478" lon="2.337851">
        <ele>1031.59997558594</ele>
        <time>2019-10-07T09:49:47.000Z</time>
      </trkpt>
      <trkpt lat="42.105557" lon="2.337936">
        <ele>1033.80004882813</ele>
        <time>2019-10-07T09:49:57.000Z</time>
      </trkpt>
      <trkpt lat="42.105645" lon="2.337965">
        <ele>1033.96480859375</ele>
        <time>2019-10-07T09:50:03.000Z</time>
      </trkpt>
      <trkpt lat="42.105735" lon="2.337948">
        <ele>1036.40002441406</ele>
        <time>2019-10-07T09:50:14.000Z</time>
      </trkpt>
      <trkpt lat="42.105754" lon="2.337951">
        <ele>1036.72964453125</ele>
        <time>2019-10-07T09:50:16.000Z</time>
      </trkpt>
      <trkpt lat="42.105774" lon="2.337946">
        <ele>1037.16475976562</ele>
        <time>2019-10-07T09:50:18.000Z</time>
      </trkpt>
      <trkpt lat="42.105854" lon="2.337974">
        <ele>1040.65924023437</ele>
        <time>2019-10-07T09:50:28.000Z</time>
      </trkpt>
      <trkpt lat="42.105864" lon="2.338005">
        <ele>1041.59997558594</ele>
        <time>2019-10-07T09:50:31.000Z</time>
      </trkpt>
      <trkpt lat="42.105877" lon="2.338029">
        <ele>1042.16475976562</ele>
        <time>2019-10-07T09:50:34.000Z</time>
      </trkpt>
      <trkpt lat="42.105957" lon="2.338099">
        <ele>1044.96480859375</ele>
        <time>2019-10-07T09:50:47.000Z</time>
      </trkpt>
      <trkpt lat="42.105985" lon="2.338137">
        <ele>1046.12956835938</ele>
        <time>2019-10-07T09:50:51.000Z</time>
      </trkpt>
      <trkpt lat="42.106004" lon="2.338146">
        <ele>1047.52957128906</ele>
        <time>2019-10-07T09:50:55.000Z</time>
      </trkpt>
      <trkpt lat="42.106024" lon="2.338145">
        <ele>1048.12956835938</ele>
        <time>2019-10-07T09:50:57.000Z</time>
      </trkpt>
      <trkpt lat="42.10605" lon="2.338141">
        <ele>1048.72964453125</ele>
        <time>2019-10-07T09:50:59.000Z</time>
      </trkpt>
      <trkpt lat="42.106079" lon="2.338128">
        <ele>1049.72964453125</ele>
        <time>2019-10-07T09:51:02.000Z</time>
      </trkpt>
      <trkpt lat="42.106097" lon="2.338133">
        <ele>1050.16475976562</ele>
        <time>2019-10-07T09:51:04.000Z</time>
      </trkpt>
      <trkpt lat="42.106122" lon="2.338149">
        <ele>1051.96480859375</ele>
        <time>2019-10-07T09:51:09.000Z</time>
      </trkpt>
      <trkpt lat="42.106146" lon="2.3382">
        <ele>1054.89440429688</ele>
        <time>2019-10-07T09:51:18.000Z</time>
      </trkpt>
      <trkpt lat="42.106167" lon="2.338194">
        <ele>1055.52957128906</ele>
        <time>2019-10-07T09:51:22.000Z</time>
      </trkpt>
      <trkpt lat="42.10618" lon="2.338213">
        <ele>1056.16475976562</ele>
        <time>2019-10-07T09:51:24.000Z</time>
      </trkpt>
      <trkpt lat="42.106268" lon="2.33828">
        <ele>1059</ele>
        <time>2019-10-07T09:51:35.000Z</time>
      </trkpt>
      <trkpt lat="42.106263" lon="2.338313">
        <ele>1059.92959570313</ele>
        <time>2019-10-07T09:51:38.000Z</time>
      </trkpt>
      <trkpt lat="42.106266" lon="2.338373">
        <ele>1061.36481152344</ele>
        <time>2019-10-07T09:51:43.000Z</time>
      </trkpt>
      <trkpt lat="42.106294" lon="2.338404">
        <ele>1062.32962011719</ele>
        <time>2019-10-07T09:51:47.000Z</time>
      </trkpt>
      <trkpt lat="42.106332" lon="2.338403">
        <ele>1063.32962011719</ele>
        <time>2019-10-07T09:51:51.000Z</time>
      </trkpt>
      <trkpt lat="42.106381" lon="2.338422">
        <ele>1066.32962011719</ele>
        <time>2019-10-07T09:52:00.000Z</time>
      </trkpt>
      <trkpt lat="42.106399" lon="2.338437">
        <ele>1067.29442871094</ele>
        <time>2019-10-07T09:52:02.000Z</time>
      </trkpt>
      <trkpt lat="42.106418" lon="2.338434">
        <ele>1067.96480859375</ele>
        <time>2019-10-07T09:52:04.000Z</time>
      </trkpt>
      <trkpt lat="42.106447" lon="2.338451">
        <ele>1069.12956835938</ele>
        <time>2019-10-07T09:52:08.000Z</time>
      </trkpt>
      <trkpt lat="42.106467" lon="2.338469">
        <ele>1069.56478417969</ele>
        <time>2019-10-07T09:52:11.000Z</time>
      </trkpt>
      <trkpt lat="42.106484" lon="2.338477">
        <ele>1070.36481152344</ele>
        <time>2019-10-07T09:52:13.000Z</time>
      </trkpt>
      <trkpt lat="42.106505" lon="2.338482">
        <ele>1070.96480859375</ele>
        <time>2019-10-07T09:52:16.000Z</time>
      </trkpt>
      <trkpt lat="42.106525" lon="2.338481">
        <ele>1071.96480859375</ele>
        <time>2019-10-07T09:52:19.000Z</time>
      </trkpt>
      <trkpt lat="42.106541" lon="2.338491">
        <ele>1072.72964453125</ele>
        <time>2019-10-07T09:52:21.000Z</time>
      </trkpt>
      <trkpt lat="42.106562" lon="2.338501">
        <ele>1073.36481152344</ele>
        <time>2019-10-07T09:52:23.000Z</time>
      </trkpt>
      <trkpt lat="42.106577" lon="2.338525">
        <ele>1074.12956835938</ele>
        <time>2019-10-07T09:52:25.000Z</time>
      </trkpt>
      <trkpt lat="42.106597" lon="2.338547">
        <ele>1074.92959570313</ele>
        <time>2019-10-07T09:52:27.000Z</time>
      </trkpt>
      <trkpt lat="42.106669" lon="2.33866">
        <ele>1076.36481152344</ele>
        <time>2019-10-07T09:52:33.000Z</time>
      </trkpt>
      <trkpt lat="42.106729" lon="2.338751">
        <ele>1079.0591640625</ele>
        <time>2019-10-07T09:52:39.000Z</time>
      </trkpt>
      <trkpt lat="42.106795" lon="2.338848">
        <ele>1080.85919140625</ele>
        <time>2019-10-07T09:52:44.000Z</time>
      </trkpt>
      <trkpt lat="42.106801" lon="2.338994">
        <ele>1083.16475976562</ele>
        <time>2019-10-07T09:52:51.000Z</time>
      </trkpt>
      <trkpt lat="42.106839" lon="2.339107">
        <ele>1085.56478417969</ele>
        <time>2019-10-07T09:53:00.000Z</time>
      </trkpt>
      <trkpt lat="42.106898" lon="2.339215">
        <ele>1088.12956835938</ele>
        <time>2019-10-07T09:53:09.000Z</time>
      </trkpt>
      <trkpt lat="42.106944" lon="2.339338">
        <ele>1089.72964453125</ele>
        <time>2019-10-07T09:53:14.000Z</time>
      </trkpt>
      <trkpt lat="42.107016" lon="2.339431">
        <ele>1090.59997558594</ele>
        <time>2019-10-07T09:53:19.000Z</time>
      </trkpt>
      <trkpt lat="42.107088" lon="2.339514">
        <ele>1091.69443164063</ele>
        <time>2019-10-07T09:53:24.000Z</time>
      </trkpt>
      <trkpt lat="42.107142" lon="2.339631">
        <ele>1094.56478417969</ele>
        <time>2019-10-07T09:53:36.000Z</time>
      </trkpt>
      <trkpt lat="42.107168" lon="2.339758">
        <ele>1095.52957128906</ele>
        <time>2019-10-07T09:53:43.000Z</time>
      </trkpt>
      <trkpt lat="42.107228" lon="2.339856">
        <ele>1097.72964453125</ele>
        <time>2019-10-07T09:53:50.000Z</time>
      </trkpt>
      <trkpt lat="42.107258" lon="2.339984">
        <ele>1100.12956835938</ele>
        <time>2019-10-07T09:53:58.000Z</time>
      </trkpt>
      <trkpt lat="42.107285" lon="2.340115">
        <ele>1101.40002441406</ele>
        <time>2019-10-07T09:54:05.000Z</time>
      </trkpt>
      <trkpt lat="42.10726" lon="2.340254">
        <ele>1103.56478417969</ele>
        <time>2019-10-07T09:54:11.000Z</time>
      </trkpt>
      <trkpt lat="42.107285" lon="2.340385">
        <ele>1105.7648359375</ele>
        <time>2019-10-07T09:54:17.000Z</time>
      </trkpt>
      <trkpt lat="42.10736" lon="2.34048">
        <ele>1107</ele>
        <time>2019-10-07T09:54:24.000Z</time>
      </trkpt>
      <trkpt lat="42.107445" lon="2.340538">
        <ele>1109.12956835938</ele>
        <time>2019-10-07T09:54:32.000Z</time>
      </trkpt>
      <trkpt lat="42.107481" lon="2.340652">
        <ele>1112.85919140625</ele>
        <time>2019-10-07T09:54:39.000Z</time>
      </trkpt>
      <trkpt lat="42.107499" lon="2.340779">
        <ele>1114.72964453125</ele>
        <time>2019-10-07T09:54:45.000Z</time>
      </trkpt>
      <trkpt lat="42.107524" lon="2.340897">
        <ele>1116.16475976562</ele>
        <time>2019-10-07T09:54:51.000Z</time>
      </trkpt>
      <trkpt lat="42.107591" lon="2.340985">
        <ele>1117.96480859375</ele>
        <time>2019-10-07T09:54:58.000Z</time>
      </trkpt>
      <trkpt lat="42.107658" lon="2.341073">
        <ele>1121.52957128906</ele>
        <time>2019-10-07T09:55:09.000Z</time>
      </trkpt>
      <trkpt lat="42.107693" lon="2.341185">
        <ele>1124.12956835938</ele>
        <time>2019-10-07T09:55:16.000Z</time>
      </trkpt>
      <trkpt lat="42.107699" lon="2.341318">
        <ele>1126.32962011719</ele>
        <time>2019-10-07T09:55:24.000Z</time>
      </trkpt>
      <trkpt lat="42.107706" lon="2.341449">
        <ele>1127.7648359375</ele>
        <time>2019-10-07T09:55:30.000Z</time>
      </trkpt>
      <trkpt lat="42.107682" lon="2.341569">
        <ele>1129.96480859375</ele>
        <time>2019-10-07T09:55:36.000Z</time>
      </trkpt>
      <trkpt lat="42.107699" lon="2.34169">
        <ele>1134.12956835938</ele>
        <time>2019-10-07T09:55:50.000Z</time>
      </trkpt>
      <trkpt lat="42.10767" lon="2.341807">
        <ele>1137.45918847656</ele>
        <time>2019-10-07T09:55:58.000Z</time>
      </trkpt>
      <trkpt lat="42.107692" lon="2.341932">
        <ele>1141.72964453125</ele>
        <time>2019-10-07T09:56:12.000Z</time>
      </trkpt>
      <trkpt lat="42.107677" lon="2.342057">
        <ele>1144.36481152344</ele>
        <time>2019-10-07T09:56:20.000Z</time>
      </trkpt>
      <trkpt lat="42.107588" lon="2.342109">
        <ele>1146.72964453125</ele>
        <time>2019-10-07T09:56:28.000Z</time>
      </trkpt>
      <trkpt lat="42.107509" lon="2.34218">
        <ele>1149.72964453125</ele>
        <time>2019-10-07T09:56:36.000Z</time>
      </trkpt>
      <trkpt lat="42.107436" lon="2.342266">
        <ele>1151.7648359375</ele>
        <time>2019-10-07T09:56:44.000Z</time>
      </trkpt>
      <trkpt lat="42.10742" lon="2.342395">
        <ele>1156.49437988281</ele>
        <time>2019-10-07T09:56:59.000Z</time>
      </trkpt>
      <trkpt lat="42.107474" lon="2.342506">
        <ele>1159.52957128906</ele>
        <time>2019-10-07T09:57:13.000Z</time>
      </trkpt>
      <trkpt lat="42.107468" lon="2.342628">
        <ele>1162.12956835938</ele>
        <time>2019-10-07T09:57:22.000Z</time>
      </trkpt>
      <trkpt lat="42.107473" lon="2.34275">
        <ele>1164.92959570313</ele>
        <time>2019-10-07T09:57:31.000Z</time>
      </trkpt>
      <trkpt lat="42.107485" lon="2.34288">
        <ele>1168.69443164063</ele>
        <time>2019-10-07T09:57:42.000Z</time>
      </trkpt>
      <trkpt lat="42.107513" lon="2.342997">
        <ele>1172.29442871094</ele>
        <time>2019-10-07T09:57:53.000Z</time>
      </trkpt>
      <trkpt lat="42.107499" lon="2.34312">
        <ele>1176.29442871094</ele>
        <time>2019-10-07T09:58:03.000Z</time>
      </trkpt>
      <trkpt lat="42.107485" lon="2.34325">
        <ele>1180.52957128906</ele>
        <time>2019-10-07T09:58:16.000Z</time>
      </trkpt>
      <trkpt lat="42.107494" lon="2.343375">
        <ele>1183.72964453125</ele>
        <time>2019-10-07T09:58:26.000Z</time>
      </trkpt>
      <trkpt lat="42.107517" lon="2.343508">
        <ele>1189.72964453125</ele>
        <time>2019-10-07T09:58:46.000Z</time>
      </trkpt>
      <trkpt lat="42.107592" lon="2.343584">
        <ele>1194</ele>
        <time>2019-10-07T09:59:05.000Z</time>
      </trkpt>
      <trkpt lat="42.107683" lon="2.343536">
        <ele>1196.52957128906</ele>
        <time>2019-10-07T09:59:15.000Z</time>
      </trkpt>
      <trkpt lat="42.107691" lon="2.343409">
        <ele>1202.16475976562</ele>
        <time>2019-10-07T09:59:30.000Z</time>
      </trkpt>
      <trkpt lat="42.107759" lon="2.343317">
        <ele>1205.12956835938</ele>
        <time>2019-10-07T09:59:39.000Z</time>
      </trkpt>
      <trkpt lat="42.107774" lon="2.343293">
        <ele>1205.40002441406</ele>
        <time>2019-10-07T09:59:42.000Z</time>
      </trkpt>
      <trkpt lat="42.107799" lon="2.343285">
        <ele>1206.72964453125</ele>
        <time>2019-10-07T09:59:45.000Z</time>
      </trkpt>
      <trkpt lat="42.107893" lon="2.343336">
        <ele>1214.19995117188</ele>
        <time>2019-10-07T10:00:09.000Z</time>
      </trkpt>
      <trkpt lat="42.107959" lon="2.343433">
        <ele>1217.56478417969</ele>
        <time>2019-10-07T10:00:18.000Z</time>
      </trkpt>
      <trkpt lat="42.107946" lon="2.343569">
        <ele>1221.69443164063</ele>
        <time>2019-10-07T10:00:27.000Z</time>
      </trkpt>
      <trkpt lat="42.107941" lon="2.343694">
        <ele>1223.7648359375</ele>
        <time>2019-10-07T10:00:34.000Z</time>
      </trkpt>
      <trkpt lat="42.107983" lon="2.343801">
        <ele>1228.52957128906</ele>
        <time>2019-10-07T10:00:52.000Z</time>
      </trkpt>
      <trkpt lat="42.108015" lon="2.343777">
        <ele>1230.32962011719</ele>
        <time>2019-10-07T10:00:58.000Z</time>
      </trkpt>
      <trkpt lat="42.108042" lon="2.343798">
        <ele>1231.16475976562</ele>
        <time>2019-10-07T10:01:03.000Z</time>
      </trkpt>
      <trkpt lat="42.10806" lon="2.343816">
        <ele>1232.03519140625</ele>
        <time>2019-10-07T10:01:06.000Z</time>
      </trkpt>
      <trkpt lat="42.108076" lon="2.34383">
        <ele>1233.80004882813</ele>
        <time>2019-10-07T10:01:15.000Z</time>
      </trkpt>
      <trkpt lat="42.108094" lon="2.343808">
        <ele>1234.59997558594</ele>
        <time>2019-10-07T10:01:19.000Z</time>
      </trkpt>
      <trkpt lat="42.108111" lon="2.343788">
        <ele>1235.32962011719</ele>
        <time>2019-10-07T10:01:21.000Z</time>
      </trkpt>
      <trkpt lat="42.108134" lon="2.343789">
        <ele>1236.56478417969</ele>
        <time>2019-10-07T10:01:24.000Z</time>
      </trkpt>
      <trkpt lat="42.108153" lon="2.343791">
        <ele>1237.49437988281</ele>
        <time>2019-10-07T10:01:27.000Z</time>
      </trkpt>
      <trkpt lat="42.108171" lon="2.343786">
        <ele>1237.96480859375</ele>
        <time>2019-10-07T10:01:30.000Z</time>
      </trkpt>
      <trkpt lat="42.10818" lon="2.343755">
        <ele>1238.80004882813</ele>
        <time>2019-10-07T10:01:33.000Z</time>
      </trkpt>
      <trkpt lat="42.108166" lon="2.343731">
        <ele>1239.36481152344</ele>
        <time>2019-10-07T10:01:36.000Z</time>
      </trkpt>
      <trkpt lat="42.108167" lon="2.343701">
        <ele>1240.29442871094</ele>
        <time>2019-10-07T10:01:38.000Z</time>
      </trkpt>
      <trkpt lat="42.108171" lon="2.343676">
        <ele>1240.92959570313</ele>
        <time>2019-10-07T10:01:40.000Z</time>
      </trkpt>
      <trkpt lat="42.108172" lon="2.343648">
        <ele>1241.52957128906</ele>
        <time>2019-10-07T10:01:43.000Z</time>
      </trkpt>
      <trkpt lat="42.10819" lon="2.343631">
        <ele>1242.32962011719</ele>
        <time>2019-10-07T10:01:49.000Z</time>
      </trkpt>
      <trkpt lat="42.108231" lon="2.343633">
        <ele>1246.92959570313</ele>
        <time>2019-10-07T10:02:05.000Z</time>
      </trkpt>
      <trkpt lat="42.10825" lon="2.343603">
        <ele>1247.92959570313</ele>
        <time>2019-10-07T10:02:07.000Z</time>
      </trkpt>
      <trkpt lat="42.108271" lon="2.343605">
        <ele>1248.56478417969</ele>
        <time>2019-10-07T10:02:12.000Z</time>
      </trkpt>
      <trkpt lat="42.108291" lon="2.343615">
        <ele>1249.56478417969</ele>
        <time>2019-10-07T10:02:16.000Z</time>
      </trkpt>
      <trkpt lat="42.108309" lon="2.343607">
        <ele>1250.89440429688</ele>
        <time>2019-10-07T10:02:19.000Z</time>
      </trkpt>
      <trkpt lat="42.108334" lon="2.343607">
        <ele>1251.7648359375</ele>
        <time>2019-10-07T10:02:22.000Z</time>
      </trkpt>
      <trkpt lat="42.108329" lon="2.343568">
        <ele>1252.7648359375</ele>
        <time>2019-10-07T10:02:27.000Z</time>
      </trkpt>
      <trkpt lat="42.108335" lon="2.343532">
        <ele>1253.69443164063</ele>
        <time>2019-10-07T10:02:29.000Z</time>
      </trkpt>
      <trkpt lat="42.108339" lon="2.343508">
        <ele>1254</ele>
        <time>2019-10-07T10:02:32.000Z</time>
      </trkpt>
      <trkpt lat="42.108344" lon="2.343532">
        <ele>1255.36481152344</ele>
        <time>2019-10-07T10:02:37.000Z</time>
      </trkpt>
      <trkpt lat="42.108358" lon="2.343514">
        <ele>1256.43521582031</ele>
        <time>2019-10-07T10:02:45.000Z</time>
      </trkpt>
      <trkpt lat="42.108378" lon="2.343509">
        <ele>1256.63518847656</ele>
        <time>2019-10-07T10:02:48.000Z</time>
      </trkpt>
      <trkpt lat="42.108396" lon="2.343505">
        <ele>1258.32962011719</ele>
        <time>2019-10-07T10:02:52.000Z</time>
      </trkpt>
      <trkpt lat="42.108401" lon="2.343481">
        <ele>1259.32962011719</ele>
        <time>2019-10-07T10:02:56.000Z</time>
      </trkpt>
      <trkpt lat="42.108422" lon="2.343472">
        <ele>1260.69443164063</ele>
        <time>2019-10-07T10:03:00.000Z</time>
      </trkpt>
      <trkpt lat="42.108444" lon="2.343453">
        <ele>1261.72964453125</ele>
        <time>2019-10-07T10:03:03.000Z</time>
      </trkpt>
      <trkpt lat="42.108463" lon="2.343455">
        <ele>1262.72964453125</ele>
        <time>2019-10-07T10:03:06.000Z</time>
      </trkpt>
      <trkpt lat="42.108481" lon="2.34346">
        <ele>1263.72964453125</ele>
        <time>2019-10-07T10:03:08.000Z</time>
      </trkpt>
      <trkpt lat="42.108506" lon="2.343457">
        <ele>1264.59997558594</ele>
        <time>2019-10-07T10:03:11.000Z</time>
      </trkpt>
      <trkpt lat="42.108531" lon="2.343454">
        <ele>1265.92959570313</ele>
        <time>2019-10-07T10:03:15.000Z</time>
      </trkpt>
      <trkpt lat="42.10855" lon="2.343446">
        <ele>1266.56478417969</ele>
        <time>2019-10-07T10:03:17.000Z</time>
      </trkpt>
      <trkpt lat="42.10864" lon="2.343482">
        <ele>1270.36481152344</ele>
        <time>2019-10-07T10:03:31.000Z</time>
      </trkpt>
      <trkpt lat="42.108702" lon="2.343587">
        <ele>1270.07040429688</ele>
        <time>2019-10-07T10:03:40.000Z</time>
      </trkpt>
      <trkpt lat="42.108779" lon="2.343523">
        <ele>1272.16475976562</ele>
        <time>2019-10-07T10:03:56.000Z</time>
      </trkpt>
      <trkpt lat="42.108784" lon="2.3435">
        <ele>1273.52957128906</ele>
        <time>2019-10-07T10:04:00.000Z</time>
      </trkpt>
      <trkpt lat="42.108798" lon="2.343476">
        <ele>1276.7648359375</ele>
        <time>2019-10-07T10:04:11.000Z</time>
      </trkpt>
      <trkpt lat="42.108784" lon="2.34345">
        <ele>1277.36481152344</ele>
        <time>2019-10-07T10:04:14.000Z</time>
      </trkpt>
      <trkpt lat="42.108762" lon="2.343424">
        <ele>1278.52957128906</ele>
        <time>2019-10-07T10:04:17.000Z</time>
      </trkpt>
      <trkpt lat="42.108756" lon="2.343397">
        <ele>1279.69443164063</ele>
        <time>2019-10-07T10:04:20.000Z</time>
      </trkpt>
      <trkpt lat="42.108761" lon="2.343368">
        <ele>1281.32962011719</ele>
        <time>2019-10-07T10:04:26.000Z</time>
      </trkpt>
      <trkpt lat="42.108762" lon="2.343342">
        <ele>1282.36481152344</ele>
        <time>2019-10-07T10:04:30.000Z</time>
      </trkpt>
      <trkpt lat="42.108746" lon="2.343317">
        <ele>1283</ele>
        <time>2019-10-07T10:04:34.000Z</time>
      </trkpt>
      <trkpt lat="42.108728" lon="2.343299">
        <ele>1283.56478417969</ele>
        <time>2019-10-07T10:04:36.000Z</time>
      </trkpt>
      <trkpt lat="42.108712" lon="2.343281">
        <ele>1284.16475976562</ele>
        <time>2019-10-07T10:04:38.000Z</time>
      </trkpt>
      <trkpt lat="42.108695" lon="2.343256">
        <ele>1284.56478417969</ele>
        <time>2019-10-07T10:04:40.000Z</time>
      </trkpt>
      <trkpt lat="42.108712" lon="2.343241">
        <ele>1286.92959570313</ele>
        <time>2019-10-07T10:04:47.000Z</time>
      </trkpt>
      <trkpt lat="42.10872" lon="2.343264">
        <ele>1287.96480859375</ele>
        <time>2019-10-07T10:04:51.000Z</time>
      </trkpt>
      <trkpt lat="42.10872" lon="2.343289">
        <ele>1288.92959570313</ele>
        <time>2019-10-07T10:04:55.000Z</time>
      </trkpt>
      <trkpt lat="42.108709" lon="2.343224">
        <ele>1300.94344395313</ele>
        <time>2019-10-07T10:12:43.000Z</time>
      </trkpt>
      <trkpt lat="42.108706" lon="2.343195">
        <ele>1300.143395125</ele>
        <time>2019-10-07T10:12:46.000Z</time>
      </trkpt>
      <trkpt lat="42.108716" lon="2.343228">
        <ele>1299</ele>
        <time>2019-10-07T10:12:52.000Z</time>
      </trkpt>
      <trkpt lat="42.108735" lon="2.343255">
        <ele>1299.30441793906</ele>
        <time>2019-10-07T10:12:54.000Z</time>
      </trkpt>
      <trkpt lat="42.10876" lon="2.343272">
        <ele>1299.30441793906</ele>
        <time>2019-10-07T10:12:58.000Z</time>
      </trkpt>
      <trkpt lat="42.108777" lon="2.343291">
        <ele>1299.29555764688</ele>
        <time>2019-10-07T10:13:00.000Z</time>
      </trkpt>
      <trkpt lat="42.108786" lon="2.343316">
        <ele>1298.37110123431</ele>
        <time>2019-10-07T10:13:03.000Z</time>
      </trkpt>
      <trkpt lat="42.108786" lon="2.343343">
        <ele>1297.69558206094</ele>
        <time>2019-10-07T10:13:06.000Z</time>
      </trkpt>
      <trkpt lat="42.108778" lon="2.343381">
        <ele>1296.69558206094</ele>
        <time>2019-10-07T10:13:09.000Z</time>
      </trkpt>
      <trkpt lat="42.108777" lon="2.343411">
        <ele>1296.24776899688</ele>
        <time>2019-10-07T10:13:11.000Z</time>
      </trkpt>
      <trkpt lat="42.10877" lon="2.343451">
        <ele>1295.44781306406</ele>
        <time>2019-10-07T10:13:13.000Z</time>
      </trkpt>
      <trkpt lat="42.108779" lon="2.343489">
        <ele>1294.44781306406</ele>
        <time>2019-10-07T10:13:15.000Z</time>
      </trkpt>
      <trkpt lat="42.108787" lon="2.343516">
        <ele>1294.24776899688</ele>
        <time>2019-10-07T10:13:16.000Z</time>
      </trkpt>
      <trkpt lat="42.108786" lon="2.343554">
        <ele>1293.84783747813</ele>
        <time>2019-10-07T10:13:18.000Z</time>
      </trkpt>
      <trkpt lat="42.108762" lon="2.343568">
        <ele>1292.89562612813</ele>
        <time>2019-10-07T10:13:20.000Z</time>
      </trkpt>
      <trkpt lat="42.108742" lon="2.343584">
        <ele>1291.24776899688</ele>
        <time>2019-10-07T10:13:24.000Z</time>
      </trkpt>
      <trkpt lat="42.108735" lon="2.343608">
        <ele>1290.69558206094</ele>
        <time>2019-10-07T10:13:26.000Z</time>
      </trkpt>
      <trkpt lat="42.108735" lon="2.343646">
        <ele>1289.64779341094</ele>
        <time>2019-10-07T10:13:28.000Z</time>
      </trkpt>
      <trkpt lat="42.108723" lon="2.34367">
        <ele>1288.39116412187</ele>
        <time>2019-10-07T10:13:30.000Z</time>
      </trkpt>
      <trkpt lat="42.108698" lon="2.34368">
        <ele>1286.44781306406</ele>
        <time>2019-10-07T10:13:34.000Z</time>
      </trkpt>
      <trkpt lat="42.108669" lon="2.34368">
        <ele>1285.84783747813</ele>
        <time>2019-10-07T10:13:36.000Z</time>
      </trkpt>
      <trkpt lat="42.10865" lon="2.343674">
        <ele>1285.19995117188</ele>
        <time>2019-10-07T10:13:38.000Z</time>
      </trkpt>
      <trkpt lat="42.108628" lon="2.343639">
        <ele>1283.29555764688</ele>
        <time>2019-10-07T10:13:42.000Z</time>
      </trkpt>
      <trkpt lat="42.10856" lon="2.343593">
        <ele>1283.80004882813</ele>
        <time>2019-10-07T10:13:48.000Z</time>
      </trkpt>
      <trkpt lat="42.108516" lon="2.343566">
        <ele>1283.95221135</ele>
        <time>2019-10-07T10:13:53.000Z</time>
      </trkpt>
      <trkpt lat="42.108492" lon="2.343564">
        <ele>1284.30441793906</ele>
        <time>2019-10-07T10:13:56.000Z</time>
      </trkpt>
      <trkpt lat="42.108471" lon="2.343568">
        <ele>1283.84783747813</ele>
        <time>2019-10-07T10:13:59.000Z</time>
      </trkpt>
      <trkpt lat="42.108451" lon="2.343554">
        <ele>1281.39116412187</ele>
        <time>2019-10-07T10:14:03.000Z</time>
      </trkpt>
      <trkpt lat="42.10843" lon="2.343546">
        <ele>1280.49563088906</ele>
        <time>2019-10-07T10:14:06.000Z</time>
      </trkpt>
      <trkpt lat="42.108416" lon="2.343567">
        <ele>1279.34337547188</ele>
        <time>2019-10-07T10:14:09.000Z</time>
      </trkpt>
      <trkpt lat="42.108395" lon="2.343564">
        <ele>1278.24776899688</ele>
        <time>2019-10-07T10:14:12.000Z</time>
      </trkpt>
      <trkpt lat="42.108373" lon="2.343569">
        <ele>1277.49563088906</ele>
        <time>2019-10-07T10:14:15.000Z</time>
      </trkpt>
      <trkpt lat="42.108356" lon="2.343582">
        <ele>1276.29555764688</ele>
        <time>2019-10-07T10:14:19.000Z</time>
      </trkpt>
      <trkpt lat="42.108332" lon="2.343567">
        <ele>1275.095606475</ele>
        <time>2019-10-07T10:14:22.000Z</time>
      </trkpt>
      <trkpt lat="42.108307" lon="2.343563">
        <ele>1274.095606475</ele>
        <time>2019-10-07T10:14:25.000Z</time>
      </trkpt>
      <trkpt lat="42.108287" lon="2.343594">
        <ele>1272.19995117188</ele>
        <time>2019-10-07T10:14:30.000Z</time>
      </trkpt>
      <trkpt lat="42.108291" lon="2.34362">
        <ele>1270.74337071094</ele>
        <time>2019-10-07T10:14:33.000Z</time>
      </trkpt>
      <trkpt lat="42.108275" lon="2.343636">
        <ele>1268.64779341094</ele>
        <time>2019-10-07T10:14:39.000Z</time>
      </trkpt>
      <trkpt lat="42.108248" lon="2.343625">
        <ele>1268.24776899688</ele>
        <time>2019-10-07T10:14:41.000Z</time>
      </trkpt>
      <trkpt lat="42.108232" lon="2.343612">
        <ele>1267.89562612813</ele>
        <time>2019-10-07T10:14:43.000Z</time>
      </trkpt>
      <trkpt lat="42.108207" lon="2.343597">
        <ele>1267.29555764688</ele>
        <time>2019-10-07T10:14:45.000Z</time>
      </trkpt>
      <trkpt lat="42.108179" lon="2.343612">
        <ele>1265.59120818906</ele>
        <time>2019-10-07T10:14:49.000Z</time>
      </trkpt>
      <trkpt lat="42.108152" lon="2.343629">
        <ele>1265</ele>
        <time>2019-10-07T10:14:51.000Z</time>
      </trkpt>
      <trkpt lat="42.108136" lon="2.343651">
        <ele>1264.143395125</ele>
        <time>2019-10-07T10:14:53.000Z</time>
      </trkpt>
      <trkpt lat="42.10812" lon="2.343661">
        <ele>1263.69558206094</ele>
        <time>2019-10-07T10:14:54.000Z</time>
      </trkpt>
      <trkpt lat="42.1081" lon="2.343666">
        <ele>1263.143395125</ele>
        <time>2019-10-07T10:14:55.000Z</time>
      </trkpt>
      <trkpt lat="42.10808" lon="2.343677">
        <ele>1262.55218693594</ele>
        <time>2019-10-07T10:14:57.000Z</time>
      </trkpt>
      <trkpt lat="42.108059" lon="2.343683">
        <ele>1261.49563088906</ele>
        <time>2019-10-07T10:15:00.000Z</time>
      </trkpt>
      <trkpt lat="42.10804" lon="2.343704">
        <ele>1260.70444235312</ele>
        <time>2019-10-07T10:15:03.000Z</time>
      </trkpt>
      <trkpt lat="42.10804" lon="2.343731">
        <ele>1260.095606475</ele>
        <time>2019-10-07T10:15:05.000Z</time>
      </trkpt>
      <trkpt lat="42.10805" lon="2.343788">
        <ele>1259</ele>
        <time>2019-10-07T10:15:08.000Z</time>
      </trkpt>
      <trkpt lat="42.10805" lon="2.34383">
        <ele>1257.69558206094</ele>
        <time>2019-10-07T10:15:10.000Z</time>
      </trkpt>
      <trkpt lat="42.108043" lon="2.343855">
        <ele>1257.44781306406</ele>
        <time>2019-10-07T10:15:11.000Z</time>
      </trkpt>
      <trkpt lat="42.108019" lon="2.343862">
        <ele>1257.24776899688</ele>
        <time>2019-10-07T10:15:12.000Z</time>
      </trkpt>
      <trkpt lat="42.107991" lon="2.343875">
        <ele>1256.24776899688</ele>
        <time>2019-10-07T10:15:14.000Z</time>
      </trkpt>
      <trkpt lat="42.107969" lon="2.343865">
        <ele>1255.44781306406</ele>
        <time>2019-10-07T10:15:16.000Z</time>
      </trkpt>
      <trkpt lat="42.107959" lon="2.343888">
        <ele>1254.095606475</ele>
        <time>2019-10-07T10:15:20.000Z</time>
      </trkpt>
      <trkpt lat="42.107907" lon="2.343917">
        <ele>1250.69558206094</ele>
        <time>2019-10-07T10:15:26.000Z</time>
      </trkpt>
      <trkpt lat="42.107844" lon="2.34392">
        <ele>1249.64779341094</ele>
        <time>2019-10-07T10:15:30.000Z</time>
      </trkpt>
      <trkpt lat="42.10783" lon="2.343939">
        <ele>1248.39116412187</ele>
        <time>2019-10-07T10:15:32.000Z</time>
      </trkpt>
      <trkpt lat="42.107826" lon="2.34399">
        <ele>1246.08683907813</ele>
        <time>2019-10-07T10:15:36.000Z</time>
      </trkpt>
      <trkpt lat="42.107871" lon="2.344095">
        <ele>1245.75223100313</ele>
        <time>2019-10-07T10:15:43.000Z</time>
      </trkpt>
      <trkpt lat="42.107889" lon="2.344231">
        <ele>1245.04778865</ele>
        <time>2019-10-07T10:15:50.000Z</time>
      </trkpt>
      <trkpt lat="42.10788" lon="2.344358">
        <ele>1245.10437387187</ele>
        <time>2019-10-07T10:15:55.000Z</time>
      </trkpt>
      <trkpt lat="42.107891" lon="2.344496">
        <ele>1245.59997558594</ele>
        <time>2019-10-07T10:15:59.000Z</time>
      </trkpt>
      <trkpt lat="42.107906" lon="2.344653">
        <ele>1244.84783747813</ele>
        <time>2019-10-07T10:16:03.000Z</time>
      </trkpt>
      <trkpt lat="42.107919" lon="2.344797">
        <ele>1245.30441793906</ele>
        <time>2019-10-07T10:16:06.000Z</time>
      </trkpt>
      <trkpt lat="42.107932" lon="2.344949">
        <ele>1245.05655604687</ele>
        <time>2019-10-07T10:16:10.000Z</time>
      </trkpt>
      <trkpt lat="42.10793" lon="2.34507">
        <ele>1244.74337071094</ele>
        <time>2019-10-07T10:16:13.000Z</time>
      </trkpt>
      <trkpt lat="42.107911" lon="2.345199">
        <ele>1244.94344395313</ele>
        <time>2019-10-07T10:16:17.000Z</time>
      </trkpt>
      <trkpt lat="42.107874" lon="2.345344">
        <ele>1246.56104722813</ele>
        <time>2019-10-07T10:16:22.000Z</time>
      </trkpt>
      <trkpt lat="42.10784" lon="2.345473">
        <ele>1247.55218693594</ele>
        <time>2019-10-07T10:16:25.000Z</time>
      </trkpt>
      <trkpt lat="42.107795" lon="2.345582">
        <ele>1248.65662452812</ele>
        <time>2019-10-07T10:16:28.000Z</time>
      </trkpt>
      <trkpt lat="42.107804" lon="2.345759">
        <ele>1248.94344395313</ele>
        <time>2019-10-07T10:16:32.000Z</time>
      </trkpt>
      <trkpt lat="42.107816" lon="2.345896">
        <ele>1248.35220658906</ele>
        <time>2019-10-07T10:16:35.000Z</time>
      </trkpt>
      <trkpt lat="42.107772" lon="2.346012">
        <ele>1248.59997558594</ele>
        <time>2019-10-07T10:16:38.000Z</time>
      </trkpt>
      <trkpt lat="42.107722" lon="2.346122">
        <ele>1249.15216252188</ele>
        <time>2019-10-07T10:16:42.000Z</time>
      </trkpt>
      <trkpt lat="42.107662" lon="2.346264">
        <ele>1249.15216252188</ele>
        <time>2019-10-07T10:16:46.000Z</time>
      </trkpt>
      <trkpt lat="42.107614" lon="2.346402">
        <ele>1248.74337071094</ele>
        <time>2019-10-07T10:16:51.000Z</time>
      </trkpt>
      <trkpt lat="42.107607" lon="2.346541">
        <ele>1248.64779341094</ele>
        <time>2019-10-07T10:16:55.000Z</time>
      </trkpt>
      <trkpt lat="42.107615" lon="2.346685">
        <ele>1248.19995117188</ele>
        <time>2019-10-07T10:16:59.000Z</time>
      </trkpt>
      <trkpt lat="42.107605" lon="2.346807">
        <ele>1248.30441793906</ele>
        <time>2019-10-07T10:17:03.000Z</time>
      </trkpt>
      <trkpt lat="42.107591" lon="2.346934">
        <ele>1248.80004882813</ele>
        <time>2019-10-07T10:17:07.000Z</time>
      </trkpt>
      <trkpt lat="42.107548" lon="2.347046">
        <ele>1250.80004882813</ele>
        <time>2019-10-07T10:17:13.000Z</time>
      </trkpt>
      <trkpt lat="42.107539" lon="2.347073">
        <ele>1251.15216252188</ele>
        <time>2019-10-07T10:17:15.000Z</time>
      </trkpt>
      <trkpt lat="42.107533" lon="2.347104">
        <ele>1251.75223100313</ele>
        <time>2019-10-07T10:17:17.000Z</time>
      </trkpt>
      <trkpt lat="42.107521" lon="2.347133">
        <ele>1252.35220658906</ele>
        <time>2019-10-07T10:17:19.000Z</time>
      </trkpt>
      <trkpt lat="42.10752" lon="2.347172">
        <ele>1252.65662452812</ele>
        <time>2019-10-07T10:17:21.000Z</time>
      </trkpt>
      <trkpt lat="42.107528" lon="2.347212">
        <ele>1253.30441793906</ele>
        <time>2019-10-07T10:17:23.000Z</time>
      </trkpt>
      <trkpt lat="42.107538" lon="2.347268">
        <ele>1253.70444235312</ele>
        <time>2019-10-07T10:17:25.000Z</time>
      </trkpt>
      <trkpt lat="42.10754" lon="2.347296">
        <ele>1254.40879181094</ele>
        <time>2019-10-07T10:17:26.000Z</time>
      </trkpt>
      <trkpt lat="42.107545" lon="2.347327">
        <ele>1254.75223100313</ele>
        <time>2019-10-07T10:17:27.000Z</time>
      </trkpt>
      <trkpt lat="42.107548" lon="2.347352">
        <ele>1255.10437387187</ele>
        <time>2019-10-07T10:17:28.000Z</time>
      </trkpt>
      <trkpt lat="42.107566" lon="2.347393">
        <ele>1255.19995117188</ele>
        <time>2019-10-07T10:17:30.000Z</time>
      </trkpt>
      <trkpt lat="42.10762" lon="2.347532">
        <ele>1257.35220658906</ele>
        <time>2019-10-07T10:17:37.000Z</time>
      </trkpt>
      <trkpt lat="42.107626" lon="2.347575">
        <ele>1257.856604875</ele>
        <time>2019-10-07T10:17:38.000Z</time>
      </trkpt>
      <trkpt lat="42.107618" lon="2.347696">
        <ele>1258</ele>
        <time>2019-10-07T10:17:41.000Z</time>
      </trkpt>
      <trkpt lat="42.107622" lon="2.347829">
        <ele>1257.50436911094</ele>
        <time>2019-10-07T10:17:45.000Z</time>
      </trkpt>
      <trkpt lat="42.107638" lon="2.34796">
        <ele>1258.65662452812</ele>
        <time>2019-10-07T10:17:49.000Z</time>
      </trkpt>
      <trkpt lat="42.107668" lon="2.34808">
        <ele>1259.40002441406</ele>
        <time>2019-10-07T10:17:52.000Z</time>
      </trkpt>
      <trkpt lat="42.107678" lon="2.348158">
        <ele>1259.80004882813</ele>
        <time>2019-10-07T10:17:54.000Z</time>
      </trkpt>
      <trkpt lat="42.10768" lon="2.348193">
        <ele>1259.95221135</ele>
        <time>2019-10-07T10:17:55.000Z</time>
      </trkpt>
      <trkpt lat="42.107683" lon="2.348224">
        <ele>1260</ele>
        <time>2019-10-07T10:17:56.000Z</time>
      </trkpt>
      <trkpt lat="42.107701" lon="2.348311">
        <ele>1261.45658046094</ele>
        <time>2019-10-07T10:18:00.000Z</time>
      </trkpt>
      <trkpt lat="42.107704" lon="2.348342">
        <ele>1261.75223100313</ele>
        <time>2019-10-07T10:18:01.000Z</time>
      </trkpt>
      <trkpt lat="42.107714" lon="2.348394">
        <ele>1262.40879181094</ele>
        <time>2019-10-07T10:18:03.000Z</time>
      </trkpt>
      <trkpt lat="42.107719" lon="2.34842">
        <ele>1262.904393525</ele>
        <time>2019-10-07T10:18:04.000Z</time>
      </trkpt>
      <trkpt lat="42.107722" lon="2.348466">
        <ele>1263.75223100313</ele>
        <time>2019-10-07T10:18:06.000Z</time>
      </trkpt>
      <trkpt lat="42.107727" lon="2.348507">
        <ele>1264.65662452812</ele>
        <time>2019-10-07T10:18:08.000Z</time>
      </trkpt>
      <trkpt lat="42.107712" lon="2.348555">
        <ele>1265.30441793906</ele>
        <time>2019-10-07T10:18:10.000Z</time>
      </trkpt>
      <trkpt lat="42.107712" lon="2.348586">
        <ele>1266.00876739688</ele>
        <time>2019-10-07T10:18:11.000Z</time>
      </trkpt>
      <trkpt lat="42.107717" lon="2.348612">
        <ele>1266.50436911094</ele>
        <time>2019-10-07T10:18:12.000Z</time>
      </trkpt>
      <trkpt lat="42.107719" lon="2.348642">
        <ele>1266.75223100313</ele>
        <time>2019-10-07T10:18:13.000Z</time>
      </trkpt>
      <trkpt lat="42.107715" lon="2.348682">
        <ele>1267.40879181094</ele>
        <time>2019-10-07T10:18:15.000Z</time>
      </trkpt>
      <trkpt lat="42.107712" lon="2.348728">
        <ele>1269.16102281406</ele>
        <time>2019-10-07T10:18:17.000Z</time>
      </trkpt>
      <trkpt lat="42.107716" lon="2.348752">
        <ele>1271.35220658906</ele>
        <time>2019-10-07T10:18:22.000Z</time>
      </trkpt>
      <trkpt lat="42.107746" lon="2.348735">
        <ele>1272.55218693594</ele>
        <time>2019-10-07T10:18:26.000Z</time>
      </trkpt>
      <trkpt lat="42.107773" lon="2.348718">
        <ele>1272.95221135</ele>
        <time>2019-10-07T10:18:28.000Z</time>
      </trkpt>
      <trkpt lat="42.107796" lon="2.3487">
        <ele>1273.75223100313</ele>
        <time>2019-10-07T10:18:30.000Z</time>
      </trkpt>
      <trkpt lat="42.107816" lon="2.348685">
        <ele>1273.84783747813</ele>
        <time>2019-10-07T10:18:32.000Z</time>
      </trkpt>
      <trkpt lat="42.107835" lon="2.348699">
        <ele>1274.50436911094</ele>
        <time>2019-10-07T10:18:34.000Z</time>
      </trkpt>
      <trkpt lat="42.107848" lon="2.348728">
        <ele>1275.65662452812</ele>
        <time>2019-10-07T10:18:36.000Z</time>
      </trkpt>
      <trkpt lat="42.107855" lon="2.348756">
        <ele>1276.25662928906</ele>
        <time>2019-10-07T10:18:37.000Z</time>
      </trkpt>
      <trkpt lat="42.107863" lon="2.348782">
        <ele>1276.55218693594</ele>
        <time>2019-10-07T10:18:38.000Z</time>
      </trkpt>
      <trkpt lat="42.10788" lon="2.348814">
        <ele>1277.55218693594</ele>
        <time>2019-10-07T10:18:40.000Z</time>
      </trkpt>
      <trkpt lat="42.10791" lon="2.34885">
        <ele>1278.15216252188</ele>
        <time>2019-10-07T10:18:43.000Z</time>
      </trkpt>
      <trkpt lat="42.108" lon="2.348926">
        <ele>1277.143395125</ele>
        <time>2019-10-07T10:18:47.000Z</time>
      </trkpt>
      <trkpt lat="42.108039" lon="2.348979">
        <ele>1276.64779341094</ele>
        <time>2019-10-07T10:18:49.000Z</time>
      </trkpt>
      <trkpt lat="42.10807" lon="2.349028">
        <ele>1276.15216252188</ele>
        <time>2019-10-07T10:18:51.000Z</time>
      </trkpt>
      <trkpt lat="42.108164" lon="2.349098">
        <ele>1275.04778865</ele>
        <time>2019-10-07T10:18:57.000Z</time>
      </trkpt>
      <trkpt lat="42.108255" lon="2.349162">
        <ele>1274.75223100313</ele>
        <time>2019-10-07T10:19:03.000Z</time>
      </trkpt>
      <trkpt lat="42.108322" lon="2.349194">
        <ele>1276.10437387187</ele>
        <time>2019-10-07T10:19:07.000Z</time>
      </trkpt>
      <trkpt lat="42.108353" lon="2.34918">
        <ele>1277.40879181094</ele>
        <time>2019-10-07T10:19:10.000Z</time>
      </trkpt>
      <trkpt lat="42.108374" lon="2.349157">
        <ele>1278.35220658906</ele>
        <time>2019-10-07T10:19:12.000Z</time>
      </trkpt>
      <trkpt lat="42.10839" lon="2.349146">
        <ele>1278.70444235312</ele>
        <time>2019-10-07T10:19:13.000Z</time>
      </trkpt>
      <trkpt lat="42.108423" lon="2.34912">
        <ele>1279.35220658906</ele>
        <time>2019-10-07T10:19:15.000Z</time>
      </trkpt>
      <trkpt lat="42.108444" lon="2.349108">
        <ele>1280.10437387187</ele>
        <time>2019-10-07T10:19:17.000Z</time>
      </trkpt>
      <trkpt lat="42.108463" lon="2.349092">
        <ele>1280.904393525</ele>
        <time>2019-10-07T10:19:19.000Z</time>
      </trkpt>
      <trkpt lat="42.108479" lon="2.349075">
        <ele>1281.40002441406</ele>
        <time>2019-10-07T10:19:21.000Z</time>
      </trkpt>
      <trkpt lat="42.108499" lon="2.349072">
        <ele>1282.15216252188</ele>
        <time>2019-10-07T10:19:23.000Z</time>
      </trkpt>
      <trkpt lat="42.108517" lon="2.349071">
        <ele>1283.45658046094</ele>
        <time>2019-10-07T10:19:26.000Z</time>
      </trkpt>
      <trkpt lat="42.108536" lon="2.349068">
        <ele>1284.10437387187</ele>
        <time>2019-10-07T10:19:28.000Z</time>
      </trkpt>
      <trkpt lat="42.108553" lon="2.349084">
        <ele>1284.904393525</ele>
        <time>2019-10-07T10:19:30.000Z</time>
      </trkpt>
      <trkpt lat="42.108576" lon="2.3491">
        <ele>1285.70444235312</ele>
        <time>2019-10-07T10:19:33.000Z</time>
      </trkpt>
      <trkpt lat="42.108597" lon="2.349097">
        <ele>1287.05655604687</ele>
        <time>2019-10-07T10:19:38.000Z</time>
      </trkpt>
      <trkpt lat="42.108616" lon="2.349117">
        <ele>1288.55218693594</ele>
        <time>2019-10-07T10:19:42.000Z</time>
      </trkpt>
      <trkpt lat="42.108639" lon="2.349131">
        <ele>1289.856604875</ele>
        <time>2019-10-07T10:19:45.000Z</time>
      </trkpt>
      <trkpt lat="42.10866" lon="2.349141">
        <ele>1290.40002441406</ele>
        <time>2019-10-07T10:19:48.000Z</time>
      </trkpt>
      <trkpt lat="42.108681" lon="2.349149">
        <ele>1292.15216252188</ele>
        <time>2019-10-07T10:19:53.000Z</time>
      </trkpt>
      <trkpt lat="42.1087" lon="2.349133">
        <ele>1294.904393525</ele>
        <time>2019-10-07T10:19:59.000Z</time>
      </trkpt>
      <trkpt lat="42.108751" lon="2.349124">
        <ele>1296.50436911094</ele>
        <time>2019-10-07T10:20:04.000Z</time>
      </trkpt>
      <trkpt lat="42.108837" lon="2.349182">
        <ele>1303.70444235312</ele>
        <time>2019-10-07T10:20:26.000Z</time>
      </trkpt>
      <trkpt lat="42.108861" lon="2.349225">
        <ele>1305.30441793906</ele>
        <time>2019-10-07T10:20:30.000Z</time>
      </trkpt>
      <trkpt lat="42.108866" lon="2.349252">
        <ele>1305.55218693594</ele>
        <time>2019-10-07T10:20:32.000Z</time>
      </trkpt>
      <trkpt lat="42.108857" lon="2.349282">
        <ele>1307.30441793906</ele>
        <time>2019-10-07T10:20:36.000Z</time>
      </trkpt>
      <trkpt lat="42.108867" lon="2.349306">
        <ele>1308.70444235312</ele>
        <time>2019-10-07T10:20:41.000Z</time>
      </trkpt>
      <trkpt lat="42.108868" lon="2.349335">
        <ele>1309.70444235312</ele>
        <time>2019-10-07T10:20:45.000Z</time>
      </trkpt>
      <trkpt lat="42.108876" lon="2.349385">
        <ele>1311.95221135</ele>
        <time>2019-10-07T10:20:53.000Z</time>
      </trkpt>
      <trkpt lat="42.108891" lon="2.349402">
        <ele>1313.95221135</ele>
        <time>2019-10-07T10:20:58.000Z</time>
      </trkpt>
      <trkpt lat="42.108905" lon="2.34942">
        <ele>1315.15216252188</ele>
        <time>2019-10-07T10:21:03.000Z</time>
      </trkpt>
      <trkpt lat="42.10892" lon="2.349437">
        <ele>1316.10437387187</ele>
        <time>2019-10-07T10:21:06.000Z</time>
      </trkpt>
      <trkpt lat="42.108935" lon="2.349417">
        <ele>1317.35220658906</ele>
        <time>2019-10-07T10:21:10.000Z</time>
      </trkpt>
      <trkpt lat="42.108935" lon="2.349392">
        <ele>1318.25662928906</ele>
        <time>2019-10-07T10:21:14.000Z</time>
      </trkpt>
      <trkpt lat="42.108954" lon="2.349385">
        <ele>1319.55218693594</ele>
        <time>2019-10-07T10:21:18.000Z</time>
      </trkpt>
      <trkpt lat="42.108972" lon="2.349374">
        <ele>1320.50436911094</ele>
        <time>2019-10-07T10:21:21.000Z</time>
      </trkpt>
      <trkpt lat="42.108988" lon="2.349388">
        <ele>1321.904393525</ele>
        <time>2019-10-07T10:21:24.000Z</time>
      </trkpt>
      <trkpt lat="42.10901" lon="2.349394">
        <ele>1324.35220658906</ele>
        <time>2019-10-07T10:21:32.000Z</time>
      </trkpt>
      <trkpt lat="42.109024" lon="2.349374">
        <ele>1325.40002441406</ele>
        <time>2019-10-07T10:21:40.000Z</time>
      </trkpt>
      <trkpt lat="42.109039" lon="2.349357">
        <ele>1327.10437387187</ele>
        <time>2019-10-07T10:21:47.000Z</time>
      </trkpt>
      <trkpt lat="42.109044" lon="2.349329">
        <ele>1328.15216252188</ele>
        <time>2019-10-07T10:21:51.000Z</time>
      </trkpt>
      <trkpt lat="42.109049" lon="2.349302">
        <ele>1328.95221135</ele>
        <time>2019-10-07T10:21:55.000Z</time>
      </trkpt>
      <trkpt lat="42.10905" lon="2.349277">
        <ele>1329.75223100313</ele>
        <time>2019-10-07T10:21:58.000Z</time>
      </trkpt>
      <trkpt lat="42.109039" lon="2.349302">
        <ele>1330.45658046094</ele>
        <time>2019-10-07T10:22:00.000Z</time>
      </trkpt>
      <trkpt lat="42.109026" lon="2.34932">
        <ele>1331.35220658906</ele>
        <time>2019-10-07T10:22:03.000Z</time>
      </trkpt>
      <trkpt lat="42.109008" lon="2.349316">
        <ele>1333.84783747813</ele>
        <time>2019-10-07T10:22:25.000Z</time>
      </trkpt>
      <trkpt lat="42.109026" lon="2.349328">
        <ele>1334.59997558594</ele>
        <time>2019-10-07T10:24:24.000Z</time>
      </trkpt>
      <trkpt lat="42.109036" lon="2.349352">
        <ele>1335.44781306406</ele>
        <time>2019-10-07T10:25:44.000Z</time>
      </trkpt>
      <trkpt lat="42.109019" lon="2.349342">
        <ele>1337.59997558594</ele>
        <time>2019-10-07T10:28:19.000Z</time>
      </trkpt>
      <trkpt lat="42.108999" lon="2.349363">
        <ele>1337.75223100313</ele>
        <time>2019-10-07T10:28:36.000Z</time>
      </trkpt>
      <trkpt lat="42.108984" lon="2.349383">
        <ele>1337.44781306406</ele>
        <time>2019-10-07T10:28:38.000Z</time>
      </trkpt>
      <trkpt lat="42.108992" lon="2.349407">
        <ele>1336.75223100313</ele>
        <time>2019-10-07T10:28:40.000Z</time>
      </trkpt>
      <trkpt lat="42.108978" lon="2.349424">
        <ele>1334.49563088906</ele>
        <time>2019-10-07T10:28:45.000Z</time>
      </trkpt>
      <trkpt lat="42.108961" lon="2.349408">
        <ele>1332.89562612813</ele>
        <time>2019-10-07T10:28:49.000Z</time>
      </trkpt>
      <trkpt lat="42.108953" lon="2.349433">
        <ele>1332.04778865</ele>
        <time>2019-10-07T10:28:52.000Z</time>
      </trkpt>
      <trkpt lat="42.108932" lon="2.349426">
        <ele>1329.04778865</ele>
        <time>2019-10-07T10:29:01.000Z</time>
      </trkpt>
      <trkpt lat="42.108917" lon="2.349411">
        <ele>1327.94344395313</ele>
        <time>2019-10-07T10:29:03.000Z</time>
      </trkpt>
      <trkpt lat="42.108891" lon="2.34941">
        <ele>1326.69558206094</ele>
        <time>2019-10-07T10:29:06.000Z</time>
      </trkpt>
      <trkpt lat="42.10889" lon="2.349442">
        <ele>1326.40002441406</ele>
        <time>2019-10-07T10:29:08.000Z</time>
      </trkpt>
      <trkpt lat="42.10889" lon="2.349483">
        <ele>1325.64779341094</ele>
        <time>2019-10-07T10:29:10.000Z</time>
      </trkpt>
      <trkpt lat="42.10887" lon="2.349519">
        <ele>1325.04778865</ele>
        <time>2019-10-07T10:29:12.000Z</time>
      </trkpt>
      <trkpt lat="42.10885" lon="2.34951">
        <ele>1323.32584067812</ele>
        <time>2019-10-07T10:29:13.000Z</time>
      </trkpt>
      <trkpt lat="42.10882" lon="2.349492">
        <ele>1322.80004882813</ele>
        <time>2019-10-07T10:29:15.000Z</time>
      </trkpt>
      <trkpt lat="42.108804" lon="2.349464">
        <ele>1322.04778865</ele>
        <time>2019-10-07T10:29:17.000Z</time>
      </trkpt>
      <trkpt lat="42.108796" lon="2.349429">
        <ele>1320.94344395313</ele>
        <time>2019-10-07T10:29:19.000Z</time>
      </trkpt>
      <trkpt lat="42.108787" lon="2.349398">
        <ele>1319.49563088906</ele>
        <time>2019-10-07T10:29:22.000Z</time>
      </trkpt>
      <trkpt lat="42.108782" lon="2.349371">
        <ele>1317.143395125</ele>
        <time>2019-10-07T10:29:28.000Z</time>
      </trkpt>
      <trkpt lat="42.108784" lon="2.349339">
        <ele>1316.29555764688</ele>
        <time>2019-10-07T10:29:30.000Z</time>
      </trkpt>
      <trkpt lat="42.108792" lon="2.349307">
        <ele>1315.44781306406</ele>
        <time>2019-10-07T10:29:32.000Z</time>
      </trkpt>
      <trkpt lat="42.108803" lon="2.349281">
        <ele>1313.04778865</ele>
        <time>2019-10-07T10:29:37.000Z</time>
      </trkpt>
      <trkpt lat="42.108806" lon="2.349254">
        <ele>1313.24776899688</ele>
        <time>2019-10-07T10:29:40.000Z</time>
      </trkpt>
      <trkpt lat="42.108807" lon="2.349228">
        <ele>1312.34337547188</ele>
        <time>2019-10-07T10:29:43.000Z</time>
      </trkpt>
      <trkpt lat="42.108788" lon="2.349212">
        <ele>1311.143395125</ele>
        <time>2019-10-07T10:29:45.000Z</time>
      </trkpt>
      <trkpt lat="42.108763" lon="2.349204">
        <ele>1309.44781306406</ele>
        <time>2019-10-07T10:29:48.000Z</time>
      </trkpt>
      <trkpt lat="42.108744" lon="2.349206">
        <ele>1309.15216252188</ele>
        <time>2019-10-07T10:29:50.000Z</time>
      </trkpt>
      <trkpt lat="42.108726" lon="2.34921">
        <ele>1308.34337547188</ele>
        <time>2019-10-07T10:29:52.000Z</time>
      </trkpt>
      <trkpt lat="42.108699" lon="2.349207">
        <ele>1306.80004882813</ele>
        <time>2019-10-07T10:29:56.000Z</time>
      </trkpt>
      <trkpt lat="42.1087" lon="2.349179">
        <ele>1305.89562612813</ele>
        <time>2019-10-07T10:29:58.000Z</time>
      </trkpt>
      <trkpt lat="42.108704" lon="2.349155">
        <ele>1305.30766995449</ele>
        <time>2019-10-07T10:30:00.000Z</time>
      </trkpt>
      <trkpt lat="42.108681" lon="2.349169">
        <ele>1304.29555764688</ele>
        <time>2019-10-07T10:30:02.000Z</time>
      </trkpt>
      <trkpt lat="42.108656" lon="2.34919">
        <ele>1303.69558206094</ele>
        <time>2019-10-07T10:30:04.000Z</time>
      </trkpt>
      <trkpt lat="42.108629" lon="2.349198">
        <ele>1302.28679025</ele>
        <time>2019-10-07T10:30:06.000Z</time>
      </trkpt>
      <trkpt lat="42.108609" lon="2.349201">
        <ele>1301.39116412187</ele>
        <time>2019-10-07T10:30:07.000Z</time>
      </trkpt>
      <trkpt lat="42.10858" lon="2.349211">
        <ele>1300.34337547188</ele>
        <time>2019-10-07T10:30:09.000Z</time>
      </trkpt>
      <trkpt lat="42.108555" lon="2.349194">
        <ele>1298.94344395313</ele>
        <time>2019-10-07T10:30:11.000Z</time>
      </trkpt>
      <trkpt lat="42.108537" lon="2.349195">
        <ele>1297.99123260312</ele>
        <time>2019-10-07T10:30:13.000Z</time>
      </trkpt>
      <trkpt lat="42.108522" lon="2.349169">
        <ele>1296.34337547188</ele>
        <time>2019-10-07T10:30:15.000Z</time>
      </trkpt>
      <trkpt lat="42.108509" lon="2.349148">
        <ele>1295.143395125</ele>
        <time>2019-10-07T10:30:17.000Z</time>
      </trkpt>
      <trkpt lat="42.108483" lon="2.349124">
        <ele>1293.54341953906</ele>
        <time>2019-10-07T10:30:20.000Z</time>
      </trkpt>
      <trkpt lat="42.108462" lon="2.349105">
        <ele>1292.89562612813</ele>
        <time>2019-10-07T10:30:22.000Z</time>
      </trkpt>
      <trkpt lat="42.108444" lon="2.349117">
        <ele>1290.64779341094</ele>
        <time>2019-10-07T10:30:25.000Z</time>
      </trkpt>
      <trkpt lat="42.108428" lon="2.349132">
        <ele>1288.74337071094</ele>
        <time>2019-10-07T10:30:28.000Z</time>
      </trkpt>
      <trkpt lat="42.108409" lon="2.349139">
        <ele>1288.29555764688</ele>
        <time>2019-10-07T10:30:29.000Z</time>
      </trkpt>
      <trkpt lat="42.108388" lon="2.349145">
        <ele>1286.143395125</ele>
        <time>2019-10-07T10:30:33.000Z</time>
      </trkpt>
      <trkpt lat="42.108355" lon="2.349145">
        <ele>1284.54341953906</ele>
        <time>2019-10-07T10:30:36.000Z</time>
      </trkpt>
      <trkpt lat="42.108332" lon="2.349158">
        <ele>1283.79118853594</ele>
        <time>2019-10-07T10:30:37.000Z</time>
      </trkpt>
      <trkpt lat="42.108306" lon="2.349169">
        <ele>1282.99123260312</ele>
        <time>2019-10-07T10:30:38.000Z</time>
      </trkpt>
      <trkpt lat="42.108251" lon="2.349182">
        <ele>1281.99123260312</ele>
        <time>2019-10-07T10:30:40.000Z</time>
      </trkpt>
      <trkpt lat="42.10822" lon="2.349182">
        <ele>1281.03905042812</ele>
        <time>2019-10-07T10:30:41.000Z</time>
      </trkpt>
      <trkpt lat="42.108189" lon="2.349188">
        <ele>1280.49563088906</ele>
        <time>2019-10-07T10:30:42.000Z</time>
      </trkpt>
      <trkpt lat="42.108091" lon="2.349137">
        <ele>1277.143395125</ele>
        <time>2019-10-07T10:30:46.000Z</time>
      </trkpt>
      <trkpt lat="42.108027" lon="2.349077">
        <ele>1277.35220658906</ele>
        <time>2019-10-07T10:30:50.000Z</time>
      </trkpt>
      <trkpt lat="42.10798" lon="2.349024">
        <ele>1277.80004882813</ele>
        <time>2019-10-07T10:30:52.000Z</time>
      </trkpt>
      <trkpt lat="42.107895" lon="2.348965">
        <ele>1278.25662928906</ele>
        <time>2019-10-07T10:30:55.000Z</time>
      </trkpt>
      <trkpt lat="42.107834" lon="2.348907">
        <ele>1278.40879181094</ele>
        <time>2019-10-07T10:30:59.000Z</time>
      </trkpt>
      <trkpt lat="42.107821" lon="2.348878">
        <ele>1278.904393525</ele>
        <time>2019-10-07T10:31:00.000Z</time>
      </trkpt>
      <trkpt lat="42.107808" lon="2.348848">
        <ele>1279.45658046094</ele>
        <time>2019-10-07T10:31:01.000Z</time>
      </trkpt>
      <trkpt lat="42.107796" lon="2.348822">
        <ele>1279.29555764688</ele>
        <time>2019-10-07T10:31:02.000Z</time>
      </trkpt>
      <trkpt lat="42.107755" lon="2.34879">
        <ele>1279.856604875</ele>
        <time>2019-10-07T10:31:04.000Z</time>
      </trkpt>
      <trkpt lat="42.107731" lon="2.34879">
        <ele>1279.69558206094</ele>
        <time>2019-10-07T10:31:05.000Z</time>
      </trkpt>
      <trkpt lat="42.107631" lon="2.348811">
        <ele>1278.63902601406</ele>
        <time>2019-10-07T10:31:09.000Z</time>
      </trkpt>
      <trkpt lat="42.1076" lon="2.348813">
        <ele>1278.55218693594</ele>
        <time>2019-10-07T10:31:10.000Z</time>
      </trkpt>
      <trkpt lat="42.107576" lon="2.348804">
        <ele>1277.99123260312</ele>
        <time>2019-10-07T10:31:11.000Z</time>
      </trkpt>
      <trkpt lat="42.10757" lon="2.348739">
        <ele>1276.94344395313</ele>
        <time>2019-10-07T10:31:13.000Z</time>
      </trkpt>
      <trkpt lat="42.107558" lon="2.348717">
        <ele>1276.49563088906</ele>
        <time>2019-10-07T10:31:14.000Z</time>
      </trkpt>
      <trkpt lat="42.107546" lon="2.348694">
        <ele>1275.63902601406</ele>
        <time>2019-10-07T10:31:15.000Z</time>
      </trkpt>
      <trkpt lat="42.107536" lon="2.348657">
        <ele>1275.095606475</ele>
        <time>2019-10-07T10:31:16.000Z</time>
      </trkpt>
      <trkpt lat="42.107535" lon="2.348622">
        <ele>1274.69558206094</ele>
        <time>2019-10-07T10:31:17.000Z</time>
      </trkpt>
      <trkpt lat="42.107536" lon="2.348588">
        <ele>1273.53455924688</ele>
        <time>2019-10-07T10:31:18.000Z</time>
      </trkpt>
      <trkpt lat="42.107535" lon="2.348559">
        <ele>1272.74337071094</ele>
        <time>2019-10-07T10:31:19.000Z</time>
      </trkpt>
      <trkpt lat="42.107535" lon="2.348533">
        <ele>1272.29555764688</ele>
        <time>2019-10-07T10:31:20.000Z</time>
      </trkpt>
      <trkpt lat="42.107532" lon="2.348498">
        <ele>1271.74337071094</ele>
        <time>2019-10-07T10:31:21.000Z</time>
      </trkpt>
      <trkpt lat="42.10753" lon="2.348468">
        <ele>1271.29555764688</ele>
        <time>2019-10-07T10:31:22.000Z</time>
      </trkpt>
      <trkpt lat="42.107527" lon="2.348437">
        <ele>1270.59120818906</ele>
        <time>2019-10-07T10:31:23.000Z</time>
      </trkpt>
      <trkpt lat="42.107524" lon="2.348397">
        <ele>1269.94344395313</ele>
        <time>2019-10-07T10:31:24.000Z</time>
      </trkpt>
      <trkpt lat="42.10751" lon="2.348249">
        <ele>1267.2390016</ele>
        <time>2019-10-07T10:31:27.000Z</time>
      </trkpt>
      <trkpt lat="42.107489" lon="2.348115">
        <ele>1264.53455924688</ele>
        <time>2019-10-07T10:31:30.000Z</time>
      </trkpt>
      <trkpt lat="42.107479" lon="2.347957">
        <ele>1262.39116412187</ele>
        <time>2019-10-07T10:31:33.000Z</time>
      </trkpt>
      <trkpt lat="42.107486" lon="2.347828">
        <ele>1261.30441793906</ele>
        <time>2019-10-07T10:31:36.000Z</time>
      </trkpt>
      <trkpt lat="42.107476" lon="2.347679">
        <ele>1260.75223100313</ele>
        <time>2019-10-07T10:31:40.000Z</time>
      </trkpt>
      <trkpt lat="42.107416" lon="2.347547">
        <ele>1260.89562612813</ele>
        <time>2019-10-07T10:31:44.000Z</time>
      </trkpt>
      <trkpt lat="42.107407" lon="2.347404">
        <ele>1260.80004882813</ele>
        <time>2019-10-07T10:31:47.000Z</time>
      </trkpt>
      <trkpt lat="42.107406" lon="2.347256">
        <ele>1258.95221135</ele>
        <time>2019-10-07T10:31:51.000Z</time>
      </trkpt>
      <trkpt lat="42.10742" lon="2.347096">
        <ele>1256.79118853594</ele>
        <time>2019-10-07T10:31:55.000Z</time>
      </trkpt>
      <trkpt lat="42.107463" lon="2.346977">
        <ele>1254.64779341094</ele>
        <time>2019-10-07T10:32:04.000Z</time>
      </trkpt>
      <trkpt lat="42.107502" lon="2.346861">
        <ele>1253</ele>
        <time>2019-10-07T10:32:10.000Z</time>
      </trkpt>
      <trkpt lat="42.10759" lon="2.346817">
        <ele>1249.54341953906</ele>
        <time>2019-10-07T10:32:18.000Z</time>
      </trkpt>
      <trkpt lat="42.107719" lon="2.346829">
        <ele>1247.39116412187</ele>
        <time>2019-10-07T10:32:23.000Z</time>
      </trkpt>
      <trkpt lat="42.10785" lon="2.346854">
        <ele>1245.29555764688</ele>
        <time>2019-10-07T10:32:26.000Z</time>
      </trkpt>
      <trkpt lat="42.107954" lon="2.346926">
        <ele>1243.2390016</ele>
        <time>2019-10-07T10:32:29.000Z</time>
      </trkpt>
      <trkpt lat="42.108049" lon="2.347009">
        <ele>1242.44781306406</ele>
        <time>2019-10-07T10:32:32.000Z</time>
      </trkpt>
      <trkpt lat="42.108104" lon="2.347129">
        <ele>1240.94344395313</ele>
        <time>2019-10-07T10:32:35.000Z</time>
      </trkpt>
      <trkpt lat="42.108113" lon="2.347258">
        <ele>1240</ele>
        <time>2019-10-07T10:32:38.000Z</time>
      </trkpt>
      <trkpt lat="42.108189" lon="2.347326">
        <ele>1237.095606475</ele>
        <time>2019-10-07T10:32:45.000Z</time>
      </trkpt>
      <trkpt lat="42.108297" lon="2.347257">
        <ele>1233.54341953906</ele>
        <time>2019-10-07T10:32:49.000Z</time>
      </trkpt>
      <trkpt lat="42.108407" lon="2.347259">
        <ele>1231.94344395313</ele>
        <time>2019-10-07T10:32:54.000Z</time>
      </trkpt>
      <trkpt lat="42.108403" lon="2.347131">
        <ele>1224.88679501094</ele>
        <time>2019-10-07T10:33:08.000Z</time>
      </trkpt>
      <trkpt lat="42.10842" lon="2.347011">
        <ele>1219.89562612813</ele>
        <time>2019-10-07T10:33:14.000Z</time>
      </trkpt>
      <trkpt lat="42.108442" lon="2.346888">
        <ele>1216.68681466406</ele>
        <time>2019-10-07T10:33:18.000Z</time>
      </trkpt>
      <trkpt lat="42.108482" lon="2.346772">
        <ele>1213.49563088906</ele>
        <time>2019-10-07T10:33:23.000Z</time>
      </trkpt>
      <trkpt lat="42.108519" lon="2.346651">
        <ele>1209.34337547188</ele>
        <time>2019-10-07T10:33:28.000Z</time>
      </trkpt>
      <trkpt lat="42.108586" lon="2.346543">
        <ele>1205.39116412187</ele>
        <time>2019-10-07T10:33:34.000Z</time>
      </trkpt>
      <trkpt lat="42.108669" lon="2.346432">
        <ele>1203.48677059688</ele>
        <time>2019-10-07T10:33:37.000Z</time>
      </trkpt>
      <trkpt lat="42.108734" lon="2.346336">
        <ele>1199.43895277187</ele>
        <time>2019-10-07T10:33:42.000Z</time>
      </trkpt>
      <trkpt lat="42.108796" lon="2.346216">
        <ele>1197.095606475</ele>
        <time>2019-10-07T10:33:47.000Z</time>
      </trkpt>
      <trkpt lat="42.10879" lon="2.34608">
        <ele>1195.49563088906</ele>
        <time>2019-10-07T10:33:52.000Z</time>
      </trkpt>
      <trkpt lat="42.108907" lon="2.346005">
        <ele>1188.69558206094</ele>
        <time>2019-10-07T10:34:03.000Z</time>
      </trkpt>
      <trkpt lat="42.109012" lon="2.345957">
        <ele>1186.64779341094</ele>
        <time>2019-10-07T10:34:06.000Z</time>
      </trkpt>
      <trkpt lat="42.109119" lon="2.345924">
        <ele>1185.54341953906</ele>
        <time>2019-10-07T10:34:09.000Z</time>
      </trkpt>
      <trkpt lat="42.109265" lon="2.34588">
        <ele>1185.24776899688</ele>
        <time>2019-10-07T10:34:12.000Z</time>
      </trkpt>
      <trkpt lat="42.1094" lon="2.345822">
        <ele>1184.143395125</ele>
        <time>2019-10-07T10:34:14.000Z</time>
      </trkpt>
      <trkpt lat="42.109463" lon="2.345909">
        <ele>1180.84783747813</ele>
        <time>2019-10-07T10:34:33.000Z</time>
      </trkpt>
      <trkpt lat="42.109564" lon="2.345914">
        <ele>1180.95221135</ele>
        <time>2019-10-07T10:34:37.000Z</time>
      </trkpt>
      <trkpt lat="42.109675" lon="2.345937">
        <ele>1181.16102281406</ele>
        <time>2019-10-07T10:34:41.000Z</time>
      </trkpt>
      <trkpt lat="42.109772" lon="2.345947">
        <ele>1180.89562612813</ele>
        <time>2019-10-07T10:34:44.000Z</time>
      </trkpt>
      <trkpt lat="42.109856" lon="2.345993">
        <ele>1180.80004882813</ele>
        <time>2019-10-07T10:34:46.000Z</time>
      </trkpt>
      <trkpt lat="42.10997" lon="2.346024">
        <ele>1179.69558206094</ele>
        <time>2019-10-07T10:34:49.000Z</time>
      </trkpt>
      <trkpt lat="42.110064" lon="2.346057">
        <ele>1179</ele>
        <time>2019-10-07T10:34:52.000Z</time>
      </trkpt>
      <trkpt lat="42.110139" lon="2.346138">
        <ele>1178.29555764688</ele>
        <time>2019-10-07T10:34:55.000Z</time>
      </trkpt>
      <trkpt lat="42.110227" lon="2.346221">
        <ele>1175.29555764688</ele>
        <time>2019-10-07T10:35:02.000Z</time>
      </trkpt>
      <trkpt lat="42.110287" lon="2.346313">
        <ele>1173.89562612813</ele>
        <time>2019-10-07T10:35:05.000Z</time>
      </trkpt>
      <trkpt lat="42.110348" lon="2.346447">
        <ele>1171.49563088906</ele>
        <time>2019-10-07T10:35:09.000Z</time>
      </trkpt>
      <trkpt lat="42.110368" lon="2.346568">
        <ele>1170.04778865</ele>
        <time>2019-10-07T10:35:12.000Z</time>
      </trkpt>
      <trkpt lat="42.110376" lon="2.346706">
        <ele>1168.94344395313</ele>
        <time>2019-10-07T10:35:15.000Z</time>
      </trkpt>
      <trkpt lat="42.110384" lon="2.346834">
        <ele>1166.84783747813</ele>
        <time>2019-10-07T10:35:19.000Z</time>
      </trkpt>
      <trkpt lat="42.110472" lon="2.346897">
        <ele>1161.28679025</ele>
        <time>2019-10-07T10:35:27.000Z</time>
      </trkpt>
      <trkpt lat="42.110498" lon="2.346759">
        <ele>1157.64779341094</ele>
        <time>2019-10-07T10:35:34.000Z</time>
      </trkpt>
      <trkpt lat="42.110519" lon="2.346638">
        <ele>1155.29555764688</ele>
        <time>2019-10-07T10:35:38.000Z</time>
      </trkpt>
      <trkpt lat="42.110535" lon="2.346501">
        <ele>1153.29555764688</ele>
        <time>2019-10-07T10:35:41.000Z</time>
      </trkpt>
      <trkpt lat="42.110521" lon="2.346358">
        <ele>1149.73463248906</ele>
        <time>2019-10-07T10:35:46.000Z</time>
      </trkpt>
      <trkpt lat="42.110523" lon="2.346234">
        <ele>1147.48677059688</ele>
        <time>2019-10-07T10:35:49.000Z</time>
      </trkpt>
      <trkpt lat="42.110558" lon="2.346117">
        <ele>1145.84783747813</ele>
        <time>2019-10-07T10:35:52.000Z</time>
      </trkpt>
      <trkpt lat="42.110571" lon="2.345964">
        <ele>1143.84783747813</ele>
        <time>2019-10-07T10:35:56.000Z</time>
      </trkpt>
      <trkpt lat="42.110564" lon="2.34582">
        <ele>1139.84783747813</ele>
        <time>2019-10-07T10:36:02.000Z</time>
      </trkpt>
      <trkpt lat="42.110506" lon="2.34571">
        <ele>1133.94344395313</ele>
        <time>2019-10-07T10:36:10.000Z</time>
      </trkpt>
      <trkpt lat="42.110583" lon="2.345622">
        <ele>1130.04778865</ele>
        <time>2019-10-07T10:36:16.000Z</time>
      </trkpt>
      <trkpt lat="42.110678" lon="2.345659">
        <ele>1127.69558206094</ele>
        <time>2019-10-07T10:36:19.000Z</time>
      </trkpt>
      <trkpt lat="42.110784" lon="2.345599">
        <ele>1125.54341953906</ele>
        <time>2019-10-07T10:36:22.000Z</time>
      </trkpt>
      <trkpt lat="42.11082" lon="2.345464">
        <ele>1121.39116412187</ele>
        <time>2019-10-07T10:36:29.000Z</time>
      </trkpt>
      <trkpt lat="42.110898" lon="2.345392">
        <ele>1120.04778865</ele>
        <time>2019-10-07T10:36:32.000Z</time>
      </trkpt>
      <trkpt lat="42.110949" lon="2.345283">
        <ele>1118.54341953906</ele>
        <time>2019-10-07T10:36:37.000Z</time>
      </trkpt>
      <trkpt lat="42.111002" lon="2.345162">
        <ele>1116.34337547188</ele>
        <time>2019-10-07T10:36:42.000Z</time>
      </trkpt>
      <trkpt lat="42.111076" lon="2.345075">
        <ele>1114.63902601406</ele>
        <time>2019-10-07T10:36:45.000Z</time>
      </trkpt>
      <trkpt lat="42.111156" lon="2.344992">
        <ele>1112.99123260312</ele>
        <time>2019-10-07T10:36:49.000Z</time>
      </trkpt>
      <trkpt lat="42.1112" lon="2.344886">
        <ele>1111.54341953906</ele>
        <time>2019-10-07T10:36:53.000Z</time>
      </trkpt>
      <trkpt lat="42.111282" lon="2.344807">
        <ele>1111.44781306406</ele>
        <time>2019-10-07T10:36:57.000Z</time>
      </trkpt>
      <trkpt lat="42.111366" lon="2.344735">
        <ele>1111.095606475</ele>
        <time>2019-10-07T10:37:00.000Z</time>
      </trkpt>
      <trkpt lat="42.111461" lon="2.344655">
        <ele>1109.89562612813</ele>
        <time>2019-10-07T10:37:04.000Z</time>
      </trkpt>
      <trkpt lat="42.111519" lon="2.344557">
        <ele>1108.29555764688</ele>
        <time>2019-10-07T10:37:08.000Z</time>
      </trkpt>
      <trkpt lat="42.111476" lon="2.344418">
        <ele>1100.43895277187</ele>
        <time>2019-10-07T10:37:19.000Z</time>
      </trkpt>
      <trkpt lat="42.111467" lon="2.344283">
        <ele>1096.49563088906</ele>
        <time>2019-10-07T10:37:25.000Z</time>
      </trkpt>
      <trkpt lat="42.111401" lon="2.344183">
        <ele>1093.69558206094</ele>
        <time>2019-10-07T10:37:32.000Z</time>
      </trkpt>
      <trkpt lat="42.111378" lon="2.344051">
        <ele>1091.143395125</ele>
        <time>2019-10-07T10:37:37.000Z</time>
      </trkpt>
      <trkpt lat="42.111375" lon="2.343914">
        <ele>1089.095606475</ele>
        <time>2019-10-07T10:37:42.000Z</time>
      </trkpt>
      <trkpt lat="42.111374" lon="2.343789">
        <ele>1086.69558206094</ele>
        <time>2019-10-07T10:37:46.000Z</time>
      </trkpt>
      <trkpt lat="42.111335" lon="2.343647">
        <ele>1085.79118853594</ele>
        <time>2019-10-07T10:37:50.000Z</time>
      </trkpt>
      <trkpt lat="42.111496" lon="2.34353">
        <ele>1086.0052074366</ele>
        <time>2019-10-07T10:39:37.000Z</time>
      </trkpt>
      <trkpt lat="42.111584" lon="2.343593">
        <ele>1086.59437396406</ele>
        <time>2019-10-07T10:39:42.000Z</time>
      </trkpt>
      <trkpt lat="42.111648" lon="2.343684">
        <ele>1086.40782697656</ele>
        <time>2019-10-07T10:39:47.000Z</time>
      </trkpt>
      <trkpt lat="42.11174" lon="2.343712">
        <ele>1086.19475052188</ele>
        <time>2019-10-07T10:39:51.000Z</time>
      </trkpt>
      <trkpt lat="42.111838" lon="2.343738">
        <ele>1083.80004882813</ele>
        <time>2019-10-07T10:39:55.000Z</time>
      </trkpt>
      <trkpt lat="42.111954" lon="2.343759">
        <ele>1082.19475052188</ele>
        <time>2019-10-07T10:39:59.000Z</time>
      </trkpt>
      <trkpt lat="42.112056" lon="2.343707">
        <ele>1080.9947977625</ele>
        <time>2019-10-07T10:40:01.000Z</time>
      </trkpt>
      <trkpt lat="42.112159" lon="2.343622">
        <ele>1079.59217302344</ele>
        <time>2019-10-07T10:40:03.000Z</time>
      </trkpt>
      <trkpt lat="42.112267" lon="2.343556">
        <ele>1078.989595525</ele>
        <time>2019-10-07T10:40:05.000Z</time>
      </trkpt>
      <trkpt lat="42.112371" lon="2.343506">
        <ele>1077.18693337491</ele>
        <time>2019-10-07T10:40:08.000Z</time>
      </trkpt>
      <trkpt lat="42.112464" lon="2.343441">
        <ele>1074.79484659063</ele>
        <time>2019-10-07T10:40:11.000Z</time>
      </trkpt>
      <trkpt lat="42.112573" lon="2.343392">
        <ele>1072.9921974375</ele>
        <time>2019-10-07T10:40:14.000Z</time>
      </trkpt>
      <trkpt lat="42.112661" lon="2.343369">
        <ele>1070.78444211563</ele>
        <time>2019-10-07T10:40:17.000Z</time>
      </trkpt>
      <trkpt lat="42.112753" lon="2.343336">
        <ele>1068.79484659063</ele>
        <time>2019-10-07T10:40:19.000Z</time>
      </trkpt>
      <trkpt lat="42.112846" lon="2.343297">
        <ele>1067.19214860938</ele>
        <time>2019-10-07T10:40:23.000Z</time>
      </trkpt>
      <trkpt lat="42.112934" lon="2.343262">
        <ele>1065.80004882813</ele>
        <time>2019-10-07T10:40:28.000Z</time>
      </trkpt>
      <trkpt lat="42.113032" lon="2.343209">
        <ele>1063.40002441406</ele>
        <time>2019-10-07T10:40:41.000Z</time>
      </trkpt>
      <trkpt lat="42.113132" lon="2.343215">
        <ele>1062.79744691563</ele>
        <time>2019-10-07T10:40:47.000Z</time>
      </trkpt>
      <trkpt lat="42.113227" lon="2.3432">
        <ele>1061.79724995689</ele>
        <time>2019-10-07T10:40:54.000Z</time>
      </trkpt>
      <trkpt lat="42.113316" lon="2.343176">
        <ele>1060.79744431528</ele>
        <time>2019-10-07T10:41:01.000Z</time>
      </trkpt>
      <trkpt lat="42.113405" lon="2.34314">
        <ele>1057.9921974375</ele>
        <time>2019-10-07T10:41:08.000Z</time>
      </trkpt>
      <trkpt lat="42.113473" lon="2.343051">
        <ele>1056.38961993906</ele>
        <time>2019-10-07T10:41:18.000Z</time>
      </trkpt>
      <trkpt lat="42.113432" lon="2.342919">
        <ele>1055.60277445717</ele>
        <time>2019-10-07T10:41:27.000Z</time>
      </trkpt>
      <trkpt lat="42.113477" lon="2.342812">
        <ele>1052.989595525</ele>
        <time>2019-10-07T10:41:42.000Z</time>
      </trkpt>
      <trkpt lat="42.113574" lon="2.342813">
        <ele>1049.39481697746</ele>
        <time>2019-10-07T10:41:47.000Z</time>
      </trkpt>
      <trkpt lat="42.113672" lon="2.342827">
        <ele>1047.39481697746</ele>
        <time>2019-10-07T10:41:50.000Z</time>
      </trkpt>
      <trkpt lat="42.113762" lon="2.342829">
        <ele>1045.19474532436</ele>
        <time>2019-10-07T10:41:54.000Z</time>
      </trkpt>
      <trkpt lat="42.113852" lon="2.342788">
        <ele>1044</ele>
        <time>2019-10-07T10:41:57.000Z</time>
      </trkpt>
      <trkpt lat="42.113961" lon="2.342738">
        <ele>1042.79223687867</ele>
        <time>2019-10-07T10:42:01.000Z</time>
      </trkpt>
      <trkpt lat="42.11407" lon="2.342748">
        <ele>1041.002600325</ele>
        <time>2019-10-07T10:42:06.000Z</time>
      </trkpt>
      <trkpt lat="42.114163" lon="2.342756">
        <ele>1040.80004882813</ele>
        <time>2019-10-07T10:42:10.000Z</time>
      </trkpt>
      <trkpt lat="42.114276" lon="2.342768">
        <ele>1039.20255568472</ele>
        <time>2019-10-07T10:42:14.000Z</time>
      </trkpt>
      <trkpt lat="42.114383" lon="2.342801">
        <ele>1039.00560162188</ele>
        <time>2019-10-07T10:42:17.000Z</time>
      </trkpt>
      <trkpt lat="42.114488" lon="2.342813">
        <ele>1038.79444720625</ele>
        <time>2019-10-07T10:42:21.000Z</time>
      </trkpt>
      <trkpt lat="42.114568" lon="2.342742">
        <ele>1037.38602121406</ele>
        <time>2019-10-07T10:42:25.000Z</time>
      </trkpt>
      <trkpt lat="42.114672" lon="2.342696">
        <ele>1031.19435125938</ele>
        <time>2019-10-07T10:42:41.000Z</time>
      </trkpt>
      <trkpt lat="42.114771" lon="2.342737">
        <ele>1027.59217302344</ele>
        <time>2019-10-07T10:42:47.000Z</time>
      </trkpt>
      <trkpt lat="42.114823" lon="2.342843">
        <ele>1021.60257930424</ele>
        <time>2019-10-07T10:43:03.000Z</time>
      </trkpt>
      <trkpt lat="42.114857" lon="2.342963">
        <ele>1020.40282437031</ele>
        <time>2019-10-07T10:43:50.000Z</time>
      </trkpt>
      <trkpt lat="42.114949" lon="2.342947">
        <ele>1021</ele>
        <time>2019-10-07T10:44:09.000Z</time>
      </trkpt>
      <trkpt lat="42.115047" lon="2.342898">
        <ele>1018.9947977625</ele>
        <time>2019-10-07T10:44:14.000Z</time>
      </trkpt>
      <trkpt lat="42.115139" lon="2.342924">
        <ele>1016.39722639667</ele>
        <time>2019-10-07T10:44:19.000Z</time>
      </trkpt>
      <trkpt lat="42.115243" lon="2.342905">
        <ele>1014.79998779297</ele>
        <time>2019-10-07T10:44:23.000Z</time>
      </trkpt>
      <trkpt lat="42.115357" lon="2.342867">
        <ele>1014.00280081094</ele>
        <time>2019-10-07T10:44:27.000Z</time>
      </trkpt>
      <trkpt lat="42.115453" lon="2.342826">
        <ele>1013.38882117031</ele>
        <time>2019-10-07T10:44:30.000Z</time>
      </trkpt>
      <trkpt lat="42.115562" lon="2.342772">
        <ele>1011.79158621484</ele>
        <time>2019-10-07T10:44:33.000Z</time>
      </trkpt>
      <trkpt lat="42.115652" lon="2.342725">
        <ele>1010.40002441406</ele>
        <time>2019-10-07T10:44:36.000Z</time>
      </trkpt>
      <trkpt lat="42.115755" lon="2.342663">
        <ele>1009.18960852578</ele>
        <time>2019-10-07T10:44:39.000Z</time>
      </trkpt>
      <trkpt lat="42.115841" lon="2.342623">
        <ele>1007.59157400781</ele>
        <time>2019-10-07T10:44:45.000Z</time>
      </trkpt>
      <trkpt lat="42.115932" lon="2.342618">
        <ele>1006.39722639667</ele>
        <time>2019-10-07T10:44:50.000Z</time>
      </trkpt>
      <trkpt lat="42.11603" lon="2.342618">
        <ele>1005.9921974375</ele>
        <time>2019-10-07T10:44:53.000Z</time>
      </trkpt>
      <trkpt lat="42.116144" lon="2.342635">
        <ele>1005.18960852578</ele>
        <time>2019-10-07T10:44:56.000Z</time>
      </trkpt>
      <trkpt lat="42.116255" lon="2.342624">
        <ele>1001.19741108828</ele>
        <time>2019-10-07T10:45:04.000Z</time>
      </trkpt>
      <trkpt lat="42.116346" lon="2.342574">
        <ele>1000.59477414219</ele>
        <time>2019-10-07T10:45:07.000Z</time>
      </trkpt>
      <trkpt lat="42.116438" lon="2.342518">
        <ele>999.594380404979</ele>
        <time>2019-10-07T10:45:10.000Z</time>
      </trkpt>
      <trkpt lat="42.116552" lon="2.3425">
        <ele>998.200012207031</ele>
        <time>2019-10-07T10:45:15.000Z</time>
      </trkpt>
      <trkpt lat="42.116665" lon="2.342482">
        <ele>997.194809969531</ele>
        <time>2019-10-07T10:45:18.000Z</time>
      </trkpt>
      <trkpt lat="42.116768" lon="2.34249">
        <ele>995.792185230469</ele>
        <time>2019-10-07T10:45:21.000Z</time>
      </trkpt>
      <trkpt lat="42.116878" lon="2.342504">
        <ele>994.392221057813</ele>
        <time>2019-10-07T10:45:24.000Z</time>
      </trkpt>
      <trkpt lat="42.116978" lon="2.342512">
        <ele>991.397423295312</ele>
        <time>2019-10-07T10:45:28.000Z</time>
      </trkpt>
      <trkpt lat="42.11692" lon="2.342401">
        <ele>988.589571904688</ele>
        <time>2019-10-07T10:45:34.000Z</time>
      </trkpt>
      <trkpt lat="42.116918" lon="2.342269">
        <ele>979.594774142187</ele>
        <time>2019-10-07T10:45:45.000Z</time>
      </trkpt>
      <trkpt lat="42.117008" lon="2.342161">
        <ele>977.187007407031</ele>
        <time>2019-10-07T10:45:49.000Z</time>
      </trkpt>
      <trkpt lat="42.117101" lon="2.342098">
        <ele>974.392221057813</ele>
        <time>2019-10-07T10:45:52.000Z</time>
      </trkpt>
      <trkpt lat="42.11719" lon="2.342036">
        <ele>972.188809817969</ele>
        <time>2019-10-07T10:45:56.000Z</time>
      </trkpt>
      <trkpt lat="42.117241" lon="2.341925">
        <ele>969.197214189634</ele>
        <time>2019-10-07T10:46:01.000Z</time>
      </trkpt>
      <trkpt lat="42.117292" lon="2.341796">
        <ele>967.597375260938</ele>
        <time>2019-10-07T10:46:05.000Z</time>
      </trkpt>
      <trkpt lat="42.117361" lon="2.341672">
        <ele>965.400024414063</ele>
        <time>2019-10-07T10:46:09.000Z</time>
      </trkpt>
      <trkpt lat="42.117458" lon="2.341601">
        <ele>964.805190030469</ele>
        <time>2019-10-07T10:46:11.000Z</time>
      </trkpt>
      <trkpt lat="42.11759" lon="2.341537">
        <ele>964.794781150907</ele>
        <time>2019-10-07T10:46:14.000Z</time>
      </trkpt>
      <trkpt lat="42.117671" lon="2.341485">
        <ele>963.799987792969</ele>
        <time>2019-10-07T10:46:19.000Z</time>
      </trkpt>
      <trkpt lat="42.11775" lon="2.341399">
        <ele>961.792185230469</ele>
        <time>2019-10-07T10:46:24.000Z</time>
      </trkpt>
      <trkpt lat="42.117825" lon="2.341302">
        <ele>959.586970785938</ele>
        <time>2019-10-07T10:46:28.000Z</time>
      </trkpt>
      <trkpt lat="42.117889" lon="2.341162">
        <ele>956.9869952</ele>
        <time>2019-10-07T10:46:32.000Z</time>
      </trkpt>
      <trkpt lat="42.11798" lon="2.341092">
        <ele>955.581769342188</ele>
        <time>2019-10-07T10:46:35.000Z</time>
      </trkpt>
      <trkpt lat="42.118089" lon="2.341045">
        <ele>953.194809969531</ele>
        <time>2019-10-07T10:46:39.000Z</time>
      </trkpt>
      <trkpt lat="42.118185" lon="2.341011">
        <ele>952.605177823438</ele>
        <time>2019-10-07T10:46:42.000Z</time>
      </trkpt>
      <trkpt lat="42.118278" lon="2.34095">
        <ele>952.597375260938</ele>
        <time>2019-10-07T10:46:48.000Z</time>
      </trkpt>
      <trkpt lat="42.118306" lon="2.340936">
        <ele>952.194809969531</ele>
        <time>2019-10-07T10:46:50.000Z</time>
      </trkpt>
      <trkpt lat="42.118334" lon="2.340902">
        <ele>951.397423295312</ele>
        <time>2019-10-07T10:46:52.000Z</time>
      </trkpt>
      <trkpt lat="42.11838" lon="2.340774">
        <ele>950.400024414063</ele>
        <time>2019-10-07T10:46:56.000Z</time>
      </trkpt>
      <trkpt lat="42.118417" lon="2.340659">
        <ele>949.799987792969</ele>
        <time>2019-10-07T10:46:59.000Z</time>
      </trkpt>
      <trkpt lat="42.118435" lon="2.340526">
        <ele>948.592173023437</ele>
        <time>2019-10-07T10:47:02.000Z</time>
      </trkpt>
      <trkpt lat="42.118445" lon="2.340366">
        <ele>946.589571904688</ele>
        <time>2019-10-07T10:47:06.000Z</time>
      </trkpt>
      <trkpt lat="42.11844" lon="2.340326">
        <ele>945.799987792969</ele>
        <time>2019-10-07T10:47:07.000Z</time>
      </trkpt>
      <trkpt lat="42.118444" lon="2.340281">
        <ele>945.789584111719</ele>
        <time>2019-10-07T10:47:08.000Z</time>
      </trkpt>
      <trkpt lat="42.118454" lon="2.340232">
        <ele>944.99739888125</ele>
        <time>2019-10-07T10:47:09.000Z</time>
      </trkpt>
      <trkpt lat="42.118478" lon="2.340098">
        <ele>943.588773196875</ele>
        <time>2019-10-07T10:47:12.000Z</time>
      </trkpt>
      <trkpt lat="42.118497" lon="2.339954">
        <ele>940.988797610937</ele>
        <time>2019-10-07T10:47:16.000Z</time>
      </trkpt>
      <trkpt lat="42.118548" lon="2.339801">
        <ele>938.792177432605</ele>
        <time>2019-10-07T10:47:20.000Z</time>
      </trkpt>
      <trkpt lat="42.118542" lon="2.339648">
        <ele>936.591574007812</ele>
        <time>2019-10-07T10:47:24.000Z</time>
      </trkpt>
      <trkpt lat="42.118448" lon="2.339599">
        <ele>934.799987792969</ele>
        <time>2019-10-07T10:47:27.000Z</time>
      </trkpt>
      <trkpt lat="42.118345" lon="2.339566">
        <ele>933.994398378125</ele>
        <time>2019-10-07T10:47:30.000Z</time>
      </trkpt>
      <trkpt lat="42.118254" lon="2.339509">
        <ele>933.200012207031</ele>
        <time>2019-10-07T10:47:33.000Z</time>
      </trkpt>
      <trkpt lat="42.118165" lon="2.33939">
        <ele>932.605177823438</ele>
        <time>2019-10-07T10:47:37.000Z</time>
      </trkpt>
      <trkpt lat="42.118116" lon="2.339239">
        <ele>933.194809969531</ele>
        <time>2019-10-07T10:47:40.000Z</time>
      </trkpt>
      <trkpt lat="42.118095" lon="2.339117">
        <ele>933.197411088281</ele>
        <time>2019-10-07T10:47:42.000Z</time>
      </trkpt>
      <trkpt lat="42.118065" lon="2.338998">
        <ele>933.194809969531</ele>
        <time>2019-10-07T10:47:44.000Z</time>
      </trkpt>
      <trkpt lat="42.118023" lon="2.33884">
        <ele>932.00260111875</ele>
        <time>2019-10-07T10:47:47.000Z</time>
      </trkpt>
      <trkpt lat="42.117997" lon="2.338671">
        <ele>930.802785810366</ele>
        <time>2019-10-07T10:47:50.000Z</time>
      </trkpt>
      <trkpt lat="42.117972" lon="2.338548">
        <ele>931.007810360364</ele>
        <time>2019-10-07T10:47:52.000Z</time>
      </trkpt>
      <trkpt lat="42.117945" lon="2.338379">
        <ele>931.594774142187</ele>
        <time>2019-10-07T10:47:55.000Z</time>
      </trkpt>
      <trkpt lat="42.117915" lon="2.338215">
        <ele>930.99739888125</ele>
        <time>2019-10-07T10:47:58.000Z</time>
      </trkpt>
      <trkpt lat="42.117898" lon="2.338064">
        <ele>930.797386674219</ele>
        <time>2019-10-07T10:48:01.000Z</time>
      </trkpt>
      <trkpt lat="42.117869" lon="2.337917">
        <ele>930.592173023437</ele>
        <time>2019-10-07T10:48:04.000Z</time>
      </trkpt>
      <trkpt lat="42.117848" lon="2.337746">
        <ele>929.392221057813</ele>
        <time>2019-10-07T10:48:07.000Z</time>
      </trkpt>
      <trkpt lat="42.117826" lon="2.337575">
        <ele>928.805190030469</ele>
        <time>2019-10-07T10:48:10.000Z</time>
      </trkpt>
      <trkpt lat="42.117803" lon="2.337415">
        <ele>928.797386674219</ele>
        <time>2019-10-07T10:48:13.000Z</time>
      </trkpt>
      <trkpt lat="42.117782" lon="2.337253">
        <ele>928.200012207031</ele>
        <time>2019-10-07T10:48:16.000Z</time>
      </trkpt>
      <trkpt lat="42.117754" lon="2.337129">
        <ele>928.594774142187</ele>
        <time>2019-10-07T10:48:18.000Z</time>
      </trkpt>
      <trkpt lat="42.117741" lon="2.336986">
        <ele>928.392213259155</ele>
        <time>2019-10-07T10:48:20.000Z</time>
      </trkpt>
      <trkpt lat="42.117737" lon="2.336859">
        <ele>927.797384074666</ele>
        <time>2019-10-07T10:48:22.000Z</time>
      </trkpt>
      <trkpt lat="42.117733" lon="2.336731">
        <ele>927.200012207031</ele>
        <time>2019-10-07T10:48:25.000Z</time>
      </trkpt>
      <trkpt lat="42.11769" lon="2.336593">
        <ele>927.005601621875</ele>
        <time>2019-10-07T10:48:30.000Z</time>
      </trkpt>
      <trkpt lat="42.117668" lon="2.336459">
        <ele>927.402627337822</ele>
        <time>2019-10-07T10:48:34.000Z</time>
      </trkpt>
      <trkpt lat="42.117609" lon="2.336331">
        <ele>928.611167655525</ele>
        <time>2019-10-07T10:48:39.000Z</time>
      </trkpt>
      <trkpt lat="42.117599" lon="2.336172">
        <ele>930</ele>
        <time>2019-10-07T10:48:42.000Z</time>
      </trkpt>
      <trkpt lat="42.117638" lon="2.33603">
        <ele>930.197211396094</ele>
        <time>2019-10-07T10:48:44.000Z</time>
      </trkpt>
      <trkpt lat="42.117687" lon="2.335902">
        <ele>929.386021214062</ele>
        <time>2019-10-07T10:48:46.000Z</time>
      </trkpt>
      <trkpt lat="42.117733" lon="2.335788">
        <ele>927.991606801644</ele>
        <time>2019-10-07T10:48:48.000Z</time>
      </trkpt>
      <trkpt lat="42.11776" lon="2.335665">
        <ele>926.9921974375</ele>
        <time>2019-10-07T10:48:50.000Z</time>
      </trkpt>
      <trkpt lat="42.117777" lon="2.335506">
        <ele>925.194809969531</ele>
        <time>2019-10-07T10:48:53.000Z</time>
      </trkpt>
      <trkpt lat="42.11775" lon="2.335381">
        <ele>923.599975585938</ele>
        <time>2019-10-07T10:48:57.000Z</time>
      </trkpt>
      <trkpt lat="42.117721" lon="2.33521">
        <ele>922.200012207031</ele>
        <time>2019-10-07T10:49:01.000Z</time>
      </trkpt>
      <trkpt lat="42.117695" lon="2.335059">
        <ele>920.984378484729</ele>
        <time>2019-10-07T10:49:04.000Z</time>
      </trkpt>
      <trkpt lat="42.11765" lon="2.334918">
        <ele>918.397423295312</ele>
        <time>2019-10-07T10:49:07.000Z</time>
      </trkpt>
      <trkpt lat="42.1176" lon="2.334772">
        <ele>917.389619939063</ele>
        <time>2019-10-07T10:49:10.000Z</time>
      </trkpt>
      <trkpt lat="42.117562" lon="2.334643">
        <ele>915.194809969531</ele>
        <time>2019-10-07T10:49:13.000Z</time>
      </trkpt>
      <trkpt lat="42.117497" lon="2.33454">
        <ele>913.599975585938</ele>
        <time>2019-10-07T10:49:16.000Z</time>
      </trkpt>
      <trkpt lat="42.117408" lon="2.334451">
        <ele>912.802785810366</ele>
        <time>2019-10-07T10:49:19.000Z</time>
      </trkpt>
      <trkpt lat="42.11733" lon="2.334386">
        <ele>911.197214189634</ele>
        <time>2019-10-07T10:49:22.000Z</time>
      </trkpt>
      <trkpt lat="42.117265" lon="2.334279">
        <ele>910.597375260938</ele>
        <time>2019-10-07T10:49:25.000Z</time>
      </trkpt>
      <trkpt lat="42.117198" lon="2.334144">
        <ele>910.607778942187</ele>
        <time>2019-10-07T10:49:28.000Z</time>
      </trkpt>
      <trkpt lat="42.117176" lon="2.334">
        <ele>910.802588911719</ele>
        <time>2019-10-07T10:49:30.000Z</time>
      </trkpt>
      <trkpt lat="42.117141" lon="2.333861">
        <ele>910.400024414063</ele>
        <time>2019-10-07T10:49:32.000Z</time>
      </trkpt>
      <trkpt lat="42.117128" lon="2.333703">
        <ele>910.191609774219</ele>
        <time>2019-10-07T10:49:35.000Z</time>
      </trkpt>
      <trkpt lat="42.117151" lon="2.333568">
        <ele>909.400024414063</ele>
        <time>2019-10-07T10:49:38.000Z</time>
      </trkpt>
      <trkpt lat="42.117182" lon="2.333431">
        <ele>908.797386674219</ele>
        <time>2019-10-07T10:49:41.000Z</time>
      </trkpt>
      <trkpt lat="42.117189" lon="2.33331">
        <ele>908.599975585938</ele>
        <time>2019-10-07T10:49:44.000Z</time>
      </trkpt>
      <trkpt lat="42.117113" lon="2.333227">
        <ele>910.194809969531</ele>
        <time>2019-10-07T10:49:48.000Z</time>
      </trkpt>
      <trkpt lat="42.117005" lon="2.333176">
        <ele>910.592173023437</ele>
        <time>2019-10-07T10:49:52.000Z</time>
      </trkpt>
      <trkpt lat="42.116934" lon="2.333084">
        <ele>909.805190030469</ele>
        <time>2019-10-07T10:49:55.000Z</time>
      </trkpt>
      <trkpt lat="42.116912" lon="2.332906">
        <ele>909.205213650781</ele>
        <time>2019-10-07T10:49:58.000Z</time>
      </trkpt>
      <trkpt lat="42.116884" lon="2.332784">
        <ele>909.802588911719</ele>
        <time>2019-10-07T10:50:00.000Z</time>
      </trkpt>
      <trkpt lat="42.116856" lon="2.332659">
        <ele>910.01040368125</ele>
        <time>2019-10-07T10:50:02.000Z</time>
      </trkpt>
      <trkpt lat="42.116856" lon="2.332527">
        <ele>910.405619595021</ele>
        <time>2019-10-07T10:50:04.000Z</time>
      </trkpt>
      <trkpt lat="42.116861" lon="2.332406">
        <ele>910.400024414063</ele>
        <time>2019-10-07T10:50:06.000Z</time>
      </trkpt>
      <trkpt lat="42.116871" lon="2.332282">
        <ele>909.799987792969</ele>
        <time>2019-10-07T10:50:08.000Z</time>
      </trkpt>
      <trkpt lat="42.116905" lon="2.332115">
        <ele>909.186009007031</ele>
        <time>2019-10-07T10:50:11.000Z</time>
      </trkpt>
      <trkpt lat="42.11698" lon="2.332017">
        <ele>908.388821170313</ele>
        <time>2019-10-07T10:50:13.000Z</time>
      </trkpt>
      <trkpt lat="42.117058" lon="2.331942">
        <ele>907.788796577216</ele>
        <time>2019-10-07T10:50:15.000Z</time>
      </trkpt>
      <trkpt lat="42.117134" lon="2.331873">
        <ele>906.98601076685</ele>
        <time>2019-10-07T10:50:17.000Z</time>
      </trkpt>
      <trkpt lat="42.117198" lon="2.331774">
        <ele>905.194809969531</ele>
        <time>2019-10-07T10:50:20.000Z</time>
      </trkpt>
      <trkpt lat="42.117245" lon="2.331626">
        <ele>905.188820991279</ele>
        <time>2019-10-07T10:50:24.000Z</time>
      </trkpt>
      <trkpt lat="42.117287" lon="2.331512">
        <ele>903.794387025781</ele>
        <time>2019-10-07T10:50:26.000Z</time>
      </trkpt>
      <trkpt lat="42.117338" lon="2.331383">
        <ele>902.794781150907</ele>
        <time>2019-10-07T10:50:29.000Z</time>
      </trkpt>
      <trkpt lat="42.117356" lon="2.33121">
        <ele>901.994403965206</ele>
        <time>2019-10-07T10:50:32.000Z</time>
      </trkpt>
      <trkpt lat="42.117368" lon="2.331084">
        <ele>901.591574007812</ele>
        <time>2019-10-07T10:50:34.000Z</time>
      </trkpt>
      <trkpt lat="42.117406" lon="2.330941">
        <ele>899.799987792969</ele>
        <time>2019-10-07T10:50:37.000Z</time>
      </trkpt>
      <trkpt lat="42.117406" lon="2.330806">
        <ele>898.400024414063</ele>
        <time>2019-10-07T10:50:41.000Z</time>
      </trkpt>
      <trkpt lat="42.117365" lon="2.330684">
        <ele>897.60257930424</ele>
        <time>2019-10-07T10:50:46.000Z</time>
      </trkpt>
      <trkpt lat="42.117319" lon="2.33057">
        <ele>898.008401578125</ele>
        <time>2019-10-07T10:50:50.000Z</time>
      </trkpt>
      <trkpt lat="42.117263" lon="2.330466">
        <ele>898.9947977625</ele>
        <time>2019-10-07T10:50:53.000Z</time>
      </trkpt>
      <trkpt lat="42.117203" lon="2.330371">
        <ele>898.602576704688</ele>
        <time>2019-10-07T10:50:56.000Z</time>
      </trkpt>
      <trkpt lat="42.117149" lon="2.330235">
        <ele>898.400024414063</ele>
        <time>2019-10-07T10:50:59.000Z</time>
      </trkpt>
      <trkpt lat="42.11712" lon="2.330077">
        <ele>898.797386674219</ele>
        <time>2019-10-07T10:51:02.000Z</time>
      </trkpt>
      <trkpt lat="42.117102" lon="2.329892">
        <ele>898.602576704688</ele>
        <time>2019-10-07T10:51:05.000Z</time>
      </trkpt>
      <trkpt lat="42.117099" lon="2.32976">
        <ele>898.605177823438</ele>
        <time>2019-10-07T10:51:07.000Z</time>
      </trkpt>
      <trkpt lat="42.117095" lon="2.329617">
        <ele>898.805190030469</ele>
        <time>2019-10-07T10:51:09.000Z</time>
      </trkpt>
      <trkpt lat="42.117101" lon="2.329482">
        <ele>899.0052022375</ele>
        <time>2019-10-07T10:51:11.000Z</time>
      </trkpt>
      <trkpt lat="42.117149" lon="2.329338">
        <ele>899.189608525781</ele>
        <time>2019-10-07T10:51:14.000Z</time>
      </trkpt>
      <trkpt lat="42.117193" lon="2.329172">
        <ele>898.40562518125</ele>
        <time>2019-10-07T10:51:17.000Z</time>
      </trkpt>
      <trkpt lat="42.11722" lon="2.329054">
        <ele>898.202613325781</ele>
        <time>2019-10-07T10:51:19.000Z</time>
      </trkpt>
      <trkpt lat="42.117271" lon="2.328946">
        <ele>898.00260111875</ele>
        <time>2019-10-07T10:51:21.000Z</time>
      </trkpt>
      <trkpt lat="42.117317" lon="2.328838">
        <ele>897.592173023437</ele>
        <time>2019-10-07T10:51:24.000Z</time>
      </trkpt>
      <trkpt lat="42.117303" lon="2.328713">
        <ele>895</ele>
        <time>2019-10-07T10:51:29.000Z</time>
      </trkpt>
      <trkpt lat="42.117287" lon="2.328534">
        <ele>895.594774142187</ele>
        <time>2019-10-07T10:51:33.000Z</time>
      </trkpt>
      <trkpt lat="42.117281" lon="2.328357">
        <ele>895.00260111875</ele>
        <time>2019-10-07T10:51:36.000Z</time>
      </trkpt>
      <trkpt lat="42.117287" lon="2.328209">
        <ele>894.592173023437</ele>
        <time>2019-10-07T10:51:39.000Z</time>
      </trkpt>
      <trkpt lat="42.117264" lon="2.32809">
        <ele>893.194416172237</ele>
        <time>2019-10-07T10:51:42.000Z</time>
      </trkpt>
      <trkpt lat="42.117218" lon="2.327981">
        <ele>891.589571904688</ele>
        <time>2019-10-07T10:51:45.000Z</time>
      </trkpt>
      <trkpt lat="42.117181" lon="2.327836">
        <ele>890.202613325781</ele>
        <time>2019-10-07T10:51:48.000Z</time>
      </trkpt>
      <trkpt lat="42.117172" lon="2.327659">
        <ele>889.594774142187</ele>
        <time>2019-10-07T10:51:51.000Z</time>
      </trkpt>
      <trkpt lat="42.117168" lon="2.32753">
        <ele>889.194809969531</ele>
        <time>2019-10-07T10:51:53.000Z</time>
      </trkpt>
      <trkpt lat="42.117157" lon="2.327386">
        <ele>888.605177823438</ele>
        <time>2019-10-07T10:51:56.000Z</time>
      </trkpt>
      <trkpt lat="42.117155" lon="2.327229">
        <ele>888.597375260938</ele>
        <time>2019-10-07T10:51:59.000Z</time>
      </trkpt>
      <trkpt lat="42.117199" lon="2.327106">
        <ele>888.197411088281</ele>
        <time>2019-10-07T10:52:02.000Z</time>
      </trkpt>
      <trkpt lat="42.117259" lon="2.326982">
        <ele>888.797386674219</ele>
        <time>2019-10-07T10:52:05.000Z</time>
      </trkpt>
      <trkpt lat="42.117334" lon="2.32686">
        <ele>888.805190030469</ele>
        <time>2019-10-07T10:52:08.000Z</time>
      </trkpt>
      <trkpt lat="42.1174" lon="2.326722">
        <ele>889.194809969531</ele>
        <time>2019-10-07T10:52:11.000Z</time>
      </trkpt>
      <trkpt lat="42.117443" lon="2.326599">
        <ele>888.807791149219</ele>
        <time>2019-10-07T10:52:14.000Z</time>
      </trkpt>
      <trkpt lat="42.117516" lon="2.326467">
        <ele>888.605177823438</ele>
        <time>2019-10-07T10:52:18.000Z</time>
      </trkpt>
      <trkpt lat="42.117588" lon="2.326387">
        <ele>888.792185230469</ele>
        <time>2019-10-07T10:52:21.000Z</time>
      </trkpt>
      <trkpt lat="42.117668" lon="2.326278">
        <ele>888.792185230469</ele>
        <time>2019-10-07T10:52:25.000Z</time>
      </trkpt>
      <trkpt lat="42.117706" lon="2.326145">
        <ele>888.0052022375</ele>
        <time>2019-10-07T10:52:30.000Z</time>
      </trkpt>
      <trkpt lat="42.117696" lon="2.32602">
        <ele>888.605577207813</ele>
        <time>2019-10-07T10:52:34.000Z</time>
      </trkpt>
      <trkpt lat="42.11766" lon="2.325901">
        <ele>889.200012207031</ele>
        <time>2019-10-07T10:52:37.000Z</time>
      </trkpt>
      <trkpt lat="42.117581" lon="2.32579">
        <ele>889.605571620731</ele>
        <time>2019-10-07T10:52:41.000Z</time>
      </trkpt>
      <trkpt lat="42.1175" lon="2.325734">
        <ele>889.997201982603</ele>
        <time>2019-10-07T10:52:44.000Z</time>
      </trkpt>
      <trkpt lat="42.117407" lon="2.325642">
        <ele>889.997199189062</ele>
        <time>2019-10-07T10:52:47.000Z</time>
      </trkpt>
      <trkpt lat="42.117382" lon="2.325609">
        <ele>889.797186982031</ele>
        <time>2019-10-07T10:52:48.000Z</time>
      </trkpt>
      <trkpt lat="42.117332" lon="2.325466">
        <ele>890.205218849093</ele>
        <time>2019-10-07T10:52:51.000Z</time>
      </trkpt>
      <trkpt lat="42.117312" lon="2.325326">
        <ele>890.200012207031</ele>
        <time>2019-10-07T10:52:53.000Z</time>
      </trkpt>
      <trkpt lat="42.117308" lon="2.325263">
        <ele>890.197408488729</ele>
        <time>2019-10-07T10:52:54.000Z</time>
      </trkpt>
      <trkpt lat="42.1173" lon="2.325203">
        <ele>890</ele>
        <time>2019-10-07T10:52:55.000Z</time>
      </trkpt>
      <trkpt lat="42.117285" lon="2.325078">
        <ele>889.397223603125</ele>
        <time>2019-10-07T10:52:57.000Z</time>
      </trkpt>
      <trkpt lat="42.117276" lon="2.325018">
        <ele>889.191609774219</ele>
        <time>2019-10-07T10:52:58.000Z</time>
      </trkpt>
      <trkpt lat="42.11728" lon="2.324885">
        <ele>888.197211396094</ele>
        <time>2019-10-07T10:53:00.000Z</time>
      </trkpt>
      <trkpt lat="42.11729" lon="2.324744">
        <ele>887.997201982603</ele>
        <time>2019-10-07T10:53:02.000Z</time>
      </trkpt>
      <trkpt lat="42.117295" lon="2.32469">
        <ele>887.794786349219</ele>
        <time>2019-10-07T10:53:03.000Z</time>
      </trkpt>
      <trkpt lat="42.117323" lon="2.324557">
        <ele>886.99739888125</ele>
        <time>2019-10-07T10:53:06.000Z</time>
      </trkpt>
      <trkpt lat="42.117336" lon="2.324434">
        <ele>886.799987792969</ele>
        <time>2019-10-07T10:53:09.000Z</time>
      </trkpt>
      <trkpt lat="42.117343" lon="2.324391">
        <ele>886.794387025781</ele>
        <time>2019-10-07T10:53:10.000Z</time>
      </trkpt>
      <trkpt lat="42.117344" lon="2.324345">
        <ele>886.400024414063</ele>
        <time>2019-10-07T10:53:11.000Z</time>
      </trkpt>
      <trkpt lat="42.117346" lon="2.324303">
        <ele>886.394822176562</ele>
        <time>2019-10-07T10:53:12.000Z</time>
      </trkpt>
      <trkpt lat="42.117331" lon="2.324214">
        <ele>885.797386674219</ele>
        <time>2019-10-07T10:53:14.000Z</time>
      </trkpt>
      <trkpt lat="42.117313" lon="2.324182">
        <ele>885.597375260938</ele>
        <time>2019-10-07T10:53:15.000Z</time>
      </trkpt>
      <trkpt lat="42.117246" lon="2.324086">
        <ele>884.605177823438</ele>
        <time>2019-10-07T10:53:19.000Z</time>
      </trkpt>
      <trkpt lat="42.117232" lon="2.324059">
        <ele>884.992189639636</ele>
        <time>2019-10-07T10:53:20.000Z</time>
      </trkpt>
      <trkpt lat="42.117191" lon="2.323975">
        <ele>884.400024414063</ele>
        <time>2019-10-07T10:53:23.000Z</time>
      </trkpt>
      <trkpt lat="42.117133" lon="2.323858">
        <ele>885.402824370312</ele>
        <time>2019-10-07T10:53:27.000Z</time>
      </trkpt>
      <trkpt lat="42.117059" lon="2.323784">
        <ele>887.407826976563</ele>
        <time>2019-10-07T10:53:32.000Z</time>
      </trkpt>
      <trkpt lat="42.117001" lon="2.323654">
        <ele>888.210415888281</ele>
        <time>2019-10-07T10:53:36.000Z</time>
      </trkpt>
      <trkpt lat="42.116996" lon="2.323493">
        <ele>889.394822176562</ele>
        <time>2019-10-07T10:53:39.000Z</time>
      </trkpt>
      <trkpt lat="42.11699" lon="2.323393">
        <ele>889.597375260938</ele>
        <time>2019-10-07T10:53:41.000Z</time>
      </trkpt>
      <trkpt lat="42.116995" lon="2.323255">
        <ele>889.60837801875</ele>
        <time>2019-10-07T10:53:44.000Z</time>
      </trkpt>
      <trkpt lat="42.117001" lon="2.323131">
        <ele>889.599975585938</ele>
        <time>2019-10-07T10:53:47.000Z</time>
      </trkpt>
      <trkpt lat="42.117026" lon="2.322976">
        <ele>889.40562518125</ele>
        <time>2019-10-07T10:53:50.000Z</time>
      </trkpt>
      <trkpt lat="42.117053" lon="2.32284">
        <ele>889.994792563395</ele>
        <time>2019-10-07T10:53:53.000Z</time>
      </trkpt>
      <trkpt lat="42.117119" lon="2.322697">
        <ele>889.605177823438</ele>
        <time>2019-10-07T10:53:56.000Z</time>
      </trkpt>
      <trkpt lat="42.117204" lon="2.322623">
        <ele>890.194809969531</ele>
        <time>2019-10-07T10:53:59.000Z</time>
      </trkpt>
      <trkpt lat="42.117232" lon="2.32262">
        <ele>889.807791149219</ele>
        <time>2019-10-07T10:54:00.000Z</time>
      </trkpt>
      <trkpt lat="42.117308" lon="2.322597">
        <ele>890.200012207031</ele>
        <time>2019-10-07T10:54:03.000Z</time>
      </trkpt>
      <trkpt lat="42.117382" lon="2.322576">
        <ele>890.802588911719</ele>
        <time>2019-10-07T10:54:05.000Z</time>
      </trkpt>
      <trkpt lat="42.117454" lon="2.322551">
        <ele>891.197411088281</ele>
        <time>2019-10-07T10:54:07.000Z</time>
      </trkpt>
      <trkpt lat="42.117517" lon="2.322515">
        <ele>891.200012207031</ele>
        <time>2019-10-07T10:54:09.000Z</time>
      </trkpt>
      <trkpt lat="42.117535" lon="2.322499">
        <ele>891.205213650781</ele>
        <time>2019-10-07T10:54:10.000Z</time>
      </trkpt>
      <trkpt lat="42.117511" lon="2.322514">
        <ele>891.802588911719</ele>
        <time>2019-10-07T10:54:15.000Z</time>
      </trkpt>
      <trkpt lat="42.117485" lon="2.322538">
        <ele>892.200012207031</ele>
        <time>2019-10-07T10:54:17.000Z</time>
      </trkpt>
      <trkpt lat="42.117468" lon="2.322556">
        <ele>892.200012207031</ele>
        <time>2019-10-07T10:54:18.000Z</time>
      </trkpt>
      <trkpt lat="42.117375" lon="2.322601">
        <ele>891.799987792969</ele>
        <time>2019-10-07T10:54:22.000Z</time>
      </trkpt>
      <trkpt lat="42.117324" lon="2.322622">
        <ele>891.597372662178</ele>
        <time>2019-10-07T10:54:24.000Z</time>
      </trkpt>
      <trkpt lat="42.117307" lon="2.322633">
        <ele>891.397226396666</ele>
        <time>2019-10-07T10:54:25.000Z</time>
      </trkpt>
      <trkpt lat="42.117292" lon="2.322653">
        <ele>891.002798017397</ele>
        <time>2019-10-07T10:54:27.000Z</time>
      </trkpt>
      <trkpt lat="42.117273" lon="2.322651">
        <ele>890.99739888125</ele>
        <time>2019-10-07T10:54:29.000Z</time>
      </trkpt>
      <trkpt lat="42.117255" lon="2.322626">
        <ele>890.599975585938</ele>
        <time>2019-10-07T10:54:31.000Z</time>
      </trkpt>
      <trkpt lat="42.117259" lon="2.322596">
        <ele>890.602576704688</ele>
        <time>2019-10-07T10:54:33.000Z</time>
      </trkpt>
      <trkpt lat="42.117239" lon="2.322603">
        <ele>890.397223603125</ele>
        <time>2019-10-07T10:54:38.000Z</time>
      </trkpt>
      <trkpt lat="42.117216" lon="2.322615">
        <ele>890.200012207031</ele>
        <time>2019-10-07T10:54:40.000Z</time>
      </trkpt>
      <trkpt lat="42.117194" lon="2.322622">
        <ele>890.197411088281</ele>
        <time>2019-10-07T10:54:42.000Z</time>
      </trkpt>
      <trkpt lat="42.117171" lon="2.32261">
        <ele>890.200012207031</ele>
        <time>2019-10-07T10:54:46.000Z</time>
      </trkpt>
      <trkpt lat="42.117146" lon="2.322595">
        <ele>890.197411088281</ele>
        <time>2019-10-07T10:54:48.000Z</time>
      </trkpt>
      <trkpt lat="42.117128" lon="2.322578">
        <ele>889.794786349219</ele>
        <time>2019-10-07T10:54:50.000Z</time>
      </trkpt>
      <trkpt lat="42.11711" lon="2.322561">
        <ele>888.9921974375</ele>
        <time>2019-10-07T10:54:52.000Z</time>
      </trkpt>
      <trkpt lat="42.117013" lon="2.322568">
        <ele>886.197411088281</ele>
        <time>2019-10-07T10:55:00.000Z</time>
      </trkpt>
      <trkpt lat="42.116927" lon="2.322502">
        <ele>883.9947977625</ele>
        <time>2019-10-07T10:55:06.000Z</time>
      </trkpt>
      <trkpt lat="42.116871" lon="2.3224">
        <ele>881.794781150907</ele>
        <time>2019-10-07T10:55:13.000Z</time>
      </trkpt>
      <trkpt lat="42.116835" lon="2.32227">
        <ele>880.391630361872</ele>
        <time>2019-10-07T10:55:18.000Z</time>
      </trkpt>
      <trkpt lat="42.116767" lon="2.322137">
        <ele>879.597375260938</ele>
        <time>2019-10-07T10:55:22.000Z</time>
      </trkpt>
      <trkpt lat="42.116753" lon="2.321994">
        <ele>880.0078025625</ele>
        <time>2019-10-07T10:55:25.000Z</time>
      </trkpt>
      <trkpt lat="42.116743" lon="2.321844">
        <ele>881.400024414063</ele>
        <time>2019-10-07T10:55:28.000Z</time>
      </trkpt>
      <trkpt lat="42.116741" lon="2.321717">
        <ele>880.807791149219</ele>
        <time>2019-10-07T10:55:31.000Z</time>
      </trkpt>
      <trkpt lat="42.116738" lon="2.321571">
        <ele>880.789584111719</ele>
        <time>2019-10-07T10:55:34.000Z</time>
      </trkpt>
      <trkpt lat="42.11677" lon="2.321415">
        <ele>879.392221057813</ele>
        <time>2019-10-07T10:55:37.000Z</time>
      </trkpt>
      <trkpt lat="42.11684" lon="2.32131">
        <ele>877.192208850781</ele>
        <time>2019-10-07T10:55:41.000Z</time>
      </trkpt>
      <trkpt lat="42.116895" lon="2.321222">
        <ele>876.197211396094</ele>
        <time>2019-10-07T10:55:45.000Z</time>
      </trkpt>
      <trkpt lat="42.116946" lon="2.321107">
        <ele>874.9947977625</ele>
        <time>2019-10-07T10:55:49.000Z</time>
      </trkpt>
      <trkpt lat="42.116986" lon="2.320998">
        <ele>874</ele>
        <time>2019-10-07T10:55:52.000Z</time>
      </trkpt>
      <trkpt lat="42.116988" lon="2.320966">
        <ele>873.9869952</ele>
        <time>2019-10-07T10:55:53.000Z</time>
      </trkpt>
      <trkpt lat="42.116975" lon="2.320933">
        <ele>872.792185230469</ele>
        <time>2019-10-07T10:55:55.000Z</time>
      </trkpt>
      <trkpt lat="42.116905" lon="2.320859">
        <ele>871.592173023437</ele>
        <time>2019-10-07T10:55:58.000Z</time>
      </trkpt>
      <trkpt lat="42.116888" lon="2.320834">
        <ele>870.98959631875</ele>
        <time>2019-10-07T10:55:59.000Z</time>
      </trkpt>
      <trkpt lat="42.116877" lon="2.320799">
        <ele>870.197411088281</ele>
        <time>2019-10-07T10:56:00.000Z</time>
      </trkpt>
      <trkpt lat="42.116828" lon="2.320658">
        <ele>869</ele>
        <time>2019-10-07T10:56:04.000Z</time>
      </trkpt>
      <trkpt lat="42.116769" lon="2.32055">
        <ele>869</ele>
        <time>2019-10-07T10:56:08.000Z</time>
      </trkpt>
      <trkpt lat="42.116686" lon="2.32046">
        <ele>869.402824370312</ele>
        <time>2019-10-07T10:56:12.000Z</time>
      </trkpt>
      <trkpt lat="42.116628" lon="2.320328">
        <ele>869.002800810938</ele>
        <time>2019-10-07T10:56:16.000Z</time>
      </trkpt>
      <trkpt lat="42.116584" lon="2.320189">
        <ele>868.585972385937</ele>
        <time>2019-10-07T10:56:19.000Z</time>
      </trkpt>
      <trkpt lat="42.116526" lon="2.320083">
        <ele>867.988797610937</ele>
        <time>2019-10-07T10:56:21.000Z</time>
      </trkpt>
      <trkpt lat="42.11649" lon="2.319944">
        <ele>867.40562518125</ele>
        <time>2019-10-07T10:56:24.000Z</time>
      </trkpt>
      <trkpt lat="42.116504" lon="2.319791">
        <ele>867.591574007812</ele>
        <time>2019-10-07T10:56:28.000Z</time>
      </trkpt>
      <trkpt lat="42.116439" lon="2.3197">
        <ele>866.191609774219</ele>
        <time>2019-10-07T10:56:33.000Z</time>
      </trkpt>
      <trkpt lat="42.116347" lon="2.319729">
        <ele>863.792177432605</ele>
        <time>2019-10-07T10:56:38.000Z</time>
      </trkpt>
      <trkpt lat="42.116325" lon="2.319785">
        <ele>862.799987792969</ele>
        <time>2019-10-07T10:56:44.000Z</time>
      </trkpt>
      <trkpt lat="42.116301" lon="2.319778">
        <ele>862.799987792969</ele>
        <time>2019-10-07T10:56:46.000Z</time>
      </trkpt>
      <trkpt lat="42.116209" lon="2.319814">
        <ele>862.99739888125</ele>
        <time>2019-10-07T10:56:57.000Z</time>
      </trkpt>
      <trkpt lat="42.116233" lon="2.319813">
        <ele>862.200012207031</ele>
        <time>2019-10-07T10:57:05.000Z</time>
      </trkpt>
      <trkpt lat="42.116246" lon="2.31979">
        <ele>862</ele>
        <time>2019-10-07T10:57:07.000Z</time>
      </trkpt>
      <trkpt lat="42.116264" lon="2.319773">
        <ele>862.202613325781</ele>
        <time>2019-10-07T10:57:09.000Z</time>
      </trkpt>
      <trkpt lat="42.116284" lon="2.319762">
        <ele>862.400024414063</ele>
        <time>2019-10-07T10:57:11.000Z</time>
      </trkpt>
      <trkpt lat="42.116304" lon="2.319745">
        <ele>862.799987792969</ele>
        <time>2019-10-07T10:57:13.000Z</time>
      </trkpt>
      <trkpt lat="42.116319" lon="2.319728">
        <ele>863.005207436605</ele>
        <time>2019-10-07T10:57:15.000Z</time>
      </trkpt>
      <trkpt lat="42.116325" lon="2.319705">
        <ele>863.799987792969</ele>
        <time>2019-10-07T10:57:21.000Z</time>
      </trkpt>
      <trkpt lat="42.116305" lon="2.319696">
        <ele>862.602776396875</ele>
        <time>2019-10-07T10:57:32.000Z</time>
      </trkpt>
      <trkpt lat="42.116259" lon="2.319736">
        <ele>861.794786349219</ele>
        <time>2019-10-07T10:57:45.000Z</time>
      </trkpt>
      <trkpt lat="42.11623" lon="2.319734">
        <ele>860.602576704688</ele>
        <time>2019-10-07T10:57:49.000Z</time>
      </trkpt>
      <trkpt lat="42.116155" lon="2.319774">
        <ele>859.799987792969</ele>
        <time>2019-10-07T10:58:03.000Z</time>
      </trkpt>
      <trkpt lat="42.116135" lon="2.319774">
        <ele>859.602576704688</ele>
        <time>2019-10-07T10:58:05.000Z</time>
      </trkpt>
      <trkpt lat="42.116118" lon="2.319785">
        <ele>859.400024414063</ele>
        <time>2019-10-07T10:58:09.000Z</time>
      </trkpt>
      <trkpt lat="42.116098" lon="2.3198">
        <ele>859.397423295312</ele>
        <time>2019-10-07T10:58:14.000Z</time>
      </trkpt>
      <trkpt lat="42.116061" lon="2.319839">
        <ele>858.599975585938</ele>
        <time>2019-10-07T10:58:27.000Z</time>
      </trkpt>
      <trkpt lat="42.116041" lon="2.319856">
        <ele>858.400024414063</ele>
        <time>2019-10-07T10:58:29.000Z</time>
      </trkpt>
      <trkpt lat="42.116023" lon="2.319841">
        <ele>858.599975585938</ele>
        <time>2019-10-07T10:58:35.000Z</time>
      </trkpt>
      <trkpt lat="42.116049" lon="2.31982">
        <ele>858.597372662178</ele>
        <time>2019-10-07T10:58:41.000Z</time>
      </trkpt>
      <trkpt lat="42.116143" lon="2.319775">
        <ele>859.597375260938</ele>
        <time>2019-10-07T10:58:47.000Z</time>
      </trkpt>
      <trkpt lat="42.116231" lon="2.319721">
        <ele>860.197411088281</ele>
        <time>2019-10-07T10:58:53.000Z</time>
      </trkpt>
      <trkpt lat="42.116285" lon="2.319617">
        <ele>861.400024414063</ele>
        <time>2019-10-07T10:59:01.000Z</time>
      </trkpt>
      <trkpt lat="42.116312" lon="2.31949">
        <ele>863.0052022375</ele>
        <time>2019-10-07T10:59:07.000Z</time>
      </trkpt>
      <trkpt lat="42.116221" lon="2.319467">
        <ele>867.794781150907</ele>
        <time>2019-10-07T10:59:26.000Z</time>
      </trkpt>
      <trkpt lat="42.116132" lon="2.319423">
        <ele>874</ele>
        <time>2019-10-07T10:59:44.000Z</time>
      </trkpt>
      <trkpt lat="42.116036" lon="2.319428">
        <ele>876.602576704688</ele>
        <time>2019-10-07T10:59:56.000Z</time>
      </trkpt>
      <trkpt lat="42.116033" lon="2.319394">
        <ele>878.005601621875</ele>
        <time>2019-10-07T11:00:00.000Z</time>
      </trkpt>
      <trkpt lat="42.115992" lon="2.319278">
        <ele>881.799987792969</ele>
        <time>2019-10-07T11:00:16.000Z</time>
      </trkpt>
      <trkpt lat="42.115967" lon="2.319161">
        <ele>884.002798017397</ele>
        <time>2019-10-07T11:00:27.000Z</time>
      </trkpt>
      <trkpt lat="42.115888" lon="2.319079">
        <ele>887.202613325781</ele>
        <time>2019-10-07T11:00:38.000Z</time>
      </trkpt>
      <trkpt lat="42.115897" lon="2.319047">
        <ele>889.599975585938</ele>
        <time>2019-10-07T11:00:46.000Z</time>
      </trkpt>
      <trkpt lat="42.11588" lon="2.319025">
        <ele>889.802788603906</ele>
        <time>2019-10-07T11:00:48.000Z</time>
      </trkpt>
      <trkpt lat="42.11586" lon="2.319022">
        <ele>890.205213650781</ele>
        <time>2019-10-07T11:00:50.000Z</time>
      </trkpt>
      <trkpt lat="42.115852" lon="2.318999">
        <ele>891.00260111875</ele>
        <time>2019-10-07T11:00:52.000Z</time>
      </trkpt>
      <trkpt lat="42.11585" lon="2.318971">
        <ele>891.402627337822</ele>
        <time>2019-10-07T11:00:54.000Z</time>
      </trkpt>
      <trkpt lat="42.115846" lon="2.318942">
        <ele>892.405225857813</ele>
        <time>2019-10-07T11:00:57.000Z</time>
      </trkpt>
      <trkpt lat="42.115838" lon="2.318916">
        <ele>893.202810224428</ele>
        <time>2019-10-07T11:00:59.000Z</time>
      </trkpt>
      <trkpt lat="42.115846" lon="2.318891">
        <ele>893.805190030469</ele>
        <time>2019-10-07T11:01:02.000Z</time>
      </trkpt>
      <trkpt lat="42.115853" lon="2.31886">
        <ele>894.605183022542</ele>
        <time>2019-10-07T11:01:05.000Z</time>
      </trkpt>
      <trkpt lat="42.115836" lon="2.318836">
        <ele>895.602576704688</ele>
        <time>2019-10-07T11:01:08.000Z</time>
      </trkpt>
      <trkpt lat="42.115818" lon="2.318814">
        <ele>896.202613325781</ele>
        <time>2019-10-07T11:01:10.000Z</time>
      </trkpt>
      <trkpt lat="42.115797" lon="2.318796">
        <ele>897.00260111875</ele>
        <time>2019-10-07T11:01:12.000Z</time>
      </trkpt>
      <trkpt lat="42.115781" lon="2.318781">
        <ele>897.405619595021</ele>
        <time>2019-10-07T11:01:14.000Z</time>
      </trkpt>
      <trkpt lat="42.115777" lon="2.318756">
        <ele>898.200012207031</ele>
        <time>2019-10-07T11:01:16.000Z</time>
      </trkpt>
      <trkpt lat="42.115769" lon="2.318729">
        <ele>898.605571620731</ele>
        <time>2019-10-07T11:01:19.000Z</time>
      </trkpt>
      <trkpt lat="42.115755" lon="2.318709">
        <ele>899.605177823438</ele>
        <time>2019-10-07T11:01:21.000Z</time>
      </trkpt>
      <trkpt lat="42.115734" lon="2.318706">
        <ele>900.402821577624</ele>
        <time>2019-10-07T11:01:23.000Z</time>
      </trkpt>
      <trkpt lat="42.11572" lon="2.31868">
        <ele>901.00260111875</ele>
        <time>2019-10-07T11:01:25.000Z</time>
      </trkpt>
      <trkpt lat="42.115713" lon="2.318656">
        <ele>902</ele>
        <time>2019-10-07T11:01:33.000Z</time>
      </trkpt>
      <trkpt lat="42.115731" lon="2.318669">
        <ele>901.400024414063</ele>
        <time>2019-10-07T11:01:44.000Z</time>
      </trkpt>
      <trkpt lat="42.115749" lon="2.318675">
        <ele>901.0052022375</ele>
        <time>2019-10-07T11:01:47.000Z</time>
      </trkpt>
      <trkpt lat="42.115768" lon="2.318674">
        <ele>901.400024414063</ele>
        <time>2019-10-07T11:01:49.000Z</time>
      </trkpt>
      <trkpt lat="42.115791" lon="2.318664">
        <ele>901.197214189634</ele>
        <time>2019-10-07T11:01:51.000Z</time>
      </trkpt>
      <trkpt lat="42.115814" lon="2.318658">
        <ele>901</ele>
        <time>2019-10-07T11:01:53.000Z</time>
      </trkpt>
      <trkpt lat="42.115831" lon="2.318645">
        <ele>901.605183022542</ele>
        <time>2019-10-07T11:01:57.000Z</time>
      </trkpt>
      <trkpt lat="42.115847" lon="2.318625">
        <ele>902.002798017397</ele>
        <time>2019-10-07T11:02:00.000Z</time>
      </trkpt>
      <trkpt lat="42.115866" lon="2.318608">
        <ele>902.402624739063</ele>
        <time>2019-10-07T11:02:03.000Z</time>
      </trkpt>
      <trkpt lat="42.115885" lon="2.318582">
        <ele>902.605571620731</ele>
        <time>2019-10-07T11:02:06.000Z</time>
      </trkpt>
      <trkpt lat="42.115896" lon="2.318559">
        <ele>903.40562518125</ele>
        <time>2019-10-07T11:02:08.000Z</time>
      </trkpt>
      <trkpt lat="42.115914" lon="2.318536">
        <ele>904.200012207031</ele>
        <time>2019-10-07T11:02:10.000Z</time>
      </trkpt>
      <trkpt lat="42.115933" lon="2.318524">
        <ele>904.605577207813</ele>
        <time>2019-10-07T11:02:12.000Z</time>
      </trkpt>
      <trkpt lat="42.115953" lon="2.318503">
        <ele>905.405619595021</ele>
        <time>2019-10-07T11:02:14.000Z</time>
      </trkpt>
      <trkpt lat="42.11597" lon="2.318484">
        <ele>905.802588911719</ele>
        <time>2019-10-07T11:02:16.000Z</time>
      </trkpt>
      <trkpt lat="42.115989" lon="2.318461">
        <ele>906.202810224428</ele>
        <time>2019-10-07T11:02:19.000Z</time>
      </trkpt>
      <trkpt lat="42.116003" lon="2.31844">
        <ele>907</ele>
        <time>2019-10-07T11:02:22.000Z</time>
      </trkpt>
      <trkpt lat="42.116021" lon="2.318416">
        <ele>907.205218849093</ele>
        <time>2019-10-07T11:02:24.000Z</time>
      </trkpt>
      <trkpt lat="42.116037" lon="2.318384">
        <ele>908</ele>
        <time>2019-10-07T11:02:27.000Z</time>
      </trkpt>
      <trkpt lat="42.116054" lon="2.318358">
        <ele>908.402824370312</ele>
        <time>2019-10-07T11:02:29.000Z</time>
      </trkpt>
      <trkpt lat="42.116069" lon="2.318344">
        <ele>908.599975585938</ele>
        <time>2019-10-07T11:02:30.000Z</time>
      </trkpt>
      <trkpt lat="42.116088" lon="2.318305">
        <ele>909</ele>
        <time>2019-10-07T11:02:32.000Z</time>
      </trkpt>
      <trkpt lat="42.116105" lon="2.318267">
        <ele>909.202613325781</ele>
        <time>2019-10-07T11:02:34.000Z</time>
      </trkpt>
      <trkpt lat="42.116115" lon="2.318227">
        <ele>909.612980385937</ele>
        <time>2019-10-07T11:02:36.000Z</time>
      </trkpt>
      <trkpt lat="42.116119" lon="2.318199">
        <ele>910.599975585938</ele>
        <time>2019-10-07T11:02:37.000Z</time>
      </trkpt>
      <trkpt lat="42.116132" lon="2.318153">
        <ele>911.202613325781</ele>
        <time>2019-10-07T11:02:39.000Z</time>
      </trkpt>
      <trkpt lat="42.11613" lon="2.31811">
        <ele>911.607778942187</ele>
        <time>2019-10-07T11:02:41.000Z</time>
      </trkpt>
      <trkpt lat="42.116127" lon="2.31808">
        <ele>912.200012207031</ele>
        <time>2019-10-07T11:02:42.000Z</time>
      </trkpt>
      <trkpt lat="42.116126" lon="2.31805">
        <ele>912.197411088281</ele>
        <time>2019-10-07T11:02:43.000Z</time>
      </trkpt>
      <trkpt lat="42.116124" lon="2.31802">
        <ele>912</ele>
        <time>2019-10-07T11:02:44.000Z</time>
      </trkpt>
      <trkpt lat="42.11612" lon="2.317984">
        <ele>912</ele>
        <time>2019-10-07T11:02:45.000Z</time>
      </trkpt>
      <trkpt lat="42.116116" lon="2.317948">
        <ele>912.01040368125</ele>
        <time>2019-10-07T11:02:46.000Z</time>
      </trkpt>
      <trkpt lat="42.116113" lon="2.317912">
        <ele>912.799987792969</ele>
        <time>2019-10-07T11:02:47.000Z</time>
      </trkpt>
      <trkpt lat="42.116114" lon="2.317864">
        <ele>912.810391474219</ele>
        <time>2019-10-07T11:02:48.000Z</time>
      </trkpt>
      <trkpt lat="42.116169" lon="2.317735">
        <ele>914.200012207031</ele>
        <time>2019-10-07T11:02:52.000Z</time>
      </trkpt>
      <trkpt lat="42.116246" lon="2.317671">
        <ele>914.00260111875</ele>
        <time>2019-10-07T11:02:56.000Z</time>
      </trkpt>
      <trkpt lat="42.116338" lon="2.317662">
        <ele>915.599975585938</ele>
        <time>2019-10-07T11:03:01.000Z</time>
      </trkpt>
      <trkpt lat="42.116435" lon="2.317644">
        <ele>916.605177823438</ele>
        <time>2019-10-07T11:03:05.000Z</time>
      </trkpt>
      <trkpt lat="42.116529" lon="2.317615">
        <ele>917.799987792969</ele>
        <time>2019-10-07T11:03:10.000Z</time>
      </trkpt>
      <trkpt lat="42.116526" lon="2.317461">
        <ele>919.213017007031</ele>
        <time>2019-10-07T11:03:18.000Z</time>
      </trkpt>
      <trkpt lat="42.116538" lon="2.317336">
        <ele>920</ele>
        <time>2019-10-07T11:03:21.000Z</time>
      </trkpt>
      <trkpt lat="42.116553" lon="2.31729">
        <ele>920.00260111875</ele>
        <time>2019-10-07T11:03:22.000Z</time>
      </trkpt>
      <trkpt lat="42.116583" lon="2.317229">
        <ele>920</ele>
        <time>2019-10-07T11:03:24.000Z</time>
      </trkpt>
      <trkpt lat="42.1166" lon="2.317204">
        <ele>919.99739888125</ele>
        <time>2019-10-07T11:03:25.000Z</time>
      </trkpt>
      <trkpt lat="42.11662" lon="2.317177">
        <ele>919.794786349219</ele>
        <time>2019-10-07T11:03:26.000Z</time>
      </trkpt>
      <trkpt lat="42.116643" lon="2.317155">
        <ele>919.402627337822</ele>
        <time>2019-10-07T11:03:27.000Z</time>
      </trkpt>
      <trkpt lat="42.116663" lon="2.317134">
        <ele>919.602773603334</ele>
        <time>2019-10-07T11:03:28.000Z</time>
      </trkpt>
      <trkpt lat="42.116761" lon="2.317074">
        <ele>921.00260111875</ele>
        <time>2019-10-07T11:03:32.000Z</time>
      </trkpt>
      <trkpt lat="42.116861" lon="2.317016">
        <ele>921.794786349219</ele>
        <time>2019-10-07T11:03:36.000Z</time>
      </trkpt>
      <trkpt lat="42.116897" lon="2.316989">
        <ele>921.597375260938</ele>
        <time>2019-10-07T11:03:38.000Z</time>
      </trkpt>
      <trkpt lat="42.116933" lon="2.316958">
        <ele>921.799987792969</ele>
        <time>2019-10-07T11:03:40.000Z</time>
      </trkpt>
      <trkpt lat="42.117014" lon="2.316862">
        <ele>921.805190030469</ele>
        <time>2019-10-07T11:03:44.000Z</time>
      </trkpt>
      <trkpt lat="42.117108" lon="2.316775">
        <ele>922.194809969531</ele>
        <time>2019-10-07T11:03:47.000Z</time>
      </trkpt>
      <trkpt lat="42.117206" lon="2.31671">
        <ele>922.0078025625</ele>
        <time>2019-10-07T11:03:50.000Z</time>
      </trkpt>
      <trkpt lat="42.117305" lon="2.31664">
        <ele>922.597375260938</ele>
        <time>2019-10-07T11:03:53.000Z</time>
      </trkpt>
      <trkpt lat="42.117408" lon="2.316574">
        <ele>921.9947977625</ele>
        <time>2019-10-07T11:03:57.000Z</time>
      </trkpt>
      <trkpt lat="42.117515" lon="2.316536">
        <ele>921.602776396875</ele>
        <time>2019-10-07T11:04:01.000Z</time>
      </trkpt>
      <trkpt lat="42.1176" lon="2.316437">
        <ele>921.799987792969</ele>
        <time>2019-10-07T11:04:05.000Z</time>
      </trkpt>
      <trkpt lat="42.117671" lon="2.316338">
        <ele>921.994398378125</ele>
        <time>2019-10-07T11:04:08.000Z</time>
      </trkpt>
      <trkpt lat="42.117748" lon="2.316272">
        <ele>921.808381845159</ele>
        <time>2019-10-07T11:04:11.000Z</time>
      </trkpt>
      <trkpt lat="42.117836" lon="2.316228">
        <ele>922.799987792969</ele>
        <time>2019-10-07T11:04:14.000Z</time>
      </trkpt>
      <trkpt lat="42.117943" lon="2.316225">
        <ele>923.79439261201</ele>
        <time>2019-10-07T11:04:18.000Z</time>
      </trkpt>
      <trkpt lat="42.118053" lon="2.316262">
        <ele>924</ele>
        <time>2019-10-07T11:04:22.000Z</time>
      </trkpt>
      <trkpt lat="42.118138" lon="2.316326">
        <ele>924.200012207031</ele>
        <time>2019-10-07T11:04:26.000Z</time>
      </trkpt>
      <trkpt lat="42.118224" lon="2.316255">
        <ele>925.400024414063</ele>
        <time>2019-10-07T11:04:32.000Z</time>
      </trkpt>
      <trkpt lat="42.118213" lon="2.316127">
        <ele>925.799987792969</ele>
        <time>2019-10-07T11:04:37.000Z</time>
      </trkpt>
      <trkpt lat="42.118191" lon="2.315978">
        <ele>927.01040368125</ele>
        <time>2019-10-07T11:04:42.000Z</time>
      </trkpt>
      <trkpt lat="42.118187" lon="2.315839">
        <ele>928.805190030469</ele>
        <time>2019-10-07T11:04:46.000Z</time>
      </trkpt>
      <trkpt lat="42.118162" lon="2.315758">
        <ele>929.99739888125</ele>
        <time>2019-10-07T11:04:49.000Z</time>
      </trkpt>
      <trkpt lat="42.118148" lon="2.315617">
        <ele>930.599975585938</ele>
        <time>2019-10-07T11:04:53.000Z</time>
      </trkpt>
      <trkpt lat="42.118178" lon="2.3155">
        <ele>931.200012207031</ele>
        <time>2019-10-07T11:04:56.000Z</time>
      </trkpt>
      <trkpt lat="42.118263" lon="2.315418">
        <ele>931.397423295312</ele>
        <time>2019-10-07T11:05:00.000Z</time>
      </trkpt>
      <trkpt lat="42.118371" lon="2.315397">
        <ele>931.408425992188</ele>
        <time>2019-10-07T11:05:03.000Z</time>
      </trkpt>
      <trkpt lat="42.118461" lon="2.315372">
        <ele>931.994398378125</ele>
        <time>2019-10-07T11:05:06.000Z</time>
      </trkpt>
      <trkpt lat="42.118555" lon="2.315368">
        <ele>931.400024414063</ele>
        <time>2019-10-07T11:05:09.000Z</time>
      </trkpt>
      <trkpt lat="42.118656" lon="2.315347">
        <ele>930.99739888125</ele>
        <time>2019-10-07T11:05:12.000Z</time>
      </trkpt>
      <trkpt lat="42.118741" lon="2.315294">
        <ele>930.597375260938</ele>
        <time>2019-10-07T11:05:15.000Z</time>
      </trkpt>
      <trkpt lat="42.118842" lon="2.31523">
        <ele>930.0052022375</ele>
        <time>2019-10-07T11:05:19.000Z</time>
      </trkpt>
      <trkpt lat="42.118935" lon="2.315185">
        <ele>930.197411088281</ele>
        <time>2019-10-07T11:05:22.000Z</time>
      </trkpt>
      <trkpt lat="42.11899" lon="2.315086">
        <ele>930</ele>
        <time>2019-10-07T11:05:26.000Z</time>
      </trkpt>
      <trkpt lat="42.119" lon="2.314964">
        <ele>930.0052022375</ele>
        <time>2019-10-07T11:05:30.000Z</time>
      </trkpt>
      <trkpt lat="42.11906" lon="2.314869">
        <ele>931</ele>
        <time>2019-10-07T11:05:33.000Z</time>
      </trkpt>
      <trkpt lat="42.11915" lon="2.314797">
        <ele>932</ele>
        <time>2019-10-07T11:05:37.000Z</time>
      </trkpt>
      <trkpt lat="42.119257" lon="2.314776">
        <ele>932.802788603906</ele>
        <time>2019-10-07T11:05:42.000Z</time>
      </trkpt>
      <trkpt lat="42.119347" lon="2.314744">
        <ele>933.602776396875</ele>
        <time>2019-10-07T11:05:46.000Z</time>
      </trkpt>
      <trkpt lat="42.11945" lon="2.314694">
        <ele>935.400024414063</ele>
        <time>2019-10-07T11:05:50.000Z</time>
      </trkpt>
      <trkpt lat="42.119509" lon="2.314601">
        <ele>935.602776396875</ele>
        <time>2019-10-07T11:05:53.000Z</time>
      </trkpt>
      <trkpt lat="42.119581" lon="2.314508">
        <ele>936</ele>
        <time>2019-10-07T11:05:56.000Z</time>
      </trkpt>
      <trkpt lat="42.119661" lon="2.314413">
        <ele>936</ele>
        <time>2019-10-07T11:05:59.000Z</time>
      </trkpt>
      <trkpt lat="42.119753" lon="2.314321">
        <ele>935.997396281698</ele>
        <time>2019-10-07T11:06:02.000Z</time>
      </trkpt>
      <trkpt lat="42.119841" lon="2.314249">
        <ele>936</ele>
        <time>2019-10-07T11:06:05.000Z</time>
      </trkpt>
      <trkpt lat="42.119933" lon="2.314184">
        <ele>936.197411088281</ele>
        <time>2019-10-07T11:06:08.000Z</time>
      </trkpt>
      <trkpt lat="42.120028" lon="2.314134">
        <ele>936.207814769531</ele>
        <time>2019-10-07T11:06:11.000Z</time>
      </trkpt>
      <trkpt lat="42.120133" lon="2.31407">
        <ele>937.205213650781</ele>
        <time>2019-10-07T11:06:15.000Z</time>
      </trkpt>
      <trkpt lat="42.120244" lon="2.314051">
        <ele>938.602576704688</ele>
        <time>2019-10-07T11:06:20.000Z</time>
      </trkpt>
      <trkpt lat="42.12035" lon="2.314043">
        <ele>939.802588911719</ele>
        <time>2019-10-07T11:06:24.000Z</time>
      </trkpt>
      <trkpt lat="42.120466" lon="2.314033">
        <ele>940.599975585938</ele>
        <time>2019-10-07T11:06:28.000Z</time>
      </trkpt>
      <trkpt lat="42.120493" lon="2.314034">
        <ele>940.605177823438</ele>
        <time>2019-10-07T11:06:29.000Z</time>
      </trkpt>
      <trkpt lat="42.120519" lon="2.314031">
        <ele>941</ele>
        <time>2019-10-07T11:06:30.000Z</time>
      </trkpt>
      <trkpt lat="42.120547" lon="2.314029">
        <ele>941.0052022375</ele>
        <time>2019-10-07T11:06:31.000Z</time>
      </trkpt>
      <trkpt lat="42.120576" lon="2.314032">
        <ele>941.400024414063</ele>
        <time>2019-10-07T11:06:32.000Z</time>
      </trkpt>
      <trkpt lat="42.120603" lon="2.314033">
        <ele>941.402624739063</ele>
        <time>2019-10-07T11:06:33.000Z</time>
      </trkpt>
      <trkpt lat="42.12063" lon="2.314034">
        <ele>941.599975585938</ele>
        <time>2019-10-07T11:06:34.000Z</time>
      </trkpt>
      <trkpt lat="42.120687" lon="2.314047">
        <ele>942.002798017397</ele>
        <time>2019-10-07T11:06:36.000Z</time>
      </trkpt>
      <trkpt lat="42.120717" lon="2.314048">
        <ele>942.205213650781</ele>
        <time>2019-10-07T11:06:37.000Z</time>
      </trkpt>
      <trkpt lat="42.120745" lon="2.314044">
        <ele>942.602576704688</ele>
        <time>2019-10-07T11:06:38.000Z</time>
      </trkpt>
      <trkpt lat="42.120773" lon="2.314043">
        <ele>942.805190030469</ele>
        <time>2019-10-07T11:06:39.000Z</time>
      </trkpt>
      <trkpt lat="42.120798" lon="2.314043">
        <ele>943.200012207031</ele>
        <time>2019-10-07T11:06:40.000Z</time>
      </trkpt>
      <trkpt lat="42.120827" lon="2.314046">
        <ele>943.205213650781</ele>
        <time>2019-10-07T11:06:41.000Z</time>
      </trkpt>
      <trkpt lat="42.120857" lon="2.314044">
        <ele>943.599975585938</ele>
        <time>2019-10-07T11:06:42.000Z</time>
      </trkpt>
      <trkpt lat="42.120882" lon="2.314036">
        <ele>943.605177823438</ele>
        <time>2019-10-07T11:06:43.000Z</time>
      </trkpt>
      <trkpt lat="42.120903" lon="2.31403">
        <ele>944.00260111875</ele>
        <time>2019-10-07T11:06:44.000Z</time>
      </trkpt>
      <trkpt lat="42.12092" lon="2.314013">
        <ele>944.202613325781</ele>
        <time>2019-10-07T11:06:45.000Z</time>
      </trkpt>
      <trkpt lat="42.120935" lon="2.313971">
        <ele>944.807791149219</ele>
        <time>2019-10-07T11:06:47.000Z</time>
      </trkpt>
      <trkpt lat="42.120945" lon="2.313926">
        <ele>945.407826976563</ele>
        <time>2019-10-07T11:06:49.000Z</time>
      </trkpt>
      <trkpt lat="42.120946" lon="2.313893">
        <ele>946.00260111875</ele>
        <time>2019-10-07T11:06:50.000Z</time>
      </trkpt>
      <trkpt lat="42.120941" lon="2.313862">
        <ele>946.205213650781</ele>
        <time>2019-10-07T11:06:51.000Z</time>
      </trkpt>
      <trkpt lat="42.120939" lon="2.313832">
        <ele>946.599975585938</ele>
        <time>2019-10-07T11:06:52.000Z</time>
      </trkpt>
      <trkpt lat="42.120938" lon="2.313798">
        <ele>946.602576704688</ele>
        <time>2019-10-07T11:06:53.000Z</time>
      </trkpt>
      <trkpt lat="42.120939" lon="2.313766">
        <ele>946.799987792969</ele>
        <time>2019-10-07T11:06:54.000Z</time>
      </trkpt>
      <trkpt lat="42.120948" lon="2.313724">
        <ele>946.802588911719</ele>
        <time>2019-10-07T11:06:55.000Z</time>
      </trkpt>
      <trkpt lat="42.12096" lon="2.313689">
        <ele>946.99739888125</ele>
        <time>2019-10-07T11:06:56.000Z</time>
      </trkpt>
      <trkpt lat="42.120979" lon="2.31366">
        <ele>946.802588911719</ele>
        <time>2019-10-07T11:06:57.000Z</time>
      </trkpt>
      <trkpt lat="42.121001" lon="2.313632">
        <ele>947</ele>
        <time>2019-10-07T11:06:58.000Z</time>
      </trkpt>
      <trkpt lat="42.121023" lon="2.313603">
        <ele>947.00260111875</ele>
        <time>2019-10-07T11:06:59.000Z</time>
      </trkpt>
      <trkpt lat="42.121043" lon="2.313577">
        <ele>947.200012207031</ele>
        <time>2019-10-07T11:07:00.000Z</time>
      </trkpt>
      <trkpt lat="42.121066" lon="2.313559">
        <ele>947.202613325781</ele>
        <time>2019-10-07T11:07:01.000Z</time>
      </trkpt>
      <trkpt lat="42.121089" lon="2.313548">
        <ele>947.402624739063</ele>
        <time>2019-10-07T11:07:02.000Z</time>
      </trkpt>
      <trkpt lat="42.121112" lon="2.313534">
        <ele>947.605177823438</ele>
        <time>2019-10-07T11:07:03.000Z</time>
      </trkpt>
      <trkpt lat="42.121138" lon="2.313518">
        <ele>948.00260111875</ele>
        <time>2019-10-07T11:07:04.000Z</time>
      </trkpt>
      <trkpt lat="42.121161" lon="2.313505">
        <ele>948.205218849093</ele>
        <time>2019-10-07T11:07:05.000Z</time>
      </trkpt>
      <trkpt lat="42.121183" lon="2.313494">
        <ele>948.599975585938</ele>
        <time>2019-10-07T11:07:06.000Z</time>
      </trkpt>
      <trkpt lat="42.121209" lon="2.313488">
        <ele>948.602576704688</ele>
        <time>2019-10-07T11:07:07.000Z</time>
      </trkpt>
      <trkpt lat="42.121316" lon="2.313463">
        <ele>949.605177823438</ele>
        <time>2019-10-07T11:07:11.000Z</time>
      </trkpt>
      <trkpt lat="42.121343" lon="2.313461">
        <ele>950.00260111875</ele>
        <time>2019-10-07T11:07:12.000Z</time>
      </trkpt>
      <trkpt lat="42.121371" lon="2.313465">
        <ele>950.207814769531</ele>
        <time>2019-10-07T11:07:13.000Z</time>
      </trkpt>
      <trkpt lat="42.121395" lon="2.313472">
        <ele>950.802588911719</ele>
        <time>2019-10-07T11:07:14.000Z</time>
      </trkpt>
      <trkpt lat="42.121421" lon="2.31348">
        <ele>951.0052022375</ele>
        <time>2019-10-07T11:07:15.000Z</time>
      </trkpt>
      <trkpt lat="42.121449" lon="2.313493">
        <ele>951.405225857813</ele>
        <time>2019-10-07T11:07:16.000Z</time>
      </trkpt>
      <trkpt lat="42.121478" lon="2.31351">
        <ele>951.805190030469</ele>
        <time>2019-10-07T11:07:17.000Z</time>
      </trkpt>
      <trkpt lat="42.121556" lon="2.313532">
        <ele>952.602576704688</ele>
        <time>2019-10-07T11:07:20.000Z</time>
      </trkpt>
      <trkpt lat="42.121607" lon="2.313542">
        <ele>953</ele>
        <time>2019-10-07T11:07:22.000Z</time>
      </trkpt>
      <trkpt lat="42.121633" lon="2.313546">
        <ele>953.00260111875</ele>
        <time>2019-10-07T11:07:23.000Z</time>
      </trkpt>
      <trkpt lat="42.12166" lon="2.313546">
        <ele>953.197411088281</ele>
        <time>2019-10-07T11:07:24.000Z</time>
      </trkpt>
      <trkpt lat="42.121682" lon="2.313543">
        <ele>953.0052022375</ele>
        <time>2019-10-07T11:07:25.000Z</time>
      </trkpt>
      <trkpt lat="42.121705" lon="2.313537">
        <ele>953.397423295312</ele>
        <time>2019-10-07T11:07:26.000Z</time>
      </trkpt>
      <trkpt lat="42.121735" lon="2.313536">
        <ele>953.200012207031</ele>
        <time>2019-10-07T11:07:27.000Z</time>
      </trkpt>
      <trkpt lat="42.121761" lon="2.313531">
        <ele>953.200012207031</ele>
        <time>2019-10-07T11:07:28.000Z</time>
      </trkpt>
      <trkpt lat="42.12179" lon="2.313526">
        <ele>953.202613325781</ele>
        <time>2019-10-07T11:07:29.000Z</time>
      </trkpt>
      <trkpt lat="42.12182" lon="2.313526">
        <ele>953.394822176562</ele>
        <time>2019-10-07T11:07:30.000Z</time>
      </trkpt>
      <trkpt lat="42.121845" lon="2.313527">
        <ele>952.99739888125</ele>
        <time>2019-10-07T11:07:31.000Z</time>
      </trkpt>
      <trkpt lat="42.121872" lon="2.313521">
        <ele>952.799987792969</ele>
        <time>2019-10-07T11:07:32.000Z</time>
      </trkpt>
      <trkpt lat="42.121901" lon="2.313515">
        <ele>952.802588911719</ele>
        <time>2019-10-07T11:07:33.000Z</time>
      </trkpt>
      <trkpt lat="42.121926" lon="2.313508">
        <ele>953.01040368125</ele>
        <time>2019-10-07T11:07:34.000Z</time>
      </trkpt>
      <trkpt lat="42.121949" lon="2.313507">
        <ele>953.799987792969</ele>
        <time>2019-10-07T11:07:35.000Z</time>
      </trkpt>
      <trkpt lat="42.121972" lon="2.313507">
        <ele>953.802591511271</ele>
        <time>2019-10-07T11:07:36.000Z</time>
      </trkpt>
      <trkpt lat="42.121998" lon="2.313506">
        <ele>954.002800810938</ele>
        <time>2019-10-07T11:07:37.000Z</time>
      </trkpt>
      <trkpt lat="42.122022" lon="2.313503">
        <ele>954.208413785156</ele>
        <time>2019-10-07T11:07:38.000Z</time>
      </trkpt>
      <trkpt lat="42.122051" lon="2.313504">
        <ele>954.799987792969</ele>
        <time>2019-10-07T11:07:39.000Z</time>
      </trkpt>
      <trkpt lat="42.122081" lon="2.313511">
        <ele>954.802788603906</ele>
        <time>2019-10-07T11:07:40.000Z</time>
      </trkpt>
      <trkpt lat="42.122109" lon="2.313511">
        <ele>954.997201982603</ele>
        <time>2019-10-07T11:07:41.000Z</time>
      </trkpt>
      <trkpt lat="42.122135" lon="2.313514">
        <ele>954.802588911719</ele>
        <time>2019-10-07T11:07:42.000Z</time>
      </trkpt>
      <trkpt lat="42.122163" lon="2.313519">
        <ele>955</ele>
        <time>2019-10-07T11:07:43.000Z</time>
      </trkpt>
      <trkpt lat="42.122194" lon="2.313528">
        <ele>955.0078025625</ele>
        <time>2019-10-07T11:07:44.000Z</time>
      </trkpt>
      <trkpt lat="42.122222" lon="2.313537">
        <ele>955.599975585938</ele>
        <time>2019-10-07T11:07:45.000Z</time>
      </trkpt>
      <trkpt lat="42.122251" lon="2.313546">
        <ele>955.605177823438</ele>
        <time>2019-10-07T11:07:46.000Z</time>
      </trkpt>
      <trkpt lat="42.12228" lon="2.31355">
        <ele>956.00260111875</ele>
        <time>2019-10-07T11:07:47.000Z</time>
      </trkpt>
      <trkpt lat="42.122312" lon="2.313556">
        <ele>956.207814769531</ele>
        <time>2019-10-07T11:07:48.000Z</time>
      </trkpt>
      <trkpt lat="42.12234" lon="2.313564">
        <ele>956.807791149219</ele>
        <time>2019-10-07T11:07:49.000Z</time>
      </trkpt>
      <trkpt lat="42.122369" lon="2.313569">
        <ele>957.410428095312</ele>
        <time>2019-10-07T11:07:50.000Z</time>
      </trkpt>
      <trkpt lat="42.1224" lon="2.313576">
        <ele>958.200012207031</ele>
        <time>2019-10-07T11:07:51.000Z</time>
      </trkpt>
      <trkpt lat="42.122431" lon="2.31358">
        <ele>958.207814769531</ele>
        <time>2019-10-07T11:07:52.000Z</time>
      </trkpt>
      <trkpt lat="42.122463" lon="2.31358">
        <ele>958.797386674219</ele>
        <time>2019-10-07T11:07:53.000Z</time>
      </trkpt>
      <trkpt lat="42.122488" lon="2.313577">
        <ele>958.607778942187</ele>
        <time>2019-10-07T11:07:54.000Z</time>
      </trkpt>
      <trkpt lat="42.122516" lon="2.313572">
        <ele>959.200012207031</ele>
        <time>2019-10-07T11:07:55.000Z</time>
      </trkpt>
      <trkpt lat="42.122543" lon="2.313552">
        <ele>959.205213650781</ele>
        <time>2019-10-07T11:07:56.000Z</time>
      </trkpt>
      <trkpt lat="42.122572" lon="2.313539">
        <ele>959.610380060937</ele>
        <time>2019-10-07T11:07:57.000Z</time>
      </trkpt>
      <trkpt lat="42.122596" lon="2.313522">
        <ele>960.400024414063</ele>
        <time>2019-10-07T11:07:58.000Z</time>
      </trkpt>
      <trkpt lat="42.12262" lon="2.3135">
        <ele>960.400024414063</ele>
        <time>2019-10-07T11:07:59.000Z</time>
      </trkpt>
      <trkpt lat="42.12264" lon="2.313478">
        <ele>960.405225857813</ele>
        <time>2019-10-07T11:08:00.000Z</time>
      </trkpt>
      <trkpt lat="42.122663" lon="2.313457">
        <ele>960.799987792969</ele>
        <time>2019-10-07T11:08:01.000Z</time>
      </trkpt>
      <trkpt lat="42.122685" lon="2.313436">
        <ele>960.799987792969</ele>
        <time>2019-10-07T11:08:02.000Z</time>
      </trkpt>
      <trkpt lat="42.122712" lon="2.313414">
        <ele>960.794786349219</ele>
        <time>2019-10-07T11:08:03.000Z</time>
      </trkpt>
      <trkpt lat="42.122734" lon="2.313393">
        <ele>960.397423295312</ele>
        <time>2019-10-07T11:08:04.000Z</time>
      </trkpt>
      <trkpt lat="42.122761" lon="2.313371">
        <ele>960.197411088281</ele>
        <time>2019-10-07T11:08:05.000Z</time>
      </trkpt>
      <trkpt lat="42.122781" lon="2.313346">
        <ele>960.0078025625</ele>
        <time>2019-10-07T11:08:06.000Z</time>
      </trkpt>
      <trkpt lat="42.122798" lon="2.31332">
        <ele>960.599975585938</ele>
        <time>2019-10-07T11:08:07.000Z</time>
      </trkpt>
      <trkpt lat="42.122805" lon="2.313292">
        <ele>960.605177823438</ele>
        <time>2019-10-07T11:08:08.000Z</time>
      </trkpt>
      <trkpt lat="42.122812" lon="2.313256">
        <ele>961.0052022375</ele>
        <time>2019-10-07T11:08:09.000Z</time>
      </trkpt>
      <trkpt lat="42.122814" lon="2.31322">
        <ele>961.405231056124</ele>
        <time>2019-10-07T11:08:10.000Z</time>
      </trkpt>
      <trkpt lat="42.12282" lon="2.313174">
        <ele>961.799987792969</ele>
        <time>2019-10-07T11:08:11.000Z</time>
      </trkpt>
      <trkpt lat="42.122824" lon="2.313131">
        <ele>961.805589414844</ele>
        <time>2019-10-07T11:08:12.000Z</time>
      </trkpt>
      <trkpt lat="42.122823" lon="2.313085">
        <ele>962.194410585156</ele>
        <time>2019-10-07T11:08:13.000Z</time>
      </trkpt>
      <trkpt lat="42.122823" lon="2.313049">
        <ele>961.797186982031</ele>
        <time>2019-10-07T11:08:14.000Z</time>
      </trkpt>
      <trkpt lat="42.12283" lon="2.313007">
        <ele>961.602776396875</ele>
        <time>2019-10-07T11:08:15.000Z</time>
      </trkpt>
      <trkpt lat="42.122838" lon="2.312971">
        <ele>961.802788603906</ele>
        <time>2019-10-07T11:08:16.000Z</time>
      </trkpt>
      <trkpt lat="42.122845" lon="2.31293">
        <ele>962.005601621875</ele>
        <time>2019-10-07T11:08:17.000Z</time>
      </trkpt>
      <trkpt lat="42.122848" lon="2.312888">
        <ele>962.402824370312</ele>
        <time>2019-10-07T11:08:18.000Z</time>
      </trkpt>
      <trkpt lat="42.122848" lon="2.312804">
        <ele>962.799987792969</ele>
        <time>2019-10-07T11:08:20.000Z</time>
      </trkpt>
      <trkpt lat="42.122856" lon="2.312719">
        <ele>963.202813017969</ele>
        <time>2019-10-07T11:08:22.000Z</time>
      </trkpt>
      <trkpt lat="42.122882" lon="2.312658">
        <ele>963.602773603334</ele>
        <time>2019-10-07T11:08:24.000Z</time>
      </trkpt>
      <trkpt lat="42.122928" lon="2.312647">
        <ele>963.997199189062</ele>
        <time>2019-10-07T11:08:26.000Z</time>
      </trkpt>
      <trkpt lat="42.122947" lon="2.312673">
        <ele>963.802788603906</ele>
        <time>2019-10-07T11:08:27.000Z</time>
      </trkpt>
      <trkpt lat="42.122965" lon="2.312701">
        <ele>964.002798017397</ele>
        <time>2019-10-07T11:08:28.000Z</time>
      </trkpt>
      <trkpt lat="42.122982" lon="2.312735">
        <ele>964.197408488729</ele>
        <time>2019-10-07T11:08:29.000Z</time>
      </trkpt>
      <trkpt lat="42.122996" lon="2.312765">
        <ele>964.008393198356</ele>
        <time>2019-10-07T11:08:30.000Z</time>
      </trkpt>
      <trkpt lat="42.123015" lon="2.312793">
        <ele>964.597372662178</ele>
        <time>2019-10-07T11:08:31.000Z</time>
      </trkpt>
      <trkpt lat="42.123032" lon="2.31282">
        <ele>964.408417612418</ele>
        <time>2019-10-07T11:08:32.000Z</time>
      </trkpt>
      <trkpt lat="42.123049" lon="2.312841">
        <ele>965</ele>
        <time>2019-10-07T11:08:33.000Z</time>
      </trkpt>
      <trkpt lat="42.123066" lon="2.312857">
        <ele>965.008401578125</ele>
        <time>2019-10-07T11:08:34.000Z</time>
      </trkpt>
      <trkpt lat="42.123083" lon="2.312872">
        <ele>965.599975585938</ele>
        <time>2019-10-07T11:08:35.000Z</time>
      </trkpt>
      <trkpt lat="42.123102" lon="2.312884">
        <ele>965.605577207813</ele>
        <time>2019-10-07T11:08:36.000Z</time>
      </trkpt>
      <trkpt lat="42.123127" lon="2.312901">
        <ele>966</ele>
        <time>2019-10-07T11:08:37.000Z</time>
      </trkpt>
      <trkpt lat="42.123148" lon="2.312911">
        <ele>965.997199189062</ele>
        <time>2019-10-07T11:08:38.000Z</time>
      </trkpt>
      <trkpt lat="42.123171" lon="2.312924">
        <ele>965.802788603906</ele>
        <time>2019-10-07T11:08:39.000Z</time>
      </trkpt>
      <trkpt lat="42.123195" lon="2.312934">
        <ele>966</ele>
        <time>2019-10-07T11:08:40.000Z</time>
      </trkpt>
      <trkpt lat="42.123216" lon="2.312946">
        <ele>966.008401578125</ele>
        <time>2019-10-07T11:08:41.000Z</time>
      </trkpt>
      <trkpt lat="42.123234" lon="2.312953">
        <ele>966.605571620731</ele>
        <time>2019-10-07T11:08:42.000Z</time>
      </trkpt>
      <trkpt lat="42.123254" lon="2.312962">
        <ele>967.01040368125</ele>
        <time>2019-10-07T11:08:43.000Z</time>
      </trkpt>
      <trkpt lat="42.123274" lon="2.312969">
        <ele>967.807791149219</ele>
        <time>2019-10-07T11:08:44.000Z</time>
      </trkpt>
      <trkpt lat="42.123295" lon="2.312979">
        <ele>968.407826976563</ele>
        <time>2019-10-07T11:08:45.000Z</time>
      </trkpt>
      <trkpt lat="42.123319" lon="2.312991">
        <ele>969.00260111875</ele>
        <time>2019-10-07T11:08:46.000Z</time>
      </trkpt>
      <trkpt lat="42.123345" lon="2.313002">
        <ele>969.205213650781</ele>
        <time>2019-10-07T11:08:47.000Z</time>
      </trkpt>
      <trkpt lat="42.12337" lon="2.31301">
        <ele>969.602576704688</ele>
        <time>2019-10-07T11:08:48.000Z</time>
      </trkpt>
      <trkpt lat="42.123399" lon="2.313024">
        <ele>969.802588911719</ele>
        <time>2019-10-07T11:08:49.000Z</time>
      </trkpt>
      <trkpt lat="42.123427" lon="2.313033">
        <ele>970.00260111875</ele>
        <time>2019-10-07T11:08:50.000Z</time>
      </trkpt>
      <trkpt lat="42.123456" lon="2.313046">
        <ele>970.205213650781</ele>
        <time>2019-10-07T11:08:51.000Z</time>
      </trkpt>
      <trkpt lat="42.123479" lon="2.313049">
        <ele>970.597375260938</ele>
        <time>2019-10-07T11:08:52.000Z</time>
      </trkpt>
      <trkpt lat="42.123505" lon="2.31305">
        <ele>970.402624739063</ele>
        <time>2019-10-07T11:08:53.000Z</time>
      </trkpt>
      <trkpt lat="42.123533" lon="2.313054">
        <ele>970.605177823438</ele>
        <time>2019-10-07T11:08:54.000Z</time>
      </trkpt>
      <trkpt lat="42.123564" lon="2.313059">
        <ele>971</ele>
        <time>2019-10-07T11:08:55.000Z</time>
      </trkpt>
      <trkpt lat="42.123591" lon="2.31306">
        <ele>971.0052022375</ele>
        <time>2019-10-07T11:08:56.000Z</time>
      </trkpt>
      <trkpt lat="42.123618" lon="2.313059">
        <ele>971.400024414063</ele>
        <time>2019-10-07T11:08:57.000Z</time>
      </trkpt>
      <trkpt lat="42.123644" lon="2.313057">
        <ele>971.402624739063</ele>
        <time>2019-10-07T11:08:58.000Z</time>
      </trkpt>
      <trkpt lat="42.123755" lon="2.313046">
        <ele>971.210415888281</ele>
        <time>2019-10-07T11:09:02.000Z</time>
      </trkpt>
      <trkpt lat="42.123784" lon="2.313041">
        <ele>972.00260111875</ele>
        <time>2019-10-07T11:09:03.000Z</time>
      </trkpt>
      <trkpt lat="42.123815" lon="2.313034">
        <ele>972.205213650781</ele>
        <time>2019-10-07T11:09:04.000Z</time>
      </trkpt>
      <trkpt lat="42.123924" lon="2.313025">
        <ele>972.810391474219</ele>
        <time>2019-10-07T11:09:08.000Z</time>
      </trkpt>
      <trkpt lat="42.12398" lon="2.313022">
        <ele>973.407826976563</ele>
        <time>2019-10-07T11:09:10.000Z</time>
      </trkpt>
      <trkpt lat="42.124001" lon="2.313016">
        <ele>974</ele>
        <time>2019-10-07T11:09:11.000Z</time>
      </trkpt>
      <trkpt lat="42.12402" lon="2.313012">
        <ele>974.005596034794</ele>
        <time>2019-10-07T11:09:12.000Z</time>
      </trkpt>
      <trkpt lat="42.124045" lon="2.313">
        <ele>974.402624739063</ele>
        <time>2019-10-07T11:09:13.000Z</time>
      </trkpt>
      <trkpt lat="42.124068" lon="2.312916">
        <ele>975.205612974219</ele>
        <time>2019-10-07T11:09:18.000Z</time>
      </trkpt>
      <trkpt lat="42.12406" lon="2.312873">
        <ele>975.805583827763</ele>
        <time>2019-10-07T11:09:20.000Z</time>
      </trkpt>
      <trkpt lat="42.124012" lon="2.312821">
        <ele>976.007810360364</ele>
        <time>2019-10-07T11:09:22.000Z</time>
      </trkpt>
      <trkpt lat="42.124001" lon="2.312682">
        <ele>977.394422792187</ele>
        <time>2019-10-07T11:09:25.000Z</time>
      </trkpt>
      <trkpt lat="42.124022" lon="2.31265">
        <ele>977.005601621875</ele>
        <time>2019-10-07T11:09:26.000Z</time>
      </trkpt>
      <trkpt lat="42.12409" lon="2.312553">
        <ele>977.192208850781</ele>
        <time>2019-10-07T11:09:29.000Z</time>
      </trkpt>
      <trkpt lat="42.124146" lon="2.312495">
        <ele>976.197411088281</ele>
        <time>2019-10-07T11:09:31.000Z</time>
      </trkpt>
      <trkpt lat="42.12417" lon="2.312471">
        <ele>975.997396281698</ele>
        <time>2019-10-07T11:09:32.000Z</time>
      </trkpt>
      <trkpt lat="42.124195" lon="2.312447">
        <ele>975.799987792969</ele>
        <time>2019-10-07T11:09:33.000Z</time>
      </trkpt>
      <trkpt lat="42.124213" lon="2.312408">
        <ele>975.799987792969</ele>
        <time>2019-10-07T11:09:35.000Z</time>
      </trkpt>
      <trkpt lat="42.1232890" lon="2.3129980">
        <ele>967.2</ele>
        <time>2019-10-21T10:35:21Z</time>
      </trkpt>
      <trkpt lat="42.1232160" lon="2.3129710">
        <ele>967.2</ele>
        <time>2019-10-21T10:35:22Z</time>
      </trkpt>
      <trkpt lat="42.1231790" lon="2.3129550">
        <ele>967.2</ele>
        <time>2019-10-21T10:35:23Z</time>
      </trkpt>
      <trkpt lat="42.1231410" lon="2.3129390">
        <ele>967.2</ele>
        <time>2019-10-21T10:35:24Z</time>
      </trkpt>
      <trkpt lat="42.1231040" lon="2.3129230">
        <ele>967.2</ele>
        <time>2019-10-21T10:35:25Z</time>
      </trkpt>
      <trkpt lat="42.1230660" lon="2.3129080">
        <ele>967.2</ele>
        <time>2019-10-21T10:35:26Z</time>
      </trkpt>
      <trkpt lat="42.1230290" lon="2.3128920">
        <ele>967.2</ele>
        <time>2019-10-21T10:35:27Z</time>
      </trkpt>
      <trkpt lat="42.1229910" lon="2.3128760">
        <ele>967.2</ele>
        <time>2019-10-21T10:35:28Z</time>
      </trkpt>
      <trkpt lat="42.1229540" lon="2.3128600">
        <ele>967.2</ele>
        <time>2019-10-21T10:35:29Z</time>
      </trkpt>
      <trkpt lat="42.1229160" lon="2.3128440">
        <ele>967.6</ele>
        <time>2019-10-21T10:35:30Z</time>
      </trkpt>
      <trkpt lat="42.1228750" lon="2.3128200">
        <ele>966.8</ele>
        <time>2019-10-21T10:35:31Z</time>
      </trkpt>
      <trkpt lat="42.1228420" lon="2.3127910">
        <ele>966.4</ele>
        <time>2019-10-21T10:35:32Z</time>
      </trkpt>
      <trkpt lat="42.1228190" lon="2.3127540">
        <ele>966.2</ele>
        <time>2019-10-21T10:35:33Z</time>
      </trkpt>
      <trkpt lat="42.1228030" lon="2.3127120">
        <ele>965.8</ele>
        <time>2019-10-21T10:35:34Z</time>
      </trkpt>
      <trkpt lat="42.1227900" lon="2.3126660">
        <ele>965.8</ele>
        <time>2019-10-21T10:35:35Z</time>
      </trkpt>
      <trkpt lat="42.1227800" lon="2.3126250">
        <ele>965.4</ele>
        <time>2019-10-21T10:35:36Z</time>
      </trkpt>
      <trkpt lat="42.1227720" lon="2.3125820">
        <ele>965.2</ele>
        <time>2019-10-21T10:35:37Z</time>
      </trkpt>
      <trkpt lat="42.1227610" lon="2.3125380">
        <ele>964.8</ele>
        <time>2019-10-21T10:35:38Z</time>
      </trkpt>
      <trkpt lat="42.1227450" lon="2.3125080">
        <ele>964.6</ele>
        <time>2019-10-21T10:35:39Z</time>
      </trkpt>
      <trkpt lat="42.1227230" lon="2.3125060">
        <ele>964.4</ele>
        <time>2019-10-21T10:35:40Z</time>
      </trkpt>
      <trkpt lat="42.1227050" lon="2.3125520">
        <ele>964.4</ele>
        <time>2019-10-21T10:35:41Z</time>
      </trkpt>
      <trkpt lat="42.1227050" lon="2.3125810">
        <ele>964.2</ele>
        <time>2019-10-21T10:35:42Z</time>
      </trkpt>
      <trkpt lat="42.1227040" lon="2.3126090">
        <ele>964.0</ele>
        <time>2019-10-21T10:35:43Z</time>
      </trkpt>
      <trkpt lat="42.1227030" lon="2.3126370">
        <ele>963.8</ele>
        <time>2019-10-21T10:35:44Z</time>
      </trkpt>
      <trkpt lat="42.1227110" lon="2.3127110">
        <ele>963.8</ele>
        <time>2019-10-21T10:35:45Z</time>
      </trkpt>
      <trkpt lat="42.1227130" lon="2.3127460">
        <ele>963.4</ele>
        <time>2019-10-21T10:35:46Z</time>
      </trkpt>
      <trkpt lat="42.1227150" lon="2.3127820">
        <ele>963.0</ele>
        <time>2019-10-21T10:35:47Z</time>
      </trkpt>
      <trkpt lat="42.1227170" lon="2.3128170">
        <ele>962.8</ele>
        <time>2019-10-21T10:35:48Z</time>
      </trkpt>
      <trkpt lat="42.1227160" lon="2.3129020">
        <ele>962.2</ele>
        <time>2019-10-21T10:35:49Z</time>
      </trkpt>
      <trkpt lat="42.1227150" lon="2.3129340">
        <ele>962.2</ele>
        <time>2019-10-21T10:35:50Z</time>
      </trkpt>
      <trkpt lat="42.1227140" lon="2.3129670">
        <ele>961.8</ele>
        <time>2019-10-21T10:35:51Z</time>
      </trkpt>
      <trkpt lat="42.1227120" lon="2.3130170">
        <ele>962.2</ele>
        <time>2019-10-21T10:35:52Z</time>
      </trkpt>
      <trkpt lat="42.1227170" lon="2.3130710">
        <ele>962.0</ele>
        <time>2019-10-21T10:35:53Z</time>
      </trkpt>
      <trkpt lat="42.1227220" lon="2.3131240">
        <ele>961.8</ele>
        <time>2019-10-21T10:35:54Z</time>
      </trkpt>
      <trkpt lat="42.1227210" lon="2.3131830">
        <ele>961.4</ele>
        <time>2019-10-21T10:35:55Z</time>
      </trkpt>
      <trkpt lat="42.1227210" lon="2.3132750">
        <ele>961.0</ele>
        <time>2019-10-21T10:35:56Z</time>
      </trkpt>
      <trkpt lat="42.1227190" lon="2.3133030">
        <ele>960.4</ele>
        <time>2019-10-21T10:35:57Z</time>
      </trkpt>
      <trkpt lat="42.1227140" lon="2.3133550">
        <ele>960.2</ele>
        <time>2019-10-21T10:35:58Z</time>
      </trkpt>
      <trkpt lat="42.1227010" lon="2.3134010">
        <ele>960.2</ele>
        <time>2019-10-21T10:35:59Z</time>
      </trkpt>
      <trkpt lat="42.1226810" lon="2.3134400">
        <ele>960.0</ele>
        <time>2019-10-21T10:36:00Z</time>
      </trkpt>
      <trkpt lat="42.1226500" lon="2.3134700">
        <ele>960.0</ele>
        <time>2019-10-21T10:36:01Z</time>
      </trkpt>
      <trkpt lat="42.1226020" lon="2.3135320">
        <ele>960.0</ele>
        <time>2019-10-21T10:36:02Z</time>
      </trkpt>
      <trkpt lat="42.1225820" lon="2.3135570">
        <ele>959.8</ele>
        <time>2019-10-21T10:36:03Z</time>
      </trkpt>
      <trkpt lat="42.1225610" lon="2.3135810">
        <ele>959.6</ele>
        <time>2019-10-21T10:36:04Z</time>
      </trkpt>
      <trkpt lat="42.1225250" lon="2.3136140">
        <ele>959.4</ele>
        <time>2019-10-21T10:36:05Z</time>
      </trkpt>
      <trkpt lat="42.1224970" lon="2.3136420">
        <ele>959.0</ele>
        <time>2019-10-21T10:36:06Z</time>
      </trkpt>
      <trkpt lat="42.1224710" lon="2.3136650">
        <ele>958.8</ele>
        <time>2019-10-21T10:36:07Z</time>
      </trkpt>
      <trkpt lat="42.1224470" lon="2.3136850">
        <ele>957.8</ele>
        <time>2019-10-21T10:36:08Z</time>
      </trkpt>
      <trkpt lat="42.1224010" lon="2.3137070">
        <ele>958.0</ele>
        <time>2019-10-21T10:36:09Z</time>
      </trkpt>
      <trkpt lat="42.1223840" lon="2.3137120">
        <ele>957.6</ele>
        <time>2019-10-21T10:36:10Z</time>
      </trkpt>
      <trkpt lat="42.1223480" lon="2.3137180">
        <ele>958.0</ele>
        <time>2019-10-21T10:36:11Z</time>
      </trkpt>
      <trkpt lat="42.1223020" lon="2.3137210">
        <ele>957.8</ele>
        <time>2019-10-21T10:36:12Z</time>
      </trkpt>
      <trkpt lat="42.1222570" lon="2.3137210">
        <ele>958.0</ele>
        <time>2019-10-21T10:36:13Z</time>
      </trkpt>
      <trkpt lat="42.1222150" lon="2.3137110">
        <ele>957.6</ele>
        <time>2019-10-21T10:36:14Z</time>
      </trkpt>
      <trkpt lat="42.1221730" lon="2.3137070">
        <ele>957.4</ele>
        <time>2019-10-21T10:36:15Z</time>
      </trkpt>
      <trkpt lat="42.1221350" lon="2.3137020">
        <ele>956.2</ele>
        <time>2019-10-21T10:36:16Z</time>
      </trkpt>
      <trkpt lat="42.1220970" lon="2.3136920">
        <ele>955.4</ele>
        <time>2019-10-21T10:36:17Z</time>
      </trkpt>
      <trkpt lat="42.1220550" lon="2.3136820">
        <ele>954.8</ele>
        <time>2019-10-21T10:36:18Z</time>
      </trkpt>
      <trkpt lat="42.1220130" lon="2.3136780">
        <ele>954.6</ele>
        <time>2019-10-21T10:36:19Z</time>
      </trkpt>
      <trkpt lat="42.1219710" lon="2.3136770">
        <ele>953.8</ele>
        <time>2019-10-21T10:36:20Z</time>
      </trkpt>
      <trkpt lat="42.1219310" lon="2.3136730">
        <ele>953.2</ele>
        <time>2019-10-21T10:36:21Z</time>
      </trkpt>
      <trkpt lat="42.1218900" lon="2.3136650">
        <ele>953.2</ele>
        <time>2019-10-21T10:36:22Z</time>
      </trkpt>
      <trkpt lat="42.1218460" lon="2.3136470">
        <ele>952.8</ele>
        <time>2019-10-21T10:36:23Z</time>
      </trkpt>
      <trkpt lat="42.1218060" lon="2.3136340">
        <ele>952.8</ele>
        <time>2019-10-21T10:36:24Z</time>
      </trkpt>
      <trkpt lat="42.1217620" lon="2.3136300">
        <ele>952.4</ele>
        <time>2019-10-21T10:36:25Z</time>
      </trkpt>
      <trkpt lat="42.1217200" lon="2.3136320">
        <ele>952.2</ele>
        <time>2019-10-21T10:36:26Z</time>
      </trkpt>
      <trkpt lat="42.1216750" lon="2.3136300">
        <ele>951.8</ele>
        <time>2019-10-21T10:36:27Z</time>
      </trkpt>
      <trkpt lat="42.1216330" lon="2.3136260">
        <ele>951.6</ele>
        <time>2019-10-21T10:36:28Z</time>
      </trkpt>
      <trkpt lat="42.1215940" lon="2.3136250">
        <ele>951.2</ele>
        <time>2019-10-21T10:36:29Z</time>
      </trkpt>
      <trkpt lat="42.1215570" lon="2.3136220">
        <ele>951.4</ele>
        <time>2019-10-21T10:36:30Z</time>
      </trkpt>
      <trkpt lat="42.1215240" lon="2.3136220">
        <ele>951.0</ele>
        <time>2019-10-21T10:36:31Z</time>
      </trkpt>
      <trkpt lat="42.1214930" lon="2.3136220">
        <ele>951.2</ele>
        <time>2019-10-21T10:36:32Z</time>
      </trkpt>
      <trkpt lat="42.1214620" lon="2.3136090">
        <ele>950.6</ele>
        <time>2019-10-21T10:36:33Z</time>
      </trkpt>
      <trkpt lat="42.1214310" lon="2.3135860">
        <ele>950.8</ele>
        <time>2019-10-21T10:36:34Z</time>
      </trkpt>
      <trkpt lat="42.1213940" lon="2.3135600">
        <ele>950.0</ele>
        <time>2019-10-21T10:36:35Z</time>
      </trkpt>
      <trkpt lat="42.1213570" lon="2.3135370">
        <ele>950.2</ele>
        <time>2019-10-21T10:36:36Z</time>
      </trkpt>
      <trkpt lat="42.1213170" lon="2.3135170">
        <ele>949.4</ele>
        <time>2019-10-21T10:36:37Z</time>
      </trkpt>
      <trkpt lat="42.1212800" lon="2.3135060">
        <ele>949.6</ele>
        <time>2019-10-21T10:36:38Z</time>
      </trkpt>
      <trkpt lat="42.1212410" lon="2.3135030">
        <ele>949.2</ele>
        <time>2019-10-21T10:36:39Z</time>
      </trkpt>
      <trkpt lat="42.1212410" lon="2.3135030">
        <ele>949.4</ele>
        <time>2019-10-21T10:36:40Z</time>
      </trkpt>
      <trkpt lat="42.1212410" lon="2.3135030">
        <ele>949.0</ele>
        <time>2019-10-21T10:36:41Z</time>
      </trkpt>
      <trkpt lat="42.1211250" lon="2.3135330">
        <ele>949.4</ele>
        <time>2019-10-21T10:36:42Z</time>
      </trkpt>
      <trkpt lat="42.1211250" lon="2.3135330">
        <ele>948.6</ele>
        <time>2019-10-21T10:36:43Z</time>
      </trkpt>
      <trkpt lat="42.1211250" lon="2.3135330">
        <ele>949.0</ele>
        <time>2019-10-21T10:36:44Z</time>
      </trkpt>
      <trkpt lat="42.1210060" lon="2.3135850">
        <ele>948.4</ele>
        <time>2019-10-21T10:36:45Z</time>
      </trkpt>
      <trkpt lat="42.1209700" lon="2.3136020">
        <ele>948.6</ele>
        <time>2019-10-21T10:36:46Z</time>
      </trkpt>
      <trkpt lat="42.1209410" lon="2.3136180">
        <ele>948.0</ele>
        <time>2019-10-21T10:36:47Z</time>
      </trkpt>
      <trkpt lat="42.1209100" lon="2.3136510">
        <ele>948.0</ele>
        <time>2019-10-21T10:36:48Z</time>
      </trkpt>
      <trkpt lat="42.1208860" lon="2.3136850">
        <ele>947.4</ele>
        <time>2019-10-21T10:36:49Z</time>
      </trkpt>
      <trkpt lat="42.1208700" lon="2.3137260">
        <ele>947.6</ele>
        <time>2019-10-21T10:36:50Z</time>
      </trkpt>
      <trkpt lat="42.1208600" lon="2.3137730">
        <ele>946.8</ele>
        <time>2019-10-21T10:36:51Z</time>
      </trkpt>
      <trkpt lat="42.1208590" lon="2.3138260">
        <ele>947.0</ele>
        <time>2019-10-21T10:36:52Z</time>
      </trkpt>
      <trkpt lat="42.1208630" lon="2.3138820">
        <ele>946.2</ele>
        <time>2019-10-21T10:36:53Z</time>
      </trkpt>
      <trkpt lat="42.1208690" lon="2.3139350">
        <ele>946.2</ele>
        <time>2019-10-21T10:36:54Z</time>
      </trkpt>
      <trkpt lat="42.1208690" lon="2.3139910">
        <ele>945.2</ele>
        <time>2019-10-21T10:36:55Z</time>
      </trkpt>
      <trkpt lat="42.1208640" lon="2.3140410">
        <ele>945.6</ele>
        <time>2019-10-21T10:36:56Z</time>
      </trkpt>
      <trkpt lat="42.1208450" lon="2.3140920">
        <ele>945.8</ele>
        <time>2019-10-21T10:36:57Z</time>
      </trkpt>
      <trkpt lat="42.1208160" lon="2.3141300">
        <ele>945.4</ele>
        <time>2019-10-21T10:36:58Z</time>
      </trkpt>
      <trkpt lat="42.1207820" lon="2.3141630">
        <ele>945.6</ele>
        <time>2019-10-21T10:36:59Z</time>
      </trkpt>
      <trkpt lat="42.1207500" lon="2.3141800">
        <ele>945.0</ele>
        <time>2019-10-21T10:37:00Z</time>
      </trkpt>
      <trkpt lat="42.1207180" lon="2.3141910">
        <ele>945.2</ele>
        <time>2019-10-21T10:37:01Z</time>
      </trkpt>
      <trkpt lat="42.1206640" lon="2.3141810">
        <ele>945.2</ele>
        <time>2019-10-21T10:37:02Z</time>
      </trkpt>
      <trkpt lat="42.1206420" lon="2.3141740">
        <ele>944.4</ele>
        <time>2019-10-21T10:37:03Z</time>
      </trkpt>
      <trkpt lat="42.1206000" lon="2.3141670">
        <ele>944.0</ele>
        <time>2019-10-21T10:37:04Z</time>
      </trkpt>
      <trkpt lat="42.1205620" lon="2.3141700">
        <ele>944.8</ele>
        <time>2019-10-21T10:37:05Z</time>
      </trkpt>
      <trkpt lat="42.1205240" lon="2.3141770">
        <ele>944.0</ele>
        <time>2019-10-21T10:37:06Z</time>
      </trkpt>
      <trkpt lat="42.1204830" lon="2.3141750">
        <ele>944.4</ele>
        <time>2019-10-21T10:37:07Z</time>
      </trkpt>
      <trkpt lat="42.1204830" lon="2.3141750">
        <ele>943.6</ele>
        <time>2019-10-21T10:37:08Z</time>
      </trkpt>
      <trkpt lat="42.1204830" lon="2.3141750">
        <ele>943.8</ele>
        <time>2019-10-21T10:37:09Z</time>
      </trkpt>
      <trkpt lat="42.1203680" lon="2.3141500">
        <ele>942.8</ele>
        <time>2019-10-21T10:37:10Z</time>
      </trkpt>
      <trkpt lat="42.1203680" lon="2.3141500">
        <ele>942.4</ele>
        <time>2019-10-21T10:37:11Z</time>
      </trkpt>
      <trkpt lat="42.1203680" lon="2.3141500">
        <ele>941.4</ele>
        <time>2019-10-21T10:37:12Z</time>
      </trkpt>
      <trkpt lat="42.1202470" lon="2.3141320">
        <ele>940.2</ele>
        <time>2019-10-21T10:37:13Z</time>
      </trkpt>
      <trkpt lat="42.1202470" lon="2.3141320">
        <ele>940.2</ele>
        <time>2019-10-21T10:37:14Z</time>
      </trkpt>
      <trkpt lat="42.1202470" lon="2.3141320">
        <ele>939.8</ele>
        <time>2019-10-21T10:37:15Z</time>
      </trkpt>
      <trkpt lat="42.1201270" lon="2.3141370">
        <ele>939.2</ele>
        <time>2019-10-21T10:37:16Z</time>
      </trkpt>
      <trkpt lat="42.1201270" lon="2.3141370">
        <ele>939.2</ele>
        <time>2019-10-21T10:37:17Z</time>
      </trkpt>
      <trkpt lat="42.1201270" lon="2.3141370">
        <ele>939.2</ele>
        <time>2019-10-21T10:37:18Z</time>
      </trkpt>
      <trkpt lat="42.1200060" lon="2.3141320">
        <ele>939.0</ele>
        <time>2019-10-21T10:37:19Z</time>
      </trkpt>
      <trkpt lat="42.1200060" lon="2.3141320">
        <ele>938.8</ele>
        <time>2019-10-21T10:37:20Z</time>
      </trkpt>
      <trkpt lat="42.1200060" lon="2.3141320">
        <ele>938.6</ele>
        <time>2019-10-21T10:37:21Z</time>
      </trkpt>
      <trkpt lat="42.1198930" lon="2.3141470">
        <ele>938.6</ele>
        <time>2019-10-21T10:37:22Z</time>
      </trkpt>
      <trkpt lat="42.1198930" lon="2.3141470">
        <ele>938.2</ele>
        <time>2019-10-21T10:37:23Z</time>
      </trkpt>
      <trkpt lat="42.1198930" lon="2.3141470">
        <ele>938.4</ele>
        <time>2019-10-21T10:37:24Z</time>
      </trkpt>
      <trkpt lat="42.1198090" lon="2.3141940">
        <ele>938.0</ele>
        <time>2019-10-21T10:37:25Z</time>
      </trkpt>
      <trkpt lat="42.1198090" lon="2.3141940">
        <ele>938.0</ele>
        <time>2019-10-21T10:37:26Z</time>
      </trkpt>
      <trkpt lat="42.1198090" lon="2.3141940">
        <ele>937.2</ele>
        <time>2019-10-21T10:37:27Z</time>
      </trkpt>
      <trkpt lat="42.1198090" lon="2.3141940">
        <ele>937.4</ele>
        <time>2019-10-21T10:37:28Z</time>
      </trkpt>
      <trkpt lat="42.1197010" lon="2.3142560">
        <ele>936.8</ele>
        <time>2019-10-21T10:37:29Z</time>
      </trkpt>
      <trkpt lat="42.1196890" lon="2.3142730">
        <ele>935.6</ele>
        <time>2019-10-21T10:37:30Z</time>
      </trkpt>
      <trkpt lat="42.1196770" lon="2.3142910">
        <ele>935.2</ele>
        <time>2019-10-21T10:37:31Z</time>
      </trkpt>
      <trkpt lat="42.1196650" lon="2.3143080">
        <ele>934.8</ele>
        <time>2019-10-21T10:37:32Z</time>
      </trkpt>
      <trkpt lat="42.1196170" lon="2.3143740">
        <ele>934.4</ele>
        <time>2019-10-21T10:37:33Z</time>
      </trkpt>
      <trkpt lat="42.1196050" lon="2.3143890">
        <ele>934.0</ele>
        <time>2019-10-21T10:37:34Z</time>
      </trkpt>
      <trkpt lat="42.1195930" lon="2.3144040">
        <ele>933.8</ele>
        <time>2019-10-21T10:37:35Z</time>
      </trkpt>
      <trkpt lat="42.1195560" lon="2.3144490">
        <ele>933.2</ele>
        <time>2019-10-21T10:37:36Z</time>
      </trkpt>
      <trkpt lat="42.1195560" lon="2.3144490">
        <ele>933.2</ele>
        <time>2019-10-21T10:37:37Z</time>
      </trkpt>
      <trkpt lat="42.1194770" lon="2.3145460">
        <ele>932.6</ele>
        <time>2019-10-21T10:37:38Z</time>
      </trkpt>
      <trkpt lat="42.1194770" lon="2.3145460">
        <ele>932.8</ele>
        <time>2019-10-21T10:37:39Z</time>
      </trkpt>
      <trkpt lat="42.1194770" lon="2.3145460">
        <ele>931.8</ele>
        <time>2019-10-21T10:37:40Z</time>
      </trkpt>
      <trkpt lat="42.1194080" lon="2.3146590">
        <ele>931.6</ele>
        <time>2019-10-21T10:37:41Z</time>
      </trkpt>
      <trkpt lat="42.1194080" lon="2.3146590">
        <ele>930.2</ele>
        <time>2019-10-21T10:37:42Z</time>
      </trkpt>
      <trkpt lat="42.1194080" lon="2.3146590">
        <ele>929.6</ele>
        <time>2019-10-21T10:37:43Z</time>
      </trkpt>
      <trkpt lat="42.1193190" lon="2.3147620">
        <ele>929.6</ele>
        <time>2019-10-21T10:37:44Z</time>
      </trkpt>
      <trkpt lat="42.1193190" lon="2.3147620">
        <ele>929.6</ele>
        <time>2019-10-21T10:37:45Z</time>
      </trkpt>
      <trkpt lat="42.1193190" lon="2.3147620">
        <ele>929.2</ele>
        <time>2019-10-21T10:37:46Z</time>
      </trkpt>
      <trkpt lat="42.1192370" lon="2.3148420">
        <ele>928.8</ele>
        <time>2019-10-21T10:37:47Z</time>
      </trkpt>
      <trkpt lat="42.1192370" lon="2.3148420">
        <ele>928.6</ele>
        <time>2019-10-21T10:37:48Z</time>
      </trkpt>
      <trkpt lat="42.1192370" lon="2.3148420">
        <ele>927.8</ele>
        <time>2019-10-21T10:37:49Z</time>
      </trkpt>
      <trkpt lat="42.1192370" lon="2.3148420">
        <ele>927.4</ele>
        <time>2019-10-21T10:37:50Z</time>
      </trkpt>
      <trkpt lat="42.1191340" lon="2.3148880">
        <ele>926.6</ele>
        <time>2019-10-21T10:37:51Z</time>
      </trkpt>
      <trkpt lat="42.1191340" lon="2.3148880">
        <ele>926.0</ele>
        <time>2019-10-21T10:37:52Z</time>
      </trkpt>
      <trkpt lat="42.1191340" lon="2.3148880">
        <ele>925.8</ele>
        <time>2019-10-21T10:37:53Z</time>
      </trkpt>
      <trkpt lat="42.1190340" lon="2.3148870">
        <ele>925.4</ele>
        <time>2019-10-21T10:37:54Z</time>
      </trkpt>
      <trkpt lat="42.1190340" lon="2.3148870">
        <ele>925.2</ele>
        <time>2019-10-21T10:37:55Z</time>
      </trkpt>
      <trkpt lat="42.1190340" lon="2.3148870">
        <ele>924.8</ele>
        <time>2019-10-21T10:37:56Z</time>
      </trkpt>
      <trkpt lat="42.1190340" lon="2.3148870">
        <ele>925.2</ele>
        <time>2019-10-21T10:37:57Z</time>
      </trkpt>
      <trkpt lat="42.1189480" lon="2.3150010">
        <ele>924.6</ele>
        <time>2019-10-21T10:37:58Z</time>
      </trkpt>
      <trkpt lat="42.1189490" lon="2.3150230">
        <ele>925.2</ele>
        <time>2019-10-21T10:37:59Z</time>
      </trkpt>
      <trkpt lat="42.1189490" lon="2.3150440">
        <ele>924.2</ele>
        <time>2019-10-21T10:38:00Z</time>
      </trkpt>
      <trkpt lat="42.1189390" lon="2.3151270">
        <ele>924.4</ele>
        <time>2019-10-21T10:38:01Z</time>
      </trkpt>
      <trkpt lat="42.1189280" lon="2.3151450">
        <ele>923.6</ele>
        <time>2019-10-21T10:38:02Z</time>
      </trkpt>
      <trkpt lat="42.1189170" lon="2.3151640">
        <ele>923.6</ele>
        <time>2019-10-21T10:38:03Z</time>
      </trkpt>
      <trkpt lat="42.1188690" lon="2.3152300">
        <ele>922.2</ele>
        <time>2019-10-21T10:38:04Z</time>
      </trkpt>
      <trkpt lat="42.1188540" lon="2.3152390">
        <ele>921.6</ele>
        <time>2019-10-21T10:38:05Z</time>
      </trkpt>
      <trkpt lat="42.1188400" lon="2.3152490">
        <ele>921.2</ele>
        <time>2019-10-21T10:38:06Z</time>
      </trkpt>
      <trkpt lat="42.1187800" lon="2.3152950">
        <ele>921.2</ele>
        <time>2019-10-21T10:38:07Z</time>
      </trkpt>
      <trkpt lat="42.1187620" lon="2.3153120">
        <ele>920.8</ele>
        <time>2019-10-21T10:38:08Z</time>
      </trkpt>
      <trkpt lat="42.1187450" lon="2.3153300">
        <ele>921.0</ele>
        <time>2019-10-21T10:38:09Z</time>
      </trkpt>
      <trkpt lat="42.1186750" lon="2.3153920">
        <ele>920.2</ele>
        <time>2019-10-21T10:38:10Z</time>
      </trkpt>
      <trkpt lat="42.1186560" lon="2.3154030">
        <ele>919.8</ele>
        <time>2019-10-21T10:38:11Z</time>
      </trkpt>
      <trkpt lat="42.1186380" lon="2.3154130">
        <ele>919.2</ele>
        <time>2019-10-21T10:38:12Z</time>
      </trkpt>
      <trkpt lat="42.1185830" lon="2.3154430">
        <ele>919.6</ele>
        <time>2019-10-21T10:38:13Z</time>
      </trkpt>
      <trkpt lat="42.1185830" lon="2.3154430">
        <ele>919.6</ele>
        <time>2019-10-21T10:38:14Z</time>
      </trkpt>
      <trkpt lat="42.1185830" lon="2.3154430">
        <ele>919.4</ele>
        <time>2019-10-21T10:38:15Z</time>
      </trkpt>
      <trkpt lat="42.1184560" lon="2.3154810">
        <ele>919.2</ele>
        <time>2019-10-21T10:38:16Z</time>
      </trkpt>
      <trkpt lat="42.1184410" lon="2.3154850">
        <ele>918.8</ele>
        <time>2019-10-21T10:38:17Z</time>
      </trkpt>
      <trkpt lat="42.1184270" lon="2.3154880">
        <ele>919.0</ele>
        <time>2019-10-21T10:38:18Z</time>
      </trkpt>
      <trkpt lat="42.1184120" lon="2.3154910">
        <ele>918.6</ele>
        <time>2019-10-21T10:38:19Z</time>
      </trkpt>
      <trkpt lat="42.1183160" lon="2.3155050">
        <ele>919.0</ele>
        <time>2019-10-21T10:38:20Z</time>
      </trkpt>
      <trkpt lat="42.1182800" lon="2.3155060">
        <ele>918.4</ele>
        <time>2019-10-21T10:38:21Z</time>
      </trkpt>
      <trkpt lat="42.1182430" lon="2.3155080">
        <ele>919.0</ele>
        <time>2019-10-21T10:38:22Z</time>
      </trkpt>
      <trkpt lat="42.1182120" lon="2.3155200">
        <ele>918.4</ele>
        <time>2019-10-21T10:38:23Z</time>
      </trkpt>
      <trkpt lat="42.1181810" lon="2.3155320">
        <ele>918.4</ele>
        <time>2019-10-21T10:38:24Z</time>
      </trkpt>
      <trkpt lat="42.1181500" lon="2.3155440">
        <ele>916.8</ele>
        <time>2019-10-21T10:38:25Z</time>
      </trkpt>
      <trkpt lat="42.1181420" lon="2.3155620">
        <ele>916.8</ele>
        <time>2019-10-21T10:38:26Z</time>
      </trkpt>
      <trkpt lat="42.1181350" lon="2.3155810">
        <ele>916.8</ele>
        <time>2019-10-21T10:38:27Z</time>
      </trkpt>
      <trkpt lat="42.1181270" lon="2.3155990">
        <ele>917.0</ele>
        <time>2019-10-21T10:38:28Z</time>
      </trkpt>
      <trkpt lat="42.1181070" lon="2.3156730">
        <ele>917.4</ele>
        <time>2019-10-21T10:38:29Z</time>
      </trkpt>
      <trkpt lat="42.1181110" lon="2.3156930">
        <ele>917.6</ele>
        <time>2019-10-21T10:38:30Z</time>
      </trkpt>
      <trkpt lat="42.1181140" lon="2.3157130">
        <ele>918.2</ele>
        <time>2019-10-21T10:38:31Z</time>
      </trkpt>
      <trkpt lat="42.1181260" lon="2.3158060">
        <ele>918.0</ele>
        <time>2019-10-21T10:38:32Z</time>
      </trkpt>
      <trkpt lat="42.1181290" lon="2.3158390">
        <ele>918.6</ele>
        <time>2019-10-21T10:38:33Z</time>
      </trkpt>
      <trkpt lat="42.1181310" lon="2.3158720">
        <ele>918.2</ele>
        <time>2019-10-21T10:38:34Z</time>
      </trkpt>
      <trkpt lat="42.1181390" lon="2.3159900">
        <ele>918.2</ele>
        <time>2019-10-21T10:38:35Z</time>
      </trkpt>
      <trkpt lat="42.1181410" lon="2.3160080">
        <ele>917.6</ele>
        <time>2019-10-21T10:38:36Z</time>
      </trkpt>
      <trkpt lat="42.1181430" lon="2.3160270">
        <ele>917.0</ele>
        <time>2019-10-21T10:38:37Z</time>
      </trkpt>
      <trkpt lat="42.1181500" lon="2.3160610">
        <ele>916.0</ele>
        <time>2019-10-21T10:38:38Z</time>
      </trkpt>
      <trkpt lat="42.1181530" lon="2.3160790">
        <ele>916.0</ele>
        <time>2019-10-21T10:38:39Z</time>
      </trkpt>
      <trkpt lat="42.1181550" lon="2.3160960">
        <ele>915.2</ele>
        <time>2019-10-21T10:38:40Z</time>
      </trkpt>
      <trkpt lat="42.1181580" lon="2.3161140">
        <ele>915.8</ele>
        <time>2019-10-21T10:38:41Z</time>
      </trkpt>
      <trkpt lat="42.1181650" lon="2.3162040">
        <ele>915.0</ele>
        <time>2019-10-21T10:38:42Z</time>
      </trkpt>
      <trkpt lat="42.1181620" lon="2.3162240">
        <ele>915.2</ele>
        <time>2019-10-21T10:38:43Z</time>
      </trkpt>
      <trkpt lat="42.1181580" lon="2.3162440">
        <ele>914.2</ele>
        <time>2019-10-21T10:38:44Z</time>
      </trkpt>
      <trkpt lat="42.1181410" lon="2.3162630">
        <ele>913.2</ele>
        <time>2019-10-21T10:38:45Z</time>
      </trkpt>
      <trkpt lat="42.1181230" lon="2.3162820">
        <ele>913.0</ele>
        <time>2019-10-21T10:38:46Z</time>
      </trkpt>
      <trkpt lat="42.1181060" lon="2.3163000">
        <ele>913.2</ele>
        <time>2019-10-21T10:38:47Z</time>
      </trkpt>
      <trkpt lat="42.1180880" lon="2.3163190">
        <ele>913.4</ele>
        <time>2019-10-21T10:38:48Z</time>
      </trkpt>
      <trkpt lat="42.1180880" lon="2.3163190">
        <ele>913.0</ele>
        <time>2019-10-21T10:38:49Z</time>
      </trkpt>
      <trkpt lat="42.1180880" lon="2.3163190">
        <ele>913.4</ele>
        <time>2019-10-21T10:38:50Z</time>
      </trkpt>
      <trkpt lat="42.1180880" lon="2.3163190">
        <ele>912.8</ele>
        <time>2019-10-21T10:38:51Z</time>
      </trkpt>
      <trkpt lat="42.1179570" lon="2.3162840">
        <ele>913.4</ele>
        <time>2019-10-21T10:38:52Z</time>
      </trkpt>
      <trkpt lat="42.1179390" lon="2.3162780">
        <ele>912.8</ele>
        <time>2019-10-21T10:38:53Z</time>
      </trkpt>
      <trkpt lat="42.1179220" lon="2.3162730">
        <ele>913.0</ele>
        <time>2019-10-21T10:38:54Z</time>
      </trkpt>
      <trkpt lat="42.1178700" lon="2.3162570">
        <ele>912.6</ele>
        <time>2019-10-21T10:38:55Z</time>
      </trkpt>
      <trkpt lat="42.1178700" lon="2.3162570">
        <ele>912.6</ele>
        <time>2019-10-21T10:38:56Z</time>
      </trkpt>
      <trkpt lat="42.1178700" lon="2.3162570">
        <ele>911.6</ele>
        <time>2019-10-21T10:38:57Z</time>
      </trkpt>
      <trkpt lat="42.1177380" lon="2.3162490">
        <ele>911.4</ele>
        <time>2019-10-21T10:38:58Z</time>
      </trkpt>
      <trkpt lat="42.1177190" lon="2.3162550">
        <ele>911.6</ele>
        <time>2019-10-21T10:38:59Z</time>
      </trkpt>
      <trkpt lat="42.1176990" lon="2.3162610">
        <ele>911.2</ele>
        <time>2019-10-21T10:39:00Z</time>
      </trkpt>
      <trkpt lat="42.1176280" lon="2.3162950">
        <ele>911.8</ele>
        <time>2019-10-21T10:39:01Z</time>
      </trkpt>
      <trkpt lat="42.1176180" lon="2.3163100">
        <ele>911.8</ele>
        <time>2019-10-21T10:39:02Z</time>
      </trkpt>
      <trkpt lat="42.1176070" lon="2.3163260">
        <ele>912.4</ele>
        <time>2019-10-21T10:39:03Z</time>
      </trkpt>
      <trkpt lat="42.1175630" lon="2.3163940">
        <ele>912.4</ele>
        <time>2019-10-21T10:39:04Z</time>
      </trkpt>
      <trkpt lat="42.1175510" lon="2.3164160">
        <ele>912.8</ele>
        <time>2019-10-21T10:39:05Z</time>
      </trkpt>
      <trkpt lat="42.1175390" lon="2.3164370">
        <ele>912.2</ele>
        <time>2019-10-21T10:39:06Z</time>
      </trkpt>
      <trkpt lat="42.1174880" lon="2.3165130">
        <ele>912.6</ele>
        <time>2019-10-21T10:39:07Z</time>
      </trkpt>
      <trkpt lat="42.1174730" lon="2.3165240">
        <ele>912.4</ele>
        <time>2019-10-21T10:39:08Z</time>
      </trkpt>
      <trkpt lat="42.1174590" lon="2.3165360">
        <ele>912.8</ele>
        <time>2019-10-21T10:39:09Z</time>
      </trkpt>
      <trkpt lat="42.1173970" lon="2.3165750">
        <ele>912.0</ele>
        <time>2019-10-21T10:39:10Z</time>
      </trkpt>
      <trkpt lat="42.1173780" lon="2.3165800">
        <ele>911.8</ele>
        <time>2019-10-21T10:39:11Z</time>
      </trkpt>
      <trkpt lat="42.1173600" lon="2.3165840">
        <ele>911.6</ele>
        <time>2019-10-21T10:39:12Z</time>
      </trkpt>
      <trkpt lat="42.1172690" lon="2.3166150">
        <ele>912.4</ele>
        <time>2019-10-21T10:39:13Z</time>
      </trkpt>
      <trkpt lat="42.1172320" lon="2.3166320">
        <ele>911.8</ele>
        <time>2019-10-21T10:39:14Z</time>
      </trkpt>
      <trkpt lat="42.1171960" lon="2.3166500">
        <ele>912.0</ele>
        <time>2019-10-21T10:39:15Z</time>
      </trkpt>
      <trkpt lat="42.1171620" lon="2.3166690">
        <ele>912.6</ele>
        <time>2019-10-21T10:39:16Z</time>
      </trkpt>
      <trkpt lat="42.1171280" lon="2.3166890">
        <ele>913.0</ele>
        <time>2019-10-21T10:39:17Z</time>
      </trkpt>
      <trkpt lat="42.1170940" lon="2.3167080">
        <ele>913.2</ele>
        <time>2019-10-21T10:39:18Z</time>
      </trkpt>
      <trkpt lat="42.1170640" lon="2.3167440">
        <ele>913.2</ele>
        <time>2019-10-21T10:39:19Z</time>
      </trkpt>
      <trkpt lat="42.1170330" lon="2.3167790">
        <ele>913.4</ele>
        <time>2019-10-21T10:39:20Z</time>
      </trkpt>
      <trkpt lat="42.1170030" lon="2.3168150">
        <ele>912.6</ele>
        <time>2019-10-21T10:39:21Z</time>
      </trkpt>
      <trkpt lat="42.1169770" lon="2.3168510">
        <ele>912.6</ele>
        <time>2019-10-21T10:39:22Z</time>
      </trkpt>
      <trkpt lat="42.1169510" lon="2.3168880">
        <ele>911.6</ele>
        <time>2019-10-21T10:39:23Z</time>
      </trkpt>
      <trkpt lat="42.1169250" lon="2.3169240">
        <ele>911.8</ele>
        <time>2019-10-21T10:39:24Z</time>
      </trkpt>
      <trkpt lat="42.1169250" lon="2.3169240">
        <ele>911.0</ele>
        <time>2019-10-21T10:39:25Z</time>
      </trkpt>
      <trkpt lat="42.1169250" lon="2.3169240">
        <ele>910.6</ele>
        <time>2019-10-21T10:39:26Z</time>
      </trkpt>
      <trkpt lat="42.1168410" lon="2.3170040">
        <ele>910.6</ele>
        <time>2019-10-21T10:39:27Z</time>
      </trkpt>
      <trkpt lat="42.1168110" lon="2.3170210">
        <ele>910.0</ele>
        <time>2019-10-21T10:39:28Z</time>
      </trkpt>
      <trkpt lat="42.1167810" lon="2.3170390">
        <ele>909.8</ele>
        <time>2019-10-21T10:39:29Z</time>
      </trkpt>
      <trkpt lat="42.1167500" lon="2.3170560">
        <ele>909.4</ele>
        <time>2019-10-21T10:39:30Z</time>
      </trkpt>
      <trkpt lat="42.1167200" lon="2.3170730">
        <ele>909.6</ele>
        <time>2019-10-21T10:39:31Z</time>
      </trkpt>
      <trkpt lat="42.1166660" lon="2.3171110">
        <ele>908.6</ele>
        <time>2019-10-21T10:39:32Z</time>
      </trkpt>
      <trkpt lat="42.1166120" lon="2.3171490">
        <ele>908.6</ele>
        <time>2019-10-21T10:39:33Z</time>
      </trkpt>
      <trkpt lat="42.1165910" lon="2.3171680">
        <ele>908.4</ele>
        <time>2019-10-21T10:39:34Z</time>
      </trkpt>
      <trkpt lat="42.1165700" lon="2.3171870">
        <ele>907.4</ele>
        <time>2019-10-21T10:39:35Z</time>
      </trkpt>
      <trkpt lat="42.1165490" lon="2.3172060">
        <ele>907.4</ele>
        <time>2019-10-21T10:39:36Z</time>
      </trkpt>
      <trkpt lat="42.1165280" lon="2.3172250">
        <ele>906.8</ele>
        <time>2019-10-21T10:39:37Z</time>
      </trkpt>
      <trkpt lat="42.1165160" lon="2.3172560">
        <ele>907.0</ele>
        <time>2019-10-21T10:39:38Z</time>
      </trkpt>
      <trkpt lat="42.1165030" lon="2.3172880">
        <ele>905.8</ele>
        <time>2019-10-21T10:39:39Z</time>
      </trkpt>
      <trkpt lat="42.1164910" lon="2.3173190">
        <ele>905.4</ele>
        <time>2019-10-21T10:39:40Z</time>
      </trkpt>
      <trkpt lat="42.1164780" lon="2.3173510">
        <ele>905.2</ele>
        <time>2019-10-21T10:39:41Z</time>
      </trkpt>
      <trkpt lat="42.1164660" lon="2.3173820">
        <ele>905.2</ele>
        <time>2019-10-21T10:39:42Z</time>
      </trkpt>
      <trkpt lat="42.1164680" lon="2.3174450">
        <ele>905.2</ele>
        <time>2019-10-21T10:39:43Z</time>
      </trkpt>
      <trkpt lat="42.1164680" lon="2.3174450">
        <ele>905.2</ele>
        <time>2019-10-21T10:39:44Z</time>
      </trkpt>
      <trkpt lat="42.1164680" lon="2.3174450">
        <ele>905.6</ele>
        <time>2019-10-21T10:39:45Z</time>
      </trkpt>
      <trkpt lat="42.1164610" lon="2.3174690">
        <ele>905.4</ele>
        <time>2019-10-21T10:39:46Z</time>
      </trkpt>
      <trkpt lat="42.1164540" lon="2.3174920">
        <ele>905.4</ele>
        <time>2019-10-21T10:39:47Z</time>
      </trkpt>
      <trkpt lat="42.1164470" lon="2.3175160">
        <ele>904.4</ele>
        <time>2019-10-21T10:39:48Z</time>
      </trkpt>
      <trkpt lat="42.1164250" lon="2.3175860">
        <ele>904.0</ele>
        <time>2019-10-21T10:39:49Z</time>
      </trkpt>
      <trkpt lat="42.1164250" lon="2.3175860">
        <ele>904.2</ele>
        <time>2019-10-21T10:39:50Z</time>
      </trkpt>
      <trkpt lat="42.1164250" lon="2.3175860">
        <ele>904.2</ele>
        <time>2019-10-21T10:39:51Z</time>
      </trkpt>
      <trkpt lat="42.1163900" lon="2.3176310">
        <ele>904.4</ele>
        <time>2019-10-21T10:39:52Z</time>
      </trkpt>
      <trkpt lat="42.1163540" lon="2.3176760">
        <ele>904.2</ele>
        <time>2019-10-21T10:39:53Z</time>
      </trkpt>
      <trkpt lat="42.1163380" lon="2.3176840">
        <ele>904.6</ele>
        <time>2019-10-21T10:39:54Z</time>
      </trkpt>
      <trkpt lat="42.1163210" lon="2.3176920">
        <ele>903.8</ele>
        <time>2019-10-21T10:39:55Z</time>
      </trkpt>
      <trkpt lat="42.1163050" lon="2.3177000">
        <ele>904.2</ele>
        <time>2019-10-21T10:39:56Z</time>
      </trkpt>
      <trkpt lat="42.1162560" lon="2.3177240">
        <ele>903.6</ele>
        <time>2019-10-21T10:39:57Z</time>
      </trkpt>
      <trkpt lat="42.1162560" lon="2.3177240">
        <ele>904.0</ele>
        <time>2019-10-21T10:39:58Z</time>
      </trkpt>
      <trkpt lat="42.1162560" lon="2.3177240">
        <ele>903.0</ele>
        <time>2019-10-21T10:39:59Z</time>
      </trkpt>
      <trkpt lat="42.1161280" lon="2.3177690">
        <ele>903.0</ele>
        <time>2019-10-21T10:40:00Z</time>
      </trkpt>
      <trkpt lat="42.1161170" lon="2.3177850">
        <ele>903.2</ele>
        <time>2019-10-21T10:40:01Z</time>
      </trkpt>
      <trkpt lat="42.1161070" lon="2.3178020">
        <ele>903.0</ele>
        <time>2019-10-21T10:40:02Z</time>
      </trkpt>
      <trkpt lat="42.1160750" lon="2.3178520">
        <ele>903.4</ele>
        <time>2019-10-21T10:40:03Z</time>
      </trkpt>
      <trkpt lat="42.1160750" lon="2.3178520">
        <ele>902.8</ele>
        <time>2019-10-21T10:40:04Z</time>
      </trkpt>
      <trkpt lat="42.1160750" lon="2.3178520">
        <ele>902.4</ele>
        <time>2019-10-21T10:40:05Z</time>
      </trkpt>
      <trkpt lat="42.1160720" lon="2.3179020">
        <ele>902.0</ele>
        <time>2019-10-21T10:40:06Z</time>
      </trkpt>
      <trkpt lat="42.1160700" lon="2.3179520">
        <ele>902.2</ele>
        <time>2019-10-21T10:40:07Z</time>
      </trkpt>
      <trkpt lat="42.1160670" lon="2.3180020">
        <ele>902.8</ele>
        <time>2019-10-21T10:40:08Z</time>
      </trkpt>
      <trkpt lat="42.1160640" lon="2.3180280">
        <ele>903.0</ele>
        <time>2019-10-21T10:40:09Z</time>
      </trkpt>
      <trkpt lat="42.1160620" lon="2.3180540">
        <ele>903.8</ele>
        <time>2019-10-21T10:40:10Z</time>
      </trkpt>
      <trkpt lat="42.1160590" lon="2.3180800">
        <ele>903.6</ele>
        <time>2019-10-21T10:40:11Z</time>
      </trkpt>
      <trkpt lat="42.1160460" lon="2.3181850">
        <ele>904.2</ele>
        <time>2019-10-21T10:40:12Z</time>
      </trkpt>
      <trkpt lat="42.1160410" lon="2.3182140">
        <ele>903.6</ele>
        <time>2019-10-21T10:40:13Z</time>
      </trkpt>
      <trkpt lat="42.1160360" lon="2.3182420">
        <ele>903.8</ele>
        <time>2019-10-21T10:40:14Z</time>
      </trkpt>
      <trkpt lat="42.1160140" lon="2.3183040">
        <ele>903.2</ele>
        <time>2019-10-21T10:40:15Z</time>
      </trkpt>
      <trkpt lat="42.1160040" lon="2.3183240">
        <ele>902.8</ele>
        <time>2019-10-21T10:40:16Z</time>
      </trkpt>
      <trkpt lat="42.1159930" lon="2.3183440">
        <ele>903.2</ele>
        <time>2019-10-21T10:40:17Z</time>
      </trkpt>
      <trkpt lat="42.1159720" lon="2.3183710">
        <ele>903.2</ele>
        <time>2019-10-21T10:40:18Z</time>
      </trkpt>
      <trkpt lat="42.1159690" lon="2.3183780">
        <ele>903.6</ele>
        <time>2019-10-21T10:40:19Z</time>
      </trkpt>
      <trkpt lat="42.1159650" lon="2.3183860">
        <ele>903.4</ele>
        <time>2019-10-21T10:40:20Z</time>
      </trkpt>
      <trkpt lat="42.1159530" lon="2.3184140">
        <ele>903.8</ele>
        <time>2019-10-21T10:40:21Z</time>
      </trkpt>
      <trkpt lat="42.1159540" lon="2.3184210">
        <ele>903.4</ele>
        <time>2019-10-21T10:40:22Z</time>
      </trkpt>
      <trkpt lat="42.1159540" lon="2.3184270">
        <ele>903.8</ele>
        <time>2019-10-21T10:40:23Z</time>
      </trkpt>
      <trkpt lat="42.1159570" lon="2.3184700">
        <ele>903.2</ele>
        <time>2019-10-21T10:40:24Z</time>
      </trkpt>
      <trkpt lat="42.1159610" lon="2.3184930">
        <ele>903.6</ele>
        <time>2019-10-21T10:40:25Z</time>
      </trkpt>
      <trkpt lat="42.1159640" lon="2.3185160">
        <ele>902.8</ele>
        <time>2019-10-21T10:40:26Z</time>
      </trkpt>
      <trkpt lat="42.1159620" lon="2.3185740">
        <ele>903.0</ele>
        <time>2019-10-21T10:40:27Z</time>
      </trkpt>
      <trkpt lat="42.1159530" lon="2.3185890">
        <ele>902.4</ele>
        <time>2019-10-21T10:40:28Z</time>
      </trkpt>
      <trkpt lat="42.1159440" lon="2.3186030">
        <ele>902.0</ele>
        <time>2019-10-21T10:40:29Z</time>
      </trkpt>
      <trkpt lat="42.1159000" lon="2.3186070">
        <ele>901.8</ele>
        <time>2019-10-21T10:40:30Z</time>
      </trkpt>
      <trkpt lat="42.1158810" lon="2.3186070">
        <ele>901.6</ele>
        <time>2019-10-21T10:40:31Z</time>
      </trkpt>
      <trkpt lat="42.1158620" lon="2.3186070">
        <ele>901.8</ele>
        <time>2019-10-21T10:40:32Z</time>
      </trkpt>
      <trkpt lat="42.1158420" lon="2.3186070">
        <ele>901.8</ele>
        <time>2019-10-21T10:40:33Z</time>
      </trkpt>
      <trkpt lat="42.1157960" lon="2.3186050">
        <ele>901.4</ele>
        <time>2019-10-21T10:40:34Z</time>
      </trkpt>
      <trkpt lat="42.1157770" lon="2.3186110">
        <ele>901.0</ele>
        <time>2019-10-21T10:40:35Z</time>
      </trkpt>
      <trkpt lat="42.1157590" lon="2.3186180">
        <ele>901.0</ele>
        <time>2019-10-21T10:40:36Z</time>
      </trkpt>
      <trkpt lat="42.1157400" lon="2.3186250">
        <ele>900.4</ele>
        <time>2019-10-21T10:40:37Z</time>
      </trkpt>
      <trkpt lat="42.1157220" lon="2.3186310">
        <ele>900.6</ele>
        <time>2019-10-21T10:40:38Z</time>
      </trkpt>
      <trkpt lat="42.1157030" lon="2.3186380">
        <ele>900.2</ele>
        <time>2019-10-21T10:40:39Z</time>
      </trkpt>
      <trkpt lat="42.1156840" lon="2.3186550">
        <ele>899.8</ele>
        <time>2019-10-21T10:40:40Z</time>
      </trkpt>
      <trkpt lat="42.1156770" lon="2.3186700">
        <ele>899.2</ele>
        <time>2019-10-21T10:40:41Z</time>
      </trkpt>
      <trkpt lat="42.1156690" lon="2.3186840">
        <ele>899.4</ele>
        <time>2019-10-21T10:40:42Z</time>
      </trkpt>
      <trkpt lat="42.1156620" lon="2.3186990">
        <ele>898.6</ele>
        <time>2019-10-21T10:40:43Z</time>
      </trkpt>
      <trkpt lat="42.1157200" lon="2.3187480">
        <ele>898.6</ele>
        <time>2019-10-21T10:40:44Z</time>
      </trkpt>
      <trkpt lat="42.1157430" lon="2.3187620">
        <ele>898.2</ele>
        <time>2019-10-21T10:40:45Z</time>
      </trkpt>
      <trkpt lat="42.1157650" lon="2.3187770">
        <ele>898.0</ele>
        <time>2019-10-21T10:40:46Z</time>
      </trkpt>
      <trkpt lat="42.1157880" lon="2.3187920">
        <ele>897.4</ele>
        <time>2019-10-21T10:40:47Z</time>
      </trkpt>
      <trkpt lat="42.1158200" lon="2.3188330">
        <ele>897.4</ele>
        <time>2019-10-21T10:40:48Z</time>
      </trkpt>
      <trkpt lat="42.1158250" lon="2.3188480">
        <ele>896.8</ele>
        <time>2019-10-21T10:40:49Z</time>
      </trkpt>
      <trkpt lat="42.1158310" lon="2.3188640">
        <ele>897.0</ele>
        <time>2019-10-21T10:40:50Z</time>
      </trkpt>
      <trkpt lat="42.1158330" lon="2.3188800">
        <ele>895.8</ele>
        <time>2019-10-21T10:40:51Z</time>
      </trkpt>
      <trkpt lat="42.1158330" lon="2.3188800">
        <ele>895.8</ele>
        <time>2019-10-21T10:40:52Z</time>
      </trkpt>
      <trkpt lat="42.1158330" lon="2.3188800">
        <ele>895.0</ele>
        <time>2019-10-21T10:40:53Z</time>
      </trkpt>
      <trkpt lat="42.1158380" lon="2.3188920">
        <ele>894.6</ele>
        <time>2019-10-21T10:40:54Z</time>
      </trkpt>
      <trkpt lat="42.1158430" lon="2.3189050">
        <ele>894.8</ele>
        <time>2019-10-21T10:40:55Z</time>
      </trkpt>
      <trkpt lat="42.1158480" lon="2.3189170">
        <ele>894.6</ele>
        <time>2019-10-21T10:40:56Z</time>
      </trkpt>
      <trkpt lat="42.1158530" lon="2.3189300">
        <ele>894.6</ele>
        <time>2019-10-21T10:40:57Z</time>
      </trkpt>
      <trkpt lat="42.1158720" lon="2.3189800">
        <ele>894.6</ele>
        <time>2019-10-21T10:40:58Z</time>
      </trkpt>
      <trkpt lat="42.1158720" lon="2.3189800">
        <ele>894.2</ele>
        <time>2019-10-21T10:40:59Z</time>
      </trkpt>
      <trkpt lat="42.1158720" lon="2.3189800">
        <ele>893.8</ele>
        <time>2019-10-21T10:41:00Z</time>
      </trkpt>
      <trkpt lat="42.1158720" lon="2.3189800">
        <ele>894.0</ele>
        <time>2019-10-21T10:41:01Z</time>
      </trkpt>
      <trkpt lat="42.1158720" lon="2.3189800">
        <ele>893.6</ele>
        <time>2019-10-21T10:41:02Z</time>
      </trkpt>
      <trkpt lat="42.1158720" lon="2.3189800">
        <ele>892.8</ele>
        <time>2019-10-21T10:41:03Z</time>
      </trkpt>
      <trkpt lat="42.1159330" lon="2.3190900">
        <ele>892.4</ele>
        <time>2019-10-21T10:41:04Z</time>
      </trkpt>
      <trkpt lat="42.1159330" lon="2.3190900">
        <ele>891.4</ele>
        <time>2019-10-21T10:41:05Z</time>
      </trkpt>
      <trkpt lat="42.1159330" lon="2.3190900">
        <ele>890.8</ele>
        <time>2019-10-21T10:41:06Z</time>
      </trkpt>
      <trkpt lat="42.1159330" lon="2.3190900">
        <ele>890.0</ele>
        <time>2019-10-21T10:41:07Z</time>
      </trkpt>
      <trkpt lat="42.1159330" lon="2.3190900">
        <ele>889.8</ele>
        <time>2019-10-21T10:41:08Z</time>
      </trkpt>
      <trkpt lat="42.1160210" lon="2.3191210">
        <ele>889.2</ele>
        <time>2019-10-21T10:41:09Z</time>
      </trkpt>
      <trkpt lat="42.1160210" lon="2.3191210">
        <ele>889.0</ele>
        <time>2019-10-21T10:41:10Z</time>
      </trkpt>
      <trkpt lat="42.1160210" lon="2.3191210">
        <ele>888.0</ele>
        <time>2019-10-21T10:41:11Z</time>
      </trkpt>
      <trkpt lat="42.1160210" lon="2.3191210">
        <ele>887.8</ele>
        <time>2019-10-21T10:41:12Z</time>
      </trkpt>
      <trkpt lat="42.1160210" lon="2.3191210">
        <ele>887.6</ele>
        <time>2019-10-21T10:41:13Z</time>
      </trkpt>
      <trkpt lat="42.1160210" lon="2.3191210">
        <ele>887.6</ele>
        <time>2019-10-21T10:41:14Z</time>
      </trkpt>
      <trkpt lat="42.1160210" lon="2.3191210">
        <ele>887.8</ele>
        <time>2019-10-21T10:41:15Z</time>
      </trkpt>
      <trkpt lat="42.1160210" lon="2.3191210">
        <ele>887.2</ele>
        <time>2019-10-21T10:41:16Z</time>
      </trkpt>
      <trkpt lat="42.1160210" lon="2.3191210">
        <ele>887.2</ele>
        <time>2019-10-21T10:41:17Z</time>
      </trkpt>
      <trkpt lat="42.1160640" lon="2.3192310">
        <ele>886.4</ele>
        <time>2019-10-21T10:41:18Z</time>
      </trkpt>
      <trkpt lat="42.1160640" lon="2.3192310">
        <ele>885.4</ele>
        <time>2019-10-21T10:41:19Z</time>
      </trkpt>
      <trkpt lat="42.1160640" lon="2.3192310">
        <ele>884.8</ele>
        <time>2019-10-21T10:41:20Z</time>
      </trkpt>
      <trkpt lat="42.1160640" lon="2.3192310">
        <ele>884.6</ele>
        <time>2019-10-21T10:41:21Z</time>
      </trkpt>
      <trkpt lat="42.1160690" lon="2.3193720">
        <ele>884.6</ele>
        <time>2019-10-21T10:41:22Z</time>
      </trkpt>
      <trkpt lat="42.1160690" lon="2.3193720">
        <ele>884.4</ele>
        <time>2019-10-21T10:41:23Z</time>
      </trkpt>
      <trkpt lat="42.1160690" lon="2.3193720">
        <ele>884.0</ele>
        <time>2019-10-21T10:41:24Z</time>
      </trkpt>
      <trkpt lat="42.1160690" lon="2.3193720">
        <ele>884.4</ele>
        <time>2019-10-21T10:41:25Z</time>
      </trkpt>
      <trkpt lat="42.1160690" lon="2.3193720">
        <ele>883.8</ele>
        <time>2019-10-21T10:41:26Z</time>
      </trkpt>
      <trkpt lat="42.1160690" lon="2.3193720">
        <ele>883.4</ele>
        <time>2019-10-21T10:41:27Z</time>
      </trkpt>
      <trkpt lat="42.1160690" lon="2.3193720">
        <ele>883.2</ele>
        <time>2019-10-21T10:41:28Z</time>
      </trkpt>
      <trkpt lat="42.1160690" lon="2.3193720">
        <ele>882.8</ele>
        <time>2019-10-21T10:41:29Z</time>
      </trkpt>
      <trkpt lat="42.1160690" lon="2.3193720">
        <ele>882.2</ele>
        <time>2019-10-21T10:41:30Z</time>
      </trkpt>
      <trkpt lat="42.1161720" lon="2.3193190">
        <ele>882.0</ele>
        <time>2019-10-21T10:41:31Z</time>
      </trkpt>
      <trkpt lat="42.1161720" lon="2.3193190">
        <ele>881.4</ele>
        <time>2019-10-21T10:41:32Z</time>
      </trkpt>
      <trkpt lat="42.1161720" lon="2.3193190">
        <ele>881.4</ele>
        <time>2019-10-21T10:41:33Z</time>
      </trkpt>
      <trkpt lat="42.1161720" lon="2.3193190">
        <ele>880.8</ele>
        <time>2019-10-21T10:41:34Z</time>
      </trkpt>
      <trkpt lat="42.1162190" lon="2.3193600">
        <ele>880.6</ele>
        <time>2019-10-21T10:41:35Z</time>
      </trkpt>
      <trkpt lat="42.1162650" lon="2.3194010">
        <ele>879.6</ele>
        <time>2019-10-21T10:41:36Z</time>
      </trkpt>
      <trkpt lat="42.1162650" lon="2.3194010">
        <ele>878.8</ele>
        <time>2019-10-21T10:41:37Z</time>
      </trkpt>
      <trkpt lat="42.1162650" lon="2.3194010">
        <ele>878.6</ele>
        <time>2019-10-21T10:41:38Z</time>
      </trkpt>
      <trkpt lat="42.1162650" lon="2.3194010">
        <ele>878.0</ele>
        <time>2019-10-21T10:41:39Z</time>
      </trkpt>
      <trkpt lat="42.1162650" lon="2.3194010">
        <ele>877.6</ele>
        <time>2019-10-21T10:41:40Z</time>
      </trkpt>
      <trkpt lat="42.1162290" lon="2.3195340">
        <ele>876.8</ele>
        <time>2019-10-21T10:41:41Z</time>
      </trkpt>
      <trkpt lat="42.1162180" lon="2.3195430">
        <ele>876.0</ele>
        <time>2019-10-21T10:41:42Z</time>
      </trkpt>
      <trkpt lat="42.1162070" lon="2.3195520">
        <ele>875.2</ele>
        <time>2019-10-21T10:41:43Z</time>
      </trkpt>
      <trkpt lat="42.1161950" lon="2.3195610">
        <ele>874.6</ele>
        <time>2019-10-21T10:41:44Z</time>
      </trkpt>
      <trkpt lat="42.1161840" lon="2.3195700">
        <ele>874.4</ele>
        <time>2019-10-21T10:41:45Z</time>
      </trkpt>
      <trkpt lat="42.1161730" lon="2.3195790">
        <ele>873.8</ele>
        <time>2019-10-21T10:41:46Z</time>
      </trkpt>
      <trkpt lat="42.1161620" lon="2.3195880">
        <ele>873.0</ele>
        <time>2019-10-21T10:41:47Z</time>
      </trkpt>
      <trkpt lat="42.1161330" lon="2.3195860">
        <ele>873.0</ele>
        <time>2019-10-21T10:41:48Z</time>
      </trkpt>
      <trkpt lat="42.1161040" lon="2.3195850">
        <ele>872.2</ele>
        <time>2019-10-21T10:41:49Z</time>
      </trkpt>
      <trkpt lat="42.1160750" lon="2.3195830">
        <ele>871.6</ele>
        <time>2019-10-21T10:41:50Z</time>
      </trkpt>
      <trkpt lat="42.1160470" lon="2.3195810">
        <ele>870.8</ele>
        <time>2019-10-21T10:41:51Z</time>
      </trkpt>
      <trkpt lat="42.1160180" lon="2.3195790">
        <ele>869.8</ele>
        <time>2019-10-21T10:41:52Z</time>
      </trkpt>
      <trkpt lat="42.1159890" lon="2.3195780">
        <ele>869.8</ele>
        <time>2019-10-21T10:41:53Z</time>
      </trkpt>
      <trkpt lat="42.1159600" lon="2.3195760">
        <ele>869.0</ele>
        <time>2019-10-21T10:41:54Z</time>
      </trkpt>
      <trkpt lat="42.1159420" lon="2.3195690">
        <ele>869.0</ele>
        <time>2019-10-21T10:41:55Z</time>
      </trkpt>
      <trkpt lat="42.1159230" lon="2.3195620">
        <ele>868.4</ele>
        <time>2019-10-21T10:41:56Z</time>
      </trkpt>
      <trkpt lat="42.1159050" lon="2.3195540">
        <ele>868.0</ele>
        <time>2019-10-21T10:41:57Z</time>
      </trkpt>
      <trkpt lat="42.1158860" lon="2.3195470">
        <ele>867.4</ele>
        <time>2019-10-21T10:41:58Z</time>
      </trkpt>
      <trkpt lat="42.1158680" lon="2.3195400">
        <ele>866.8</ele>
        <time>2019-10-21T10:41:59Z</time>
      </trkpt>
      <trkpt lat="42.1158460" lon="2.3195380">
        <ele>866.6</ele>
        <time>2019-10-21T10:42:00Z</time>
      </trkpt>
      <trkpt lat="42.1158240" lon="2.3195350">
        <ele>865.8</ele>
        <time>2019-10-21T10:42:01Z</time>
      </trkpt>
      <trkpt lat="42.1158020" lon="2.3195330">
        <ele>865.6</ele>
        <time>2019-10-21T10:42:02Z</time>
      </trkpt>
      <trkpt lat="42.1157800" lon="2.3195310">
        <ele>865.0</ele>
        <time>2019-10-21T10:42:03Z</time>
      </trkpt>
      <trkpt lat="42.1157580" lon="2.3195280">
        <ele>865.0</ele>
        <time>2019-10-21T10:42:04Z</time>
      </trkpt>
      <trkpt lat="42.1157360" lon="2.3195260">
        <ele>864.2</ele>
        <time>2019-10-21T10:42:05Z</time>
      </trkpt>
      <trkpt lat="42.1157140" lon="2.3195240">
        <ele>863.8</ele>
        <time>2019-10-21T10:42:06Z</time>
      </trkpt>
      <trkpt lat="42.1156920" lon="2.3195210">
        <ele>862.6</ele>
        <time>2019-10-21T10:42:07Z</time>
      </trkpt>
      <trkpt lat="42.1156700" lon="2.3195190">
        <ele>862.2</ele>
        <time>2019-10-21T10:42:08Z</time>
      </trkpt>
      <trkpt lat="42.1156450" lon="2.3195170">
        <ele>861.2</ele>
        <time>2019-10-21T10:42:09Z</time>
      </trkpt>
      <trkpt lat="42.1156210" lon="2.3195150">
        <ele>860.8</ele>
        <time>2019-10-21T10:42:10Z</time>
      </trkpt>
      <trkpt lat="42.1155960" lon="2.3195130">
        <ele>860.6</ele>
        <time>2019-10-21T10:42:11Z</time>
      </trkpt>
      <trkpt lat="42.1155710" lon="2.3195110">
        <ele>860.6</ele>
        <time>2019-10-21T10:42:12Z</time>
      </trkpt>
      <trkpt lat="42.1155430" lon="2.3194920">
        <ele>860.0</ele>
        <time>2019-10-21T10:42:13Z</time>
      </trkpt>
      <trkpt lat="42.1155150" lon="2.3194730">
        <ele>860.0</ele>
        <time>2019-10-21T10:42:14Z</time>
      </trkpt>
      <trkpt lat="42.1154860" lon="2.3194540">
        <ele>859.6</ele>
        <time>2019-10-21T10:42:15Z</time>
      </trkpt>
      <trkpt lat="42.1154580" lon="2.3194350">
        <ele>859.0</ele>
        <time>2019-10-21T10:42:16Z</time>
      </trkpt>
      <trkpt lat="42.1154300" lon="2.3194170">
        <ele>858.4</ele>
        <time>2019-10-21T10:42:17Z</time>
      </trkpt>
      <trkpt lat="42.1154020" lon="2.3193980">
        <ele>858.0</ele>
        <time>2019-10-21T10:42:18Z</time>
      </trkpt>
      <trkpt lat="42.1153730" lon="2.3193790">
        <ele>857.6</ele>
        <time>2019-10-21T10:42:19Z</time>
      </trkpt>
      <trkpt lat="42.1153450" lon="2.3193600">
        <ele>856.8</ele>
        <time>2019-10-21T10:42:20Z</time>
      </trkpt>
      <trkpt lat="42.1153170" lon="2.3193410">
        <ele>855.8</ele>
        <time>2019-10-21T10:42:21Z</time>
      </trkpt>
      <trkpt lat="42.1152660" lon="2.3192990">
        <ele>856.0</ele>
        <time>2019-10-21T10:42:22Z</time>
      </trkpt>
      <trkpt lat="42.1152570" lon="2.3192920">
        <ele>855.2</ele>
        <time>2019-10-21T10:42:23Z</time>
      </trkpt>
      <trkpt lat="42.1152470" lon="2.3192840">
        <ele>854.8</ele>
        <time>2019-10-21T10:42:24Z</time>
      </trkpt>
      <trkpt lat="42.1152380" lon="2.3192770">
        <ele>854.2</ele>
        <time>2019-10-21T10:42:25Z</time>
      </trkpt>
      <trkpt lat="42.1152290" lon="2.3192700">
        <ele>854.2</ele>
        <time>2019-10-21T10:42:26Z</time>
      </trkpt>
      <trkpt lat="42.1151660" lon="2.3192180">
        <ele>853.4</ele>
        <time>2019-10-21T10:42:27Z</time>
      </trkpt>
      <trkpt lat="42.1151500" lon="2.3192010">
        <ele>853.0</ele>
        <time>2019-10-21T10:42:28Z</time>
      </trkpt>
      <trkpt lat="42.1151340" lon="2.3191850">
        <ele>852.0</ele>
        <time>2019-10-21T10:42:29Z</time>
      </trkpt>
      <trkpt lat="42.1151180" lon="2.3191680">
        <ele>851.2</ele>
        <time>2019-10-21T10:42:30Z</time>
      </trkpt>
      <trkpt lat="42.1151020" lon="2.3191520">
        <ele>851.0</ele>
        <time>2019-10-21T10:42:31Z</time>
      </trkpt>
      <trkpt lat="42.1150840" lon="2.3191270">
        <ele>850.8</ele>
        <time>2019-10-21T10:42:32Z</time>
      </trkpt>
      <trkpt lat="42.1150650" lon="2.3191020">
        <ele>851.2</ele>
        <time>2019-10-21T10:42:33Z</time>
      </trkpt>
      <trkpt lat="42.1150470" lon="2.3190780">
        <ele>851.2</ele>
        <time>2019-10-21T10:42:34Z</time>
      </trkpt>
      <trkpt lat="42.1150280" lon="2.3190530">
        <ele>851.4</ele>
        <time>2019-10-21T10:42:35Z</time>
      </trkpt>
      <trkpt lat="42.1150280" lon="2.3190530">
        <ele>851.4</ele>
        <time>2019-10-21T10:42:36Z</time>
      </trkpt>
      <trkpt lat="42.1150280" lon="2.3190530">
        <ele>849.8</ele>
        <time>2019-10-21T10:42:37Z</time>
      </trkpt>
      <trkpt lat="42.1150280" lon="2.3190530">
        <ele>849.2</ele>
        <time>2019-10-21T10:42:38Z</time>
      </trkpt>
      <trkpt lat="42.1150280" lon="2.3190530">
        <ele>849.8</ele>
        <time>2019-10-21T10:42:39Z</time>
      </trkpt>
      <trkpt lat="42.1150280" lon="2.3190530">
        <ele>849.4</ele>
        <time>2019-10-21T10:42:40Z</time>
      </trkpt>
      <trkpt lat="42.1150280" lon="2.3190530">
        <ele>848.8</ele>
        <time>2019-10-21T10:42:41Z</time>
      </trkpt>
      <trkpt lat="42.1150280" lon="2.3190530">
        <ele>848.6</ele>
        <time>2019-10-21T10:42:42Z</time>
      </trkpt>
      <trkpt lat="42.1150280" lon="2.3190530">
        <ele>848.8</ele>
        <time>2019-10-21T10:42:43Z</time>
      </trkpt>
      <trkpt lat="42.1150280" lon="2.3190530">
        <ele>848.4</ele>
        <time>2019-10-21T10:42:44Z</time>
      </trkpt>
      <trkpt lat="42.1150170" lon="2.3190940">
        <ele>848.0</ele>
        <time>2019-10-21T10:42:45Z</time>
      </trkpt>
      <trkpt lat="42.1150050" lon="2.3191360">
        <ele>847.8</ele>
        <time>2019-10-21T10:42:46Z</time>
      </trkpt>
      <trkpt lat="42.1149940" lon="2.3191770">
        <ele>846.4</ele>
        <time>2019-10-21T10:42:47Z</time>
      </trkpt>
      <trkpt lat="42.1149710" lon="2.3191750">
        <ele>846.2</ele>
        <time>2019-10-21T10:42:48Z</time>
      </trkpt>
      <trkpt lat="42.1149490" lon="2.3191720">
        <ele>845.8</ele>
        <time>2019-10-21T10:42:49Z</time>
      </trkpt>
      <trkpt lat="42.1149260" lon="2.3191700">
        <ele>845.8</ele>
        <time>2019-10-21T10:42:50Z</time>
      </trkpt>
      <trkpt lat="42.1149030" lon="2.3191680">
        <ele>845.0</ele>
        <time>2019-10-21T10:42:51Z</time>
      </trkpt>
      <trkpt lat="42.1148800" lon="2.3191690">
        <ele>844.2</ele>
        <time>2019-10-21T10:42:52Z</time>
      </trkpt>
      <trkpt lat="42.1148560" lon="2.3191690">
        <ele>844.4</ele>
        <time>2019-10-21T10:42:53Z</time>
      </trkpt>
      <trkpt lat="42.1148330" lon="2.3191700">
        <ele>843.6</ele>
        <time>2019-10-21T10:42:54Z</time>
      </trkpt>
      <trkpt lat="42.1148100" lon="2.3191700">
        <ele>842.8</ele>
        <time>2019-10-21T10:42:55Z</time>
      </trkpt>
      <trkpt lat="42.1147860" lon="2.3191710">
        <ele>842.8</ele>
        <time>2019-10-21T10:42:56Z</time>
      </trkpt>
      <trkpt lat="42.1147630" lon="2.3191710">
        <ele>842.2</ele>
        <time>2019-10-21T10:42:57Z</time>
      </trkpt>
      <trkpt lat="42.1147140" lon="2.3191770">
        <ele>842.4</ele>
        <time>2019-10-21T10:42:58Z</time>
      </trkpt>
      <trkpt lat="42.1147140" lon="2.3191770">
        <ele>842.0</ele>
        <time>2019-10-21T10:42:59Z</time>
      </trkpt>
      <trkpt lat="42.1147140" lon="2.3191770">
        <ele>841.8</ele>
        <time>2019-10-21T10:43:00Z</time>
      </trkpt>
      <trkpt lat="42.1147140" lon="2.3191770">
        <ele>841.2</ele>
        <time>2019-10-21T10:43:01Z</time>
      </trkpt>
      <trkpt lat="42.1147010" lon="2.3191770">
        <ele>840.8</ele>
        <time>2019-10-21T10:43:02Z</time>
      </trkpt>
      <trkpt lat="42.1146880" lon="2.3191780">
        <ele>840.2</ele>
        <time>2019-10-21T10:43:03Z</time>
      </trkpt>
      <trkpt lat="42.1146750" lon="2.3191780">
        <ele>839.6</ele>
        <time>2019-10-21T10:43:04Z</time>
      </trkpt>
      <trkpt lat="42.1146620" lon="2.3191780">
        <ele>839.2</ele>
        <time>2019-10-21T10:43:05Z</time>
      </trkpt>
      <trkpt lat="42.1145980" lon="2.3191690">
        <ele>838.6</ele>
        <time>2019-10-21T10:43:06Z</time>
      </trkpt>
      <trkpt lat="42.1145850" lon="2.3191590">
        <ele>838.4</ele>
        <time>2019-10-21T10:43:07Z</time>
      </trkpt>
      <trkpt lat="42.1145720" lon="2.3191500">
        <ele>838.2</ele>
        <time>2019-10-21T10:43:08Z</time>
      </trkpt>
      <trkpt lat="42.1145590" lon="2.3191410">
        <ele>837.8</ele>
        <time>2019-10-21T10:43:09Z</time>
      </trkpt>
      <trkpt lat="42.1145070" lon="2.3191050">
        <ele>837.6</ele>
        <time>2019-10-21T10:43:10Z</time>
      </trkpt>
      <trkpt lat="42.1145070" lon="2.3191050">
        <ele>837.4</ele>
        <time>2019-10-21T10:43:11Z</time>
      </trkpt>
      <trkpt lat="42.1145070" lon="2.3191050">
        <ele>837.6</ele>
        <time>2019-10-21T10:43:12Z</time>
      </trkpt>
      <trkpt lat="42.1144060" lon="2.3190740">
        <ele>837.4</ele>
        <time>2019-10-21T10:43:13Z</time>
      </trkpt>
      <trkpt lat="42.1143950" lon="2.3190690">
        <ele>837.8</ele>
        <time>2019-10-21T10:43:14Z</time>
      </trkpt>
      <trkpt lat="42.1143830" lon="2.3190640">
        <ele>838.2</ele>
        <time>2019-10-21T10:43:15Z</time>
      </trkpt>
      <trkpt lat="42.1143720" lon="2.3190590">
        <ele>837.8</ele>
        <time>2019-10-21T10:43:16Z</time>
      </trkpt>
      <trkpt lat="42.1143270" lon="2.3190400">
        <ele>837.8</ele>
        <time>2019-10-21T10:43:17Z</time>
      </trkpt>
      <trkpt lat="42.1143270" lon="2.3190400">
        <ele>837.8</ele>
        <time>2019-10-21T10:43:18Z</time>
      </trkpt>
      <trkpt lat="42.1143270" lon="2.3190400">
        <ele>838.0</ele>
        <time>2019-10-21T10:43:19Z</time>
      </trkpt>
      <trkpt lat="42.1143270" lon="2.3190400">
        <ele>837.6</ele>
        <time>2019-10-21T10:43:20Z</time>
      </trkpt>
      <trkpt lat="42.1142480" lon="2.3189680">
        <ele>838.2</ele>
        <time>2019-10-21T10:43:21Z</time>
      </trkpt>
      <trkpt lat="42.1142480" lon="2.3189680">
        <ele>838.2</ele>
        <time>2019-10-21T10:43:22Z</time>
      </trkpt>
      <trkpt lat="42.1142480" lon="2.3189680">
        <ele>838.6</ele>
        <time>2019-10-21T10:43:23Z</time>
      </trkpt>
      <trkpt lat="42.1142480" lon="2.3189680">
        <ele>838.2</ele>
        <time>2019-10-21T10:43:24Z</time>
      </trkpt>
      <trkpt lat="42.1142480" lon="2.3189680">
        <ele>838.0</ele>
        <time>2019-10-21T10:43:25Z</time>
      </trkpt>
      <trkpt lat="42.1142300" lon="2.3189390">
        <ele>838.4</ele>
        <time>2019-10-21T10:43:26Z</time>
      </trkpt>
      <trkpt lat="42.1142110" lon="2.3189090">
        <ele>839.6</ele>
        <time>2019-10-21T10:43:27Z</time>
      </trkpt>
      <trkpt lat="42.1141930" lon="2.3188800">
        <ele>840.0</ele>
        <time>2019-10-21T10:43:28Z</time>
      </trkpt>
      <trkpt lat="42.1141740" lon="2.3188510">
        <ele>840.8</ele>
        <time>2019-10-21T10:43:29Z</time>
      </trkpt>
      <trkpt lat="42.1141560" lon="2.3188220">
        <ele>841.0</ele>
        <time>2019-10-21T10:43:30Z</time>
      </trkpt>
      <trkpt lat="42.1141380" lon="2.3187920">
        <ele>841.0</ele>
        <time>2019-10-21T10:43:31Z</time>
      </trkpt>
      <trkpt lat="42.1141190" lon="2.3187630">
        <ele>840.8</ele>
        <time>2019-10-21T10:43:32Z</time>
      </trkpt>
      <trkpt lat="42.1141010" lon="2.3187340">
        <ele>841.0</ele>
        <time>2019-10-21T10:43:33Z</time>
      </trkpt>
      <trkpt lat="42.1140820" lon="2.3187050">
        <ele>840.8</ele>
        <time>2019-10-21T10:43:34Z</time>
      </trkpt>
      <trkpt lat="42.1140640" lon="2.3186750">
        <ele>841.0</ele>
        <time>2019-10-21T10:43:35Z</time>
      </trkpt>
      <trkpt lat="42.1140450" lon="2.3186460">
        <ele>840.8</ele>
        <time>2019-10-21T10:43:36Z</time>
      </trkpt>
      <trkpt lat="42.1140270" lon="2.3186170">
        <ele>840.6</ele>
        <time>2019-10-21T10:43:37Z</time>
      </trkpt>
      <trkpt lat="42.1139930" lon="2.3186290">
        <ele>840.4</ele>
        <time>2019-10-21T10:43:38Z</time>
      </trkpt>
      <trkpt lat="42.1139600" lon="2.3186420">
        <ele>840.4</ele>
        <time>2019-10-21T10:43:39Z</time>
      </trkpt>
      <trkpt lat="42.1139260" lon="2.3186540">
        <ele>840.8</ele>
        <time>2019-10-21T10:43:40Z</time>
      </trkpt>
      <trkpt lat="42.1138990" lon="2.3186570">
        <ele>840.4</ele>
        <time>2019-10-21T10:43:41Z</time>
      </trkpt>
      <trkpt lat="42.1138710" lon="2.3186600">
        <ele>841.2</ele>
        <time>2019-10-21T10:43:42Z</time>
      </trkpt>
      <trkpt lat="42.1138440" lon="2.3186630">
        <ele>841.4</ele>
        <time>2019-10-21T10:43:43Z</time>
      </trkpt>
      <trkpt lat="42.1138160" lon="2.3186660">
        <ele>842.2</ele>
        <time>2019-10-21T10:43:44Z</time>
      </trkpt>
      <trkpt lat="42.1137920" lon="2.3186590">
        <ele>842.0</ele>
        <time>2019-10-21T10:43:45Z</time>
      </trkpt>
      <trkpt lat="42.1137670" lon="2.3186530">
        <ele>842.6</ele>
        <time>2019-10-21T10:43:46Z</time>
      </trkpt>
      <trkpt lat="42.1137430" lon="2.3186460">
        <ele>842.4</ele>
        <time>2019-10-21T10:43:47Z</time>
      </trkpt>
      <trkpt lat="42.1137180" lon="2.3186400">
        <ele>843.4</ele>
        <time>2019-10-21T10:43:48Z</time>
      </trkpt>
      <trkpt lat="42.1137050" lon="2.3186310">
        <ele>843.8</ele>
        <time>2019-10-21T10:43:49Z</time>
      </trkpt>
      <trkpt lat="42.1136920" lon="2.3186210">
        <ele>844.2</ele>
        <time>2019-10-21T10:43:50Z</time>
      </trkpt>
      <trkpt lat="42.1136790" lon="2.3186120">
        <ele>845.0</ele>
        <time>2019-10-21T10:43:51Z</time>
      </trkpt>
      <trkpt lat="42.1136670" lon="2.3186020">
        <ele>845.2</ele>
        <time>2019-10-21T10:43:52Z</time>
      </trkpt>
      <trkpt lat="42.1136540" lon="2.3185930">
        <ele>845.6</ele>
        <time>2019-10-21T10:43:53Z</time>
      </trkpt>
      <trkpt lat="42.1136410" lon="2.3185840">
        <ele>846.0</ele>
        <time>2019-10-21T10:43:54Z</time>
      </trkpt>
      <trkpt lat="42.1136280" lon="2.3185740">
        <ele>847.0</ele>
        <time>2019-10-21T10:43:55Z</time>
      </trkpt>
      <trkpt lat="42.1136150" lon="2.3185650">
        <ele>847.4</ele>
        <time>2019-10-21T10:43:56Z</time>
      </trkpt>
      <trkpt lat="42.1136320" lon="2.3184890">
        <ele>847.8</ele>
        <time>2019-10-21T10:43:57Z</time>
      </trkpt>
      <trkpt lat="42.1136430" lon="2.3184800">
        <ele>848.2</ele>
        <time>2019-10-21T10:43:58Z</time>
      </trkpt>
      <trkpt lat="42.1136530" lon="2.3184700">
        <ele>849.2</ele>
        <time>2019-10-21T10:43:59Z</time>
      </trkpt>
      <trkpt lat="42.1136640" lon="2.3184610">
        <ele>849.4</ele>
        <time>2019-10-21T10:44:00Z</time>
      </trkpt>
      <trkpt lat="42.1137070" lon="2.3184240">
        <ele>849.8</ele>
        <time>2019-10-21T10:44:01Z</time>
      </trkpt>
      <trkpt lat="42.1137070" lon="2.3184240">
        <ele>849.8</ele>
        <time>2019-10-21T10:44:02Z</time>
      </trkpt>
      <trkpt lat="42.1137070" lon="2.3184240">
        <ele>849.8</ele>
        <time>2019-10-21T10:44:03Z</time>
      </trkpt>
      <trkpt lat="42.1137070" lon="2.3184240">
        <ele>849.2</ele>
        <time>2019-10-21T10:44:04Z</time>
      </trkpt>
      <trkpt lat="42.1137070" lon="2.3184240">
        <ele>849.4</ele>
        <time>2019-10-21T10:44:05Z</time>
      </trkpt>
      <trkpt lat="42.1137070" lon="2.3184240">
        <ele>849.0</ele>
        <time>2019-10-21T10:44:06Z</time>
      </trkpt>
      <trkpt lat="42.1137070" lon="2.3184240">
        <ele>848.8</ele>
        <time>2019-10-21T10:44:07Z</time>
      </trkpt>
      <trkpt lat="42.1137070" lon="2.3184240">
        <ele>848.0</ele>
        <time>2019-10-21T10:44:08Z</time>
      </trkpt>
      <trkpt lat="42.1137070" lon="2.3184240">
        <ele>847.6</ele>
        <time>2019-10-21T10:44:09Z</time>
      </trkpt>
      <trkpt lat="42.1137070" lon="2.3184240">
        <ele>847.2</ele>
        <time>2019-10-21T10:44:10Z</time>
      </trkpt>
      <trkpt lat="42.1137070" lon="2.3184240">
        <ele>847.2</ele>
        <time>2019-10-21T10:44:11Z</time>
      </trkpt>
      <trkpt lat="42.1137090" lon="2.3184130">
        <ele>846.6</ele>
        <time>2019-10-21T10:44:12Z</time>
      </trkpt>
      <trkpt lat="42.1137110" lon="2.3184030">
        <ele>845.4</ele>
        <time>2019-10-21T10:44:13Z</time>
      </trkpt>
      <trkpt lat="42.1137140" lon="2.3183920">
        <ele>845.6</ele>
        <time>2019-10-21T10:44:14Z</time>
      </trkpt>
      <trkpt lat="42.1137160" lon="2.3183810">
        <ele>845.0</ele>
        <time>2019-10-21T10:44:15Z</time>
      </trkpt>
      <trkpt lat="42.1137180" lon="2.3183710">
        <ele>844.6</ele>
        <time>2019-10-21T10:44:16Z</time>
      </trkpt>
      <trkpt lat="42.1137200" lon="2.3183600">
        <ele>843.8</ele>
        <time>2019-10-21T10:44:17Z</time>
      </trkpt>
      <trkpt lat="42.1137350" lon="2.3182800">
        <ele>843.6</ele>
        <time>2019-10-21T10:44:18Z</time>
      </trkpt>
      <trkpt lat="42.1137380" lon="2.3182640">
        <ele>842.4</ele>
        <time>2019-10-21T10:44:19Z</time>
      </trkpt>
      <trkpt lat="42.1137400" lon="2.3182490">
        <ele>842.2</ele>
        <time>2019-10-21T10:44:20Z</time>
      </trkpt>
      <trkpt lat="42.1137420" lon="2.3182330">
        <ele>841.4</ele>
        <time>2019-10-21T10:44:21Z</time>
      </trkpt>
      <trkpt lat="42.1137510" lon="2.3181700">
        <ele>841.6</ele>
        <time>2019-10-21T10:44:22Z</time>
      </trkpt>
      <trkpt lat="42.1137510" lon="2.3181700">
        <ele>841.0</ele>
        <time>2019-10-21T10:44:23Z</time>
      </trkpt>
      <trkpt lat="42.1137510" lon="2.3181700">
        <ele>841.2</ele>
        <time>2019-10-21T10:44:24Z</time>
      </trkpt>
      <trkpt lat="42.1137510" lon="2.3181700">
        <ele>840.8</ele>
        <time>2019-10-21T10:44:25Z</time>
      </trkpt>
      <trkpt lat="42.1137510" lon="2.3181700">
        <ele>840.8</ele>
        <time>2019-10-21T10:44:26Z</time>
      </trkpt>
      <trkpt lat="42.1137510" lon="2.3181700">
        <ele>840.6</ele>
        <time>2019-10-21T10:44:27Z</time>
      </trkpt>
      <trkpt lat="42.1137510" lon="2.3181700">
        <ele>841.4</ele>
        <time>2019-10-21T10:44:28Z</time>
      </trkpt>
      <trkpt lat="42.1137510" lon="2.3181700">
        <ele>840.6</ele>
        <time>2019-10-21T10:44:29Z</time>
      </trkpt>
      <trkpt lat="42.1137450" lon="2.3181610">
        <ele>840.6</ele>
        <time>2019-10-21T10:44:30Z</time>
      </trkpt>
      <trkpt lat="42.1137380" lon="2.3181520">
        <ele>839.6</ele>
        <time>2019-10-21T10:44:31Z</time>
      </trkpt>
      <trkpt lat="42.1137320" lon="2.3181440">
        <ele>838.8</ele>
        <time>2019-10-21T10:44:32Z</time>
      </trkpt>
      <trkpt lat="42.1137250" lon="2.3181350">
        <ele>838.6</ele>
        <time>2019-10-21T10:44:33Z</time>
      </trkpt>
      <trkpt lat="42.1137190" lon="2.3181260">
        <ele>837.6</ele>
        <time>2019-10-21T10:44:34Z</time>
      </trkpt>
      <trkpt lat="42.1136870" lon="2.3180830">
        <ele>837.2</ele>
        <time>2019-10-21T10:44:35Z</time>
      </trkpt>
      <trkpt lat="42.1136870" lon="2.3180830">
        <ele>837.0</ele>
        <time>2019-10-21T10:44:36Z</time>
      </trkpt>
      <trkpt lat="42.1136870" lon="2.3180830">
        <ele>836.6</ele>
        <time>2019-10-21T10:44:37Z</time>
      </trkpt>
      <trkpt lat="42.1136900" lon="2.3180670">
        <ele>836.0</ele>
        <time>2019-10-21T10:44:38Z</time>
      </trkpt>
      <trkpt lat="42.1136920" lon="2.3180510">
        <ele>835.0</ele>
        <time>2019-10-21T10:44:39Z</time>
      </trkpt>
      <trkpt lat="42.1136950" lon="2.3180350">
        <ele>835.4</ele>
        <time>2019-10-21T10:44:40Z</time>
      </trkpt>
      <trkpt lat="42.1136970" lon="2.3180190">
        <ele>834.8</ele>
        <time>2019-10-21T10:44:41Z</time>
      </trkpt>
      <trkpt lat="42.1137070" lon="2.3179550">
        <ele>834.8</ele>
        <time>2019-10-21T10:44:42Z</time>
      </trkpt>
      <trkpt lat="42.1137070" lon="2.3179550">
        <ele>834.4</ele>
        <time>2019-10-21T10:44:43Z</time>
      </trkpt>
      <trkpt lat="42.1137070" lon="2.3179550">
        <ele>833.8</ele>
        <time>2019-10-21T10:44:44Z</time>
      </trkpt>
      <trkpt lat="42.1137070" lon="2.3179550">
        <ele>833.6</ele>
        <time>2019-10-21T10:44:45Z</time>
      </trkpt>
      <trkpt lat="42.1137070" lon="2.3179550">
        <ele>833.0</ele>
        <time>2019-10-21T10:44:46Z</time>
      </trkpt>
      <trkpt lat="42.1137070" lon="2.3179550">
        <ele>832.8</ele>
        <time>2019-10-21T10:44:47Z</time>
      </trkpt>
      <trkpt lat="42.1137070" lon="2.3179550">
        <ele>832.2</ele>
        <time>2019-10-21T10:44:48Z</time>
      </trkpt>
      <trkpt lat="42.1137070" lon="2.3179550">
        <ele>831.6</ele>
        <time>2019-10-21T10:44:49Z</time>
      </trkpt>
      <trkpt lat="42.1137070" lon="2.3179550">
        <ele>830.8</ele>
        <time>2019-10-21T10:44:50Z</time>
      </trkpt>
      <trkpt lat="42.1137070" lon="2.3179550">
        <ele>830.4</ele>
        <time>2019-10-21T10:44:51Z</time>
      </trkpt>
      <trkpt lat="42.1137070" lon="2.3179550">
        <ele>829.6</ele>
        <time>2019-10-21T10:44:52Z</time>
      </trkpt>
      <trkpt lat="42.1137070" lon="2.3179550">
        <ele>829.0</ele>
        <time>2019-10-21T10:44:53Z</time>
      </trkpt>
      <trkpt lat="42.1137070" lon="2.3179550">
        <ele>828.8</ele>
        <time>2019-10-21T10:44:54Z</time>
      </trkpt>
      <trkpt lat="42.1137070" lon="2.3179550">
        <ele>828.6</ele>
        <time>2019-10-21T10:44:55Z</time>
      </trkpt>
      <trkpt lat="42.1137070" lon="2.3179550">
        <ele>828.0</ele>
        <time>2019-10-21T10:44:56Z</time>
      </trkpt>
      <trkpt lat="42.1137070" lon="2.3179550">
        <ele>827.8</ele>
        <time>2019-10-21T10:44:57Z</time>
      </trkpt>
      <trkpt lat="42.1137070" lon="2.3179550">
        <ele>827.6</ele>
        <time>2019-10-21T10:44:58Z</time>
      </trkpt>
      <trkpt lat="42.1137070" lon="2.3179550">
        <ele>827.2</ele>
        <time>2019-10-21T10:44:59Z</time>
      </trkpt>
      <trkpt lat="42.1137070" lon="2.3179550">
        <ele>827.6</ele>
        <time>2019-10-21T10:45:00Z</time>
      </trkpt>
      <trkpt lat="42.1137070" lon="2.3179550">
        <ele>826.8</ele>
        <time>2019-10-21T10:45:01Z</time>
      </trkpt>
      <trkpt lat="42.1137070" lon="2.3179550">
        <ele>826.2</ele>
        <time>2019-10-21T10:45:02Z</time>
      </trkpt>
      <trkpt lat="42.1137070" lon="2.3179550">
        <ele>826.0</ele>
        <time>2019-10-21T10:45:03Z</time>
      </trkpt>
      <trkpt lat="42.1137070" lon="2.3179550">
        <ele>825.8</ele>
        <time>2019-10-21T10:45:04Z</time>
      </trkpt>
      <trkpt lat="42.1137070" lon="2.3179550">
        <ele>825.4</ele>
        <time>2019-10-21T10:45:05Z</time>
      </trkpt>
      <trkpt lat="42.1137070" lon="2.3179550">
        <ele>825.4</ele>
        <time>2019-10-21T10:45:06Z</time>
      </trkpt>
      <trkpt lat="42.1137070" lon="2.3179550">
        <ele>825.2</ele>
        <time>2019-10-21T10:45:07Z</time>
      </trkpt>
      <trkpt lat="42.1137070" lon="2.3179550">
        <ele>824.0</ele>
        <time>2019-10-21T10:45:08Z</time>
      </trkpt>
      <trkpt lat="42.1137070" lon="2.3179550">
        <ele>823.6</ele>
        <time>2019-10-21T10:45:09Z</time>
      </trkpt>
      <trkpt lat="42.1137070" lon="2.3179550">
        <ele>822.8</ele>
        <time>2019-10-21T10:45:10Z</time>
      </trkpt>
      <trkpt lat="42.1137070" lon="2.3179550">
        <ele>822.2</ele>
        <time>2019-10-21T10:45:11Z</time>
      </trkpt>
      <trkpt lat="42.1137070" lon="2.3179550">
        <ele>821.8</ele>
        <time>2019-10-21T10:45:12Z</time>
      </trkpt>
      <trkpt lat="42.1137070" lon="2.3179550">
        <ele>821.4</ele>
        <time>2019-10-21T10:45:13Z</time>
      </trkpt>
      <trkpt lat="42.1137070" lon="2.3179550">
        <ele>820.8</ele>
        <time>2019-10-21T10:45:14Z</time>
      </trkpt>
      <trkpt lat="42.1137070" lon="2.3179550">
        <ele>819.8</ele>
        <time>2019-10-21T10:45:15Z</time>
      </trkpt>
      <trkpt lat="42.1137070" lon="2.3179550">
        <ele>819.4</ele>
        <time>2019-10-21T10:45:16Z</time>
      </trkpt>
      <trkpt lat="42.1137070" lon="2.3179550">
        <ele>819.0</ele>
        <time>2019-10-21T10:45:17Z</time>
      </trkpt>
      <trkpt lat="42.1137070" lon="2.3179550">
        <ele>818.4</ele>
        <time>2019-10-21T10:45:18Z</time>
      </trkpt>
      <trkpt lat="42.1137070" lon="2.3179550">
        <ele>817.4</ele>
        <time>2019-10-21T10:45:19Z</time>
      </trkpt>
      <trkpt lat="42.1137070" lon="2.3179550">
        <ele>817.0</ele>
        <time>2019-10-21T10:45:20Z</time>
      </trkpt>
      <trkpt lat="42.1137070" lon="2.3179550">
        <ele>816.2</ele>
        <time>2019-10-21T10:45:21Z</time>
      </trkpt>
      <trkpt lat="42.1137070" lon="2.3179550">
        <ele>815.2</ele>
        <time>2019-10-21T10:45:22Z</time>
      </trkpt>
      <trkpt lat="42.1137070" lon="2.3179550">
        <ele>815.4</ele>
        <time>2019-10-21T10:45:23Z</time>
      </trkpt>
      <trkpt lat="42.1137070" lon="2.3179550">
        <ele>814.6</ele>
        <time>2019-10-21T10:45:24Z</time>
      </trkpt>
      <trkpt lat="42.1137070" lon="2.3179550">
        <ele>813.6</ele>
        <time>2019-10-21T10:45:25Z</time>
      </trkpt>
      <trkpt lat="42.1137070" lon="2.3179550">
        <ele>812.8</ele>
        <time>2019-10-21T10:45:26Z</time>
      </trkpt>
      <trkpt lat="42.1137070" lon="2.3179550">
        <ele>812.8</ele>
        <time>2019-10-21T10:45:27Z</time>
      </trkpt>
      <trkpt lat="42.1137070" lon="2.3179550">
        <ele>812.2</ele>
        <time>2019-10-21T10:45:28Z</time>
      </trkpt>
      <trkpt lat="42.1137070" lon="2.3179550">
        <ele>810.6</ele>
        <time>2019-10-21T10:45:29Z</time>
      </trkpt>
      <trkpt lat="42.1137070" lon="2.3179550">
        <ele>810.4</ele>
        <time>2019-10-21T10:45:30Z</time>
      </trkpt>
      <trkpt lat="42.1137070" lon="2.3179550">
        <ele>810.6</ele>
        <time>2019-10-21T10:45:31Z</time>
      </trkpt>
      <trkpt lat="42.1137070" lon="2.3179550">
        <ele>810.4</ele>
        <time>2019-10-21T10:45:32Z</time>
      </trkpt>
      <trkpt lat="42.1136990" lon="2.3179560">
        <ele>810.2</ele>
        <time>2019-10-21T10:45:33Z</time>
      </trkpt>
      <trkpt lat="42.1136910" lon="2.3179570">
        <ele>810.2</ele>
        <time>2019-10-21T10:45:34Z</time>
      </trkpt>
      <trkpt lat="42.1136830" lon="2.3179580">
        <ele>810.2</ele>
        <time>2019-10-21T10:45:35Z</time>
      </trkpt>
      <trkpt lat="42.1136750" lon="2.3179590">
        <ele>810.4</ele>
        <time>2019-10-21T10:45:36Z</time>
      </trkpt>
      <trkpt lat="42.1136670" lon="2.3179600">
        <ele>810.4</ele>
        <time>2019-10-21T10:45:37Z</time>
      </trkpt>
      <trkpt lat="42.1136590" lon="2.3179610">
        <ele>810.8</ele>
        <time>2019-10-21T10:45:38Z</time>
      </trkpt>
      <trkpt lat="42.1136510" lon="2.3179620">
        <ele>810.8</ele>
        <time>2019-10-21T10:45:39Z</time>
      </trkpt>
      <trkpt lat="42.1136430" lon="2.3179630">
        <ele>810.6</ele>
        <time>2019-10-21T10:45:40Z</time>
      </trkpt>
      <trkpt lat="42.1136350" lon="2.3179640">
        <ele>810.8</ele>
        <time>2019-10-21T10:45:41Z</time>
      </trkpt>
      <trkpt lat="42.1136270" lon="2.3179650">
        <ele>810.8</ele>
        <time>2019-10-21T10:45:57Z</time>
      </trkpt>
      <trkpt lat="42.1136190" lon="2.3179660">
        <ele>810.8</ele>
        <time>2019-10-21T10:46:16Z</time>
      </trkpt>
      <trkpt lat="42.1136110" lon="2.3179670">
        <ele>810.8</ele>
        <time>2019-10-21T10:46:20Z</time>
      </trkpt>
      <trkpt lat="42.1136030" lon="2.3179670">
        <ele>810.8</ele>
        <time>2019-10-21T10:46:26Z</time>
      </trkpt>
      <trkpt lat="42.1135950" lon="2.3179680">
        <ele>810.8</ele>
        <time>2019-10-21T10:46:34Z</time>
      </trkpt>
      <trkpt lat="42.1135870" lon="2.3179690">
        <ele>809.8</ele>
        <time>2019-10-21T10:46:38Z</time>
      </trkpt>
      <trkpt lat="42.1135790" lon="2.3179700">
        <ele>810.0</ele>
        <time>2019-10-21T10:46:39Z</time>
      </trkpt>
      <trkpt lat="42.1135710" lon="2.3179710">
        <ele>810.0</ele>
        <time>2019-10-21T10:46:40Z</time>
      </trkpt>
      <trkpt lat="42.1135630" lon="2.3179720">
        <ele>809.8</ele>
        <time>2019-10-21T10:46:41Z</time>
      </trkpt>
      <trkpt lat="42.1135550" lon="2.3179730">
        <ele>810.0</ele>
        <time>2019-10-21T10:46:42Z</time>
      </trkpt>
      <trkpt lat="42.1135470" lon="2.3179740">
        <ele>809.8</ele>
        <time>2019-10-21T10:46:43Z</time>
      </trkpt>
      <trkpt lat="42.1135390" lon="2.3179750">
        <ele>810.0</ele>
        <time>2019-10-21T10:46:44Z</time>
      </trkpt>
      <trkpt lat="42.1135310" lon="2.3179760">
        <ele>810.4</ele>
        <time>2019-10-21T10:46:45Z</time>
      </trkpt>
      <trkpt lat="42.1135230" lon="2.3179770">
        <ele>810.6</ele>
        <time>2019-10-21T10:46:46Z</time>
      </trkpt>
      <trkpt lat="42.1135150" lon="2.3179780">
        <ele>811.0</ele>
        <time>2019-10-21T10:46:47Z</time>
      </trkpt>
      <trkpt lat="42.1135120" lon="2.3179590">
        <ele>810.8</ele>
        <time>2019-10-21T10:46:48Z</time>
      </trkpt>
      <trkpt lat="42.1135080" lon="2.3179390">
        <ele>810.6</ele>
        <time>2019-10-21T10:46:49Z</time>
      </trkpt>
      <trkpt lat="42.1135050" lon="2.3179200">
        <ele>811.0</ele>
        <time>2019-10-21T10:46:50Z</time>
      </trkpt>
      <trkpt lat="42.1135010" lon="2.3179000">
        <ele>811.2</ele>
        <time>2019-10-21T10:46:51Z</time>
      </trkpt>
      <trkpt lat="42.1134980" lon="2.3178810">
        <ele>812.0</ele>
        <time>2019-10-21T10:46:52Z</time>
      </trkpt>
      <trkpt lat="42.1134940" lon="2.3178610">
        <ele>812.4</ele>
        <time>2019-10-21T10:46:53Z</time>
      </trkpt>
      <trkpt lat="42.1134910" lon="2.3178420">
        <ele>812.6</ele>
        <time>2019-10-21T10:46:54Z</time>
      </trkpt>
      <trkpt lat="42.1134880" lon="2.3178230">
        <ele>813.0</ele>
        <time>2019-10-21T10:46:55Z</time>
      </trkpt>
      <trkpt lat="42.1134840" lon="2.3178030">
        <ele>813.4</ele>
        <time>2019-10-21T10:46:56Z</time>
      </trkpt>
      <trkpt lat="42.1134810" lon="2.3177840">
        <ele>814.0</ele>
        <time>2019-10-21T10:46:57Z</time>
      </trkpt>
      <trkpt lat="42.1134770" lon="2.3177640">
        <ele>814.6</ele>
        <time>2019-10-21T10:46:58Z</time>
      </trkpt>
      <trkpt lat="42.1134740" lon="2.3177450">
        <ele>814.2</ele>
        <time>2019-10-21T10:46:59Z</time>
      </trkpt>
      <trkpt lat="42.1134710" lon="2.3177260">
        <ele>814.6</ele>
        <time>2019-10-21T10:47:00Z</time>
      </trkpt>
      <trkpt lat="42.1134670" lon="2.3177060">
        <ele>815.4</ele>
        <time>2019-10-21T10:47:01Z</time>
      </trkpt>
      <trkpt lat="42.1134640" lon="2.3176870">
        <ele>816.0</ele>
        <time>2019-10-21T10:47:02Z</time>
      </trkpt>
      <trkpt lat="42.1134600" lon="2.3176670">
        <ele>816.8</ele>
        <time>2019-10-21T10:47:03Z</time>
      </trkpt>
      <trkpt lat="42.1134570" lon="2.3176480">
        <ele>816.8</ele>
        <time>2019-10-21T10:47:04Z</time>
      </trkpt>
      <trkpt lat="42.1134530" lon="2.3176280">
        <ele>817.2</ele>
        <time>2019-10-21T10:47:05Z</time>
      </trkpt>
      <trkpt lat="42.1134500" lon="2.3176090">
        <ele>818.2</ele>
        <time>2019-10-21T10:47:06Z</time>
      </trkpt>
      <trkpt lat="42.1134340" lon="2.3175830">
        <ele>818.6</ele>
        <time>2019-10-21T10:47:07Z</time>
      </trkpt>
      <trkpt lat="42.1134180" lon="2.3175580">
        <ele>818.8</ele>
        <time>2019-10-21T10:47:08Z</time>
      </trkpt>
      <trkpt lat="42.1134020" lon="2.3175320">
        <ele>818.6</ele>
        <time>2019-10-21T10:47:09Z</time>
      </trkpt>
      <trkpt lat="42.1133860" lon="2.3175070">
        <ele>819.0</ele>
        <time>2019-10-21T10:47:10Z</time>
      </trkpt>
      <trkpt lat="42.1133760" lon="2.3174910">
        <ele>819.8</ele>
        <time>2019-10-21T10:47:11Z</time>
      </trkpt>
      <trkpt lat="42.1133660" lon="2.3174740">
        <ele>820.0</ele>
        <time>2019-10-21T10:47:12Z</time>
      </trkpt>
      <trkpt lat="42.1133560" lon="2.3174580">
        <ele>820.4</ele>
        <time>2019-10-21T10:47:13Z</time>
      </trkpt>
      <trkpt lat="42.1133450" lon="2.3174420">
        <ele>820.8</ele>
        <time>2019-10-21T10:47:14Z</time>
      </trkpt>
      <trkpt lat="42.1133350" lon="2.3174250">
        <ele>821.4</ele>
        <time>2019-10-21T10:47:15Z</time>
      </trkpt>
      <trkpt lat="42.1133250" lon="2.3174090">
        <ele>822.0</ele>
        <time>2019-10-21T10:47:16Z</time>
      </trkpt>
      <trkpt lat="42.1133170" lon="2.3173970">
        <ele>822.2</ele>
        <time>2019-10-21T10:47:17Z</time>
      </trkpt>
      <trkpt lat="42.1133090" lon="2.3173860">
        <ele>822.8</ele>
        <time>2019-10-21T10:47:18Z</time>
      </trkpt>
      <trkpt lat="42.1133010" lon="2.3173740">
        <ele>823.6</ele>
        <time>2019-10-21T10:47:19Z</time>
      </trkpt>
      <trkpt lat="42.1132930" lon="2.3173620">
        <ele>824.0</ele>
        <time>2019-10-21T10:47:20Z</time>
      </trkpt>
      <trkpt lat="42.1132850" lon="2.3173510">
        <ele>824.4</ele>
        <time>2019-10-21T10:47:21Z</time>
      </trkpt>
      <trkpt lat="42.1132770" lon="2.3173390">
        <ele>825.0</ele>
        <time>2019-10-21T10:47:22Z</time>
      </trkpt>
      <trkpt lat="42.1132690" lon="2.3173280">
        <ele>825.4</ele>
        <time>2019-10-21T10:47:23Z</time>
      </trkpt>
      <trkpt lat="42.1132610" lon="2.3173160">
        <ele>825.6</ele>
        <time>2019-10-21T10:47:24Z</time>
      </trkpt>
      <trkpt lat="42.1132520" lon="2.3173070">
        <ele>826.0</ele>
        <time>2019-10-21T10:47:25Z</time>
      </trkpt>
      <trkpt lat="42.1132420" lon="2.3172980">
        <ele>826.8</ele>
        <time>2019-10-21T10:47:26Z</time>
      </trkpt>
      <trkpt lat="42.1132330" lon="2.3172900">
        <ele>827.2</ele>
        <time>2019-10-21T10:47:27Z</time>
      </trkpt>
      <trkpt lat="42.1132240" lon="2.3172810">
        <ele>827.8</ele>
        <time>2019-10-21T10:47:28Z</time>
      </trkpt>
      <trkpt lat="42.1132140" lon="2.3172720">
        <ele>828.0</ele>
        <time>2019-10-21T10:47:29Z</time>
      </trkpt>
      <trkpt lat="42.1132050" lon="2.3172630">
        <ele>828.2</ele>
        <time>2019-10-21T10:47:30Z</time>
      </trkpt>
      <trkpt lat="42.1131950" lon="2.3172550">
        <ele>828.8</ele>
        <time>2019-10-21T10:47:31Z</time>
      </trkpt>
      <trkpt lat="42.1131860" lon="2.3172460">
        <ele>829.6</ele>
        <time>2019-10-21T10:47:32Z</time>
      </trkpt>
      <trkpt lat="42.1131790" lon="2.3172370">
        <ele>829.4</ele>
        <time>2019-10-21T10:47:33Z</time>
      </trkpt>
      <trkpt lat="42.1131720" lon="2.3172270">
        <ele>829.6</ele>
        <time>2019-10-21T10:47:34Z</time>
      </trkpt>
      <trkpt lat="42.1131650" lon="2.3172180">
        <ele>830.2</ele>
        <time>2019-10-21T10:47:35Z</time>
      </trkpt>
      <trkpt lat="42.1131570" lon="2.3172090">
        <ele>830.6</ele>
        <time>2019-10-21T10:47:36Z</time>
      </trkpt>
      <trkpt lat="42.1131500" lon="2.3172000">
        <ele>831.0</ele>
        <time>2019-10-21T10:47:37Z</time>
      </trkpt>
      <trkpt lat="42.1131430" lon="2.3171900">
        <ele>831.6</ele>
        <time>2019-10-21T10:47:38Z</time>
      </trkpt>
      <trkpt lat="42.1131360" lon="2.3171810">
        <ele>832.2</ele>
        <time>2019-10-21T10:47:39Z</time>
      </trkpt>
      <trkpt lat="42.1131320" lon="2.3171690">
        <ele>832.4</ele>
        <time>2019-10-21T10:47:40Z</time>
      </trkpt>
      <trkpt lat="42.1131270" lon="2.3171570">
        <ele>832.4</ele>
        <time>2019-10-21T10:47:41Z</time>
      </trkpt>
      <trkpt lat="42.1131230" lon="2.3171450">
        <ele>833.0</ele>
        <time>2019-10-21T10:47:42Z</time>
      </trkpt>
      <trkpt lat="42.1131180" lon="2.3171330">
        <ele>833.2</ele>
        <time>2019-10-21T10:47:43Z</time>
      </trkpt>
      <trkpt lat="42.1131140" lon="2.3171210">
        <ele>833.0</ele>
        <time>2019-10-21T10:47:44Z</time>
      </trkpt>
      <trkpt lat="42.1131090" lon="2.3171090">
        <ele>833.6</ele>
        <time>2019-10-21T10:47:45Z</time>
      </trkpt>
      <trkpt lat="42.1131090" lon="2.3171090">
        <ele>834.4</ele>
        <time>2019-10-21T10:47:46Z</time>
      </trkpt>
      <trkpt lat="42.1131090" lon="2.3171090">
        <ele>834.6</ele>
        <time>2019-10-21T10:47:47Z</time>
      </trkpt>
      <trkpt lat="42.1131090" lon="2.3171090">
        <ele>834.4</ele>
        <time>2019-10-21T10:47:48Z</time>
      </trkpt>
      <trkpt lat="42.1131090" lon="2.3171090">
        <ele>835.4</ele>
        <time>2019-10-21T10:47:49Z</time>
      </trkpt>
      <trkpt lat="42.1131090" lon="2.3171090">
        <ele>835.8</ele>
        <time>2019-10-21T10:47:50Z</time>
      </trkpt>
      <trkpt lat="42.1131090" lon="2.3171090">
        <ele>835.8</ele>
        <time>2019-10-21T10:47:51Z</time>
      </trkpt>
      <trkpt lat="42.1130550" lon="2.3169980">
        <ele>836.6</ele>
        <time>2019-10-21T10:47:52Z</time>
      </trkpt>
      <trkpt lat="42.1130490" lon="2.3169910">
        <ele>836.4</ele>
        <time>2019-10-21T10:47:53Z</time>
      </trkpt>
      <trkpt lat="42.1130440" lon="2.3169830">
        <ele>836.8</ele>
        <time>2019-10-21T10:47:54Z</time>
      </trkpt>
      <trkpt lat="42.1130380" lon="2.3169760">
        <ele>838.0</ele>
        <time>2019-10-21T10:47:55Z</time>
      </trkpt>
      <trkpt lat="42.1130330" lon="2.3169680">
        <ele>838.4</ele>
        <time>2019-10-21T10:47:56Z</time>
      </trkpt>
      <trkpt lat="42.1130270" lon="2.3169610">
        <ele>838.4</ele>
        <time>2019-10-21T10:47:57Z</time>
      </trkpt>
      <trkpt lat="42.1130220" lon="2.3169530">
        <ele>839.2</ele>
        <time>2019-10-21T10:47:58Z</time>
      </trkpt>
      <trkpt lat="42.1130160" lon="2.3169460">
        <ele>839.6</ele>
        <time>2019-10-21T10:47:59Z</time>
      </trkpt>
      <trkpt lat="42.1129980" lon="2.3169060">
        <ele>839.8</ele>
        <time>2019-10-21T10:48:00Z</time>
      </trkpt>
      <trkpt lat="42.1129950" lon="2.3168970">
        <ele>840.6</ele>
        <time>2019-10-21T10:48:01Z</time>
      </trkpt>
      <trkpt lat="42.1129910" lon="2.3168890">
        <ele>841.2</ele>
        <time>2019-10-21T10:48:02Z</time>
      </trkpt>
      <trkpt lat="42.1129870" lon="2.3168800">
        <ele>841.8</ele>
        <time>2019-10-21T10:48:03Z</time>
      </trkpt>
      <trkpt lat="42.1129830" lon="2.3168720">
        <ele>842.4</ele>
        <time>2019-10-21T10:48:04Z</time>
      </trkpt>
      <trkpt lat="42.1129800" lon="2.3168630">
        <ele>843.0</ele>
        <time>2019-10-21T10:48:05Z</time>
      </trkpt>
      <trkpt lat="42.1129760" lon="2.3168550">
        <ele>843.2</ele>
        <time>2019-10-21T10:48:06Z</time>
      </trkpt>
      <trkpt lat="42.1129680" lon="2.3168260">
        <ele>843.8</ele>
        <time>2019-10-21T10:48:07Z</time>
      </trkpt>
      <trkpt lat="42.1129590" lon="2.3167970">
        <ele>844.2</ele>
        <time>2019-10-21T10:48:08Z</time>
      </trkpt>
      <trkpt lat="42.1129510" lon="2.3167680">
        <ele>844.6</ele>
        <time>2019-10-21T10:48:09Z</time>
      </trkpt>
      <trkpt lat="42.1129430" lon="2.3167380">
        <ele>845.4</ele>
        <time>2019-10-21T10:48:10Z</time>
      </trkpt>
      <trkpt lat="42.1129340" lon="2.3167090">
        <ele>845.8</ele>
        <time>2019-10-21T10:48:11Z</time>
      </trkpt>
      <trkpt lat="42.1129260" lon="2.3166800">
        <ele>846.0</ele>
        <time>2019-10-21T10:48:12Z</time>
      </trkpt>
      <trkpt lat="42.1129170" lon="2.3166510">
        <ele>846.8</ele>
        <time>2019-10-21T10:48:13Z</time>
      </trkpt>
      <trkpt lat="42.1129090" lon="2.3166220">
        <ele>846.8</ele>
        <time>2019-10-21T10:48:14Z</time>
      </trkpt>
      <trkpt lat="42.1128600" lon="2.3165300">
        <ele>847.4</ele>
        <time>2019-10-21T10:48:15Z</time>
      </trkpt>
      <trkpt lat="42.1128420" lon="2.3165060">
        <ele>847.4</ele>
        <time>2019-10-21T10:48:16Z</time>
      </trkpt>
      <trkpt lat="42.1128240" lon="2.3164820">
        <ele>848.2</ele>
        <time>2019-10-21T10:48:17Z</time>
      </trkpt>
      <trkpt lat="42.1128070" lon="2.3164580">
        <ele>848.6</ele>
        <time>2019-10-21T10:48:18Z</time>
      </trkpt>
      <trkpt lat="42.1127890" lon="2.3164340">
        <ele>848.4</ele>
        <time>2019-10-21T10:48:19Z</time>
      </trkpt>
      <trkpt lat="42.1127710" lon="2.3164100">
        <ele>849.2</ele>
        <time>2019-10-21T10:48:20Z</time>
      </trkpt>
      <trkpt lat="42.1127530" lon="2.3163860">
        <ele>849.8</ele>
        <time>2019-10-21T10:48:21Z</time>
      </trkpt>
      <trkpt lat="42.1127340" lon="2.3163620">
        <ele>850.4</ele>
        <time>2019-10-21T10:48:22Z</time>
      </trkpt>
      <trkpt lat="42.1127160" lon="2.3163370">
        <ele>851.0</ele>
        <time>2019-10-21T10:48:23Z</time>
      </trkpt>
      <trkpt lat="42.1126970" lon="2.3163130">
        <ele>851.4</ele>
        <time>2019-10-21T10:48:24Z</time>
      </trkpt>
      <trkpt lat="42.1126790" lon="2.3162880">
        <ele>851.6</ele>
        <time>2019-10-21T10:48:25Z</time>
      </trkpt>
      <trkpt lat="42.1126600" lon="2.3162640">
        <ele>852.0</ele>
        <time>2019-10-21T10:48:26Z</time>
      </trkpt>
      <trkpt lat="42.1125700" lon="2.3161470">
        <ele>852.4</ele>
        <time>2019-10-21T10:48:27Z</time>
      </trkpt>
      <trkpt lat="42.1125700" lon="2.3161470">
        <ele>852.8</ele>
        <time>2019-10-21T10:48:28Z</time>
      </trkpt>
      <trkpt lat="42.1125700" lon="2.3161470">
        <ele>853.6</ele>
        <time>2019-10-21T10:48:29Z</time>
      </trkpt>
      <trkpt lat="42.1124700" lon="2.3159940">
        <ele>854.2</ele>
        <time>2019-10-21T10:48:30Z</time>
      </trkpt>
      <trkpt lat="42.1124550" lon="2.3159670">
        <ele>854.6</ele>
        <time>2019-10-21T10:48:31Z</time>
      </trkpt>
      <trkpt lat="42.1124410" lon="2.3159400">
        <ele>854.6</ele>
        <time>2019-10-21T10:48:32Z</time>
      </trkpt>
      <trkpt lat="42.1124260" lon="2.3159130">
        <ele>854.8</ele>
        <time>2019-10-21T10:48:33Z</time>
      </trkpt>
      <trkpt lat="42.1124120" lon="2.3158860">
        <ele>855.6</ele>
        <time>2019-10-21T10:48:34Z</time>
      </trkpt>
      <trkpt lat="42.1123840" lon="2.3158520">
        <ele>856.0</ele>
        <time>2019-10-21T10:48:35Z</time>
      </trkpt>
      <trkpt lat="42.1123550" lon="2.3158190">
        <ele>856.2</ele>
        <time>2019-10-21T10:48:36Z</time>
      </trkpt>
      <trkpt lat="42.1123270" lon="2.3157850">
        <ele>857.0</ele>
        <time>2019-10-21T10:48:37Z</time>
      </trkpt>
      <trkpt lat="42.1122990" lon="2.3157510">
        <ele>857.2</ele>
        <time>2019-10-21T10:48:38Z</time>
      </trkpt>
      <trkpt lat="42.1122700" lon="2.3157180">
        <ele>857.4</ele>
        <time>2019-10-21T10:48:39Z</time>
      </trkpt>
      <trkpt lat="42.1122420" lon="2.3156840">
        <ele>858.0</ele>
        <time>2019-10-21T10:48:40Z</time>
      </trkpt>
      <trkpt lat="42.1122130" lon="2.3156510">
        <ele>858.4</ele>
        <time>2019-10-21T10:48:41Z</time>
      </trkpt>
      <trkpt lat="42.1121850" lon="2.3156170">
        <ele>858.6</ele>
        <time>2019-10-21T10:48:42Z</time>
      </trkpt>
      <trkpt lat="42.1121680" lon="2.3156060">
        <ele>859.2</ele>
        <time>2019-10-21T10:48:43Z</time>
      </trkpt>
      <trkpt lat="42.1121500" lon="2.3155950">
        <ele>860.0</ele>
        <time>2019-10-21T10:48:44Z</time>
      </trkpt>
      <trkpt lat="42.1121330" lon="2.3155830">
        <ele>860.4</ele>
        <time>2019-10-21T10:48:45Z</time>
      </trkpt>
      <trkpt lat="42.1121150" lon="2.3155720">
        <ele>860.8</ele>
        <time>2019-10-21T10:48:46Z</time>
      </trkpt>
      <trkpt lat="42.1120980" lon="2.3155610">
        <ele>861.0</ele>
        <time>2019-10-21T10:48:47Z</time>
      </trkpt>
      <trkpt lat="42.1120800" lon="2.3155500">
        <ele>862.0</ele>
        <time>2019-10-21T10:48:48Z</time>
      </trkpt>
      <trkpt lat="42.1120800" lon="2.3155500">
        <ele>862.4</ele>
        <time>2019-10-21T10:48:49Z</time>
      </trkpt>
      <trkpt lat="42.1119880" lon="2.3155110">
        <ele>862.8</ele>
        <time>2019-10-21T10:48:50Z</time>
      </trkpt>
      <trkpt lat="42.1119880" lon="2.3155110">
        <ele>862.8</ele>
        <time>2019-10-21T10:48:51Z</time>
      </trkpt>
      <trkpt lat="42.1119880" lon="2.3155110">
        <ele>863.4</ele>
        <time>2019-10-21T10:48:52Z</time>
      </trkpt>
      <trkpt lat="42.1119070" lon="2.3154570">
        <ele>863.8</ele>
        <time>2019-10-21T10:48:53Z</time>
      </trkpt>
      <trkpt lat="42.1118890" lon="2.3154450">
        <ele>863.8</ele>
        <time>2019-10-21T10:48:54Z</time>
      </trkpt>
      <trkpt lat="42.1118720" lon="2.3154320">
        <ele>864.2</ele>
        <time>2019-10-21T10:48:55Z</time>
      </trkpt>
      <trkpt lat="42.1118540" lon="2.3154200">
        <ele>865.2</ele>
        <time>2019-10-21T10:48:56Z</time>
      </trkpt>
      <trkpt lat="42.1118370" lon="2.3154070">
        <ele>865.2</ele>
        <time>2019-10-21T10:48:57Z</time>
      </trkpt>
      <trkpt lat="42.1118190" lon="2.3153950">
        <ele>865.8</ele>
        <time>2019-10-21T10:48:58Z</time>
      </trkpt>
      <trkpt lat="42.1117990" lon="2.3154030">
        <ele>866.0</ele>
        <time>2019-10-21T10:48:59Z</time>
      </trkpt>
      <trkpt lat="42.1117800" lon="2.3154110">
        <ele>866.2</ele>
        <time>2019-10-21T10:49:00Z</time>
      </trkpt>
      <trkpt lat="42.1117600" lon="2.3154200">
        <ele>866.8</ele>
        <time>2019-10-21T10:49:01Z</time>
      </trkpt>
      <trkpt lat="42.1117410" lon="2.3154280">
        <ele>866.8</ele>
        <time>2019-10-21T10:49:02Z</time>
      </trkpt>
      <trkpt lat="42.1117210" lon="2.3154360">
        <ele>867.2</ele>
        <time>2019-10-21T10:49:03Z</time>
      </trkpt>
      <trkpt lat="42.1116730" lon="2.3154690">
        <ele>867.0</ele>
        <time>2019-10-21T10:49:04Z</time>
      </trkpt>
      <trkpt lat="42.1116250" lon="2.3155020">
        <ele>866.6</ele>
        <time>2019-10-21T10:49:05Z</time>
      </trkpt>
      <trkpt lat="42.1116250" lon="2.3155020">
        <ele>867.0</ele>
        <time>2019-10-21T10:49:06Z</time>
      </trkpt>
      <trkpt lat="42.1116250" lon="2.3155020">
        <ele>866.8</ele>
        <time>2019-10-21T10:49:07Z</time>
      </trkpt>
      <trkpt lat="42.1116020" lon="2.3155040">
        <ele>867.4</ele>
        <time>2019-10-21T10:49:08Z</time>
      </trkpt>
      <trkpt lat="42.1115790" lon="2.3155060">
        <ele>867.6</ele>
        <time>2019-10-21T10:49:09Z</time>
      </trkpt>
      <trkpt lat="42.1115560" lon="2.3155080">
        <ele>868.0</ele>
        <time>2019-10-21T10:49:10Z</time>
      </trkpt>
      <trkpt lat="42.1115330" lon="2.3155100">
        <ele>868.0</ele>
        <time>2019-10-21T10:49:11Z</time>
      </trkpt>
      <trkpt lat="42.1115290" lon="2.3154630">
        <ele>867.4</ele>
        <time>2019-10-21T10:49:12Z</time>
      </trkpt>
      <trkpt lat="42.1115260" lon="2.3154170">
        <ele>867.0</ele>
        <time>2019-10-21T10:49:13Z</time>
      </trkpt>
      <trkpt lat="42.1115220" lon="2.3153700">
        <ele>866.4</ele>
        <time>2019-10-21T10:49:14Z</time>
      </trkpt>
      <trkpt lat="42.1115240" lon="2.3153250">
        <ele>865.6</ele>
        <time>2019-10-21T10:49:15Z</time>
      </trkpt>
      <trkpt lat="42.1115250" lon="2.3152800">
        <ele>865.2</ele>
        <time>2019-10-21T10:49:16Z</time>
      </trkpt>
      <trkpt lat="42.1115270" lon="2.3152350">
        <ele>864.8</ele>
        <time>2019-10-21T10:49:17Z</time>
      </trkpt>
      <trkpt lat="42.1115240" lon="2.3152100">
        <ele>864.0</ele>
        <time>2019-10-21T10:49:18Z</time>
      </trkpt>
      <trkpt lat="42.1115200" lon="2.3151850">
        <ele>864.2</ele>
        <time>2019-10-21T10:49:19Z</time>
      </trkpt>
      <trkpt lat="42.1115170" lon="2.3151600">
        <ele>863.2</ele>
        <time>2019-10-21T10:49:20Z</time>
      </trkpt>
      <trkpt lat="42.1115060" lon="2.3150620">
        <ele>863.6</ele>
        <time>2019-10-21T10:49:21Z</time>
      </trkpt>
      <trkpt lat="42.1115040" lon="2.3150390">
        <ele>863.2</ele>
        <time>2019-10-21T10:49:22Z</time>
      </trkpt>
      <trkpt lat="42.1115030" lon="2.3150150">
        <ele>863.4</ele>
        <time>2019-10-21T10:49:23Z</time>
      </trkpt>
      <trkpt lat="42.1114960" lon="2.3149180">
        <ele>863.0</ele>
        <time>2019-10-21T10:49:24Z</time>
      </trkpt>
      <trkpt lat="42.1114940" lon="2.3148910">
        <ele>863.2</ele>
        <time>2019-10-21T10:49:25Z</time>
      </trkpt>
      <trkpt lat="42.1114910" lon="2.3148650">
        <ele>862.8</ele>
        <time>2019-10-21T10:49:26Z</time>
      </trkpt>
      <trkpt lat="42.1114730" lon="2.3147420">
        <ele>863.0</ele>
        <time>2019-10-21T10:49:27Z</time>
      </trkpt>
      <trkpt lat="42.1114650" lon="2.3146960">
        <ele>862.6</ele>
        <time>2019-10-21T10:49:28Z</time>
      </trkpt>
      <trkpt lat="42.1114560" lon="2.3146510">
        <ele>863.0</ele>
        <time>2019-10-21T10:49:29Z</time>
      </trkpt>
      <trkpt lat="42.1114530" lon="2.3145980">
        <ele>862.6</ele>
        <time>2019-10-21T10:49:30Z</time>
      </trkpt>
      <trkpt lat="42.1114490" lon="2.3145440">
        <ele>863.2</ele>
        <time>2019-10-21T10:49:31Z</time>
      </trkpt>
      <trkpt lat="42.1114460" lon="2.3144910">
        <ele>863.0</ele>
        <time>2019-10-21T10:49:32Z</time>
      </trkpt>
      <trkpt lat="42.1114470" lon="2.3144410">
        <ele>863.6</ele>
        <time>2019-10-21T10:49:33Z</time>
      </trkpt>
      <trkpt lat="42.1114470" lon="2.3143920">
        <ele>863.6</ele>
        <time>2019-10-21T10:49:34Z</time>
      </trkpt>
      <trkpt lat="42.1114480" lon="2.3143420">
        <ele>864.2</ele>
        <time>2019-10-21T10:49:35Z</time>
      </trkpt>
      <trkpt lat="42.1114480" lon="2.3142920">
        <ele>864.2</ele>
        <time>2019-10-21T10:49:36Z</time>
      </trkpt>
      <trkpt lat="42.1114300" lon="2.3141930">
        <ele>865.0</ele>
        <time>2019-10-21T10:49:37Z</time>
      </trkpt>
      <trkpt lat="42.1114200" lon="2.3141620">
        <ele>865.4</ele>
        <time>2019-10-21T10:49:38Z</time>
      </trkpt>
      <trkpt lat="42.1114090" lon="2.3141320">
        <ele>866.2</ele>
        <time>2019-10-21T10:49:39Z</time>
      </trkpt>
      <trkpt lat="42.1113980" lon="2.3141020">
        <ele>866.4</ele>
        <time>2019-10-21T10:49:40Z</time>
      </trkpt>
      <trkpt lat="42.1113690" lon="2.3140660">
        <ele>867.2</ele>
        <time>2019-10-21T10:49:41Z</time>
      </trkpt>
      <trkpt lat="42.1113400" lon="2.3140290">
        <ele>867.8</ele>
        <time>2019-10-21T10:49:42Z</time>
      </trkpt>
      <trkpt lat="42.1113110" lon="2.3139930">
        <ele>868.2</ele>
        <time>2019-10-21T10:49:43Z</time>
      </trkpt>
      <trkpt lat="42.1112940" lon="2.3139730">
        <ele>868.4</ele>
        <time>2019-10-21T10:49:44Z</time>
      </trkpt>
      <trkpt lat="42.1112760" lon="2.3139530">
        <ele>868.4</ele>
        <time>2019-10-21T10:49:45Z</time>
      </trkpt>
      <trkpt lat="42.1112590" lon="2.3139340">
        <ele>868.2</ele>
        <time>2019-10-21T10:49:46Z</time>
      </trkpt>
      <trkpt lat="42.1112410" lon="2.3139140">
        <ele>868.4</ele>
        <time>2019-10-21T10:49:47Z</time>
      </trkpt>
      <trkpt lat="42.1111320" lon="2.3137980">
        <ele>868.0</ele>
        <time>2019-10-21T10:49:48Z</time>
      </trkpt>
      <trkpt lat="42.1111160" lon="2.3137770">
        <ele>868.0</ele>
        <time>2019-10-21T10:49:49Z</time>
      </trkpt>
      <trkpt lat="42.1110990" lon="2.3137550">
        <ele>868.4</ele>
        <time>2019-10-21T10:49:50Z</time>
      </trkpt>
      <trkpt lat="42.1110820" lon="2.3137340">
        <ele>868.6</ele>
        <time>2019-10-21T10:49:51Z</time>
      </trkpt>
      <trkpt lat="42.1110550" lon="2.3136950">
        <ele>869.2</ele>
        <time>2019-10-21T10:49:52Z</time>
      </trkpt>
      <trkpt lat="42.1110290" lon="2.3136560">
        <ele>869.4</ele>
        <time>2019-10-21T10:49:53Z</time>
      </trkpt>
      <trkpt lat="42.1110020" lon="2.3136170">
        <ele>870.4</ele>
        <time>2019-10-21T10:49:54Z</time>
      </trkpt>
      <trkpt lat="42.1109750" lon="2.3135780">
        <ele>871.0</ele>
        <time>2019-10-21T10:49:55Z</time>
      </trkpt>
      <trkpt lat="42.1109270" lon="2.3135070">
        <ele>872.0</ele>
        <time>2019-10-21T10:49:56Z</time>
      </trkpt>
      <trkpt lat="42.1109110" lon="2.3134790">
        <ele>871.6</ele>
        <time>2019-10-21T10:49:57Z</time>
      </trkpt>
      <trkpt lat="42.1108940" lon="2.3134520">
        <ele>872.4</ele>
        <time>2019-10-21T10:49:58Z</time>
      </trkpt>
      <trkpt lat="42.1108780" lon="2.3134250">
        <ele>872.2</ele>
        <time>2019-10-21T10:49:59Z</time>
      </trkpt>
      <trkpt lat="42.1108560" lon="2.3133910">
        <ele>872.2</ele>
        <time>2019-10-21T10:50:01Z</time>
      </trkpt>
      <trkpt lat="42.1108350" lon="2.3133560">
        <ele>872.2</ele>
        <time>2019-10-21T10:50:02Z</time>
      </trkpt>
      <trkpt lat="42.1108130" lon="2.3133220">
        <ele>871.8</ele>
        <time>2019-10-21T10:50:03Z</time>
      </trkpt>
      <trkpt lat="42.1107860" lon="2.3132890">
        <ele>871.6</ele>
        <time>2019-10-21T10:50:04Z</time>
      </trkpt>
      <trkpt lat="42.1107600" lon="2.3132560">
        <ele>871.0</ele>
        <time>2019-10-21T10:50:05Z</time>
      </trkpt>
      <trkpt lat="42.1107330" lon="2.3132230">
        <ele>870.0</ele>
        <time>2019-10-21T10:50:06Z</time>
      </trkpt>
      <trkpt lat="42.1107330" lon="2.3132230">
        <ele>870.0</ele>
        <time>2019-10-21T10:50:07Z</time>
      </trkpt>
      <trkpt lat="42.1107330" lon="2.3132230">
        <ele>869.0</ele>
        <time>2019-10-21T10:50:08Z</time>
      </trkpt>
      <trkpt lat="42.1107330" lon="2.3132230">
        <ele>869.2</ele>
        <time>2019-10-21T10:50:09Z</time>
      </trkpt>
      <trkpt lat="42.1107330" lon="2.3132230">
        <ele>868.8</ele>
        <time>2019-10-21T10:50:10Z</time>
      </trkpt>
      <trkpt lat="42.1107330" lon="2.3132230">
        <ele>869.0</ele>
        <time>2019-10-21T10:50:11Z</time>
      </trkpt>
      <trkpt lat="42.1107330" lon="2.3132230">
        <ele>868.4</ele>
        <time>2019-10-21T10:50:12Z</time>
      </trkpt>
      <trkpt lat="42.1107330" lon="2.3132230">
        <ele>868.4</ele>
        <time>2019-10-21T10:50:13Z</time>
      </trkpt>
      <trkpt lat="42.1107330" lon="2.3132230">
        <ele>867.8</ele>
        <time>2019-10-21T10:50:14Z</time>
      </trkpt>
      <trkpt lat="42.1107330" lon="2.3132230">
        <ele>867.8</ele>
        <time>2019-10-21T10:50:15Z</time>
      </trkpt>
      <trkpt lat="42.1107330" lon="2.3132230">
        <ele>866.8</ele>
        <time>2019-10-21T10:50:16Z</time>
      </trkpt>
      <trkpt lat="42.1107330" lon="2.3132230">
        <ele>866.2</ele>
        <time>2019-10-21T10:50:17Z</time>
      </trkpt>
      <trkpt lat="42.1107330" lon="2.3132230">
        <ele>865.6</ele>
        <time>2019-10-21T10:50:18Z</time>
      </trkpt>
      <trkpt lat="42.1107330" lon="2.3132230">
        <ele>865.8</ele>
        <time>2019-10-21T10:50:19Z</time>
      </trkpt>
      <trkpt lat="42.1107330" lon="2.3132230">
        <ele>865.8</ele>
        <time>2019-10-21T10:50:20Z</time>
      </trkpt>
      <trkpt lat="42.1107330" lon="2.3132230">
        <ele>865.6</ele>
        <time>2019-10-21T10:50:21Z</time>
      </trkpt>
      <trkpt lat="42.1107330" lon="2.3132230">
        <ele>865.0</ele>
        <time>2019-10-21T10:50:22Z</time>
      </trkpt>
      <trkpt lat="42.1107330" lon="2.3132230">
        <ele>865.2</ele>
        <time>2019-10-21T10:50:23Z</time>
      </trkpt>
      <trkpt lat="42.1107330" lon="2.3132230">
        <ele>864.6</ele>
        <time>2019-10-21T10:50:24Z</time>
      </trkpt>
      <trkpt lat="42.1107330" lon="2.3132230">
        <ele>865.0</ele>
        <time>2019-10-21T10:50:25Z</time>
      </trkpt>
      <trkpt lat="42.1107330" lon="2.3132230">
        <ele>864.4</ele>
        <time>2019-10-21T10:50:26Z</time>
      </trkpt>
      <trkpt lat="42.1107330" lon="2.3132230">
        <ele>864.4</ele>
        <time>2019-10-21T10:50:27Z</time>
      </trkpt>
      <trkpt lat="42.1107410" lon="2.3131830">
        <ele>864.0</ele>
        <time>2019-10-21T10:50:28Z</time>
      </trkpt>
      <trkpt lat="42.1107480" lon="2.3131430">
        <ele>864.0</ele>
        <time>2019-10-21T10:50:29Z</time>
      </trkpt>
      <trkpt lat="42.1107560" lon="2.3131030">
        <ele>863.4</ele>
        <time>2019-10-21T10:50:30Z</time>
      </trkpt>
      <trkpt lat="42.1107560" lon="2.3131030">
        <ele>863.0</ele>
        <time>2019-10-21T10:50:31Z</time>
      </trkpt>
      <trkpt lat="42.1107560" lon="2.3131030">
        <ele>862.2</ele>
        <time>2019-10-21T10:50:32Z</time>
      </trkpt>
      <trkpt lat="42.1107560" lon="2.3131030">
        <ele>862.2</ele>
        <time>2019-10-21T10:50:33Z</time>
      </trkpt>
      <trkpt lat="42.1107560" lon="2.3131030">
        <ele>861.0</ele>
        <time>2019-10-21T10:50:34Z</time>
      </trkpt>
      <trkpt lat="42.1107560" lon="2.3131030">
        <ele>860.6</ele>
        <time>2019-10-21T10:50:35Z</time>
      </trkpt>
      <trkpt lat="42.1107570" lon="2.3130820">
        <ele>858.8</ele>
        <time>2019-10-21T10:50:36Z</time>
      </trkpt>
      <trkpt lat="42.1107580" lon="2.3130620">
        <ele>858.6</ele>
        <time>2019-10-21T10:50:37Z</time>
      </trkpt>
      <trkpt lat="42.1107590" lon="2.3130410">
        <ele>857.8</ele>
        <time>2019-10-21T10:50:38Z</time>
      </trkpt>
      <trkpt lat="42.1107610" lon="2.3129780">
        <ele>857.4</ele>
        <time>2019-10-21T10:50:39Z</time>
      </trkpt>
      <trkpt lat="42.1107610" lon="2.3129780">
        <ele>856.2</ele>
        <time>2019-10-21T10:50:40Z</time>
      </trkpt>
      <trkpt lat="42.1107610" lon="2.3129780">
        <ele>856.0</ele>
        <time>2019-10-21T10:50:41Z</time>
      </trkpt>
      <trkpt lat="42.1107610" lon="2.3129780">
        <ele>855.6</ele>
        <time>2019-10-21T10:50:42Z</time>
      </trkpt>
      <trkpt lat="42.1107610" lon="2.3129780">
        <ele>854.8</ele>
        <time>2019-10-21T10:50:43Z</time>
      </trkpt>
      <trkpt lat="42.1107610" lon="2.3129780">
        <ele>854.2</ele>
        <time>2019-10-21T10:50:44Z</time>
      </trkpt>
      <trkpt lat="42.1107610" lon="2.3129780">
        <ele>853.6</ele>
        <time>2019-10-21T10:50:45Z</time>
      </trkpt>
      <trkpt lat="42.1107610" lon="2.3129780">
        <ele>853.4</ele>
        <time>2019-10-21T10:50:46Z</time>
      </trkpt>
      <trkpt lat="42.1108070" lon="2.3128710">
        <ele>852.6</ele>
        <time>2019-10-21T10:50:47Z</time>
      </trkpt>
      <trkpt lat="42.1108070" lon="2.3128710">
        <ele>852.6</ele>
        <time>2019-10-21T10:50:48Z</time>
      </trkpt>
      <trkpt lat="42.1108070" lon="2.3128710">
        <ele>852.0</ele>
        <time>2019-10-21T10:50:49Z</time>
      </trkpt>
      <trkpt lat="42.1108070" lon="2.3128710">
        <ele>851.8</ele>
        <time>2019-10-21T10:50:50Z</time>
      </trkpt>
      <trkpt lat="42.1108070" lon="2.3128710">
        <ele>851.8</ele>
        <time>2019-10-21T10:50:51Z</time>
      </trkpt>
      <trkpt lat="42.1108070" lon="2.3128710">
        <ele>850.8</ele>
        <time>2019-10-21T10:50:52Z</time>
      </trkpt>
      <trkpt lat="42.1108070" lon="2.3128710">
        <ele>850.0</ele>
        <time>2019-10-21T10:50:53Z</time>
      </trkpt>
      <trkpt lat="42.1108070" lon="2.3128710">
        <ele>849.8</ele>
        <time>2019-10-21T10:50:54Z</time>
      </trkpt>
      <trkpt lat="42.1108070" lon="2.3128710">
        <ele>849.2</ele>
        <time>2019-10-21T10:50:55Z</time>
      </trkpt>
      <trkpt lat="42.1108090" lon="2.3128230">
        <ele>848.6</ele>
        <time>2019-10-21T10:50:56Z</time>
      </trkpt>
      <trkpt lat="42.1108110" lon="2.3127750">
        <ele>848.6</ele>
        <time>2019-10-21T10:50:59Z</time>
      </trkpt>
      <trkpt lat="42.1108130" lon="2.3127260">
        <ele>848.6</ele>
        <time>2019-10-21T10:51:08Z</time>
      </trkpt>
      <trkpt lat="42.1108150" lon="2.3126780">
        <ele>848.4</ele>
        <time>2019-10-21T10:51:15Z</time>
      </trkpt>
      <trkpt lat="42.1108170" lon="2.3126300">
        <ele>848.4</ele>
        <time>2019-10-21T10:51:16Z</time>
      </trkpt>
      <trkpt lat="42.1108190" lon="2.3125820">
        <ele>848.4</ele>
        <time>2019-10-21T10:51:17Z</time>
      </trkpt>
      <trkpt lat="42.1108210" lon="2.3125330">
        <ele>848.6</ele>
        <time>2019-10-21T10:51:18Z</time>
      </trkpt>
      <trkpt lat="42.1108230" lon="2.3124850">
        <ele>848.8</ele>
        <time>2019-10-21T10:51:19Z</time>
      </trkpt>
      <trkpt lat="42.1108280" lon="2.3124740">
        <ele>848.8</ele>
        <time>2019-10-21T10:51:20Z</time>
      </trkpt>
      <trkpt lat="42.1108340" lon="2.3124630">
        <ele>849.0</ele>
        <time>2019-10-21T10:51:21Z</time>
      </trkpt>
      <trkpt lat="42.1108390" lon="2.3124510">
        <ele>849.2</ele>
        <time>2019-10-21T10:51:22Z</time>
      </trkpt>
      <trkpt lat="42.1108450" lon="2.3124400">
        <ele>849.6</ele>
        <time>2019-10-21T10:51:23Z</time>
      </trkpt>
      <trkpt lat="42.1108500" lon="2.3124290">
        <ele>850.2</ele>
        <time>2019-10-21T10:51:24Z</time>
      </trkpt>
      <trkpt lat="42.1108550" lon="2.3124180">
        <ele>850.8</ele>
        <time>2019-10-21T10:51:25Z</time>
      </trkpt>
      <trkpt lat="42.1108610" lon="2.3124070">
        <ele>850.8</ele>
        <time>2019-10-21T10:51:26Z</time>
      </trkpt>
      <trkpt lat="42.1108660" lon="2.3123950">
        <ele>851.4</ele>
        <time>2019-10-21T10:51:27Z</time>
      </trkpt>
      <trkpt lat="42.1108720" lon="2.3123840">
        <ele>851.8</ele>
        <time>2019-10-21T10:51:28Z</time>
      </trkpt>
      <trkpt lat="42.1108770" lon="2.3123730">
        <ele>852.2</ele>
        <time>2019-10-21T10:51:29Z</time>
      </trkpt>
      <trkpt lat="42.1108770" lon="2.3123730">
        <ele>852.4</ele>
        <time>2019-10-21T10:51:30Z</time>
      </trkpt>
      <trkpt lat="42.1108770" lon="2.3123730">
        <ele>853.0</ele>
        <time>2019-10-21T10:51:31Z</time>
      </trkpt>
      <trkpt lat="42.1108770" lon="2.3123730">
        <ele>853.4</ele>
        <time>2019-10-21T10:51:32Z</time>
      </trkpt>
      <trkpt lat="42.1108770" lon="2.3123730">
        <ele>853.8</ele>
        <time>2019-10-21T10:51:33Z</time>
      </trkpt>
      <trkpt lat="42.1108770" lon="2.3123730">
        <ele>854.0</ele>
        <time>2019-10-21T10:51:34Z</time>
      </trkpt>
      <trkpt lat="42.1108770" lon="2.3123730">
        <ele>854.4</ele>
        <time>2019-10-21T10:51:35Z</time>
      </trkpt>
      <trkpt lat="42.1108770" lon="2.3123730">
        <ele>855.2</ele>
        <time>2019-10-21T10:51:36Z</time>
      </trkpt>
      <trkpt lat="42.1108770" lon="2.3123730">
        <ele>855.6</ele>
        <time>2019-10-21T10:51:37Z</time>
      </trkpt>
      <trkpt lat="42.1108780" lon="2.3123620">
        <ele>856.2</ele>
        <time>2019-10-21T10:51:38Z</time>
      </trkpt>
      <trkpt lat="42.1108800" lon="2.3123510">
        <ele>856.4</ele>
        <time>2019-10-21T10:51:39Z</time>
      </trkpt>
      <trkpt lat="42.1108810" lon="2.3123400">
        <ele>856.6</ele>
        <time>2019-10-21T10:51:40Z</time>
      </trkpt>
      <trkpt lat="42.1108820" lon="2.3123280">
        <ele>856.8</ele>
        <time>2019-10-21T10:51:41Z</time>
      </trkpt>
      <trkpt lat="42.1108830" lon="2.3123170">
        <ele>857.2</ele>
        <time>2019-10-21T10:51:42Z</time>
      </trkpt>
      <trkpt lat="42.1108850" lon="2.3123060">
        <ele>857.6</ele>
        <time>2019-10-21T10:51:43Z</time>
      </trkpt>
      <trkpt lat="42.1108860" lon="2.3122950">
        <ele>858.0</ele>
        <time>2019-10-21T10:51:44Z</time>
      </trkpt>
      <trkpt lat="42.1108870" lon="2.3122840">
        <ele>858.4</ele>
        <time>2019-10-21T10:51:45Z</time>
      </trkpt>
      <trkpt lat="42.1108880" lon="2.3122730">
        <ele>858.8</ele>
        <time>2019-10-21T10:51:46Z</time>
      </trkpt>
      <trkpt lat="42.1108900" lon="2.3122610">
        <ele>859.2</ele>
        <time>2019-10-21T10:51:47Z</time>
      </trkpt>
      <trkpt lat="42.1108910" lon="2.3122500">
        <ele>859.6</ele>
        <time>2019-10-21T10:51:48Z</time>
      </trkpt>
      <trkpt lat="42.1108920" lon="2.3122390">
        <ele>860.0</ele>
        <time>2019-10-21T10:51:49Z</time>
      </trkpt>
      <trkpt lat="42.1108900" lon="2.3122250">
        <ele>860.4</ele>
        <time>2019-10-21T10:51:50Z</time>
      </trkpt>
      <trkpt lat="42.1108870" lon="2.3122120">
        <ele>860.8</ele>
        <time>2019-10-21T10:51:51Z</time>
      </trkpt>
      <trkpt lat="42.1108850" lon="2.3121980">
        <ele>861.0</ele>
        <time>2019-10-21T10:51:52Z</time>
      </trkpt>
      <trkpt lat="42.1108820" lon="2.3121850">
        <ele>861.4</ele>
        <time>2019-10-21T10:51:53Z</time>
      </trkpt>
      <trkpt lat="42.1108800" lon="2.3121710">
        <ele>861.6</ele>
        <time>2019-10-21T10:51:54Z</time>
      </trkpt>
      <trkpt lat="42.1108770" lon="2.3121580">
        <ele>862.2</ele>
        <time>2019-10-21T10:51:55Z</time>
      </trkpt>
      <trkpt lat="42.1108750" lon="2.3121440">
        <ele>862.6</ele>
        <time>2019-10-21T10:51:56Z</time>
      </trkpt>
      <trkpt lat="42.1108720" lon="2.3121310">
        <ele>863.2</ele>
        <time>2019-10-21T10:51:57Z</time>
      </trkpt>
      <trkpt lat="42.1108700" lon="2.3121170">
        <ele>863.4</ele>
        <time>2019-10-21T10:51:58Z</time>
      </trkpt>
      <trkpt lat="42.1107800" lon="2.3120900">
        <ele>863.6</ele>
        <time>2019-10-21T10:51:59Z</time>
      </trkpt>
      <trkpt lat="42.1107800" lon="2.3120900">
        <ele>863.8</ele>
        <time>2019-10-21T10:52:00Z</time>
      </trkpt>
      <trkpt lat="42.1107800" lon="2.3120900">
        <ele>864.2</ele>
        <time>2019-10-21T10:52:01Z</time>
      </trkpt>
      <trkpt lat="42.1107800" lon="2.3120900">
        <ele>864.4</ele>
        <time>2019-10-21T10:52:02Z</time>
      </trkpt>
      <trkpt lat="42.1107800" lon="2.3120900">
        <ele>864.8</ele>
        <time>2019-10-21T10:52:03Z</time>
      </trkpt>
      <trkpt lat="42.1107800" lon="2.3120900">
        <ele>864.6</ele>
        <time>2019-10-21T10:52:04Z</time>
      </trkpt>
      <trkpt lat="42.1107800" lon="2.3120900">
        <ele>865.2</ele>
        <time>2019-10-21T10:52:05Z</time>
      </trkpt>
      <trkpt lat="42.1107800" lon="2.3120900">
        <ele>865.4</ele>
        <time>2019-10-21T10:52:06Z</time>
      </trkpt>
      <trkpt lat="42.1107800" lon="2.3120900">
        <ele>866.2</ele>
        <time>2019-10-21T10:52:07Z</time>
      </trkpt>
      <trkpt lat="42.1107800" lon="2.3120900">
        <ele>866.6</ele>
        <time>2019-10-21T10:52:08Z</time>
      </trkpt>
      <trkpt lat="42.1107730" lon="2.3120780">
        <ele>867.4</ele>
        <time>2019-10-21T10:52:09Z</time>
      </trkpt>
      <trkpt lat="42.1107650" lon="2.3120660">
        <ele>867.8</ele>
        <time>2019-10-21T10:52:10Z</time>
      </trkpt>
      <trkpt lat="42.1107580" lon="2.3120540">
        <ele>868.0</ele>
        <time>2019-10-21T10:52:11Z</time>
      </trkpt>
      <trkpt lat="42.1107500" lon="2.3120420">
        <ele>868.4</ele>
        <time>2019-10-21T10:52:12Z</time>
      </trkpt>
      <trkpt lat="42.1107430" lon="2.3120300">
        <ele>868.6</ele>
        <time>2019-10-21T10:52:13Z</time>
      </trkpt>
      <trkpt lat="42.1107350" lon="2.3120180">
        <ele>868.8</ele>
        <time>2019-10-21T10:52:14Z</time>
      </trkpt>
      <trkpt lat="42.1107280" lon="2.3120060">
        <ele>869.2</ele>
        <time>2019-10-21T10:52:15Z</time>
      </trkpt>
      <trkpt lat="42.1107200" lon="2.3119940">
        <ele>869.6</ele>
        <time>2019-10-21T10:52:16Z</time>
      </trkpt>
      <trkpt lat="42.1107160" lon="2.3119910">
        <ele>869.8</ele>
        <time>2019-10-21T10:52:17Z</time>
      </trkpt>
      <trkpt lat="42.1107120" lon="2.3119870">
        <ele>870.0</ele>
        <time>2019-10-21T10:52:18Z</time>
      </trkpt>
      <trkpt lat="42.1107080" lon="2.3119840">
        <ele>870.2</ele>
        <time>2019-10-21T10:52:19Z</time>
      </trkpt>
      <trkpt lat="42.1107030" lon="2.3119800">
        <ele>870.6</ele>
        <time>2019-10-21T10:52:20Z</time>
      </trkpt>
      <trkpt lat="42.1106990" lon="2.3119770">
        <ele>871.0</ele>
        <time>2019-10-21T10:52:21Z</time>
      </trkpt>
      <trkpt lat="42.1106950" lon="2.3119740">
        <ele>871.4</ele>
        <time>2019-10-21T10:52:22Z</time>
      </trkpt>
      <trkpt lat="42.1106910" lon="2.3119700">
        <ele>872.0</ele>
        <time>2019-10-21T10:52:23Z</time>
      </trkpt>
      <trkpt lat="42.1106870" lon="2.3119670">
        <ele>872.2</ele>
        <time>2019-10-21T10:52:24Z</time>
      </trkpt>
      <trkpt lat="42.1106830" lon="2.3119630">
        <ele>872.2</ele>
        <time>2019-10-21T10:52:25Z</time>
      </trkpt>
      <trkpt lat="42.1106790" lon="2.3119600">
        <ele>872.8</ele>
        <time>2019-10-21T10:52:26Z</time>
      </trkpt>
      <trkpt lat="42.1106740" lon="2.3119570">
        <ele>873.0</ele>
        <time>2019-10-21T10:52:27Z</time>
      </trkpt>
      <trkpt lat="42.1106700" lon="2.3119530">
        <ele>873.2</ele>
        <time>2019-10-21T10:52:28Z</time>
      </trkpt>
      <trkpt lat="42.1106660" lon="2.3119500">
        <ele>873.4</ele>
        <time>2019-10-21T10:52:29Z</time>
      </trkpt>
      <trkpt lat="42.1106620" lon="2.3119460">
        <ele>873.8</ele>
        <time>2019-10-21T10:52:30Z</time>
      </trkpt>
      <trkpt lat="42.1106580" lon="2.3119430">
        <ele>874.2</ele>
        <time>2019-10-21T10:52:31Z</time>
      </trkpt>
      <trkpt lat="42.1106540" lon="2.3119400">
        <ele>874.4</ele>
        <time>2019-10-21T10:52:32Z</time>
      </trkpt>
      <trkpt lat="42.1106490" lon="2.3119360">
        <ele>874.6</ele>
        <time>2019-10-21T10:52:33Z</time>
      </trkpt>
      <trkpt lat="42.1106450" lon="2.3119330">
        <ele>875.0</ele>
        <time>2019-10-21T10:52:34Z</time>
      </trkpt>
      <trkpt lat="42.1106410" lon="2.3119290">
        <ele>875.4</ele>
        <time>2019-10-21T10:52:35Z</time>
      </trkpt>
      <trkpt lat="42.1106370" lon="2.3119260">
        <ele>875.6</ele>
        <time>2019-10-21T10:52:36Z</time>
      </trkpt>
      <trkpt lat="42.1106220" lon="2.3119220">
        <ele>875.8</ele>
        <time>2019-10-21T10:52:37Z</time>
      </trkpt>
      <trkpt lat="42.1106070" lon="2.3119170">
        <ele>876.0</ele>
        <time>2019-10-21T10:52:38Z</time>
      </trkpt>
      <trkpt lat="42.1105920" lon="2.3119130">
        <ele>876.4</ele>
        <time>2019-10-21T10:52:39Z</time>
      </trkpt>
      <trkpt lat="42.1105770" lon="2.3119090">
        <ele>877.0</ele>
        <time>2019-10-21T10:52:40Z</time>
      </trkpt>
      <trkpt lat="42.1105620" lon="2.3119040">
        <ele>877.6</ele>
        <time>2019-10-21T10:52:41Z</time>
      </trkpt>
      <trkpt lat="42.1105470" lon="2.3119000">
        <ele>877.8</ele>
        <time>2019-10-21T10:52:42Z</time>
      </trkpt>
      <trkpt lat="42.1105350" lon="2.3118930">
        <ele>878.4</ele>
        <time>2019-10-21T10:52:43Z</time>
      </trkpt>
      <trkpt lat="42.1105220" lon="2.3118870">
        <ele>879.0</ele>
        <time>2019-10-21T10:52:44Z</time>
      </trkpt>
      <trkpt lat="42.1105100" lon="2.3118800">
        <ele>879.4</ele>
        <time>2019-10-21T10:52:45Z</time>
      </trkpt>
      <trkpt lat="42.1104970" lon="2.3118730">
        <ele>879.4</ele>
        <time>2019-10-21T10:52:46Z</time>
      </trkpt>
      <trkpt lat="42.1104850" lon="2.3118660">
        <ele>880.0</ele>
        <time>2019-10-21T10:52:47Z</time>
      </trkpt>
      <trkpt lat="42.1104720" lon="2.3118600">
        <ele>880.6</ele>
        <time>2019-10-21T10:52:48Z</time>
      </trkpt>
      <trkpt lat="42.1104600" lon="2.3118530">
        <ele>881.0</ele>
        <time>2019-10-21T10:52:49Z</time>
      </trkpt>
      <trkpt lat="42.1104430" lon="2.3118450">
        <ele>881.4</ele>
        <time>2019-10-21T10:52:50Z</time>
      </trkpt>
      <trkpt lat="42.1104260" lon="2.3118370">
        <ele>881.8</ele>
        <time>2019-10-21T10:52:51Z</time>
      </trkpt>
      <trkpt lat="42.1104090" lon="2.3118300">
        <ele>882.0</ele>
        <time>2019-10-21T10:52:52Z</time>
      </trkpt>
      <trkpt lat="42.1103920" lon="2.3118220">
        <ele>882.2</ele>
        <time>2019-10-21T10:52:53Z</time>
      </trkpt>
      <trkpt lat="42.1103740" lon="2.3118140">
        <ele>882.4</ele>
        <time>2019-10-21T10:52:54Z</time>
      </trkpt>
      <trkpt lat="42.1103570" lon="2.3118060">
        <ele>882.8</ele>
        <time>2019-10-21T10:52:55Z</time>
      </trkpt>
      <trkpt lat="42.1103400" lon="2.3117980">
        <ele>883.0</ele>
        <time>2019-10-21T10:52:56Z</time>
      </trkpt>
      <trkpt lat="42.1103230" lon="2.3117900">
        <ele>883.4</ele>
        <time>2019-10-21T10:52:57Z</time>
      </trkpt>
      <trkpt lat="42.1103060" lon="2.3117830">
        <ele>883.8</ele>
        <time>2019-10-21T10:52:58Z</time>
      </trkpt>
      <trkpt lat="42.1102890" lon="2.3117750">
        <ele>884.0</ele>
        <time>2019-10-21T10:52:59Z</time>
      </trkpt>
      <trkpt lat="42.1102720" lon="2.3117670">
        <ele>884.4</ele>
        <time>2019-10-21T10:53:00Z</time>
      </trkpt>
      <trkpt lat="42.1102550" lon="2.3117590">
        <ele>884.6</ele>
        <time>2019-10-21T10:53:01Z</time>
      </trkpt>
      <trkpt lat="42.1102370" lon="2.3117510">
        <ele>885.2</ele>
        <time>2019-10-21T10:53:02Z</time>
      </trkpt>
      <trkpt lat="42.1102200" lon="2.3117440">
        <ele>885.2</ele>
        <time>2019-10-21T10:53:03Z</time>
      </trkpt>
      <trkpt lat="42.1102030" lon="2.3117360">
        <ele>885.4</ele>
        <time>2019-10-21T10:53:04Z</time>
      </trkpt>
      <trkpt lat="42.1101860" lon="2.3117280">
        <ele>885.6</ele>
        <time>2019-10-21T10:53:05Z</time>
      </trkpt>
      <trkpt lat="42.1101690" lon="2.3117240">
        <ele>886.0</ele>
        <time>2019-10-21T10:53:06Z</time>
      </trkpt>
      <trkpt lat="42.1101510" lon="2.3117200">
        <ele>886.0</ele>
        <time>2019-10-21T10:53:07Z</time>
      </trkpt>
      <trkpt lat="42.1101340" lon="2.3117170">
        <ele>886.8</ele>
        <time>2019-10-21T10:53:08Z</time>
      </trkpt>
      <trkpt lat="42.1101160" lon="2.3117130">
        <ele>887.4</ele>
        <time>2019-10-21T10:53:09Z</time>
      </trkpt>
      <trkpt lat="42.1100990" lon="2.3117090">
        <ele>887.6</ele>
        <time>2019-10-21T10:53:10Z</time>
      </trkpt>
      <trkpt lat="42.1100810" lon="2.3117050">
        <ele>888.0</ele>
        <time>2019-10-21T10:53:11Z</time>
      </trkpt>
      <trkpt lat="42.1100640" lon="2.3117020">
        <ele>888.2</ele>
        <time>2019-10-21T10:53:12Z</time>
      </trkpt>
      <trkpt lat="42.1100460" lon="2.3116980">
        <ele>888.4</ele>
        <time>2019-10-21T10:53:13Z</time>
      </trkpt>
      <trkpt lat="42.1100290" lon="2.3116940">
        <ele>888.8</ele>
        <time>2019-10-21T10:53:14Z</time>
      </trkpt>
      <trkpt lat="42.1100110" lon="2.3116900">
        <ele>889.2</ele>
        <time>2019-10-21T10:53:15Z</time>
      </trkpt>
      <trkpt lat="42.1099940" lon="2.3116870">
        <ele>889.6</ele>
        <time>2019-10-21T10:53:16Z</time>
      </trkpt>
      <trkpt lat="42.1099760" lon="2.3116830">
        <ele>890.0</ele>
        <time>2019-10-21T10:53:17Z</time>
      </trkpt>
      <trkpt lat="42.1099610" lon="2.3116710">
        <ele>890.4</ele>
        <time>2019-10-21T10:53:18Z</time>
      </trkpt>
      <trkpt lat="42.1099460" lon="2.3116600">
        <ele>890.4</ele>
        <time>2019-10-21T10:53:19Z</time>
      </trkpt>
      <trkpt lat="42.1099320" lon="2.3116480">
        <ele>890.8</ele>
        <time>2019-10-21T10:53:20Z</time>
      </trkpt>
      <trkpt lat="42.1099170" lon="2.3116360">
        <ele>891.2</ele>
        <time>2019-10-21T10:53:21Z</time>
      </trkpt>
      <trkpt lat="42.1099020" lon="2.3116250">
        <ele>891.4</ele>
        <time>2019-10-21T10:53:22Z</time>
      </trkpt>
      <trkpt lat="42.1098870" lon="2.3116130">
        <ele>892.0</ele>
        <time>2019-10-21T10:53:23Z</time>
      </trkpt>
      <trkpt lat="42.1098720" lon="2.3116020">
        <ele>892.2</ele>
        <time>2019-10-21T10:53:24Z</time>
      </trkpt>
      <trkpt lat="42.1098570" lon="2.3115900">
        <ele>892.6</ele>
        <time>2019-10-21T10:53:25Z</time>
      </trkpt>
      <trkpt lat="42.1098430" lon="2.3115780">
        <ele>893.0</ele>
        <time>2019-10-21T10:53:26Z</time>
      </trkpt>
      <trkpt lat="42.1098280" lon="2.3115670">
        <ele>893.2</ele>
        <time>2019-10-21T10:53:27Z</time>
      </trkpt>
      <trkpt lat="42.1098130" lon="2.3115550">
        <ele>893.4</ele>
        <time>2019-10-21T10:53:28Z</time>
      </trkpt>
      <trkpt lat="42.1098070" lon="2.3115400">
        <ele>893.6</ele>
        <time>2019-10-21T10:53:29Z</time>
      </trkpt>
      <trkpt lat="42.1098010" lon="2.3115240">
        <ele>894.0</ele>
        <time>2019-10-21T10:53:30Z</time>
      </trkpt>
      <trkpt lat="42.1097950" lon="2.3115090">
        <ele>894.4</ele>
        <time>2019-10-21T10:53:31Z</time>
      </trkpt>
      <trkpt lat="42.1097890" lon="2.3114940">
        <ele>895.0</ele>
        <time>2019-10-21T10:53:32Z</time>
      </trkpt>
      <trkpt lat="42.1097830" lon="2.3114780">
        <ele>895.2</ele>
        <time>2019-10-21T10:53:33Z</time>
      </trkpt>
      <trkpt lat="42.1097760" lon="2.3114630">
        <ele>895.8</ele>
        <time>2019-10-21T10:53:34Z</time>
      </trkpt>
      <trkpt lat="42.1097700" lon="2.3114480">
        <ele>896.0</ele>
        <time>2019-10-21T10:53:35Z</time>
      </trkpt>
      <trkpt lat="42.1097640" lon="2.3114330">
        <ele>896.6</ele>
        <time>2019-10-21T10:53:36Z</time>
      </trkpt>
      <trkpt lat="42.1097580" lon="2.3114170">
        <ele>896.6</ele>
        <time>2019-10-21T10:53:37Z</time>
      </trkpt>
      <trkpt lat="42.1097520" lon="2.3114020">
        <ele>897.0</ele>
        <time>2019-10-21T10:53:38Z</time>
      </trkpt>
      <trkpt lat="42.1097460" lon="2.3113780">
        <ele>897.6</ele>
        <time>2019-10-21T10:53:39Z</time>
      </trkpt>
      <trkpt lat="42.1097410" lon="2.3113550">
        <ele>897.6</ele>
        <time>2019-10-21T10:53:40Z</time>
      </trkpt>
      <trkpt lat="42.1097350" lon="2.3113310">
        <ele>897.6</ele>
        <time>2019-10-21T10:53:41Z</time>
      </trkpt>
      <trkpt lat="42.1097300" lon="2.3113080">
        <ele>898.2</ele>
        <time>2019-10-21T10:53:42Z</time>
      </trkpt>
      <trkpt lat="42.1097240" lon="2.3112840">
        <ele>898.4</ele>
        <time>2019-10-21T10:53:43Z</time>
      </trkpt>
      <trkpt lat="42.1097240" lon="2.3112840">
        <ele>899.0</ele>
        <time>2019-10-21T10:53:44Z</time>
      </trkpt>
      <trkpt lat="42.1097240" lon="2.3112840">
        <ele>899.2</ele>
        <time>2019-10-21T10:53:45Z</time>
      </trkpt>
      <trkpt lat="42.1097240" lon="2.3112840">
        <ele>899.4</ele>
        <time>2019-10-21T10:53:46Z</time>
      </trkpt>
      <trkpt lat="42.1097240" lon="2.3112840">
        <ele>900.0</ele>
        <time>2019-10-21T10:53:47Z</time>
      </trkpt>
      <trkpt lat="42.1097240" lon="2.3112840">
        <ele>900.0</ele>
        <time>2019-10-21T10:53:48Z</time>
      </trkpt>
      <trkpt lat="42.1097240" lon="2.3112840">
        <ele>900.4</ele>
        <time>2019-10-21T10:53:49Z</time>
      </trkpt>
      <trkpt lat="42.1097100" lon="2.3112780">
        <ele>901.0</ele>
        <time>2019-10-21T10:53:50Z</time>
      </trkpt>
      <trkpt lat="42.1096960" lon="2.3112710">
        <ele>901.4</ele>
        <time>2019-10-21T10:53:51Z</time>
      </trkpt>
      <trkpt lat="42.1096820" lon="2.3112650">
        <ele>901.8</ele>
        <time>2019-10-21T10:53:52Z</time>
      </trkpt>
      <trkpt lat="42.1096670" lon="2.3112590">
        <ele>902.4</ele>
        <time>2019-10-21T10:53:53Z</time>
      </trkpt>
      <trkpt lat="42.1096530" lon="2.3112520">
        <ele>902.6</ele>
        <time>2019-10-21T10:53:54Z</time>
      </trkpt>
      <trkpt lat="42.1096390" lon="2.3112460">
        <ele>902.6</ele>
        <time>2019-10-21T10:53:55Z</time>
      </trkpt>
      <trkpt lat="42.1096390" lon="2.3112460">
        <ele>903.4</ele>
        <time>2019-10-21T10:53:56Z</time>
      </trkpt>
      <trkpt lat="42.1096390" lon="2.3112460">
        <ele>903.8</ele>
        <time>2019-10-21T10:53:57Z</time>
      </trkpt>
      <trkpt lat="42.1096390" lon="2.3112460">
        <ele>904.0</ele>
        <time>2019-10-21T10:53:58Z</time>
      </trkpt>
      <trkpt lat="42.1096390" lon="2.3112460">
        <ele>904.4</ele>
        <time>2019-10-21T10:53:59Z</time>
      </trkpt>
      <trkpt lat="42.1096390" lon="2.3112460">
        <ele>904.8</ele>
        <time>2019-10-21T10:54:00Z</time>
      </trkpt>
      <trkpt lat="42.1096390" lon="2.3112460">
        <ele>905.2</ele>
        <time>2019-10-21T10:54:01Z</time>
      </trkpt>
      <trkpt lat="42.1095500" lon="2.3111770">
        <ele>905.6</ele>
        <time>2019-10-21T10:54:02Z</time>
      </trkpt>
      <trkpt lat="42.1095500" lon="2.3111770">
        <ele>906.0</ele>
        <time>2019-10-21T10:54:03Z</time>
      </trkpt>
      <trkpt lat="42.1095500" lon="2.3111770">
        <ele>906.2</ele>
        <time>2019-10-21T10:54:04Z</time>
      </trkpt>
      <trkpt lat="42.1095500" lon="2.3111770">
        <ele>906.8</ele>
        <time>2019-10-21T10:54:05Z</time>
      </trkpt>
      <trkpt lat="42.1095500" lon="2.3111770">
        <ele>906.8</ele>
        <time>2019-10-21T10:54:06Z</time>
      </trkpt>
      <trkpt lat="42.1095500" lon="2.3111770">
        <ele>906.8</ele>
        <time>2019-10-21T10:54:07Z</time>
      </trkpt>
      <trkpt lat="42.1095500" lon="2.3111770">
        <ele>907.6</ele>
        <time>2019-10-21T10:54:08Z</time>
      </trkpt>
      <trkpt lat="42.1095500" lon="2.3111770">
        <ele>907.8</ele>
        <time>2019-10-21T10:54:09Z</time>
      </trkpt>
      <trkpt lat="42.1095500" lon="2.3111770">
        <ele>907.8</ele>
        <time>2019-10-21T10:54:10Z</time>
      </trkpt>
      <trkpt lat="42.1095330" lon="2.3111720">
        <ele>908.2</ele>
        <time>2019-10-21T10:54:11Z</time>
      </trkpt>
      <trkpt lat="42.1095160" lon="2.3111670">
        <ele>908.6</ele>
        <time>2019-10-21T10:54:12Z</time>
      </trkpt>
      <trkpt lat="42.1094990" lon="2.3111610">
        <ele>909.0</ele>
        <time>2019-10-21T10:54:13Z</time>
      </trkpt>
      <trkpt lat="42.1094820" lon="2.3111560">
        <ele>909.0</ele>
        <time>2019-10-21T10:54:14Z</time>
      </trkpt>
      <trkpt lat="42.1094650" lon="2.3111510">
        <ele>909.2</ele>
        <time>2019-10-21T10:54:15Z</time>
      </trkpt>
      <trkpt lat="42.1094480" lon="2.3111460">
        <ele>909.6</ele>
        <time>2019-10-21T10:54:16Z</time>
      </trkpt>
      <trkpt lat="42.1094390" lon="2.3111400">
        <ele>909.8</ele>
        <time>2019-10-21T10:54:17Z</time>
      </trkpt>
      <trkpt lat="42.1094300" lon="2.3111350">
        <ele>910.4</ele>
        <time>2019-10-21T10:54:18Z</time>
      </trkpt>
      <trkpt lat="42.1094210" lon="2.3111290">
        <ele>910.8</ele>
        <time>2019-10-21T10:54:19Z</time>
      </trkpt>
      <trkpt lat="42.1094120" lon="2.3111230">
        <ele>911.2</ele>
        <time>2019-10-21T10:54:20Z</time>
      </trkpt>
      <trkpt lat="42.1094030" lon="2.3111170">
        <ele>911.4</ele>
        <time>2019-10-21T10:54:21Z</time>
      </trkpt>
      <trkpt lat="42.1093930" lon="2.3111120">
        <ele>911.6</ele>
        <time>2019-10-21T10:54:22Z</time>
      </trkpt>
      <trkpt lat="42.1093840" lon="2.3111060">
        <ele>911.6</ele>
        <time>2019-10-21T10:54:23Z</time>
      </trkpt>
      <trkpt lat="42.1093750" lon="2.3111000">
        <ele>911.8</ele>
        <time>2019-10-21T10:54:24Z</time>
      </trkpt>
      <trkpt lat="42.1093660" lon="2.3110950">
        <ele>912.0</ele>
        <time>2019-10-21T10:54:25Z</time>
      </trkpt>
      <trkpt lat="42.1093570" lon="2.3110890">
        <ele>912.4</ele>
        <time>2019-10-21T10:54:26Z</time>
      </trkpt>
      <trkpt lat="42.1093450" lon="2.3110800">
        <ele>912.8</ele>
        <time>2019-10-21T10:54:27Z</time>
      </trkpt>
      <trkpt lat="42.1093330" lon="2.3110720">
        <ele>913.2</ele>
        <time>2019-10-21T10:54:28Z</time>
      </trkpt>
      <trkpt lat="42.1093210" lon="2.3110630">
        <ele>913.8</ele>
        <time>2019-10-21T10:54:29Z</time>
      </trkpt>
      <trkpt lat="42.1093080" lon="2.3110550">
        <ele>914.2</ele>
        <time>2019-10-21T10:54:30Z</time>
      </trkpt>
      <trkpt lat="42.1092960" lon="2.3110460">
        <ele>914.4</ele>
        <time>2019-10-21T10:54:31Z</time>
      </trkpt>
      <trkpt lat="42.1092840" lon="2.3110380">
        <ele>914.8</ele>
        <time>2019-10-21T10:54:32Z</time>
      </trkpt>
      <trkpt lat="42.1092720" lon="2.3110290">
        <ele>914.8</ele>
        <time>2019-10-21T10:54:33Z</time>
      </trkpt>
      <trkpt lat="42.1092600" lon="2.3110240">
        <ele>915.4</ele>
        <time>2019-10-21T10:54:34Z</time>
      </trkpt>
      <trkpt lat="42.1092470" lon="2.3110190">
        <ele>915.8</ele>
        <time>2019-10-21T10:54:35Z</time>
      </trkpt>
      <trkpt lat="42.1092350" lon="2.3110140">
        <ele>916.4</ele>
        <time>2019-10-21T10:54:36Z</time>
      </trkpt>
      <trkpt lat="42.1092230" lon="2.3110090">
        <ele>916.6</ele>
        <time>2019-10-21T10:54:37Z</time>
      </trkpt>
      <trkpt lat="42.1092100" lon="2.3110040">
        <ele>917.0</ele>
        <time>2019-10-21T10:54:38Z</time>
      </trkpt>
      <trkpt lat="42.1091980" lon="2.3109990">
        <ele>917.2</ele>
        <time>2019-10-21T10:54:39Z</time>
      </trkpt>
      <trkpt lat="42.1091850" lon="2.3109940">
        <ele>917.4</ele>
        <time>2019-10-21T10:54:40Z</time>
      </trkpt>
      <trkpt lat="42.1091730" lon="2.3109890">
        <ele>917.6</ele>
        <time>2019-10-21T10:54:41Z</time>
      </trkpt>
      <trkpt lat="42.1090830" lon="2.3109500">
        <ele>918.0</ele>
        <time>2019-10-21T10:54:42Z</time>
      </trkpt>
      <trkpt lat="42.1090780" lon="2.3109500">
        <ele>918.2</ele>
        <time>2019-10-21T10:54:43Z</time>
      </trkpt>
      <trkpt lat="42.1090740" lon="2.3109500">
        <ele>918.6</ele>
        <time>2019-10-21T10:54:44Z</time>
      </trkpt>
      <trkpt lat="42.1090700" lon="2.3109500">
        <ele>919.0</ele>
        <time>2019-10-21T10:54:45Z</time>
      </trkpt>
      <trkpt lat="42.1090650" lon="2.3109500">
        <ele>919.2</ele>
        <time>2019-10-21T10:54:46Z</time>
      </trkpt>
      <trkpt lat="42.1090610" lon="2.3109490">
        <ele>920.0</ele>
        <time>2019-10-21T10:54:47Z</time>
      </trkpt>
      <trkpt lat="42.1090560" lon="2.3109490">
        <ele>920.2</ele>
        <time>2019-10-21T10:54:48Z</time>
      </trkpt>
      <trkpt lat="42.1090520" lon="2.3109490">
        <ele>920.4</ele>
        <time>2019-10-21T10:54:49Z</time>
      </trkpt>
      <trkpt lat="42.1090480" lon="2.3109490">
        <ele>920.6</ele>
        <time>2019-10-21T10:54:50Z</time>
      </trkpt>
      <trkpt lat="42.1090430" lon="2.3109490">
        <ele>921.4</ele>
        <time>2019-10-21T10:54:51Z</time>
      </trkpt>
      <trkpt lat="42.1090390" lon="2.3109490">
        <ele>921.8</ele>
        <time>2019-10-21T10:54:52Z</time>
      </trkpt>
      <trkpt lat="42.1089820" lon="2.3109490">
        <ele>922.2</ele>
        <time>2019-10-21T10:54:53Z</time>
      </trkpt>
      <trkpt lat="42.1089730" lon="2.3109490">
        <ele>922.4</ele>
        <time>2019-10-21T10:54:54Z</time>
      </trkpt>
      <trkpt lat="42.1089650" lon="2.3109490">
        <ele>922.6</ele>
        <time>2019-10-21T10:54:55Z</time>
      </trkpt>
      <trkpt lat="42.1089570" lon="2.3109490">
        <ele>922.6</ele>
        <time>2019-10-21T10:54:56Z</time>
      </trkpt>
      <trkpt lat="42.1089490" lon="2.3109490">
        <ele>923.0</ele>
        <time>2019-10-21T10:54:57Z</time>
      </trkpt>
      <trkpt lat="42.1089400" lon="2.3109500">
        <ele>923.4</ele>
        <time>2019-10-21T10:54:58Z</time>
      </trkpt>
      <trkpt lat="42.1089320" lon="2.3109500">
        <ele>923.6</ele>
        <time>2019-10-21T10:54:59Z</time>
      </trkpt>
      <trkpt lat="42.1089240" lon="2.3109500">
        <ele>924.2</ele>
        <time>2019-10-21T10:55:00Z</time>
      </trkpt>
      <trkpt lat="42.1089160" lon="2.3109500">
        <ele>924.6</ele>
        <time>2019-10-21T10:55:01Z</time>
      </trkpt>
      <trkpt lat="42.1089070" lon="2.3109500">
        <ele>925.0</ele>
        <time>2019-10-21T10:55:02Z</time>
      </trkpt>
      <trkpt lat="42.1088990" lon="2.3109500">
        <ele>925.0</ele>
        <time>2019-10-21T10:55:03Z</time>
      </trkpt>
      <trkpt lat="42.1088930" lon="2.3109560">
        <ele>925.8</ele>
        <time>2019-10-21T10:55:04Z</time>
      </trkpt>
      <trkpt lat="42.1088880" lon="2.3109620">
        <ele>926.0</ele>
        <time>2019-10-21T10:55:05Z</time>
      </trkpt>
      <trkpt lat="42.1088820" lon="2.3109680">
        <ele>926.6</ele>
        <time>2019-10-21T10:55:06Z</time>
      </trkpt>
      <trkpt lat="42.1088770" lon="2.3109740">
        <ele>927.0</ele>
        <time>2019-10-21T10:55:07Z</time>
      </trkpt>
      <trkpt lat="42.1088710" lon="2.3109810">
        <ele>927.2</ele>
        <time>2019-10-21T10:55:08Z</time>
      </trkpt>
      <trkpt lat="42.1088650" lon="2.3109870">
        <ele>927.6</ele>
        <time>2019-10-21T10:55:09Z</time>
      </trkpt>
      <trkpt lat="42.1088600" lon="2.3109930">
        <ele>927.8</ele>
        <time>2019-10-21T10:55:10Z</time>
      </trkpt>
      <trkpt lat="42.1088540" lon="2.3109990">
        <ele>928.6</ele>
        <time>2019-10-21T10:55:11Z</time>
      </trkpt>
      <trkpt lat="42.1088490" lon="2.3110050">
        <ele>928.8</ele>
        <time>2019-10-21T10:55:12Z</time>
      </trkpt>
      <trkpt lat="42.1088430" lon="2.3110110">
        <ele>929.0</ele>
        <time>2019-10-21T10:55:13Z</time>
      </trkpt>
      <trkpt lat="42.1088430" lon="2.3110110">
        <ele>930.0</ele>
        <time>2019-10-21T10:55:14Z</time>
      </trkpt>
      <trkpt lat="42.1088430" lon="2.3110110">
        <ele>930.2</ele>
        <time>2019-10-21T10:55:15Z</time>
      </trkpt>
      <trkpt lat="42.1088430" lon="2.3110110">
        <ele>930.4</ele>
        <time>2019-10-21T10:55:16Z</time>
      </trkpt>
      <trkpt lat="42.1088430" lon="2.3110110">
        <ele>931.0</ele>
        <time>2019-10-21T10:55:17Z</time>
      </trkpt>
      <trkpt lat="42.1088430" lon="2.3110110">
        <ele>931.8</ele>
        <time>2019-10-21T10:55:18Z</time>
      </trkpt>
      <trkpt lat="42.1088430" lon="2.3110110">
        <ele>932.2</ele>
        <time>2019-10-21T10:55:19Z</time>
      </trkpt>
      <trkpt lat="42.1088270" lon="2.3110170">
        <ele>932.8</ele>
        <time>2019-10-21T10:55:20Z</time>
      </trkpt>
      <trkpt lat="42.1088100" lon="2.3110240">
        <ele>933.2</ele>
        <time>2019-10-21T10:55:21Z</time>
      </trkpt>
      <trkpt lat="42.1087940" lon="2.3110300">
        <ele>933.2</ele>
        <time>2019-10-21T10:55:22Z</time>
      </trkpt>
      <trkpt lat="42.1087780" lon="2.3110360">
        <ele>933.8</ele>
        <time>2019-10-21T10:55:23Z</time>
      </trkpt>
      <trkpt lat="42.1087610" lon="2.3110430">
        <ele>933.8</ele>
        <time>2019-10-21T10:55:24Z</time>
      </trkpt>
      <trkpt lat="42.1087450" lon="2.3110490">
        <ele>934.2</ele>
        <time>2019-10-21T10:55:25Z</time>
      </trkpt>
      <trkpt lat="42.1087450" lon="2.3110490">
        <ele>934.4</ele>
        <time>2019-10-21T10:55:26Z</time>
      </trkpt>
      <trkpt lat="42.1087450" lon="2.3110490">
        <ele>934.6</ele>
        <time>2019-10-21T10:55:27Z</time>
      </trkpt>
      <trkpt lat="42.1087450" lon="2.3110490">
        <ele>934.8</ele>
        <time>2019-10-21T10:55:28Z</time>
      </trkpt>
      <trkpt lat="42.1087450" lon="2.3110490">
        <ele>935.2</ele>
        <time>2019-10-21T10:55:29Z</time>
      </trkpt>
      <trkpt lat="42.1087450" lon="2.3110490">
        <ele>935.6</ele>
        <time>2019-10-21T10:55:30Z</time>
      </trkpt>
      <trkpt lat="42.1087450" lon="2.3110490">
        <ele>935.8</ele>
        <time>2019-10-21T10:55:31Z</time>
      </trkpt>
      <trkpt lat="42.1087450" lon="2.3110490">
        <ele>935.6</ele>
        <time>2019-10-21T10:55:32Z</time>
      </trkpt>
      <trkpt lat="42.1087370" lon="2.3110560">
        <ele>936.4</ele>
        <time>2019-10-21T10:55:33Z</time>
      </trkpt>
      <trkpt lat="42.1087290" lon="2.3110620">
        <ele>937.0</ele>
        <time>2019-10-21T10:55:34Z</time>
      </trkpt>
      <trkpt lat="42.1087220" lon="2.3110690">
        <ele>937.4</ele>
        <time>2019-10-21T10:55:35Z</time>
      </trkpt>
      <trkpt lat="42.1087140" lon="2.3110760">
        <ele>937.8</ele>
        <time>2019-10-21T10:55:36Z</time>
      </trkpt>
      <trkpt lat="42.1087060" lon="2.3110830">
        <ele>938.4</ele>
        <time>2019-10-21T10:55:37Z</time>
      </trkpt>
      <trkpt lat="42.1086980" lon="2.3110890">
        <ele>938.8</ele>
        <time>2019-10-21T10:55:38Z</time>
      </trkpt>
      <trkpt lat="42.1086900" lon="2.3110960">
        <ele>939.0</ele>
        <time>2019-10-21T10:55:39Z</time>
      </trkpt>
      <trkpt lat="42.1086830" lon="2.3111030">
        <ele>939.6</ele>
        <time>2019-10-21T10:55:40Z</time>
      </trkpt>
      <trkpt lat="42.1086750" lon="2.3111090">
        <ele>939.6</ele>
        <time>2019-10-21T10:55:41Z</time>
      </trkpt>
      <trkpt lat="42.1086670" lon="2.3111160">
        <ele>940.0</ele>
        <time>2019-10-21T10:55:42Z</time>
      </trkpt>
      <trkpt lat="42.1086670" lon="2.3111160">
        <ele>940.4</ele>
        <time>2019-10-21T10:55:43Z</time>
      </trkpt>
      <trkpt lat="42.1086670" lon="2.3111160">
        <ele>940.8</ele>
        <time>2019-10-21T10:55:44Z</time>
      </trkpt>
      <trkpt lat="42.1086670" lon="2.3111160">
        <ele>941.2</ele>
        <time>2019-10-21T10:55:45Z</time>
      </trkpt>
      <trkpt lat="42.1086670" lon="2.3111160">
        <ele>941.2</ele>
        <time>2019-10-21T10:55:46Z</time>
      </trkpt>
      <trkpt lat="42.1086670" lon="2.3111160">
        <ele>941.8</ele>
        <time>2019-10-21T10:55:47Z</time>
      </trkpt>
      <trkpt lat="42.1086670" lon="2.3111160">
        <ele>942.2</ele>
        <time>2019-10-21T10:55:48Z</time>
      </trkpt>
      <trkpt lat="42.1086670" lon="2.3111160">
        <ele>942.2</ele>
        <time>2019-10-21T10:55:49Z</time>
      </trkpt>
      <trkpt lat="42.1086670" lon="2.3111160">
        <ele>942.4</ele>
        <time>2019-10-21T10:55:50Z</time>
      </trkpt>
      <trkpt lat="42.1086670" lon="2.3111160">
        <ele>943.0</ele>
        <time>2019-10-21T10:55:51Z</time>
      </trkpt>
      <trkpt lat="42.1086670" lon="2.3111160">
        <ele>943.4</ele>
        <time>2019-10-21T10:55:52Z</time>
      </trkpt>
      <trkpt lat="42.1086670" lon="2.3111160">
        <ele>943.6</ele>
        <time>2019-10-21T10:55:53Z</time>
      </trkpt>
      <trkpt lat="42.1086490" lon="2.3111210">
        <ele>943.8</ele>
        <time>2019-10-21T10:55:54Z</time>
      </trkpt>
      <trkpt lat="42.1086310" lon="2.3111270">
        <ele>944.0</ele>
        <time>2019-10-21T10:55:55Z</time>
      </trkpt>
      <trkpt lat="42.1086130" lon="2.3111320">
        <ele>944.0</ele>
        <time>2019-10-21T10:55:56Z</time>
      </trkpt>
      <trkpt lat="42.1085950" lon="2.3111380">
        <ele>944.4</ele>
        <time>2019-10-21T10:55:57Z</time>
      </trkpt>
      <trkpt lat="42.1085770" lon="2.3111430">
        <ele>944.4</ele>
        <time>2019-10-21T10:55:58Z</time>
      </trkpt>
      <trkpt lat="42.1085770" lon="2.3111430">
        <ele>945.0</ele>
        <time>2019-10-21T10:55:59Z</time>
      </trkpt>
      <trkpt lat="42.1085770" lon="2.3111430">
        <ele>945.2</ele>
        <time>2019-10-21T10:56:00Z</time>
      </trkpt>
      <trkpt lat="42.1085770" lon="2.3111430">
        <ele>945.6</ele>
        <time>2019-10-21T10:56:01Z</time>
      </trkpt>
      <trkpt lat="42.1085700" lon="2.3111440">
        <ele>945.8</ele>
        <time>2019-10-21T10:56:02Z</time>
      </trkpt>
      <trkpt lat="42.1085630" lon="2.3111440">
        <ele>946.2</ele>
        <time>2019-10-21T10:56:03Z</time>
      </trkpt>
      <trkpt lat="42.1085550" lon="2.3111450">
        <ele>946.6</ele>
        <time>2019-10-21T10:56:04Z</time>
      </trkpt>
      <trkpt lat="42.1085480" lon="2.3111460">
        <ele>946.8</ele>
        <time>2019-10-21T10:56:05Z</time>
      </trkpt>
      <trkpt lat="42.1085410" lon="2.3111460">
        <ele>947.0</ele>
        <time>2019-10-21T10:56:06Z</time>
      </trkpt>
      <trkpt lat="42.1085340" lon="2.3111470">
        <ele>947.4</ele>
        <time>2019-10-21T10:56:07Z</time>
      </trkpt>
      <trkpt lat="42.1085260" lon="2.3111480">
        <ele>947.8</ele>
        <time>2019-10-21T10:56:08Z</time>
      </trkpt>
      <trkpt lat="42.1085190" lon="2.3111490">
        <ele>948.2</ele>
        <time>2019-10-21T10:56:09Z</time>
      </trkpt>
      <trkpt lat="42.1085120" lon="2.3111490">
        <ele>948.8</ele>
        <time>2019-10-21T10:56:10Z</time>
      </trkpt>
      <trkpt lat="42.1085050" lon="2.3111500">
        <ele>949.2</ele>
        <time>2019-10-21T10:56:11Z</time>
      </trkpt>
      <trkpt lat="42.1084970" lon="2.3111510">
        <ele>949.2</ele>
        <time>2019-10-21T10:56:12Z</time>
      </trkpt>
      <trkpt lat="42.1084900" lon="2.3111510">
        <ele>949.4</ele>
        <time>2019-10-21T10:56:13Z</time>
      </trkpt>
      <trkpt lat="42.1084830" lon="2.3111520">
        <ele>949.8</ele>
        <time>2019-10-21T10:56:14Z</time>
      </trkpt>
      <trkpt lat="42.1084740" lon="2.3111590">
        <ele>950.2</ele>
        <time>2019-10-21T10:56:15Z</time>
      </trkpt>
      <trkpt lat="42.1084660" lon="2.3111660">
        <ele>950.6</ele>
        <time>2019-10-21T10:56:16Z</time>
      </trkpt>
      <trkpt lat="42.1084570" lon="2.3111730">
        <ele>951.0</ele>
        <time>2019-10-21T10:56:17Z</time>
      </trkpt>
      <trkpt lat="42.1084480" lon="2.3111800">
        <ele>951.4</ele>
        <time>2019-10-21T10:56:18Z</time>
      </trkpt>
      <trkpt lat="42.1084400" lon="2.3111870">
        <ele>951.6</ele>
        <time>2019-10-21T10:56:19Z</time>
      </trkpt>
      <trkpt lat="42.1084310" lon="2.3111940">
        <ele>951.8</ele>
        <time>2019-10-21T10:56:20Z</time>
      </trkpt>
      <trkpt lat="42.1084220" lon="2.3112010">
        <ele>952.2</ele>
        <time>2019-10-21T10:56:21Z</time>
      </trkpt>
      <trkpt lat="42.1084140" lon="2.3112070">
        <ele>952.4</ele>
        <time>2019-10-21T10:56:22Z</time>
      </trkpt>
      <trkpt lat="42.1084050" lon="2.3112140">
        <ele>952.8</ele>
        <time>2019-10-21T10:56:23Z</time>
      </trkpt>
      <trkpt lat="42.1083960" lon="2.3112210">
        <ele>953.0</ele>
        <time>2019-10-21T10:56:24Z</time>
      </trkpt>
      <trkpt lat="42.1083880" lon="2.3112280">
        <ele>953.4</ele>
        <time>2019-10-21T10:56:25Z</time>
      </trkpt>
      <trkpt lat="42.1083790" lon="2.3112350">
        <ele>953.6</ele>
        <time>2019-10-21T10:56:26Z</time>
      </trkpt>
      <trkpt lat="42.1083700" lon="2.3112420">
        <ele>954.0</ele>
        <time>2019-10-21T10:56:27Z</time>
      </trkpt>
      <trkpt lat="42.1083620" lon="2.3112490">
        <ele>954.2</ele>
        <time>2019-10-21T10:56:28Z</time>
      </trkpt>
      <trkpt lat="42.1083530" lon="2.3112560">
        <ele>954.6</ele>
        <time>2019-10-21T10:56:29Z</time>
      </trkpt>
      <trkpt lat="42.1083480" lon="2.3112560">
        <ele>954.8</ele>
        <time>2019-10-21T10:56:30Z</time>
      </trkpt>
      <trkpt lat="42.1083440" lon="2.3112560">
        <ele>955.2</ele>
        <time>2019-10-21T10:56:31Z</time>
      </trkpt>
      <trkpt lat="42.1083390" lon="2.3112570">
        <ele>955.4</ele>
        <time>2019-10-21T10:56:32Z</time>
      </trkpt>
      <trkpt lat="42.1083340" lon="2.3112570">
        <ele>955.8</ele>
        <time>2019-10-21T10:56:33Z</time>
      </trkpt>
      <trkpt lat="42.1083290" lon="2.3112570">
        <ele>956.2</ele>
        <time>2019-10-21T10:56:34Z</time>
      </trkpt>
      <trkpt lat="42.1083250" lon="2.3112570">
        <ele>956.4</ele>
        <time>2019-10-21T10:56:35Z</time>
      </trkpt>
      <trkpt lat="42.1083200" lon="2.3112580">
        <ele>956.8</ele>
        <time>2019-10-21T10:56:36Z</time>
      </trkpt>
      <trkpt lat="42.1083150" lon="2.3112580">
        <ele>957.0</ele>
        <time>2019-10-21T10:56:37Z</time>
      </trkpt>
      <trkpt lat="42.1083110" lon="2.3112580">
        <ele>957.2</ele>
        <time>2019-10-21T10:56:38Z</time>
      </trkpt>
      <trkpt lat="42.1083060" lon="2.3112580">
        <ele>957.4</ele>
        <time>2019-10-21T10:56:39Z</time>
      </trkpt>
      <trkpt lat="42.1083010" lon="2.3112590">
        <ele>957.6</ele>
        <time>2019-10-21T10:56:40Z</time>
      </trkpt>
      <trkpt lat="42.1082970" lon="2.3112590">
        <ele>957.8</ele>
        <time>2019-10-21T10:56:41Z</time>
      </trkpt>
      <trkpt lat="42.1082920" lon="2.3112590">
        <ele>957.8</ele>
        <time>2019-10-21T10:56:42Z</time>
      </trkpt>
      <trkpt lat="42.1082870" lon="2.3112590">
        <ele>958.2</ele>
        <time>2019-10-21T10:56:43Z</time>
      </trkpt>
      <trkpt lat="42.1082820" lon="2.3112600">
        <ele>958.2</ele>
        <time>2019-10-21T10:56:44Z</time>
      </trkpt>
      <trkpt lat="42.1082780" lon="2.3112600">
        <ele>958.4</ele>
        <time>2019-10-21T10:56:45Z</time>
      </trkpt>
      <trkpt lat="42.1082730" lon="2.3112600">
        <ele>958.6</ele>
        <time>2019-10-21T10:56:46Z</time>
      </trkpt>
      <trkpt lat="42.1082610" lon="2.3112600">
        <ele>958.6</ele>
        <time>2019-10-21T10:56:47Z</time>
      </trkpt>
      <trkpt lat="42.1082500" lon="2.3112590">
        <ele>958.8</ele>
        <time>2019-10-21T10:56:48Z</time>
      </trkpt>
      <trkpt lat="42.1082380" lon="2.3112590">
        <ele>959.0</ele>
        <time>2019-10-21T10:56:49Z</time>
      </trkpt>
      <trkpt lat="42.1082270" lon="2.3112580">
        <ele>959.4</ele>
        <time>2019-10-21T10:56:50Z</time>
      </trkpt>
      <trkpt lat="42.1082150" lon="2.3112580">
        <ele>960.0</ele>
        <time>2019-10-21T10:56:51Z</time>
      </trkpt>
      <trkpt lat="42.1082030" lon="2.3112580">
        <ele>960.2</ele>
        <time>2019-10-21T10:56:52Z</time>
      </trkpt>
      <trkpt lat="42.1081920" lon="2.3112570">
        <ele>960.4</ele>
        <time>2019-10-21T10:56:53Z</time>
      </trkpt>
      <trkpt lat="42.1081800" lon="2.3112570">
        <ele>960.6</ele>
        <time>2019-10-21T10:56:54Z</time>
      </trkpt>
      <trkpt lat="42.1081730" lon="2.3112530">
        <ele>960.8</ele>
        <time>2019-10-21T10:56:55Z</time>
      </trkpt>
      <trkpt lat="42.1081670" lon="2.3112480">
        <ele>961.0</ele>
        <time>2019-10-21T10:56:56Z</time>
      </trkpt>
      <trkpt lat="42.1081600" lon="2.3112440">
        <ele>961.2</ele>
        <time>2019-10-21T10:56:57Z</time>
      </trkpt>
      <trkpt lat="42.1081530" lon="2.3112390">
        <ele>961.4</ele>
        <time>2019-10-21T10:56:58Z</time>
      </trkpt>
      <trkpt lat="42.1081470" lon="2.3112350">
        <ele>961.4</ele>
        <time>2019-10-21T10:56:59Z</time>
      </trkpt>
      <trkpt lat="42.1081400" lon="2.3112300">
        <ele>961.8</ele>
        <time>2019-10-21T10:57:00Z</time>
      </trkpt>
      <trkpt lat="42.1081330" lon="2.3112260">
        <ele>962.2</ele>
        <time>2019-10-21T10:57:01Z</time>
      </trkpt>
      <trkpt lat="42.1081260" lon="2.3112210">
        <ele>962.4</ele>
        <time>2019-10-21T10:57:02Z</time>
      </trkpt>
      <trkpt lat="42.1081200" lon="2.3112170">
        <ele>962.6</ele>
        <time>2019-10-21T10:57:03Z</time>
      </trkpt>
      <trkpt lat="42.1081130" lon="2.3112120">
        <ele>962.4</ele>
        <time>2019-10-21T10:57:04Z</time>
      </trkpt>
      <trkpt lat="42.1081060" lon="2.3112080">
        <ele>963.0</ele>
        <time>2019-10-21T10:57:05Z</time>
      </trkpt>
      <trkpt lat="42.1081000" lon="2.3112030">
        <ele>963.6</ele>
        <time>2019-10-21T10:57:06Z</time>
      </trkpt>
      <trkpt lat="42.1080930" lon="2.3111990">
        <ele>963.8</ele>
        <time>2019-10-21T10:57:07Z</time>
      </trkpt>
      <trkpt lat="42.1080930" lon="2.3111990">
        <ele>964.2</ele>
        <time>2019-10-21T10:57:08Z</time>
      </trkpt>
      <trkpt lat="42.1080710" lon="2.3111840">
        <ele>964.4</ele>
        <time>2019-10-21T10:57:09Z</time>
      </trkpt>
      <trkpt lat="42.1080710" lon="2.3111840">
        <ele>964.8</ele>
        <time>2019-10-21T10:57:10Z</time>
      </trkpt>
      <trkpt lat="42.1080710" lon="2.3111840">
        <ele>965.4</ele>
        <time>2019-10-21T10:57:11Z</time>
      </trkpt>
      <trkpt lat="42.1080490" lon="2.3111650">
        <ele>965.2</ele>
        <time>2019-10-21T10:57:12Z</time>
      </trkpt>
      <trkpt lat="42.1080490" lon="2.3111650">
        <ele>966.2</ele>
        <time>2019-10-21T10:57:13Z</time>
      </trkpt>
      <trkpt lat="42.1080490" lon="2.3111650">
        <ele>966.8</ele>
        <time>2019-10-21T10:57:14Z</time>
      </trkpt>
      <trkpt lat="42.1080390" lon="2.3111440">
        <ele>967.2</ele>
        <time>2019-10-21T10:57:15Z</time>
      </trkpt>
      <trkpt lat="42.1080390" lon="2.3111440">
        <ele>967.6</ele>
        <time>2019-10-21T10:57:16Z</time>
      </trkpt>
      <trkpt lat="42.1080390" lon="2.3111440">
        <ele>967.8</ele>
        <time>2019-10-21T10:57:17Z</time>
      </trkpt>
      <trkpt lat="42.1080390" lon="2.3111440">
        <ele>967.8</ele>
        <time>2019-10-21T10:57:18Z</time>
      </trkpt>
      <trkpt lat="42.1080390" lon="2.3111440">
        <ele>967.8</ele>
        <time>2019-10-21T10:57:19Z</time>
      </trkpt>
      <trkpt lat="42.1080390" lon="2.3111440">
        <ele>968.0</ele>
        <time>2019-10-21T10:57:20Z</time>
      </trkpt>
      <trkpt lat="42.1080390" lon="2.3111440">
        <ele>968.2</ele>
        <time>2019-10-21T10:57:21Z</time>
      </trkpt>
      <trkpt lat="42.1080390" lon="2.3111440">
        <ele>968.6</ele>
        <time>2019-10-21T10:57:22Z</time>
      </trkpt>
      <trkpt lat="42.1080390" lon="2.3111440">
        <ele>969.0</ele>
        <time>2019-10-21T10:57:23Z</time>
      </trkpt>
      <trkpt lat="42.1080390" lon="2.3111440">
        <ele>969.6</ele>
        <time>2019-10-21T10:57:24Z</time>
      </trkpt>
      <trkpt lat="42.1080390" lon="2.3111440">
        <ele>969.8</ele>
        <time>2019-10-21T10:57:25Z</time>
      </trkpt>
      <trkpt lat="42.1080390" lon="2.3111440">
        <ele>970.0</ele>
        <time>2019-10-21T10:57:26Z</time>
      </trkpt>
      <trkpt lat="42.1080390" lon="2.3111440">
        <ele>970.2</ele>
        <time>2019-10-21T10:57:27Z</time>
      </trkpt>
      <trkpt lat="42.1080390" lon="2.3111440">
        <ele>970.4</ele>
        <time>2019-10-21T10:57:28Z</time>
      </trkpt>
      <trkpt lat="42.1080390" lon="2.3111440">
        <ele>970.6</ele>
        <time>2019-10-21T10:57:29Z</time>
      </trkpt>
      <trkpt lat="42.1080370" lon="2.3111430">
        <ele>971.2</ele>
        <time>2019-10-21T10:57:30Z</time>
      </trkpt>
      <trkpt lat="42.1080350" lon="2.3111420">
        <ele>971.6</ele>
        <time>2019-10-21T10:57:31Z</time>
      </trkpt>
      <trkpt lat="42.1080330" lon="2.3111400">
        <ele>972.0</ele>
        <time>2019-10-21T10:57:32Z</time>
      </trkpt>
      <trkpt lat="42.1080310" lon="2.3111390">
        <ele>972.4</ele>
        <time>2019-10-21T10:57:33Z</time>
      </trkpt>
      <trkpt lat="42.1080300" lon="2.3111380">
        <ele>972.6</ele>
        <time>2019-10-21T10:57:34Z</time>
      </trkpt>
      <trkpt lat="42.1080280" lon="2.3111370">
        <ele>973.2</ele>
        <time>2019-10-21T10:57:35Z</time>
      </trkpt>
      <trkpt lat="42.1080260" lon="2.3111350">
        <ele>973.8</ele>
        <time>2019-10-21T10:57:36Z</time>
      </trkpt>
      <trkpt lat="42.1080240" lon="2.3111340">
        <ele>974.4</ele>
        <time>2019-10-21T10:57:37Z</time>
      </trkpt>
      <trkpt lat="42.1080220" lon="2.3111330">
        <ele>974.6</ele>
        <time>2019-10-21T10:57:38Z</time>
      </trkpt>
      <trkpt lat="42.1080020" lon="2.3111340">
        <ele>975.0</ele>
        <time>2019-10-21T10:57:39Z</time>
      </trkpt>
      <trkpt lat="42.1080020" lon="2.3111340">
        <ele>975.4</ele>
        <time>2019-10-21T10:57:40Z</time>
      </trkpt>
      <trkpt lat="42.1080020" lon="2.3111340">
        <ele>975.6</ele>
        <time>2019-10-21T10:57:41Z</time>
      </trkpt>
      <trkpt lat="42.1080020" lon="2.3111340">
        <ele>976.0</ele>
        <time>2019-10-21T10:57:42Z</time>
      </trkpt>
      <trkpt lat="42.1080020" lon="2.3111340">
        <ele>976.4</ele>
        <time>2019-10-21T10:57:43Z</time>
      </trkpt>
      <trkpt lat="42.1080020" lon="2.3111340">
        <ele>976.8</ele>
        <time>2019-10-21T10:57:44Z</time>
      </trkpt>
      <trkpt lat="42.1080020" lon="2.3111340">
        <ele>977.4</ele>
        <time>2019-10-21T10:57:45Z</time>
      </trkpt>
      <trkpt lat="42.1080020" lon="2.3111340">
        <ele>977.8</ele>
        <time>2019-10-21T10:57:46Z</time>
      </trkpt>
      <trkpt lat="42.1080020" lon="2.3111340">
        <ele>978.2</ele>
        <time>2019-10-21T10:57:47Z</time>
      </trkpt>
      <trkpt lat="42.1080020" lon="2.3111340">
        <ele>978.4</ele>
        <time>2019-10-21T10:57:48Z</time>
      </trkpt>
      <trkpt lat="42.1080020" lon="2.3111340">
        <ele>978.8</ele>
        <time>2019-10-21T10:57:49Z</time>
      </trkpt>
      <trkpt lat="42.1080020" lon="2.3111340">
        <ele>978.4</ele>
        <time>2019-10-21T10:57:50Z</time>
      </trkpt>
      <trkpt lat="42.1080020" lon="2.3111340">
        <ele>978.4</ele>
        <time>2019-10-21T10:57:51Z</time>
      </trkpt>
      <trkpt lat="42.1080020" lon="2.3111340">
        <ele>978.4</ele>
        <time>2019-10-21T10:57:52Z</time>
      </trkpt>
      <trkpt lat="42.1080020" lon="2.3111340">
        <ele>978.2</ele>
        <time>2019-10-21T10:57:53Z</time>
      </trkpt>
      <trkpt lat="42.1079870" lon="2.3111180">
        <ele>978.2</ele>
        <time>2019-10-21T10:57:54Z</time>
      </trkpt>
      <trkpt lat="42.1079870" lon="2.3111180">
        <ele>977.8</ele>
        <time>2019-10-21T10:57:55Z</time>
      </trkpt>
      <trkpt lat="42.1079870" lon="2.3111180">
        <ele>977.4</ele>
        <time>2019-10-21T10:57:56Z</time>
      </trkpt>
      <trkpt lat="42.1079870" lon="2.3111180">
        <ele>977.2</ele>
        <time>2019-10-21T10:57:57Z</time>
      </trkpt>
      <trkpt lat="42.1079870" lon="2.3111180">
        <ele>976.8</ele>
        <time>2019-10-21T10:57:58Z</time>
      </trkpt>
      <trkpt lat="42.1079870" lon="2.3111180">
        <ele>976.4</ele>
        <time>2019-10-21T10:57:59Z</time>
      </trkpt>
      <trkpt lat="42.1079870" lon="2.3111180">
        <ele>976.4</ele>
        <time>2019-10-21T10:58:00Z</time>
      </trkpt>
      <trkpt lat="42.1079660" lon="2.3111220">
        <ele>976.2</ele>
        <time>2019-10-21T10:58:01Z</time>
      </trkpt>
      <trkpt lat="42.1079660" lon="2.3111220">
        <ele>975.8</ele>
        <time>2019-10-21T10:58:02Z</time>
      </trkpt>
      <trkpt lat="42.1079660" lon="2.3111220">
        <ele>975.6</ele>
        <time>2019-10-21T10:58:03Z</time>
      </trkpt>
      <trkpt lat="42.1079490" lon="2.3111420">
        <ele>975.0</ele>
        <time>2019-10-21T10:58:04Z</time>
      </trkpt>
      <trkpt lat="42.1079490" lon="2.3111420">
        <ele>975.0</ele>
        <time>2019-10-21T10:58:05Z</time>
      </trkpt>
      <trkpt lat="42.1079260" lon="2.3111460">
        <ele>975.0</ele>
        <time>2019-10-21T10:58:06Z</time>
      </trkpt>
      <trkpt lat="42.1079260" lon="2.3111460">
        <ele>975.0</ele>
        <time>2019-10-21T10:58:07Z</time>
      </trkpt>
      <trkpt lat="42.1079260" lon="2.3111460">
        <ele>975.2</ele>
        <time>2019-10-21T10:58:08Z</time>
      </trkpt>
      <trkpt lat="42.1079090" lon="2.3111320">
        <ele>975.2</ele>
        <time>2019-10-21T10:58:09Z</time>
      </trkpt>
      <trkpt lat="42.1079090" lon="2.3111320">
        <ele>975.0</ele>
        <time>2019-10-21T10:58:10Z</time>
      </trkpt>
      <trkpt lat="42.1078890" lon="2.3111320">
        <ele>974.8</ele>
        <time>2019-10-21T10:58:11Z</time>
      </trkpt>
      <trkpt lat="42.1078890" lon="2.3111320">
        <ele>974.6</ele>
        <time>2019-10-21T10:58:12Z</time>
      </trkpt>
      <trkpt lat="42.1078700" lon="2.3111140">
        <ele>974.6</ele>
        <time>2019-10-21T10:58:13Z</time>
      </trkpt>
      <trkpt lat="42.1078700" lon="2.3111140">
        <ele>974.6</ele>
        <time>2019-10-21T10:58:14Z</time>
      </trkpt>
      <trkpt lat="42.1078700" lon="2.3111140">
        <ele>974.4</ele>
        <time>2019-10-21T10:58:15Z</time>
      </trkpt>
      <trkpt lat="42.1078530" lon="2.3111010">
        <ele>974.4</ele>
        <time>2019-10-21T10:58:16Z</time>
      </trkpt>
      <trkpt lat="42.1078530" lon="2.3111010">
        <ele>974.2</ele>
        <time>2019-10-21T10:58:17Z</time>
      </trkpt>
      <trkpt lat="42.1078530" lon="2.3111010">
        <ele>974.4</ele>
        <time>2019-10-21T10:58:18Z</time>
      </trkpt>
      <trkpt lat="42.1078530" lon="2.3111010">
        <ele>974.4</ele>
        <time>2019-10-21T10:58:19Z</time>
      </trkpt>
      <trkpt lat="42.1078290" lon="2.3111020">
        <ele>974.0</ele>
        <time>2019-10-21T10:58:20Z</time>
      </trkpt>
      <trkpt lat="42.1078290" lon="2.3111020">
        <ele>974.0</ele>
        <time>2019-10-21T10:58:21Z</time>
      </trkpt>
      <trkpt lat="42.1078290" lon="2.3111020">
        <ele>973.8</ele>
        <time>2019-10-21T10:58:22Z</time>
      </trkpt>
      <trkpt lat="42.1078290" lon="2.3111020">
        <ele>973.6</ele>
        <time>2019-10-21T10:58:23Z</time>
      </trkpt>
      <trkpt lat="42.1078290" lon="2.3111020">
        <ele>973.4</ele>
        <time>2019-10-21T10:58:24Z</time>
      </trkpt>
      <trkpt lat="42.1078290" lon="2.3111020">
        <ele>973.4</ele>
        <time>2019-10-21T10:58:25Z</time>
      </trkpt>
      <trkpt lat="42.1078290" lon="2.3111020">
        <ele>973.2</ele>
        <time>2019-10-21T10:58:26Z</time>
      </trkpt>
      <trkpt lat="42.1078290" lon="2.3111020">
        <ele>973.2</ele>
        <time>2019-10-21T10:58:27Z</time>
      </trkpt>
      <trkpt lat="42.1078290" lon="2.3111020">
        <ele>973.2</ele>
        <time>2019-10-21T10:58:28Z</time>
      </trkpt>
      <trkpt lat="42.1078290" lon="2.3111020">
        <ele>972.8</ele>
        <time>2019-10-21T10:58:29Z</time>
      </trkpt>
      <trkpt lat="42.1078290" lon="2.3111020">
        <ele>972.8</ele>
        <time>2019-10-21T10:58:30Z</time>
      </trkpt>
      <trkpt lat="42.1078290" lon="2.3111020">
        <ele>973.0</ele>
        <time>2019-10-21T10:58:31Z</time>
      </trkpt>
      <trkpt lat="42.1078290" lon="2.3111020">
        <ele>973.0</ele>
        <time>2019-10-21T10:58:32Z</time>
      </trkpt>
      <trkpt lat="42.1078290" lon="2.3111020">
        <ele>972.6</ele>
        <time>2019-10-21T10:58:33Z</time>
      </trkpt>
      <trkpt lat="42.1078290" lon="2.3111020">
        <ele>972.2</ele>
        <time>2019-10-21T10:58:34Z</time>
      </trkpt>
      <trkpt lat="42.1078290" lon="2.3111020">
        <ele>972.0</ele>
        <time>2019-10-21T10:58:35Z</time>
      </trkpt>
      <trkpt lat="42.1078290" lon="2.3111020">
        <ele>972.0</ele>
        <time>2019-10-21T10:58:36Z</time>
      </trkpt>
      <trkpt lat="42.1078290" lon="2.3111020">
        <ele>972.0</ele>
        <time>2019-10-21T10:58:37Z</time>
      </trkpt>
      <trkpt lat="42.1078290" lon="2.3111020">
        <ele>971.8</ele>
        <time>2019-10-21T10:58:38Z</time>
      </trkpt>
      <trkpt lat="42.1078290" lon="2.3111020">
        <ele>971.4</ele>
        <time>2019-10-21T10:58:39Z</time>
      </trkpt>
      <trkpt lat="42.1078290" lon="2.3111020">
        <ele>970.8</ele>
        <time>2019-10-21T10:58:40Z</time>
      </trkpt>
      <trkpt lat="42.1078290" lon="2.3111020">
        <ele>970.4</ele>
        <time>2019-10-21T10:58:41Z</time>
      </trkpt>
      <trkpt lat="42.1078290" lon="2.3111020">
        <ele>970.2</ele>
        <time>2019-10-21T10:58:42Z</time>
      </trkpt>
      <trkpt lat="42.1078290" lon="2.3111020">
        <ele>970.0</ele>
        <time>2019-10-21T10:58:43Z</time>
      </trkpt>
      <trkpt lat="42.1078290" lon="2.3111020">
        <ele>969.8</ele>
        <time>2019-10-21T10:58:44Z</time>
      </trkpt>
      <trkpt lat="42.1078290" lon="2.3111020">
        <ele>969.4</ele>
        <time>2019-10-21T10:58:45Z</time>
      </trkpt>
      <trkpt lat="42.1078290" lon="2.3111020">
        <ele>969.4</ele>
        <time>2019-10-21T10:58:46Z</time>
      </trkpt>
      <trkpt lat="42.1078290" lon="2.3111020">
        <ele>968.8</ele>
        <time>2019-10-21T10:58:47Z</time>
      </trkpt>
      <trkpt lat="42.1078290" lon="2.3111020">
        <ele>968.6</ele>
        <time>2019-10-21T10:58:48Z</time>
      </trkpt>
      <trkpt lat="42.1078290" lon="2.3111020">
        <ele>968.6</ele>
        <time>2019-10-21T10:58:49Z</time>
      </trkpt>
      <trkpt lat="42.1078290" lon="2.3111020">
        <ele>968.4</ele>
        <time>2019-10-21T10:58:50Z</time>
      </trkpt>
      <trkpt lat="42.1078290" lon="2.3111020">
        <ele>968.0</ele>
        <time>2019-10-21T10:58:51Z</time>
      </trkpt>
      <trkpt lat="42.1078290" lon="2.3111020">
        <ele>967.4</ele>
        <time>2019-10-21T10:58:52Z</time>
      </trkpt>
      <trkpt lat="42.1078290" lon="2.3111020">
        <ele>967.2</ele>
        <time>2019-10-21T10:58:53Z</time>
      </trkpt>
      <trkpt lat="42.1078290" lon="2.3111020">
        <ele>967.0</ele>
        <time>2019-10-21T10:58:54Z</time>
      </trkpt>
      <trkpt lat="42.1078290" lon="2.3111020">
        <ele>966.4</ele>
        <time>2019-10-21T10:58:55Z</time>
      </trkpt>
      <trkpt lat="42.1078290" lon="2.3111020">
        <ele>966.0</ele>
        <time>2019-10-21T10:58:56Z</time>
      </trkpt>
      <trkpt lat="42.1078290" lon="2.3111020">
        <ele>965.4</ele>
        <time>2019-10-21T10:58:57Z</time>
      </trkpt>
      <trkpt lat="42.1078290" lon="2.3111020">
        <ele>965.2</ele>
        <time>2019-10-21T10:58:58Z</time>
      </trkpt>
      <trkpt lat="42.1078290" lon="2.3111020">
        <ele>964.6</ele>
        <time>2019-10-21T10:58:59Z</time>
      </trkpt>
      <trkpt lat="42.1078290" lon="2.3111020">
        <ele>964.6</ele>
        <time>2019-10-21T10:59:00Z</time>
      </trkpt>
      <trkpt lat="42.1078290" lon="2.3111020">
        <ele>964.2</ele>
        <time>2019-10-21T10:59:01Z</time>
      </trkpt>
      <trkpt lat="42.1078290" lon="2.3111020">
        <ele>963.8</ele>
        <time>2019-10-21T10:59:02Z</time>
      </trkpt>
      <trkpt lat="42.1078290" lon="2.3111020">
        <ele>963.2</ele>
        <time>2019-10-21T10:59:03Z</time>
      </trkpt>
      <trkpt lat="42.1078290" lon="2.3111020">
        <ele>962.8</ele>
        <time>2019-10-21T10:59:04Z</time>
      </trkpt>
      <trkpt lat="42.1078290" lon="2.3111020">
        <ele>962.0</ele>
        <time>2019-10-21T10:59:05Z</time>
      </trkpt>
      <trkpt lat="42.1078290" lon="2.3111020">
        <ele>961.8</ele>
        <time>2019-10-21T10:59:06Z</time>
      </trkpt>
      <trkpt lat="42.1078290" lon="2.3111020">
        <ele>961.6</ele>
        <time>2019-10-21T10:59:07Z</time>
      </trkpt>
      <trkpt lat="42.1078290" lon="2.3111020">
        <ele>961.6</ele>
        <time>2019-10-21T10:59:08Z</time>
      </trkpt>
      <trkpt lat="42.1078470" lon="2.3111030">
        <ele>961.8</ele>
        <time>2019-10-21T10:59:09Z</time>
      </trkpt>
      <trkpt lat="42.1078470" lon="2.3111030">
        <ele>961.6</ele>
        <time>2019-10-21T10:59:10Z</time>
      </trkpt>
      <trkpt lat="42.1078470" lon="2.3111030">
        <ele>961.2</ele>
        <time>2019-10-21T10:59:11Z</time>
      </trkpt>
      <trkpt lat="42.1078690" lon="2.3110940">
        <ele>960.8</ele>
        <time>2019-10-21T10:59:12Z</time>
      </trkpt>
      <trkpt lat="42.1078690" lon="2.3110940">
        <ele>960.8</ele>
        <time>2019-10-21T10:59:13Z</time>
      </trkpt>
      <trkpt lat="42.1078960" lon="2.3110970">
        <ele>960.8</ele>
        <time>2019-10-21T10:59:14Z</time>
      </trkpt>
      <trkpt lat="42.1078960" lon="2.3110970">
        <ele>960.8</ele>
        <time>2019-10-21T10:59:15Z</time>
      </trkpt>
      <trkpt lat="42.1078960" lon="2.3110970">
        <ele>960.6</ele>
        <time>2019-10-21T10:59:16Z</time>
      </trkpt>
      <trkpt lat="42.1079140" lon="2.3110990">
        <ele>960.6</ele>
        <time>2019-10-21T10:59:17Z</time>
      </trkpt>
      <trkpt lat="42.1079140" lon="2.3110990">
        <ele>960.4</ele>
        <time>2019-10-21T10:59:18Z</time>
      </trkpt>
      <trkpt lat="42.1079140" lon="2.3110990">
        <ele>960.2</ele>
        <time>2019-10-21T10:59:19Z</time>
      </trkpt>
      <trkpt lat="42.1079350" lon="2.3111130">
        <ele>960.0</ele>
        <time>2019-10-21T10:59:20Z</time>
      </trkpt>
      <trkpt lat="42.1079350" lon="2.3111130">
        <ele>960.0</ele>
        <time>2019-10-21T10:59:21Z</time>
      </trkpt>
      <trkpt lat="42.1079350" lon="2.3111130">
        <ele>959.8</ele>
        <time>2019-10-21T10:59:22Z</time>
      </trkpt>
      <trkpt lat="42.1079690" lon="2.3111150">
        <ele>960.0</ele>
        <time>2019-10-21T10:59:23Z</time>
      </trkpt>
      <trkpt lat="42.1079690" lon="2.3111150">
        <ele>960.2</ele>
        <time>2019-10-21T10:59:24Z</time>
      </trkpt>
      <trkpt lat="42.1079910" lon="2.3111190">
        <ele>960.4</ele>
        <time>2019-10-21T10:59:25Z</time>
      </trkpt>
      <trkpt lat="42.1079910" lon="2.3111190">
        <ele>960.6</ele>
        <time>2019-10-21T10:59:26Z</time>
      </trkpt>
      <trkpt lat="42.1079910" lon="2.3111190">
        <ele>960.8</ele>
        <time>2019-10-21T10:59:27Z</time>
      </trkpt>
      <trkpt lat="42.1080100" lon="2.3111080">
        <ele>960.8</ele>
        <time>2019-10-21T10:59:28Z</time>
      </trkpt>
      <trkpt lat="42.1080100" lon="2.3111080">
        <ele>960.8</ele>
        <time>2019-10-21T10:59:29Z</time>
      </trkpt>
      <trkpt lat="42.1080100" lon="2.3111080">
        <ele>960.8</ele>
        <time>2019-10-21T10:59:30Z</time>
      </trkpt>
      <trkpt lat="42.1080100" lon="2.3111080">
        <ele>961.0</ele>
        <time>2019-10-21T10:59:31Z</time>
      </trkpt>
      <trkpt lat="42.1080100" lon="2.3111080">
        <ele>961.0</ele>
        <time>2019-10-21T10:59:32Z</time>
      </trkpt>
      <trkpt lat="42.1080100" lon="2.3111080">
        <ele>961.0</ele>
        <time>2019-10-21T10:59:33Z</time>
      </trkpt>
      <trkpt lat="42.1080270" lon="2.3111250">
        <ele>961.2</ele>
        <time>2019-10-21T10:59:34Z</time>
      </trkpt>
      <trkpt lat="42.1080270" lon="2.3111250">
        <ele>961.2</ele>
        <time>2019-10-21T10:59:35Z</time>
      </trkpt>
      <trkpt lat="42.1080270" lon="2.3111250">
        <ele>961.2</ele>
        <time>2019-10-21T10:59:36Z</time>
      </trkpt>
      <trkpt lat="42.1080270" lon="2.3111250">
        <ele>961.0</ele>
        <time>2019-10-21T10:59:37Z</time>
      </trkpt>
      <trkpt lat="42.1080380" lon="2.3111600">
        <ele>960.6</ele>
        <time>2019-10-21T10:59:38Z</time>
      </trkpt>
      <trkpt lat="42.1080380" lon="2.3111600">
        <ele>960.6</ele>
        <time>2019-10-21T10:59:39Z</time>
      </trkpt>
      <trkpt lat="42.1080380" lon="2.3111600">
        <ele>960.2</ele>
        <time>2019-10-21T10:59:40Z</time>
      </trkpt>
      <trkpt lat="42.1080380" lon="2.3111600">
        <ele>960.2</ele>
        <time>2019-10-21T10:59:41Z</time>
      </trkpt>
      <trkpt lat="42.1080380" lon="2.3111600">
        <ele>960.0</ele>
        <time>2019-10-21T10:59:42Z</time>
      </trkpt>
      <trkpt lat="42.1080380" lon="2.3111600">
        <ele>960.0</ele>
        <time>2019-10-21T10:59:43Z</time>
      </trkpt>
      <trkpt lat="42.1080380" lon="2.3111600">
        <ele>959.8</ele>
        <time>2019-10-21T10:59:44Z</time>
      </trkpt>
      <trkpt lat="42.1080590" lon="2.3111470">
        <ele>960.0</ele>
        <time>2019-10-21T10:59:45Z</time>
      </trkpt>
      <trkpt lat="42.1080590" lon="2.3111470">
        <ele>959.6</ele>
        <time>2019-10-21T10:59:46Z</time>
      </trkpt>
      <trkpt lat="42.1080590" lon="2.3111470">
        <ele>959.8</ele>
        <time>2019-10-21T10:59:47Z</time>
      </trkpt>
      <trkpt lat="42.1080820" lon="2.3111420">
        <ele>959.8</ele>
        <time>2019-10-21T10:59:48Z</time>
      </trkpt>
      <trkpt lat="42.1080820" lon="2.3111420">
        <ele>959.6</ele>
        <time>2019-10-21T10:59:49Z</time>
      </trkpt>
      <trkpt lat="42.1080820" lon="2.3111420">
        <ele>959.8</ele>
        <time>2019-10-21T10:59:50Z</time>
      </trkpt>
      <trkpt lat="42.1080820" lon="2.3111420">
        <ele>959.8</ele>
        <time>2019-10-21T10:59:51Z</time>
      </trkpt>
      <trkpt lat="42.1081000" lon="2.3111580">
        <ele>959.8</ele>
        <time>2019-10-21T10:59:52Z</time>
      </trkpt>
      <trkpt lat="42.1081000" lon="2.3111580">
        <ele>959.8</ele>
        <time>2019-10-21T10:59:53Z</time>
      </trkpt>
      <trkpt lat="42.1081000" lon="2.3111580">
        <ele>959.8</ele>
        <time>2019-10-21T10:59:54Z</time>
      </trkpt>
      <trkpt lat="42.1081100" lon="2.3111780">
        <ele>959.8</ele>
        <time>2019-10-21T10:59:55Z</time>
      </trkpt>
      <trkpt lat="42.1081100" lon="2.3111780">
        <ele>960.0</ele>
        <time>2019-10-21T10:59:56Z</time>
      </trkpt>
      <trkpt lat="42.1081100" lon="2.3111780">
        <ele>960.0</ele>
        <time>2019-10-21T10:59:57Z</time>
      </trkpt>
      <trkpt lat="42.1081190" lon="2.3112030">
        <ele>960.2</ele>
        <time>2019-10-21T10:59:58Z</time>
      </trkpt>
      <trkpt lat="42.1081190" lon="2.3112030">
        <ele>960.4</ele>
        <time>2019-10-21T10:59:59Z</time>
      </trkpt>
      <trkpt lat="42.1081190" lon="2.3112030">
        <ele>961.2</ele>
        <time>2019-10-21T11:00:01Z</time>
      </trkpt>
      <trkpt lat="42.1081330" lon="2.3112330">
        <ele>961.6</ele>
        <time>2019-10-21T11:00:02Z</time>
      </trkpt>
      <trkpt lat="42.1081330" lon="2.3112330">
        <ele>961.8</ele>
        <time>2019-10-21T11:00:03Z</time>
      </trkpt>
      <trkpt lat="42.1081330" lon="2.3112330">
        <ele>962.2</ele>
        <time>2019-10-21T11:00:04Z</time>
      </trkpt>
      <trkpt lat="42.1081540" lon="2.3112550">
        <ele>962.2</ele>
        <time>2019-10-21T11:00:05Z</time>
      </trkpt>
      <trkpt lat="42.1081710" lon="2.3112830">
        <ele>963.2</ele>
        <time>2019-10-21T11:00:07Z</time>
      </trkpt>
      <trkpt lat="42.1081710" lon="2.3112830">
        <ele>963.4</ele>
        <time>2019-10-21T11:00:08Z</time>
      </trkpt>
      <trkpt lat="42.1081880" lon="2.3112920">
        <ele>963.6</ele>
        <time>2019-10-21T11:00:09Z</time>
      </trkpt>
      <trkpt lat="42.1081880" lon="2.3112920">
        <ele>964.6</ele>
        <time>2019-10-21T11:00:10Z</time>
      </trkpt>
      <trkpt lat="42.1082120" lon="2.3112910">
        <ele>965.0</ele>
        <time>2019-10-21T11:00:11Z</time>
      </trkpt>
      <trkpt lat="42.1082120" lon="2.3112910">
        <ele>965.4</ele>
        <time>2019-10-21T11:00:12Z</time>
      </trkpt>
      <trkpt lat="42.1082120" lon="2.3112910">
        <ele>965.6</ele>
        <time>2019-10-21T11:00:13Z</time>
      </trkpt>
      <trkpt lat="42.1082340" lon="2.3112910">
        <ele>966.0</ele>
        <time>2019-10-21T11:00:14Z</time>
      </trkpt>
      <trkpt lat="42.1082340" lon="2.3112910">
        <ele>966.0</ele>
        <time>2019-10-21T11:00:15Z</time>
      </trkpt>
      <trkpt lat="42.1082340" lon="2.3112910">
        <ele>966.4</ele>
        <time>2019-10-21T11:00:16Z</time>
      </trkpt>
      <trkpt lat="42.1082340" lon="2.3112910">
        <ele>966.8</ele>
        <time>2019-10-21T11:00:17Z</time>
      </trkpt>
      <trkpt lat="42.1082470" lon="2.3113130">
        <ele>967.4</ele>
        <time>2019-10-21T11:00:18Z</time>
      </trkpt>
      <trkpt lat="42.1082470" lon="2.3113130">
        <ele>967.8</ele>
        <time>2019-10-21T11:00:19Z</time>
      </trkpt>
      <trkpt lat="42.1082560" lon="2.3113470">
        <ele>968.2</ele>
        <time>2019-10-21T11:00:20Z</time>
      </trkpt>
      <trkpt lat="42.1082560" lon="2.3113470">
        <ele>968.4</ele>
        <time>2019-10-21T11:00:21Z</time>
      </trkpt>
      <trkpt lat="42.1082730" lon="2.3113660">
        <ele>968.8</ele>
        <time>2019-10-21T11:00:22Z</time>
      </trkpt>
      <trkpt lat="42.1082730" lon="2.3113660">
        <ele>969.2</ele>
        <time>2019-10-21T11:00:23Z</time>
      </trkpt>
      <trkpt lat="42.1082730" lon="2.3113660">
        <ele>969.8</ele>
        <time>2019-10-21T11:00:24Z</time>
      </trkpt>
      <trkpt lat="42.1082920" lon="2.3113630">
        <ele>970.2</ele>
        <time>2019-10-21T11:00:25Z</time>
      </trkpt>
      <trkpt lat="42.1082920" lon="2.3113630">
        <ele>970.4</ele>
        <time>2019-10-21T11:00:26Z</time>
      </trkpt>
      <trkpt lat="42.1082920" lon="2.3113630">
        <ele>970.8</ele>
        <time>2019-10-21T11:00:27Z</time>
      </trkpt>
      <trkpt lat="42.1083090" lon="2.3113540">
        <ele>971.4</ele>
        <time>2019-10-21T11:00:28Z</time>
      </trkpt>
      <trkpt lat="42.1083090" lon="2.3113540">
        <ele>971.6</ele>
        <time>2019-10-21T11:00:29Z</time>
      </trkpt>
      <trkpt lat="42.1083090" lon="2.3113540">
        <ele>971.6</ele>
        <time>2019-10-21T11:00:30Z</time>
      </trkpt>
      <trkpt lat="42.1083090" lon="2.3113540">
        <ele>972.0</ele>
        <time>2019-10-21T11:00:31Z</time>
      </trkpt>
      <trkpt lat="42.1083090" lon="2.3113540">
        <ele>972.4</ele>
        <time>2019-10-21T11:00:32Z</time>
      </trkpt>
      <trkpt lat="42.1083090" lon="2.3113540">
        <ele>973.0</ele>
        <time>2019-10-21T11:00:33Z</time>
      </trkpt>
      <trkpt lat="42.1083820" lon="2.3112580">
        <ele>973.2</ele>
        <time>2019-10-21T11:00:34Z</time>
      </trkpt>
      <trkpt lat="42.1083820" lon="2.3112580">
        <ele>973.4</ele>
        <time>2019-10-21T11:00:35Z</time>
      </trkpt>
      <trkpt lat="42.1083820" lon="2.3112580">
        <ele>973.6</ele>
        <time>2019-10-21T11:00:36Z</time>
      </trkpt>
      <trkpt lat="42.1083820" lon="2.3112580">
        <ele>974.0</ele>
        <time>2019-10-21T11:00:37Z</time>
      </trkpt>
      <trkpt lat="42.1083820" lon="2.3112580">
        <ele>974.2</ele>
        <time>2019-10-21T11:00:38Z</time>
      </trkpt>
      <trkpt lat="42.1083820" lon="2.3112580">
        <ele>974.6</ele>
        <time>2019-10-21T11:00:39Z</time>
      </trkpt>
      <trkpt lat="42.1083820" lon="2.3112580">
        <ele>974.8</ele>
        <time>2019-10-21T11:00:40Z</time>
      </trkpt>
      <trkpt lat="42.1083820" lon="2.3112580">
        <ele>975.2</ele>
        <time>2019-10-21T11:00:41Z</time>
      </trkpt>
      <trkpt lat="42.1083820" lon="2.3112580">
        <ele>975.4</ele>
        <time>2019-10-21T11:00:42Z</time>
      </trkpt>
      <trkpt lat="42.1083820" lon="2.3112580">
        <ele>975.6</ele>
        <time>2019-10-21T11:00:43Z</time>
      </trkpt>
      <trkpt lat="42.1084020" lon="2.3111320">
        <ele>976.0</ele>
        <time>2019-10-21T11:00:44Z</time>
      </trkpt>
      <trkpt lat="42.1084020" lon="2.3111320">
        <ele>976.0</ele>
        <time>2019-10-21T11:00:45Z</time>
      </trkpt>
      <trkpt lat="42.1084020" lon="2.3111320">
        <ele>976.4</ele>
        <time>2019-10-21T11:00:46Z</time>
      </trkpt>
      <trkpt lat="42.1084020" lon="2.3111320">
        <ele>976.6</ele>
        <time>2019-10-21T11:00:47Z</time>
      </trkpt>
      <trkpt lat="42.1084680" lon="2.3110330">
        <ele>977.0</ele>
        <time>2019-10-21T11:00:48Z</time>
      </trkpt>
      <trkpt lat="42.1084680" lon="2.3110330">
        <ele>977.4</ele>
        <time>2019-10-21T11:00:49Z</time>
      </trkpt>
      <trkpt lat="42.1084680" lon="2.3110330">
        <ele>977.6</ele>
        <time>2019-10-21T11:00:50Z</time>
      </trkpt>
      <trkpt lat="42.1084680" lon="2.3110330">
        <ele>977.6</ele>
        <time>2019-10-21T11:00:51Z</time>
      </trkpt>
      <trkpt lat="42.1084680" lon="2.3110330">
        <ele>977.8</ele>
        <time>2019-10-21T11:00:52Z</time>
      </trkpt>
      <trkpt lat="42.1084680" lon="2.3110330">
        <ele>978.0</ele>
        <time>2019-10-21T11:00:53Z</time>
      </trkpt>
      <trkpt lat="42.1084680" lon="2.3110330">
        <ele>978.2</ele>
        <time>2019-10-21T11:00:54Z</time>
      </trkpt>
      <trkpt lat="42.1085510" lon="2.3110240">
        <ele>978.6</ele>
        <time>2019-10-21T11:00:55Z</time>
      </trkpt>
      <trkpt lat="42.1085510" lon="2.3110240">
        <ele>978.6</ele>
        <time>2019-10-21T11:00:56Z</time>
      </trkpt>
      <trkpt lat="42.1085750" lon="2.3110340">
        <ele>979.2</ele>
        <time>2019-10-21T11:00:57Z</time>
      </trkpt>
      <trkpt lat="42.1085750" lon="2.3110340">
        <ele>979.6</ele>
        <time>2019-10-21T11:00:58Z</time>
      </trkpt>
      <trkpt lat="42.1085950" lon="2.3110390">
        <ele>980.0</ele>
        <time>2019-10-21T11:00:59Z</time>
      </trkpt>
      <trkpt lat="42.1085950" lon="2.3110390">
        <ele>980.8</ele>
        <time>2019-10-21T11:01:00Z</time>
      </trkpt>
      <trkpt lat="42.1085950" lon="2.3110390">
        <ele>981.0</ele>
        <time>2019-10-21T11:01:01Z</time>
      </trkpt>
      <trkpt lat="42.1085950" lon="2.3110390">
        <ele>980.8</ele>
        <time>2019-10-21T11:01:02Z</time>
      </trkpt>
      <trkpt lat="42.1085950" lon="2.3110390">
        <ele>980.6</ele>
        <time>2019-10-21T11:01:03Z</time>
      </trkpt>
      <trkpt lat="42.1085950" lon="2.3110390">
        <ele>980.4</ele>
        <time>2019-10-21T11:01:04Z</time>
      </trkpt>
      <trkpt lat="42.1086530" lon="2.3110140">
        <ele>980.4</ele>
        <time>2019-10-21T11:01:05Z</time>
      </trkpt>
      <trkpt lat="42.1086530" lon="2.3110140">
        <ele>980.2</ele>
        <time>2019-10-21T11:01:06Z</time>
      </trkpt>
      <trkpt lat="42.1086530" lon="2.3110140">
        <ele>980.0</ele>
        <time>2019-10-21T11:01:07Z</time>
      </trkpt>
      <trkpt lat="42.1086530" lon="2.3110140">
        <ele>980.0</ele>
        <time>2019-10-21T11:01:08Z</time>
      </trkpt>
      <trkpt lat="42.1086530" lon="2.3110140">
        <ele>979.8</ele>
        <time>2019-10-21T11:01:09Z</time>
      </trkpt>
      <trkpt lat="42.1086530" lon="2.3110140">
        <ele>979.6</ele>
        <time>2019-10-21T11:01:10Z</time>
      </trkpt>
      <trkpt lat="42.1086530" lon="2.3110140">
        <ele>979.6</ele>
        <time>2019-10-21T11:01:11Z</time>
      </trkpt>
      <trkpt lat="42.1087560" lon="2.3109650">
        <ele>979.4</ele>
        <time>2019-10-21T11:01:12Z</time>
      </trkpt>
      <trkpt lat="42.1087560" lon="2.3109650">
        <ele>978.8</ele>
        <time>2019-10-21T11:01:13Z</time>
      </trkpt>
      <trkpt lat="42.1087560" lon="2.3109650">
        <ele>978.6</ele>
        <time>2019-10-21T11:01:14Z</time>
      </trkpt>
      <trkpt lat="42.1087560" lon="2.3109650">
        <ele>978.0</ele>
        <time>2019-10-21T11:01:15Z</time>
      </trkpt>
      <trkpt lat="42.1088210" lon="2.3109000">
        <ele>977.8</ele>
        <time>2019-10-21T11:01:16Z</time>
      </trkpt>
      <trkpt lat="42.1088210" lon="2.3109000">
        <ele>977.4</ele>
        <time>2019-10-21T11:01:17Z</time>
      </trkpt>
      <trkpt lat="42.1088590" lon="2.3108580">
        <ele>977.0</ele>
        <time>2019-10-21T11:01:18Z</time>
      </trkpt>
      <trkpt lat="42.1088700" lon="2.3108430">
        <ele>976.2</ele>
        <time>2019-10-21T11:01:19Z</time>
      </trkpt>
      <trkpt lat="42.1088800" lon="2.3108280">
        <ele>975.4</ele>
        <time>2019-10-21T11:01:20Z</time>
      </trkpt>
      <trkpt lat="42.1088910" lon="2.3108140">
        <ele>974.8</ele>
        <time>2019-10-21T11:01:21Z</time>
      </trkpt>
      <trkpt lat="42.1089010" lon="2.3107990">
        <ele>974.4</ele>
        <time>2019-10-21T11:01:22Z</time>
      </trkpt>
      <trkpt lat="42.1089120" lon="2.3107840">
        <ele>974.0</ele>
        <time>2019-10-21T11:01:23Z</time>
      </trkpt>
      <trkpt lat="42.1089220" lon="2.3107690">
        <ele>973.2</ele>
        <time>2019-10-21T11:01:24Z</time>
      </trkpt>
      <trkpt lat="42.1089370" lon="2.3107270">
        <ele>972.2</ele>
        <time>2019-10-21T11:01:25Z</time>
      </trkpt>
      <trkpt lat="42.1089520" lon="2.3106850">
        <ele>972.2</ele>
        <time>2019-10-21T11:01:26Z</time>
      </trkpt>
      <trkpt lat="42.1089680" lon="2.3106440">
        <ele>971.8</ele>
        <time>2019-10-21T11:01:27Z</time>
      </trkpt>
      <trkpt lat="42.1089830" lon="2.3106020">
        <ele>971.2</ele>
        <time>2019-10-21T11:01:28Z</time>
      </trkpt>
      <trkpt lat="42.1089980" lon="2.3105600">
        <ele>970.4</ele>
        <time>2019-10-21T11:01:29Z</time>
      </trkpt>
      <trkpt lat="42.1090130" lon="2.3105180">
        <ele>969.6</ele>
        <time>2019-10-21T11:01:30Z</time>
      </trkpt>
      <trkpt lat="42.1090280" lon="2.3104760">
        <ele>969.0</ele>
        <time>2019-10-21T11:01:31Z</time>
      </trkpt>
      <trkpt lat="42.1090440" lon="2.3104350">
        <ele>968.8</ele>
        <time>2019-10-21T11:01:32Z</time>
      </trkpt>
      <trkpt lat="42.1090590" lon="2.3103930">
        <ele>968.0</ele>
        <time>2019-10-21T11:01:33Z</time>
      </trkpt>
      <trkpt lat="42.1090740" lon="2.3103510">
        <ele>967.4</ele>
        <time>2019-10-21T11:01:34Z</time>
      </trkpt>
      <trkpt lat="42.1091590" lon="2.3102430">
        <ele>966.8</ele>
        <time>2019-10-21T11:01:35Z</time>
      </trkpt>
      <trkpt lat="42.1091800" lon="2.3102310">
        <ele>966.2</ele>
        <time>2019-10-21T11:01:36Z</time>
      </trkpt>
      <trkpt lat="42.1092000" lon="2.3102180">
        <ele>964.4</ele>
        <time>2019-10-21T11:01:37Z</time>
      </trkpt>
      <trkpt lat="42.1092210" lon="2.3102050">
        <ele>964.0</ele>
        <time>2019-10-21T11:01:38Z</time>
      </trkpt>
      <trkpt lat="42.1092350" lon="2.3101940">
        <ele>963.8</ele>
        <time>2019-10-21T11:01:39Z</time>
      </trkpt>
      <trkpt lat="42.1092480" lon="2.3101830">
        <ele>963.6</ele>
        <time>2019-10-21T11:01:40Z</time>
      </trkpt>
      <trkpt lat="42.1092620" lon="2.3101720">
        <ele>962.8</ele>
        <time>2019-10-21T11:01:41Z</time>
      </trkpt>
      <trkpt lat="42.1092750" lon="2.3101620">
        <ele>962.2</ele>
        <time>2019-10-21T11:01:42Z</time>
      </trkpt>
      <trkpt lat="42.1092890" lon="2.3101510">
        <ele>961.6</ele>
        <time>2019-10-21T11:01:43Z</time>
      </trkpt>
      <trkpt lat="42.1093020" lon="2.3101400">
        <ele>961.0</ele>
        <time>2019-10-21T11:01:44Z</time>
      </trkpt>
      <trkpt lat="42.1093160" lon="2.3101290">
        <ele>960.4</ele>
        <time>2019-10-21T11:01:45Z</time>
      </trkpt>
      <trkpt lat="42.1093160" lon="2.3101290">
        <ele>960.2</ele>
        <time>2019-10-21T11:01:46Z</time>
      </trkpt>
      <trkpt lat="42.1093910" lon="2.3100190">
        <ele>960.2</ele>
        <time>2019-10-21T11:01:47Z</time>
      </trkpt>
      <trkpt lat="42.1093910" lon="2.3100190">
        <ele>960.4</ele>
        <time>2019-10-21T11:01:48Z</time>
      </trkpt>
      <trkpt lat="42.1093910" lon="2.3100190">
        <ele>959.8</ele>
        <time>2019-10-21T11:01:49Z</time>
      </trkpt>
      <trkpt lat="42.1093950" lon="2.3099750">
        <ele>959.4</ele>
        <time>2019-10-21T11:01:50Z</time>
      </trkpt>
      <trkpt lat="42.1094000" lon="2.3099310">
        <ele>958.6</ele>
        <time>2019-10-21T11:01:51Z</time>
      </trkpt>
      <trkpt lat="42.1094040" lon="2.3098880">
        <ele>958.6</ele>
        <time>2019-10-21T11:01:52Z</time>
      </trkpt>
      <trkpt lat="42.1094080" lon="2.3098440">
        <ele>958.2</ele>
        <time>2019-10-21T11:01:53Z</time>
      </trkpt>
      <trkpt lat="42.1094130" lon="2.3098000">
        <ele>957.6</ele>
        <time>2019-10-21T11:01:54Z</time>
      </trkpt>
      <trkpt lat="42.1094170" lon="2.3097560">
        <ele>956.8</ele>
        <time>2019-10-21T11:01:55Z</time>
      </trkpt>
      <trkpt lat="42.1094260" lon="2.3097260">
        <ele>956.0</ele>
        <time>2019-10-21T11:01:56Z</time>
      </trkpt>
      <trkpt lat="42.1094340" lon="2.3096960">
        <ele>955.6</ele>
        <time>2019-10-21T11:01:57Z</time>
      </trkpt>
      <trkpt lat="42.1094430" lon="2.3096660">
        <ele>954.6</ele>
        <time>2019-10-21T11:01:58Z</time>
      </trkpt>
      <trkpt lat="42.1094520" lon="2.3096350">
        <ele>954.2</ele>
        <time>2019-10-21T11:01:59Z</time>
      </trkpt>
      <trkpt lat="42.1094610" lon="2.3096050">
        <ele>953.2</ele>
        <time>2019-10-21T11:02:00Z</time>
      </trkpt>
      <trkpt lat="42.1094690" lon="2.3095750">
        <ele>952.6</ele>
        <time>2019-10-21T11:02:01Z</time>
      </trkpt>
      <trkpt lat="42.1094780" lon="2.3095450">
        <ele>952.0</ele>
        <time>2019-10-21T11:02:02Z</time>
      </trkpt>
      <trkpt lat="42.1094920" lon="2.3094760">
        <ele>951.2</ele>
        <time>2019-10-21T11:02:03Z</time>
      </trkpt>
      <trkpt lat="42.1094920" lon="2.3094760">
        <ele>950.8</ele>
        <time>2019-10-21T11:02:04Z</time>
      </trkpt>
      <trkpt lat="42.1094920" lon="2.3094760">
        <ele>949.8</ele>
        <time>2019-10-21T11:02:05Z</time>
      </trkpt>
      <trkpt lat="42.1094920" lon="2.3094760">
        <ele>949.4</ele>
        <time>2019-10-21T11:02:06Z</time>
      </trkpt>
      <trkpt lat="42.1095100" lon="2.3093140">
        <ele>948.4</ele>
        <time>2019-10-21T11:02:07Z</time>
      </trkpt>
      <trkpt lat="42.1095100" lon="2.3093140">
        <ele>947.6</ele>
        <time>2019-10-21T11:02:08Z</time>
      </trkpt>
      <trkpt lat="42.1095010" lon="2.3092770">
        <ele>946.6</ele>
        <time>2019-10-21T11:02:09Z</time>
      </trkpt>
      <trkpt lat="42.1094920" lon="2.3092400">
        <ele>945.8</ele>
        <time>2019-10-21T11:02:10Z</time>
      </trkpt>
      <trkpt lat="42.1094830" lon="2.3092040">
        <ele>945.0</ele>
        <time>2019-10-21T11:02:11Z</time>
      </trkpt>
      <trkpt lat="42.1094740" lon="2.3091670">
        <ele>944.8</ele>
        <time>2019-10-21T11:02:12Z</time>
      </trkpt>
      <trkpt lat="42.1094580" lon="2.3091200">
        <ele>944.6</ele>
        <time>2019-10-21T11:02:13Z</time>
      </trkpt>
      <trkpt lat="42.1094420" lon="2.3090730">
        <ele>944.0</ele>
        <time>2019-10-21T11:02:14Z</time>
      </trkpt>
      <trkpt lat="42.1094250" lon="2.3090270">
        <ele>944.2</ele>
        <time>2019-10-21T11:02:15Z</time>
      </trkpt>
      <trkpt lat="42.1094090" lon="2.3089800">
        <ele>943.6</ele>
        <time>2019-10-21T11:02:16Z</time>
      </trkpt>
      <trkpt lat="42.1093720" lon="2.3088950">
        <ele>943.6</ele>
        <time>2019-10-21T11:02:17Z</time>
      </trkpt>
      <trkpt lat="42.1093650" lon="2.3088710">
        <ele>943.2</ele>
        <time>2019-10-21T11:02:18Z</time>
      </trkpt>
      <trkpt lat="42.1093580" lon="2.3088470">
        <ele>943.0</ele>
        <time>2019-10-21T11:02:19Z</time>
      </trkpt>
      <trkpt lat="42.1093300" lon="2.3087500">
        <ele>942.2</ele>
        <time>2019-10-21T11:02:20Z</time>
      </trkpt>
      <trkpt lat="42.1093240" lon="2.3087260">
        <ele>941.8</ele>
        <time>2019-10-21T11:02:21Z</time>
      </trkpt>
      <trkpt lat="42.1093180" lon="2.3087010">
        <ele>941.4</ele>
        <time>2019-10-21T11:02:22Z</time>
      </trkpt>
      <trkpt lat="42.1092990" lon="2.3086270">
        <ele>941.0</ele>
        <time>2019-10-21T11:02:23Z</time>
      </trkpt>
      <trkpt lat="42.1092990" lon="2.3086270">
        <ele>941.4</ele>
        <time>2019-10-21T11:02:24Z</time>
      </trkpt>
      <trkpt lat="42.1092990" lon="2.3086270">
        <ele>941.0</ele>
        <time>2019-10-21T11:02:25Z</time>
      </trkpt>
      <trkpt lat="42.1092660" lon="2.3085120">
        <ele>941.6</ele>
        <time>2019-10-21T11:02:26Z</time>
      </trkpt>
      <trkpt lat="42.1092660" lon="2.3085120">
        <ele>941.4</ele>
        <time>2019-10-21T11:02:27Z</time>
      </trkpt>
      <trkpt lat="42.1092660" lon="2.3085120">
        <ele>941.8</ele>
        <time>2019-10-21T11:02:28Z</time>
      </trkpt>
      <trkpt lat="42.1092580" lon="2.3084750">
        <ele>942.0</ele>
        <time>2019-10-21T11:02:29Z</time>
      </trkpt>
      <trkpt lat="42.1092510" lon="2.3084380">
        <ele>942.6</ele>
        <time>2019-10-21T11:02:30Z</time>
      </trkpt>
      <trkpt lat="42.1092430" lon="2.3084010">
        <ele>942.4</ele>
        <time>2019-10-21T11:02:31Z</time>
      </trkpt>
      <trkpt lat="42.1092350" lon="2.3083640">
        <ele>942.8</ele>
        <time>2019-10-21T11:02:32Z</time>
      </trkpt>
      <trkpt lat="42.1092350" lon="2.3083390">
        <ele>942.8</ele>
        <time>2019-10-21T11:02:33Z</time>
      </trkpt>
      <trkpt lat="42.1092350" lon="2.3083140">
        <ele>943.0</ele>
        <time>2019-10-21T11:02:34Z</time>
      </trkpt>
      <trkpt lat="42.1092350" lon="2.3082890">
        <ele>942.8</ele>
        <time>2019-10-21T11:02:35Z</time>
      </trkpt>
      <trkpt lat="42.1092350" lon="2.3082640">
        <ele>942.8</ele>
        <time>2019-10-21T11:02:36Z</time>
      </trkpt>
      <trkpt lat="42.1092350" lon="2.3082390">
        <ele>942.4</ele>
        <time>2019-10-21T11:02:37Z</time>
      </trkpt>
      <trkpt lat="42.1092240" lon="2.3082100">
        <ele>942.4</ele>
        <time>2019-10-21T11:02:38Z</time>
      </trkpt>
      <trkpt lat="42.1092120" lon="2.3081800">
        <ele>942.8</ele>
        <time>2019-10-21T11:02:39Z</time>
      </trkpt>
      <trkpt lat="42.1092010" lon="2.3081510">
        <ele>942.2</ele>
        <time>2019-10-21T11:02:40Z</time>
      </trkpt>
      <trkpt lat="42.1091890" lon="2.3081220">
        <ele>942.2</ele>
        <time>2019-10-21T11:02:41Z</time>
      </trkpt>
      <trkpt lat="42.1091790" lon="2.3081120">
        <ele>941.8</ele>
        <time>2019-10-21T11:02:42Z</time>
      </trkpt>
      <trkpt lat="42.1091680" lon="2.3081020">
        <ele>941.8</ele>
        <time>2019-10-21T11:02:43Z</time>
      </trkpt>
      <trkpt lat="42.1091580" lon="2.3080930">
        <ele>941.6</ele>
        <time>2019-10-21T11:02:44Z</time>
      </trkpt>
      <trkpt lat="42.1091470" lon="2.3080830">
        <ele>941.6</ele>
        <time>2019-10-21T11:02:45Z</time>
      </trkpt>
      <trkpt lat="42.1090940" lon="2.3080380">
        <ele>941.6</ele>
        <time>2019-10-21T11:02:46Z</time>
      </trkpt>
      <trkpt lat="42.1090840" lon="2.3080300">
        <ele>941.2</ele>
        <time>2019-10-21T11:02:47Z</time>
      </trkpt>
      <trkpt lat="42.1090730" lon="2.3080230">
        <ele>940.6</ele>
        <time>2019-10-21T11:02:48Z</time>
      </trkpt>
      <trkpt lat="42.1090620" lon="2.3080160">
        <ele>939.8</ele>
        <time>2019-10-21T11:02:49Z</time>
      </trkpt>
      <trkpt lat="42.1090180" lon="2.3079870">
        <ele>940.2</ele>
        <time>2019-10-21T11:02:50Z</time>
      </trkpt>
      <trkpt lat="42.1090180" lon="2.3079870">
        <ele>940.2</ele>
        <time>2019-10-21T11:02:51Z</time>
      </trkpt>
      <trkpt lat="42.1090180" lon="2.3079870">
        <ele>940.8</ele>
        <time>2019-10-21T11:02:52Z</time>
      </trkpt>
      <trkpt lat="42.1090180" lon="2.3079870">
        <ele>940.4</ele>
        <time>2019-10-21T11:02:53Z</time>
      </trkpt>
      <trkpt lat="42.1089940" lon="2.3079860">
        <ele>940.6</ele>
        <time>2019-10-21T11:02:54Z</time>
      </trkpt>
      <trkpt lat="42.1089710" lon="2.3079850">
        <ele>940.4</ele>
        <time>2019-10-21T11:02:55Z</time>
      </trkpt>
      <trkpt lat="42.1089470" lon="2.3079850">
        <ele>940.2</ele>
        <time>2019-10-21T11:02:56Z</time>
      </trkpt>
      <trkpt lat="42.1089230" lon="2.3079840">
        <ele>939.6</ele>
        <time>2019-10-21T11:02:57Z</time>
      </trkpt>
      <trkpt lat="42.1089040" lon="2.3080000">
        <ele>939.4</ele>
        <time>2019-10-21T11:02:58Z</time>
      </trkpt>
      <trkpt lat="42.1088850" lon="2.3080160">
        <ele>938.8</ele>
        <time>2019-10-21T11:02:59Z</time>
      </trkpt>
      <trkpt lat="42.1088650" lon="2.3080320">
        <ele>938.8</ele>
        <time>2019-10-21T11:03:00Z</time>
      </trkpt>
      <trkpt lat="42.1088460" lon="2.3080480">
        <ele>938.4</ele>
        <time>2019-10-21T11:03:01Z</time>
      </trkpt>
      <trkpt lat="42.1088460" lon="2.3080480">
        <ele>938.2</ele>
        <time>2019-10-21T11:03:02Z</time>
      </trkpt>
      <trkpt lat="42.1088460" lon="2.3080480">
        <ele>937.8</ele>
        <time>2019-10-21T11:03:03Z</time>
      </trkpt>
      <trkpt lat="42.1088460" lon="2.3080480">
        <ele>937.4</ele>
        <time>2019-10-21T11:03:04Z</time>
      </trkpt>
      <trkpt lat="42.1087960" lon="2.3081650">
        <ele>937.4</ele>
        <time>2019-10-21T11:03:05Z</time>
      </trkpt>
      <trkpt lat="42.1087960" lon="2.3081650">
        <ele>936.8</ele>
        <time>2019-10-21T11:03:06Z</time>
      </trkpt>
      <trkpt lat="42.1087960" lon="2.3081650">
        <ele>937.4</ele>
        <time>2019-10-21T11:03:07Z</time>
      </trkpt>
      <trkpt lat="42.1087820" lon="2.3081740">
        <ele>936.8</ele>
        <time>2019-10-21T11:03:08Z</time>
      </trkpt>
      <trkpt lat="42.1087670" lon="2.3081820">
        <ele>937.2</ele>
        <time>2019-10-21T11:03:09Z</time>
      </trkpt>
      <trkpt lat="42.1087530" lon="2.3081910">
        <ele>937.0</ele>
        <time>2019-10-21T11:03:10Z</time>
      </trkpt>
      <trkpt lat="42.1087090" lon="2.3082160">
        <ele>937.6</ele>
        <time>2019-10-21T11:03:11Z</time>
      </trkpt>
      <trkpt lat="42.1087090" lon="2.3082160">
        <ele>937.4</ele>
        <time>2019-10-21T11:03:12Z</time>
      </trkpt>
      <trkpt lat="42.1087090" lon="2.3082160">
        <ele>938.0</ele>
        <time>2019-10-21T11:03:13Z</time>
      </trkpt>
      <trkpt lat="42.1087090" lon="2.3082160">
        <ele>937.8</ele>
        <time>2019-10-21T11:03:14Z</time>
      </trkpt>
      <trkpt lat="42.1087090" lon="2.3082160">
        <ele>938.6</ele>
        <time>2019-10-21T11:03:15Z</time>
      </trkpt>
      <trkpt lat="42.1087090" lon="2.3082160">
        <ele>938.4</ele>
        <time>2019-10-21T11:03:16Z</time>
      </trkpt>
      <trkpt lat="42.1087090" lon="2.3082160">
        <ele>939.0</ele>
        <time>2019-10-21T11:03:17Z</time>
      </trkpt>
      <trkpt lat="42.1087090" lon="2.3082160">
        <ele>938.6</ele>
        <time>2019-10-21T11:03:18Z</time>
      </trkpt>
      <trkpt lat="42.1087090" lon="2.3082160">
        <ele>938.6</ele>
        <time>2019-10-21T11:03:19Z</time>
      </trkpt>
      <trkpt lat="42.1087090" lon="2.3082160">
        <ele>938.4</ele>
        <time>2019-10-21T11:03:20Z</time>
      </trkpt>
      <trkpt lat="42.1086860" lon="2.3082310">
        <ele>938.6</ele>
        <time>2019-10-21T11:03:21Z</time>
      </trkpt>
      <trkpt lat="42.1086630" lon="2.3082460">
        <ele>938.4</ele>
        <time>2019-10-21T11:03:22Z</time>
      </trkpt>
      <trkpt lat="42.1086400" lon="2.3082600">
        <ele>938.4</ele>
        <time>2019-10-21T11:03:23Z</time>
      </trkpt>
      <trkpt lat="42.1086170" lon="2.3082750">
        <ele>938.4</ele>
        <time>2019-10-21T11:03:24Z</time>
      </trkpt>
      <trkpt lat="42.1085990" lon="2.3082830">
        <ele>938.6</ele>
        <time>2019-10-21T11:03:25Z</time>
      </trkpt>
      <trkpt lat="42.1085800" lon="2.3082910">
        <ele>938.8</ele>
        <time>2019-10-21T11:03:26Z</time>
      </trkpt>
      <trkpt lat="42.1085620" lon="2.3083000">
        <ele>939.0</ele>
        <time>2019-10-21T11:03:27Z</time>
      </trkpt>
      <trkpt lat="42.1085430" lon="2.3083080">
        <ele>938.6</ele>
        <time>2019-10-21T11:03:28Z</time>
      </trkpt>
      <trkpt lat="42.1085250" lon="2.3083160">
        <ele>938.6</ele>
        <time>2019-10-21T11:03:29Z</time>
      </trkpt>
      <trkpt lat="42.1085250" lon="2.3083160">
        <ele>938.4</ele>
        <time>2019-10-21T11:03:30Z</time>
      </trkpt>
      <trkpt lat="42.1085250" lon="2.3083160">
        <ele>938.0</ele>
        <time>2019-10-21T11:03:31Z</time>
      </trkpt>
      <trkpt lat="42.1085250" lon="2.3083160">
        <ele>937.8</ele>
        <time>2019-10-21T11:03:32Z</time>
      </trkpt>
      <trkpt lat="42.1085250" lon="2.3083160">
        <ele>938.0</ele>
        <time>2019-10-21T11:03:33Z</time>
      </trkpt>
      <trkpt lat="42.1085250" lon="2.3083160">
        <ele>937.8</ele>
        <time>2019-10-21T11:03:34Z</time>
      </trkpt>
      <trkpt lat="42.1085250" lon="2.3083160">
        <ele>938.4</ele>
        <time>2019-10-21T11:03:35Z</time>
      </trkpt>
      <trkpt lat="42.1084270" lon="2.3083440">
        <ele>938.6</ele>
        <time>2019-10-21T11:03:36Z</time>
      </trkpt>
      <trkpt lat="42.1084270" lon="2.3083440">
        <ele>939.0</ele>
        <time>2019-10-21T11:03:37Z</time>
      </trkpt>
      <trkpt lat="42.1084270" lon="2.3083440">
        <ele>939.4</ele>
        <time>2019-10-21T11:03:38Z</time>
      </trkpt>
      <trkpt lat="42.1084270" lon="2.3083440">
        <ele>939.6</ele>
        <time>2019-10-21T11:03:39Z</time>
      </trkpt>
      <trkpt lat="42.1084270" lon="2.3083440">
        <ele>939.8</ele>
        <time>2019-10-21T11:03:40Z</time>
      </trkpt>
      <trkpt lat="42.1084100" lon="2.3083490">
        <ele>939.2</ele>
        <time>2019-10-21T11:03:41Z</time>
      </trkpt>
      <trkpt lat="42.1083940" lon="2.3083540">
        <ele>939.0</ele>
        <time>2019-10-21T11:03:42Z</time>
      </trkpt>
      <trkpt lat="42.1083770" lon="2.3083590">
        <ele>939.0</ele>
        <time>2019-10-21T11:03:43Z</time>
      </trkpt>
      <trkpt lat="42.1083600" lon="2.3083640">
        <ele>939.0</ele>
        <time>2019-10-21T11:03:44Z</time>
      </trkpt>
      <trkpt lat="42.1083440" lon="2.3083690">
        <ele>938.8</ele>
        <time>2019-10-21T11:03:45Z</time>
      </trkpt>
      <trkpt lat="42.1083270" lon="2.3083740">
        <ele>939.4</ele>
        <time>2019-10-21T11:03:46Z</time>
      </trkpt>
      <trkpt lat="42.1083050" lon="2.3083690">
        <ele>939.6</ele>
        <time>2019-10-21T11:03:47Z</time>
      </trkpt>
      <trkpt lat="42.1082820" lon="2.3083650">
        <ele>939.8</ele>
        <time>2019-10-21T11:03:48Z</time>
      </trkpt>
      <trkpt lat="42.1082600" lon="2.3083600">
        <ele>939.4</ele>
        <time>2019-10-21T11:03:49Z</time>
      </trkpt>
      <trkpt lat="42.1082370" lon="2.3083560">
        <ele>940.0</ele>
        <time>2019-10-21T11:03:50Z</time>
      </trkpt>
      <trkpt lat="42.1082250" lon="2.3083420">
        <ele>939.8</ele>
        <time>2019-10-21T11:03:51Z</time>
      </trkpt>
      <trkpt lat="42.1082140" lon="2.3083280">
        <ele>940.4</ele>
        <time>2019-10-21T11:03:52Z</time>
      </trkpt>
      <trkpt lat="42.1082020" lon="2.3083140">
        <ele>940.4</ele>
        <time>2019-10-21T11:03:53Z</time>
      </trkpt>
      <trkpt lat="42.1081910" lon="2.3083000">
        <ele>941.0</ele>
        <time>2019-10-21T11:03:54Z</time>
      </trkpt>
      <trkpt lat="42.1081790" lon="2.3082860">
        <ele>940.8</ele>
        <time>2019-10-21T11:03:55Z</time>
      </trkpt>
      <trkpt lat="42.1081770" lon="2.3082790">
        <ele>941.4</ele>
        <time>2019-10-21T11:03:56Z</time>
      </trkpt>
      <trkpt lat="42.1081750" lon="2.3082730">
        <ele>941.4</ele>
        <time>2019-10-21T11:03:57Z</time>
      </trkpt>
      <trkpt lat="42.1081730" lon="2.3082660">
        <ele>941.6</ele>
        <time>2019-10-21T11:03:58Z</time>
      </trkpt>
      <trkpt lat="42.1081710" lon="2.3082590">
        <ele>941.8</ele>
        <time>2019-10-21T11:03:59Z</time>
      </trkpt>
      <trkpt lat="42.1081690" lon="2.3082530">
        <ele>942.0</ele>
        <time>2019-10-21T11:04:00Z</time>
      </trkpt>
      <trkpt lat="42.1081670" lon="2.3082460">
        <ele>942.2</ele>
        <time>2019-10-21T11:04:01Z</time>
      </trkpt>
      <trkpt lat="42.1081770" lon="2.3082230">
        <ele>942.4</ele>
        <time>2019-10-21T11:04:02Z</time>
      </trkpt>
      <trkpt lat="42.1081780" lon="2.3082210">
        <ele>942.6</ele>
        <time>2019-10-21T11:04:03Z</time>
      </trkpt>
      <trkpt lat="42.1081790" lon="2.3082200">
        <ele>942.4</ele>
        <time>2019-10-21T11:04:04Z</time>
      </trkpt>
      <trkpt lat="42.1081800" lon="2.3082190">
        <ele>942.2</ele>
        <time>2019-10-21T11:04:05Z</time>
      </trkpt>
      <trkpt lat="42.1081810" lon="2.3082170">
        <ele>942.4</ele>
        <time>2019-10-21T11:04:06Z</time>
      </trkpt>
      <trkpt lat="42.1081820" lon="2.3082160">
        <ele>941.8</ele>
        <time>2019-10-21T11:04:07Z</time>
      </trkpt>
      <trkpt lat="42.1081830" lon="2.3082150">
        <ele>942.0</ele>
        <time>2019-10-21T11:04:08Z</time>
      </trkpt>
      <trkpt lat="42.1081840" lon="2.3082140">
        <ele>942.0</ele>
        <time>2019-10-21T11:04:09Z</time>
      </trkpt>
      <trkpt lat="42.1081850" lon="2.3082120">
        <ele>942.2</ele>
        <time>2019-10-21T11:04:10Z</time>
      </trkpt>
      <trkpt lat="42.1081860" lon="2.3082110">
        <ele>942.2</ele>
        <time>2019-10-21T11:04:11Z</time>
      </trkpt>
      <trkpt lat="42.1081870" lon="2.3082100">
        <ele>941.6</ele>
        <time>2019-10-21T11:04:12Z</time>
      </trkpt>
      <trkpt lat="42.1081880" lon="2.3082080">
        <ele>942.2</ele>
        <time>2019-10-21T11:04:13Z</time>
      </trkpt>
      <trkpt lat="42.1081890" lon="2.3082070">
        <ele>942.6</ele>
        <time>2019-10-21T11:04:14Z</time>
      </trkpt>
      <trkpt lat="42.1081890" lon="2.3082070">
        <ele>943.4</ele>
        <time>2019-10-21T11:04:15Z</time>
      </trkpt>
      <trkpt lat="42.1081890" lon="2.3082070">
        <ele>943.8</ele>
        <time>2019-10-21T11:04:16Z</time>
      </trkpt>
      <trkpt lat="42.1081890" lon="2.3082070">
        <ele>944.4</ele>
        <time>2019-10-21T11:04:17Z</time>
      </trkpt>
      <trkpt lat="42.1081890" lon="2.3082070">
        <ele>944.6</ele>
        <time>2019-10-21T11:04:18Z</time>
      </trkpt>
      <trkpt lat="42.1081890" lon="2.3082070">
        <ele>945.2</ele>
        <time>2019-10-21T11:04:19Z</time>
      </trkpt>
      <trkpt lat="42.1081860" lon="2.3082030">
        <ele>945.6</ele>
        <time>2019-10-21T11:04:20Z</time>
      </trkpt>
      <trkpt lat="42.1081840" lon="2.3082000">
        <ele>946.0</ele>
        <time>2019-10-21T11:04:21Z</time>
      </trkpt>
      <trkpt lat="42.1081810" lon="2.3081960">
        <ele>946.6</ele>
        <time>2019-10-21T11:04:22Z</time>
      </trkpt>
      <trkpt lat="42.1081780" lon="2.3081930">
        <ele>947.0</ele>
        <time>2019-10-21T11:04:23Z</time>
      </trkpt>
      <trkpt lat="42.1081750" lon="2.3081890">
        <ele>947.4</ele>
        <time>2019-10-21T11:04:24Z</time>
      </trkpt>
      <trkpt lat="42.1081730" lon="2.3081860">
        <ele>947.8</ele>
        <time>2019-10-21T11:04:25Z</time>
      </trkpt>
      <trkpt lat="42.1081700" lon="2.3081820">
        <ele>948.2</ele>
        <time>2019-10-21T11:04:26Z</time>
      </trkpt>
      <trkpt lat="42.1081290" lon="2.3081200">
        <ele>948.6</ele>
        <time>2019-10-21T11:04:27Z</time>
      </trkpt>
      <trkpt lat="42.1081110" lon="2.3080960">
        <ele>948.8</ele>
        <time>2019-10-21T11:04:28Z</time>
      </trkpt>
      <trkpt lat="42.1080940" lon="2.3080720">
        <ele>949.2</ele>
        <time>2019-10-21T11:04:29Z</time>
      </trkpt>
      <trkpt lat="42.1080760" lon="2.3080490">
        <ele>949.6</ele>
        <time>2019-10-21T11:04:30Z</time>
      </trkpt>
      <trkpt lat="42.1080580" lon="2.3080250">
        <ele>950.2</ele>
        <time>2019-10-21T11:04:31Z</time>
      </trkpt>
      <trkpt lat="42.1080400" lon="2.3080010">
        <ele>950.6</ele>
        <time>2019-10-21T11:04:32Z</time>
      </trkpt>
      <trkpt lat="42.1080000" lon="2.3079380">
        <ele>951.0</ele>
        <time>2019-10-21T11:04:33Z</time>
      </trkpt>
      <trkpt lat="42.1079860" lon="2.3079130">
        <ele>951.2</ele>
        <time>2019-10-21T11:04:34Z</time>
      </trkpt>
      <trkpt lat="42.1079730" lon="2.3078890">
        <ele>951.8</ele>
        <time>2019-10-21T11:04:35Z</time>
      </trkpt>
      <trkpt lat="42.1079590" lon="2.3078650">
        <ele>952.4</ele>
        <time>2019-10-21T11:04:36Z</time>
      </trkpt>
      <trkpt lat="42.1079450" lon="2.3078400">
        <ele>952.8</ele>
        <time>2019-10-21T11:04:37Z</time>
      </trkpt>
      <trkpt lat="42.1079310" lon="2.3078160">
        <ele>953.4</ele>
        <time>2019-10-21T11:04:38Z</time>
      </trkpt>
      <trkpt lat="42.1079320" lon="2.3077870">
        <ele>953.6</ele>
        <time>2019-10-21T11:04:39Z</time>
      </trkpt>
      <trkpt lat="42.1079330" lon="2.3077590">
        <ele>954.0</ele>
        <time>2019-10-21T11:04:40Z</time>
      </trkpt>
      <trkpt lat="42.1079350" lon="2.3077300">
        <ele>954.2</ele>
        <time>2019-10-21T11:04:41Z</time>
      </trkpt>
      <trkpt lat="42.1079360" lon="2.3077020">
        <ele>954.6</ele>
        <time>2019-10-21T11:04:42Z</time>
      </trkpt>
      <trkpt lat="42.1079370" lon="2.3076730">
        <ele>954.6</ele>
        <time>2019-10-21T11:04:43Z</time>
      </trkpt>
      <trkpt lat="42.1079370" lon="2.3076730">
        <ele>954.8</ele>
        <time>2019-10-21T11:04:44Z</time>
      </trkpt>
      <trkpt lat="42.1079370" lon="2.3076730">
        <ele>955.0</ele>
        <time>2019-10-21T11:04:45Z</time>
      </trkpt>
      <trkpt lat="42.1079690" lon="2.3075470">
        <ele>955.0</ele>
        <time>2019-10-21T11:04:46Z</time>
      </trkpt>
      <trkpt lat="42.1079690" lon="2.3075470">
        <ele>955.0</ele>
        <time>2019-10-21T11:04:47Z</time>
      </trkpt>
      <trkpt lat="42.1079690" lon="2.3075470">
        <ele>955.2</ele>
        <time>2019-10-21T11:04:48Z</time>
      </trkpt>
      <trkpt lat="42.1080230" lon="2.3074490">
        <ele>955.4</ele>
        <time>2019-10-21T11:04:49Z</time>
      </trkpt>
      <trkpt lat="42.1080230" lon="2.3074490">
        <ele>955.4</ele>
        <time>2019-10-21T11:04:50Z</time>
      </trkpt>
      <trkpt lat="42.1080230" lon="2.3074490">
        <ele>955.4</ele>
        <time>2019-10-21T11:04:51Z</time>
      </trkpt>
      <trkpt lat="42.1080230" lon="2.3074490">
        <ele>955.6</ele>
        <time>2019-10-21T11:04:52Z</time>
      </trkpt>
      <trkpt lat="42.1080660" lon="2.3073240">
        <ele>955.6</ele>
        <time>2019-10-21T11:04:53Z</time>
      </trkpt>
      <trkpt lat="42.1080660" lon="2.3073240">
        <ele>955.4</ele>
        <time>2019-10-21T11:04:54Z</time>
      </trkpt>
      <trkpt lat="42.1080660" lon="2.3073240">
        <ele>955.6</ele>
        <time>2019-10-21T11:04:55Z</time>
      </trkpt>
      <trkpt lat="42.1080660" lon="2.3073240">
        <ele>955.4</ele>
        <time>2019-10-21T11:04:56Z</time>
      </trkpt>
      <trkpt lat="42.1080660" lon="2.3073240">
        <ele>955.4</ele>
        <time>2019-10-21T11:04:57Z</time>
      </trkpt>
      <trkpt lat="42.1080660" lon="2.3073240">
        <ele>955.4</ele>
        <time>2019-10-21T11:04:58Z</time>
      </trkpt>
      <trkpt lat="42.1080580" lon="2.3071990">
        <ele>955.2</ele>
        <time>2019-10-21T11:04:59Z</time>
      </trkpt>
      <trkpt lat="42.1080580" lon="2.3071990">
        <ele>955.2</ele>
        <time>2019-10-21T11:05:00Z</time>
      </trkpt>
      <trkpt lat="42.1080580" lon="2.3071990">
        <ele>955.0</ele>
        <time>2019-10-21T11:05:01Z</time>
      </trkpt>
      <trkpt lat="42.1080580" lon="2.3071990">
        <ele>955.2</ele>
        <time>2019-10-21T11:05:02Z</time>
      </trkpt>
      <trkpt lat="42.1080780" lon="2.3070760">
        <ele>955.2</ele>
        <time>2019-10-21T11:05:03Z</time>
      </trkpt>
      <trkpt lat="42.1080420" lon="2.3069410">
        <ele>955.2</ele>
        <time>2019-10-21T11:05:07Z</time>
      </trkpt>
      <trkpt lat="42.1079520" lon="2.3068420">
        <ele>955.2</ele>
        <time>2019-10-21T11:05:11Z</time>
      </trkpt>
      <trkpt lat="42.1079520" lon="2.3068420">
        <ele>955.2</ele>
        <time>2019-10-21T11:05:12Z</time>
      </trkpt>
      <trkpt lat="42.1079520" lon="2.3068420">
        <ele>955.2</ele>
        <time>2019-10-21T11:05:13Z</time>
      </trkpt>
      <trkpt lat="42.1079520" lon="2.3068420">
        <ele>955.0</ele>
        <time>2019-10-21T11:05:14Z</time>
      </trkpt>
      <trkpt lat="42.1078950" lon="2.3067300">
        <ele>954.6</ele>
        <time>2019-10-21T11:05:15Z</time>
      </trkpt>
      <trkpt lat="42.1078950" lon="2.3067300">
        <ele>954.2</ele>
        <time>2019-10-21T11:05:16Z</time>
      </trkpt>
      <trkpt lat="42.1078950" lon="2.3067300">
        <ele>953.8</ele>
        <time>2019-10-21T11:05:17Z</time>
      </trkpt>
      <trkpt lat="42.1078950" lon="2.3067300">
        <ele>953.6</ele>
        <time>2019-10-21T11:05:18Z</time>
      </trkpt>
      <trkpt lat="42.1078740" lon="2.3066060">
        <ele>953.2</ele>
        <time>2019-10-21T11:05:19Z</time>
      </trkpt>
      <trkpt lat="42.1078740" lon="2.3066060">
        <ele>952.8</ele>
        <time>2019-10-21T11:05:20Z</time>
      </trkpt>
      <trkpt lat="42.1078740" lon="2.3066060">
        <ele>952.2</ele>
        <time>2019-10-21T11:05:21Z</time>
      </trkpt>
      <trkpt lat="42.1079200" lon="2.3064710">
        <ele>951.8</ele>
        <time>2019-10-21T11:05:22Z</time>
      </trkpt>
      <trkpt lat="42.1079200" lon="2.3064710">
        <ele>951.4</ele>
        <time>2019-10-21T11:05:23Z</time>
      </trkpt>
      <trkpt lat="42.1079200" lon="2.3064710">
        <ele>951.2</ele>
        <time>2019-10-21T11:05:24Z</time>
      </trkpt>
      <trkpt lat="42.1079480" lon="2.3064110">
        <ele>950.8</ele>
        <time>2019-10-21T11:05:25Z</time>
      </trkpt>
      <trkpt lat="42.1079760" lon="2.3063500">
        <ele>950.6</ele>
        <time>2019-10-21T11:05:26Z</time>
      </trkpt>
      <trkpt lat="42.1079760" lon="2.3063500">
        <ele>951.0</ele>
        <time>2019-10-21T11:05:27Z</time>
      </trkpt>
      <trkpt lat="42.1079760" lon="2.3063500">
        <ele>950.8</ele>
        <time>2019-10-21T11:05:28Z</time>
      </trkpt>
      <trkpt lat="42.1079830" lon="2.3063120">
        <ele>951.2</ele>
        <time>2019-10-21T11:05:29Z</time>
      </trkpt>
      <trkpt lat="42.1079900" lon="2.3062740">
        <ele>951.2</ele>
        <time>2019-10-21T11:05:30Z</time>
      </trkpt>
      <trkpt lat="42.1079970" lon="2.3062360">
        <ele>951.8</ele>
        <time>2019-10-21T11:05:31Z</time>
      </trkpt>
      <trkpt lat="42.1080040" lon="2.3061980">
        <ele>952.0</ele>
        <time>2019-10-21T11:05:32Z</time>
      </trkpt>
      <trkpt lat="42.1080250" lon="2.3061690">
        <ele>952.2</ele>
        <time>2019-10-21T11:05:33Z</time>
      </trkpt>
      <trkpt lat="42.1080460" lon="2.3061410">
        <ele>952.6</ele>
        <time>2019-10-21T11:05:34Z</time>
      </trkpt>
      <trkpt lat="42.1080670" lon="2.3061120">
        <ele>953.0</ele>
        <time>2019-10-21T11:05:35Z</time>
      </trkpt>
      <trkpt lat="42.1080880" lon="2.3060830">
        <ele>953.0</ele>
        <time>2019-10-21T11:05:36Z</time>
      </trkpt>
      <trkpt lat="42.1081030" lon="2.3060430">
        <ele>953.6</ele>
        <time>2019-10-21T11:05:37Z</time>
      </trkpt>
      <trkpt lat="42.1081190" lon="2.3060030">
        <ele>953.4</ele>
        <time>2019-10-21T11:05:38Z</time>
      </trkpt>
      <trkpt lat="42.1081340" lon="2.3059630">
        <ele>953.8</ele>
        <time>2019-10-21T11:05:39Z</time>
      </trkpt>
      <trkpt lat="42.1081190" lon="2.3059340">
        <ele>953.6</ele>
        <time>2019-10-21T11:05:40Z</time>
      </trkpt>
      <trkpt lat="42.1081040" lon="2.3059040">
        <ele>953.8</ele>
        <time>2019-10-21T11:05:41Z</time>
      </trkpt>
      <trkpt lat="42.1080890" lon="2.3058750">
        <ele>953.8</ele>
        <time>2019-10-21T11:05:42Z</time>
      </trkpt>
      <trkpt lat="42.1080740" lon="2.3058460">
        <ele>953.8</ele>
        <time>2019-10-21T11:05:43Z</time>
      </trkpt>
      <trkpt lat="42.1080740" lon="2.3058460">
        <ele>953.6</ele>
        <time>2019-10-21T11:05:44Z</time>
      </trkpt>
      <trkpt lat="42.1080740" lon="2.3058460">
        <ele>953.6</ele>
        <time>2019-10-21T11:05:45Z</time>
      </trkpt>
      <trkpt lat="42.1080740" lon="2.3058460">
        <ele>954.0</ele>
        <time>2019-10-21T11:05:46Z</time>
      </trkpt>
      <trkpt lat="42.1080740" lon="2.3058460">
        <ele>954.2</ele>
        <time>2019-10-21T11:05:47Z</time>
      </trkpt>
      <trkpt lat="42.1080740" lon="2.3058460">
        <ele>954.4</ele>
        <time>2019-10-21T11:05:48Z</time>
      </trkpt>
      <trkpt lat="42.1080740" lon="2.3058460">
        <ele>955.0</ele>
        <time>2019-10-21T11:05:49Z</time>
      </trkpt>
      <trkpt lat="42.1080530" lon="2.3058410">
        <ele>955.8</ele>
        <time>2019-10-21T11:05:50Z</time>
      </trkpt>
      <trkpt lat="42.1080320" lon="2.3058360">
        <ele>956.0</ele>
        <time>2019-10-21T11:05:51Z</time>
      </trkpt>
      <trkpt lat="42.1080100" lon="2.3058320">
        <ele>957.0</ele>
        <time>2019-10-21T11:05:52Z</time>
      </trkpt>
      <trkpt lat="42.1079890" lon="2.3058270">
        <ele>957.2</ele>
        <time>2019-10-21T11:05:53Z</time>
      </trkpt>
      <trkpt lat="42.1079690" lon="2.3058010">
        <ele>957.6</ele>
        <time>2019-10-21T11:05:54Z</time>
      </trkpt>
      <trkpt lat="42.1079690" lon="2.3058010">
        <ele>957.8</ele>
        <time>2019-10-21T11:05:55Z</time>
      </trkpt>
      <trkpt lat="42.1079690" lon="2.3058010">
        <ele>958.2</ele>
        <time>2019-10-21T11:05:56Z</time>
      </trkpt>
      <trkpt lat="42.1079690" lon="2.3058010">
        <ele>957.8</ele>
        <time>2019-10-21T11:05:57Z</time>
      </trkpt>
      <trkpt lat="42.1079560" lon="2.3057740">
        <ele>957.4</ele>
        <time>2019-10-21T11:05:58Z</time>
      </trkpt>
      <trkpt lat="42.1079440" lon="2.3057480">
        <ele>957.2</ele>
        <time>2019-10-21T11:05:59Z</time>
      </trkpt>
      <trkpt lat="42.1079310" lon="2.3057210">
        <ele>957.4</ele>
        <time>2019-10-21T11:06:00Z</time>
      </trkpt>
      <trkpt lat="42.1079180" lon="2.3056950">
        <ele>957.2</ele>
        <time>2019-10-21T11:06:01Z</time>
      </trkpt>
      <trkpt lat="42.1079020" lon="2.3056630">
        <ele>957.6</ele>
        <time>2019-10-21T11:06:02Z</time>
      </trkpt>
      <trkpt lat="42.1078860" lon="2.3056300">
        <ele>958.6</ele>
        <time>2019-10-21T11:06:03Z</time>
      </trkpt>
      <trkpt lat="42.1078690" lon="2.3055980">
        <ele>958.8</ele>
        <time>2019-10-21T11:06:04Z</time>
      </trkpt>
      <trkpt lat="42.1078530" lon="2.3055660">
        <ele>959.4</ele>
        <time>2019-10-21T11:06:05Z</time>
      </trkpt>
      <trkpt lat="42.1078230" lon="2.3054500">
        <ele>959.8</ele>
        <time>2019-10-21T11:06:06Z</time>
      </trkpt>
      <trkpt lat="42.1078230" lon="2.3054500">
        <ele>960.4</ele>
        <time>2019-10-21T11:06:07Z</time>
      </trkpt>
      <trkpt lat="42.1078230" lon="2.3054500">
        <ele>960.6</ele>
        <time>2019-10-21T11:06:08Z</time>
      </trkpt>
      <trkpt lat="42.1078230" lon="2.3054500">
        <ele>960.6</ele>
        <time>2019-10-21T11:06:09Z</time>
      </trkpt>
      <trkpt lat="42.1078030" lon="2.3053290">
        <ele>961.4</ele>
        <time>2019-10-21T11:06:10Z</time>
      </trkpt>
      <trkpt lat="42.1078030" lon="2.3053290">
        <ele>961.2</ele>
        <time>2019-10-21T11:06:11Z</time>
      </trkpt>
      <trkpt lat="42.1078030" lon="2.3053290">
        <ele>961.8</ele>
        <time>2019-10-21T11:06:12Z</time>
      </trkpt>
      <trkpt lat="42.1077940" lon="2.3052980">
        <ele>961.6</ele>
        <time>2019-10-21T11:06:13Z</time>
      </trkpt>
      <trkpt lat="42.1077850" lon="2.3052670">
        <ele>961.8</ele>
        <time>2019-10-21T11:06:14Z</time>
      </trkpt>
      <trkpt lat="42.1077750" lon="2.3052370">
        <ele>961.8</ele>
        <time>2019-10-21T11:06:15Z</time>
      </trkpt>
      <trkpt lat="42.1077660" lon="2.3052060">
        <ele>962.0</ele>
        <time>2019-10-21T11:06:16Z</time>
      </trkpt>
      <trkpt lat="42.1077510" lon="2.3050530">
        <ele>961.8</ele>
        <time>2019-10-21T11:06:17Z</time>
      </trkpt>
      <trkpt lat="42.1077480" lon="2.3050380">
        <ele>961.8</ele>
        <time>2019-10-21T11:06:18Z</time>
      </trkpt>
      <trkpt lat="42.1077450" lon="2.3050240">
        <ele>961.8</ele>
        <time>2019-10-21T11:06:19Z</time>
      </trkpt>
      <trkpt lat="42.1077420" lon="2.3050090">
        <ele>961.8</ele>
        <time>2019-10-21T11:06:20Z</time>
      </trkpt>
      <trkpt lat="42.1077390" lon="2.3049950">
        <ele>961.2</ele>
        <time>2019-10-21T11:06:21Z</time>
      </trkpt>
      <trkpt lat="42.1077130" lon="2.3048920">
        <ele>961.2</ele>
        <time>2019-10-21T11:06:22Z</time>
      </trkpt>
      <trkpt lat="42.1077040" lon="2.3048600">
        <ele>960.8</ele>
        <time>2019-10-21T11:06:23Z</time>
      </trkpt>
      <trkpt lat="42.1076940" lon="2.3048290">
        <ele>960.8</ele>
        <time>2019-10-21T11:06:24Z</time>
      </trkpt>
      <trkpt lat="42.1076840" lon="2.3047980">
        <ele>960.0</ele>
        <time>2019-10-21T11:06:25Z</time>
      </trkpt>
      <trkpt lat="42.1076760" lon="2.3047600">
        <ele>959.8</ele>
        <time>2019-10-21T11:06:26Z</time>
      </trkpt>
      <trkpt lat="42.1076680" lon="2.3047220">
        <ele>959.2</ele>
        <time>2019-10-21T11:06:27Z</time>
      </trkpt>
      <trkpt lat="42.1076590" lon="2.3046850">
        <ele>958.4</ele>
        <time>2019-10-21T11:06:28Z</time>
      </trkpt>
      <trkpt lat="42.1076510" lon="2.3046470">
        <ele>958.6</ele>
        <time>2019-10-21T11:06:29Z</time>
      </trkpt>
      <trkpt lat="42.1076020" lon="2.3044760">
        <ele>958.8</ele>
        <time>2019-10-21T11:06:30Z</time>
      </trkpt>
      <trkpt lat="42.1075980" lon="2.3044580">
        <ele>959.2</ele>
        <time>2019-10-21T11:06:31Z</time>
      </trkpt>
      <trkpt lat="42.1075930" lon="2.3044410">
        <ele>958.6</ele>
        <time>2019-10-21T11:06:32Z</time>
      </trkpt>
      <trkpt lat="42.1075880" lon="2.3044230">
        <ele>959.0</ele>
        <time>2019-10-21T11:06:33Z</time>
      </trkpt>
      <trkpt lat="42.1075630" lon="2.3043180">
        <ele>958.4</ele>
        <time>2019-10-21T11:06:34Z</time>
      </trkpt>
      <trkpt lat="42.1075570" lon="2.3042850">
        <ele>957.8</ele>
        <time>2019-10-21T11:06:35Z</time>
      </trkpt>
      <trkpt lat="42.1075510" lon="2.3042510">
        <ele>957.4</ele>
        <time>2019-10-21T11:06:36Z</time>
      </trkpt>
      <trkpt lat="42.1075450" lon="2.3042170">
        <ele>957.2</ele>
        <time>2019-10-21T11:06:37Z</time>
      </trkpt>
      <trkpt lat="42.1075390" lon="2.3041840">
        <ele>956.8</ele>
        <time>2019-10-21T11:06:38Z</time>
      </trkpt>
      <trkpt lat="42.1075330" lon="2.3041500">
        <ele>956.6</ele>
        <time>2019-10-21T11:06:39Z</time>
      </trkpt>
      <trkpt lat="42.1075270" lon="2.3041170">
        <ele>956.4</ele>
        <time>2019-10-21T11:06:40Z</time>
      </trkpt>
      <trkpt lat="42.1075210" lon="2.3040830">
        <ele>956.2</ele>
        <time>2019-10-21T11:06:41Z</time>
      </trkpt>
      <trkpt lat="42.1075210" lon="2.3039430">
        <ele>956.2</ele>
        <time>2019-10-21T11:06:42Z</time>
      </trkpt>
      <trkpt lat="42.1075210" lon="2.3039430">
        <ele>955.8</ele>
        <time>2019-10-21T11:06:43Z</time>
      </trkpt>
      <trkpt lat="42.1075210" lon="2.3039430">
        <ele>955.6</ele>
        <time>2019-10-21T11:06:44Z</time>
      </trkpt>
      <trkpt lat="42.1074930" lon="2.3037810">
        <ele>955.6</ele>
        <time>2019-10-21T11:06:45Z</time>
      </trkpt>
      <trkpt lat="42.1074870" lon="2.3037530">
        <ele>955.6</ele>
        <time>2019-10-21T11:06:46Z</time>
      </trkpt>
      <trkpt lat="42.1074820" lon="2.3037240">
        <ele>955.6</ele>
        <time>2019-10-21T11:06:47Z</time>
      </trkpt>
      <trkpt lat="42.1074760" lon="2.3036960">
        <ele>955.6</ele>
        <time>2019-10-21T11:06:48Z</time>
      </trkpt>
      <trkpt lat="42.1074700" lon="2.3036680">
        <ele>955.8</ele>
        <time>2019-10-21T11:06:49Z</time>
      </trkpt>
      <trkpt lat="42.1074660" lon="2.3036520">
        <ele>955.8</ele>
        <time>2019-10-21T11:06:50Z</time>
      </trkpt>
      <trkpt lat="42.1074610" lon="2.3036360">
        <ele>956.0</ele>
        <time>2019-10-21T11:06:51Z</time>
      </trkpt>
      <trkpt lat="42.1074570" lon="2.3036210">
        <ele>956.0</ele>
        <time>2019-10-21T11:06:52Z</time>
      </trkpt>
      <trkpt lat="42.1074520" lon="2.3036050">
        <ele>956.4</ele>
        <time>2019-10-21T11:06:53Z</time>
      </trkpt>
      <trkpt lat="42.1074340" lon="2.3035430">
        <ele>956.6</ele>
        <time>2019-10-21T11:06:54Z</time>
      </trkpt>
      <trkpt lat="42.1074340" lon="2.3035430">
        <ele>956.6</ele>
        <time>2019-10-21T11:06:55Z</time>
      </trkpt>
      <trkpt lat="42.1074340" lon="2.3035430">
        <ele>956.2</ele>
        <time>2019-10-21T11:06:56Z</time>
      </trkpt>
      <trkpt lat="42.1074120" lon="2.3034100">
        <ele>956.2</ele>
        <time>2019-10-21T11:06:57Z</time>
      </trkpt>
      <trkpt lat="42.1074120" lon="2.3034100">
        <ele>956.6</ele>
        <time>2019-10-21T11:06:58Z</time>
      </trkpt>
      <trkpt lat="42.1074120" lon="2.3034100">
        <ele>956.8</ele>
        <time>2019-10-21T11:06:59Z</time>
      </trkpt>
      <trkpt lat="42.1074120" lon="2.3034100">
        <ele>957.6</ele>
        <time>2019-10-21T11:07:00Z</time>
      </trkpt>
      <trkpt lat="42.1073750" lon="2.3032900">
        <ele>957.8</ele>
        <time>2019-10-21T11:07:01Z</time>
      </trkpt>
      <trkpt lat="42.1073750" lon="2.3032900">
        <ele>958.6</ele>
        <time>2019-10-21T11:07:02Z</time>
      </trkpt>
      <trkpt lat="42.1073750" lon="2.3032900">
        <ele>958.8</ele>
        <time>2019-10-21T11:07:03Z</time>
      </trkpt>
      <trkpt lat="42.1073750" lon="2.3032900">
        <ele>959.2</ele>
        <time>2019-10-21T11:07:04Z</time>
      </trkpt>
      <trkpt lat="42.1073280" lon="2.3031460">
        <ele>959.4</ele>
        <time>2019-10-21T11:07:05Z</time>
      </trkpt>
      <trkpt lat="42.1073280" lon="2.3031460">
        <ele>959.8</ele>
        <time>2019-10-21T11:07:06Z</time>
      </trkpt>
      <trkpt lat="42.1073280" lon="2.3031460">
        <ele>959.8</ele>
        <time>2019-10-21T11:07:07Z</time>
      </trkpt>
      <trkpt lat="42.1072580" lon="2.3030300">
        <ele>960.2</ele>
        <time>2019-10-21T11:07:08Z</time>
      </trkpt>
      <trkpt lat="42.1072480" lon="2.3030210">
        <ele>960.2</ele>
        <time>2019-10-21T11:07:09Z</time>
      </trkpt>
      <trkpt lat="42.1072370" lon="2.3030110">
        <ele>960.4</ele>
        <time>2019-10-21T11:07:10Z</time>
      </trkpt>
      <trkpt lat="42.1072270" lon="2.3030020">
        <ele>960.4</ele>
        <time>2019-10-21T11:07:11Z</time>
      </trkpt>
      <trkpt lat="42.1071850" lon="2.3029650">
        <ele>960.6</ele>
        <time>2019-10-21T11:07:12Z</time>
      </trkpt>
      <trkpt lat="42.1071850" lon="2.3029650">
        <ele>960.8</ele>
        <time>2019-10-21T11:07:13Z</time>
      </trkpt>
      <trkpt lat="42.1071850" lon="2.3029650">
        <ele>961.2</ele>
        <time>2019-10-21T11:07:14Z</time>
      </trkpt>
      <trkpt lat="42.1071680" lon="2.3029530">
        <ele>961.2</ele>
        <time>2019-10-21T11:07:15Z</time>
      </trkpt>
      <trkpt lat="42.1071520" lon="2.3029420">
        <ele>961.6</ele>
        <time>2019-10-21T11:07:16Z</time>
      </trkpt>
      <trkpt lat="42.1071350" lon="2.3029300">
        <ele>961.8</ele>
        <time>2019-10-21T11:07:17Z</time>
      </trkpt>
      <trkpt lat="42.1070850" lon="2.3028960">
        <ele>961.4</ele>
        <time>2019-10-21T11:07:18Z</time>
      </trkpt>
      <trkpt lat="42.1070850" lon="2.3028960">
        <ele>961.6</ele>
        <time>2019-10-21T11:07:19Z</time>
      </trkpt>
      <trkpt lat="42.1070850" lon="2.3028960">
        <ele>962.0</ele>
        <time>2019-10-21T11:07:20Z</time>
      </trkpt>
      <trkpt lat="42.1070650" lon="2.3028590">
        <ele>962.2</ele>
        <time>2019-10-21T11:07:21Z</time>
      </trkpt>
      <trkpt lat="42.1070450" lon="2.3028220">
        <ele>961.4</ele>
        <time>2019-10-21T11:07:22Z</time>
      </trkpt>
      <trkpt lat="42.1070250" lon="2.3027850">
        <ele>962.4</ele>
        <time>2019-10-21T11:07:23Z</time>
      </trkpt>
      <trkpt lat="42.1070190" lon="2.3027610">
        <ele>962.4</ele>
        <time>2019-10-21T11:07:24Z</time>
      </trkpt>
      <trkpt lat="42.1070140" lon="2.3027360">
        <ele>963.2</ele>
        <time>2019-10-21T11:07:25Z</time>
      </trkpt>
      <trkpt lat="42.1070080" lon="2.3027120">
        <ele>963.0</ele>
        <time>2019-10-21T11:07:26Z</time>
      </trkpt>
      <trkpt lat="42.1069910" lon="2.3026400">
        <ele>963.6</ele>
        <time>2019-10-21T11:07:27Z</time>
      </trkpt>
      <trkpt lat="42.1069910" lon="2.3026400">
        <ele>963.8</ele>
        <time>2019-10-21T11:07:28Z</time>
      </trkpt>
      <trkpt lat="42.1069910" lon="2.3026400">
        <ele>964.4</ele>
        <time>2019-10-21T11:07:29Z</time>
      </trkpt>
      <trkpt lat="42.1069290" lon="2.3025120">
        <ele>964.4</ele>
        <time>2019-10-21T11:07:30Z</time>
      </trkpt>
      <trkpt lat="42.1069290" lon="2.3025120">
        <ele>964.6</ele>
        <time>2019-10-21T11:07:31Z</time>
      </trkpt>
      <trkpt lat="42.1069290" lon="2.3025120">
        <ele>964.8</ele>
        <time>2019-10-21T11:07:32Z</time>
      </trkpt>
      <trkpt lat="42.1069100" lon="2.3024650">
        <ele>965.0</ele>
        <time>2019-10-21T11:07:33Z</time>
      </trkpt>
      <trkpt lat="42.1068910" lon="2.3024190">
        <ele>964.6</ele>
        <time>2019-10-21T11:07:34Z</time>
      </trkpt>
      <trkpt lat="42.1068720" lon="2.3023720">
        <ele>964.4</ele>
        <time>2019-10-21T11:07:35Z</time>
      </trkpt>
      <trkpt lat="42.1068630" lon="2.3023220">
        <ele>964.2</ele>
        <time>2019-10-21T11:07:36Z</time>
      </trkpt>
      <trkpt lat="42.1068540" lon="2.3022730">
        <ele>964.4</ele>
        <time>2019-10-21T11:07:37Z</time>
      </trkpt>
      <trkpt lat="42.1068440" lon="2.3022230">
        <ele>964.4</ele>
        <time>2019-10-21T11:07:38Z</time>
      </trkpt>
      <trkpt lat="42.1068350" lon="2.3021740">
        <ele>964.4</ele>
        <time>2019-10-21T11:07:39Z</time>
      </trkpt>
      <trkpt lat="42.1068350" lon="2.3021040">
        <ele>964.4</ele>
        <time>2019-10-21T11:07:40Z</time>
      </trkpt>
      <trkpt lat="42.1068350" lon="2.3021040">
        <ele>964.6</ele>
        <time>2019-10-21T11:07:41Z</time>
      </trkpt>
      <trkpt lat="42.1068350" lon="2.3021040">
        <ele>964.4</ele>
        <time>2019-10-21T11:07:42Z</time>
      </trkpt>
      <trkpt lat="42.1068350" lon="2.3021040">
        <ele>964.2</ele>
        <time>2019-10-21T11:07:43Z</time>
      </trkpt>
      <trkpt lat="42.1068560" lon="2.3019290">
        <ele>964.8</ele>
        <time>2019-10-21T11:07:44Z</time>
      </trkpt>
      <trkpt lat="42.1068570" lon="2.3018940">
        <ele>965.2</ele>
        <time>2019-10-21T11:07:45Z</time>
      </trkpt>
      <trkpt lat="42.1068590" lon="2.3018580">
        <ele>966.2</ele>
        <time>2019-10-21T11:07:46Z</time>
      </trkpt>
      <trkpt lat="42.1068600" lon="2.3018230">
        <ele>966.4</ele>
        <time>2019-10-21T11:07:47Z</time>
      </trkpt>
      <trkpt lat="42.1068660" lon="2.3017880">
        <ele>967.4</ele>
        <time>2019-10-21T11:07:48Z</time>
      </trkpt>
      <trkpt lat="42.1068710" lon="2.3017530">
        <ele>967.8</ele>
        <time>2019-10-21T11:07:49Z</time>
      </trkpt>
      <trkpt lat="42.1068770" lon="2.3017180">
        <ele>968.2</ele>
        <time>2019-10-21T11:07:50Z</time>
      </trkpt>
      <trkpt lat="42.1068820" lon="2.3016830">
        <ele>968.4</ele>
        <time>2019-10-21T11:07:51Z</time>
      </trkpt>
      <trkpt lat="42.1068790" lon="2.3016290">
        <ele>968.8</ele>
        <time>2019-10-21T11:07:52Z</time>
      </trkpt>
      <trkpt lat="42.1068750" lon="2.3015750">
        <ele>968.8</ele>
        <time>2019-10-21T11:07:53Z</time>
      </trkpt>
      <trkpt lat="42.1068720" lon="2.3015210">
        <ele>968.6</ele>
        <time>2019-10-21T11:07:54Z</time>
      </trkpt>
      <trkpt lat="42.1068680" lon="2.3014670">
        <ele>969.0</ele>
        <time>2019-10-21T11:07:55Z</time>
      </trkpt>
      <trkpt lat="42.1068560" lon="2.3014000">
        <ele>969.0</ele>
        <time>2019-10-21T11:07:56Z</time>
      </trkpt>
      <trkpt lat="42.1068560" lon="2.3014000">
        <ele>969.6</ele>
        <time>2019-10-21T11:07:57Z</time>
      </trkpt>
      <trkpt lat="42.1068560" lon="2.3014000">
        <ele>969.8</ele>
        <time>2019-10-21T11:07:58Z</time>
      </trkpt>
      <trkpt lat="42.1068360" lon="2.3013740">
        <ele>970.4</ele>
        <time>2019-10-21T11:07:59Z</time>
      </trkpt>
      <trkpt lat="42.1068150" lon="2.3013480">
        <ele>970.4</ele>
        <time>2019-10-21T11:08:00Z</time>
      </trkpt>
      <trkpt lat="42.1067950" lon="2.3013230">
        <ele>971.0</ele>
        <time>2019-10-21T11:08:01Z</time>
      </trkpt>
      <trkpt lat="42.1067740" lon="2.3012970">
        <ele>971.6</ele>
        <time>2019-10-21T11:08:02Z</time>
      </trkpt>
      <trkpt lat="42.1067620" lon="2.3012720">
        <ele>972.4</ele>
        <time>2019-10-21T11:08:03Z</time>
      </trkpt>
      <trkpt lat="42.1067510" lon="2.3012470">
        <ele>972.6</ele>
        <time>2019-10-21T11:08:04Z</time>
      </trkpt>
      <trkpt lat="42.1067390" lon="2.3012230">
        <ele>973.2</ele>
        <time>2019-10-21T11:08:05Z</time>
      </trkpt>
      <trkpt lat="42.1067280" lon="2.3011980">
        <ele>973.0</ele>
        <time>2019-10-21T11:08:06Z</time>
      </trkpt>
      <trkpt lat="42.1067160" lon="2.3011730">
        <ele>973.6</ele>
        <time>2019-10-21T11:08:07Z</time>
      </trkpt>
      <trkpt lat="42.1067150" lon="2.3011450">
        <ele>974.0</ele>
        <time>2019-10-21T11:08:08Z</time>
      </trkpt>
      <trkpt lat="42.1067130" lon="2.3011180">
        <ele>974.2</ele>
        <time>2019-10-21T11:08:09Z</time>
      </trkpt>
      <trkpt lat="42.1067120" lon="2.3010900">
        <ele>974.4</ele>
        <time>2019-10-21T11:08:10Z</time>
      </trkpt>
      <trkpt lat="42.1067100" lon="2.3010630">
        <ele>974.8</ele>
        <time>2019-10-21T11:08:11Z</time>
      </trkpt>
      <trkpt lat="42.1067090" lon="2.3010350">
        <ele>975.0</ele>
        <time>2019-10-21T11:08:12Z</time>
      </trkpt>
      <trkpt lat="42.1067080" lon="2.3010260">
        <ele>975.4</ele>
        <time>2019-10-21T11:08:13Z</time>
      </trkpt>
      <trkpt lat="42.1067060" lon="2.3010180">
        <ele>975.4</ele>
        <time>2019-10-21T11:08:14Z</time>
      </trkpt>
      <trkpt lat="42.1067050" lon="2.3010090">
        <ele>975.6</ele>
        <time>2019-10-21T11:08:15Z</time>
      </trkpt>
      <trkpt lat="42.1067030" lon="2.3010010">
        <ele>975.4</ele>
        <time>2019-10-21T11:08:16Z</time>
      </trkpt>
      <trkpt lat="42.1066980" lon="2.3009840">
        <ele>975.0</ele>
        <time>2019-10-21T11:08:17Z</time>
      </trkpt>
      <trkpt lat="42.1066930" lon="2.3009670">
        <ele>974.8</ele>
        <time>2019-10-21T11:08:18Z</time>
      </trkpt>
      <trkpt lat="42.1066880" lon="2.3009510">
        <ele>974.8</ele>
        <time>2019-10-21T11:08:19Z</time>
      </trkpt>
      <trkpt lat="42.1066830" lon="2.3009340">
        <ele>975.6</ele>
        <time>2019-10-21T11:08:20Z</time>
      </trkpt>
      <trkpt lat="42.1066720" lon="2.3008960">
        <ele>975.6</ele>
        <time>2019-10-21T11:08:21Z</time>
      </trkpt>
      <trkpt lat="42.1066720" lon="2.3008890">
        <ele>976.2</ele>
        <time>2019-10-21T11:08:22Z</time>
      </trkpt>
      <trkpt lat="42.1066710" lon="2.3008830">
        <ele>976.2</ele>
        <time>2019-10-21T11:08:23Z</time>
      </trkpt>
      <trkpt lat="42.1066710" lon="2.3008760">
        <ele>977.0</ele>
        <time>2019-10-21T11:08:24Z</time>
      </trkpt>
      <trkpt lat="42.1066520" lon="2.3008330">
        <ele>977.0</ele>
        <time>2019-10-21T11:08:25Z</time>
      </trkpt>
      <trkpt lat="42.1066320" lon="2.3007900">
        <ele>978.0</ele>
        <time>2019-10-21T11:08:26Z</time>
      </trkpt>
      <trkpt lat="42.1066130" lon="2.3007470">
        <ele>978.0</ele>
        <time>2019-10-21T11:08:27Z</time>
      </trkpt>
      <trkpt lat="42.1065960" lon="2.3007040">
        <ele>978.6</ele>
        <time>2019-10-21T11:08:28Z</time>
      </trkpt>
      <trkpt lat="42.1065790" lon="2.3006610">
        <ele>978.6</ele>
        <time>2019-10-21T11:08:29Z</time>
      </trkpt>
      <trkpt lat="42.1065620" lon="2.3006180">
        <ele>978.8</ele>
        <time>2019-10-21T11:08:30Z</time>
      </trkpt>
      <trkpt lat="42.1065510" lon="2.3005880">
        <ele>978.8</ele>
        <time>2019-10-21T11:08:31Z</time>
      </trkpt>
      <trkpt lat="42.1065410" lon="2.3005590">
        <ele>979.2</ele>
        <time>2019-10-21T11:08:32Z</time>
      </trkpt>
      <trkpt lat="42.1065300" lon="2.3005290">
        <ele>979.2</ele>
        <time>2019-10-21T11:08:33Z</time>
      </trkpt>
      <trkpt lat="42.1065190" lon="2.3005000">
        <ele>979.0</ele>
        <time>2019-10-21T11:08:34Z</time>
      </trkpt>
      <trkpt lat="42.1065120" lon="2.3004770">
        <ele>978.6</ele>
        <time>2019-10-21T11:08:35Z</time>
      </trkpt>
      <trkpt lat="42.1065040" lon="2.3004550">
        <ele>978.4</ele>
        <time>2019-10-21T11:08:36Z</time>
      </trkpt>
      <trkpt lat="42.1064970" lon="2.3004320">
        <ele>979.4</ele>
        <time>2019-10-21T11:08:37Z</time>
      </trkpt>
      <trkpt lat="42.1064640" lon="2.3003480">
        <ele>979.4</ele>
        <time>2019-10-21T11:08:38Z</time>
      </trkpt>
      <trkpt lat="42.1064540" lon="2.3003310">
        <ele>980.4</ele>
        <time>2019-10-21T11:08:39Z</time>
      </trkpt>
      <trkpt lat="42.1064440" lon="2.3003140">
        <ele>980.8</ele>
        <time>2019-10-21T11:08:40Z</time>
      </trkpt>
      <trkpt lat="42.1064050" lon="2.3002450">
        <ele>981.4</ele>
        <time>2019-10-21T11:08:41Z</time>
      </trkpt>
      <trkpt lat="42.1063950" lon="2.3002280">
        <ele>981.6</ele>
        <time>2019-10-21T11:08:42Z</time>
      </trkpt>
      <trkpt lat="42.1063860" lon="2.3002100">
        <ele>982.0</ele>
        <time>2019-10-21T11:08:43Z</time>
      </trkpt>
      <trkpt lat="42.1063570" lon="2.3001570">
        <ele>982.0</ele>
        <time>2019-10-21T11:08:44Z</time>
      </trkpt>
      <trkpt lat="42.1063570" lon="2.3001570">
        <ele>982.2</ele>
        <time>2019-10-21T11:08:45Z</time>
      </trkpt>
      <trkpt lat="42.1063570" lon="2.3001570">
        <ele>982.0</ele>
        <time>2019-10-21T11:08:46Z</time>
      </trkpt>
      <trkpt lat="42.1062880" lon="2.3000400">
        <ele>982.0</ele>
        <time>2019-10-21T11:08:47Z</time>
      </trkpt>
      <trkpt lat="42.1062820" lon="2.3000250">
        <ele>982.0</ele>
        <time>2019-10-21T11:08:48Z</time>
      </trkpt>
      <trkpt lat="42.1062770" lon="2.3000110">
        <ele>982.0</ele>
        <time>2019-10-21T11:08:49Z</time>
      </trkpt>
      <trkpt lat="42.1062710" lon="2.2999960">
        <ele>982.0</ele>
        <time>2019-10-21T11:08:50Z</time>
      </trkpt>
      <trkpt lat="42.1062320" lon="2.2999000">
        <ele>982.2</ele>
        <time>2019-10-21T11:08:51Z</time>
      </trkpt>
      <trkpt lat="42.1062150" lon="2.2998620">
        <ele>982.8</ele>
        <time>2019-10-21T11:08:52Z</time>
      </trkpt>
      <trkpt lat="42.1061990" lon="2.2998230">
        <ele>983.2</ele>
        <time>2019-10-21T11:08:53Z</time>
      </trkpt>
      <trkpt lat="42.1061820" lon="2.2997850">
        <ele>983.6</ele>
        <time>2019-10-21T11:08:54Z</time>
      </trkpt>
      <trkpt lat="42.1061650" lon="2.2997470">
        <ele>983.6</ele>
        <time>2019-10-21T11:08:55Z</time>
      </trkpt>
      <trkpt lat="42.1061330" lon="2.2996980">
        <ele>984.2</ele>
        <time>2019-10-21T11:08:56Z</time>
      </trkpt>
      <trkpt lat="42.1061330" lon="2.2996980">
        <ele>984.8</ele>
        <time>2019-10-21T11:08:57Z</time>
      </trkpt>
      <trkpt lat="42.1061330" lon="2.2996980">
        <ele>985.2</ele>
        <time>2019-10-21T11:08:58Z</time>
      </trkpt>
      <trkpt lat="42.1061330" lon="2.2996980">
        <ele>985.6</ele>
        <time>2019-10-21T11:08:59Z</time>
      </trkpt>
      <trkpt lat="42.1061330" lon="2.2996980">
        <ele>985.8</ele>
        <time>2019-10-21T11:09:00Z</time>
      </trkpt>
      <trkpt lat="42.1061330" lon="2.2996980">
        <ele>986.2</ele>
        <time>2019-10-21T11:09:01Z</time>
      </trkpt>
      <trkpt lat="42.1061330" lon="2.2996980">
        <ele>986.4</ele>
        <time>2019-10-21T11:09:02Z</time>
      </trkpt>
      <trkpt lat="42.1061580" lon="2.2998190">
        <ele>986.6</ele>
        <time>2019-10-21T11:09:03Z</time>
      </trkpt>
      <trkpt lat="42.1061580" lon="2.2998190">
        <ele>986.8</ele>
        <time>2019-10-21T11:09:04Z</time>
      </trkpt>
      <trkpt lat="42.1061580" lon="2.2998190">
        <ele>987.0</ele>
        <time>2019-10-21T11:09:05Z</time>
      </trkpt>
      <trkpt lat="42.1061580" lon="2.2998190">
        <ele>987.0</ele>
        <time>2019-10-21T11:09:06Z</time>
      </trkpt>
      <trkpt lat="42.1061580" lon="2.2998190">
        <ele>986.8</ele>
        <time>2019-10-21T11:09:07Z</time>
      </trkpt>
      <trkpt lat="42.1061580" lon="2.2998190">
        <ele>987.0</ele>
        <time>2019-10-21T11:09:08Z</time>
      </trkpt>
      <trkpt lat="42.1061680" lon="2.2998640">
        <ele>986.8</ele>
        <time>2019-10-21T11:09:09Z</time>
      </trkpt>
      <trkpt lat="42.1061790" lon="2.2999090">
        <ele>987.2</ele>
        <time>2019-10-21T11:09:10Z</time>
      </trkpt>
      <trkpt lat="42.1061890" lon="2.2999540">
        <ele>987.2</ele>
        <time>2019-10-21T11:09:11Z</time>
      </trkpt>
      <trkpt lat="42.1061890" lon="2.2999540">
        <ele>987.8</ele>
        <time>2019-10-21T11:09:12Z</time>
      </trkpt>
      <trkpt lat="42.1061850" lon="2.2999820">
        <ele>988.0</ele>
        <time>2019-10-21T11:09:13Z</time>
      </trkpt>
      <trkpt lat="42.1061820" lon="2.3000110">
        <ele>988.2</ele>
        <time>2019-10-21T11:09:14Z</time>
      </trkpt>
      <trkpt lat="42.1061780" lon="2.3000390">
        <ele>988.2</ele>
        <time>2019-10-21T11:09:15Z</time>
      </trkpt>
      <trkpt lat="42.1061750" lon="2.3000680">
        <ele>988.2</ele>
        <time>2019-10-21T11:09:16Z</time>
      </trkpt>
      <trkpt lat="42.1061710" lon="2.3000960">
        <ele>988.0</ele>
        <time>2019-10-21T11:09:17Z</time>
      </trkpt>
      <trkpt lat="42.1061440" lon="2.3001200">
        <ele>988.0</ele>
        <time>2019-10-21T11:09:18Z</time>
      </trkpt>
      <trkpt lat="42.1061180" lon="2.3001450">
        <ele>988.0</ele>
        <time>2019-10-21T11:09:19Z</time>
      </trkpt>
      <trkpt lat="42.1060910" lon="2.3001690">
        <ele>987.6</ele>
        <time>2019-10-21T11:09:20Z</time>
      </trkpt>
      <trkpt lat="42.1060910" lon="2.3001690">
        <ele>987.2</ele>
        <time>2019-10-21T11:09:21Z</time>
      </trkpt>
      <trkpt lat="42.1060910" lon="2.3001690">
        <ele>986.6</ele>
        <time>2019-10-21T11:09:22Z</time>
      </trkpt>
      <trkpt lat="42.1060910" lon="2.3001690">
        <ele>987.2</ele>
        <time>2019-10-21T11:09:23Z</time>
      </trkpt>
      <trkpt lat="42.1060660" lon="2.3001760">
        <ele>987.2</ele>
        <time>2019-10-21T11:09:24Z</time>
      </trkpt>
      <trkpt lat="42.1060410" lon="2.3001820">
        <ele>988.0</ele>
        <time>2019-10-21T11:09:25Z</time>
      </trkpt>
      <trkpt lat="42.1060150" lon="2.3001890">
        <ele>988.0</ele>
        <time>2019-10-21T11:09:26Z</time>
      </trkpt>
      <trkpt lat="42.1059900" lon="2.3001950">
        <ele>988.6</ele>
        <time>2019-10-21T11:09:27Z</time>
      </trkpt>
      <trkpt lat="42.1059900" lon="2.3001950">
        <ele>988.8</ele>
        <time>2019-10-21T11:09:28Z</time>
      </trkpt>
      <trkpt lat="42.1059900" lon="2.3001950">
        <ele>989.4</ele>
        <time>2019-10-21T11:09:29Z</time>
      </trkpt>
      <trkpt lat="42.1059900" lon="2.3001950">
        <ele>989.6</ele>
        <time>2019-10-21T11:09:30Z</time>
      </trkpt>
      <trkpt lat="42.1059900" lon="2.3001950">
        <ele>990.2</ele>
        <time>2019-10-21T11:09:31Z</time>
      </trkpt>
      <trkpt lat="42.1059090" lon="2.3001140">
        <ele>990.2</ele>
        <time>2019-10-21T11:09:32Z</time>
      </trkpt>
      <trkpt lat="42.1059090" lon="2.3001140">
        <ele>990.8</ele>
        <time>2019-10-21T11:09:33Z</time>
      </trkpt>
      <trkpt lat="42.1059090" lon="2.3001140">
        <ele>991.0</ele>
        <time>2019-10-21T11:09:34Z</time>
      </trkpt>
      <trkpt lat="42.1058970" lon="2.3000730">
        <ele>991.6</ele>
        <time>2019-10-21T11:09:35Z</time>
      </trkpt>
      <trkpt lat="42.1058840" lon="2.3000320">
        <ele>991.6</ele>
        <time>2019-10-21T11:09:36Z</time>
      </trkpt>
      <trkpt lat="42.1058720" lon="2.2999910">
        <ele>991.8</ele>
        <time>2019-10-21T11:09:37Z</time>
      </trkpt>
      <trkpt lat="42.1058720" lon="2.2999910">
        <ele>992.2</ele>
        <time>2019-10-21T11:09:38Z</time>
      </trkpt>
      <trkpt lat="42.1058720" lon="2.2999910">
        <ele>992.4</ele>
        <time>2019-10-21T11:09:39Z</time>
      </trkpt>
      <trkpt lat="42.1058720" lon="2.2999910">
        <ele>992.4</ele>
        <time>2019-10-21T11:09:40Z</time>
      </trkpt>
      <trkpt lat="42.1058090" lon="2.2998960">
        <ele>992.4</ele>
        <time>2019-10-21T11:09:41Z</time>
      </trkpt>
      <trkpt lat="42.1058090" lon="2.2998960">
        <ele>991.4</ele>
        <time>2019-10-21T11:09:42Z</time>
      </trkpt>
      <trkpt lat="42.1058090" lon="2.2998960">
        <ele>991.2</ele>
        <time>2019-10-21T11:09:43Z</time>
      </trkpt>
      <trkpt lat="42.1057910" lon="2.2998570">
        <ele>991.6</ele>
        <time>2019-10-21T11:09:44Z</time>
      </trkpt>
      <trkpt lat="42.1057720" lon="2.2998180">
        <ele>991.0</ele>
        <time>2019-10-21T11:09:45Z</time>
      </trkpt>
      <trkpt lat="42.1057540" lon="2.2997790">
        <ele>991.2</ele>
        <time>2019-10-21T11:09:46Z</time>
      </trkpt>
      <trkpt lat="42.1057520" lon="2.2997610">
        <ele>991.0</ele>
        <time>2019-10-21T11:09:47Z</time>
      </trkpt>
      <trkpt lat="42.1057500" lon="2.2997420">
        <ele>991.4</ele>
        <time>2019-10-21T11:09:48Z</time>
      </trkpt>
      <trkpt lat="42.1057480" lon="2.2997240">
        <ele>991.2</ele>
        <time>2019-10-21T11:09:49Z</time>
      </trkpt>
      <trkpt lat="42.1057470" lon="2.2997060">
        <ele>991.4</ele>
        <time>2019-10-21T11:09:50Z</time>
      </trkpt>
      <trkpt lat="42.1057450" lon="2.2996880">
        <ele>991.2</ele>
        <time>2019-10-21T11:09:51Z</time>
      </trkpt>
      <trkpt lat="42.1057430" lon="2.2996690">
        <ele>992.0</ele>
        <time>2019-10-21T11:09:52Z</time>
      </trkpt>
      <trkpt lat="42.1057410" lon="2.2996510">
        <ele>992.2</ele>
        <time>2019-10-21T11:09:53Z</time>
      </trkpt>
      <trkpt lat="42.1057250" lon="2.2995290">
        <ele>992.6</ele>
        <time>2019-10-21T11:09:54Z</time>
      </trkpt>
      <trkpt lat="42.1057250" lon="2.2995290">
        <ele>992.6</ele>
        <time>2019-10-21T11:09:55Z</time>
      </trkpt>
      <trkpt lat="42.1057250" lon="2.2995290">
        <ele>992.8</ele>
        <time>2019-10-21T11:09:56Z</time>
      </trkpt>
      <trkpt lat="42.1057250" lon="2.2995290">
        <ele>992.8</ele>
        <time>2019-10-21T11:09:57Z</time>
      </trkpt>
      <trkpt lat="42.1057250" lon="2.2995290">
        <ele>993.0</ele>
        <time>2019-10-21T11:09:58Z</time>
      </trkpt>
      <trkpt lat="42.1057250" lon="2.2995290">
        <ele>993.8</ele>
        <time>2019-10-21T11:09:59Z</time>
      </trkpt>
      <trkpt lat="42.1057250" lon="2.2995290">
        <ele>994.4</ele>
        <time>2019-10-21T11:10:01Z</time>
      </trkpt>
      <trkpt lat="42.1057160" lon="2.2993860">
        <ele>994.6</ele>
        <time>2019-10-21T11:10:02Z</time>
      </trkpt>
      <trkpt lat="42.1057160" lon="2.2993860">
        <ele>994.8</ele>
        <time>2019-10-21T11:10:03Z</time>
      </trkpt>
      <trkpt lat="42.1057160" lon="2.2993860">
        <ele>995.4</ele>
        <time>2019-10-21T11:10:04Z</time>
      </trkpt>
      <trkpt lat="42.1057160" lon="2.2993860">
        <ele>995.8</ele>
        <time>2019-10-21T11:10:05Z</time>
      </trkpt>
      <trkpt lat="42.1057060" lon="2.2993550">
        <ele>996.2</ele>
        <time>2019-10-21T11:10:06Z</time>
      </trkpt>
      <trkpt lat="42.1056950" lon="2.2993230">
        <ele>996.6</ele>
        <time>2019-10-21T11:10:07Z</time>
      </trkpt>
      <trkpt lat="42.1056850" lon="2.2992920">
        <ele>997.0</ele>
        <time>2019-10-21T11:10:08Z</time>
      </trkpt>
      <trkpt lat="42.1056740" lon="2.2992610">
        <ele>997.6</ele>
        <time>2019-10-21T11:10:09Z</time>
      </trkpt>
      <trkpt lat="42.1056740" lon="2.2992410">
        <ele>998.2</ele>
        <time>2019-10-21T11:10:10Z</time>
      </trkpt>
      <trkpt lat="42.1056730" lon="2.2992210">
        <ele>998.6</ele>
        <time>2019-10-21T11:10:11Z</time>
      </trkpt>
      <trkpt lat="42.1056730" lon="2.2992000">
        <ele>999.0</ele>
        <time>2019-10-21T11:10:12Z</time>
      </trkpt>
      <trkpt lat="42.1056730" lon="2.2991800">
        <ele>999.4</ele>
        <time>2019-10-21T11:10:13Z</time>
      </trkpt>
      <trkpt lat="42.1056720" lon="2.2991600">
        <ele>1000.0</ele>
        <time>2019-10-21T11:10:14Z</time>
      </trkpt>
      <trkpt lat="42.1056720" lon="2.2991400">
        <ele>1000.2</ele>
        <time>2019-10-21T11:10:15Z</time>
      </trkpt>
      <trkpt lat="42.1056720" lon="2.2991400">
        <ele>1000.8</ele>
        <time>2019-10-21T11:10:16Z</time>
      </trkpt>
      <trkpt lat="42.1056720" lon="2.2991400">
        <ele>1001.4</ele>
        <time>2019-10-21T11:10:17Z</time>
      </trkpt>
      <trkpt lat="42.1056720" lon="2.2991400">
        <ele>1001.6</ele>
        <time>2019-10-21T11:10:18Z</time>
      </trkpt>
      <trkpt lat="42.1056720" lon="2.2991400">
        <ele>1001.8</ele>
        <time>2019-10-21T11:10:19Z</time>
      </trkpt>
      <trkpt lat="42.1056720" lon="2.2991400">
        <ele>1002.2</ele>
        <time>2019-10-21T11:10:20Z</time>
      </trkpt>
      <trkpt lat="42.1056720" lon="2.2991400">
        <ele>1002.6</ele>
        <time>2019-10-21T11:10:21Z</time>
      </trkpt>
      <trkpt lat="42.1056720" lon="2.2991400">
        <ele>1002.8</ele>
        <time>2019-10-21T11:10:22Z</time>
      </trkpt>
      <trkpt lat="42.1056850" lon="2.2991610">
        <ele>1003.6</ele>
        <time>2019-10-21T11:10:23Z</time>
      </trkpt>
      <trkpt lat="42.1056980" lon="2.2991820">
        <ele>1004.2</ele>
        <time>2019-10-21T11:10:24Z</time>
      </trkpt>
      <trkpt lat="42.1057100" lon="2.2992020">
        <ele>1004.6</ele>
        <time>2019-10-21T11:10:25Z</time>
      </trkpt>
      <trkpt lat="42.1057230" lon="2.2992230">
        <ele>1005.0</ele>
        <time>2019-10-21T11:10:26Z</time>
      </trkpt>
      <trkpt lat="42.1057360" lon="2.2992440">
        <ele>1004.8</ele>
        <time>2019-10-21T11:10:27Z</time>
      </trkpt>
      <trkpt lat="42.1057480" lon="2.2992750">
        <ele>1005.6</ele>
        <time>2019-10-21T11:10:28Z</time>
      </trkpt>
      <trkpt lat="42.1057600" lon="2.2993060">
        <ele>1005.8</ele>
        <time>2019-10-21T11:10:29Z</time>
      </trkpt>
      <trkpt lat="42.1057710" lon="2.2993370">
        <ele>1006.4</ele>
        <time>2019-10-21T11:10:30Z</time>
      </trkpt>
      <trkpt lat="42.1057830" lon="2.2993680">
        <ele>1006.6</ele>
        <time>2019-10-21T11:10:31Z</time>
      </trkpt>
      <trkpt lat="42.1057870" lon="2.2995320">
        <ele>1006.6</ele>
        <time>2019-10-21T11:10:32Z</time>
      </trkpt>
      <trkpt lat="42.1057900" lon="2.2995670">
        <ele>1006.8</ele>
        <time>2019-10-21T11:10:33Z</time>
      </trkpt>
      <trkpt lat="42.1057940" lon="2.2996020">
        <ele>1007.0</ele>
        <time>2019-10-21T11:10:34Z</time>
      </trkpt>
      <trkpt lat="42.1057970" lon="2.2996370">
        <ele>1007.6</ele>
        <time>2019-10-21T11:10:35Z</time>
      </trkpt>
      <trkpt lat="42.1058080" lon="2.2996670">
        <ele>1008.0</ele>
        <time>2019-10-21T11:10:36Z</time>
      </trkpt>
      <trkpt lat="42.1058190" lon="2.2996960">
        <ele>1008.2</ele>
        <time>2019-10-21T11:10:37Z</time>
      </trkpt>
      <trkpt lat="42.1058300" lon="2.2997260">
        <ele>1008.2</ele>
        <time>2019-10-21T11:10:38Z</time>
      </trkpt>
      <trkpt lat="42.1058410" lon="2.2997550">
        <ele>1008.2</ele>
        <time>2019-10-21T11:10:39Z</time>
      </trkpt>
      <trkpt lat="42.1058520" lon="2.2997850">
        <ele>1009.2</ele>
        <time>2019-10-21T11:10:40Z</time>
      </trkpt>
      <trkpt lat="42.1058680" lon="2.2998160">
        <ele>1009.6</ele>
        <time>2019-10-21T11:10:41Z</time>
      </trkpt>
      <trkpt lat="42.1058840" lon="2.2998470">
        <ele>1010.2</ele>
        <time>2019-10-21T11:10:42Z</time>
      </trkpt>
      <trkpt lat="42.1059000" lon="2.2998790">
        <ele>1010.4</ele>
        <time>2019-10-21T11:10:43Z</time>
      </trkpt>
      <trkpt lat="42.1059160" lon="2.2999100">
        <ele>1010.4</ele>
        <time>2019-10-21T11:10:44Z</time>
      </trkpt>
      <trkpt lat="42.1059570" lon="2.3000410">
        <ele>1011.0</ele>
        <time>2019-10-21T11:10:45Z</time>
      </trkpt>
      <trkpt lat="42.1059640" lon="2.3000440">
        <ele>1011.6</ele>
        <time>2019-10-21T11:10:46Z</time>
      </trkpt>
      <trkpt lat="42.1059710" lon="2.3000480">
        <ele>1011.4</ele>
        <time>2019-10-21T11:10:47Z</time>
      </trkpt>
      <trkpt lat="42.1059790" lon="2.3000510">
        <ele>1012.2</ele>
        <time>2019-10-21T11:10:48Z</time>
      </trkpt>
      <trkpt lat="42.1059860" lon="2.3000550">
        <ele>1012.8</ele>
        <time>2019-10-21T11:10:50Z</time>
      </trkpt>
      <trkpt lat="42.1059930" lon="2.3000580">
        <ele>1013.0</ele>
        <time>2019-10-21T11:10:51Z</time>
      </trkpt>
      <trkpt lat="42.1060000" lon="2.3000620">
        <ele>1012.8</ele>
        <time>2019-10-21T11:10:52Z</time>
      </trkpt>
      <trkpt lat="42.1060600" lon="2.3000740">
        <ele>1013.6</ele>
        <time>2019-10-21T11:10:53Z</time>
      </trkpt>
      <trkpt lat="42.1060710" lon="2.3000610">
        <ele>1013.8</ele>
        <time>2019-10-21T11:10:54Z</time>
      </trkpt>
      <trkpt lat="42.1060830" lon="2.3000470">
        <ele>1014.2</ele>
        <time>2019-10-21T11:10:55Z</time>
      </trkpt>
      <trkpt lat="42.1060940" lon="2.3000330">
        <ele>1014.4</ele>
        <time>2019-10-21T11:10:56Z</time>
      </trkpt>
      <trkpt lat="42.1061050" lon="2.3000200">
        <ele>1014.4</ele>
        <time>2019-10-21T11:10:57Z</time>
      </trkpt>
      <trkpt lat="42.1061160" lon="2.3000060">
        <ele>1015.0</ele>
        <time>2019-10-21T11:10:58Z</time>
      </trkpt>
      <trkpt lat="42.1061190" lon="2.2999770">
        <ele>1015.2</ele>
        <time>2019-10-21T11:10:59Z</time>
      </trkpt>
      <trkpt lat="42.1061210" lon="2.2999480">
        <ele>1016.0</ele>
        <time>2019-10-21T11:11:00Z</time>
      </trkpt>
      <trkpt lat="42.1061240" lon="2.2999200">
        <ele>1016.2</ele>
        <time>2019-10-21T11:11:01Z</time>
      </trkpt>
      <trkpt lat="42.1061260" lon="2.2998910">
        <ele>1016.4</ele>
        <time>2019-10-21T11:11:02Z</time>
      </trkpt>
      <trkpt lat="42.1061290" lon="2.2998620">
        <ele>1016.4</ele>
        <time>2019-10-21T11:11:03Z</time>
      </trkpt>
      <trkpt lat="42.1061430" lon="2.2998570">
        <ele>1017.0</ele>
        <time>2019-10-21T11:11:04Z</time>
      </trkpt>
      <trkpt lat="42.1061580" lon="2.2998520">
        <ele>1017.2</ele>
        <time>2019-10-21T11:11:05Z</time>
      </trkpt>
      <trkpt lat="42.1061720" lon="2.2998470">
        <ele>1017.6</ele>
        <time>2019-10-21T11:11:06Z</time>
      </trkpt>
      <trkpt lat="42.1061860" lon="2.2998420">
        <ele>1017.6</ele>
        <time>2019-10-21T11:11:07Z</time>
      </trkpt>
      <trkpt lat="42.1062000" lon="2.2998370">
        <ele>1017.6</ele>
        <time>2019-10-21T11:11:08Z</time>
      </trkpt>
      <trkpt lat="42.1062150" lon="2.2998320">
        <ele>1017.6</ele>
        <time>2019-10-21T11:11:09Z</time>
      </trkpt>
      <trkpt lat="42.1062290" lon="2.2998270">
        <ele>1017.6</ele>
        <time>2019-10-21T11:11:10Z</time>
      </trkpt>
      <trkpt lat="42.1062430" lon="2.2998220">
        <ele>1017.0</ele>
        <time>2019-10-21T11:11:11Z</time>
      </trkpt>
      <trkpt lat="42.1062570" lon="2.2998170">
        <ele>1016.8</ele>
        <time>2019-10-21T11:11:12Z</time>
      </trkpt>
      <trkpt lat="42.1062720" lon="2.2998120">
        <ele>1017.2</ele>
        <time>2019-10-21T11:11:13Z</time>
      </trkpt>
      <trkpt lat="42.1062860" lon="2.2998070">
        <ele>1016.6</ele>
        <time>2019-10-21T11:11:14Z</time>
      </trkpt>
      <trkpt lat="42.1063000" lon="2.2998020">
        <ele>1016.8</ele>
        <time>2019-10-21T11:11:15Z</time>
      </trkpt>
      <trkpt lat="42.1063440" lon="2.2999000">
        <ele>1016.0</ele>
        <time>2019-10-21T11:11:16Z</time>
      </trkpt>
      <trkpt lat="42.1063570" lon="2.2999290">
        <ele>1015.6</ele>
        <time>2019-10-21T11:11:17Z</time>
      </trkpt>
      <trkpt lat="42.1063690" lon="2.2999570">
        <ele>1015.2</ele>
        <time>2019-10-21T11:11:18Z</time>
      </trkpt>
      <trkpt lat="42.1063820" lon="2.2999860">
        <ele>1014.4</ele>
        <time>2019-10-21T11:11:19Z</time>
      </trkpt>
      <trkpt lat="42.1063820" lon="2.2999860">
        <ele>1014.6</ele>
        <time>2019-10-21T11:11:20Z</time>
      </trkpt>
      <trkpt lat="42.1063820" lon="2.2999860">
        <ele>1013.8</ele>
        <time>2019-10-21T11:11:21Z</time>
      </trkpt>
      <trkpt lat="42.1063820" lon="2.2999860">
        <ele>1014.0</ele>
        <time>2019-10-21T11:11:22Z</time>
      </trkpt>
      <trkpt lat="42.1064120" lon="2.3001100">
        <ele>1013.2</ele>
        <time>2019-10-21T11:11:23Z</time>
      </trkpt>
      <trkpt lat="42.1064120" lon="2.3001100">
        <ele>1012.8</ele>
        <time>2019-10-21T11:11:24Z</time>
      </trkpt>
      <trkpt lat="42.1064120" lon="2.3001100">
        <ele>1011.8</ele>
        <time>2019-10-21T11:11:25Z</time>
      </trkpt>
      <trkpt lat="42.1064540" lon="2.3002510">
        <ele>1011.4</ele>
        <time>2019-10-21T11:11:26Z</time>
      </trkpt>
      <trkpt lat="42.1064610" lon="2.3002710">
        <ele>1010.4</ele>
        <time>2019-10-21T11:11:27Z</time>
      </trkpt>
      <trkpt lat="42.1064670" lon="2.3002920">
        <ele>1010.0</ele>
        <time>2019-10-21T11:11:28Z</time>
      </trkpt>
      <trkpt lat="42.1064730" lon="2.3003130">
        <ele>1009.6</ele>
        <time>2019-10-21T11:11:29Z</time>
      </trkpt>
      <trkpt lat="42.1065180" lon="2.3004560">
        <ele>1009.4</ele>
        <time>2019-10-21T11:11:30Z</time>
      </trkpt>
      <trkpt lat="42.1065370" lon="2.3005150">
        <ele>1009.0</ele>
        <time>2019-10-21T11:11:31Z</time>
      </trkpt>
      <trkpt lat="42.1065570" lon="2.3005750">
        <ele>1008.2</ele>
        <time>2019-10-21T11:11:32Z</time>
      </trkpt>
      <trkpt lat="42.1065920" lon="2.3006690">
        <ele>1008.6</ele>
        <time>2019-10-21T11:11:33Z</time>
      </trkpt>
      <trkpt lat="42.1066060" lon="2.3007070">
        <ele>1008.0</ele>
        <time>2019-10-21T11:11:34Z</time>
      </trkpt>
      <trkpt lat="42.1066210" lon="2.3007440">
        <ele>1007.2</ele>
        <time>2019-10-21T11:11:35Z</time>
      </trkpt>
      <trkpt lat="42.1066360" lon="2.3007870">
        <ele>1006.6</ele>
        <time>2019-10-21T11:11:36Z</time>
      </trkpt>
      <trkpt lat="42.1066510" lon="2.3008310">
        <ele>1006.0</ele>
        <time>2019-10-21T11:11:37Z</time>
      </trkpt>
      <trkpt lat="42.1066660" lon="2.3008740">
        <ele>1005.6</ele>
        <time>2019-10-21T11:11:38Z</time>
      </trkpt>
      <trkpt lat="42.1066810" lon="2.3009180">
        <ele>1005.0</ele>
        <time>2019-10-21T11:11:39Z</time>
      </trkpt>
      <trkpt lat="42.1066960" lon="2.3009610">
        <ele>1004.6</ele>
        <time>2019-10-21T11:11:40Z</time>
      </trkpt>
      <trkpt lat="42.1067110" lon="2.3010050">
        <ele>1003.6</ele>
        <time>2019-10-21T11:11:41Z</time>
      </trkpt>
      <trkpt lat="42.1067260" lon="2.3010480">
        <ele>1003.2</ele>
        <time>2019-10-21T11:11:42Z</time>
      </trkpt>
      <trkpt lat="42.1067620" lon="2.3011530">
        <ele>1002.8</ele>
        <time>2019-10-21T11:11:43Z</time>
      </trkpt>
      <trkpt lat="42.1067730" lon="2.3011800">
        <ele>1001.8</ele>
        <time>2019-10-21T11:11:44Z</time>
      </trkpt>
      <trkpt lat="42.1067840" lon="2.3012080">
        <ele>1001.6</ele>
        <time>2019-10-21T11:11:45Z</time>
      </trkpt>
      <trkpt lat="42.1067950" lon="2.3012350">
        <ele>1000.4</ele>
        <time>2019-10-21T11:11:46Z</time>
      </trkpt>
      <trkpt lat="42.1068060" lon="2.3012620">
        <ele>1000.0</ele>
        <time>2019-10-21T11:11:47Z</time>
      </trkpt>
      <trkpt lat="42.1068210" lon="2.3012950">
        <ele>999.2</ele>
        <time>2019-10-21T11:11:48Z</time>
      </trkpt>
      <trkpt lat="42.1068360" lon="2.3013270">
        <ele>998.8</ele>
        <time>2019-10-21T11:11:49Z</time>
      </trkpt>
      <trkpt lat="42.1068520" lon="2.3013600">
        <ele>997.8</ele>
        <time>2019-10-21T11:11:50Z</time>
      </trkpt>
      <trkpt lat="42.1068670" lon="2.3013920">
        <ele>997.6</ele>
        <time>2019-10-21T11:11:51Z</time>
      </trkpt>
      <trkpt lat="42.1068820" lon="2.3014250">
        <ele>996.8</ele>
        <time>2019-10-21T11:11:52Z</time>
      </trkpt>
      <trkpt lat="42.1068960" lon="2.3015160">
        <ele>996.8</ele>
        <time>2019-10-21T11:11:53Z</time>
      </trkpt>
      <trkpt lat="42.1068960" lon="2.3015360">
        <ele>995.8</ele>
        <time>2019-10-21T11:11:54Z</time>
      </trkpt>
      <trkpt lat="42.1068950" lon="2.3015550">
        <ele>995.6</ele>
        <time>2019-10-21T11:11:55Z</time>
      </trkpt>
      <trkpt lat="42.1068940" lon="2.3015740">
        <ele>995.0</ele>
        <time>2019-10-21T11:11:56Z</time>
      </trkpt>
      <trkpt lat="42.1068890" lon="2.3016780">
        <ele>995.0</ele>
        <time>2019-10-21T11:11:57Z</time>
      </trkpt>
      <trkpt lat="42.1068870" lon="2.3017070">
        <ele>994.0</ele>
        <time>2019-10-21T11:11:58Z</time>
      </trkpt>
      <trkpt lat="42.1068860" lon="2.3017350">
        <ele>994.0</ele>
        <time>2019-10-21T11:11:59Z</time>
      </trkpt>
      <trkpt lat="42.1068840" lon="2.3017640">
        <ele>992.8</ele>
        <time>2019-10-21T11:12:00Z</time>
      </trkpt>
      <trkpt lat="42.1068820" lon="2.3017920">
        <ele>992.2</ele>
        <time>2019-10-21T11:12:01Z</time>
      </trkpt>
      <trkpt lat="42.1068790" lon="2.3019460">
        <ele>992.0</ele>
        <time>2019-10-21T11:12:02Z</time>
      </trkpt>
      <trkpt lat="42.1068840" lon="2.3019650">
        <ele>993.2</ele>
        <time>2019-10-21T11:12:03Z</time>
      </trkpt>
      <trkpt lat="42.1068880" lon="2.3019850">
        <ele>993.2</ele>
        <time>2019-10-21T11:12:04Z</time>
      </trkpt>
      <trkpt lat="42.1068920" lon="2.3020040">
        <ele>994.2</ele>
        <time>2019-10-21T11:12:05Z</time>
      </trkpt>
      <trkpt lat="42.1069190" lon="2.3021170">
        <ele>994.2</ele>
        <time>2019-10-21T11:12:06Z</time>
      </trkpt>
      <trkpt lat="42.1069280" lon="2.3021540">
        <ele>994.8</ele>
        <time>2019-10-21T11:12:07Z</time>
      </trkpt>
      <trkpt lat="42.1069380" lon="2.3021900">
        <ele>994.2</ele>
        <time>2019-10-21T11:12:08Z</time>
      </trkpt>
      <trkpt lat="42.1069470" lon="2.3022270">
        <ele>994.6</ele>
        <time>2019-10-21T11:12:09Z</time>
      </trkpt>
      <trkpt lat="42.1070010" lon="2.3023690">
        <ele>994.0</ele>
        <time>2019-10-21T11:12:10Z</time>
      </trkpt>
      <trkpt lat="42.1070160" lon="2.3024020">
        <ele>994.4</ele>
        <time>2019-10-21T11:12:11Z</time>
      </trkpt>
      <trkpt lat="42.1070310" lon="2.3024350">
        <ele>993.6</ele>
        <time>2019-10-21T11:12:12Z</time>
      </trkpt>
      <trkpt lat="42.1070460" lon="2.3024680">
        <ele>994.0</ele>
        <time>2019-10-21T11:12:13Z</time>
      </trkpt>
      <trkpt lat="42.1070630" lon="2.3025140">
        <ele>993.6</ele>
        <time>2019-10-21T11:12:14Z</time>
      </trkpt>
      <trkpt lat="42.1070800" lon="2.3025610">
        <ele>993.0</ele>
        <time>2019-10-21T11:12:15Z</time>
      </trkpt>
      <trkpt lat="42.1070970" lon="2.3026070">
        <ele>992.8</ele>
        <time>2019-10-21T11:12:16Z</time>
      </trkpt>
      <trkpt lat="42.1071180" lon="2.3026600">
        <ele>992.4</ele>
        <time>2019-10-21T11:12:17Z</time>
      </trkpt>
      <trkpt lat="42.1071400" lon="2.3027130">
        <ele>992.2</ele>
        <time>2019-10-21T11:12:18Z</time>
      </trkpt>
      <trkpt lat="42.1071610" lon="2.3027660">
        <ele>991.2</ele>
        <time>2019-10-21T11:12:19Z</time>
      </trkpt>
      <trkpt lat="42.1071870" lon="2.3028250">
        <ele>991.4</ele>
        <time>2019-10-21T11:12:20Z</time>
      </trkpt>
      <trkpt lat="42.1072120" lon="2.3028850">
        <ele>991.2</ele>
        <time>2019-10-21T11:12:21Z</time>
      </trkpt>
      <trkpt lat="42.1072120" lon="2.3028850">
        <ele>991.6</ele>
        <time>2019-10-21T11:12:22Z</time>
      </trkpt>
      <trkpt lat="42.1072120" lon="2.3028850">
        <ele>991.6</ele>
        <time>2019-10-21T11:12:23Z</time>
      </trkpt>
      <trkpt lat="42.1073100" lon="2.3028970">
        <ele>991.8</ele>
        <time>2019-10-21T11:12:24Z</time>
      </trkpt>
      <trkpt lat="42.1073100" lon="2.3028970">
        <ele>991.4</ele>
        <time>2019-10-21T11:12:25Z</time>
      </trkpt>
      <trkpt lat="42.1073600" lon="2.3029500">
        <ele>991.8</ele>
        <time>2019-10-21T11:12:26Z</time>
      </trkpt>
      <trkpt lat="42.1074090" lon="2.3030040">
        <ele>991.6</ele>
        <time>2019-10-21T11:12:27Z</time>
      </trkpt>
      <trkpt lat="42.1074090" lon="2.3030040">
        <ele>991.6</ele>
        <time>2019-10-21T11:12:28Z</time>
      </trkpt>
      <trkpt lat="42.1074090" lon="2.3030040">
        <ele>991.0</ele>
        <time>2019-10-21T11:12:29Z</time>
      </trkpt>
      <trkpt lat="42.1074820" lon="2.3031740">
        <ele>991.2</ele>
        <time>2019-10-21T11:12:30Z</time>
      </trkpt>
      <trkpt lat="42.1074890" lon="2.3031930">
        <ele>990.8</ele>
        <time>2019-10-21T11:12:31Z</time>
      </trkpt>
      <trkpt lat="42.1074950" lon="2.3032130">
        <ele>991.0</ele>
        <time>2019-10-21T11:12:32Z</time>
      </trkpt>
      <trkpt lat="42.1075220" lon="2.3033060">
        <ele>989.8</ele>
        <time>2019-10-21T11:12:33Z</time>
      </trkpt>
      <trkpt lat="42.1075300" lon="2.3033400">
        <ele>989.4</ele>
        <time>2019-10-21T11:12:34Z</time>
      </trkpt>
      <trkpt lat="42.1075370" lon="2.3033750">
        <ele>989.0</ele>
        <time>2019-10-21T11:12:35Z</time>
      </trkpt>
      <trkpt lat="42.1075450" lon="2.3034090">
        <ele>988.4</ele>
        <time>2019-10-21T11:12:36Z</time>
      </trkpt>
      <trkpt lat="42.1075540" lon="2.3034430">
        <ele>988.4</ele>
        <time>2019-10-21T11:12:37Z</time>
      </trkpt>
      <trkpt lat="42.1075630" lon="2.3034770">
        <ele>987.6</ele>
        <time>2019-10-21T11:12:38Z</time>
      </trkpt>
      <trkpt lat="42.1075720" lon="2.3035110">
        <ele>987.8</ele>
        <time>2019-10-21T11:12:39Z</time>
      </trkpt>
      <trkpt lat="42.1075810" lon="2.3035450">
        <ele>987.0</ele>
        <time>2019-10-21T11:12:40Z</time>
      </trkpt>
      <trkpt lat="42.1076070" lon="2.3037300">
        <ele>987.0</ele>
        <time>2019-10-21T11:12:41Z</time>
      </trkpt>
      <trkpt lat="42.1076060" lon="2.3037550">
        <ele>986.4</ele>
        <time>2019-10-21T11:12:42Z</time>
      </trkpt>
      <trkpt lat="42.1076040" lon="2.3037810">
        <ele>986.6</ele>
        <time>2019-10-21T11:12:43Z</time>
      </trkpt>
      <trkpt lat="42.1075970" lon="2.3038830">
        <ele>986.0</ele>
        <time>2019-10-21T11:12:44Z</time>
      </trkpt>
      <trkpt lat="42.1075960" lon="2.3039090">
        <ele>986.2</ele>
        <time>2019-10-21T11:12:45Z</time>
      </trkpt>
      <trkpt lat="42.1075940" lon="2.3039350">
        <ele>985.8</ele>
        <time>2019-10-21T11:12:46Z</time>
      </trkpt>
      <trkpt lat="42.1075870" lon="2.3040400">
        <ele>986.2</ele>
        <time>2019-10-21T11:12:47Z</time>
      </trkpt>
      <trkpt lat="42.1075860" lon="2.3040680">
        <ele>985.6</ele>
        <time>2019-10-21T11:12:48Z</time>
      </trkpt>
      <trkpt lat="42.1075850" lon="2.3040960">
        <ele>986.0</ele>
        <time>2019-10-21T11:12:49Z</time>
      </trkpt>
      <trkpt lat="42.1075930" lon="2.3042210">
        <ele>985.4</ele>
        <time>2019-10-21T11:12:50Z</time>
      </trkpt>
      <trkpt lat="42.1076040" lon="2.3042620">
        <ele>985.8</ele>
        <time>2019-10-21T11:12:51Z</time>
      </trkpt>
      <trkpt lat="42.1076150" lon="2.3043040">
        <ele>984.8</ele>
        <time>2019-10-21T11:12:52Z</time>
      </trkpt>
      <trkpt lat="42.1076220" lon="2.3043250">
        <ele>985.0</ele>
        <time>2019-10-21T11:12:53Z</time>
      </trkpt>
      <trkpt lat="42.1076290" lon="2.3043450">
        <ele>984.6</ele>
        <time>2019-10-21T11:12:54Z</time>
      </trkpt>
      <trkpt lat="42.1076360" lon="2.3043660">
        <ele>984.8</ele>
        <time>2019-10-21T11:12:55Z</time>
      </trkpt>
      <trkpt lat="42.1076610" lon="2.3044510">
        <ele>984.2</ele>
        <time>2019-10-21T11:12:56Z</time>
      </trkpt>
      <trkpt lat="42.1076650" lon="2.3044730">
        <ele>984.2</ele>
        <time>2019-10-21T11:12:57Z</time>
      </trkpt>
      <trkpt lat="42.1076700" lon="2.3044960">
        <ele>983.6</ele>
        <time>2019-10-21T11:12:58Z</time>
      </trkpt>
      <trkpt lat="42.1076840" lon="2.3045650">
        <ele>982.8</ele>
        <time>2019-10-21T11:12:59Z</time>
      </trkpt>
      <trkpt lat="42.1076840" lon="2.3045650">
        <ele>982.8</ele>
        <time>2019-10-21T11:13:00Z</time>
      </trkpt>
      <trkpt lat="42.1077230" lon="2.3047110">
        <ele>982.4</ele>
        <time>2019-10-21T11:13:01Z</time>
      </trkpt>
      <trkpt lat="42.1077290" lon="2.3047340">
        <ele>982.4</ele>
        <time>2019-10-21T11:13:02Z</time>
      </trkpt>
      <trkpt lat="42.1077340" lon="2.3047570">
        <ele>981.6</ele>
        <time>2019-10-21T11:13:03Z</time>
      </trkpt>
      <trkpt lat="42.1077500" lon="2.3048260">
        <ele>982.0</ele>
        <time>2019-10-21T11:13:04Z</time>
      </trkpt>
      <trkpt lat="42.1077500" lon="2.3048260">
        <ele>981.2</ele>
        <time>2019-10-21T11:13:05Z</time>
      </trkpt>
      <trkpt lat="42.1077580" lon="2.3048750">
        <ele>981.8</ele>
        <time>2019-10-21T11:13:06Z</time>
      </trkpt>
      <trkpt lat="42.1077660" lon="2.3049250">
        <ele>981.0</ele>
        <time>2019-10-21T11:13:07Z</time>
      </trkpt>
      <trkpt lat="42.1077740" lon="2.3049740">
        <ele>981.0</ele>
        <time>2019-10-21T11:13:08Z</time>
      </trkpt>
      <trkpt lat="42.1077860" lon="2.3050180">
        <ele>980.6</ele>
        <time>2019-10-21T11:13:09Z</time>
      </trkpt>
      <trkpt lat="42.1077970" lon="2.3050630">
        <ele>980.6</ele>
        <time>2019-10-21T11:13:10Z</time>
      </trkpt>
      <trkpt lat="42.1078090" lon="2.3051070">
        <ele>980.6</ele>
        <time>2019-10-21T11:13:11Z</time>
      </trkpt>
      <trkpt lat="42.1078150" lon="2.3051560">
        <ele>980.0</ele>
        <time>2019-10-21T11:13:12Z</time>
      </trkpt>
      <trkpt lat="42.1078220" lon="2.3052050">
        <ele>980.0</ele>
        <time>2019-10-21T11:13:13Z</time>
      </trkpt>
      <trkpt lat="42.1078280" lon="2.3052540">
        <ele>979.4</ele>
        <time>2019-10-21T11:13:14Z</time>
      </trkpt>
      <trkpt lat="42.1078340" lon="2.3053130">
        <ele>978.8</ele>
        <time>2019-10-21T11:13:15Z</time>
      </trkpt>
      <trkpt lat="42.1078410" lon="2.3053710">
        <ele>978.4</ele>
        <time>2019-10-21T11:13:16Z</time>
      </trkpt>
      <trkpt lat="42.1078470" lon="2.3054300">
        <ele>977.6</ele>
        <time>2019-10-21T11:13:17Z</time>
      </trkpt>
      <trkpt lat="42.1078520" lon="2.3054820">
        <ele>977.6</ele>
        <time>2019-10-21T11:13:18Z</time>
      </trkpt>
      <trkpt lat="42.1078580" lon="2.3055340">
        <ele>976.2</ele>
        <time>2019-10-21T11:13:19Z</time>
      </trkpt>
      <trkpt lat="42.1078630" lon="2.3055860">
        <ele>976.2</ele>
        <time>2019-10-21T11:13:20Z</time>
      </trkpt>
      <trkpt lat="42.1078630" lon="2.3055860">
        <ele>975.2</ele>
        <time>2019-10-21T11:13:21Z</time>
      </trkpt>
      <trkpt lat="42.1078630" lon="2.3055860">
        <ele>975.4</ele>
        <time>2019-10-21T11:13:22Z</time>
      </trkpt>
      <trkpt lat="42.1078830" lon="2.3056190">
        <ele>974.6</ele>
        <time>2019-10-21T11:13:23Z</time>
      </trkpt>
      <trkpt lat="42.1079040" lon="2.3056510">
        <ele>974.4</ele>
        <time>2019-10-21T11:13:24Z</time>
      </trkpt>
      <trkpt lat="42.1079240" lon="2.3056840">
        <ele>973.8</ele>
        <time>2019-10-21T11:13:25Z</time>
      </trkpt>
      <trkpt lat="42.1079410" lon="2.3056820">
        <ele>973.8</ele>
        <time>2019-10-21T11:13:26Z</time>
      </trkpt>
      <trkpt lat="42.1079590" lon="2.3056790">
        <ele>972.8</ele>
        <time>2019-10-21T11:13:27Z</time>
      </trkpt>
      <trkpt lat="42.1079760" lon="2.3056770">
        <ele>972.8</ele>
        <time>2019-10-21T11:13:28Z</time>
      </trkpt>
      <trkpt lat="42.1080270" lon="2.3056690">
        <ele>972.4</ele>
        <time>2019-10-21T11:13:29Z</time>
      </trkpt>
      <trkpt lat="42.1080270" lon="2.3056690">
        <ele>971.4</ele>
        <time>2019-10-21T11:13:30Z</time>
      </trkpt>
      <trkpt lat="42.1080270" lon="2.3056690">
        <ele>970.8</ele>
        <time>2019-10-21T11:13:31Z</time>
      </trkpt>
      <trkpt lat="42.1080330" lon="2.3056920">
        <ele>970.6</ele>
        <time>2019-10-21T11:13:32Z</time>
      </trkpt>
      <trkpt lat="42.1080380" lon="2.3057140">
        <ele>970.6</ele>
        <time>2019-10-21T11:13:33Z</time>
      </trkpt>
      <trkpt lat="42.1080440" lon="2.3057370">
        <ele>970.4</ele>
        <time>2019-10-21T11:13:34Z</time>
      </trkpt>
      <trkpt lat="42.1080540" lon="2.3058250">
        <ele>970.6</ele>
        <time>2019-10-21T11:13:35Z</time>
      </trkpt>
      <trkpt lat="42.1080490" lon="2.3058460">
        <ele>970.4</ele>
        <time>2019-10-21T11:13:36Z</time>
      </trkpt>
      <trkpt lat="42.1080430" lon="2.3058660">
        <ele>970.6</ele>
        <time>2019-10-21T11:13:37Z</time>
      </trkpt>
      <trkpt lat="42.1080170" lon="2.3059490">
        <ele>970.4</ele>
        <time>2019-10-21T11:13:38Z</time>
      </trkpt>
      <trkpt lat="42.1080090" lon="2.3059720">
        <ele>970.6</ele>
        <time>2019-10-21T11:13:39Z</time>
      </trkpt>
      <trkpt lat="42.1080010" lon="2.3059950">
        <ele>970.2</ele>
        <time>2019-10-21T11:13:40Z</time>
      </trkpt>
      <trkpt lat="42.1079760" lon="2.3060630">
        <ele>970.6</ele>
        <time>2019-10-21T11:13:41Z</time>
      </trkpt>
      <trkpt lat="42.1079760" lon="2.3060630">
        <ele>970.0</ele>
        <time>2019-10-21T11:13:42Z</time>
      </trkpt>
      <trkpt lat="42.1079760" lon="2.3060630">
        <ele>970.4</ele>
        <time>2019-10-21T11:13:43Z</time>
      </trkpt>
      <trkpt lat="42.1079760" lon="2.3060630">
        <ele>969.8</ele>
        <time>2019-10-21T11:13:44Z</time>
      </trkpt>
      <trkpt lat="42.1079760" lon="2.3060630">
        <ele>970.4</ele>
        <time>2019-10-21T11:13:45Z</time>
      </trkpt>
      <trkpt lat="42.1079630" lon="2.3062070">
        <ele>969.8</ele>
        <time>2019-10-21T11:13:46Z</time>
      </trkpt>
      <trkpt lat="42.1079630" lon="2.3062070">
        <ele>970.0</ele>
        <time>2019-10-21T11:13:47Z</time>
      </trkpt>
      <trkpt lat="42.1079630" lon="2.3062070">
        <ele>969.4</ele>
        <time>2019-10-21T11:13:48Z</time>
      </trkpt>
      <trkpt lat="42.1079430" lon="2.3062460">
        <ele>969.8</ele>
        <time>2019-10-21T11:13:49Z</time>
      </trkpt>
      <trkpt lat="42.1079230" lon="2.3062840">
        <ele>969.0</ele>
        <time>2019-10-21T11:13:50Z</time>
      </trkpt>
      <trkpt lat="42.1079030" lon="2.3063230">
        <ele>969.2</ele>
        <time>2019-10-21T11:13:51Z</time>
      </trkpt>
      <trkpt lat="42.1078970" lon="2.3063660">
        <ele>968.4</ele>
        <time>2019-10-21T11:13:52Z</time>
      </trkpt>
      <trkpt lat="42.1078910" lon="2.3064100">
        <ele>968.8</ele>
        <time>2019-10-21T11:13:53Z</time>
      </trkpt>
      <trkpt lat="42.1078850" lon="2.3064530">
        <ele>967.8</ele>
        <time>2019-10-21T11:13:54Z</time>
      </trkpt>
      <trkpt lat="42.1078880" lon="2.3064730">
        <ele>968.0</ele>
        <time>2019-10-21T11:13:55Z</time>
      </trkpt>
      <trkpt lat="42.1078920" lon="2.3064940">
        <ele>967.0</ele>
        <time>2019-10-21T11:13:56Z</time>
      </trkpt>
      <trkpt lat="42.1078950" lon="2.3065140">
        <ele>967.4</ele>
        <time>2019-10-21T11:13:57Z</time>
      </trkpt>
      <trkpt lat="42.1079160" lon="2.3065920">
        <ele>966.8</ele>
        <time>2019-10-21T11:13:58Z</time>
      </trkpt>
      <trkpt lat="42.1079280" lon="2.3066080">
        <ele>967.0</ele>
        <time>2019-10-21T11:13:59Z</time>
      </trkpt>
      <trkpt lat="42.1079400" lon="2.3066240">
        <ele>966.4</ele>
        <time>2019-10-21T11:14:00Z</time>
      </trkpt>
      <trkpt lat="42.1079760" lon="2.3066720">
        <ele>966.6</ele>
        <time>2019-10-21T11:14:01Z</time>
      </trkpt>
      <trkpt lat="42.1079760" lon="2.3066720">
        <ele>965.6</ele>
        <time>2019-10-21T11:14:02Z</time>
      </trkpt>
      <trkpt lat="42.1079760" lon="2.3066720">
        <ele>965.8</ele>
        <time>2019-10-21T11:14:03Z</time>
      </trkpt>
      <trkpt lat="42.1079940" lon="2.3067160">
        <ele>964.6</ele>
        <time>2019-10-21T11:14:04Z</time>
      </trkpt>
      <trkpt lat="42.1080120" lon="2.3067610">
        <ele>964.4</ele>
        <time>2019-10-21T11:14:05Z</time>
      </trkpt>
      <trkpt lat="42.1080300" lon="2.3068050">
        <ele>963.2</ele>
        <time>2019-10-21T11:14:06Z</time>
      </trkpt>
      <trkpt lat="42.1080330" lon="2.3068460">
        <ele>963.6</ele>
        <time>2019-10-21T11:14:07Z</time>
      </trkpt>
      <trkpt lat="42.1080350" lon="2.3068880">
        <ele>962.4</ele>
        <time>2019-10-21T11:14:08Z</time>
      </trkpt>
      <trkpt lat="42.1080380" lon="2.3069290">
        <ele>962.8</ele>
        <time>2019-10-21T11:14:09Z</time>
      </trkpt>
      <trkpt lat="42.1080440" lon="2.3069570">
        <ele>962.2</ele>
        <time>2019-10-21T11:14:10Z</time>
      </trkpt>
      <trkpt lat="42.1080510" lon="2.3069860">
        <ele>962.0</ele>
        <time>2019-10-21T11:14:11Z</time>
      </trkpt>
      <trkpt lat="42.1080570" lon="2.3070140">
        <ele>961.8</ele>
        <time>2019-10-21T11:14:12Z</time>
      </trkpt>
      <trkpt lat="42.1080640" lon="2.3070430">
        <ele>961.6</ele>
        <time>2019-10-21T11:14:13Z</time>
      </trkpt>
      <trkpt lat="42.1080700" lon="2.3070710">
        <ele>961.8</ele>
        <time>2019-10-21T11:14:14Z</time>
      </trkpt>
      <trkpt lat="42.1080800" lon="2.3072400">
        <ele>961.4</ele>
        <time>2019-10-21T11:14:15Z</time>
      </trkpt>
      <trkpt lat="42.1080740" lon="2.3072740">
        <ele>962.2</ele>
        <time>2019-10-21T11:14:16Z</time>
      </trkpt>
      <trkpt lat="42.1080690" lon="2.3073070">
        <ele>962.0</ele>
        <time>2019-10-21T11:14:17Z</time>
      </trkpt>
      <trkpt lat="42.1080630" lon="2.3073410">
        <ele>962.0</ele>
        <time>2019-10-21T11:14:18Z</time>
      </trkpt>
      <trkpt lat="42.1080570" lon="2.3073740">
        <ele>962.2</ele>
        <time>2019-10-21T11:14:19Z</time>
      </trkpt>
      <trkpt lat="42.1080450" lon="2.3074180">
        <ele>962.0</ele>
        <time>2019-10-21T11:14:20Z</time>
      </trkpt>
      <trkpt lat="42.1080330" lon="2.3074630">
        <ele>962.2</ele>
        <time>2019-10-21T11:14:21Z</time>
      </trkpt>
      <trkpt lat="42.1080220" lon="2.3075070">
        <ele>962.8</ele>
        <time>2019-10-21T11:14:22Z</time>
      </trkpt>
      <trkpt lat="42.1080100" lon="2.3075520">
        <ele>963.0</ele>
        <time>2019-10-21T11:14:23Z</time>
      </trkpt>
      <trkpt lat="42.1079980" lon="2.3075960">
        <ele>963.2</ele>
        <time>2019-10-21T11:14:24Z</time>
      </trkpt>
      <trkpt lat="42.1079730" lon="2.3076700">
        <ele>964.0</ele>
        <time>2019-10-21T11:14:25Z</time>
      </trkpt>
      <trkpt lat="42.1079730" lon="2.3076700">
        <ele>964.0</ele>
        <time>2019-10-21T11:14:26Z</time>
      </trkpt>
      <trkpt lat="42.1079730" lon="2.3076700">
        <ele>964.4</ele>
        <time>2019-10-21T11:14:27Z</time>
      </trkpt>
      <trkpt lat="42.1080050" lon="2.3078320">
        <ele>964.2</ele>
        <time>2019-10-21T11:14:28Z</time>
      </trkpt>
      <trkpt lat="42.1080110" lon="2.3078450">
        <ele>964.8</ele>
        <time>2019-10-21T11:14:29Z</time>
      </trkpt>
      <trkpt lat="42.1080160" lon="2.3078590">
        <ele>964.4</ele>
        <time>2019-10-21T11:14:30Z</time>
      </trkpt>
      <trkpt lat="42.1080220" lon="2.3078730">
        <ele>964.4</ele>
        <time>2019-10-21T11:14:31Z</time>
      </trkpt>
      <trkpt lat="42.1080580" lon="2.3079490">
        <ele>965.2</ele>
        <time>2019-10-21T11:14:32Z</time>
      </trkpt>
      <trkpt lat="42.1080710" lon="2.3079700">
        <ele>965.2</ele>
        <time>2019-10-21T11:14:33Z</time>
      </trkpt>
      <trkpt lat="42.1080840" lon="2.3079920">
        <ele>965.8</ele>
        <time>2019-10-21T11:14:34Z</time>
      </trkpt>
      <trkpt lat="42.1080970" lon="2.3080130">
        <ele>966.8</ele>
        <time>2019-10-21T11:14:35Z</time>
      </trkpt>
      <trkpt lat="42.1081100" lon="2.3080340">
        <ele>966.8</ele>
        <time>2019-10-21T11:14:36Z</time>
      </trkpt>
      <trkpt lat="42.1081270" lon="2.3080610">
        <ele>967.6</ele>
        <time>2019-10-21T11:14:37Z</time>
      </trkpt>
      <trkpt lat="42.1081450" lon="2.3080890">
        <ele>967.6</ele>
        <time>2019-10-21T11:14:38Z</time>
      </trkpt>
      <trkpt lat="42.1081620" lon="2.3081160">
        <ele>968.2</ele>
        <time>2019-10-21T11:14:39Z</time>
      </trkpt>
      <trkpt lat="42.1081790" lon="2.3081440">
        <ele>967.8</ele>
        <time>2019-10-21T11:14:40Z</time>
      </trkpt>
      <trkpt lat="42.1081790" lon="2.3081440">
        <ele>968.2</ele>
        <time>2019-10-21T11:14:41Z</time>
      </trkpt>
      <trkpt lat="42.1081790" lon="2.3081440">
        <ele>967.8</ele>
        <time>2019-10-21T11:14:42Z</time>
      </trkpt>
      <trkpt lat="42.1081790" lon="2.3081440">
        <ele>968.2</ele>
        <time>2019-10-21T11:14:43Z</time>
      </trkpt>
      <trkpt lat="42.1082020" lon="2.3082810">
        <ele>968.2</ele>
        <time>2019-10-21T11:14:44Z</time>
      </trkpt>
      <trkpt lat="42.1082020" lon="2.3082810">
        <ele>968.6</ele>
        <time>2019-10-21T11:14:45Z</time>
      </trkpt>
      <trkpt lat="42.1082020" lon="2.3082810">
        <ele>968.2</ele>
        <time>2019-10-21T11:14:46Z</time>
      </trkpt>
      <trkpt lat="42.1082020" lon="2.3082810">
        <ele>967.6</ele>
        <time>2019-10-21T11:14:47Z</time>
      </trkpt>
      <trkpt lat="42.1082010" lon="2.3083140">
        <ele>967.6</ele>
        <time>2019-10-21T11:14:48Z</time>
      </trkpt>
      <trkpt lat="42.1082000" lon="2.3083470">
        <ele>966.6</ele>
        <time>2019-10-21T11:14:49Z</time>
      </trkpt>
      <trkpt lat="42.1081990" lon="2.3083800">
        <ele>966.4</ele>
        <time>2019-10-21T11:14:50Z</time>
      </trkpt>
      <trkpt lat="42.1081980" lon="2.3084130">
        <ele>964.8</ele>
        <time>2019-10-21T11:14:51Z</time>
      </trkpt>
      <trkpt lat="42.1081890" lon="2.3084440">
        <ele>964.2</ele>
        <time>2019-10-21T11:14:52Z</time>
      </trkpt>
      <trkpt lat="42.1081870" lon="2.3084470">
        <ele>963.8</ele>
        <time>2019-10-21T11:14:53Z</time>
      </trkpt>
      <trkpt lat="42.1081860" lon="2.3084490">
        <ele>963.6</ele>
        <time>2019-10-21T11:14:54Z</time>
      </trkpt>
      <trkpt lat="42.1081840" lon="2.3084510">
        <ele>963.2</ele>
        <time>2019-10-21T11:14:55Z</time>
      </trkpt>
      <trkpt lat="42.1081850" lon="2.3084490">
        <ele>963.6</ele>
        <time>2019-10-21T11:14:56Z</time>
      </trkpt>
      <trkpt lat="42.1081910" lon="2.3084380">
        <ele>962.4</ele>
        <time>2019-10-21T11:14:57Z</time>
      </trkpt>
      <trkpt lat="42.1081980" lon="2.3084270">
        <ele>962.8</ele>
        <time>2019-10-21T11:14:58Z</time>
      </trkpt>
      <trkpt lat="42.1082190" lon="2.3083980">
        <ele>962.4</ele>
        <time>2019-10-21T11:14:59Z</time>
      </trkpt>
      <trkpt lat="42.1082260" lon="2.3083880">
        <ele>962.8</ele>
        <time>2019-10-21T11:15:00Z</time>
      </trkpt>
      <trkpt lat="42.1082330" lon="2.3083770">
        <ele>962.6</ele>
        <time>2019-10-21T11:15:01Z</time>
      </trkpt>
      <trkpt lat="42.1082400" lon="2.3083670">
        <ele>962.4</ele>
        <time>2019-10-21T11:15:02Z</time>
      </trkpt>
      <trkpt lat="42.1082490" lon="2.3083480">
        <ele>961.6</ele>
        <time>2019-10-21T11:15:03Z</time>
      </trkpt>
      <trkpt lat="42.1082490" lon="2.3083480">
        <ele>960.8</ele>
        <time>2019-10-21T11:15:04Z</time>
      </trkpt>
      <trkpt lat="42.1082490" lon="2.3083480">
        <ele>960.4</ele>
        <time>2019-10-21T11:15:05Z</time>
      </trkpt>
      <trkpt lat="42.1082370" lon="2.3083370">
        <ele>960.2</ele>
        <time>2019-10-21T11:15:06Z</time>
      </trkpt>
      <trkpt lat="42.1082250" lon="2.3083260">
        <ele>960.0</ele>
        <time>2019-10-21T11:15:07Z</time>
      </trkpt>
      <trkpt lat="42.1082130" lon="2.3083150">
        <ele>959.8</ele>
        <time>2019-10-21T11:15:08Z</time>
      </trkpt>
      <trkpt lat="42.1082130" lon="2.3083150">
        <ele>960.0</ele>
        <time>2019-10-21T11:15:09Z</time>
      </trkpt>
      <trkpt lat="42.1082130" lon="2.3083150">
        <ele>960.0</ele>
        <time>2019-10-21T11:15:10Z</time>
      </trkpt>
      <trkpt lat="42.1082130" lon="2.3083150">
        <ele>960.0</ele>
        <time>2019-10-21T11:15:11Z</time>
      </trkpt>
      <trkpt lat="42.1082130" lon="2.3083150">
        <ele>959.2</ele>
        <time>2019-10-21T11:15:12Z</time>
      </trkpt>
      <trkpt lat="42.1082130" lon="2.3083150">
        <ele>959.2</ele>
        <time>2019-10-21T11:15:13Z</time>
      </trkpt>
      <trkpt lat="42.1082130" lon="2.3083150">
        <ele>958.4</ele>
        <time>2019-10-21T11:15:14Z</time>
      </trkpt>
      <trkpt lat="42.1082350" lon="2.3083040">
        <ele>958.4</ele>
        <time>2019-10-21T11:15:15Z</time>
      </trkpt>
      <trkpt lat="42.1082570" lon="2.3082930">
        <ele>957.8</ele>
        <time>2019-10-21T11:15:16Z</time>
      </trkpt>
      <trkpt lat="42.1082780" lon="2.3082820">
        <ele>958.0</ele>
        <time>2019-10-21T11:15:17Z</time>
      </trkpt>
      <trkpt lat="42.1083000" lon="2.3082710">
        <ele>957.4</ele>
        <time>2019-10-21T11:15:18Z</time>
      </trkpt>
      <trkpt lat="42.1083000" lon="2.3082710">
        <ele>957.4</ele>
        <time>2019-10-21T11:15:19Z</time>
      </trkpt>
      <trkpt lat="42.1083000" lon="2.3082710">
        <ele>957.0</ele>
        <time>2019-10-21T11:15:20Z</time>
      </trkpt>
      <trkpt lat="42.1083000" lon="2.3082710">
        <ele>957.2</ele>
        <time>2019-10-21T11:15:21Z</time>
      </trkpt>
      <trkpt lat="42.1083240" lon="2.3082780">
        <ele>957.2</ele>
        <time>2019-10-21T11:15:22Z</time>
      </trkpt>
      <trkpt lat="42.1083470" lon="2.3082840">
        <ele>957.2</ele>
        <time>2019-10-21T11:15:23Z</time>
      </trkpt>
      <trkpt lat="42.1083710" lon="2.3082910">
        <ele>957.4</ele>
        <time>2019-10-21T11:15:24Z</time>
      </trkpt>
      <trkpt lat="42.1083940" lon="2.3082980">
        <ele>957.6</ele>
        <time>2019-10-21T11:15:25Z</time>
      </trkpt>
      <trkpt lat="42.1084050" lon="2.3082900">
        <ele>957.4</ele>
        <time>2019-10-21T11:15:26Z</time>
      </trkpt>
      <trkpt lat="42.1084150" lon="2.3082830">
        <ele>957.4</ele>
        <time>2019-10-21T11:15:27Z</time>
      </trkpt>
      <trkpt lat="42.1084260" lon="2.3082750">
        <ele>957.6</ele>
        <time>2019-10-21T11:15:28Z</time>
      </trkpt>
      <trkpt lat="42.1084360" lon="2.3082670">
        <ele>957.8</ele>
        <time>2019-10-21T11:15:29Z</time>
      </trkpt>
      <trkpt lat="42.1084770" lon="2.3082360">
        <ele>958.0</ele>
        <time>2019-10-21T11:15:30Z</time>
      </trkpt>
      <trkpt lat="42.1084770" lon="2.3082360">
        <ele>958.2</ele>
        <time>2019-10-21T11:15:31Z</time>
      </trkpt>
      <trkpt lat="42.1084770" lon="2.3082360">
        <ele>959.0</ele>
        <time>2019-10-21T11:15:32Z</time>
      </trkpt>
      <trkpt lat="42.1084770" lon="2.3082360">
        <ele>959.2</ele>
        <time>2019-10-21T11:15:33Z</time>
      </trkpt>
      <trkpt lat="42.1084770" lon="2.3082360">
        <ele>959.4</ele>
        <time>2019-10-21T11:15:34Z</time>
      </trkpt>
      <trkpt lat="42.1084770" lon="2.3082360">
        <ele>960.0</ele>
        <time>2019-10-21T11:15:35Z</time>
      </trkpt>
      <trkpt lat="42.1084770" lon="2.3082360">
        <ele>960.2</ele>
        <time>2019-10-21T11:15:36Z</time>
      </trkpt>
      <trkpt lat="42.1084770" lon="2.3082360">
        <ele>960.2</ele>
        <time>2019-10-21T11:15:37Z</time>
      </trkpt>
      <trkpt lat="42.1084770" lon="2.3082360">
        <ele>960.8</ele>
        <time>2019-10-21T11:15:38Z</time>
      </trkpt>
      <trkpt lat="42.1084770" lon="2.3082360">
        <ele>961.2</ele>
        <time>2019-10-21T11:15:39Z</time>
      </trkpt>
      <trkpt lat="42.1084770" lon="2.3082360">
        <ele>961.6</ele>
        <time>2019-10-21T11:15:40Z</time>
      </trkpt>
      <trkpt lat="42.1084770" lon="2.3082360">
        <ele>962.0</ele>
        <time>2019-10-21T11:15:41Z</time>
      </trkpt>
      <trkpt lat="42.1084770" lon="2.3082360">
        <ele>962.4</ele>
        <time>2019-10-21T11:15:42Z</time>
      </trkpt>
      <trkpt lat="42.1084770" lon="2.3082360">
        <ele>962.8</ele>
        <time>2019-10-21T11:15:43Z</time>
      </trkpt>
      <trkpt lat="42.1084770" lon="2.3082360">
        <ele>963.0</ele>
        <time>2019-10-21T11:15:44Z</time>
      </trkpt>
      <trkpt lat="42.1084770" lon="2.3082360">
        <ele>963.4</ele>
        <time>2019-10-21T11:15:45Z</time>
      </trkpt>
      <trkpt lat="42.1084770" lon="2.3082360">
        <ele>963.4</ele>
        <time>2019-10-21T11:15:46Z</time>
      </trkpt>
      <trkpt lat="42.1084770" lon="2.3082360">
        <ele>963.6</ele>
        <time>2019-10-21T11:15:47Z</time>
      </trkpt>
      <trkpt lat="42.1084770" lon="2.3082360">
        <ele>963.8</ele>
        <time>2019-10-21T11:15:48Z</time>
      </trkpt>
      <trkpt lat="42.1084770" lon="2.3082360">
        <ele>963.6</ele>
        <time>2019-10-21T11:15:49Z</time>
      </trkpt>
      <trkpt lat="42.1084770" lon="2.3082360">
        <ele>963.2</ele>
        <time>2019-10-21T11:15:50Z</time>
      </trkpt>
      <trkpt lat="42.1084770" lon="2.3082360">
        <ele>963.2</ele>
        <time>2019-10-21T11:15:51Z</time>
      </trkpt>
      <trkpt lat="42.1084770" lon="2.3082360">
        <ele>963.4</ele>
        <time>2019-10-21T11:15:52Z</time>
      </trkpt>
      <trkpt lat="42.1084770" lon="2.3082360">
        <ele>963.2</ele>
        <time>2019-10-21T11:15:53Z</time>
      </trkpt>
      <trkpt lat="42.1084770" lon="2.3082360">
        <ele>963.0</ele>
        <time>2019-10-21T11:15:54Z</time>
      </trkpt>
      <trkpt lat="42.1084770" lon="2.3082360">
        <ele>962.6</ele>
        <time>2019-10-21T11:15:55Z</time>
      </trkpt>
      <trkpt lat="42.1084770" lon="2.3082360">
        <ele>962.4</ele>
        <time>2019-10-21T11:15:56Z</time>
      </trkpt>
      <trkpt lat="42.1084770" lon="2.3082360">
        <ele>961.8</ele>
        <time>2019-10-21T11:15:57Z</time>
      </trkpt>
      <trkpt lat="42.1084770" lon="2.3082360">
        <ele>960.8</ele>
        <time>2019-10-21T11:15:58Z</time>
      </trkpt>
      <trkpt lat="42.1084770" lon="2.3082360">
        <ele>960.2</ele>
        <time>2019-10-21T11:15:59Z</time>
      </trkpt>
      <trkpt lat="42.1084770" lon="2.3082360">
        <ele>959.8</ele>
        <time>2019-10-21T11:16:00Z</time>
      </trkpt>
      <trkpt lat="42.1084770" lon="2.3082360">
        <ele>959.8</ele>
        <time>2019-10-21T11:16:01Z</time>
      </trkpt>
      <trkpt lat="42.1084770" lon="2.3082360">
        <ele>959.6</ele>
        <time>2019-10-21T11:16:02Z</time>
      </trkpt>
      <trkpt lat="42.1084770" lon="2.3082360">
        <ele>959.4</ele>
        <time>2019-10-21T11:16:03Z</time>
      </trkpt>
      <trkpt lat="42.1084770" lon="2.3082360">
        <ele>958.6</ele>
        <time>2019-10-21T11:16:04Z</time>
      </trkpt>
      <trkpt lat="42.1084770" lon="2.3082360">
        <ele>958.2</ele>
        <time>2019-10-21T11:16:05Z</time>
      </trkpt>
      <trkpt lat="42.1084770" lon="2.3082360">
        <ele>958.0</ele>
        <time>2019-10-21T11:16:06Z</time>
      </trkpt>
      <trkpt lat="42.1084770" lon="2.3082360">
        <ele>957.6</ele>
        <time>2019-10-21T11:16:07Z</time>
      </trkpt>
      <trkpt lat="42.1084770" lon="2.3082360">
        <ele>957.0</ele>
        <time>2019-10-21T11:16:08Z</time>
      </trkpt>
      <trkpt lat="42.1084770" lon="2.3082360">
        <ele>956.4</ele>
        <time>2019-10-21T11:16:09Z</time>
      </trkpt>
      <trkpt lat="42.1084770" lon="2.3082360">
        <ele>956.0</ele>
        <time>2019-10-21T11:16:10Z</time>
      </trkpt>
      <trkpt lat="42.1084770" lon="2.3082360">
        <ele>955.0</ele>
        <time>2019-10-21T11:16:11Z</time>
      </trkpt>
      <trkpt lat="42.1084770" lon="2.3082360">
        <ele>954.6</ele>
        <time>2019-10-21T11:16:12Z</time>
      </trkpt>
      <trkpt lat="42.1084770" lon="2.3082360">
        <ele>954.0</ele>
        <time>2019-10-21T11:16:13Z</time>
      </trkpt>
      <trkpt lat="42.1084770" lon="2.3082360">
        <ele>953.4</ele>
        <time>2019-10-21T11:16:14Z</time>
      </trkpt>
      <trkpt lat="42.1085230" lon="2.3082220">
        <ele>952.8</ele>
        <time>2019-10-21T11:16:15Z</time>
      </trkpt>
      <trkpt lat="42.1085690" lon="2.3082080">
        <ele>952.4</ele>
        <time>2019-10-21T11:16:16Z</time>
      </trkpt>
      <trkpt lat="42.1086160" lon="2.3081940">
        <ele>952.0</ele>
        <time>2019-10-21T11:16:17Z</time>
      </trkpt>
      <trkpt lat="42.1086620" lon="2.3081800">
        <ele>951.8</ele>
        <time>2019-10-21T11:16:18Z</time>
      </trkpt>
      <trkpt lat="42.1087080" lon="2.3081660">
        <ele>950.6</ele>
        <time>2019-10-21T11:16:19Z</time>
      </trkpt>
      <trkpt lat="42.1087540" lon="2.3081520">
        <ele>950.0</ele>
        <time>2019-10-21T11:16:20Z</time>
      </trkpt>
      <trkpt lat="42.1087660" lon="2.3082270">
        <ele>949.6</ele>
        <time>2019-10-21T11:16:21Z</time>
      </trkpt>
      <trkpt lat="42.1087780" lon="2.3083020">
        <ele>948.8</ele>
        <time>2019-10-21T11:16:22Z</time>
      </trkpt>
      <trkpt lat="42.1087900" lon="2.3083770">
        <ele>948.4</ele>
        <time>2019-10-21T11:16:23Z</time>
      </trkpt>
      <trkpt lat="42.1088020" lon="2.3084520">
        <ele>948.4</ele>
        <time>2019-10-21T11:16:27Z</time>
      </trkpt>
      <trkpt lat="42.1088140" lon="2.3085270">
        <ele>948.4</ele>
        <time>2019-10-21T11:16:32Z</time>
      </trkpt>
      <trkpt lat="42.1088260" lon="2.3086020">
        <ele>948.4</ele>
        <time>2019-10-21T11:16:37Z</time>
      </trkpt>
      <trkpt lat="42.1088380" lon="2.3086770">
        <ele>948.4</ele>
        <time>2019-10-21T11:16:53Z</time>
      </trkpt>
      <trkpt lat="42.1088500" lon="2.3087520">
        <ele>948.4</ele>
        <time>2019-10-21T11:16:59Z</time>
      </trkpt>
      <trkpt lat="42.1088620" lon="2.3088270">
        <ele>943.2</ele>
        <time>2019-10-21T11:17:04Z</time>
      </trkpt>
      <trkpt lat="42.1088740" lon="2.3089020">
        <ele>942.4</ele>
        <time>2019-10-21T11:17:05Z</time>
      </trkpt>
      <trkpt lat="42.1088860" lon="2.3089770">
        <ele>942.0</ele>
        <time>2019-10-21T11:17:06Z</time>
      </trkpt>
      <trkpt lat="42.1089090" lon="2.3091330">
        <ele>941.4</ele>
        <time>2019-10-21T11:17:07Z</time>
      </trkpt>
      <trkpt lat="42.1089080" lon="2.3091590">
        <ele>941.0</ele>
        <time>2019-10-21T11:17:08Z</time>
      </trkpt>
      <trkpt lat="42.1089070" lon="2.3091850">
        <ele>940.6</ele>
        <time>2019-10-21T11:17:09Z</time>
      </trkpt>
      <trkpt lat="42.1089050" lon="2.3092100">
        <ele>940.0</ele>
        <time>2019-10-21T11:17:10Z</time>
      </trkpt>
      <trkpt lat="42.1089040" lon="2.3092360">
        <ele>940.0</ele>
        <time>2019-10-21T11:17:11Z</time>
      </trkpt>
      <trkpt lat="42.1089030" lon="2.3092620">
        <ele>939.6</ele>
        <time>2019-10-21T11:17:12Z</time>
      </trkpt>
      <trkpt lat="42.1088880" lon="2.3093120">
        <ele>939.8</ele>
        <time>2019-10-21T11:17:13Z</time>
      </trkpt>
      <trkpt lat="42.1088730" lon="2.3093620">
        <ele>939.4</ele>
        <time>2019-10-21T11:17:14Z</time>
      </trkpt>
      <trkpt lat="42.1088580" lon="2.3094130">
        <ele>939.2</ele>
        <time>2019-10-21T11:17:15Z</time>
      </trkpt>
      <trkpt lat="42.1088430" lon="2.3094630">
        <ele>938.8</ele>
        <time>2019-10-21T11:17:16Z</time>
      </trkpt>
      <trkpt lat="42.1088280" lon="2.3095130">
        <ele>938.2</ele>
        <time>2019-10-21T11:17:17Z</time>
      </trkpt>
      <trkpt lat="42.1088120" lon="2.3095310">
        <ele>937.6</ele>
        <time>2019-10-21T11:17:18Z</time>
      </trkpt>
      <trkpt lat="42.1087960" lon="2.3095490">
        <ele>937.0</ele>
        <time>2019-10-21T11:17:19Z</time>
      </trkpt>
      <trkpt lat="42.1087810" lon="2.3095680">
        <ele>935.6</ele>
        <time>2019-10-21T11:17:20Z</time>
      </trkpt>
      <trkpt lat="42.1087650" lon="2.3095860">
        <ele>935.4</ele>
        <time>2019-10-21T11:17:21Z</time>
      </trkpt>
      <trkpt lat="42.1087490" lon="2.3096040">
        <ele>935.0</ele>
        <time>2019-10-21T11:17:22Z</time>
      </trkpt>
      <trkpt lat="42.1087290" lon="2.3096150">
        <ele>934.0</ele>
        <time>2019-10-21T11:17:23Z</time>
      </trkpt>
      <trkpt lat="42.1087100" lon="2.3096260">
        <ele>933.0</ele>
        <time>2019-10-21T11:17:24Z</time>
      </trkpt>
      <trkpt lat="42.1086900" lon="2.3096370">
        <ele>932.4</ele>
        <time>2019-10-21T11:17:25Z</time>
      </trkpt>
      <trkpt lat="42.1086710" lon="2.3096480">
        <ele>931.6</ele>
        <time>2019-10-21T11:17:26Z</time>
      </trkpt>
      <trkpt lat="42.1086510" lon="2.3096590">
        <ele>929.0</ele>
        <time>2019-10-21T11:17:27Z</time>
      </trkpt>
      <trkpt lat="42.1085180" lon="2.3096890">
        <ele>929.0</ele>
        <time>2019-10-21T11:17:28Z</time>
      </trkpt>
      <trkpt lat="42.1084930" lon="2.3096920">
        <ele>928.4</ele>
        <time>2019-10-21T11:17:29Z</time>
      </trkpt>
      <trkpt lat="42.1084690" lon="2.3096950">
        <ele>928.4</ele>
        <time>2019-10-21T11:17:30Z</time>
      </trkpt>
      <trkpt lat="42.1084450" lon="2.3096980">
        <ele>927.8</ele>
        <time>2019-10-21T11:17:31Z</time>
      </trkpt>
      <trkpt lat="42.1084200" lon="2.3097010">
        <ele>927.6</ele>
        <time>2019-10-21T11:17:32Z</time>
      </trkpt>
      <trkpt lat="42.1083960" lon="2.3097040">
        <ele>926.8</ele>
        <time>2019-10-21T11:17:33Z</time>
      </trkpt>
      <trkpt lat="42.1083710" lon="2.3097070">
        <ele>926.6</ele>
        <time>2019-10-21T11:17:34Z</time>
      </trkpt>
      <trkpt lat="42.1083470" lon="2.3097100">
        <ele>925.6</ele>
        <time>2019-10-21T11:17:35Z</time>
      </trkpt>
      <trkpt lat="42.1083230" lon="2.3097130">
        <ele>925.4</ele>
        <time>2019-10-21T11:17:36Z</time>
      </trkpt>
      <trkpt lat="42.1082980" lon="2.3097160">
        <ele>924.4</ele>
        <time>2019-10-21T11:17:37Z</time>
      </trkpt>
      <trkpt lat="42.1082740" lon="2.3097190">
        <ele>924.0</ele>
        <time>2019-10-21T11:17:38Z</time>
      </trkpt>
      <trkpt lat="42.1082500" lon="2.3097220">
        <ele>923.4</ele>
        <time>2019-10-21T11:17:39Z</time>
      </trkpt>
      <trkpt lat="42.1082250" lon="2.3097250">
        <ele>923.0</ele>
        <time>2019-10-21T11:17:40Z</time>
      </trkpt>
      <trkpt lat="42.1082010" lon="2.3097280">
        <ele>922.0</ele>
        <time>2019-10-21T11:17:41Z</time>
      </trkpt>
      <trkpt lat="42.1081760" lon="2.3097310">
        <ele>921.4</ele>
        <time>2019-10-21T11:17:42Z</time>
      </trkpt>
      <trkpt lat="42.1081520" lon="2.3097340">
        <ele>920.4</ele>
        <time>2019-10-21T11:17:43Z</time>
      </trkpt>
      <trkpt lat="42.1081270" lon="2.3097440">
        <ele>919.8</ele>
        <time>2019-10-21T11:17:44Z</time>
      </trkpt>
      <trkpt lat="42.1081020" lon="2.3097540">
        <ele>919.0</ele>
        <time>2019-10-21T11:17:45Z</time>
      </trkpt>
      <trkpt lat="42.1080770" lon="2.3097640">
        <ele>918.4</ele>
        <time>2019-10-21T11:17:46Z</time>
      </trkpt>
      <trkpt lat="42.1080520" lon="2.3097740">
        <ele>917.4</ele>
        <time>2019-10-21T11:17:47Z</time>
      </trkpt>
      <trkpt lat="42.1080270" lon="2.3097840">
        <ele>916.0</ele>
        <time>2019-10-21T11:17:48Z</time>
      </trkpt>
      <trkpt lat="42.1080020" lon="2.3097940">
        <ele>915.4</ele>
        <time>2019-10-21T11:17:49Z</time>
      </trkpt>
      <trkpt lat="42.1079400" lon="2.3098230">
        <ele>914.0</ele>
        <time>2019-10-21T11:17:50Z</time>
      </trkpt>
      <trkpt lat="42.1079230" lon="2.3098330">
        <ele>913.8</ele>
        <time>2019-10-21T11:17:51Z</time>
      </trkpt>
      <trkpt lat="42.1079070" lon="2.3098440">
        <ele>913.0</ele>
        <time>2019-10-21T11:17:52Z</time>
      </trkpt>
      <trkpt lat="42.1078900" lon="2.3098540">
        <ele>913.0</ele>
        <time>2019-10-21T11:17:53Z</time>
      </trkpt>
      <trkpt lat="42.1078740" lon="2.3098640">
        <ele>912.4</ele>
        <time>2019-10-21T11:17:54Z</time>
      </trkpt>
      <trkpt lat="42.1078470" lon="2.3098920">
        <ele>912.0</ele>
        <time>2019-10-21T11:17:55Z</time>
      </trkpt>
      <trkpt lat="42.1078190" lon="2.3099190">
        <ele>911.4</ele>
        <time>2019-10-21T11:17:56Z</time>
      </trkpt>
      <trkpt lat="42.1077920" lon="2.3099470">
        <ele>911.0</ele>
        <time>2019-10-21T11:17:57Z</time>
      </trkpt>
      <trkpt lat="42.1077600" lon="2.3099660">
        <ele>910.4</ele>
        <time>2019-10-21T11:17:58Z</time>
      </trkpt>
      <trkpt lat="42.1077270" lon="2.3099840">
        <ele>910.0</ele>
        <time>2019-10-21T11:17:59Z</time>
      </trkpt>
      <trkpt lat="42.1076950" lon="2.3100030">
        <ele>909.4</ele>
        <time>2019-10-21T11:18:00Z</time>
      </trkpt>
      <trkpt lat="42.1076620" lon="2.3100210">
        <ele>909.2</ele>
        <time>2019-10-21T11:18:01Z</time>
      </trkpt>
      <trkpt lat="42.1076120" lon="2.3100330">
        <ele>908.8</ele>
        <time>2019-10-21T11:18:02Z</time>
      </trkpt>
      <trkpt lat="42.1076120" lon="2.3100330">
        <ele>908.4</ele>
        <time>2019-10-21T11:18:03Z</time>
      </trkpt>
      <trkpt lat="42.1076120" lon="2.3100330">
        <ele>908.2</ele>
        <time>2019-10-21T11:18:04Z</time>
      </trkpt>
      <trkpt lat="42.1075960" lon="2.3100410">
        <ele>907.4</ele>
        <time>2019-10-21T11:18:05Z</time>
      </trkpt>
      <trkpt lat="42.1075810" lon="2.3100500">
        <ele>907.0</ele>
        <time>2019-10-21T11:18:06Z</time>
      </trkpt>
      <trkpt lat="42.1075650" lon="2.3100580">
        <ele>906.8</ele>
        <time>2019-10-21T11:18:07Z</time>
      </trkpt>
      <trkpt lat="42.1075180" lon="2.3100820">
        <ele>906.4</ele>
        <time>2019-10-21T11:18:08Z</time>
      </trkpt>
      <trkpt lat="42.1075180" lon="2.3100820">
        <ele>905.6</ele>
        <time>2019-10-21T11:18:09Z</time>
      </trkpt>
      <trkpt lat="42.1075180" lon="2.3100820">
        <ele>905.6</ele>
        <time>2019-10-21T11:18:10Z</time>
      </trkpt>
      <trkpt lat="42.1075180" lon="2.3100820">
        <ele>904.6</ele>
        <time>2019-10-21T11:18:11Z</time>
      </trkpt>
      <trkpt lat="42.1074970" lon="2.3101040">
        <ele>903.8</ele>
        <time>2019-10-21T11:18:12Z</time>
      </trkpt>
      <trkpt lat="42.1074760" lon="2.3101250">
        <ele>903.4</ele>
        <time>2019-10-21T11:18:13Z</time>
      </trkpt>
      <trkpt lat="42.1074550" lon="2.3101470">
        <ele>902.2</ele>
        <time>2019-10-21T11:18:14Z</time>
      </trkpt>
      <trkpt lat="42.1074340" lon="2.3101680">
        <ele>902.0</ele>
        <time>2019-10-21T11:18:15Z</time>
      </trkpt>
      <trkpt lat="42.1074160" lon="2.3102040">
        <ele>901.4</ele>
        <time>2019-10-21T11:18:16Z</time>
      </trkpt>
      <trkpt lat="42.1073980" lon="2.3102400">
        <ele>901.0</ele>
        <time>2019-10-21T11:18:17Z</time>
      </trkpt>
      <trkpt lat="42.1073800" lon="2.3102760">
        <ele>900.8</ele>
        <time>2019-10-21T11:18:18Z</time>
      </trkpt>
      <trkpt lat="42.1073800" lon="2.3102760">
        <ele>900.4</ele>
        <time>2019-10-21T11:18:19Z</time>
      </trkpt>
      <trkpt lat="42.1073800" lon="2.3102760">
        <ele>900.2</ele>
        <time>2019-10-21T11:18:20Z</time>
      </trkpt>
      <trkpt lat="42.1073800" lon="2.3102760">
        <ele>900.0</ele>
        <time>2019-10-21T11:18:21Z</time>
      </trkpt>
      <trkpt lat="42.1073870" lon="2.3103080">
        <ele>899.2</ele>
        <time>2019-10-21T11:18:22Z</time>
      </trkpt>
      <trkpt lat="42.1073930" lon="2.3103390">
        <ele>899.6</ele>
        <time>2019-10-21T11:18:23Z</time>
      </trkpt>
      <trkpt lat="42.1074000" lon="2.3103710">
        <ele>899.4</ele>
        <time>2019-10-21T11:18:24Z</time>
      </trkpt>
      <trkpt lat="42.1074060" lon="2.3104030">
        <ele>899.4</ele>
        <time>2019-10-21T11:18:25Z</time>
      </trkpt>
      <trkpt lat="42.1074110" lon="2.3104440">
        <ele>899.4</ele>
        <time>2019-10-21T11:18:26Z</time>
      </trkpt>
      <trkpt lat="42.1074160" lon="2.3104860">
        <ele>899.4</ele>
        <time>2019-10-21T11:18:27Z</time>
      </trkpt>
      <trkpt lat="42.1074210" lon="2.3105270">
        <ele>899.0</ele>
        <time>2019-10-21T11:18:28Z</time>
      </trkpt>
      <trkpt lat="42.1074170" lon="2.3105430">
        <ele>899.2</ele>
        <time>2019-10-21T11:18:29Z</time>
      </trkpt>
      <trkpt lat="42.1074130" lon="2.3105590">
        <ele>899.2</ele>
        <time>2019-10-21T11:18:30Z</time>
      </trkpt>
      <trkpt lat="42.1074080" lon="2.3105750">
        <ele>899.4</ele>
        <time>2019-10-21T11:18:31Z</time>
      </trkpt>
      <trkpt lat="42.1074040" lon="2.3105910">
        <ele>900.2</ele>
        <time>2019-10-21T11:18:32Z</time>
      </trkpt>
      <trkpt lat="42.1073870" lon="2.3106540">
        <ele>900.2</ele>
        <time>2019-10-21T11:18:33Z</time>
      </trkpt>
      <trkpt lat="42.1073870" lon="2.3106540">
        <ele>901.0</ele>
        <time>2019-10-21T11:18:34Z</time>
      </trkpt>
      <trkpt lat="42.1073870" lon="2.3106540">
        <ele>900.8</ele>
        <time>2019-10-21T11:18:35Z</time>
      </trkpt>
      <trkpt lat="42.1073870" lon="2.3106540">
        <ele>901.0</ele>
        <time>2019-10-21T11:18:36Z</time>
      </trkpt>
      <trkpt lat="42.1073570" lon="2.3106710">
        <ele>900.8</ele>
        <time>2019-10-21T11:18:37Z</time>
      </trkpt>
      <trkpt lat="42.1073270" lon="2.3106870">
        <ele>901.0</ele>
        <time>2019-10-21T11:18:38Z</time>
      </trkpt>
      <trkpt lat="42.1072970" lon="2.3107040">
        <ele>900.8</ele>
        <time>2019-10-21T11:18:39Z</time>
      </trkpt>
      <trkpt lat="42.1072620" lon="2.3106790">
        <ele>901.2</ele>
        <time>2019-10-21T11:18:40Z</time>
      </trkpt>
      <trkpt lat="42.1072260" lon="2.3106540">
        <ele>901.2</ele>
        <time>2019-10-21T11:18:41Z</time>
      </trkpt>
      <trkpt lat="42.1071910" lon="2.3106290">
        <ele>901.2</ele>
        <time>2019-10-21T11:18:42Z</time>
      </trkpt>
      <trkpt lat="42.1071910" lon="2.3106290">
        <ele>901.0</ele>
        <time>2019-10-21T11:18:43Z</time>
      </trkpt>
      <trkpt lat="42.1071910" lon="2.3106290">
        <ele>901.0</ele>
        <time>2019-10-21T11:18:44Z</time>
      </trkpt>
      <trkpt lat="42.1071910" lon="2.3106290">
        <ele>900.6</ele>
        <time>2019-10-21T11:18:45Z</time>
      </trkpt>
      <trkpt lat="42.1071910" lon="2.3106290">
        <ele>900.4</ele>
        <time>2019-10-21T11:18:46Z</time>
      </trkpt>
      <trkpt lat="42.1071910" lon="2.3106290">
        <ele>900.6</ele>
        <time>2019-10-21T11:18:47Z</time>
      </trkpt>
      <trkpt lat="42.1071910" lon="2.3106290">
        <ele>900.4</ele>
        <time>2019-10-21T11:18:48Z</time>
      </trkpt>
      <trkpt lat="42.1071910" lon="2.3106290">
        <ele>900.6</ele>
        <time>2019-10-21T11:18:49Z</time>
      </trkpt>
      <trkpt lat="42.1071020" lon="2.3106570">
        <ele>901.2</ele>
        <time>2019-10-21T11:18:50Z</time>
      </trkpt>
      <trkpt lat="42.1071020" lon="2.3106570">
        <ele>901.8</ele>
        <time>2019-10-21T11:18:51Z</time>
      </trkpt>
      <trkpt lat="42.1071020" lon="2.3106570">
        <ele>901.8</ele>
        <time>2019-10-21T11:18:52Z</time>
      </trkpt>
      <trkpt lat="42.1071020" lon="2.3106570">
        <ele>902.0</ele>
        <time>2019-10-21T11:18:53Z</time>
      </trkpt>
      <trkpt lat="42.1071020" lon="2.3106570">
        <ele>902.0</ele>
        <time>2019-10-21T11:18:54Z</time>
      </trkpt>
      <trkpt lat="42.1071020" lon="2.3106570">
        <ele>903.0</ele>
        <time>2019-10-21T11:18:55Z</time>
      </trkpt>
      <trkpt lat="42.1071020" lon="2.3106570">
        <ele>903.4</ele>
        <time>2019-10-21T11:18:56Z</time>
      </trkpt>
      <trkpt lat="42.1071020" lon="2.3106570">
        <ele>904.2</ele>
        <time>2019-10-21T11:18:57Z</time>
      </trkpt>
      <trkpt lat="42.1070830" lon="2.3108030">
        <ele>904.4</ele>
        <time>2019-10-21T11:18:58Z</time>
      </trkpt>
      <trkpt lat="42.1070750" lon="2.3108210">
        <ele>904.8</ele>
        <time>2019-10-21T11:18:59Z</time>
      </trkpt>
      <trkpt lat="42.1070660" lon="2.3108380">
        <ele>905.2</ele>
        <time>2019-10-21T11:19:00Z</time>
      </trkpt>
      <trkpt lat="42.1070570" lon="2.3108550">
        <ele>905.6</ele>
        <time>2019-10-21T11:19:01Z</time>
      </trkpt>
      <trkpt lat="42.1070490" lon="2.3108730">
        <ele>906.2</ele>
        <time>2019-10-21T11:19:02Z</time>
      </trkpt>
      <trkpt lat="42.1070400" lon="2.3108900">
        <ele>906.4</ele>
        <time>2019-10-21T11:19:03Z</time>
      </trkpt>
      <trkpt lat="42.1070160" lon="2.3109100">
        <ele>906.4</ele>
        <time>2019-10-21T11:19:04Z</time>
      </trkpt>
      <trkpt lat="42.1069920" lon="2.3109300">
        <ele>907.4</ele>
        <time>2019-10-21T11:19:05Z</time>
      </trkpt>
      <trkpt lat="42.1069670" lon="2.3109490">
        <ele>907.8</ele>
        <time>2019-10-21T11:19:06Z</time>
      </trkpt>
      <trkpt lat="42.1069430" lon="2.3109690">
        <ele>908.2</ele>
        <time>2019-10-21T11:19:07Z</time>
      </trkpt>
      <trkpt lat="42.1069220" lon="2.3110060">
        <ele>908.6</ele>
        <time>2019-10-21T11:19:08Z</time>
      </trkpt>
      <trkpt lat="42.1069000" lon="2.3110430">
        <ele>908.0</ele>
        <time>2019-10-21T11:19:09Z</time>
      </trkpt>
      <trkpt lat="42.1068790" lon="2.3110810">
        <ele>908.0</ele>
        <time>2019-10-21T11:19:10Z</time>
      </trkpt>
      <trkpt lat="42.1068570" lon="2.3111180">
        <ele>907.6</ele>
        <time>2019-10-21T11:19:11Z</time>
      </trkpt>
      <trkpt lat="42.1068360" lon="2.3111550">
        <ele>907.4</ele>
        <time>2019-10-21T11:19:12Z</time>
      </trkpt>
      <trkpt lat="42.1068140" lon="2.3111920">
        <ele>906.6</ele>
        <time>2019-10-21T11:19:13Z</time>
      </trkpt>
      <trkpt lat="42.1068100" lon="2.3112210">
        <ele>906.4</ele>
        <time>2019-10-21T11:19:14Z</time>
      </trkpt>
      <trkpt lat="42.1068060" lon="2.3112510">
        <ele>905.8</ele>
        <time>2019-10-21T11:19:15Z</time>
      </trkpt>
      <trkpt lat="42.1068030" lon="2.3112800">
        <ele>905.4</ele>
        <time>2019-10-21T11:19:16Z</time>
      </trkpt>
      <trkpt lat="42.1067990" lon="2.3113100">
        <ele>904.4</ele>
        <time>2019-10-21T11:19:17Z</time>
      </trkpt>
      <trkpt lat="42.1067950" lon="2.3113390">
        <ele>904.0</ele>
        <time>2019-10-21T11:19:18Z</time>
      </trkpt>
      <trkpt lat="42.1068480" lon="2.3114780">
        <ele>903.2</ele>
        <time>2019-10-21T11:19:19Z</time>
      </trkpt>
      <trkpt lat="42.1068590" lon="2.3114990">
        <ele>902.6</ele>
        <time>2019-10-21T11:19:20Z</time>
      </trkpt>
      <trkpt lat="42.1068690" lon="2.3115190">
        <ele>901.8</ele>
        <time>2019-10-21T11:19:21Z</time>
      </trkpt>
      <trkpt lat="42.1068800" lon="2.3115400">
        <ele>901.0</ele>
        <time>2019-10-21T11:19:22Z</time>
      </trkpt>
      <trkpt lat="42.1068900" lon="2.3115610">
        <ele>899.8</ele>
        <time>2019-10-21T11:19:23Z</time>
      </trkpt>
      <trkpt lat="42.1068900" lon="2.3115610">
        <ele>899.0</ele>
        <time>2019-10-21T11:19:24Z</time>
      </trkpt>
      <trkpt lat="42.1068900" lon="2.3115610">
        <ele>897.8</ele>
        <time>2019-10-21T11:19:25Z</time>
      </trkpt>
      <trkpt lat="42.1068900" lon="2.3115610">
        <ele>897.0</ele>
        <time>2019-10-21T11:19:26Z</time>
      </trkpt>
      <trkpt lat="42.1068900" lon="2.3115610">
        <ele>896.4</ele>
        <time>2019-10-21T11:19:27Z</time>
      </trkpt>
      <trkpt lat="42.1068900" lon="2.3115610">
        <ele>895.2</ele>
        <time>2019-10-21T11:19:28Z</time>
      </trkpt>
      <trkpt lat="42.1068930" lon="2.3116920">
        <ele>894.4</ele>
        <time>2019-10-21T11:19:29Z</time>
      </trkpt>
      <trkpt lat="42.1068930" lon="2.3116920">
        <ele>893.4</ele>
        <time>2019-10-21T11:19:30Z</time>
      </trkpt>
      <trkpt lat="42.1068930" lon="2.3116920">
        <ele>893.0</ele>
        <time>2019-10-21T11:19:31Z</time>
      </trkpt>
      <trkpt lat="42.1068930" lon="2.3116920">
        <ele>892.0</ele>
        <time>2019-10-21T11:19:32Z</time>
      </trkpt>
      <trkpt lat="42.1069000" lon="2.3117280">
        <ele>891.6</ele>
        <time>2019-10-21T11:19:33Z</time>
      </trkpt>
      <trkpt lat="42.1069070" lon="2.3117650">
        <ele>891.0</ele>
        <time>2019-10-21T11:19:34Z</time>
      </trkpt>
      <trkpt lat="42.1069140" lon="2.3118010">
        <ele>890.4</ele>
        <time>2019-10-21T11:19:35Z</time>
      </trkpt>
      <trkpt lat="42.1069210" lon="2.3118370">
        <ele>889.6</ele>
        <time>2019-10-21T11:19:36Z</time>
      </trkpt>
      <trkpt lat="42.1069270" lon="2.3118740">
        <ele>889.2</ele>
        <time>2019-10-21T11:19:37Z</time>
      </trkpt>
      <trkpt lat="42.1069340" lon="2.3119100">
        <ele>888.2</ele>
        <time>2019-10-21T11:19:38Z</time>
      </trkpt>
      <trkpt lat="42.1069410" lon="2.3119470">
        <ele>887.8</ele>
        <time>2019-10-21T11:19:39Z</time>
      </trkpt>
      <trkpt lat="42.1069480" lon="2.3119830">
        <ele>886.8</ele>
        <time>2019-10-21T11:19:40Z</time>
      </trkpt>
      <trkpt lat="42.1070070" lon="2.3121040">
        <ele>886.2</ele>
        <time>2019-10-21T11:19:41Z</time>
      </trkpt>
      <trkpt lat="42.1070150" lon="2.3121180">
        <ele>885.0</ele>
        <time>2019-10-21T11:19:42Z</time>
      </trkpt>
      <trkpt lat="42.1070240" lon="2.3121330">
        <ele>884.6</ele>
        <time>2019-10-21T11:19:43Z</time>
      </trkpt>
      <trkpt lat="42.1070320" lon="2.3121480">
        <ele>884.0</ele>
        <time>2019-10-21T11:19:44Z</time>
      </trkpt>
      <trkpt lat="42.1070410" lon="2.3121630">
        <ele>883.8</ele>
        <time>2019-10-21T11:19:45Z</time>
      </trkpt>
      <trkpt lat="42.1070490" lon="2.3121770">
        <ele>882.6</ele>
        <time>2019-10-21T11:19:46Z</time>
      </trkpt>
      <trkpt lat="42.1070580" lon="2.3121920">
        <ele>881.8</ele>
        <time>2019-10-21T11:19:47Z</time>
      </trkpt>
      <trkpt lat="42.1070660" lon="2.3122070">
        <ele>881.0</ele>
        <time>2019-10-21T11:19:48Z</time>
      </trkpt>
      <trkpt lat="42.1070880" lon="2.3122240">
        <ele>880.2</ele>
        <time>2019-10-21T11:19:49Z</time>
      </trkpt>
      <trkpt lat="42.1071100" lon="2.3122410">
        <ele>879.8</ele>
        <time>2019-10-21T11:19:50Z</time>
      </trkpt>
      <trkpt lat="42.1071310" lon="2.3122590">
        <ele>879.2</ele>
        <time>2019-10-21T11:19:51Z</time>
      </trkpt>
      <trkpt lat="42.1071530" lon="2.3122760">
        <ele>878.8</ele>
        <time>2019-10-21T11:19:52Z</time>
      </trkpt>
      <trkpt lat="42.1071750" lon="2.3122830">
        <ele>878.0</ele>
        <time>2019-10-21T11:19:53Z</time>
      </trkpt>
      <trkpt lat="42.1071970" lon="2.3122910">
        <ele>877.6</ele>
        <time>2019-10-21T11:19:54Z</time>
      </trkpt>
      <trkpt lat="42.1072190" lon="2.3122980">
        <ele>876.8</ele>
        <time>2019-10-21T11:19:55Z</time>
      </trkpt>
      <trkpt lat="42.1072410" lon="2.3123060">
        <ele>876.2</ele>
        <time>2019-10-21T11:19:56Z</time>
      </trkpt>
      <trkpt lat="42.1072630" lon="2.3123130">
        <ele>875.4</ele>
        <time>2019-10-21T11:19:57Z</time>
      </trkpt>
      <trkpt lat="42.1072630" lon="2.3123130">
        <ele>874.4</ele>
        <time>2019-10-21T11:19:58Z</time>
      </trkpt>
      <trkpt lat="42.1073580" lon="2.3123710">
        <ele>873.8</ele>
        <time>2019-10-21T11:19:59Z</time>
      </trkpt>
      <trkpt lat="42.1073580" lon="2.3123710">
        <ele>872.2</ele>
        <time>2019-10-21T11:20:01Z</time>
      </trkpt>
      <trkpt lat="42.1073580" lon="2.3123710">
        <ele>871.6</ele>
        <time>2019-10-21T11:20:02Z</time>
      </trkpt>
      <trkpt lat="42.1073580" lon="2.3123710">
        <ele>871.4</ele>
        <time>2019-10-21T11:20:03Z</time>
      </trkpt>
      <trkpt lat="42.1074580" lon="2.3123810">
        <ele>871.2</ele>
        <time>2019-10-21T11:20:04Z</time>
      </trkpt>
      <trkpt lat="42.1074580" lon="2.3123810">
        <ele>870.4</ele>
        <time>2019-10-21T11:20:05Z</time>
      </trkpt>
      <trkpt lat="42.1074580" lon="2.3123810">
        <ele>870.6</ele>
        <time>2019-10-21T11:20:06Z</time>
      </trkpt>
      <trkpt lat="42.1074940" lon="2.3123790">
        <ele>870.0</ele>
        <time>2019-10-21T11:20:07Z</time>
      </trkpt>
      <trkpt lat="42.1075310" lon="2.3123780">
        <ele>870.0</ele>
        <time>2019-10-21T11:20:08Z</time>
      </trkpt>
      <trkpt lat="42.1075670" lon="2.3123760">
        <ele>869.4</ele>
        <time>2019-10-21T11:20:09Z</time>
      </trkpt>
      <trkpt lat="42.1075670" lon="2.3123760">
        <ele>868.8</ele>
        <time>2019-10-21T11:20:10Z</time>
      </trkpt>
      <trkpt lat="42.1075670" lon="2.3123760">
        <ele>868.8</ele>
        <time>2019-10-21T11:20:11Z</time>
      </trkpt>
      <trkpt lat="42.1075670" lon="2.3123760">
        <ele>867.2</ele>
        <time>2019-10-21T11:20:12Z</time>
      </trkpt>
      <trkpt lat="42.1075810" lon="2.3123870">
        <ele>866.4</ele>
        <time>2019-10-21T11:20:13Z</time>
      </trkpt>
      <trkpt lat="42.1075940" lon="2.3123980">
        <ele>865.8</ele>
        <time>2019-10-21T11:20:14Z</time>
      </trkpt>
      <trkpt lat="42.1076080" lon="2.3124090">
        <ele>865.0</ele>
        <time>2019-10-21T11:20:15Z</time>
      </trkpt>
      <trkpt lat="42.1076210" lon="2.3124190">
        <ele>863.4</ele>
        <time>2019-10-21T11:20:16Z</time>
      </trkpt>
      <trkpt lat="42.1076350" lon="2.3124300">
        <ele>863.2</ele>
        <time>2019-10-21T11:20:17Z</time>
      </trkpt>
      <trkpt lat="42.1076480" lon="2.3124410">
        <ele>862.6</ele>
        <time>2019-10-21T11:20:18Z</time>
      </trkpt>
      <trkpt lat="42.1076620" lon="2.3124520">
        <ele>861.8</ele>
        <time>2019-10-21T11:20:19Z</time>
      </trkpt>
      <trkpt lat="42.1077550" lon="2.3125550">
        <ele>861.2</ele>
        <time>2019-10-21T11:20:20Z</time>
      </trkpt>
      <trkpt lat="42.1077660" lon="2.3125660">
        <ele>860.6</ele>
        <time>2019-10-21T11:20:21Z</time>
      </trkpt>
      <trkpt lat="42.1077780" lon="2.3125780">
        <ele>859.8</ele>
        <time>2019-10-21T11:20:22Z</time>
      </trkpt>
      <trkpt lat="42.1077890" lon="2.3125890">
        <ele>859.0</ele>
        <time>2019-10-21T11:20:23Z</time>
      </trkpt>
      <trkpt lat="42.1078000" lon="2.3126000">
        <ele>858.0</ele>
        <time>2019-10-21T11:20:24Z</time>
      </trkpt>
      <trkpt lat="42.1078680" lon="2.3126600">
        <ele>857.8</ele>
        <time>2019-10-21T11:20:25Z</time>
      </trkpt>
      <trkpt lat="42.1078810" lon="2.3126630">
        <ele>856.8</ele>
        <time>2019-10-21T11:20:26Z</time>
      </trkpt>
      <trkpt lat="42.1078930" lon="2.3126670">
        <ele>856.2</ele>
        <time>2019-10-21T11:20:27Z</time>
      </trkpt>
      <trkpt lat="42.1079060" lon="2.3126710">
        <ele>855.4</ele>
        <time>2019-10-21T11:20:28Z</time>
      </trkpt>
      <trkpt lat="42.1079560" lon="2.3126860">
        <ele>854.4</ele>
        <time>2019-10-21T11:20:29Z</time>
      </trkpt>
      <trkpt lat="42.1079560" lon="2.3126860">
        <ele>853.2</ele>
        <time>2019-10-21T11:20:30Z</time>
      </trkpt>
      <trkpt lat="42.1079560" lon="2.3126860">
        <ele>852.2</ele>
        <time>2019-10-21T11:20:31Z</time>
      </trkpt>
      <trkpt lat="42.1080870" lon="2.3127210">
        <ele>851.6</ele>
        <time>2019-10-21T11:20:32Z</time>
      </trkpt>
      <trkpt lat="42.1080970" lon="2.3127280">
        <ele>851.2</ele>
        <time>2019-10-21T11:20:33Z</time>
      </trkpt>
      <trkpt lat="42.1081080" lon="2.3127350">
        <ele>850.4</ele>
        <time>2019-10-21T11:20:34Z</time>
      </trkpt>
      <trkpt lat="42.1081180" lon="2.3127420">
        <ele>849.6</ele>
        <time>2019-10-21T11:20:35Z</time>
      </trkpt>
      <trkpt lat="42.1081290" lon="2.3127490">
        <ele>849.4</ele>
        <time>2019-10-21T11:20:36Z</time>
      </trkpt>
      <trkpt lat="42.1081820" lon="2.3127850">
        <ele>849.0</ele>
        <time>2019-10-21T11:20:37Z</time>
      </trkpt>
      <trkpt lat="42.1081820" lon="2.3127850">
        <ele>848.0</ele>
        <time>2019-10-21T11:20:38Z</time>
      </trkpt>
      <trkpt lat="42.1081820" lon="2.3127850">
        <ele>847.4</ele>
        <time>2019-10-21T11:20:39Z</time>
      </trkpt>
      <trkpt lat="42.1081820" lon="2.3127850">
        <ele>846.0</ele>
        <time>2019-10-21T11:20:40Z</time>
      </trkpt>
      <trkpt lat="42.1081820" lon="2.3127850">
        <ele>845.4</ele>
        <time>2019-10-21T11:20:41Z</time>
      </trkpt>
      <trkpt lat="42.1081950" lon="2.3128050">
        <ele>844.8</ele>
        <time>2019-10-21T11:20:42Z</time>
      </trkpt>
      <trkpt lat="42.1082090" lon="2.3128260">
        <ele>844.4</ele>
        <time>2019-10-21T11:20:43Z</time>
      </trkpt>
      <trkpt lat="42.1082220" lon="2.3128460">
        <ele>843.4</ele>
        <time>2019-10-21T11:20:44Z</time>
      </trkpt>
      <trkpt lat="42.1082360" lon="2.3128670">
        <ele>843.2</ele>
        <time>2019-10-21T11:20:45Z</time>
      </trkpt>
      <trkpt lat="42.1082490" lon="2.3128870">
        <ele>842.2</ele>
        <time>2019-10-21T11:20:46Z</time>
      </trkpt>
      <trkpt lat="42.1082490" lon="2.3128870">
        <ele>841.6</ele>
        <time>2019-10-21T11:20:47Z</time>
      </trkpt>
      <trkpt lat="42.1082490" lon="2.3128870">
        <ele>841.2</ele>
        <time>2019-10-21T11:20:48Z</time>
      </trkpt>
      <trkpt lat="42.1082490" lon="2.3128870">
        <ele>840.8</ele>
        <time>2019-10-21T11:20:49Z</time>
      </trkpt>
      <trkpt lat="42.1082650" lon="2.3128990">
        <ele>839.8</ele>
        <time>2019-10-21T11:20:50Z</time>
      </trkpt>
      <trkpt lat="42.1082810" lon="2.3129110">
        <ele>839.2</ele>
        <time>2019-10-21T11:20:51Z</time>
      </trkpt>
      <trkpt lat="42.1082980" lon="2.3129240">
        <ele>839.8</ele>
        <time>2019-10-21T11:20:52Z</time>
      </trkpt>
      <trkpt lat="42.1083140" lon="2.3129360">
        <ele>840.2</ele>
        <time>2019-10-21T11:20:53Z</time>
      </trkpt>
      <trkpt lat="42.1083300" lon="2.3129480">
        <ele>838.4</ele>
        <time>2019-10-21T11:20:54Z</time>
      </trkpt>
      <trkpt lat="42.1083480" lon="2.3129620">
        <ele>837.0</ele>
        <time>2019-10-21T11:20:55Z</time>
      </trkpt>
      <trkpt lat="42.1083650" lon="2.3129760">
        <ele>835.0</ele>
        <time>2019-10-21T11:20:56Z</time>
      </trkpt>
      <trkpt lat="42.1083830" lon="2.3129910">
        <ele>834.6</ele>
        <time>2019-10-21T11:20:57Z</time>
      </trkpt>
      <trkpt lat="42.1084000" lon="2.3130050">
        <ele>834.4</ele>
        <time>2019-10-21T11:20:58Z</time>
      </trkpt>
      <trkpt lat="42.1084180" lon="2.3130190">
        <ele>833.8</ele>
        <time>2019-10-21T11:20:59Z</time>
      </trkpt>
      <trkpt lat="42.1084230" lon="2.3130580">
        <ele>832.8</ele>
        <time>2019-10-21T11:21:00Z</time>
      </trkpt>
      <trkpt lat="42.1084280" lon="2.3130970">
        <ele>832.4</ele>
        <time>2019-10-21T11:21:01Z</time>
      </trkpt>
      <trkpt lat="42.1084340" lon="2.3131350">
        <ele>832.4</ele>
        <time>2019-10-21T11:21:02Z</time>
      </trkpt>
      <trkpt lat="42.1084390" lon="2.3131740">
        <ele>831.6</ele>
        <time>2019-10-21T11:21:03Z</time>
      </trkpt>
      <trkpt lat="42.1084440" lon="2.3132130">
        <ele>831.2</ele>
        <time>2019-10-21T11:21:04Z</time>
      </trkpt>
      <trkpt lat="42.1084260" lon="2.3132870">
        <ele>830.4</ele>
        <time>2019-10-21T11:21:05Z</time>
      </trkpt>
      <trkpt lat="42.1084200" lon="2.3132950">
        <ele>830.4</ele>
        <time>2019-10-21T11:21:06Z</time>
      </trkpt>
      <trkpt lat="42.1084150" lon="2.3133040">
        <ele>829.6</ele>
        <time>2019-10-21T11:21:07Z</time>
      </trkpt>
      <trkpt lat="42.1084100" lon="2.3133130">
        <ele>829.4</ele>
        <time>2019-10-21T11:21:08Z</time>
      </trkpt>
      <trkpt lat="42.1084040" lon="2.3133210">
        <ele>828.0</ele>
        <time>2019-10-21T11:21:09Z</time>
      </trkpt>
      <trkpt lat="42.1083990" lon="2.3133300">
        <ele>828.0</ele>
        <time>2019-10-21T11:21:10Z</time>
      </trkpt>
      <trkpt lat="42.1083670" lon="2.3133810">
        <ele>827.6</ele>
        <time>2019-10-21T11:21:11Z</time>
      </trkpt>
      <trkpt lat="42.1083670" lon="2.3133810">
        <ele>826.8</ele>
        <time>2019-10-21T11:21:12Z</time>
      </trkpt>
      <trkpt lat="42.1083670" lon="2.3133810">
        <ele>827.0</ele>
        <time>2019-10-21T11:21:13Z</time>
      </trkpt>
      <trkpt lat="42.1083670" lon="2.3133810">
        <ele>826.2</ele>
        <time>2019-10-21T11:21:14Z</time>
      </trkpt>
      <trkpt lat="42.1083670" lon="2.3133810">
        <ele>826.4</ele>
        <time>2019-10-21T11:21:15Z</time>
      </trkpt>
      <trkpt lat="42.1083670" lon="2.3133810">
        <ele>825.8</ele>
        <time>2019-10-21T11:21:16Z</time>
      </trkpt>
      <trkpt lat="42.1083670" lon="2.3133810">
        <ele>825.6</ele>
        <time>2019-10-21T11:21:17Z</time>
      </trkpt>
      <trkpt lat="42.1083670" lon="2.3133810">
        <ele>825.0</ele>
        <time>2019-10-21T11:21:18Z</time>
      </trkpt>
      <trkpt lat="42.1083860" lon="2.3134110">
        <ele>825.0</ele>
        <time>2019-10-21T11:21:19Z</time>
      </trkpt>
      <trkpt lat="42.1084040" lon="2.3134420">
        <ele>824.0</ele>
        <time>2019-10-21T11:21:20Z</time>
      </trkpt>
      <trkpt lat="42.1084230" lon="2.3134720">
        <ele>824.0</ele>
        <time>2019-10-21T11:21:21Z</time>
      </trkpt>
      <trkpt lat="42.1084410" lon="2.3135030">
        <ele>823.4</ele>
        <time>2019-10-21T11:21:22Z</time>
      </trkpt>
      <trkpt lat="42.1084530" lon="2.3135460">
        <ele>823.2</ele>
        <time>2019-10-21T11:21:23Z</time>
      </trkpt>
      <trkpt lat="42.1084650" lon="2.3135880">
        <ele>823.0</ele>
        <time>2019-10-21T11:21:24Z</time>
      </trkpt>
      <trkpt lat="42.1084770" lon="2.3136310">
        <ele>823.0</ele>
        <time>2019-10-21T11:21:25Z</time>
      </trkpt>
      <trkpt lat="42.1084890" lon="2.3136740">
        <ele>822.2</ele>
        <time>2019-10-21T11:21:26Z</time>
      </trkpt>
      <trkpt lat="42.1084970" lon="2.3137530">
        <ele>820.8</ele>
        <time>2019-10-21T11:21:27Z</time>
      </trkpt>
      <trkpt lat="42.1084980" lon="2.3137700">
        <ele>820.4</ele>
        <time>2019-10-21T11:21:28Z</time>
      </trkpt>
      <trkpt lat="42.1084990" lon="2.3137860">
        <ele>820.6</ele>
        <time>2019-10-21T11:21:29Z</time>
      </trkpt>
      <trkpt lat="42.1085000" lon="2.3138030">
        <ele>819.8</ele>
        <time>2019-10-21T11:21:30Z</time>
      </trkpt>
      <trkpt lat="42.1085010" lon="2.3138190">
        <ele>819.4</ele>
        <time>2019-10-21T11:21:31Z</time>
      </trkpt>
      <trkpt lat="42.1085020" lon="2.3138360">
        <ele>819.2</ele>
        <time>2019-10-21T11:21:32Z</time>
      </trkpt>
      <trkpt lat="42.1085030" lon="2.3138520">
        <ele>819.2</ele>
        <time>2019-10-21T11:21:33Z</time>
      </trkpt>
      <trkpt lat="42.1085040" lon="2.3138690">
        <ele>818.6</ele>
        <time>2019-10-21T11:21:34Z</time>
      </trkpt>
      <trkpt lat="42.1085110" lon="2.3139010">
        <ele>818.6</ele>
        <time>2019-10-21T11:21:35Z</time>
      </trkpt>
      <trkpt lat="42.1085180" lon="2.3139340">
        <ele>818.2</ele>
        <time>2019-10-21T11:21:36Z</time>
      </trkpt>
      <trkpt lat="42.1085240" lon="2.3139660">
        <ele>817.8</ele>
        <time>2019-10-21T11:21:37Z</time>
      </trkpt>
      <trkpt lat="42.1085310" lon="2.3139980">
        <ele>817.6</ele>
        <time>2019-10-21T11:21:38Z</time>
      </trkpt>
      <trkpt lat="42.1085380" lon="2.3140310">
        <ele>817.2</ele>
        <time>2019-10-21T11:21:39Z</time>
      </trkpt>
      <trkpt lat="42.1085450" lon="2.3140630">
        <ele>817.0</ele>
        <time>2019-10-21T11:21:40Z</time>
      </trkpt>
      <trkpt lat="42.1085510" lon="2.3140960">
        <ele>816.4</ele>
        <time>2019-10-21T11:21:41Z</time>
      </trkpt>
      <trkpt lat="42.1085580" lon="2.3141280">
        <ele>815.8</ele>
        <time>2019-10-21T11:21:42Z</time>
      </trkpt>
      <trkpt lat="42.1085610" lon="2.3141590">
        <ele>815.0</ele>
        <time>2019-10-21T11:21:43Z</time>
      </trkpt>
      <trkpt lat="42.1085640" lon="2.3141890">
        <ele>814.2</ele>
        <time>2019-10-21T11:21:44Z</time>
      </trkpt>
      <trkpt lat="42.1085660" lon="2.3142200">
        <ele>813.6</ele>
        <time>2019-10-21T11:21:45Z</time>
      </trkpt>
      <trkpt lat="42.1085690" lon="2.3142500">
        <ele>813.0</ele>
        <time>2019-10-21T11:21:46Z</time>
      </trkpt>
      <trkpt lat="42.1085720" lon="2.3142810">
        <ele>811.8</ele>
        <time>2019-10-21T11:21:47Z</time>
      </trkpt>
      <trkpt lat="42.1085720" lon="2.3142810">
        <ele>811.2</ele>
        <time>2019-10-21T11:21:48Z</time>
      </trkpt>
      <trkpt lat="42.1085720" lon="2.3142810">
        <ele>810.6</ele>
        <time>2019-10-21T11:21:49Z</time>
      </trkpt>
      <trkpt lat="42.1085720" lon="2.3142810">
        <ele>810.0</ele>
        <time>2019-10-21T11:21:50Z</time>
      </trkpt>
      <trkpt lat="42.1085720" lon="2.3142810">
        <ele>809.6</ele>
        <time>2019-10-21T11:21:51Z</time>
      </trkpt>
      <trkpt lat="42.1085720" lon="2.3142810">
        <ele>809.2</ele>
        <time>2019-10-21T11:21:52Z</time>
      </trkpt>
      <trkpt lat="42.1085720" lon="2.3142810">
        <ele>808.6</ele>
        <time>2019-10-21T11:21:53Z</time>
      </trkpt>
      <trkpt lat="42.1085720" lon="2.3142810">
        <ele>807.6</ele>
        <time>2019-10-21T11:21:54Z</time>
      </trkpt>
      <trkpt lat="42.1085720" lon="2.3142810">
        <ele>806.8</ele>
        <time>2019-10-21T11:21:55Z</time>
      </trkpt>
      <trkpt lat="42.1085850" lon="2.3142630">
        <ele>806.2</ele>
        <time>2019-10-21T11:21:56Z</time>
      </trkpt>
      <trkpt lat="42.1085970" lon="2.3142460">
        <ele>805.4</ele>
        <time>2019-10-21T11:21:57Z</time>
      </trkpt>
      <trkpt lat="42.1086100" lon="2.3142280">
        <ele>805.2</ele>
        <time>2019-10-21T11:21:58Z</time>
      </trkpt>
      <trkpt lat="42.1086220" lon="2.3142110">
        <ele>805.0</ele>
        <time>2019-10-21T11:21:59Z</time>
      </trkpt>
      <trkpt lat="42.1086350" lon="2.3141930">
        <ele>805.0</ele>
        <time>2019-10-21T11:22:00Z</time>
      </trkpt>
      <trkpt lat="42.1086400" lon="2.3142020">
        <ele>804.6</ele>
        <time>2019-10-21T11:22:01Z</time>
      </trkpt>
      <trkpt lat="42.1086450" lon="2.3142110">
        <ele>804.2</ele>
        <time>2019-10-21T11:22:02Z</time>
      </trkpt>
      <trkpt lat="42.1086510" lon="2.3142210">
        <ele>804.0</ele>
        <time>2019-10-21T11:22:03Z</time>
      </trkpt>
      <trkpt lat="42.1086560" lon="2.3142300">
        <ele>804.0</ele>
        <time>2019-10-21T11:22:04Z</time>
      </trkpt>
      <trkpt lat="42.1086610" lon="2.3142390">
        <ele>803.8</ele>
        <time>2019-10-21T11:22:05Z</time>
      </trkpt>
      <trkpt lat="42.1086660" lon="2.3142480">
        <ele>803.2</ele>
        <time>2019-10-21T11:22:06Z</time>
      </trkpt>
      <trkpt lat="42.1086710" lon="2.3142570">
        <ele>803.2</ele>
        <time>2019-10-21T11:22:07Z</time>
      </trkpt>
      <trkpt lat="42.1086760" lon="2.3142660">
        <ele>802.8</ele>
        <time>2019-10-21T11:22:08Z</time>
      </trkpt>
      <trkpt lat="42.1086820" lon="2.3142760">
        <ele>803.4</ele>
        <time>2019-10-21T11:22:09Z</time>
      </trkpt>
      <trkpt lat="42.1086870" lon="2.3142850">
        <ele>803.2</ele>
        <time>2019-10-21T11:22:10Z</time>
      </trkpt>
      <trkpt lat="42.1086920" lon="2.3142940">
        <ele>803.6</ele>
        <time>2019-10-21T11:22:11Z</time>
      </trkpt>
      <trkpt lat="42.1086920" lon="2.3142940">
        <ele>803.4</ele>
        <time>2019-10-21T11:22:12Z</time>
      </trkpt>
      <trkpt lat="42.1086920" lon="2.3142940">
        <ele>803.8</ele>
        <time>2019-10-21T11:22:13Z</time>
      </trkpt>
      <trkpt lat="42.1086920" lon="2.3142940">
        <ele>803.8</ele>
        <time>2019-10-21T11:22:14Z</time>
      </trkpt>
      <trkpt lat="42.1087080" lon="2.3144230">
        <ele>804.0</ele>
        <time>2019-10-21T11:22:15Z</time>
      </trkpt>
      <trkpt lat="42.1087080" lon="2.3144230">
        <ele>804.4</ele>
        <time>2019-10-21T11:22:16Z</time>
      </trkpt>
      <trkpt lat="42.1087080" lon="2.3144230">
        <ele>804.4</ele>
        <time>2019-10-21T11:22:17Z</time>
      </trkpt>
      <trkpt lat="42.1087080" lon="2.3144230">
        <ele>805.2</ele>
        <time>2019-10-21T11:22:18Z</time>
      </trkpt>
      <trkpt lat="42.1087080" lon="2.3144230">
        <ele>805.6</ele>
        <time>2019-10-21T11:22:19Z</time>
      </trkpt>
      <trkpt lat="42.1087080" lon="2.3144230">
        <ele>806.2</ele>
        <time>2019-10-21T11:22:20Z</time>
      </trkpt>
      <trkpt lat="42.1087080" lon="2.3144230">
        <ele>806.2</ele>
        <time>2019-10-21T11:22:21Z</time>
      </trkpt>
      <trkpt lat="42.1087080" lon="2.3145570">
        <ele>806.2</ele>
        <time>2019-10-21T11:22:22Z</time>
      </trkpt>
      <trkpt lat="42.1087080" lon="2.3145570">
        <ele>807.0</ele>
        <time>2019-10-21T11:22:23Z</time>
      </trkpt>
      <trkpt lat="42.1087080" lon="2.3145570">
        <ele>807.6</ele>
        <time>2019-10-21T11:22:24Z</time>
      </trkpt>
      <trkpt lat="42.1087080" lon="2.3145570">
        <ele>808.4</ele>
        <time>2019-10-21T11:22:25Z</time>
      </trkpt>
      <trkpt lat="42.1087080" lon="2.3145570">
        <ele>808.8</ele>
        <time>2019-10-21T11:22:26Z</time>
      </trkpt>
      <trkpt lat="42.1087090" lon="2.3145880">
        <ele>809.0</ele>
        <time>2019-10-21T11:22:27Z</time>
      </trkpt>
      <trkpt lat="42.1087090" lon="2.3146190">
        <ele>809.2</ele>
        <time>2019-10-21T11:22:28Z</time>
      </trkpt>
      <trkpt lat="42.1087100" lon="2.3146510">
        <ele>809.8</ele>
        <time>2019-10-21T11:22:29Z</time>
      </trkpt>
      <trkpt lat="42.1087100" lon="2.3146820">
        <ele>810.2</ele>
        <time>2019-10-21T11:22:30Z</time>
      </trkpt>
      <trkpt lat="42.1087100" lon="2.3147050">
        <ele>810.4</ele>
        <time>2019-10-21T11:22:31Z</time>
      </trkpt>
      <trkpt lat="42.1087110" lon="2.3147280">
        <ele>810.8</ele>
        <time>2019-10-21T11:22:32Z</time>
      </trkpt>
      <trkpt lat="42.1087110" lon="2.3147510">
        <ele>810.8</ele>
        <time>2019-10-21T11:22:33Z</time>
      </trkpt>
      <trkpt lat="42.1087110" lon="2.3147740">
        <ele>811.2</ele>
        <time>2019-10-21T11:22:34Z</time>
      </trkpt>
      <trkpt lat="42.1087120" lon="2.3147970">
        <ele>811.2</ele>
        <time>2019-10-21T11:22:35Z</time>
      </trkpt>
      <trkpt lat="42.1087120" lon="2.3148200">
        <ele>811.4</ele>
        <time>2019-10-21T11:22:36Z</time>
      </trkpt>
      <trkpt lat="42.1087110" lon="2.3148320">
        <ele>812.2</ele>
        <time>2019-10-21T11:22:37Z</time>
      </trkpt>
      <trkpt lat="42.1087100" lon="2.3148440">
        <ele>812.6</ele>
        <time>2019-10-21T11:22:38Z</time>
      </trkpt>
      <trkpt lat="42.1087090" lon="2.3148560">
        <ele>812.6</ele>
        <time>2019-10-21T11:22:39Z</time>
      </trkpt>
      <trkpt lat="42.1087090" lon="2.3148680">
        <ele>812.8</ele>
        <time>2019-10-21T11:22:40Z</time>
      </trkpt>
      <trkpt lat="42.1087080" lon="2.3148800">
        <ele>813.6</ele>
        <time>2019-10-21T11:22:41Z</time>
      </trkpt>
      <trkpt lat="42.1087070" lon="2.3148920">
        <ele>813.8</ele>
        <time>2019-10-21T11:22:42Z</time>
      </trkpt>
      <trkpt lat="42.1087060" lon="2.3149040">
        <ele>814.0</ele>
        <time>2019-10-21T11:22:43Z</time>
      </trkpt>
      <trkpt lat="42.1087050" lon="2.3149160">
        <ele>815.0</ele>
        <time>2019-10-21T11:22:44Z</time>
      </trkpt>
      <trkpt lat="42.1087040" lon="2.3149280">
        <ele>815.2</ele>
        <time>2019-10-21T11:22:45Z</time>
      </trkpt>
      <trkpt lat="42.1087040" lon="2.3149400">
        <ele>815.4</ele>
        <time>2019-10-21T11:22:46Z</time>
      </trkpt>
      <trkpt lat="42.1087030" lon="2.3149520">
        <ele>816.0</ele>
        <time>2019-10-21T11:22:47Z</time>
      </trkpt>
      <trkpt lat="42.1087020" lon="2.3149640">
        <ele>816.4</ele>
        <time>2019-10-21T11:22:48Z</time>
      </trkpt>
      <trkpt lat="42.1087010" lon="2.3149760">
        <ele>816.8</ele>
        <time>2019-10-21T11:22:49Z</time>
      </trkpt>
      <trkpt lat="42.1087020" lon="2.3149800">
        <ele>817.0</ele>
        <time>2019-10-21T11:22:50Z</time>
      </trkpt>
      <trkpt lat="42.1087040" lon="2.3149840">
        <ele>817.6</ele>
        <time>2019-10-21T11:22:51Z</time>
      </trkpt>
      <trkpt lat="42.1087050" lon="2.3149880">
        <ele>818.0</ele>
        <time>2019-10-21T11:22:52Z</time>
      </trkpt>
      <trkpt lat="42.1087070" lon="2.3149920">
        <ele>818.4</ele>
        <time>2019-10-21T11:22:53Z</time>
      </trkpt>
      <trkpt lat="42.1087080" lon="2.3149960">
        <ele>819.0</ele>
        <time>2019-10-21T11:22:54Z</time>
      </trkpt>
      <trkpt lat="42.1087100" lon="2.3149990">
        <ele>819.6</ele>
        <time>2019-10-21T11:22:55Z</time>
      </trkpt>
      <trkpt lat="42.1087110" lon="2.3150030">
        <ele>819.8</ele>
        <time>2019-10-21T11:22:56Z</time>
      </trkpt>
      <trkpt lat="42.1087130" lon="2.3150070">
        <ele>820.2</ele>
        <time>2019-10-21T11:22:57Z</time>
      </trkpt>
      <trkpt lat="42.1087140" lon="2.3150110">
        <ele>820.6</ele>
        <time>2019-10-21T11:22:58Z</time>
      </trkpt>
      <trkpt lat="42.1087160" lon="2.3150150">
        <ele>820.8</ele>
        <time>2019-10-21T11:22:59Z</time>
      </trkpt>
      <trkpt lat="42.1087170" lon="2.3150190">
        <ele>821.0</ele>
        <time>2019-10-21T11:23:00Z</time>
      </trkpt>
      <trkpt lat="42.1087130" lon="2.3150060">
        <ele>821.8</ele>
        <time>2019-10-21T11:23:01Z</time>
      </trkpt>
      <trkpt lat="42.1087090" lon="2.3149920">
        <ele>822.2</ele>
        <time>2019-10-21T11:23:02Z</time>
      </trkpt>
      <trkpt lat="42.1087050" lon="2.3149790">
        <ele>822.0</ele>
        <time>2019-10-21T11:23:03Z</time>
      </trkpt>
      <trkpt lat="42.1087010" lon="2.3149650">
        <ele>822.6</ele>
        <time>2019-10-21T11:23:04Z</time>
      </trkpt>
      <trkpt lat="42.1086970" lon="2.3149520">
        <ele>822.8</ele>
        <time>2019-10-21T11:23:05Z</time>
      </trkpt>
      <trkpt lat="42.1087000" lon="2.3149160">
        <ele>823.0</ele>
        <time>2019-10-21T11:23:06Z</time>
      </trkpt>
      <trkpt lat="42.1087000" lon="2.3149160">
        <ele>823.2</ele>
        <time>2019-10-21T11:23:07Z</time>
      </trkpt>
      <trkpt lat="42.1087000" lon="2.3149160">
        <ele>823.4</ele>
        <time>2019-10-21T11:23:08Z</time>
      </trkpt>
      <trkpt lat="42.1087000" lon="2.3149160">
        <ele>824.2</ele>
        <time>2019-10-21T11:23:09Z</time>
      </trkpt>
      <trkpt lat="42.1087000" lon="2.3149160">
        <ele>824.4</ele>
        <time>2019-10-21T11:23:10Z</time>
      </trkpt>
      <trkpt lat="42.1087000" lon="2.3149160">
        <ele>824.6</ele>
        <time>2019-10-21T11:23:11Z</time>
      </trkpt>
      <trkpt lat="42.1087000" lon="2.3149160">
        <ele>825.0</ele>
        <time>2019-10-21T11:23:12Z</time>
      </trkpt>
      <trkpt lat="42.1087000" lon="2.3149160">
        <ele>825.0</ele>
        <time>2019-10-21T11:23:13Z</time>
      </trkpt>
      <trkpt lat="42.1087000" lon="2.3149160">
        <ele>825.4</ele>
        <time>2019-10-21T11:23:14Z</time>
      </trkpt>
      <trkpt lat="42.1087000" lon="2.3149160">
        <ele>825.6</ele>
        <time>2019-10-21T11:23:15Z</time>
      </trkpt>
      <trkpt lat="42.1087000" lon="2.3149160">
        <ele>826.0</ele>
        <time>2019-10-21T11:23:16Z</time>
      </trkpt>
      <trkpt lat="42.1087000" lon="2.3149160">
        <ele>826.0</ele>
        <time>2019-10-21T11:23:17Z</time>
      </trkpt>
      <trkpt lat="42.1087000" lon="2.3149160">
        <ele>826.8</ele>
        <time>2019-10-21T11:23:18Z</time>
      </trkpt>
      <trkpt lat="42.1087000" lon="2.3149160">
        <ele>827.0</ele>
        <time>2019-10-21T11:23:19Z</time>
      </trkpt>
      <trkpt lat="42.1087000" lon="2.3149160">
        <ele>827.4</ele>
        <time>2019-10-21T11:23:20Z</time>
      </trkpt>
      <trkpt lat="42.1087000" lon="2.3149160">
        <ele>827.4</ele>
        <time>2019-10-21T11:23:21Z</time>
      </trkpt>
      <trkpt lat="42.1087000" lon="2.3149160">
        <ele>827.6</ele>
        <time>2019-10-21T11:23:22Z</time>
      </trkpt>
      <trkpt lat="42.1087000" lon="2.3149160">
        <ele>828.4</ele>
        <time>2019-10-21T11:23:23Z</time>
      </trkpt>
      <trkpt lat="42.1087000" lon="2.3149160">
        <ele>828.6</ele>
        <time>2019-10-21T11:23:24Z</time>
      </trkpt>
      <trkpt lat="42.1087000" lon="2.3149160">
        <ele>829.0</ele>
        <time>2019-10-21T11:23:25Z</time>
      </trkpt>
      <trkpt lat="42.1087000" lon="2.3149160">
        <ele>829.2</ele>
        <time>2019-10-21T11:23:26Z</time>
      </trkpt>
      <trkpt lat="42.1087000" lon="2.3149160">
        <ele>829.8</ele>
        <time>2019-10-21T11:23:27Z</time>
      </trkpt>
      <trkpt lat="42.1087000" lon="2.3149160">
        <ele>830.0</ele>
        <time>2019-10-21T11:23:28Z</time>
      </trkpt>
      <trkpt lat="42.1087000" lon="2.3149160">
        <ele>830.0</ele>
        <time>2019-10-21T11:23:29Z</time>
      </trkpt>
      <trkpt lat="42.1087000" lon="2.3149160">
        <ele>830.0</ele>
        <time>2019-10-21T11:23:30Z</time>
      </trkpt>
      <trkpt lat="42.1087000" lon="2.3149160">
        <ele>830.0</ele>
        <time>2019-10-21T11:23:31Z</time>
      </trkpt>
      <trkpt lat="42.1087000" lon="2.3149160">
        <ele>830.2</ele>
        <time>2019-10-21T11:23:32Z</time>
      </trkpt>
      <trkpt lat="42.1087000" lon="2.3149160">
        <ele>830.2</ele>
        <time>2019-10-21T11:23:33Z</time>
      </trkpt>
      <trkpt lat="42.1087000" lon="2.3149160">
        <ele>830.4</ele>
        <time>2019-10-21T11:23:34Z</time>
      </trkpt>
      <trkpt lat="42.1087000" lon="2.3149160">
        <ele>830.6</ele>
        <time>2019-10-21T11:23:35Z</time>
      </trkpt>
      <trkpt lat="42.1087000" lon="2.3149160">
        <ele>830.6</ele>
        <time>2019-10-21T11:23:36Z</time>
      </trkpt>
      <trkpt lat="42.1087000" lon="2.3149160">
        <ele>830.8</ele>
        <time>2019-10-21T11:23:37Z</time>
      </trkpt>
      <trkpt lat="42.1087000" lon="2.3149160">
        <ele>831.0</ele>
        <time>2019-10-21T11:23:38Z</time>
      </trkpt>
      <trkpt lat="42.1087000" lon="2.3149160">
        <ele>831.0</ele>
        <time>2019-10-21T11:23:39Z</time>
      </trkpt>
      <trkpt lat="42.1087000" lon="2.3148790">
        <ele>830.8</ele>
        <time>2019-10-21T11:23:40Z</time>
      </trkpt>
      <trkpt lat="42.1087000" lon="2.3148790">
        <ele>830.8</ele>
        <time>2019-10-21T11:23:41Z</time>
      </trkpt>
      <trkpt lat="42.1086950" lon="2.3148460">
        <ele>830.8</ele>
        <time>2019-10-21T11:23:42Z</time>
      </trkpt>
      <trkpt lat="42.1086900" lon="2.3148180">
        <ele>830.6</ele>
        <time>2019-10-21T11:23:43Z</time>
      </trkpt>
      <trkpt lat="42.1086900" lon="2.3148180">
        <ele>830.6</ele>
        <time>2019-10-21T11:23:44Z</time>
      </trkpt>
      <trkpt lat="42.1086900" lon="2.3148180">
        <ele>830.6</ele>
        <time>2019-10-21T11:23:45Z</time>
      </trkpt>
      <trkpt lat="42.1086900" lon="2.3148180">
        <ele>830.8</ele>
        <time>2019-10-21T11:23:46Z</time>
      </trkpt>
      <trkpt lat="42.1086900" lon="2.3148180">
        <ele>831.2</ele>
        <time>2019-10-21T11:23:47Z</time>
      </trkpt>
      <trkpt lat="42.1086880" lon="2.3146940">
        <ele>831.4</ele>
        <time>2019-10-21T11:23:48Z</time>
      </trkpt>
      <trkpt lat="42.1086880" lon="2.3146940">
        <ele>831.4</ele>
        <time>2019-10-21T11:23:49Z</time>
      </trkpt>
      <trkpt lat="42.1086880" lon="2.3146940">
        <ele>831.4</ele>
        <time>2019-10-21T11:23:50Z</time>
      </trkpt>
      <trkpt lat="42.1086880" lon="2.3146940">
        <ele>831.2</ele>
        <time>2019-10-21T11:23:51Z</time>
      </trkpt>
      <trkpt lat="42.1087020" lon="2.3145630">
        <ele>831.2</ele>
        <time>2019-10-21T11:23:52Z</time>
      </trkpt>
      <trkpt lat="42.1087020" lon="2.3145630">
        <ele>831.0</ele>
        <time>2019-10-21T11:23:53Z</time>
      </trkpt>
      <trkpt lat="42.1087020" lon="2.3145630">
        <ele>830.8</ele>
        <time>2019-10-21T11:23:54Z</time>
      </trkpt>
      <trkpt lat="42.1087020" lon="2.3145630">
        <ele>830.8</ele>
        <time>2019-10-21T11:23:55Z</time>
      </trkpt>
      <trkpt lat="42.1087020" lon="2.3145630">
        <ele>831.0</ele>
        <time>2019-10-21T11:23:56Z</time>
      </trkpt>
      <trkpt lat="42.1086800" lon="2.3144290">
        <ele>831.0</ele>
        <time>2019-10-21T11:23:57Z</time>
      </trkpt>
      <trkpt lat="42.1086800" lon="2.3144290">
        <ele>830.8</ele>
        <time>2019-10-21T11:23:58Z</time>
      </trkpt>
      <trkpt lat="42.1086800" lon="2.3144290">
        <ele>830.2</ele>
        <time>2019-10-21T11:23:59Z</time>
      </trkpt>
      <trkpt lat="42.1086800" lon="2.3144290">
        <ele>830.0</ele>
        <time>2019-10-21T11:24:00Z</time>
      </trkpt>
      <trkpt lat="42.1086800" lon="2.3144290">
        <ele>829.8</ele>
        <time>2019-10-21T11:24:01Z</time>
      </trkpt>
      <trkpt lat="42.1086800" lon="2.3144290">
        <ele>829.6</ele>
        <time>2019-10-21T11:24:02Z</time>
      </trkpt>
      <trkpt lat="42.1086800" lon="2.3144290">
        <ele>829.4</ele>
        <time>2019-10-21T11:24:03Z</time>
      </trkpt>
      <trkpt lat="42.1086570" lon="2.3143100">
        <ele>829.0</ele>
        <time>2019-10-21T11:24:04Z</time>
      </trkpt>
      <trkpt lat="42.1086570" lon="2.3143100">
        <ele>829.0</ele>
        <time>2019-10-21T11:24:05Z</time>
      </trkpt>
      <trkpt lat="42.1086570" lon="2.3143100">
        <ele>829.0</ele>
        <time>2019-10-21T11:24:06Z</time>
      </trkpt>
      <trkpt lat="42.1086570" lon="2.3143100">
        <ele>829.2</ele>
        <time>2019-10-21T11:24:07Z</time>
      </trkpt>
      <trkpt lat="42.1086570" lon="2.3143100">
        <ele>829.0</ele>
        <time>2019-10-21T11:24:08Z</time>
      </trkpt>
      <trkpt lat="42.1086570" lon="2.3143100">
        <ele>829.0</ele>
        <time>2019-10-21T11:24:09Z</time>
      </trkpt>
      <trkpt lat="42.1085940" lon="2.3142110">
        <ele>829.0</ele>
        <time>2019-10-21T11:24:10Z</time>
      </trkpt>
      <trkpt lat="42.1085940" lon="2.3142110">
        <ele>829.0</ele>
        <time>2019-10-21T11:24:11Z</time>
      </trkpt>
      <trkpt lat="42.1085940" lon="2.3142110">
        <ele>829.0</ele>
        <time>2019-10-21T11:24:12Z</time>
      </trkpt>
      <trkpt lat="42.1085940" lon="2.3142110">
        <ele>829.0</ele>
        <time>2019-10-21T11:24:13Z</time>
      </trkpt>
      <trkpt lat="42.1085940" lon="2.3142110">
        <ele>828.8</ele>
        <time>2019-10-21T11:24:14Z</time>
      </trkpt>
      <trkpt lat="42.1085940" lon="2.3142110">
        <ele>828.8</ele>
        <time>2019-10-21T11:24:15Z</time>
      </trkpt>
      <trkpt lat="42.1085940" lon="2.3142110">
        <ele>829.0</ele>
        <time>2019-10-21T11:24:16Z</time>
      </trkpt>
      <trkpt lat="42.1085940" lon="2.3142110">
        <ele>829.0</ele>
        <time>2019-10-21T11:24:17Z</time>
      </trkpt>
      <trkpt lat="42.1085940" lon="2.3142110">
        <ele>829.0</ele>
        <time>2019-10-21T11:24:18Z</time>
      </trkpt>
      <trkpt lat="42.1085820" lon="2.3143470">
        <ele>829.0</ele>
        <time>2019-10-21T11:24:19Z</time>
      </trkpt>
      <trkpt lat="42.1085820" lon="2.3143470">
        <ele>829.0</ele>
        <time>2019-10-21T11:24:20Z</time>
      </trkpt>
      <trkpt lat="42.1085820" lon="2.3143470">
        <ele>829.0</ele>
        <time>2019-10-21T11:24:21Z</time>
      </trkpt>
      <trkpt lat="42.1085820" lon="2.3143470">
        <ele>829.0</ele>
        <time>2019-10-21T11:24:22Z</time>
      </trkpt>
      <trkpt lat="42.1085820" lon="2.3143470">
        <ele>829.2</ele>
        <time>2019-10-21T11:24:23Z</time>
      </trkpt>
      <trkpt lat="42.1085820" lon="2.3143470">
        <ele>829.0</ele>
        <time>2019-10-21T11:24:24Z</time>
      </trkpt>
      <trkpt lat="42.1085820" lon="2.3143470">
        <ele>828.8</ele>
        <time>2019-10-21T11:24:25Z</time>
      </trkpt>
      <trkpt lat="42.1085820" lon="2.3143470">
        <ele>829.0</ele>
        <time>2019-10-21T11:24:26Z</time>
      </trkpt>
      <trkpt lat="42.1085310" lon="2.3142210">
        <ele>829.0</ele>
        <time>2019-10-21T11:24:27Z</time>
      </trkpt>
      <trkpt lat="42.1085310" lon="2.3142210">
        <ele>828.8</ele>
        <time>2019-10-21T11:24:28Z</time>
      </trkpt>
      <trkpt lat="42.1085310" lon="2.3142210">
        <ele>829.0</ele>
        <time>2019-10-21T11:24:29Z</time>
      </trkpt>
      <trkpt lat="42.1085160" lon="2.3140750">
        <ele>829.0</ele>
        <time>2019-10-21T11:24:30Z</time>
      </trkpt>
      <trkpt lat="42.1085160" lon="2.3140750">
        <ele>829.0</ele>
        <time>2019-10-21T11:24:31Z</time>
      </trkpt>
      <trkpt lat="42.1085160" lon="2.3140750">
        <ele>829.2</ele>
        <time>2019-10-21T11:24:32Z</time>
      </trkpt>
      <trkpt lat="42.1085270" lon="2.3139540">
        <ele>828.6</ele>
        <time>2019-10-21T11:24:33Z</time>
      </trkpt>
      <trkpt lat="42.1085230" lon="2.3139300">
        <ele>828.8</ele>
        <time>2019-10-21T11:24:34Z</time>
      </trkpt>
      <trkpt lat="42.1085190" lon="2.3139060">
        <ele>828.4</ele>
        <time>2019-10-21T11:24:35Z</time>
      </trkpt>
      <trkpt lat="42.1085140" lon="2.3138810">
        <ele>828.4</ele>
        <time>2019-10-21T11:24:36Z</time>
      </trkpt>
      <trkpt lat="42.1085100" lon="2.3138570">
        <ele>828.6</ele>
        <time>2019-10-21T11:24:37Z</time>
      </trkpt>
      <trkpt lat="42.1085060" lon="2.3138330">
        <ele>827.6</ele>
        <time>2019-10-21T11:24:38Z</time>
      </trkpt>
      <trkpt lat="42.1085000" lon="2.3137930">
        <ele>827.2</ele>
        <time>2019-10-21T11:24:39Z</time>
      </trkpt>
      <trkpt lat="42.1084940" lon="2.3137540">
        <ele>827.2</ele>
        <time>2019-10-21T11:24:40Z</time>
      </trkpt>
      <trkpt lat="42.1084880" lon="2.3137140">
        <ele>826.4</ele>
        <time>2019-10-21T11:24:41Z</time>
      </trkpt>
      <trkpt lat="42.1084820" lon="2.3136750">
        <ele>826.4</ele>
        <time>2019-10-21T11:24:42Z</time>
      </trkpt>
      <trkpt lat="42.1084200" lon="2.3135330">
        <ele>825.6</ele>
        <time>2019-10-21T11:24:43Z</time>
      </trkpt>
      <trkpt lat="42.1084090" lon="2.3135110">
        <ele>825.6</ele>
        <time>2019-10-21T11:24:44Z</time>
      </trkpt>
      <trkpt lat="42.1083970" lon="2.3134900">
        <ele>825.0</ele>
        <time>2019-10-21T11:24:45Z</time>
      </trkpt>
      <trkpt lat="42.1083860" lon="2.3134680">
        <ele>824.6</ele>
        <time>2019-10-21T11:24:46Z</time>
      </trkpt>
      <trkpt lat="42.1083740" lon="2.3134460">
        <ele>824.4</ele>
        <time>2019-10-21T11:24:47Z</time>
      </trkpt>
      <trkpt lat="42.1083620" lon="2.3134340">
        <ele>823.8</ele>
        <time>2019-10-21T11:24:48Z</time>
      </trkpt>
      <trkpt lat="42.1083510" lon="2.3134230">
        <ele>823.6</ele>
        <time>2019-10-21T11:24:49Z</time>
      </trkpt>
      <trkpt lat="42.1083390" lon="2.3134110">
        <ele>823.4</ele>
        <time>2019-10-21T11:24:50Z</time>
      </trkpt>
      <trkpt lat="42.1083280" lon="2.3133990">
        <ele>823.0</ele>
        <time>2019-10-21T11:24:51Z</time>
      </trkpt>
      <trkpt lat="42.1083160" lon="2.3133870">
        <ele>822.8</ele>
        <time>2019-10-21T11:24:52Z</time>
      </trkpt>
      <trkpt lat="42.1083050" lon="2.3133760">
        <ele>822.4</ele>
        <time>2019-10-21T11:24:53Z</time>
      </trkpt>
      <trkpt lat="42.1082930" lon="2.3133640">
        <ele>821.8</ele>
        <time>2019-10-21T11:24:54Z</time>
      </trkpt>
      <trkpt lat="42.1081970" lon="2.3132960">
        <ele>821.8</ele>
        <time>2019-10-21T11:24:55Z</time>
      </trkpt>
      <trkpt lat="42.1081810" lon="2.3132970">
        <ele>821.2</ele>
        <time>2019-10-21T11:24:56Z</time>
      </trkpt>
      <trkpt lat="42.1081650" lon="2.3132970">
        <ele>820.6</ele>
        <time>2019-10-21T11:24:57Z</time>
      </trkpt>
      <trkpt lat="42.1081480" lon="2.3132970">
        <ele>820.4</ele>
        <time>2019-10-21T11:24:58Z</time>
      </trkpt>
      <trkpt lat="42.1081320" lon="2.3132980">
        <ele>820.0</ele>
        <time>2019-10-21T11:24:59Z</time>
      </trkpt>
      <trkpt lat="42.1081160" lon="2.3132980">
        <ele>819.6</ele>
        <time>2019-10-21T11:25:00Z</time>
      </trkpt>
      <trkpt lat="42.1080920" lon="2.3132910">
        <ele>819.4</ele>
        <time>2019-10-21T11:25:01Z</time>
      </trkpt>
      <trkpt lat="42.1080680" lon="2.3132840">
        <ele>818.6</ele>
        <time>2019-10-21T11:25:02Z</time>
      </trkpt>
      <trkpt lat="42.1080440" lon="2.3132760">
        <ele>818.4</ele>
        <time>2019-10-21T11:25:03Z</time>
      </trkpt>
      <trkpt lat="42.1080200" lon="2.3132690">
        <ele>818.0</ele>
        <time>2019-10-21T11:25:04Z</time>
      </trkpt>
      <trkpt lat="42.1079960" lon="2.3132620">
        <ele>817.6</ele>
        <time>2019-10-21T11:25:05Z</time>
      </trkpt>
      <trkpt lat="42.1079720" lon="2.3132550">
        <ele>817.0</ele>
        <time>2019-10-21T11:25:06Z</time>
      </trkpt>
      <trkpt lat="42.1079480" lon="2.3132470">
        <ele>816.6</ele>
        <time>2019-10-21T11:25:07Z</time>
      </trkpt>
      <trkpt lat="42.1079240" lon="2.3132400">
        <ele>815.4</ele>
        <time>2019-10-21T11:25:08Z</time>
      </trkpt>
      <trkpt lat="42.1079000" lon="2.3132330">
        <ele>814.8</ele>
        <time>2019-10-21T11:25:09Z</time>
      </trkpt>
      <trkpt lat="42.1078890" lon="2.3132340">
        <ele>814.6</ele>
        <time>2019-10-21T11:25:10Z</time>
      </trkpt>
      <trkpt lat="42.1078770" lon="2.3132360">
        <ele>814.2</ele>
        <time>2019-10-21T11:25:11Z</time>
      </trkpt>
      <trkpt lat="42.1078660" lon="2.3132370">
        <ele>813.8</ele>
        <time>2019-10-21T11:25:12Z</time>
      </trkpt>
      <trkpt lat="42.1078540" lon="2.3132390">
        <ele>813.2</ele>
        <time>2019-10-21T11:25:13Z</time>
      </trkpt>
      <trkpt lat="42.1078430" lon="2.3132400">
        <ele>813.2</ele>
        <time>2019-10-21T11:25:14Z</time>
      </trkpt>
      <trkpt lat="42.1078310" lon="2.3132410">
        <ele>812.6</ele>
        <time>2019-10-21T11:25:15Z</time>
      </trkpt>
      <trkpt lat="42.1078200" lon="2.3132430">
        <ele>812.2</ele>
        <time>2019-10-21T11:25:16Z</time>
      </trkpt>
      <trkpt lat="42.1078080" lon="2.3132440">
        <ele>812.4</ele>
        <time>2019-10-21T11:25:17Z</time>
      </trkpt>
      <trkpt lat="42.1078080" lon="2.3132440">
        <ele>811.8</ele>
        <time>2019-10-21T11:25:18Z</time>
      </trkpt>
      <trkpt lat="42.1078080" lon="2.3132440">
        <ele>811.6</ele>
        <time>2019-10-21T11:25:19Z</time>
      </trkpt>
      <trkpt lat="42.1078080" lon="2.3132440">
        <ele>810.8</ele>
        <time>2019-10-21T11:25:20Z</time>
      </trkpt>
      <trkpt lat="42.1078080" lon="2.3132440">
        <ele>810.8</ele>
        <time>2019-10-21T11:25:21Z</time>
      </trkpt>
      <trkpt lat="42.1078080" lon="2.3132440">
        <ele>810.0</ele>
        <time>2019-10-21T11:25:22Z</time>
      </trkpt>
      <trkpt lat="42.1078080" lon="2.3132440">
        <ele>809.4</ele>
        <time>2019-10-21T11:25:23Z</time>
      </trkpt>
      <trkpt lat="42.1078080" lon="2.3132440">
        <ele>809.0</ele>
        <time>2019-10-21T11:25:24Z</time>
      </trkpt>
      <trkpt lat="42.1078080" lon="2.3132440">
        <ele>808.4</ele>
        <time>2019-10-21T11:25:25Z</time>
      </trkpt>
      <trkpt lat="42.1078080" lon="2.3132440">
        <ele>807.8</ele>
        <time>2019-10-21T11:25:26Z</time>
      </trkpt>
      <trkpt lat="42.1077960" lon="2.3132510">
        <ele>807.2</ele>
        <time>2019-10-21T11:25:27Z</time>
      </trkpt>
      <trkpt lat="42.1077850" lon="2.3132590">
        <ele>806.4</ele>
        <time>2019-10-21T11:25:28Z</time>
      </trkpt>
      <trkpt lat="42.1077730" lon="2.3132660">
        <ele>805.4</ele>
        <time>2019-10-21T11:25:29Z</time>
      </trkpt>
      <trkpt lat="42.1077610" lon="2.3132730">
        <ele>804.4</ele>
        <time>2019-10-21T11:25:30Z</time>
      </trkpt>
      <trkpt lat="42.1077130" lon="2.3133010">
        <ele>804.0</ele>
        <time>2019-10-21T11:25:31Z</time>
      </trkpt>
      <trkpt lat="42.1077130" lon="2.3133010">
        <ele>803.8</ele>
        <time>2019-10-21T11:25:32Z</time>
      </trkpt>
      <trkpt lat="42.1077130" lon="2.3133010">
        <ele>803.4</ele>
        <time>2019-10-21T11:25:33Z</time>
      </trkpt>
      <trkpt lat="42.1076810" lon="2.3133210">
        <ele>803.2</ele>
        <time>2019-10-21T11:25:34Z</time>
      </trkpt>
      <trkpt lat="42.1076490" lon="2.3133420">
        <ele>803.0</ele>
        <time>2019-10-21T11:25:35Z</time>
      </trkpt>
      <trkpt lat="42.1076170" lon="2.3133620">
        <ele>802.8</ele>
        <time>2019-10-21T11:25:36Z</time>
      </trkpt>
      <trkpt lat="42.1075930" lon="2.3133840">
        <ele>802.8</ele>
        <time>2019-10-21T11:25:37Z</time>
      </trkpt>
      <trkpt lat="42.1075690" lon="2.3134060">
        <ele>803.0</ele>
        <time>2019-10-21T11:25:38Z</time>
      </trkpt>
      <trkpt lat="42.1075440" lon="2.3134280">
        <ele>803.0</ele>
        <time>2019-10-21T11:25:39Z</time>
      </trkpt>
      <trkpt lat="42.1075200" lon="2.3134500">
        <ele>803.0</ele>
        <time>2019-10-21T11:25:40Z</time>
      </trkpt>
      <trkpt lat="42.1075200" lon="2.3134500">
        <ele>802.8</ele>
        <time>2019-10-21T11:25:41Z</time>
      </trkpt>
      <trkpt lat="42.1075200" lon="2.3134500">
        <ele>802.6</ele>
        <time>2019-10-21T11:25:42Z</time>
      </trkpt>
      <trkpt lat="42.1075200" lon="2.3134500">
        <ele>802.0</ele>
        <time>2019-10-21T11:25:43Z</time>
      </trkpt>
      <trkpt lat="42.1075200" lon="2.3134500">
        <ele>802.0</ele>
        <time>2019-10-21T11:25:44Z</time>
      </trkpt>
      <trkpt lat="42.1075200" lon="2.3134500">
        <ele>801.4</ele>
        <time>2019-10-21T11:25:45Z</time>
      </trkpt>
      <trkpt lat="42.1075080" lon="2.3134280">
        <ele>801.6</ele>
        <time>2019-10-21T11:25:46Z</time>
      </trkpt>
      <trkpt lat="42.1074950" lon="2.3134060">
        <ele>801.4</ele>
        <time>2019-10-21T11:25:47Z</time>
      </trkpt>
      <trkpt lat="42.1074830" lon="2.3133850">
        <ele>801.2</ele>
        <time>2019-10-21T11:25:48Z</time>
      </trkpt>
      <trkpt lat="42.1074700" lon="2.3133630">
        <ele>800.6</ele>
        <time>2019-10-21T11:25:49Z</time>
      </trkpt>
      <trkpt lat="42.1074580" lon="2.3133410">
        <ele>801.0</ele>
        <time>2019-10-21T11:25:50Z</time>
      </trkpt>
      <trkpt lat="42.1074580" lon="2.3133410">
        <ele>800.6</ele>
        <time>2019-10-21T11:25:51Z</time>
      </trkpt>
      <trkpt lat="42.1074580" lon="2.3133410">
        <ele>800.4</ele>
        <time>2019-10-21T11:25:52Z</time>
      </trkpt>
      <trkpt lat="42.1074580" lon="2.3133410">
        <ele>799.6</ele>
        <time>2019-10-21T11:25:53Z</time>
      </trkpt>
      <trkpt lat="42.1074580" lon="2.3133410">
        <ele>798.8</ele>
        <time>2019-10-21T11:25:54Z</time>
      </trkpt>
      <trkpt lat="42.1074580" lon="2.3133410">
        <ele>798.8</ele>
        <time>2019-10-21T11:25:55Z</time>
      </trkpt>
      <trkpt lat="42.1074580" lon="2.3133410">
        <ele>798.4</ele>
        <time>2019-10-21T11:25:56Z</time>
      </trkpt>
      <trkpt lat="42.1074580" lon="2.3133410">
        <ele>798.6</ele>
        <time>2019-10-21T11:25:57Z</time>
      </trkpt>
      <trkpt lat="42.1074580" lon="2.3133410">
        <ele>798.2</ele>
        <time>2019-10-21T11:25:58Z</time>
      </trkpt>
      <trkpt lat="42.1074580" lon="2.3133410">
        <ele>798.4</ele>
        <time>2019-10-21T11:25:59Z</time>
      </trkpt>
      <trkpt lat="42.1074580" lon="2.3133410">
        <ele>798.0</ele>
        <time>2019-10-21T11:26:00Z</time>
      </trkpt>
      <trkpt lat="42.1074580" lon="2.3133410">
        <ele>797.8</ele>
        <time>2019-10-21T11:26:01Z</time>
      </trkpt>
      <trkpt lat="42.1074580" lon="2.3133410">
        <ele>797.6</ele>
        <time>2019-10-21T11:26:02Z</time>
      </trkpt>
      <trkpt lat="42.1074580" lon="2.3133410">
        <ele>797.4</ele>
        <time>2019-10-21T11:26:03Z</time>
      </trkpt>
      <trkpt lat="42.1074580" lon="2.3133410">
        <ele>797.6</ele>
        <time>2019-10-21T11:26:04Z</time>
      </trkpt>
      <trkpt lat="42.1074580" lon="2.3133410">
        <ele>797.8</ele>
        <time>2019-10-21T11:26:05Z</time>
      </trkpt>
      <trkpt lat="42.1074580" lon="2.3133410">
        <ele>797.6</ele>
        <time>2019-10-21T11:26:06Z</time>
      </trkpt>
      <trkpt lat="42.1074550" lon="2.3133420">
        <ele>797.6</ele>
        <time>2019-10-21T11:26:07Z</time>
      </trkpt>
      <trkpt lat="42.1074520" lon="2.3133440">
        <ele>797.6</ele>
        <time>2019-10-21T11:26:08Z</time>
      </trkpt>
      <trkpt lat="42.1074480" lon="2.3133450">
        <ele>797.6</ele>
        <time>2019-10-21T11:26:09Z</time>
      </trkpt>
      <trkpt lat="42.1074450" lon="2.3133460">
        <ele>797.6</ele>
        <time>2019-10-21T11:26:10Z</time>
      </trkpt>
      <trkpt lat="42.1074420" lon="2.3133480">
        <ele>797.4</ele>
        <time>2019-10-21T11:26:11Z</time>
      </trkpt>
      <trkpt lat="42.1074390" lon="2.3133490">
        <ele>797.2</ele>
        <time>2019-10-21T11:26:12Z</time>
      </trkpt>
      <trkpt lat="42.1074360" lon="2.3133510">
        <ele>797.2</ele>
        <time>2019-10-21T11:26:13Z</time>
      </trkpt>
      <trkpt lat="42.1074320" lon="2.3133520">
        <ele>797.2</ele>
        <time>2019-10-21T11:26:14Z</time>
      </trkpt>
      <trkpt lat="42.1074290" lon="2.3133530">
        <ele>796.6</ele>
        <time>2019-10-21T11:26:15Z</time>
      </trkpt>
      <trkpt lat="42.1074260" lon="2.3133550">
        <ele>796.6</ele>
        <time>2019-10-21T11:26:16Z</time>
      </trkpt>
      <trkpt lat="42.1074230" lon="2.3133560">
        <ele>796.0</ele>
        <time>2019-10-21T11:26:17Z</time>
      </trkpt>
      <trkpt lat="42.1074190" lon="2.3133570">
        <ele>796.0</ele>
        <time>2019-10-21T11:26:18Z</time>
      </trkpt>
      <trkpt lat="42.1074160" lon="2.3133590">
        <ele>795.4</ele>
        <time>2019-10-21T11:26:19Z</time>
      </trkpt>
      <trkpt lat="42.1074130" lon="2.3133600">
        <ele>794.2</ele>
        <time>2019-10-21T11:26:20Z</time>
      </trkpt>
      <trkpt lat="42.1073670" lon="2.3133780">
        <ele>793.4</ele>
        <time>2019-10-21T11:26:21Z</time>
      </trkpt>
      <trkpt lat="42.1073670" lon="2.3133780">
        <ele>793.2</ele>
        <time>2019-10-21T11:26:22Z</time>
      </trkpt>
      <trkpt lat="42.1073670" lon="2.3133780">
        <ele>792.4</ele>
        <time>2019-10-21T11:26:23Z</time>
      </trkpt>
      <trkpt lat="42.1073670" lon="2.3133780">
        <ele>792.2</ele>
        <time>2019-10-21T11:26:24Z</time>
      </trkpt>
      <trkpt lat="42.1073670" lon="2.3133780">
        <ele>791.4</ele>
        <time>2019-10-21T11:26:25Z</time>
      </trkpt>
      <trkpt lat="42.1072510" lon="2.3133870">
        <ele>791.0</ele>
        <time>2019-10-21T11:26:26Z</time>
      </trkpt>
      <trkpt lat="42.1072370" lon="2.3133850">
        <ele>790.6</ele>
        <time>2019-10-21T11:26:27Z</time>
      </trkpt>
      <trkpt lat="42.1072220" lon="2.3133840">
        <ele>790.0</ele>
        <time>2019-10-21T11:26:28Z</time>
      </trkpt>
      <trkpt lat="42.1072070" lon="2.3133820">
        <ele>789.4</ele>
        <time>2019-10-21T11:26:29Z</time>
      </trkpt>
      <trkpt lat="42.1071160" lon="2.3133720">
        <ele>789.4</ele>
        <time>2019-10-21T11:26:30Z</time>
      </trkpt>
      <trkpt lat="42.1070850" lon="2.3133680">
        <ele>788.6</ele>
        <time>2019-10-21T11:26:31Z</time>
      </trkpt>
      <trkpt lat="42.1070540" lon="2.3133640">
        <ele>788.6</ele>
        <time>2019-10-21T11:26:32Z</time>
      </trkpt>
      <trkpt lat="42.1070230" lon="2.3133600">
        <ele>788.4</ele>
        <time>2019-10-21T11:26:33Z</time>
      </trkpt>
      <trkpt lat="42.1069920" lon="2.3133560">
        <ele>788.4</ele>
        <time>2019-10-21T11:26:34Z</time>
      </trkpt>
      <trkpt lat="42.1069610" lon="2.3133530">
        <ele>788.4</ele>
        <time>2019-10-21T11:26:35Z</time>
      </trkpt>
      <trkpt lat="42.1069300" lon="2.3133490">
        <ele>788.2</ele>
        <time>2019-10-21T11:26:36Z</time>
      </trkpt>
      <trkpt lat="42.1068990" lon="2.3133450">
        <ele>788.0</ele>
        <time>2019-10-21T11:26:37Z</time>
      </trkpt>
      <trkpt lat="42.1068680" lon="2.3133410">
        <ele>788.2</ele>
        <time>2019-10-21T11:26:38Z</time>
      </trkpt>
      <trkpt lat="42.1068370" lon="2.3133370">
        <ele>788.2</ele>
        <time>2019-10-21T11:26:39Z</time>
      </trkpt>
      <trkpt lat="42.1068060" lon="2.3133330">
        <ele>788.2</ele>
        <time>2019-10-21T11:26:40Z</time>
      </trkpt>
      <trkpt lat="42.1068060" lon="2.3133330">
        <ele>788.2</ele>
        <time>2019-10-21T11:26:41Z</time>
      </trkpt>
      <trkpt lat="42.1066810" lon="2.3133010">
        <ele>788.4</ele>
        <time>2019-10-21T11:26:42Z</time>
      </trkpt>
      <trkpt lat="42.1066810" lon="2.3133010">
        <ele>788.4</ele>
        <time>2019-10-21T11:26:43Z</time>
      </trkpt>
      <trkpt lat="42.1066810" lon="2.3133010">
        <ele>788.4</ele>
        <time>2019-10-21T11:26:44Z</time>
      </trkpt>
      <trkpt lat="42.1065900" lon="2.3132820">
        <ele>788.2</ele>
        <time>2019-10-21T11:26:45Z</time>
      </trkpt>
      <trkpt lat="42.1065900" lon="2.3132820">
        <ele>788.2</ele>
        <time>2019-10-21T11:26:46Z</time>
      </trkpt>
      <trkpt lat="42.1065900" lon="2.3132820">
        <ele>788.2</ele>
        <time>2019-10-21T11:26:47Z</time>
      </trkpt>
      <trkpt lat="42.1064600" lon="2.3132940">
        <ele>788.2</ele>
        <time>2019-10-21T11:26:48Z</time>
      </trkpt>
      <trkpt lat="42.1064600" lon="2.3132940">
        <ele>788.2</ele>
        <time>2019-10-21T11:26:49Z</time>
      </trkpt>
      <trkpt lat="42.1064600" lon="2.3132940">
        <ele>788.2</ele>
        <time>2019-10-21T11:26:50Z</time>
      </trkpt>
      <trkpt lat="42.1063310" lon="2.3133000">
        <ele>788.2</ele>
        <time>2019-10-21T11:26:51Z</time>
      </trkpt>
      <trkpt lat="42.1063310" lon="2.3133000">
        <ele>788.4</ele>
        <time>2019-10-21T11:26:52Z</time>
      </trkpt>
      <trkpt lat="42.1063310" lon="2.3133000">
        <ele>788.4</ele>
        <time>2019-10-21T11:26:53Z</time>
      </trkpt>
      <trkpt lat="42.1062130" lon="2.3132930">
        <ele>788.2</ele>
        <time>2019-10-21T11:26:54Z</time>
      </trkpt>
      <trkpt lat="42.1062130" lon="2.3132930">
        <ele>788.2</ele>
        <time>2019-10-21T11:26:55Z</time>
      </trkpt>
      <trkpt lat="42.1062130" lon="2.3132930">
        <ele>788.2</ele>
        <time>2019-10-21T11:26:56Z</time>
      </trkpt>
      <trkpt lat="42.1061160" lon="2.3132270">
        <ele>788.4</ele>
        <time>2019-10-21T11:26:57Z</time>
      </trkpt>
      <trkpt lat="42.1061160" lon="2.3132270">
        <ele>788.4</ele>
        <time>2019-10-21T11:26:58Z</time>
      </trkpt>
      <trkpt lat="42.1061160" lon="2.3132270">
        <ele>788.4</ele>
        <time>2019-10-21T11:26:59Z</time>
      </trkpt>
      <trkpt lat="42.1061160" lon="2.3132270">
        <ele>788.4</ele>
        <time>2019-10-21T11:27:00Z</time>
      </trkpt>
      <trkpt lat="42.1061160" lon="2.3132270">
        <ele>788.4</ele>
        <time>2019-10-21T11:27:01Z</time>
      </trkpt>
      <trkpt lat="42.1060170" lon="2.3132050">
        <ele>788.4</ele>
        <time>2019-10-21T11:27:02Z</time>
      </trkpt>
      <trkpt lat="42.1060170" lon="2.3132050">
        <ele>788.4</ele>
        <time>2019-10-21T11:27:03Z</time>
      </trkpt>
      <trkpt lat="42.1060170" lon="2.3132050">
        <ele>788.6</ele>
        <time>2019-10-21T11:27:04Z</time>
      </trkpt>
      <trkpt lat="42.1060170" lon="2.3132050">
        <ele>788.4</ele>
        <time>2019-10-21T11:27:05Z</time>
      </trkpt>
      <trkpt lat="42.1060170" lon="2.3132050">
        <ele>788.6</ele>
        <time>2019-10-21T11:27:06Z</time>
      </trkpt>
      <trkpt lat="42.1060170" lon="2.3132050">
        <ele>788.2</ele>
        <time>2019-10-21T11:27:07Z</time>
      </trkpt>
      <trkpt lat="42.1060170" lon="2.3132050">
        <ele>788.2</ele>
        <time>2019-10-21T11:27:08Z</time>
      </trkpt>
      <trkpt lat="42.1060170" lon="2.3132050">
        <ele>788.4</ele>
        <time>2019-10-21T11:27:09Z</time>
      </trkpt>
      <trkpt lat="42.1060170" lon="2.3132050">
        <ele>788.4</ele>
        <time>2019-10-21T11:27:10Z</time>
      </trkpt>
      <trkpt lat="42.1060170" lon="2.3132050">
        <ele>788.2</ele>
        <time>2019-10-21T11:27:11Z</time>
      </trkpt>
      <trkpt lat="42.1060360" lon="2.3132110">
        <ele>787.6</ele>
        <time>2019-10-21T11:27:12Z</time>
      </trkpt>
      <trkpt lat="42.1060560" lon="2.3132170">
        <ele>787.8</ele>
        <time>2019-10-21T11:27:13Z</time>
      </trkpt>
      <trkpt lat="42.1060750" lon="2.3132230">
        <ele>787.0</ele>
        <time>2019-10-21T11:27:14Z</time>
      </trkpt>
      <trkpt lat="42.1060950" lon="2.3132290">
        <ele>787.0</ele>
        <time>2019-10-21T11:27:15Z</time>
      </trkpt>
      <trkpt lat="42.1061140" lon="2.3132350">
        <ele>786.4</ele>
        <time>2019-10-21T11:27:16Z</time>
      </trkpt>
      <trkpt lat="42.1061140" lon="2.3132350">
        <ele>786.6</ele>
        <time>2019-10-21T11:27:17Z</time>
      </trkpt>
      <trkpt lat="42.1061140" lon="2.3132350">
        <ele>786.0</ele>
        <time>2019-10-21T11:27:18Z</time>
      </trkpt>
      <trkpt lat="42.1061140" lon="2.3132350">
        <ele>786.0</ele>
        <time>2019-10-21T11:27:19Z</time>
      </trkpt>
      <trkpt lat="42.1061140" lon="2.3132350">
        <ele>785.0</ele>
        <time>2019-10-21T11:27:20Z</time>
      </trkpt>
      <trkpt lat="42.1061140" lon="2.3132350">
        <ele>785.0</ele>
        <time>2019-10-21T11:27:21Z</time>
      </trkpt>
      <trkpt lat="42.1061140" lon="2.3132350">
        <ele>784.4</ele>
        <time>2019-10-21T11:27:22Z</time>
      </trkpt>
      <trkpt lat="42.1061140" lon="2.3132350">
        <ele>784.0</ele>
        <time>2019-10-21T11:27:23Z</time>
      </trkpt>
      <trkpt lat="42.1061280" lon="2.3132440">
        <ele>783.8</ele>
        <time>2019-10-21T11:27:24Z</time>
      </trkpt>
      <trkpt lat="42.1061410" lon="2.3132530">
        <ele>783.8</ele>
        <time>2019-10-21T11:27:25Z</time>
      </trkpt>
      <trkpt lat="42.1061550" lon="2.3132620">
        <ele>783.8</ele>
        <time>2019-10-21T11:27:26Z</time>
      </trkpt>
      <trkpt lat="42.1061960" lon="2.3132900">
        <ele>783.8</ele>
        <time>2019-10-21T11:27:27Z</time>
      </trkpt>
      <trkpt lat="42.1061960" lon="2.3132900">
        <ele>783.6</ele>
        <time>2019-10-21T11:27:28Z</time>
      </trkpt>
      <trkpt lat="42.1061960" lon="2.3132900">
        <ele>783.8</ele>
        <time>2019-10-21T11:27:29Z</time>
      </trkpt>
      <trkpt lat="42.1061960" lon="2.3132990">
        <ele>783.6</ele>
        <time>2019-10-21T11:27:30Z</time>
      </trkpt>
      <trkpt lat="42.1061970" lon="2.3133070">
        <ele>783.8</ele>
        <time>2019-10-21T11:27:31Z</time>
      </trkpt>
      <trkpt lat="42.1061970" lon="2.3133160">
        <ele>783.2</ele>
        <time>2019-10-21T11:27:32Z</time>
      </trkpt>
      <trkpt lat="42.1061980" lon="2.3133420">
        <ele>783.8</ele>
        <time>2019-10-21T11:27:33Z</time>
      </trkpt>
      <trkpt lat="42.1061980" lon="2.3133420">
        <ele>783.4</ele>
        <time>2019-10-21T11:27:34Z</time>
      </trkpt>
      <trkpt lat="42.1061980" lon="2.3133420">
        <ele>784.0</ele>
        <time>2019-10-21T11:27:35Z</time>
      </trkpt>
      <trkpt lat="42.1061980" lon="2.3133420">
        <ele>783.8</ele>
        <time>2019-10-21T11:27:36Z</time>
      </trkpt>
      <trkpt lat="42.1061980" lon="2.3133420">
        <ele>784.4</ele>
        <time>2019-10-21T11:27:37Z</time>
      </trkpt>
      <trkpt lat="42.1061980" lon="2.3133420">
        <ele>783.6</ele>
        <time>2019-10-21T11:27:38Z</time>
      </trkpt>
      <trkpt lat="42.1061980" lon="2.3133420">
        <ele>783.4</ele>
        <time>2019-10-21T11:27:39Z</time>
      </trkpt>
      <trkpt lat="42.1061980" lon="2.3133420">
        <ele>783.2</ele>
        <time>2019-10-21T11:27:40Z</time>
      </trkpt>
      <trkpt lat="42.1061980" lon="2.3133420">
        <ele>783.2</ele>
        <time>2019-10-21T11:27:41Z</time>
      </trkpt>
      <trkpt lat="42.1061980" lon="2.3133420">
        <ele>783.6</ele>
        <time>2019-10-21T11:27:42Z</time>
      </trkpt>
      <trkpt lat="42.1061980" lon="2.3133420">
        <ele>783.8</ele>
        <time>2019-10-21T11:27:43Z</time>
      </trkpt>
      <trkpt lat="42.1061980" lon="2.3133420">
        <ele>784.2</ele>
        <time>2019-10-21T11:27:44Z</time>
      </trkpt>
      <trkpt lat="42.1061870" lon="2.3133420">
        <ele>784.2</ele>
        <time>2019-10-21T11:27:45Z</time>
      </trkpt>
      <trkpt lat="42.1061750" lon="2.3133420">
        <ele>783.8</ele>
        <time>2019-10-21T11:27:46Z</time>
      </trkpt>
      <trkpt lat="42.1061640" lon="2.3133420">
        <ele>783.6</ele>
        <time>2019-10-21T11:27:47Z</time>
      </trkpt>
      <trkpt lat="42.1061530" lon="2.3133380">
        <ele>783.6</ele>
        <time>2019-10-21T11:27:48Z</time>
      </trkpt>
      <trkpt lat="42.1061430" lon="2.3133340">
        <ele>783.0</ele>
        <time>2019-10-21T11:27:49Z</time>
      </trkpt>
      <trkpt lat="42.1061320" lon="2.3133310">
        <ele>782.4</ele>
        <time>2019-10-21T11:27:50Z</time>
      </trkpt>
      <trkpt lat="42.1061220" lon="2.3133270">
        <ele>782.8</ele>
        <time>2019-10-21T11:27:51Z</time>
      </trkpt>
      <trkpt lat="42.1061110" lon="2.3133230">
        <ele>782.6</ele>
        <time>2019-10-21T11:27:52Z</time>
      </trkpt>
      <trkpt lat="42.1060930" lon="2.3132970">
        <ele>782.2</ele>
        <time>2019-10-21T11:27:53Z</time>
      </trkpt>
      <trkpt lat="42.1060930" lon="2.3132910">
        <ele>781.8</ele>
        <time>2019-10-21T11:27:54Z</time>
      </trkpt>
      <trkpt lat="42.1060920" lon="2.3132840">
        <ele>781.8</ele>
        <time>2019-10-21T11:27:55Z</time>
      </trkpt>
      <trkpt lat="42.1060910" lon="2.3132780">
        <ele>781.8</ele>
        <time>2019-10-21T11:27:56Z</time>
      </trkpt>
      <trkpt lat="42.1060910" lon="2.3132720">
        <ele>781.4</ele>
        <time>2019-10-21T11:27:57Z</time>
      </trkpt>
      <trkpt lat="42.1060900" lon="2.3132660">
        <ele>781.0</ele>
        <time>2019-10-21T11:27:58Z</time>
      </trkpt>
      <trkpt lat="42.1060890" lon="2.3132600">
        <ele>780.8</ele>
        <time>2019-10-21T11:27:59Z</time>
      </trkpt>
      <trkpt lat="42.1060890" lon="2.3132540">
        <ele>780.4</ele>
        <time>2019-10-21T11:28:00Z</time>
      </trkpt>
      <trkpt lat="42.1060880" lon="2.3132470">
        <ele>780.2</ele>
        <time>2019-10-21T11:28:01Z</time>
      </trkpt>
      <trkpt lat="42.1060870" lon="2.3132410">
        <ele>779.8</ele>
        <time>2019-10-21T11:28:02Z</time>
      </trkpt>
      <trkpt lat="42.1060870" lon="2.3132350">
        <ele>779.8</ele>
        <time>2019-10-21T11:28:03Z</time>
      </trkpt>
      <trkpt lat="42.1060860" lon="2.3132290">
        <ele>779.6</ele>
        <time>2019-10-21T11:28:04Z</time>
      </trkpt>
      <trkpt lat="42.1060840" lon="2.3132230">
        <ele>779.4</ele>
        <time>2019-10-21T11:28:05Z</time>
      </trkpt>
      <trkpt lat="42.1060820" lon="2.3132170">
        <ele>779.4</ele>
        <time>2019-10-21T11:28:06Z</time>
      </trkpt>
      <trkpt lat="42.1060800" lon="2.3132110">
        <ele>779.6</ele>
        <time>2019-10-21T11:28:07Z</time>
      </trkpt>
      <trkpt lat="42.1060780" lon="2.3132050">
        <ele>779.8</ele>
        <time>2019-10-21T11:28:08Z</time>
      </trkpt>
      <trkpt lat="42.1060760" lon="2.3131990">
        <ele>779.8</ele>
        <time>2019-10-21T11:28:09Z</time>
      </trkpt>
      <trkpt lat="42.1060740" lon="2.3131930">
        <ele>779.0</ele>
        <time>2019-10-21T11:28:10Z</time>
      </trkpt>
      <trkpt lat="42.1060730" lon="2.3131870">
        <ele>779.2</ele>
        <time>2019-10-21T11:28:11Z</time>
      </trkpt>
      <trkpt lat="42.1060710" lon="2.3131810">
        <ele>779.2</ele>
        <time>2019-10-21T11:28:12Z</time>
      </trkpt>
      <trkpt lat="42.1060690" lon="2.3131750">
        <ele>779.0</ele>
        <time>2019-10-21T11:28:13Z</time>
      </trkpt>
      <trkpt lat="42.1060670" lon="2.3131690">
        <ele>778.8</ele>
        <time>2019-10-21T11:28:14Z</time>
      </trkpt>
      <trkpt lat="42.1060650" lon="2.3131630">
        <ele>778.8</ele>
        <time>2019-10-21T11:28:15Z</time>
      </trkpt>
      <trkpt lat="42.1060630" lon="2.3131570">
        <ele>778.8</ele>
        <time>2019-10-21T11:28:16Z</time>
      </trkpt>
      <trkpt lat="42.1060610" lon="2.3131510">
        <ele>778.8</ele>
        <time>2019-10-21T11:28:17Z</time>
      </trkpt>
      <trkpt lat="42.1060460" lon="2.3131340">
        <ele>778.8</ele>
        <time>2019-10-21T11:28:18Z</time>
      </trkpt>
      <trkpt lat="42.1060460" lon="2.3131340">
        <ele>778.8</ele>
        <time>2019-10-21T11:28:19Z</time>
      </trkpt>
      <trkpt lat="42.1060460" lon="2.3131340">
        <ele>778.8</ele>
        <time>2019-10-21T11:28:20Z</time>
      </trkpt>
      <trkpt lat="42.1060460" lon="2.3131340">
        <ele>778.8</ele>
        <time>2019-10-21T11:28:21Z</time>
      </trkpt>
      <trkpt lat="42.1060460" lon="2.3131340">
        <ele>779.0</ele>
        <time>2019-10-21T11:28:22Z</time>
      </trkpt>
      <trkpt lat="42.1060460" lon="2.3131340">
        <ele>779.0</ele>
        <time>2019-10-21T11:28:23Z</time>
      </trkpt>
      <trkpt lat="42.1060460" lon="2.3131340">
        <ele>778.8</ele>
        <time>2019-10-21T11:28:24Z</time>
      </trkpt>
      <trkpt lat="42.1060460" lon="2.3131340">
        <ele>778.8</ele>
        <time>2019-10-21T11:28:25Z</time>
      </trkpt>
      <trkpt lat="42.1060460" lon="2.3131340">
        <ele>778.8</ele>
        <time>2019-10-21T11:28:26Z</time>
      </trkpt>
      <trkpt lat="42.1060460" lon="2.3131340">
        <ele>778.6</ele>
        <time>2019-10-21T11:28:27Z</time>
      </trkpt>
      <trkpt lat="42.1060460" lon="2.3131340">
        <ele>778.6</ele>
        <time>2019-10-21T11:28:28Z</time>
      </trkpt>
      <trkpt lat="42.1060460" lon="2.3131340">
        <ele>778.0</ele>
        <time>2019-10-21T11:28:29Z</time>
      </trkpt>
      <trkpt lat="42.1060460" lon="2.3131340">
        <ele>777.8</ele>
        <time>2019-10-21T11:28:30Z</time>
      </trkpt>
      <trkpt lat="42.1060460" lon="2.3131340">
        <ele>777.6</ele>
        <time>2019-10-21T11:28:31Z</time>
      </trkpt>
      <trkpt lat="42.1060460" lon="2.3131340">
        <ele>777.6</ele>
        <time>2019-10-21T11:28:32Z</time>
      </trkpt>
      <trkpt lat="42.1060460" lon="2.3131340">
        <ele>777.8</ele>
        <time>2019-10-21T11:28:33Z</time>
      </trkpt>
      <trkpt lat="42.1060460" lon="2.3131340">
        <ele>778.0</ele>
        <time>2019-10-21T11:28:34Z</time>
      </trkpt>
      <trkpt lat="42.1060270" lon="2.3131370">
        <ele>778.4</ele>
        <time>2019-10-21T11:28:35Z</time>
      </trkpt>
      <trkpt lat="42.1060270" lon="2.3131370">
        <ele>778.8</ele>
        <time>2019-10-21T11:28:36Z</time>
      </trkpt>
      <trkpt lat="42.1060270" lon="2.3131370">
        <ele>779.2</ele>
        <time>2019-10-21T11:28:37Z</time>
      </trkpt>
      <trkpt lat="42.1060270" lon="2.3131370">
        <ele>779.0</ele>
        <time>2019-10-21T11:28:38Z</time>
      </trkpt>
      <trkpt lat="42.1060270" lon="2.3131370">
        <ele>779.2</ele>
        <time>2019-10-21T11:28:39Z</time>
      </trkpt>
      <trkpt lat="42.1060270" lon="2.3131370">
        <ele>779.2</ele>
        <time>2019-10-21T11:28:40Z</time>
      </trkpt>
      <trkpt lat="42.1060270" lon="2.3131370">
        <ele>779.2</ele>
        <time>2019-10-21T11:28:41Z</time>
      </trkpt>
      <trkpt lat="42.1060270" lon="2.3131370">
        <ele>778.8</ele>
        <time>2019-10-21T11:28:42Z</time>
      </trkpt>
      <trkpt lat="42.1060270" lon="2.3131370">
        <ele>779.0</ele>
        <time>2019-10-21T11:28:43Z</time>
      </trkpt>
      <trkpt lat="42.1060270" lon="2.3131370">
        <ele>778.8</ele>
        <time>2019-10-21T11:28:44Z</time>
      </trkpt>
      <trkpt lat="42.1060270" lon="2.3131370">
        <ele>778.8</ele>
        <time>2019-10-21T11:28:45Z</time>
      </trkpt>
      <trkpt lat="42.1060270" lon="2.3131370">
        <ele>779.0</ele>
        <time>2019-10-21T11:28:46Z</time>
      </trkpt>
      <trkpt lat="42.1060270" lon="2.3131370">
        <ele>779.2</ele>
        <time>2019-10-21T11:28:47Z</time>
      </trkpt>
      <trkpt lat="42.1060270" lon="2.3131370">
        <ele>779.4</ele>
        <time>2019-10-21T11:28:48Z</time>
      </trkpt>
      <trkpt lat="42.1060270" lon="2.3131370">
        <ele>779.6</ele>
        <time>2019-10-21T11:28:49Z</time>
      </trkpt>
      <trkpt lat="42.1060270" lon="2.3131370">
        <ele>779.8</ele>
        <time>2019-10-21T11:28:50Z</time>
      </trkpt>
      <trkpt lat="42.1060270" lon="2.3131370">
        <ele>779.8</ele>
        <time>2019-10-21T11:28:51Z</time>
      </trkpt>
      <trkpt lat="42.1060270" lon="2.3131370">
        <ele>780.4</ele>
        <time>2019-10-21T11:28:52Z</time>
      </trkpt>
      <trkpt lat="42.1060270" lon="2.3131370">
        <ele>780.8</ele>
        <time>2019-10-21T11:28:53Z</time>
      </trkpt>
      <trkpt lat="42.1060270" lon="2.3131370">
        <ele>781.2</ele>
        <time>2019-10-21T11:28:54Z</time>
      </trkpt>
      <trkpt lat="42.1060270" lon="2.3131370">
        <ele>781.8</ele>
        <time>2019-10-21T11:28:55Z</time>
      </trkpt>
      <trkpt lat="42.1060270" lon="2.3131370">
        <ele>782.2</ele>
        <time>2019-10-21T11:28:56Z</time>
      </trkpt>
      <trkpt lat="42.1060270" lon="2.3131370">
        <ele>782.4</ele>
        <time>2019-10-21T11:28:57Z</time>
      </trkpt>
      <trkpt lat="42.1060270" lon="2.3131370">
        <ele>782.8</ele>
        <time>2019-10-21T11:28:58Z</time>
      </trkpt>
      <trkpt lat="42.1060270" lon="2.3131370">
        <ele>783.0</ele>
        <time>2019-10-21T11:28:59Z</time>
      </trkpt>
      <trkpt lat="42.1060270" lon="2.3131370">
        <ele>783.0</ele>
        <time>2019-10-21T11:29:00Z</time>
      </trkpt>
      <trkpt lat="42.1060270" lon="2.3131370">
        <ele>783.0</ele>
        <time>2019-10-21T11:29:01Z</time>
      </trkpt>
      <trkpt lat="42.1060270" lon="2.3131370">
        <ele>783.2</ele>
        <time>2019-10-21T11:29:02Z</time>
      </trkpt>
      <trkpt lat="42.1060270" lon="2.3131370">
        <ele>783.2</ele>
        <time>2019-10-21T11:29:03Z</time>
      </trkpt>
      <trkpt lat="42.1060270" lon="2.3131370">
        <ele>783.4</ele>
        <time>2019-10-21T11:29:04Z</time>
      </trkpt>
      <trkpt lat="42.1060270" lon="2.3131370">
        <ele>783.4</ele>
        <time>2019-10-21T11:29:05Z</time>
      </trkpt>
      <trkpt lat="42.1060270" lon="2.3131370">
        <ele>783.6</ele>
        <time>2019-10-21T11:29:06Z</time>
      </trkpt>
      <trkpt lat="42.1060270" lon="2.3131370">
        <ele>783.6</ele>
        <time>2019-10-21T11:29:07Z</time>
      </trkpt>
      <trkpt lat="42.1060270" lon="2.3131370">
        <ele>783.4</ele>
        <time>2019-10-21T11:29:08Z</time>
      </trkpt>
      <trkpt lat="42.1060270" lon="2.3131370">
        <ele>783.4</ele>
        <time>2019-10-21T11:29:09Z</time>
      </trkpt>
      <trkpt lat="42.1060270" lon="2.3131370">
        <ele>783.2</ele>
        <time>2019-10-21T11:29:10Z</time>
      </trkpt>
      <trkpt lat="42.1060270" lon="2.3131370">
        <ele>783.2</ele>
        <time>2019-10-21T11:29:11Z</time>
      </trkpt>
      <trkpt lat="42.1060270" lon="2.3131370">
        <ele>783.0</ele>
        <time>2019-10-21T11:29:12Z</time>
      </trkpt>
      <trkpt lat="42.1060270" lon="2.3131370">
        <ele>783.0</ele>
        <time>2019-10-21T11:29:13Z</time>
      </trkpt>
      <trkpt lat="42.1060270" lon="2.3131370">
        <ele>782.8</ele>
        <time>2019-10-21T11:29:14Z</time>
      </trkpt>
      <trkpt lat="42.1059270" lon="2.3131990">
        <ele>783.0</ele>
        <time>2019-10-21T11:29:15Z</time>
      </trkpt>
      <trkpt lat="42.1059270" lon="2.3131990">
        <ele>782.8</ele>
        <time>2019-10-21T11:29:16Z</time>
      </trkpt>
      <trkpt lat="42.1059270" lon="2.3131990">
        <ele>782.8</ele>
        <time>2019-10-21T11:29:17Z</time>
      </trkpt>
      <trkpt lat="42.1059270" lon="2.3131990">
        <ele>782.8</ele>
        <time>2019-10-21T11:29:18Z</time>
      </trkpt>
      <trkpt lat="42.1059270" lon="2.3131990">
        <ele>782.8</ele>
        <time>2019-10-21T11:29:19Z</time>
      </trkpt>
      <trkpt lat="42.1058180" lon="2.3131890">
        <ele>782.8</ele>
        <time>2019-10-21T11:29:20Z</time>
      </trkpt>
      <trkpt lat="42.1058180" lon="2.3131890">
        <ele>782.8</ele>
        <time>2019-10-21T11:29:21Z</time>
      </trkpt>
      <trkpt lat="42.1058180" lon="2.3131890">
        <ele>782.8</ele>
        <time>2019-10-21T11:29:22Z</time>
      </trkpt>
      <trkpt lat="42.1058180" lon="2.3131890">
        <ele>782.6</ele>
        <time>2019-10-21T11:29:23Z</time>
      </trkpt>
      <trkpt lat="42.1057040" lon="2.3131440">
        <ele>782.6</ele>
        <time>2019-10-21T11:29:24Z</time>
      </trkpt>
      <trkpt lat="42.1057040" lon="2.3131440">
        <ele>782.6</ele>
        <time>2019-10-21T11:29:25Z</time>
      </trkpt>
      <trkpt lat="42.1056910" lon="2.3131430">
        <ele>782.6</ele>
        <time>2019-10-21T11:29:26Z</time>
      </trkpt>
      <trkpt lat="42.1056780" lon="2.3131420">
        <ele>782.6</ele>
        <time>2019-10-21T11:29:27Z</time>
      </trkpt>
      <trkpt lat="42.1056650" lon="2.3131420">
        <ele>782.6</ele>
        <time>2019-10-21T11:29:28Z</time>
      </trkpt>
      <trkpt lat="42.1056520" lon="2.3131410">
        <ele>782.6</ele>
        <time>2019-10-21T11:29:29Z</time>
      </trkpt>
      <trkpt lat="42.1056390" lon="2.3131400">
        <ele>782.8</ele>
        <time>2019-10-21T11:29:30Z</time>
      </trkpt>
      <trkpt lat="42.1056260" lon="2.3131390">
        <ele>782.6</ele>
        <time>2019-10-21T11:29:31Z</time>
      </trkpt>
      <trkpt lat="42.1056130" lon="2.3131380">
        <ele>782.6</ele>
        <time>2019-10-21T11:29:32Z</time>
      </trkpt>
      <trkpt lat="42.1056000" lon="2.3131370">
        <ele>782.6</ele>
        <time>2019-10-21T11:29:33Z</time>
      </trkpt>
      <trkpt lat="42.1055870" lon="2.3131370">
        <ele>782.4</ele>
        <time>2019-10-21T11:29:34Z</time>
      </trkpt>
      <trkpt lat="42.1055740" lon="2.3131360">
        <ele>782.6</ele>
        <time>2019-10-21T11:29:35Z</time>
      </trkpt>
      <trkpt lat="42.1055610" lon="2.3131350">
        <ele>782.6</ele>
        <time>2019-10-21T11:29:36Z</time>
      </trkpt>
      <trkpt lat="42.1055480" lon="2.3131340">
        <ele>782.8</ele>
        <time>2019-10-21T11:29:37Z</time>
      </trkpt>
      <trkpt lat="42.1055350" lon="2.3131330">
        <ele>782.8</ele>
        <time>2019-10-21T11:29:38Z</time>
      </trkpt>
      <trkpt lat="42.1055220" lon="2.3131320">
        <ele>782.8</ele>
        <time>2019-10-21T11:29:39Z</time>
      </trkpt>
      <trkpt lat="42.1055090" lon="2.3131320">
        <ele>782.8</ele>
        <time>2019-10-21T11:29:40Z</time>
      </trkpt>
      <trkpt lat="42.1054960" lon="2.3131310">
        <ele>782.8</ele>
        <time>2019-10-21T11:29:41Z</time>
      </trkpt>
      <trkpt lat="42.1054830" lon="2.3131300">
        <ele>782.8</ele>
        <time>2019-10-21T11:29:42Z</time>
      </trkpt>
      <trkpt lat="42.1054700" lon="2.3131290">
        <ele>782.8</ele>
        <time>2019-10-21T11:29:43Z</time>
      </trkpt>
      <trkpt lat="42.1054570" lon="2.3131280">
        <ele>783.0</ele>
        <time>2019-10-21T11:29:44Z</time>
      </trkpt>
      <trkpt lat="42.1054440" lon="2.3131270">
        <ele>783.0</ele>
        <time>2019-10-21T11:29:45Z</time>
      </trkpt>
      <trkpt lat="42.1054300" lon="2.3131270">
        <ele>783.0</ele>
        <time>2019-10-21T11:29:46Z</time>
      </trkpt>
      <trkpt lat="42.1054170" lon="2.3131260">
        <ele>783.0</ele>
        <time>2019-10-21T11:29:47Z</time>
      </trkpt>
      <trkpt lat="42.1054040" lon="2.3131250">
        <ele>783.0</ele>
        <time>2019-10-21T11:29:48Z</time>
      </trkpt>
      <trkpt lat="42.1053910" lon="2.3131240">
        <ele>783.0</ele>
        <time>2019-10-21T11:29:49Z</time>
      </trkpt>
      <trkpt lat="42.1053780" lon="2.3131230">
        <ele>783.0</ele>
        <time>2019-10-21T11:29:50Z</time>
      </trkpt>
      <trkpt lat="42.1053650" lon="2.3131230">
        <ele>783.0</ele>
        <time>2019-10-21T11:29:51Z</time>
      </trkpt>
      <trkpt lat="42.1053520" lon="2.3131220">
        <ele>783.2</ele>
        <time>2019-10-21T11:29:52Z</time>
      </trkpt>
      <trkpt lat="42.1053390" lon="2.3131210">
        <ele>783.2</ele>
        <time>2019-10-21T11:29:53Z</time>
      </trkpt>
      <trkpt lat="42.1053260" lon="2.3131200">
        <ele>783.0</ele>
        <time>2019-10-21T11:29:54Z</time>
      </trkpt>
      <trkpt lat="42.1053130" lon="2.3131190">
        <ele>783.2</ele>
        <time>2019-10-21T11:29:55Z</time>
      </trkpt>
      <trkpt lat="42.1053000" lon="2.3131180">
        <ele>783.2</ele>
        <time>2019-10-21T11:29:56Z</time>
      </trkpt>
      <trkpt lat="42.1052870" lon="2.3131180">
        <ele>783.2</ele>
        <time>2019-10-21T11:29:57Z</time>
      </trkpt>
      <trkpt lat="42.1052740" lon="2.3131170">
        <ele>783.2</ele>
        <time>2019-10-21T11:29:58Z</time>
      </trkpt>
      <trkpt lat="42.1052610" lon="2.3131160">
        <ele>783.2</ele>
        <time>2019-10-21T11:29:59Z</time>
      </trkpt>
      <trkpt lat="42.1052480" lon="2.3131150">
        <ele>783.2</ele>
        <time>2019-10-21T11:30:00Z</time>
      </trkpt>
      <trkpt lat="42.1052350" lon="2.3131140">
        <ele>783.4</ele>
        <time>2019-10-21T11:30:01Z</time>
      </trkpt>
      <trkpt lat="42.1052220" lon="2.3131130">
        <ele>783.2</ele>
        <time>2019-10-21T11:30:02Z</time>
      </trkpt>
      <trkpt lat="42.1052090" lon="2.3131130">
        <ele>783.0</ele>
        <time>2019-10-21T11:30:03Z</time>
      </trkpt>
      <trkpt lat="42.1051960" lon="2.3131120">
        <ele>782.4</ele>
        <time>2019-10-21T11:30:04Z</time>
      </trkpt>
      <trkpt lat="42.1051830" lon="2.3131110">
        <ele>782.4</ele>
        <time>2019-10-21T11:30:05Z</time>
      </trkpt>
      <trkpt lat="42.1051380" lon="2.3131000">
        <ele>781.6</ele>
        <time>2019-10-21T11:30:06Z</time>
      </trkpt>
      <trkpt lat="42.1051380" lon="2.3131000">
        <ele>781.4</ele>
        <time>2019-10-21T11:30:07Z</time>
      </trkpt>
      <trkpt lat="42.1051380" lon="2.3131000">
        <ele>781.0</ele>
        <time>2019-10-21T11:30:08Z</time>
      </trkpt>
      <trkpt lat="42.1051380" lon="2.3131000">
        <ele>780.8</ele>
        <time>2019-10-21T11:30:09Z</time>
      </trkpt>
      <trkpt lat="42.1051380" lon="2.3131000">
        <ele>781.0</ele>
        <time>2019-10-21T11:30:10Z</time>
      </trkpt>
      <trkpt lat="42.1051330" lon="2.3130980">
        <ele>781.0</ele>
        <time>2019-10-21T11:30:11Z</time>
      </trkpt>
      <trkpt lat="42.1051280" lon="2.3130970">
        <ele>781.8</ele>
        <time>2019-10-21T11:30:12Z</time>
      </trkpt>
      <trkpt lat="42.1051220" lon="2.3130950">
        <ele>781.6</ele>
        <time>2019-10-21T11:30:13Z</time>
      </trkpt>
      <trkpt lat="42.1051170" lon="2.3130940">
        <ele>781.8</ele>
        <time>2019-10-21T11:30:14Z</time>
      </trkpt>
      <trkpt lat="42.1051170" lon="2.3130940">
        <ele>781.6</ele>
        <time>2019-10-21T11:30:15Z</time>
      </trkpt>
      <trkpt lat="42.1051170" lon="2.3130940">
        <ele>782.2</ele>
        <time>2019-10-21T11:30:16Z</time>
      </trkpt>
      <trkpt lat="42.1051170" lon="2.3130940">
        <ele>782.2</ele>
        <time>2019-10-21T11:30:17Z</time>
      </trkpt>
      <trkpt lat="42.1051170" lon="2.3130940">
        <ele>782.4</ele>
        <time>2019-10-21T11:30:18Z</time>
      </trkpt>
      <trkpt lat="42.1051000" lon="2.3130830">
        <ele>782.4</ele>
        <time>2019-10-21T11:30:19Z</time>
      </trkpt>
      <trkpt lat="42.1050820" lon="2.3130730">
        <ele>782.2</ele>
        <time>2019-10-21T11:30:20Z</time>
      </trkpt>
      <trkpt lat="42.1050650" lon="2.3130620">
        <ele>782.6</ele>
        <time>2019-10-21T11:30:21Z</time>
      </trkpt>
      <trkpt lat="42.1050470" lon="2.3130520">
        <ele>782.6</ele>
        <time>2019-10-21T11:30:22Z</time>
      </trkpt>
      <trkpt lat="42.1050300" lon="2.3130410">
        <ele>783.2</ele>
        <time>2019-10-21T11:30:23Z</time>
      </trkpt>
      <trkpt lat="42.1049840" lon="2.3130170">
        <ele>783.0</ele>
        <time>2019-10-21T11:30:24Z</time>
      </trkpt>
      <trkpt lat="42.1049730" lon="2.3130150">
        <ele>783.0</ele>
        <time>2019-10-21T11:30:25Z</time>
      </trkpt>
      <trkpt lat="42.1049610" lon="2.3130120">
        <ele>783.2</ele>
        <time>2019-10-21T11:30:26Z</time>
      </trkpt>
      <trkpt lat="42.1049500" lon="2.3130100">
        <ele>783.2</ele>
        <time>2019-10-21T11:30:27Z</time>
      </trkpt>
      <trkpt lat="42.1049380" lon="2.3130080">
        <ele>783.2</ele>
        <time>2019-10-21T11:30:28Z</time>
      </trkpt>
      <trkpt lat="42.1049270" lon="2.3130060">
        <ele>783.4</ele>
        <time>2019-10-21T11:30:29Z</time>
      </trkpt>
      <trkpt lat="42.1049150" lon="2.3130040">
        <ele>783.4</ele>
        <time>2019-10-21T11:30:30Z</time>
      </trkpt>
      <trkpt lat="42.1049040" lon="2.3130010">
        <ele>783.4</ele>
        <time>2019-10-21T11:30:31Z</time>
      </trkpt>
      <trkpt lat="42.1048920" lon="2.3129990">
        <ele>783.6</ele>
        <time>2019-10-21T11:30:32Z</time>
      </trkpt>
      <trkpt lat="42.1048800" lon="2.3129970">
        <ele>783.6</ele>
        <time>2019-10-21T11:30:33Z</time>
      </trkpt>
      <trkpt lat="42.1048690" lon="2.3129950">
        <ele>783.8</ele>
        <time>2019-10-21T11:30:34Z</time>
      </trkpt>
      <trkpt lat="42.1048570" lon="2.3129930">
        <ele>783.8</ele>
        <time>2019-10-21T11:30:35Z</time>
      </trkpt>
      <trkpt lat="42.1048460" lon="2.3129910">
        <ele>784.0</ele>
        <time>2019-10-21T11:30:36Z</time>
      </trkpt>
      <trkpt lat="42.1048340" lon="2.3129880">
        <ele>783.8</ele>
        <time>2019-10-21T11:30:37Z</time>
      </trkpt>
      <trkpt lat="42.1048230" lon="2.3129860">
        <ele>783.8</ele>
        <time>2019-10-21T11:30:38Z</time>
      </trkpt>
      <trkpt lat="42.1048110" lon="2.3129840">
        <ele>783.8</ele>
        <time>2019-10-21T11:30:39Z</time>
      </trkpt>
      <trkpt lat="42.1048110" lon="2.3129840">
        <ele>783.8</ele>
        <time>2019-10-21T11:30:40Z</time>
      </trkpt>
      <trkpt lat="42.1048110" lon="2.3129840">
        <ele>783.8</ele>
        <time>2019-10-21T11:30:41Z</time>
      </trkpt>
      <trkpt lat="42.1048220" lon="2.3129640">
        <ele>783.8</ele>
        <time>2019-10-21T11:30:42Z</time>
      </trkpt>
      <trkpt lat="42.1048220" lon="2.3129640">
        <ele>783.2</ele>
        <time>2019-10-21T11:30:43Z</time>
      </trkpt>
      <trkpt lat="42.1048220" lon="2.3129640">
        <ele>782.8</ele>
        <time>2019-10-21T11:30:44Z</time>
      </trkpt>
      <trkpt lat="42.1048220" lon="2.3129640">
        <ele>782.6</ele>
        <time>2019-10-21T11:30:45Z</time>
      </trkpt>
      <trkpt lat="42.1048220" lon="2.3129640">
        <ele>782.8</ele>
        <time>2019-10-21T11:30:46Z</time>
      </trkpt>
      <trkpt lat="42.1048220" lon="2.3129640">
        <ele>782.2</ele>
        <time>2019-10-21T11:30:47Z</time>
      </trkpt>
      <trkpt lat="42.1048220" lon="2.3129640">
        <ele>782.4</ele>
        <time>2019-10-21T11:30:48Z</time>
      </trkpt>
      <trkpt lat="42.1048220" lon="2.3129640">
        <ele>782.0</ele>
        <time>2019-10-21T11:30:49Z</time>
      </trkpt>
      <trkpt lat="42.1048220" lon="2.3129640">
        <ele>782.2</ele>
        <time>2019-10-21T11:30:50Z</time>
      </trkpt>
      <trkpt lat="42.1048220" lon="2.3129640">
        <ele>781.8</ele>
        <time>2019-10-21T11:30:51Z</time>
      </trkpt>
      <trkpt lat="42.1048220" lon="2.3129640">
        <ele>781.4</ele>
        <time>2019-10-21T11:30:52Z</time>
      </trkpt>
      <trkpt lat="42.1048220" lon="2.3129640">
        <ele>781.4</ele>
        <time>2019-10-21T11:30:53Z</time>
      </trkpt>
      <trkpt lat="42.1048220" lon="2.3129640">
        <ele>781.6</ele>
        <time>2019-10-21T11:30:54Z</time>
      </trkpt>
      <trkpt lat="42.1048220" lon="2.3129640">
        <ele>781.6</ele>
        <time>2019-10-21T11:30:55Z</time>
      </trkpt>
      <trkpt lat="42.1048220" lon="2.3129640">
        <ele>781.4</ele>
        <time>2019-10-21T11:30:56Z</time>
      </trkpt>
      <trkpt lat="42.1048220" lon="2.3129640">
        <ele>781.6</ele>
        <time>2019-10-21T11:30:57Z</time>
      </trkpt>
      <trkpt lat="42.1048220" lon="2.3129640">
        <ele>781.8</ele>
        <time>2019-10-21T11:30:58Z</time>
      </trkpt>
      <trkpt lat="42.1048220" lon="2.3129640">
        <ele>781.8</ele>
        <time>2019-10-21T11:30:59Z</time>
      </trkpt>
      <trkpt lat="42.1048220" lon="2.3129640">
        <ele>782.0</ele>
        <time>2019-10-21T11:31:00Z</time>
      </trkpt>
      <trkpt lat="42.1048220" lon="2.3129640">
        <ele>782.0</ele>
        <time>2019-10-21T11:31:01Z</time>
      </trkpt>
      <trkpt lat="42.1048220" lon="2.3129640">
        <ele>782.2</ele>
        <time>2019-10-21T11:31:02Z</time>
      </trkpt>
      <trkpt lat="42.1048810" lon="2.3128680">
        <ele>782.2</ele>
        <time>2019-10-21T11:31:03Z</time>
      </trkpt>
      <trkpt lat="42.1048810" lon="2.3128680">
        <ele>782.4</ele>
        <time>2019-10-21T11:31:04Z</time>
      </trkpt>
      <trkpt lat="42.1048810" lon="2.3128680">
        <ele>782.6</ele>
        <time>2019-10-21T11:31:05Z</time>
      </trkpt>
      <trkpt lat="42.1048810" lon="2.3128680">
        <ele>782.6</ele>
        <time>2019-10-21T11:31:06Z</time>
      </trkpt>
      <trkpt lat="42.1048810" lon="2.3128680">
        <ele>782.6</ele>
        <time>2019-10-21T11:31:07Z</time>
      </trkpt>
      <trkpt lat="42.1048810" lon="2.3128680">
        <ele>782.4</ele>
        <time>2019-10-21T11:31:08Z</time>
      </trkpt>
      <trkpt lat="42.1048810" lon="2.3128680">
        <ele>782.4</ele>
        <time>2019-10-21T11:31:09Z</time>
      </trkpt>
      <trkpt lat="42.1048810" lon="2.3128680">
        <ele>782.2</ele>
        <time>2019-10-21T11:31:10Z</time>
      </trkpt>
      <trkpt lat="42.1048810" lon="2.3128680">
        <ele>781.0</ele>
        <time>2019-10-21T11:31:11Z</time>
      </trkpt>
      <trkpt lat="42.1048810" lon="2.3128680">
        <ele>781.4</ele>
        <time>2019-10-21T11:31:12Z</time>
      </trkpt>
      <trkpt lat="42.1048810" lon="2.3128680">
        <ele>781.2</ele>
        <time>2019-10-21T11:31:13Z</time>
      </trkpt>
      <trkpt lat="42.1048640" lon="2.3128230">
        <ele>781.4</ele>
        <time>2019-10-21T11:31:14Z</time>
      </trkpt>
      <trkpt lat="42.1048640" lon="2.3128230">
        <ele>781.4</ele>
        <time>2019-10-21T11:31:15Z</time>
      </trkpt>
      <trkpt lat="42.1048640" lon="2.3128230">
        <ele>781.8</ele>
        <time>2019-10-21T11:31:16Z</time>
      </trkpt>
      <trkpt lat="42.1048640" lon="2.3128230">
        <ele>781.8</ele>
        <time>2019-10-21T11:31:17Z</time>
      </trkpt>
      <trkpt lat="42.1048640" lon="2.3128230">
        <ele>781.6</ele>
        <time>2019-10-21T11:31:18Z</time>
      </trkpt>
      <trkpt lat="42.1048640" lon="2.3128230">
        <ele>781.8</ele>
        <time>2019-10-21T11:31:19Z</time>
      </trkpt>
      <trkpt lat="42.1048640" lon="2.3128230">
        <ele>781.6</ele>
        <time>2019-10-21T11:31:20Z</time>
      </trkpt>
      <trkpt lat="42.1048640" lon="2.3128230">
        <ele>781.4</ele>
        <time>2019-10-21T11:31:21Z</time>
      </trkpt>
      <trkpt lat="42.1048640" lon="2.3128230">
        <ele>781.2</ele>
        <time>2019-10-21T11:31:22Z</time>
      </trkpt>
      <trkpt lat="42.1048640" lon="2.3128230">
        <ele>781.0</ele>
        <time>2019-10-21T11:31:23Z</time>
      </trkpt>
      <trkpt lat="42.1048640" lon="2.3128230">
        <ele>780.8</ele>
        <time>2019-10-21T11:31:24Z</time>
      </trkpt>
      <trkpt lat="42.1048640" lon="2.3128230">
        <ele>780.6</ele>
        <time>2019-10-21T11:31:25Z</time>
      </trkpt>
      <trkpt lat="42.1048930" lon="2.3128520">
        <ele>780.8</ele>
        <time>2019-10-21T11:31:26Z</time>
      </trkpt>
      <trkpt lat="42.1048930" lon="2.3128520">
        <ele>781.0</ele>
        <time>2019-10-21T11:31:27Z</time>
      </trkpt>
      <trkpt lat="42.1048930" lon="2.3128520">
        <ele>781.0</ele>
        <time>2019-10-21T11:31:28Z</time>
      </trkpt>
      <trkpt lat="42.1048930" lon="2.3128520">
        <ele>781.0</ele>
        <time>2019-10-21T11:31:29Z</time>
      </trkpt>
      <trkpt lat="42.1049880" lon="2.3129040">
        <ele>781.0</ele>
        <time>2019-10-21T11:31:30Z</time>
      </trkpt>
      <trkpt lat="42.1049880" lon="2.3129040">
        <ele>781.2</ele>
        <time>2019-10-21T11:31:31Z</time>
      </trkpt>
      <trkpt lat="42.1049880" lon="2.3129040">
        <ele>781.6</ele>
        <time>2019-10-21T11:31:32Z</time>
      </trkpt>
      <trkpt lat="42.1051060" lon="2.3129670">
        <ele>781.6</ele>
        <time>2019-10-21T11:31:33Z</time>
      </trkpt>
      <trkpt lat="42.1051290" lon="2.3129660">
        <ele>782.0</ele>
        <time>2019-10-21T11:31:34Z</time>
      </trkpt>
      <trkpt lat="42.1051530" lon="2.3129660">
        <ele>782.2</ele>
        <time>2019-10-21T11:31:35Z</time>
      </trkpt>
      <trkpt lat="42.1051760" lon="2.3129650">
        <ele>782.4</ele>
        <time>2019-10-21T11:31:36Z</time>
      </trkpt>
      <trkpt lat="42.1052000" lon="2.3129650">
        <ele>782.4</ele>
        <time>2019-10-21T11:31:37Z</time>
      </trkpt>
      <trkpt lat="42.1052240" lon="2.3129640">
        <ele>782.6</ele>
        <time>2019-10-21T11:31:38Z</time>
      </trkpt>
      <trkpt lat="42.1052470" lon="2.3129640">
        <ele>782.6</ele>
        <time>2019-10-21T11:31:39Z</time>
      </trkpt>
      <trkpt lat="42.1052710" lon="2.3129630">
        <ele>782.8</ele>
        <time>2019-10-21T11:31:40Z</time>
      </trkpt>
      <trkpt lat="42.1052950" lon="2.3129630">
        <ele>782.8</ele>
        <time>2019-10-21T11:31:41Z</time>
      </trkpt>
      <trkpt lat="42.1053180" lon="2.3129620">
        <ele>782.8</ele>
        <time>2019-10-21T11:31:42Z</time>
      </trkpt>
      <trkpt lat="42.1053420" lon="2.3129620">
        <ele>783.0</ele>
        <time>2019-10-21T11:31:43Z</time>
      </trkpt>
      <trkpt lat="42.1053650" lon="2.3129610">
        <ele>783.0</ele>
        <time>2019-10-21T11:31:44Z</time>
      </trkpt>
      <trkpt lat="42.1053890" lon="2.3129610">
        <ele>783.2</ele>
        <time>2019-10-21T11:31:45Z</time>
      </trkpt>
      <trkpt lat="42.1054130" lon="2.3129600">
        <ele>783.2</ele>
        <time>2019-10-21T11:31:46Z</time>
      </trkpt>
      <trkpt lat="42.1054360" lon="2.3129600">
        <ele>783.0</ele>
        <time>2019-10-21T11:31:47Z</time>
      </trkpt>
      <trkpt lat="42.1054600" lon="2.3129590">
        <ele>783.4</ele>
        <time>2019-10-21T11:31:48Z</time>
      </trkpt>
      <trkpt lat="42.1054840" lon="2.3129590">
        <ele>783.2</ele>
        <time>2019-10-21T11:31:49Z</time>
      </trkpt>
      <trkpt lat="42.1055070" lon="2.3129580">
        <ele>783.2</ele>
        <time>2019-10-21T11:31:50Z</time>
      </trkpt>
      <trkpt lat="42.1055310" lon="2.3129580">
        <ele>783.0</ele>
        <time>2019-10-21T11:31:51Z</time>
      </trkpt>
      <trkpt lat="42.1055540" lon="2.3129570">
        <ele>783.2</ele>
        <time>2019-10-21T11:31:52Z</time>
      </trkpt>
      <trkpt lat="42.1055780" lon="2.3129570">
        <ele>783.0</ele>
        <time>2019-10-21T11:31:53Z</time>
      </trkpt>
      <trkpt lat="42.1055780" lon="2.3129570">
        <ele>782.8</ele>
        <time>2019-10-21T11:31:54Z</time>
      </trkpt>
      <trkpt lat="42.1055780" lon="2.3129570">
        <ele>782.4</ele>
        <time>2019-10-21T11:31:55Z</time>
      </trkpt>
      <trkpt lat="42.1056670" lon="2.3129710">
        <ele>782.4</ele>
        <time>2019-10-21T11:31:56Z</time>
      </trkpt>
      <trkpt lat="42.1056670" lon="2.3129710">
        <ele>782.2</ele>
        <time>2019-10-21T11:31:57Z</time>
      </trkpt>
      <trkpt lat="42.1056670" lon="2.3129710">
        <ele>782.0</ele>
        <time>2019-10-21T11:31:58Z</time>
      </trkpt>
      <trkpt lat="42.1056670" lon="2.3129710">
        <ele>782.0</ele>
        <time>2019-10-21T11:31:59Z</time>
      </trkpt>
      <trkpt lat="42.1057800" lon="2.3130020">
        <ele>782.0</ele>
        <time>2019-10-21T11:32:00Z</time>
      </trkpt>
      <trkpt lat="42.1057800" lon="2.3130020">
        <ele>782.2</ele>
        <time>2019-10-21T11:32:01Z</time>
      </trkpt>
      <trkpt lat="42.1057800" lon="2.3130020">
        <ele>782.2</ele>
        <time>2019-10-21T11:32:02Z</time>
      </trkpt>
      <trkpt lat="42.1058780" lon="2.3130130">
        <ele>782.2</ele>
        <time>2019-10-21T11:32:03Z</time>
      </trkpt>
      <trkpt lat="42.1058780" lon="2.3130130">
        <ele>782.4</ele>
        <time>2019-10-21T11:32:04Z</time>
      </trkpt>
      <trkpt lat="42.1058780" lon="2.3130130">
        <ele>782.4</ele>
        <time>2019-10-21T11:32:05Z</time>
      </trkpt>
      <trkpt lat="42.1059710" lon="2.3130310">
        <ele>782.2</ele>
        <time>2019-10-21T11:32:06Z</time>
      </trkpt>
      <trkpt lat="42.1059710" lon="2.3130310">
        <ele>782.2</ele>
        <time>2019-10-21T11:32:07Z</time>
      </trkpt>
      <trkpt lat="42.1059710" lon="2.3130310">
        <ele>782.0</ele>
        <time>2019-10-21T11:32:08Z</time>
      </trkpt>
      <trkpt lat="42.1059710" lon="2.3130310">
        <ele>782.0</ele>
        <time>2019-10-21T11:32:09Z</time>
      </trkpt>
      <trkpt lat="42.1060780" lon="2.3130720">
        <ele>782.0</ele>
        <time>2019-10-21T11:32:10Z</time>
      </trkpt>
      <trkpt lat="42.1060780" lon="2.3130720">
        <ele>782.0</ele>
        <time>2019-10-21T11:32:11Z</time>
      </trkpt>
      <trkpt lat="42.1060780" lon="2.3130720">
        <ele>781.8</ele>
        <time>2019-10-21T11:32:12Z</time>
      </trkpt>
      <trkpt lat="42.1060780" lon="2.3130720">
        <ele>781.8</ele>
        <time>2019-10-21T11:32:13Z</time>
      </trkpt>
      <trkpt lat="42.1061900" lon="2.3130960">
        <ele>781.8</ele>
        <time>2019-10-21T11:32:14Z</time>
      </trkpt>
      <trkpt lat="42.1061900" lon="2.3130960">
        <ele>781.8</ele>
        <time>2019-10-21T11:32:15Z</time>
      </trkpt>
      <trkpt lat="42.1061900" lon="2.3130960">
        <ele>781.6</ele>
        <time>2019-10-21T11:32:16Z</time>
      </trkpt>
      <trkpt lat="42.1062180" lon="2.3130950">
        <ele>781.4</ele>
        <time>2019-10-21T11:32:17Z</time>
      </trkpt>
      <trkpt lat="42.1062470" lon="2.3130940">
        <ele>781.4</ele>
        <time>2019-10-21T11:32:18Z</time>
      </trkpt>
      <trkpt lat="42.1062750" lon="2.3130930">
        <ele>782.0</ele>
        <time>2019-10-21T11:32:19Z</time>
      </trkpt>
      <trkpt lat="42.1063030" lon="2.3130920">
        <ele>782.0</ele>
        <time>2019-10-21T11:32:20Z</time>
      </trkpt>
      <trkpt lat="42.1063430" lon="2.3131100">
        <ele>782.8</ele>
        <time>2019-10-21T11:32:21Z</time>
      </trkpt>
      <trkpt lat="42.1063830" lon="2.3131280">
        <ele>782.6</ele>
        <time>2019-10-21T11:32:22Z</time>
      </trkpt>
      <trkpt lat="42.1064230" lon="2.3131460">
        <ele>783.4</ele>
        <time>2019-10-21T11:32:23Z</time>
      </trkpt>
      <trkpt lat="42.1064540" lon="2.3131500">
        <ele>783.4</ele>
        <time>2019-10-21T11:32:24Z</time>
      </trkpt>
      <trkpt lat="42.1064850" lon="2.3131550">
        <ele>783.8</ele>
        <time>2019-10-21T11:32:25Z</time>
      </trkpt>
      <trkpt lat="42.1065160" lon="2.3131590">
        <ele>783.6</ele>
        <time>2019-10-21T11:32:26Z</time>
      </trkpt>
      <trkpt lat="42.1065460" lon="2.3131730">
        <ele>783.8</ele>
        <time>2019-10-21T11:32:27Z</time>
      </trkpt>
      <trkpt lat="42.1065760" lon="2.3131870">
        <ele>784.0</ele>
        <time>2019-10-21T11:32:28Z</time>
      </trkpt>
      <trkpt lat="42.1066060" lon="2.3132010">
        <ele>783.8</ele>
        <time>2019-10-21T11:32:29Z</time>
      </trkpt>
      <trkpt lat="42.1066410" lon="2.3132140">
        <ele>783.2</ele>
        <time>2019-10-21T11:32:30Z</time>
      </trkpt>
      <trkpt lat="42.1066750" lon="2.3132280">
        <ele>782.6</ele>
        <time>2019-10-21T11:32:31Z</time>
      </trkpt>
      <trkpt lat="42.1067100" lon="2.3132410">
        <ele>782.4</ele>
        <time>2019-10-21T11:32:32Z</time>
      </trkpt>
      <trkpt lat="42.1067420" lon="2.3132540">
        <ele>783.2</ele>
        <time>2019-10-21T11:32:33Z</time>
      </trkpt>
      <trkpt lat="42.1067740" lon="2.3132670">
        <ele>782.8</ele>
        <time>2019-10-21T11:32:34Z</time>
      </trkpt>
      <trkpt lat="42.1068070" lon="2.3132790">
        <ele>783.2</ele>
        <time>2019-10-21T11:32:35Z</time>
      </trkpt>
      <trkpt lat="42.1068390" lon="2.3132920">
        <ele>784.0</ele>
        <time>2019-10-21T11:32:36Z</time>
      </trkpt>
      <trkpt lat="42.1068710" lon="2.3133050">
        <ele>784.2</ele>
        <time>2019-10-21T11:32:37Z</time>
      </trkpt>
      <trkpt lat="42.1069550" lon="2.3133080">
        <ele>784.0</ele>
        <time>2019-10-21T11:32:38Z</time>
      </trkpt>
      <trkpt lat="42.1069750" lon="2.3133040">
        <ele>784.6</ele>
        <time>2019-10-21T11:32:39Z</time>
      </trkpt>
      <trkpt lat="42.1069940" lon="2.3132990">
        <ele>784.8</ele>
        <time>2019-10-21T11:32:40Z</time>
      </trkpt>
      <trkpt lat="42.1070140" lon="2.3132950">
        <ele>785.6</ele>
        <time>2019-10-21T11:32:41Z</time>
      </trkpt>
      <trkpt lat="42.1070340" lon="2.3132900">
        <ele>785.8</ele>
        <time>2019-10-21T11:32:42Z</time>
      </trkpt>
      <trkpt lat="42.1070660" lon="2.3132890">
        <ele>786.4</ele>
        <time>2019-10-21T11:32:43Z</time>
      </trkpt>
      <trkpt lat="42.1070970" lon="2.3132890">
        <ele>786.4</ele>
        <time>2019-10-21T11:32:44Z</time>
      </trkpt>
      <trkpt lat="42.1071290" lon="2.3132880">
        <ele>785.6</ele>
        <time>2019-10-21T11:32:45Z</time>
      </trkpt>
      <trkpt lat="42.1071600" lon="2.3132870">
        <ele>785.2</ele>
        <time>2019-10-21T11:32:46Z</time>
      </trkpt>
      <trkpt lat="42.1072930" lon="2.3132730">
        <ele>785.4</ele>
        <time>2019-10-21T11:32:47Z</time>
      </trkpt>
      <trkpt lat="42.1073160" lon="2.3132680">
        <ele>785.4</ele>
        <time>2019-10-21T11:32:48Z</time>
      </trkpt>
      <trkpt lat="42.1073390" lon="2.3132640">
        <ele>785.4</ele>
        <time>2019-10-21T11:32:49Z</time>
      </trkpt>
      <trkpt lat="42.1073620" lon="2.3132590">
        <ele>785.4</ele>
        <time>2019-10-21T11:32:50Z</time>
      </trkpt>
      <trkpt lat="42.1073980" lon="2.3132610">
        <ele>785.4</ele>
        <time>2019-10-21T11:32:51Z</time>
      </trkpt>
      <trkpt lat="42.1074340" lon="2.3132640">
        <ele>785.2</ele>
        <time>2019-10-21T11:32:52Z</time>
      </trkpt>
      <trkpt lat="42.1074700" lon="2.3132660">
        <ele>784.6</ele>
        <time>2019-10-21T11:32:53Z</time>
      </trkpt>
      <trkpt lat="42.1074700" lon="2.3132660">
        <ele>784.8</ele>
        <time>2019-10-21T11:32:54Z</time>
      </trkpt>
      <trkpt lat="42.1074700" lon="2.3132660">
        <ele>784.4</ele>
        <time>2019-10-21T11:32:55Z</time>
      </trkpt>
      <trkpt lat="42.1074700" lon="2.3132660">
        <ele>784.2</ele>
        <time>2019-10-21T11:32:56Z</time>
      </trkpt>
      <trkpt lat="42.1075950" lon="2.3132910">
        <ele>784.6</ele>
        <time>2019-10-21T11:32:57Z</time>
      </trkpt>
      <trkpt lat="42.1076100" lon="2.3132920">
        <ele>785.0</ele>
        <time>2019-10-21T11:32:58Z</time>
      </trkpt>
      <trkpt lat="42.1076240" lon="2.3132920">
        <ele>785.6</ele>
        <time>2019-10-21T11:32:59Z</time>
      </trkpt>
      <trkpt lat="42.1076380" lon="2.3132930">
        <ele>785.6</ele>
        <time>2019-10-21T11:33:00Z</time>
      </trkpt>
      <trkpt lat="42.1077070" lon="2.3132950">
        <ele>786.0</ele>
        <time>2019-10-21T11:33:01Z</time>
      </trkpt>
      <trkpt lat="42.1077180" lon="2.3132960">
        <ele>787.0</ele>
        <time>2019-10-21T11:33:02Z</time>
      </trkpt>
      <trkpt lat="42.1077290" lon="2.3132960">
        <ele>787.4</ele>
        <time>2019-10-21T11:33:03Z</time>
      </trkpt>
      <trkpt lat="42.1077410" lon="2.3132970">
        <ele>788.0</ele>
        <time>2019-10-21T11:33:04Z</time>
      </trkpt>
      <trkpt lat="42.1077870" lon="2.3132990">
        <ele>788.2</ele>
        <time>2019-10-21T11:33:05Z</time>
      </trkpt>
      <trkpt lat="42.1077870" lon="2.3132990">
        <ele>788.2</ele>
        <time>2019-10-21T11:33:06Z</time>
      </trkpt>
      <trkpt lat="42.1077870" lon="2.3132990">
        <ele>788.2</ele>
        <time>2019-10-21T11:33:07Z</time>
      </trkpt>
      <trkpt lat="42.1077870" lon="2.3132990">
        <ele>788.4</ele>
        <time>2019-10-21T11:33:08Z</time>
      </trkpt>
      <trkpt lat="42.1078190" lon="2.3133230">
        <ele>788.8</ele>
        <time>2019-10-21T11:33:09Z</time>
      </trkpt>
      <trkpt lat="42.1078520" lon="2.3133470">
        <ele>788.6</ele>
        <time>2019-10-21T11:33:10Z</time>
      </trkpt>
      <trkpt lat="42.1078840" lon="2.3133710">
        <ele>789.0</ele>
        <time>2019-10-21T11:33:11Z</time>
      </trkpt>
      <trkpt lat="42.1079160" lon="2.3133950">
        <ele>788.8</ele>
        <time>2019-10-21T11:33:12Z</time>
      </trkpt>
      <trkpt lat="42.1079580" lon="2.3134350">
        <ele>788.8</ele>
        <time>2019-10-21T11:33:13Z</time>
      </trkpt>
      <trkpt lat="42.1079580" lon="2.3134350">
        <ele>788.8</ele>
        <time>2019-10-21T11:33:14Z</time>
      </trkpt>
      <trkpt lat="42.1079580" lon="2.3134350">
        <ele>789.0</ele>
        <time>2019-10-21T11:33:15Z</time>
      </trkpt>
      <trkpt lat="42.1080650" lon="2.3135120">
        <ele>789.0</ele>
        <time>2019-10-21T11:33:16Z</time>
      </trkpt>
      <trkpt lat="42.1080650" lon="2.3135120">
        <ele>789.2</ele>
        <time>2019-10-21T11:33:17Z</time>
      </trkpt>
      <trkpt lat="42.1080650" lon="2.3135120">
        <ele>789.2</ele>
        <time>2019-10-21T11:33:18Z</time>
      </trkpt>
      <trkpt lat="42.1082030" lon="2.3135740">
        <ele>789.4</ele>
        <time>2019-10-21T11:33:19Z</time>
      </trkpt>
      <trkpt lat="42.1082210" lon="2.3135820">
        <ele>789.4</ele>
        <time>2019-10-21T11:33:20Z</time>
      </trkpt>
      <trkpt lat="42.1082390" lon="2.3135900">
        <ele>789.4</ele>
        <time>2019-10-21T11:33:21Z</time>
      </trkpt>
      <trkpt lat="42.1083010" lon="2.3136330">
        <ele>789.0</ele>
        <time>2019-10-21T11:33:22Z</time>
      </trkpt>
      <trkpt lat="42.1083100" lon="2.3136520">
        <ele>789.2</ele>
        <time>2019-10-21T11:33:23Z</time>
      </trkpt>
      <trkpt lat="42.1083180" lon="2.3136700">
        <ele>789.0</ele>
        <time>2019-10-21T11:33:24Z</time>
      </trkpt>
      <trkpt lat="42.1083430" lon="2.3137420">
        <ele>789.4</ele>
        <time>2019-10-21T11:33:25Z</time>
      </trkpt>
      <trkpt lat="42.1083440" lon="2.3137590">
        <ele>789.0</ele>
        <time>2019-10-21T11:33:26Z</time>
      </trkpt>
      <trkpt lat="42.1083440" lon="2.3137750">
        <ele>789.2</ele>
        <time>2019-10-21T11:33:27Z</time>
      </trkpt>
      <trkpt lat="42.1083450" lon="2.3137920">
        <ele>789.2</ele>
        <time>2019-10-21T11:33:28Z</time>
      </trkpt>
      <trkpt lat="42.1083590" lon="2.3139100">
        <ele>789.2</ele>
        <time>2019-10-21T11:33:29Z</time>
      </trkpt>
      <trkpt lat="42.1083690" lon="2.3139620">
        <ele>789.2</ele>
        <time>2019-10-21T11:33:30Z</time>
      </trkpt>
      <trkpt lat="42.1083800" lon="2.3140140">
        <ele>789.0</ele>
        <time>2019-10-21T11:33:31Z</time>
      </trkpt>
      <trkpt lat="42.1083830" lon="2.3140400">
        <ele>789.2</ele>
        <time>2019-10-21T11:33:32Z</time>
      </trkpt>
      <trkpt lat="42.1083850" lon="2.3140660">
        <ele>789.2</ele>
        <time>2019-10-21T11:33:33Z</time>
      </trkpt>
      <trkpt lat="42.1083880" lon="2.3140920">
        <ele>788.8</ele>
        <time>2019-10-21T11:33:34Z</time>
      </trkpt>
      <trkpt lat="42.1083900" lon="2.3141910">
        <ele>788.6</ele>
        <time>2019-10-21T11:33:35Z</time>
      </trkpt>
      <trkpt lat="42.1083830" lon="2.3142130">
        <ele>788.6</ele>
        <time>2019-10-21T11:33:36Z</time>
      </trkpt>
      <trkpt lat="42.1083770" lon="2.3142340">
        <ele>788.6</ele>
        <time>2019-10-21T11:33:37Z</time>
      </trkpt>
      <trkpt lat="42.1083570" lon="2.3142980">
        <ele>789.0</ele>
        <time>2019-10-21T11:33:38Z</time>
      </trkpt>
      <trkpt lat="42.1083570" lon="2.3142980">
        <ele>788.6</ele>
        <time>2019-10-21T11:33:39Z</time>
      </trkpt>
      <trkpt lat="42.1083080" lon="2.3144390">
        <ele>789.0</ele>
        <time>2019-10-21T11:33:40Z</time>
      </trkpt>
      <trkpt lat="42.1083030" lon="2.3144550">
        <ele>789.4</ele>
        <time>2019-10-21T11:33:41Z</time>
      </trkpt>
      <trkpt lat="42.1082980" lon="2.3144720">
        <ele>790.6</ele>
        <time>2019-10-21T11:33:42Z</time>
      </trkpt>
      <trkpt lat="42.1082930" lon="2.3144880">
        <ele>791.0</ele>
        <time>2019-10-21T11:33:43Z</time>
      </trkpt>
      <trkpt lat="42.1082620" lon="2.3145900">
        <ele>791.8</ele>
        <time>2019-10-21T11:33:44Z</time>
      </trkpt>
      <trkpt lat="42.1082520" lon="2.3146280">
        <ele>791.8</ele>
        <time>2019-10-21T11:33:45Z</time>
      </trkpt>
      <trkpt lat="42.1082410" lon="2.3146650">
        <ele>791.8</ele>
        <time>2019-10-21T11:33:46Z</time>
      </trkpt>
      <trkpt lat="42.1082310" lon="2.3147020">
        <ele>791.4</ele>
        <time>2019-10-21T11:33:47Z</time>
      </trkpt>
      <trkpt lat="42.1082080" lon="2.3147440">
        <ele>791.8</ele>
        <time>2019-10-21T11:33:48Z</time>
      </trkpt>
      <trkpt lat="42.1081850" lon="2.3147860">
        <ele>791.6</ele>
        <time>2019-10-21T11:33:49Z</time>
      </trkpt>
      <trkpt lat="42.1081620" lon="2.3148280">
        <ele>791.6</ele>
        <time>2019-10-21T11:33:50Z</time>
      </trkpt>
      <trkpt lat="42.1081390" lon="2.3148700">
        <ele>791.6</ele>
        <time>2019-10-21T11:33:51Z</time>
      </trkpt>
      <trkpt lat="42.1080770" lon="2.3149280">
        <ele>791.6</ele>
        <time>2019-10-21T11:33:52Z</time>
      </trkpt>
      <trkpt lat="42.1080500" lon="2.3149430">
        <ele>791.4</ele>
        <time>2019-10-21T11:33:53Z</time>
      </trkpt>
      <trkpt lat="42.1080220" lon="2.3149570">
        <ele>791.8</ele>
        <time>2019-10-21T11:33:54Z</time>
      </trkpt>
      <trkpt lat="42.1079940" lon="2.3149710">
        <ele>791.8</ele>
        <time>2019-10-21T11:33:55Z</time>
      </trkpt>
      <trkpt lat="42.1079710" lon="2.3149840">
        <ele>792.4</ele>
        <time>2019-10-21T11:33:56Z</time>
      </trkpt>
      <trkpt lat="42.1079470" lon="2.3149980">
        <ele>792.4</ele>
        <time>2019-10-21T11:33:57Z</time>
      </trkpt>
      <trkpt lat="42.1079240" lon="2.3150110">
        <ele>792.2</ele>
        <time>2019-10-21T11:33:58Z</time>
      </trkpt>
      <trkpt lat="42.1079000" lon="2.3150250">
        <ele>792.6</ele>
        <time>2019-10-21T11:33:59Z</time>
      </trkpt>
      <trkpt lat="42.1078770" lon="2.3150380">
        <ele>792.8</ele>
        <time>2019-10-21T11:34:00Z</time>
      </trkpt>
      <trkpt lat="42.1077660" lon="2.3151190">
        <ele>793.4</ele>
        <time>2019-10-21T11:34:01Z</time>
      </trkpt>
      <trkpt lat="42.1077660" lon="2.3151190">
        <ele>793.0</ele>
        <time>2019-10-21T11:34:02Z</time>
      </trkpt>
      <trkpt lat="42.1077660" lon="2.3151190">
        <ele>793.8</ele>
        <time>2019-10-21T11:34:03Z</time>
      </trkpt>
      <trkpt lat="42.1076810" lon="2.3152190">
        <ele>793.6</ele>
        <time>2019-10-21T11:34:04Z</time>
      </trkpt>
      <trkpt lat="42.1076730" lon="2.3152370">
        <ele>794.0</ele>
        <time>2019-10-21T11:34:05Z</time>
      </trkpt>
      <trkpt lat="42.1076660" lon="2.3152550">
        <ele>794.0</ele>
        <time>2019-10-21T11:34:06Z</time>
      </trkpt>
      <trkpt lat="42.1076350" lon="2.3153280">
        <ele>794.2</ele>
        <time>2019-10-21T11:34:07Z</time>
      </trkpt>
      <trkpt lat="42.1076260" lon="2.3153470">
        <ele>794.0</ele>
        <time>2019-10-21T11:34:08Z</time>
      </trkpt>
      <trkpt lat="42.1076180" lon="2.3153660">
        <ele>794.2</ele>
        <time>2019-10-21T11:34:09Z</time>
      </trkpt>
      <trkpt lat="42.1075860" lon="2.3154410">
        <ele>794.0</ele>
        <time>2019-10-21T11:34:10Z</time>
      </trkpt>
      <trkpt lat="42.1075780" lon="2.3154600">
        <ele>794.0</ele>
        <time>2019-10-21T11:34:11Z</time>
      </trkpt>
      <trkpt lat="42.1075710" lon="2.3154790">
        <ele>793.8</ele>
        <time>2019-10-21T11:34:12Z</time>
      </trkpt>
      <trkpt lat="42.1075480" lon="2.3155360">
        <ele>793.4</ele>
        <time>2019-10-21T11:34:13Z</time>
      </trkpt>
      <trkpt lat="42.1075480" lon="2.3155360">
        <ele>793.0</ele>
        <time>2019-10-21T11:34:14Z</time>
      </trkpt>
      <trkpt lat="42.1075480" lon="2.3155360">
        <ele>792.6</ele>
        <time>2019-10-21T11:34:15Z</time>
      </trkpt>
      <trkpt lat="42.1075120" lon="2.3156680">
        <ele>793.4</ele>
        <time>2019-10-21T11:34:16Z</time>
      </trkpt>
      <trkpt lat="42.1075120" lon="2.3156680">
        <ele>793.6</ele>
        <time>2019-10-21T11:34:17Z</time>
      </trkpt>
      <trkpt lat="42.1075120" lon="2.3156680">
        <ele>794.2</ele>
        <time>2019-10-21T11:34:18Z</time>
      </trkpt>
      <trkpt lat="42.1074800" lon="2.3158220">
        <ele>794.0</ele>
        <time>2019-10-21T11:34:19Z</time>
      </trkpt>
      <trkpt lat="42.1074730" lon="2.3158450">
        <ele>794.4</ele>
        <time>2019-10-21T11:34:20Z</time>
      </trkpt>
      <trkpt lat="42.1074670" lon="2.3158680">
        <ele>794.4</ele>
        <time>2019-10-21T11:34:21Z</time>
      </trkpt>
      <trkpt lat="42.1074430" lon="2.3159570">
        <ele>795.4</ele>
        <time>2019-10-21T11:34:22Z</time>
      </trkpt>
      <trkpt lat="42.1074380" lon="2.3159780">
        <ele>795.2</ele>
        <time>2019-10-21T11:34:23Z</time>
      </trkpt>
      <trkpt lat="42.1074330" lon="2.3159990">
        <ele>795.8</ele>
        <time>2019-10-21T11:34:24Z</time>
      </trkpt>
      <trkpt lat="42.1074180" lon="2.3160610">
        <ele>795.6</ele>
        <time>2019-10-21T11:34:25Z</time>
      </trkpt>
      <trkpt lat="42.1074180" lon="2.3160610">
        <ele>795.4</ele>
        <time>2019-10-21T11:34:26Z</time>
      </trkpt>
      <trkpt lat="42.1074180" lon="2.3160610">
        <ele>795.2</ele>
        <time>2019-10-21T11:34:27Z</time>
      </trkpt>
      <trkpt lat="42.1074070" lon="2.3161920">
        <ele>795.0</ele>
        <time>2019-10-21T11:34:28Z</time>
      </trkpt>
      <trkpt lat="42.1074070" lon="2.3161920">
        <ele>794.6</ele>
        <time>2019-10-21T11:34:29Z</time>
      </trkpt>
      <trkpt lat="42.1074070" lon="2.3161920">
        <ele>794.6</ele>
        <time>2019-10-21T11:34:30Z</time>
      </trkpt>
      <trkpt lat="42.1074010" lon="2.3163420">
        <ele>794.8</ele>
        <time>2019-10-21T11:34:31Z</time>
      </trkpt>
      <trkpt lat="42.1074000" lon="2.3163630">
        <ele>794.4</ele>
        <time>2019-10-21T11:34:32Z</time>
      </trkpt>
      <trkpt lat="42.1074000" lon="2.3163830">
        <ele>794.4</ele>
        <time>2019-10-21T11:34:33Z</time>
      </trkpt>
      <trkpt lat="42.1073990" lon="2.3164680">
        <ele>794.2</ele>
        <time>2019-10-21T11:34:34Z</time>
      </trkpt>
      <trkpt lat="42.1073990" lon="2.3164920">
        <ele>794.4</ele>
        <time>2019-10-21T11:34:35Z</time>
      </trkpt>
      <trkpt lat="42.1074000" lon="2.3165160">
        <ele>794.0</ele>
        <time>2019-10-21T11:34:36Z</time>
      </trkpt>
      <trkpt lat="42.1073890" lon="2.3166030">
        <ele>794.2</ele>
        <time>2019-10-21T11:34:37Z</time>
      </trkpt>
      <trkpt lat="42.1073780" lon="2.3166170">
        <ele>793.6</ele>
        <time>2019-10-21T11:34:38Z</time>
      </trkpt>
      <trkpt lat="42.1073660" lon="2.3166310">
        <ele>793.8</ele>
        <time>2019-10-21T11:34:39Z</time>
      </trkpt>
      <trkpt lat="42.1073300" lon="2.3166720">
        <ele>793.4</ele>
        <time>2019-10-21T11:34:40Z</time>
      </trkpt>
      <trkpt lat="42.1073300" lon="2.3166720">
        <ele>793.0</ele>
        <time>2019-10-21T11:34:41Z</time>
      </trkpt>
      <trkpt lat="42.1073300" lon="2.3166720">
        <ele>792.8</ele>
        <time>2019-10-21T11:34:42Z</time>
      </trkpt>
      <trkpt lat="42.1073160" lon="2.3166860">
        <ele>792.4</ele>
        <time>2019-10-21T11:34:43Z</time>
      </trkpt>
      <trkpt lat="42.1073030" lon="2.3167010">
        <ele>791.6</ele>
        <time>2019-10-21T11:34:44Z</time>
      </trkpt>
      <trkpt lat="42.1072890" lon="2.3167150">
        <ele>791.2</ele>
        <time>2019-10-21T11:34:45Z</time>
      </trkpt>
      <trkpt lat="42.1072460" lon="2.3167780">
        <ele>790.6</ele>
        <time>2019-10-21T11:34:46Z</time>
      </trkpt>
      <trkpt lat="42.1072450" lon="2.3167990">
        <ele>790.0</ele>
        <time>2019-10-21T11:34:47Z</time>
      </trkpt>
      <trkpt lat="42.1072430" lon="2.3168200">
        <ele>789.2</ele>
        <time>2019-10-21T11:34:48Z</time>
      </trkpt>
      <trkpt lat="42.1072370" lon="2.3168820">
        <ele>789.0</ele>
        <time>2019-10-21T11:34:49Z</time>
      </trkpt>
      <trkpt lat="42.1072370" lon="2.3168820">
        <ele>788.2</ele>
        <time>2019-10-21T11:34:50Z</time>
      </trkpt>
      <trkpt lat="42.1072370" lon="2.3168820">
        <ele>788.2</ele>
        <time>2019-10-21T11:34:51Z</time>
      </trkpt>
      <trkpt lat="42.1072370" lon="2.3168820">
        <ele>787.6</ele>
        <time>2019-10-21T11:34:52Z</time>
      </trkpt>
      <trkpt lat="42.1072370" lon="2.3168820">
        <ele>787.6</ele>
        <time>2019-10-21T11:34:53Z</time>
      </trkpt>
      <trkpt lat="42.1072370" lon="2.3168820">
        <ele>787.2</ele>
        <time>2019-10-21T11:34:54Z</time>
      </trkpt>
      <trkpt lat="42.1072540" lon="2.3169260">
        <ele>787.2</ele>
        <time>2019-10-21T11:34:55Z</time>
      </trkpt>
      <trkpt lat="42.1072720" lon="2.3169700">
        <ele>786.8</ele>
        <time>2019-10-21T11:34:56Z</time>
      </trkpt>
      <trkpt lat="42.1072890" lon="2.3170140">
        <ele>786.8</ele>
        <time>2019-10-21T11:34:57Z</time>
      </trkpt>
      <trkpt lat="42.1073140" lon="2.3170450">
        <ele>786.4</ele>
        <time>2019-10-21T11:34:58Z</time>
      </trkpt>
      <trkpt lat="42.1073390" lon="2.3170760">
        <ele>786.4</ele>
        <time>2019-10-21T11:34:59Z</time>
      </trkpt>
      <trkpt lat="42.1073640" lon="2.3171070">
        <ele>786.4</ele>
        <time>2019-10-21T11:35:00Z</time>
      </trkpt>
      <trkpt lat="42.1073640" lon="2.3171070">
        <ele>786.4</ele>
        <time>2019-10-21T11:35:01Z</time>
      </trkpt>
      <trkpt lat="42.1073640" lon="2.3171070">
        <ele>786.2</ele>
        <time>2019-10-21T11:35:02Z</time>
      </trkpt>
      <trkpt lat="42.1073640" lon="2.3171070">
        <ele>786.4</ele>
        <time>2019-10-21T11:35:03Z</time>
      </trkpt>
      <trkpt lat="42.1074680" lon="2.3171610">
        <ele>786.2</ele>
        <time>2019-10-21T11:35:04Z</time>
      </trkpt>
      <trkpt lat="42.1074680" lon="2.3171610">
        <ele>786.2</ele>
        <time>2019-10-21T11:35:05Z</time>
      </trkpt>
      <trkpt lat="42.1074680" lon="2.3171610">
        <ele>785.8</ele>
        <time>2019-10-21T11:35:06Z</time>
      </trkpt>
      <trkpt lat="42.1074680" lon="2.3171610">
        <ele>786.0</ele>
        <time>2019-10-21T11:35:07Z</time>
      </trkpt>
      <trkpt lat="42.1074680" lon="2.3171610">
        <ele>786.2</ele>
        <time>2019-10-21T11:35:08Z</time>
      </trkpt>
      <trkpt lat="42.1074680" lon="2.3171610">
        <ele>786.2</ele>
        <time>2019-10-21T11:35:09Z</time>
      </trkpt>
      <trkpt lat="42.1075720" lon="2.3171500">
        <ele>786.0</ele>
        <time>2019-10-21T11:35:10Z</time>
      </trkpt>
      <trkpt lat="42.1075720" lon="2.3171500">
        <ele>786.2</ele>
        <time>2019-10-21T11:35:11Z</time>
      </trkpt>
      <trkpt lat="42.1075720" lon="2.3171500">
        <ele>786.2</ele>
        <time>2019-10-21T11:35:12Z</time>
      </trkpt>
      <trkpt lat="42.1075720" lon="2.3171500">
        <ele>786.2</ele>
        <time>2019-10-21T11:35:13Z</time>
      </trkpt>
      <trkpt lat="42.1075720" lon="2.3171500">
        <ele>786.0</ele>
        <time>2019-10-21T11:35:14Z</time>
      </trkpt>
      <trkpt lat="42.1075720" lon="2.3171500">
        <ele>786.0</ele>
        <time>2019-10-21T11:35:15Z</time>
      </trkpt>
      <trkpt lat="42.1076660" lon="2.3171270">
        <ele>786.4</ele>
        <time>2019-10-21T11:35:16Z</time>
      </trkpt>
      <trkpt lat="42.1076660" lon="2.3171270">
        <ele>786.2</ele>
        <time>2019-10-21T11:35:17Z</time>
      </trkpt>
      <trkpt lat="42.1076660" lon="2.3171270">
        <ele>786.4</ele>
        <time>2019-10-21T11:35:18Z</time>
      </trkpt>
      <trkpt lat="42.1076660" lon="2.3171270">
        <ele>786.4</ele>
        <time>2019-10-21T11:35:19Z</time>
      </trkpt>
      <trkpt lat="42.1076660" lon="2.3171270">
        <ele>787.0</ele>
        <time>2019-10-21T11:35:20Z</time>
      </trkpt>
      <trkpt lat="42.1076660" lon="2.3171270">
        <ele>787.0</ele>
        <time>2019-10-21T11:35:21Z</time>
      </trkpt>
      <trkpt lat="42.1076660" lon="2.3171270">
        <ele>787.4</ele>
        <time>2019-10-21T11:35:22Z</time>
      </trkpt>
      <trkpt lat="42.1076660" lon="2.3171270">
        <ele>787.0</ele>
        <time>2019-10-21T11:35:23Z</time>
      </trkpt>
      <trkpt lat="42.1076660" lon="2.3171270">
        <ele>787.8</ele>
        <time>2019-10-21T11:35:24Z</time>
      </trkpt>
      <trkpt lat="42.1076660" lon="2.3171270">
        <ele>787.6</ele>
        <time>2019-10-21T11:35:25Z</time>
      </trkpt>
      <trkpt lat="42.1076660" lon="2.3171270">
        <ele>787.8</ele>
        <time>2019-10-21T11:35:26Z</time>
      </trkpt>
      <trkpt lat="42.1076660" lon="2.3171270">
        <ele>787.8</ele>
        <time>2019-10-21T11:35:27Z</time>
      </trkpt>
      <trkpt lat="42.1076660" lon="2.3171270">
        <ele>787.8</ele>
        <time>2019-10-21T11:35:28Z</time>
      </trkpt>
      <trkpt lat="42.1076660" lon="2.3171270">
        <ele>787.6</ele>
        <time>2019-10-21T11:35:29Z</time>
      </trkpt>
      <trkpt lat="42.1076660" lon="2.3171270">
        <ele>787.6</ele>
        <time>2019-10-21T11:35:30Z</time>
      </trkpt>
      <trkpt lat="42.1076660" lon="2.3171270">
        <ele>787.4</ele>
        <time>2019-10-21T11:35:31Z</time>
      </trkpt>
      <trkpt lat="42.1076660" lon="2.3171270">
        <ele>787.2</ele>
        <time>2019-10-21T11:35:32Z</time>
      </trkpt>
      <trkpt lat="42.1076660" lon="2.3171270">
        <ele>787.0</ele>
        <time>2019-10-21T11:35:33Z</time>
      </trkpt>
      <trkpt lat="42.1076660" lon="2.3171270">
        <ele>786.6</ele>
        <time>2019-10-21T11:35:34Z</time>
      </trkpt>
      <trkpt lat="42.1076660" lon="2.3171270">
        <ele>786.6</ele>
        <time>2019-10-21T11:35:35Z</time>
      </trkpt>
      <trkpt lat="42.1076660" lon="2.3171270">
        <ele>786.0</ele>
        <time>2019-10-21T11:35:36Z</time>
      </trkpt>
      <trkpt lat="42.1076660" lon="2.3171270">
        <ele>786.0</ele>
        <time>2019-10-21T11:35:37Z</time>
      </trkpt>
      <trkpt lat="42.1076660" lon="2.3171270">
        <ele>785.0</ele>
        <time>2019-10-21T11:35:38Z</time>
      </trkpt>
      <trkpt lat="42.1076660" lon="2.3171270">
        <ele>785.0</ele>
        <time>2019-10-21T11:35:39Z</time>
      </trkpt>
      <trkpt lat="42.1076660" lon="2.3171270">
        <ele>784.6</ele>
        <time>2019-10-21T11:35:40Z</time>
      </trkpt>
      <trkpt lat="42.1076660" lon="2.3171270">
        <ele>784.6</ele>
        <time>2019-10-21T11:35:41Z</time>
      </trkpt>
      <trkpt lat="42.1076660" lon="2.3171270">
        <ele>784.2</ele>
        <time>2019-10-21T11:35:42Z</time>
      </trkpt>
      <trkpt lat="42.1076660" lon="2.3171270">
        <ele>784.2</ele>
        <time>2019-10-21T11:35:43Z</time>
      </trkpt>
      <trkpt lat="42.1076660" lon="2.3171270">
        <ele>784.0</ele>
        <time>2019-10-21T11:35:44Z</time>
      </trkpt>
      <trkpt lat="42.1076660" lon="2.3171270">
        <ele>783.8</ele>
        <time>2019-10-21T11:35:45Z</time>
      </trkpt>
      <trkpt lat="42.1076660" lon="2.3171270">
        <ele>784.2</ele>
        <time>2019-10-21T11:35:46Z</time>
      </trkpt>
      <trkpt lat="42.1076660" lon="2.3171270">
        <ele>784.2</ele>
        <time>2019-10-21T11:35:47Z</time>
      </trkpt>
      <trkpt lat="42.1076660" lon="2.3171270">
        <ele>784.4</ele>
        <time>2019-10-21T11:35:48Z</time>
      </trkpt>
      <trkpt lat="42.1076660" lon="2.3171270">
        <ele>784.2</ele>
        <time>2019-10-21T11:35:49Z</time>
      </trkpt>
      <trkpt lat="42.1076660" lon="2.3171270">
        <ele>784.0</ele>
        <time>2019-10-21T11:35:50Z</time>
      </trkpt>
      <trkpt lat="42.1076660" lon="2.3171270">
        <ele>783.8</ele>
        <time>2019-10-21T11:35:51Z</time>
      </trkpt>
      <trkpt lat="42.1076660" lon="2.3171270">
        <ele>783.2</ele>
        <time>2019-10-21T11:35:52Z</time>
      </trkpt>
      <trkpt lat="42.1076660" lon="2.3171270">
        <ele>783.6</ele>
        <time>2019-10-21T11:35:53Z</time>
      </trkpt>
      <trkpt lat="42.1076660" lon="2.3171270">
        <ele>782.4</ele>
        <time>2019-10-21T11:35:54Z</time>
      </trkpt>
      <trkpt lat="42.1076600" lon="2.3171050">
        <ele>783.0</ele>
        <time>2019-10-21T11:35:55Z</time>
      </trkpt>
      <trkpt lat="42.1076540" lon="2.3170830">
        <ele>783.2</ele>
        <time>2019-10-21T11:35:56Z</time>
      </trkpt>
      <trkpt lat="42.1076480" lon="2.3170600">
        <ele>783.6</ele>
        <time>2019-10-21T11:35:57Z</time>
      </trkpt>
      <trkpt lat="42.1076420" lon="2.3170380">
        <ele>783.6</ele>
        <time>2019-10-21T11:35:58Z</time>
      </trkpt>
      <trkpt lat="42.1076360" lon="2.3170160">
        <ele>783.4</ele>
        <time>2019-10-21T11:35:59Z</time>
      </trkpt>
      <trkpt lat="42.1076300" lon="2.3169940">
        <ele>783.2</ele>
        <time>2019-10-21T11:36:00Z</time>
      </trkpt>
      <trkpt lat="42.1076270" lon="2.3169750">
        <ele>783.4</ele>
        <time>2019-10-21T11:36:01Z</time>
      </trkpt>
      <trkpt lat="42.1076230" lon="2.3169560">
        <ele>783.6</ele>
        <time>2019-10-21T11:36:02Z</time>
      </trkpt>
      <trkpt lat="42.1076200" lon="2.3169360">
        <ele>784.0</ele>
        <time>2019-10-21T11:36:03Z</time>
      </trkpt>
      <trkpt lat="42.1076170" lon="2.3169170">
        <ele>784.0</ele>
        <time>2019-10-21T11:36:04Z</time>
      </trkpt>
      <trkpt lat="42.1076130" lon="2.3168980">
        <ele>784.2</ele>
        <time>2019-10-21T11:36:05Z</time>
      </trkpt>
      <trkpt lat="42.1076100" lon="2.3168790">
        <ele>784.8</ele>
        <time>2019-10-21T11:36:06Z</time>
      </trkpt>
      <trkpt lat="42.1076160" lon="2.3168660">
        <ele>785.2</ele>
        <time>2019-10-21T11:36:07Z</time>
      </trkpt>
      <trkpt lat="42.1076230" lon="2.3168530">
        <ele>785.4</ele>
        <time>2019-10-21T11:36:08Z</time>
      </trkpt>
      <trkpt lat="42.1076290" lon="2.3168400">
        <ele>785.6</ele>
        <time>2019-10-21T11:36:09Z</time>
      </trkpt>
      <trkpt lat="42.1076350" lon="2.3168270">
        <ele>785.8</ele>
        <time>2019-10-21T11:36:10Z</time>
      </trkpt>
      <trkpt lat="42.1076420" lon="2.3168140">
        <ele>785.6</ele>
        <time>2019-10-21T11:36:11Z</time>
      </trkpt>
      <trkpt lat="42.1076480" lon="2.3168010">
        <ele>785.6</ele>
        <time>2019-10-21T11:36:12Z</time>
      </trkpt>
      <trkpt lat="42.1076540" lon="2.3167890">
        <ele>785.4</ele>
        <time>2019-10-21T11:36:13Z</time>
      </trkpt>
      <trkpt lat="42.1076610" lon="2.3167760">
        <ele>785.4</ele>
        <time>2019-10-21T11:36:14Z</time>
      </trkpt>
      <trkpt lat="42.1076670" lon="2.3167630">
        <ele>785.2</ele>
        <time>2019-10-21T11:36:15Z</time>
      </trkpt>
      <trkpt lat="42.1076730" lon="2.3167500">
        <ele>785.0</ele>
        <time>2019-10-21T11:36:16Z</time>
      </trkpt>
      <trkpt lat="42.1076800" lon="2.3167370">
        <ele>784.8</ele>
        <time>2019-10-21T11:36:17Z</time>
      </trkpt>
      <trkpt lat="42.1076860" lon="2.3167240">
        <ele>784.6</ele>
        <time>2019-10-21T11:36:18Z</time>
      </trkpt>
      <trkpt lat="42.1076920" lon="2.3167110">
        <ele>784.2</ele>
        <time>2019-10-21T11:36:19Z</time>
      </trkpt>
      <trkpt lat="42.1076990" lon="2.3166980">
        <ele>784.0</ele>
        <time>2019-10-21T11:36:20Z</time>
      </trkpt>
      <trkpt lat="42.1077050" lon="2.3166850">
        <ele>783.8</ele>
        <time>2019-10-21T11:36:21Z</time>
      </trkpt>
      <trkpt lat="42.1077110" lon="2.3166720">
        <ele>783.8</ele>
        <time>2019-10-21T11:36:22Z</time>
      </trkpt>
      <trkpt lat="42.1077180" lon="2.3166590">
        <ele>783.6</ele>
        <time>2019-10-21T11:36:23Z</time>
      </trkpt>
      <trkpt lat="42.1077240" lon="2.3166460">
        <ele>783.6</ele>
        <time>2019-10-21T11:36:24Z</time>
      </trkpt>
      <trkpt lat="42.1077300" lon="2.3166330">
        <ele>783.6</ele>
        <time>2019-10-21T11:36:25Z</time>
      </trkpt>
      <trkpt lat="42.1077370" lon="2.3166200">
        <ele>783.6</ele>
        <time>2019-10-21T11:36:26Z</time>
      </trkpt>
      <trkpt lat="42.1077430" lon="2.3166080">
        <ele>783.8</ele>
        <time>2019-10-21T11:36:27Z</time>
      </trkpt>
      <trkpt lat="42.1077490" lon="2.3165950">
        <ele>784.2</ele>
        <time>2019-10-21T11:36:28Z</time>
      </trkpt>
      <trkpt lat="42.1077560" lon="2.3165820">
        <ele>784.2</ele>
        <time>2019-10-21T11:36:29Z</time>
      </trkpt>
      <trkpt lat="42.1077620" lon="2.3165690">
        <ele>784.2</ele>
        <time>2019-10-21T11:36:30Z</time>
      </trkpt>
      <trkpt lat="42.1077680" lon="2.3165560">
        <ele>784.2</ele>
        <time>2019-10-21T11:36:31Z</time>
      </trkpt>
      <trkpt lat="42.1077750" lon="2.3165430">
        <ele>784.2</ele>
        <time>2019-10-21T11:36:32Z</time>
      </trkpt>
      <trkpt lat="42.1077810" lon="2.3165300">
        <ele>784.4</ele>
        <time>2019-10-21T11:36:33Z</time>
      </trkpt>
      <trkpt lat="42.1077870" lon="2.3165170">
        <ele>784.4</ele>
        <time>2019-10-21T11:36:34Z</time>
      </trkpt>
      <trkpt lat="42.1077940" lon="2.3165040">
        <ele>784.6</ele>
        <time>2019-10-21T11:36:35Z</time>
      </trkpt>
      <trkpt lat="42.1078000" lon="2.3164910">
        <ele>784.8</ele>
        <time>2019-10-21T11:36:36Z</time>
      </trkpt>
      <trkpt lat="42.1078060" lon="2.3164780">
        <ele>785.2</ele>
        <time>2019-10-21T11:36:37Z</time>
      </trkpt>
      <trkpt lat="42.1078130" lon="2.3164650">
        <ele>785.6</ele>
        <time>2019-10-21T11:36:38Z</time>
      </trkpt>
      <trkpt lat="42.1078190" lon="2.3164520">
        <ele>785.8</ele>
        <time>2019-10-21T11:36:39Z</time>
      </trkpt>
      <trkpt lat="42.1078250" lon="2.3164390">
        <ele>786.2</ele>
        <time>2019-10-21T11:36:40Z</time>
      </trkpt>
      <trkpt lat="42.1078320" lon="2.3164270">
        <ele>786.8</ele>
        <time>2019-10-21T11:36:41Z</time>
      </trkpt>
      <trkpt lat="42.1078380" lon="2.3164140">
        <ele>786.8</ele>
        <time>2019-10-21T11:36:42Z</time>
      </trkpt>
      <trkpt lat="42.1078440" lon="2.3164010">
        <ele>787.2</ele>
        <time>2019-10-21T11:36:43Z</time>
      </trkpt>
      <trkpt lat="42.1078510" lon="2.3163880">
        <ele>787.6</ele>
        <time>2019-10-21T11:36:44Z</time>
      </trkpt>
      <trkpt lat="42.1078570" lon="2.3163750">
        <ele>788.0</ele>
        <time>2019-10-21T11:36:45Z</time>
      </trkpt>
      <trkpt lat="42.1078630" lon="2.3163620">
        <ele>788.4</ele>
        <time>2019-10-21T11:36:46Z</time>
      </trkpt>
      <trkpt lat="42.1078700" lon="2.3163490">
        <ele>788.8</ele>
        <time>2019-10-21T11:36:47Z</time>
      </trkpt>
      <trkpt lat="42.1078760" lon="2.3163360">
        <ele>789.2</ele>
        <time>2019-10-21T11:36:48Z</time>
      </trkpt>
      <trkpt lat="42.1079030" lon="2.3162640">
        <ele>789.8</ele>
        <time>2019-10-21T11:36:49Z</time>
      </trkpt>
      <trkpt lat="42.1079060" lon="2.3162480">
        <ele>790.2</ele>
        <time>2019-10-21T11:36:50Z</time>
      </trkpt>
      <trkpt lat="42.1079080" lon="2.3162320">
        <ele>790.4</ele>
        <time>2019-10-21T11:36:51Z</time>
      </trkpt>
      <trkpt lat="42.1079110" lon="2.3162170">
        <ele>790.8</ele>
        <time>2019-10-21T11:36:52Z</time>
      </trkpt>
      <trkpt lat="42.1079130" lon="2.3162010">
        <ele>791.0</ele>
        <time>2019-10-21T11:36:53Z</time>
      </trkpt>
      <trkpt lat="42.1079150" lon="2.3161850">
        <ele>791.4</ele>
        <time>2019-10-21T11:36:54Z</time>
      </trkpt>
      <trkpt lat="42.1079180" lon="2.3161690">
        <ele>791.6</ele>
        <time>2019-10-21T11:36:55Z</time>
      </trkpt>
      <trkpt lat="42.1079200" lon="2.3161530">
        <ele>792.0</ele>
        <time>2019-10-21T11:36:56Z</time>
      </trkpt>
      <trkpt lat="42.1079570" lon="2.3160250">
        <ele>792.2</ele>
        <time>2019-10-21T11:36:57Z</time>
      </trkpt>
      <trkpt lat="42.1079570" lon="2.3160250">
        <ele>792.0</ele>
        <time>2019-10-21T11:36:58Z</time>
      </trkpt>
      <trkpt lat="42.1079570" lon="2.3160250">
        <ele>792.0</ele>
        <time>2019-10-21T11:36:59Z</time>
      </trkpt>
      <trkpt lat="42.1079770" lon="2.3159960">
        <ele>791.8</ele>
        <time>2019-10-21T11:37:00Z</time>
      </trkpt>
      <trkpt lat="42.1079980" lon="2.3159680">
        <ele>792.4</ele>
        <time>2019-10-21T11:37:01Z</time>
      </trkpt>
      <trkpt lat="42.1080180" lon="2.3159390">
        <ele>792.8</ele>
        <time>2019-10-21T11:37:02Z</time>
      </trkpt>
      <trkpt lat="42.1080390" lon="2.3159110">
        <ele>793.4</ele>
        <time>2019-10-21T11:37:03Z</time>
      </trkpt>
      <trkpt lat="42.1080590" lon="2.3158820">
        <ele>793.4</ele>
        <time>2019-10-21T11:37:04Z</time>
      </trkpt>
      <trkpt lat="42.1080800" lon="2.3158540">
        <ele>793.2</ele>
        <time>2019-10-21T11:37:05Z</time>
      </trkpt>
      <trkpt lat="42.1081000" lon="2.3158250">
        <ele>794.0</ele>
        <time>2019-10-21T11:37:06Z</time>
      </trkpt>
      <trkpt lat="42.1081030" lon="2.3158090">
        <ele>794.2</ele>
        <time>2019-10-21T11:37:07Z</time>
      </trkpt>
      <trkpt lat="42.1081060" lon="2.3157930">
        <ele>794.0</ele>
        <time>2019-10-21T11:37:08Z</time>
      </trkpt>
      <trkpt lat="42.1081100" lon="2.3157780">
        <ele>794.6</ele>
        <time>2019-10-21T11:37:09Z</time>
      </trkpt>
      <trkpt lat="42.1081130" lon="2.3157620">
        <ele>794.8</ele>
        <time>2019-10-21T11:37:10Z</time>
      </trkpt>
      <trkpt lat="42.1081160" lon="2.3157460">
        <ele>794.6</ele>
        <time>2019-10-21T11:37:11Z</time>
      </trkpt>
      <trkpt lat="42.1081150" lon="2.3157390">
        <ele>794.8</ele>
        <time>2019-10-21T11:37:12Z</time>
      </trkpt>
      <trkpt lat="42.1081140" lon="2.3157320">
        <ele>795.2</ele>
        <time>2019-10-21T11:37:13Z</time>
      </trkpt>
      <trkpt lat="42.1081130" lon="2.3157250">
        <ele>795.8</ele>
        <time>2019-10-21T11:37:14Z</time>
      </trkpt>
      <trkpt lat="42.1081130" lon="2.3157180">
        <ele>796.4</ele>
        <time>2019-10-21T11:37:15Z</time>
      </trkpt>
      <trkpt lat="42.1081120" lon="2.3157110">
        <ele>796.8</ele>
        <time>2019-10-21T11:37:16Z</time>
      </trkpt>
      <trkpt lat="42.1081110" lon="2.3157040">
        <ele>797.2</ele>
        <time>2019-10-21T11:37:17Z</time>
      </trkpt>
      <trkpt lat="42.1081100" lon="2.3156970">
        <ele>797.2</ele>
        <time>2019-10-21T11:37:18Z</time>
      </trkpt>
      <trkpt lat="42.1081090" lon="2.3156900">
        <ele>797.8</ele>
        <time>2019-10-21T11:37:19Z</time>
      </trkpt>
      <trkpt lat="42.1081080" lon="2.3156490">
        <ele>797.8</ele>
        <time>2019-10-21T11:37:20Z</time>
      </trkpt>
      <trkpt lat="42.1081070" lon="2.3156330">
        <ele>798.4</ele>
        <time>2019-10-21T11:37:21Z</time>
      </trkpt>
      <trkpt lat="42.1081070" lon="2.3156160">
        <ele>798.8</ele>
        <time>2019-10-21T11:37:22Z</time>
      </trkpt>
      <trkpt lat="42.1081070" lon="2.3155990">
        <ele>799.4</ele>
        <time>2019-10-21T11:37:23Z</time>
      </trkpt>
      <trkpt lat="42.1081060" lon="2.3155830">
        <ele>799.4</ele>
        <time>2019-10-21T11:37:24Z</time>
      </trkpt>
      <trkpt lat="42.1081060" lon="2.3155660">
        <ele>799.2</ele>
        <time>2019-10-21T11:37:25Z</time>
      </trkpt>
      <trkpt lat="42.1081290" lon="2.3154840">
        <ele>800.0</ele>
        <time>2019-10-21T11:37:26Z</time>
      </trkpt>
      <trkpt lat="42.1081430" lon="2.3154670">
        <ele>800.4</ele>
        <time>2019-10-21T11:37:27Z</time>
      </trkpt>
      <trkpt lat="42.1081580" lon="2.3154490">
        <ele>800.6</ele>
        <time>2019-10-21T11:37:28Z</time>
      </trkpt>
      <trkpt lat="42.1081730" lon="2.3154310">
        <ele>800.4</ele>
        <time>2019-10-21T11:37:29Z</time>
      </trkpt>
      <trkpt lat="42.1081870" lon="2.3154140">
        <ele>801.0</ele>
        <time>2019-10-21T11:37:30Z</time>
      </trkpt>
      <trkpt lat="42.1082020" lon="2.3153960">
        <ele>801.4</ele>
        <time>2019-10-21T11:37:31Z</time>
      </trkpt>
      <trkpt lat="42.1082280" lon="2.3153880">
        <ele>801.8</ele>
        <time>2019-10-21T11:37:32Z</time>
      </trkpt>
      <trkpt lat="42.1082540" lon="2.3153790">
        <ele>802.2</ele>
        <time>2019-10-21T11:37:33Z</time>
      </trkpt>
      <trkpt lat="42.1082790" lon="2.3153710">
        <ele>802.4</ele>
        <time>2019-10-21T11:37:34Z</time>
      </trkpt>
      <trkpt lat="42.1083050" lon="2.3153620">
        <ele>802.6</ele>
        <time>2019-10-21T11:37:35Z</time>
      </trkpt>
      <trkpt lat="42.1083280" lon="2.3153800">
        <ele>803.0</ele>
        <time>2019-10-21T11:37:36Z</time>
      </trkpt>
      <trkpt lat="42.1083510" lon="2.3153990">
        <ele>803.0</ele>
        <time>2019-10-21T11:37:37Z</time>
      </trkpt>
      <trkpt lat="42.1083730" lon="2.3154170">
        <ele>803.6</ele>
        <time>2019-10-21T11:37:38Z</time>
      </trkpt>
      <trkpt lat="42.1083960" lon="2.3154360">
        <ele>804.0</ele>
        <time>2019-10-21T11:37:39Z</time>
      </trkpt>
      <trkpt lat="42.1083960" lon="2.3154360">
        <ele>804.4</ele>
        <time>2019-10-21T11:37:40Z</time>
      </trkpt>
      <trkpt lat="42.1083960" lon="2.3154360">
        <ele>804.6</ele>
        <time>2019-10-21T11:37:41Z</time>
      </trkpt>
      <trkpt lat="42.1083960" lon="2.3154360">
        <ele>805.0</ele>
        <time>2019-10-21T11:37:42Z</time>
      </trkpt>
      <trkpt lat="42.1083960" lon="2.3154360">
        <ele>805.8</ele>
        <time>2019-10-21T11:37:43Z</time>
      </trkpt>
      <trkpt lat="42.1083960" lon="2.3154360">
        <ele>806.2</ele>
        <time>2019-10-21T11:37:44Z</time>
      </trkpt>
      <trkpt lat="42.1083960" lon="2.3154360">
        <ele>806.6</ele>
        <time>2019-10-21T11:37:45Z</time>
      </trkpt>
      <trkpt lat="42.1083960" lon="2.3154360">
        <ele>806.4</ele>
        <time>2019-10-21T11:37:46Z</time>
      </trkpt>
      <trkpt lat="42.1083960" lon="2.3154360">
        <ele>806.2</ele>
        <time>2019-10-21T11:37:47Z</time>
      </trkpt>
      <trkpt lat="42.1083960" lon="2.3154360">
        <ele>807.0</ele>
        <time>2019-10-21T11:37:48Z</time>
      </trkpt>
      <trkpt lat="42.1083960" lon="2.3154360">
        <ele>807.6</ele>
        <time>2019-10-21T11:37:49Z</time>
      </trkpt>
      <trkpt lat="42.1083960" lon="2.3154360">
        <ele>808.2</ele>
        <time>2019-10-21T11:37:50Z</time>
      </trkpt>
      <trkpt lat="42.1083960" lon="2.3154360">
        <ele>808.6</ele>
        <time>2019-10-21T11:37:51Z</time>
      </trkpt>
      <trkpt lat="42.1083960" lon="2.3154360">
        <ele>808.4</ele>
        <time>2019-10-21T11:37:52Z</time>
      </trkpt>
      <trkpt lat="42.1083960" lon="2.3154360">
        <ele>809.2</ele>
        <time>2019-10-21T11:37:53Z</time>
      </trkpt>
      <trkpt lat="42.1083960" lon="2.3154360">
        <ele>809.6</ele>
        <time>2019-10-21T11:37:54Z</time>
      </trkpt>
      <trkpt lat="42.1083610" lon="2.3155510">
        <ele>810.0</ele>
        <time>2019-10-21T11:37:55Z</time>
      </trkpt>
      <trkpt lat="42.1083610" lon="2.3155510">
        <ele>809.8</ele>
        <time>2019-10-21T11:37:56Z</time>
      </trkpt>
      <trkpt lat="42.1083610" lon="2.3155510">
        <ele>810.0</ele>
        <time>2019-10-21T11:37:57Z</time>
      </trkpt>
      <trkpt lat="42.1083610" lon="2.3155510">
        <ele>810.2</ele>
        <time>2019-10-21T11:37:58Z</time>
      </trkpt>
      <trkpt lat="42.1083610" lon="2.3155510">
        <ele>810.4</ele>
        <time>2019-10-21T11:37:59Z</time>
      </trkpt>
      <trkpt lat="42.1083610" lon="2.3155510">
        <ele>810.4</ele>
        <time>2019-10-21T11:38:00Z</time>
      </trkpt>
      <trkpt lat="42.1083610" lon="2.3155510">
        <ele>810.8</ele>
        <time>2019-10-21T11:38:01Z</time>
      </trkpt>
      <trkpt lat="42.1083610" lon="2.3155510">
        <ele>810.8</ele>
        <time>2019-10-21T11:38:02Z</time>
      </trkpt>
      <trkpt lat="42.1083610" lon="2.3155510">
        <ele>810.8</ele>
        <time>2019-10-21T11:38:03Z</time>
      </trkpt>
      <trkpt lat="42.1083610" lon="2.3155510">
        <ele>811.0</ele>
        <time>2019-10-21T11:38:04Z</time>
      </trkpt>
      <trkpt lat="42.1083610" lon="2.3155510">
        <ele>810.8</ele>
        <time>2019-10-21T11:38:05Z</time>
      </trkpt>
      <trkpt lat="42.1083610" lon="2.3155510">
        <ele>811.0</ele>
        <time>2019-10-21T11:38:06Z</time>
      </trkpt>
      <trkpt lat="42.1083610" lon="2.3155510">
        <ele>811.2</ele>
        <time>2019-10-21T11:38:07Z</time>
      </trkpt>
      <trkpt lat="42.1083610" lon="2.3155510">
        <ele>811.2</ele>
        <time>2019-10-21T11:38:08Z</time>
      </trkpt>
      <trkpt lat="42.1084110" lon="2.3156580">
        <ele>811.0</ele>
        <time>2019-10-21T11:38:09Z</time>
      </trkpt>
      <trkpt lat="42.1084110" lon="2.3156580">
        <ele>811.0</ele>
        <time>2019-10-21T11:38:10Z</time>
      </trkpt>
      <trkpt lat="42.1084110" lon="2.3156580">
        <ele>810.6</ele>
        <time>2019-10-21T11:38:11Z</time>
      </trkpt>
      <trkpt lat="42.1084110" lon="2.3156580">
        <ele>810.4</ele>
        <time>2019-10-21T11:38:12Z</time>
      </trkpt>
      <trkpt lat="42.1084110" lon="2.3156580">
        <ele>810.0</ele>
        <time>2019-10-21T11:38:13Z</time>
      </trkpt>
      <trkpt lat="42.1084110" lon="2.3156580">
        <ele>809.2</ele>
        <time>2019-10-21T11:38:14Z</time>
      </trkpt>
      <trkpt lat="42.1084110" lon="2.3156580">
        <ele>808.6</ele>
        <time>2019-10-21T11:38:15Z</time>
      </trkpt>
      <trkpt lat="42.1084110" lon="2.3156580">
        <ele>808.4</ele>
        <time>2019-10-21T11:38:16Z</time>
      </trkpt>
      <trkpt lat="42.1084110" lon="2.3156580">
        <ele>808.4</ele>
        <time>2019-10-21T11:38:17Z</time>
      </trkpt>
      <trkpt lat="42.1084110" lon="2.3156580">
        <ele>808.2</ele>
        <time>2019-10-21T11:38:18Z</time>
      </trkpt>
      <trkpt lat="42.1084110" lon="2.3156580">
        <ele>808.4</ele>
        <time>2019-10-21T11:38:19Z</time>
      </trkpt>
      <trkpt lat="42.1084110" lon="2.3156580">
        <ele>808.0</ele>
        <time>2019-10-21T11:38:20Z</time>
      </trkpt>
      <trkpt lat="42.1084110" lon="2.3156580">
        <ele>807.6</ele>
        <time>2019-10-21T11:38:21Z</time>
      </trkpt>
      <trkpt lat="42.1084110" lon="2.3156580">
        <ele>807.4</ele>
        <time>2019-10-21T11:38:22Z</time>
      </trkpt>
      <trkpt lat="42.1084110" lon="2.3156580">
        <ele>807.4</ele>
        <time>2019-10-21T11:38:23Z</time>
      </trkpt>
      <trkpt lat="42.1084110" lon="2.3156580">
        <ele>808.2</ele>
        <time>2019-10-21T11:38:24Z</time>
      </trkpt>
      <trkpt lat="42.1084250" lon="2.3156700">
        <ele>808.4</ele>
        <time>2019-10-21T11:38:25Z</time>
      </trkpt>
      <trkpt lat="42.1084380" lon="2.3156810">
        <ele>809.2</ele>
        <time>2019-10-21T11:38:26Z</time>
      </trkpt>
      <trkpt lat="42.1084520" lon="2.3156930">
        <ele>809.2</ele>
        <time>2019-10-21T11:38:27Z</time>
      </trkpt>
      <trkpt lat="42.1084650" lon="2.3157050">
        <ele>809.6</ele>
        <time>2019-10-21T11:38:28Z</time>
      </trkpt>
      <trkpt lat="42.1084650" lon="2.3157070">
        <ele>810.4</ele>
        <time>2019-10-21T11:38:29Z</time>
      </trkpt>
      <trkpt lat="42.1084660" lon="2.3157090">
        <ele>810.6</ele>
        <time>2019-10-21T11:38:30Z</time>
      </trkpt>
      <trkpt lat="42.1084660" lon="2.3157110">
        <ele>811.0</ele>
        <time>2019-10-21T11:38:31Z</time>
      </trkpt>
      <trkpt lat="42.1084670" lon="2.3157130">
        <ele>811.2</ele>
        <time>2019-10-21T11:38:32Z</time>
      </trkpt>
      <trkpt lat="42.1084670" lon="2.3157150">
        <ele>811.2</ele>
        <time>2019-10-21T11:38:33Z</time>
      </trkpt>
      <trkpt lat="42.1084670" lon="2.3157170">
        <ele>811.2</ele>
        <time>2019-10-21T11:38:34Z</time>
      </trkpt>
      <trkpt lat="42.1084680" lon="2.3157190">
        <ele>811.2</ele>
        <time>2019-10-21T11:38:35Z</time>
      </trkpt>
      <trkpt lat="42.1084680" lon="2.3157210">
        <ele>811.4</ele>
        <time>2019-10-21T11:38:36Z</time>
      </trkpt>
      <trkpt lat="42.1084690" lon="2.3157230">
        <ele>811.4</ele>
        <time>2019-10-21T11:38:37Z</time>
      </trkpt>
      <trkpt lat="42.1084690" lon="2.3157250">
        <ele>811.6</ele>
        <time>2019-10-21T11:38:38Z</time>
      </trkpt>
      <trkpt lat="42.1084700" lon="2.3157270">
        <ele>811.4</ele>
        <time>2019-10-21T11:38:39Z</time>
      </trkpt>
      <trkpt lat="42.1084700" lon="2.3157290">
        <ele>810.4</ele>
        <time>2019-10-21T11:38:40Z</time>
      </trkpt>
      <trkpt lat="42.1084700" lon="2.3157310">
        <ele>810.6</ele>
        <time>2019-10-21T11:38:41Z</time>
      </trkpt>
      <trkpt lat="42.1084710" lon="2.3157330">
        <ele>810.6</ele>
        <time>2019-10-21T11:38:42Z</time>
      </trkpt>
      <trkpt lat="42.1084710" lon="2.3157350">
        <ele>810.2</ele>
        <time>2019-10-21T11:38:43Z</time>
      </trkpt>
      <trkpt lat="42.1084720" lon="2.3157370">
        <ele>809.6</ele>
        <time>2019-10-21T11:38:44Z</time>
      </trkpt>
      <trkpt lat="42.1084720" lon="2.3157390">
        <ele>809.6</ele>
        <time>2019-10-21T11:38:45Z</time>
      </trkpt>
      <trkpt lat="42.1084720" lon="2.3157390">
        <ele>809.4</ele>
        <time>2019-10-21T11:38:46Z</time>
      </trkpt>
      <trkpt lat="42.1084720" lon="2.3157390">
        <ele>808.8</ele>
        <time>2019-10-21T11:38:47Z</time>
      </trkpt>
      <trkpt lat="42.1084720" lon="2.3157390">
        <ele>808.8</ele>
        <time>2019-10-21T11:38:48Z</time>
      </trkpt>
      <trkpt lat="42.1084720" lon="2.3157390">
        <ele>808.6</ele>
        <time>2019-10-21T11:38:49Z</time>
      </trkpt>
      <trkpt lat="42.1084720" lon="2.3157390">
        <ele>808.2</ele>
        <time>2019-10-21T11:38:50Z</time>
      </trkpt>
      <trkpt lat="42.1084720" lon="2.3157390">
        <ele>807.8</ele>
        <time>2019-10-21T11:38:51Z</time>
      </trkpt>
      <trkpt lat="42.1084720" lon="2.3157390">
        <ele>807.2</ele>
        <time>2019-10-21T11:38:52Z</time>
      </trkpt>
      <trkpt lat="42.1084720" lon="2.3157390">
        <ele>807.0</ele>
        <time>2019-10-21T11:38:53Z</time>
      </trkpt>
      <trkpt lat="42.1084720" lon="2.3157390">
        <ele>806.6</ele>
        <time>2019-10-21T11:38:54Z</time>
      </trkpt>
      <trkpt lat="42.1084720" lon="2.3157390">
        <ele>806.2</ele>
        <time>2019-10-21T11:38:55Z</time>
      </trkpt>
      <trkpt lat="42.1084720" lon="2.3157390">
        <ele>806.0</ele>
        <time>2019-10-21T11:38:56Z</time>
      </trkpt>
      <trkpt lat="42.1084720" lon="2.3157390">
        <ele>805.6</ele>
        <time>2019-10-21T11:38:57Z</time>
      </trkpt>
      <trkpt lat="42.1084720" lon="2.3157390">
        <ele>805.0</ele>
        <time>2019-10-21T11:38:58Z</time>
      </trkpt>
      <trkpt lat="42.1084720" lon="2.3157390">
        <ele>804.4</ele>
        <time>2019-10-21T11:38:59Z</time>
      </trkpt>
      <trkpt lat="42.1084740" lon="2.3157420">
        <ele>804.2</ele>
        <time>2019-10-21T11:39:00Z</time>
      </trkpt>
      <trkpt lat="42.1084750" lon="2.3157440">
        <ele>803.8</ele>
        <time>2019-10-21T11:39:01Z</time>
      </trkpt>
      <trkpt lat="42.1084770" lon="2.3157470">
        <ele>803.6</ele>
        <time>2019-10-21T11:39:02Z</time>
      </trkpt>
      <trkpt lat="42.1084790" lon="2.3157490">
        <ele>803.4</ele>
        <time>2019-10-21T11:39:03Z</time>
      </trkpt>
      <trkpt lat="42.1084810" lon="2.3157520">
        <ele>803.4</ele>
        <time>2019-10-21T11:39:04Z</time>
      </trkpt>
      <trkpt lat="42.1084820" lon="2.3157550">
        <ele>803.4</ele>
        <time>2019-10-21T11:39:05Z</time>
      </trkpt>
      <trkpt lat="42.1084840" lon="2.3157570">
        <ele>803.2</ele>
        <time>2019-10-21T11:39:06Z</time>
      </trkpt>
      <trkpt lat="42.1084860" lon="2.3157600">
        <ele>803.0</ele>
        <time>2019-10-21T11:39:07Z</time>
      </trkpt>
      <trkpt lat="42.1084880" lon="2.3157620">
        <ele>802.8</ele>
        <time>2019-10-21T11:39:08Z</time>
      </trkpt>
      <trkpt lat="42.1084890" lon="2.3157650">
        <ele>802.6</ele>
        <time>2019-10-21T11:39:09Z</time>
      </trkpt>
      <trkpt lat="42.1084910" lon="2.3157680">
        <ele>802.4</ele>
        <time>2019-10-21T11:39:10Z</time>
      </trkpt>
      <trkpt lat="42.1084930" lon="2.3157700">
        <ele>802.2</ele>
        <time>2019-10-21T11:39:11Z</time>
      </trkpt>
      <trkpt lat="42.1084940" lon="2.3157730">
        <ele>802.2</ele>
        <time>2019-10-21T11:39:12Z</time>
      </trkpt>
      <trkpt lat="42.1084960" lon="2.3157760">
        <ele>802.0</ele>
        <time>2019-10-21T11:39:13Z</time>
      </trkpt>
      <trkpt lat="42.1084980" lon="2.3157780">
        <ele>802.0</ele>
        <time>2019-10-21T11:39:14Z</time>
      </trkpt>
      <trkpt lat="42.1085000" lon="2.3157810">
        <ele>802.0</ele>
        <time>2019-10-21T11:39:15Z</time>
      </trkpt>
      <trkpt lat="42.1085010" lon="2.3157830">
        <ele>802.0</ele>
        <time>2019-10-21T11:39:16Z</time>
      </trkpt>
      <trkpt lat="42.1085030" lon="2.3157860">
        <ele>801.6</ele>
        <time>2019-10-21T11:39:17Z</time>
      </trkpt>
      <trkpt lat="42.1085030" lon="2.3157860">
        <ele>801.4</ele>
        <time>2019-10-21T11:39:18Z</time>
      </trkpt>
      <trkpt lat="42.1085030" lon="2.3157860">
        <ele>801.0</ele>
        <time>2019-10-21T11:39:19Z</time>
      </trkpt>
      <trkpt lat="42.1085030" lon="2.3157860">
        <ele>800.8</ele>
        <time>2019-10-21T11:39:20Z</time>
      </trkpt>
      <trkpt lat="42.1085030" lon="2.3157860">
        <ele>800.4</ele>
        <time>2019-10-21T11:39:21Z</time>
      </trkpt>
      <trkpt lat="42.1085030" lon="2.3157860">
        <ele>800.2</ele>
        <time>2019-10-21T11:39:22Z</time>
      </trkpt>
      <trkpt lat="42.1085030" lon="2.3157860">
        <ele>800.0</ele>
        <time>2019-10-21T11:39:23Z</time>
      </trkpt>
      <trkpt lat="42.1085030" lon="2.3157860">
        <ele>799.6</ele>
        <time>2019-10-21T11:39:24Z</time>
      </trkpt>
      <trkpt lat="42.1085030" lon="2.3157860">
        <ele>799.2</ele>
        <time>2019-10-21T11:39:25Z</time>
      </trkpt>
      <trkpt lat="42.1085030" lon="2.3157860">
        <ele>799.0</ele>
        <time>2019-10-21T11:39:26Z</time>
      </trkpt>
      <trkpt lat="42.1084990" lon="2.3157870">
        <ele>799.2</ele>
        <time>2019-10-21T11:39:27Z</time>
      </trkpt>
      <trkpt lat="42.1084950" lon="2.3157890">
        <ele>799.0</ele>
        <time>2019-10-21T11:39:28Z</time>
      </trkpt>
      <trkpt lat="42.1084900" lon="2.3157900">
        <ele>798.8</ele>
        <time>2019-10-21T11:39:29Z</time>
      </trkpt>
      <trkpt lat="42.1084860" lon="2.3157920">
        <ele>798.8</ele>
        <time>2019-10-21T11:39:30Z</time>
      </trkpt>
      <trkpt lat="42.1084820" lon="2.3157930">
        <ele>798.6</ele>
        <time>2019-10-21T11:39:31Z</time>
      </trkpt>
      <trkpt lat="42.1084780" lon="2.3157940">
        <ele>798.8</ele>
        <time>2019-10-21T11:39:32Z</time>
      </trkpt>
      <trkpt lat="42.1084730" lon="2.3157960">
        <ele>798.6</ele>
        <time>2019-10-21T11:39:33Z</time>
      </trkpt>
      <trkpt lat="42.1084690" lon="2.3157970">
        <ele>798.2</ele>
        <time>2019-10-21T11:39:34Z</time>
      </trkpt>
      <trkpt lat="42.1084650" lon="2.3157990">
        <ele>798.2</ele>
        <time>2019-10-21T11:39:35Z</time>
      </trkpt>
      <trkpt lat="42.1084610" lon="2.3158000">
        <ele>798.2</ele>
        <time>2019-10-21T11:39:36Z</time>
      </trkpt>
      <trkpt lat="42.1084570" lon="2.3158010">
        <ele>798.0</ele>
        <time>2019-10-21T11:39:37Z</time>
      </trkpt>
      <trkpt lat="42.1084520" lon="2.3158030">
        <ele>798.0</ele>
        <time>2019-10-21T11:39:38Z</time>
      </trkpt>
      <trkpt lat="42.1084480" lon="2.3158040">
        <ele>797.8</ele>
        <time>2019-10-21T11:39:39Z</time>
      </trkpt>
      <trkpt lat="42.1084440" lon="2.3158060">
        <ele>797.6</ele>
        <time>2019-10-21T11:39:40Z</time>
      </trkpt>
      <trkpt lat="42.1084400" lon="2.3158070">
        <ele>797.2</ele>
        <time>2019-10-21T11:39:41Z</time>
      </trkpt>
      <trkpt lat="42.1084350" lon="2.3158090">
        <ele>797.2</ele>
        <time>2019-10-21T11:39:42Z</time>
      </trkpt>
      <trkpt lat="42.1084310" lon="2.3158100">
        <ele>796.8</ele>
        <time>2019-10-21T11:39:43Z</time>
      </trkpt>
      <trkpt lat="42.1084270" lon="2.3158110">
        <ele>796.6</ele>
        <time>2019-10-21T11:39:44Z</time>
      </trkpt>
      <trkpt lat="42.1084230" lon="2.3158130">
        <ele>796.4</ele>
        <time>2019-10-21T11:39:45Z</time>
      </trkpt>
      <trkpt lat="42.1084190" lon="2.3158140">
        <ele>796.4</ele>
        <time>2019-10-21T11:39:46Z</time>
      </trkpt>
      <trkpt lat="42.1084140" lon="2.3158160">
        <ele>796.2</ele>
        <time>2019-10-21T11:39:47Z</time>
      </trkpt>
      <trkpt lat="42.1084100" lon="2.3158170">
        <ele>796.2</ele>
        <time>2019-10-21T11:39:48Z</time>
      </trkpt>
      <trkpt lat="42.1084060" lon="2.3158180">
        <ele>796.2</ele>
        <time>2019-10-21T11:39:49Z</time>
      </trkpt>
      <trkpt lat="42.1084020" lon="2.3158200">
        <ele>796.6</ele>
        <time>2019-10-21T11:39:50Z</time>
      </trkpt>
      <trkpt lat="42.1083970" lon="2.3158210">
        <ele>796.8</ele>
        <time>2019-10-21T11:39:51Z</time>
      </trkpt>
      <trkpt lat="42.1083930" lon="2.3158230">
        <ele>796.6</ele>
        <time>2019-10-21T11:39:52Z</time>
      </trkpt>
      <trkpt lat="42.1083890" lon="2.3158240">
        <ele>796.6</ele>
        <time>2019-10-21T11:39:53Z</time>
      </trkpt>
      <trkpt lat="42.1083890" lon="2.3158240">
        <ele>796.6</ele>
        <time>2019-10-21T11:39:54Z</time>
      </trkpt>
      <trkpt lat="42.1083890" lon="2.3158240">
        <ele>796.4</ele>
        <time>2019-10-21T11:39:55Z</time>
      </trkpt>
      <trkpt lat="42.1083890" lon="2.3158240">
        <ele>796.4</ele>
        <time>2019-10-21T11:39:56Z</time>
      </trkpt>
      <trkpt lat="42.1083890" lon="2.3158240">
        <ele>796.4</ele>
        <time>2019-10-21T11:39:57Z</time>
      </trkpt>
      <trkpt lat="42.1083890" lon="2.3158240">
        <ele>796.4</ele>
        <time>2019-10-21T11:39:58Z</time>
      </trkpt>
      <trkpt lat="42.1083890" lon="2.3158240">
        <ele>796.6</ele>
        <time>2019-10-21T11:39:59Z</time>
      </trkpt>
      <trkpt lat="42.1083890" lon="2.3158240">
        <ele>796.8</ele>
        <time>2019-10-21T11:40:01Z</time>
      </trkpt>
      <trkpt lat="42.1083890" lon="2.3158240">
        <ele>796.6</ele>
        <time>2019-10-21T11:40:02Z</time>
      </trkpt>
      <trkpt lat="42.1083890" lon="2.3158240">
        <ele>796.6</ele>
        <time>2019-10-21T11:40:03Z</time>
      </trkpt>
      <trkpt lat="42.1083890" lon="2.3158240">
        <ele>796.6</ele>
        <time>2019-10-21T11:40:04Z</time>
      </trkpt>
      <trkpt lat="42.1083890" lon="2.3158240">
        <ele>796.4</ele>
        <time>2019-10-21T11:40:05Z</time>
      </trkpt>
      <trkpt lat="42.1083890" lon="2.3158240">
        <ele>796.4</ele>
        <time>2019-10-21T11:40:06Z</time>
      </trkpt>
      <trkpt lat="42.1083890" lon="2.3158240">
        <ele>796.4</ele>
        <time>2019-10-21T11:40:07Z</time>
      </trkpt>
      <trkpt lat="42.1083890" lon="2.3158240">
        <ele>796.4</ele>
        <time>2019-10-21T11:40:08Z</time>
      </trkpt>
      <trkpt lat="42.1083890" lon="2.3158240">
        <ele>796.4</ele>
        <time>2019-10-21T11:40:09Z</time>
      </trkpt>
      <trkpt lat="42.1083890" lon="2.3158240">
        <ele>796.4</ele>
        <time>2019-10-21T11:40:10Z</time>
      </trkpt>
      <trkpt lat="42.1083890" lon="2.3158240">
        <ele>796.6</ele>
        <time>2019-10-21T11:40:11Z</time>
      </trkpt>
      <trkpt lat="42.1083890" lon="2.3158240">
        <ele>796.6</ele>
        <time>2019-10-21T11:40:12Z</time>
      </trkpt>
      <trkpt lat="42.1083890" lon="2.3158240">
        <ele>796.6</ele>
        <time>2019-10-21T11:40:13Z</time>
      </trkpt>
      <trkpt lat="42.1083890" lon="2.3158240">
        <ele>796.2</ele>
        <time>2019-10-21T11:40:14Z</time>
      </trkpt>
      <trkpt lat="42.1083890" lon="2.3158240">
        <ele>796.0</ele>
        <time>2019-10-21T11:40:15Z</time>
      </trkpt>
      <trkpt lat="42.1083890" lon="2.3158240">
        <ele>796.0</ele>
        <time>2019-10-21T11:40:16Z</time>
      </trkpt>
      <trkpt lat="42.1083890" lon="2.3158240">
        <ele>796.0</ele>
        <time>2019-10-21T11:40:17Z</time>
      </trkpt>
      <trkpt lat="42.1083890" lon="2.3158240">
        <ele>796.0</ele>
        <time>2019-10-21T11:40:18Z</time>
      </trkpt>
      <trkpt lat="42.1083890" lon="2.3158240">
        <ele>796.0</ele>
        <time>2019-10-21T11:40:19Z</time>
      </trkpt>
      <trkpt lat="42.1083890" lon="2.3158240">
        <ele>796.0</ele>
        <time>2019-10-21T11:40:20Z</time>
      </trkpt>
      <trkpt lat="42.1083890" lon="2.3158240">
        <ele>796.0</ele>
        <time>2019-10-21T11:40:21Z</time>
      </trkpt>
      <trkpt lat="42.1083890" lon="2.3158240">
        <ele>796.0</ele>
        <time>2019-10-21T11:40:22Z</time>
      </trkpt>
      <trkpt lat="42.1083890" lon="2.3158240">
        <ele>796.0</ele>
        <time>2019-10-21T11:40:23Z</time>
      </trkpt>
      <trkpt lat="42.1083890" lon="2.3158240">
        <ele>796.4</ele>
        <time>2019-10-21T11:40:24Z</time>
      </trkpt>
      <trkpt lat="42.1083890" lon="2.3158240">
        <ele>796.8</ele>
        <time>2019-10-21T11:40:25Z</time>
      </trkpt>
      <trkpt lat="42.1083890" lon="2.3158240">
        <ele>797.0</ele>
        <time>2019-10-21T11:40:26Z</time>
      </trkpt>
      <trkpt lat="42.1083890" lon="2.3158240">
        <ele>797.2</ele>
        <time>2019-10-21T11:40:27Z</time>
      </trkpt>
      <trkpt lat="42.1083890" lon="2.3158240">
        <ele>797.6</ele>
        <time>2019-10-21T11:40:28Z</time>
      </trkpt>
      <trkpt lat="42.1083890" lon="2.3158240">
        <ele>798.0</ele>
        <time>2019-10-21T11:40:29Z</time>
      </trkpt>
      <trkpt lat="42.1083890" lon="2.3158240">
        <ele>798.2</ele>
        <time>2019-10-21T11:40:30Z</time>
      </trkpt>
      <trkpt lat="42.1083890" lon="2.3158240">
        <ele>798.2</ele>
        <time>2019-10-21T11:40:31Z</time>
      </trkpt>
      <trkpt lat="42.1083890" lon="2.3158240">
        <ele>798.4</ele>
        <time>2019-10-21T11:40:32Z</time>
      </trkpt>
      <trkpt lat="42.1083890" lon="2.3158240">
        <ele>798.6</ele>
        <time>2019-10-21T11:40:33Z</time>
      </trkpt>
      <trkpt lat="42.1083890" lon="2.3158240">
        <ele>798.4</ele>
        <time>2019-10-21T11:40:34Z</time>
      </trkpt>
      <trkpt lat="42.1083890" lon="2.3158240">
        <ele>798.4</ele>
        <time>2019-10-21T11:40:35Z</time>
      </trkpt>
      <trkpt lat="42.1083890" lon="2.3158240">
        <ele>798.6</ele>
        <time>2019-10-21T11:40:36Z</time>
      </trkpt>
      <trkpt lat="42.1083890" lon="2.3158240">
        <ele>798.6</ele>
        <time>2019-10-21T11:40:37Z</time>
      </trkpt>
      <trkpt lat="42.1083890" lon="2.3158240">
        <ele>799.0</ele>
        <time>2019-10-21T11:40:38Z</time>
      </trkpt>
      <trkpt lat="42.1083890" lon="2.3158240">
        <ele>799.0</ele>
        <time>2019-10-21T11:40:39Z</time>
      </trkpt>
      <trkpt lat="42.1083890" lon="2.3158240">
        <ele>798.8</ele>
        <time>2019-10-21T11:40:40Z</time>
      </trkpt>
      <trkpt lat="42.1083820" lon="2.3154510">
        <ele>799.0</ele>
        <time>2019-10-21T11:40:41Z</time>
      </trkpt>
      <trkpt lat="42.1083930" lon="2.3154220">
        <ele>799.2</ele>
        <time>2019-10-21T11:40:42Z</time>
      </trkpt>
      <trkpt lat="42.1084040" lon="2.3153930">
        <ele>799.2</ele>
        <time>2019-10-21T11:40:43Z</time>
      </trkpt>
      <trkpt lat="42.1084140" lon="2.3153630">
        <ele>799.0</ele>
        <time>2019-10-21T11:40:44Z</time>
      </trkpt>
      <trkpt lat="42.1084250" lon="2.3153340">
        <ele>799.0</ele>
        <time>2019-10-21T11:40:47Z</time>
      </trkpt>
      <trkpt lat="42.1084360" lon="2.3153050">
        <ele>799.0</ele>
        <time>2019-10-21T11:40:53Z</time>
      </trkpt>
      <trkpt lat="42.1084470" lon="2.3152760">
        <ele>799.0</ele>
        <time>2019-10-21T11:41:02Z</time>
      </trkpt>
      <trkpt lat="42.1084580" lon="2.3152460">
        <ele>799.0</ele>
        <time>2019-10-21T11:41:08Z</time>
      </trkpt>
      <trkpt lat="42.1084690" lon="2.3152170">
        <ele>799.0</ele>
        <time>2019-10-21T11:41:13Z</time>
      </trkpt>
      <trkpt lat="42.1084790" lon="2.3151880">
        <ele>799.0</ele>
        <time>2019-10-21T11:41:16Z</time>
      </trkpt>
      <trkpt lat="42.1084900" lon="2.3151590">
        <ele>799.0</ele>
        <time>2019-10-21T11:41:20Z</time>
      </trkpt>
      <trkpt lat="42.1085010" lon="2.3151290">
        <ele>807.4</ele>
        <time>2019-10-21T11:41:31Z</time>
      </trkpt>
      <trkpt lat="42.1085120" lon="2.3151000">
        <ele>807.6</ele>
        <time>2019-10-21T11:41:32Z</time>
      </trkpt>
      <trkpt lat="42.1085230" lon="2.3150710">
        <ele>807.4</ele>
        <time>2019-10-21T11:41:33Z</time>
      </trkpt>
      <trkpt lat="42.1085340" lon="2.3150420">
        <ele>808.0</ele>
        <time>2019-10-21T11:41:34Z</time>
      </trkpt>
      <trkpt lat="42.1085440" lon="2.3150120">
        <ele>808.0</ele>
        <time>2019-10-21T11:41:35Z</time>
      </trkpt>
      <trkpt lat="42.1085550" lon="2.3149830">
        <ele>808.6</ele>
        <time>2019-10-21T11:41:36Z</time>
      </trkpt>
      <trkpt lat="42.1085660" lon="2.3149540">
        <ele>808.6</ele>
        <time>2019-10-21T11:41:37Z</time>
      </trkpt>
      <trkpt lat="42.1085640" lon="2.3149280">
        <ele>809.0</ele>
        <time>2019-10-21T11:41:38Z</time>
      </trkpt>
      <trkpt lat="42.1085640" lon="2.3149280">
        <ele>809.4</ele>
        <time>2019-10-21T11:41:39Z</time>
      </trkpt>
      <trkpt lat="42.1085640" lon="2.3149280">
        <ele>809.6</ele>
        <time>2019-10-21T11:41:40Z</time>
      </trkpt>
      <trkpt lat="42.1085640" lon="2.3149280">
        <ele>810.0</ele>
        <time>2019-10-21T11:41:41Z</time>
      </trkpt>
      <trkpt lat="42.1085640" lon="2.3149280">
        <ele>810.2</ele>
        <time>2019-10-21T11:41:42Z</time>
      </trkpt>
      <trkpt lat="42.1085640" lon="2.3149280">
        <ele>810.4</ele>
        <time>2019-10-21T11:41:43Z</time>
      </trkpt>
      <trkpt lat="42.1085640" lon="2.3149280">
        <ele>810.4</ele>
        <time>2019-10-21T11:41:44Z</time>
      </trkpt>
      <trkpt lat="42.1085640" lon="2.3149280">
        <ele>810.4</ele>
        <time>2019-10-21T11:41:45Z</time>
      </trkpt>
      <trkpt lat="42.1085640" lon="2.3149280">
        <ele>810.6</ele>
        <time>2019-10-21T11:41:46Z</time>
      </trkpt>
      <trkpt lat="42.1085640" lon="2.3149280">
        <ele>811.0</ele>
        <time>2019-10-21T11:41:47Z</time>
      </trkpt>
      <trkpt lat="42.1085640" lon="2.3149280">
        <ele>811.4</ele>
        <time>2019-10-21T11:41:48Z</time>
      </trkpt>
      <trkpt lat="42.1085640" lon="2.3149280">
        <ele>811.8</ele>
        <time>2019-10-21T11:41:49Z</time>
      </trkpt>
      <trkpt lat="42.1085640" lon="2.3149280">
        <ele>812.4</ele>
        <time>2019-10-21T11:41:50Z</time>
      </trkpt>
      <trkpt lat="42.1085640" lon="2.3149280">
        <ele>812.6</ele>
        <time>2019-10-21T11:41:51Z</time>
      </trkpt>
      <trkpt lat="42.1085640" lon="2.3149280">
        <ele>812.6</ele>
        <time>2019-10-21T11:41:52Z</time>
      </trkpt>
      <trkpt lat="42.1085640" lon="2.3149280">
        <ele>813.0</ele>
        <time>2019-10-21T11:41:53Z</time>
      </trkpt>
      <trkpt lat="42.1085640" lon="2.3149280">
        <ele>813.2</ele>
        <time>2019-10-21T11:41:54Z</time>
      </trkpt>
      <trkpt lat="42.1085640" lon="2.3149280">
        <ele>813.4</ele>
        <time>2019-10-21T11:41:55Z</time>
      </trkpt>
      <trkpt lat="42.1085640" lon="2.3149280">
        <ele>813.8</ele>
        <time>2019-10-21T11:41:56Z</time>
      </trkpt>
      <trkpt lat="42.1085640" lon="2.3149280">
        <ele>814.0</ele>
        <time>2019-10-21T11:41:57Z</time>
      </trkpt>
      <trkpt lat="42.1085640" lon="2.3149280">
        <ele>814.0</ele>
        <time>2019-10-21T11:41:58Z</time>
      </trkpt>
      <trkpt lat="42.1085640" lon="2.3149280">
        <ele>814.6</ele>
        <time>2019-10-21T11:41:59Z</time>
      </trkpt>
      <trkpt lat="42.1085640" lon="2.3149280">
        <ele>814.8</ele>
        <time>2019-10-21T11:42:00Z</time>
      </trkpt>
      <trkpt lat="42.1085640" lon="2.3149280">
        <ele>815.4</ele>
        <time>2019-10-21T11:42:01Z</time>
      </trkpt>
      <trkpt lat="42.1085640" lon="2.3149280">
        <ele>815.8</ele>
        <time>2019-10-21T11:42:02Z</time>
      </trkpt>
      <trkpt lat="42.1085640" lon="2.3149280">
        <ele>816.0</ele>
        <time>2019-10-21T11:42:03Z</time>
      </trkpt>
      <trkpt lat="42.1085640" lon="2.3149280">
        <ele>816.4</ele>
        <time>2019-10-21T11:42:04Z</time>
      </trkpt>
      <trkpt lat="42.1085640" lon="2.3149280">
        <ele>816.6</ele>
        <time>2019-10-21T11:42:05Z</time>
      </trkpt>
      <trkpt lat="42.1085640" lon="2.3149280">
        <ele>816.8</ele>
        <time>2019-10-21T11:42:06Z</time>
      </trkpt>
      <trkpt lat="42.1085640" lon="2.3149280">
        <ele>817.0</ele>
        <time>2019-10-21T11:42:07Z</time>
      </trkpt>
      <trkpt lat="42.1085640" lon="2.3149280">
        <ele>817.0</ele>
        <time>2019-10-21T11:42:08Z</time>
      </trkpt>
      <trkpt lat="42.1085640" lon="2.3149280">
        <ele>817.2</ele>
        <time>2019-10-21T11:42:09Z</time>
      </trkpt>
      <trkpt lat="42.1085640" lon="2.3149280">
        <ele>817.2</ele>
        <time>2019-10-21T11:42:10Z</time>
      </trkpt>
      <trkpt lat="42.1085640" lon="2.3149280">
        <ele>817.4</ele>
        <time>2019-10-21T11:42:11Z</time>
      </trkpt>
      <trkpt lat="42.1085640" lon="2.3149280">
        <ele>817.8</ele>
        <time>2019-10-21T11:42:12Z</time>
      </trkpt>
      <trkpt lat="42.1085640" lon="2.3149280">
        <ele>818.0</ele>
        <time>2019-10-21T11:42:13Z</time>
      </trkpt>
      <trkpt lat="42.1085640" lon="2.3149280">
        <ele>818.4</ele>
        <time>2019-10-21T11:42:14Z</time>
      </trkpt>
      <trkpt lat="42.1085640" lon="2.3149280">
        <ele>818.6</ele>
        <time>2019-10-21T11:42:15Z</time>
      </trkpt>
      <trkpt lat="42.1085640" lon="2.3149280">
        <ele>818.6</ele>
        <time>2019-10-21T11:42:16Z</time>
      </trkpt>
      <trkpt lat="42.1085640" lon="2.3149280">
        <ele>818.8</ele>
        <time>2019-10-21T11:42:17Z</time>
      </trkpt>
      <trkpt lat="42.1085640" lon="2.3149280">
        <ele>818.8</ele>
        <time>2019-10-21T11:42:18Z</time>
      </trkpt>
      <trkpt lat="42.1085640" lon="2.3149280">
        <ele>819.2</ele>
        <time>2019-10-21T11:42:19Z</time>
      </trkpt>
      <trkpt lat="42.1084650" lon="2.3149380">
        <ele>819.0</ele>
        <time>2019-10-21T11:42:20Z</time>
      </trkpt>
      <trkpt lat="42.1084650" lon="2.3149380">
        <ele>819.0</ele>
        <time>2019-10-21T11:42:21Z</time>
      </trkpt>
      <trkpt lat="42.1084650" lon="2.3149380">
        <ele>819.0</ele>
        <time>2019-10-21T11:42:22Z</time>
      </trkpt>
      <trkpt lat="42.1084650" lon="2.3149380">
        <ele>818.6</ele>
        <time>2019-10-21T11:42:23Z</time>
      </trkpt>
      <trkpt lat="42.1084650" lon="2.3149380">
        <ele>818.4</ele>
        <time>2019-10-21T11:42:24Z</time>
      </trkpt>
      <trkpt lat="42.1084650" lon="2.3149380">
        <ele>818.0</ele>
        <time>2019-10-21T11:42:25Z</time>
      </trkpt>
      <trkpt lat="42.1084650" lon="2.3149380">
        <ele>817.8</ele>
        <time>2019-10-21T11:42:26Z</time>
      </trkpt>
      <trkpt lat="42.1084650" lon="2.3149380">
        <ele>817.4</ele>
        <time>2019-10-21T11:42:27Z</time>
      </trkpt>
      <trkpt lat="42.1084650" lon="2.3149380">
        <ele>817.2</ele>
        <time>2019-10-21T11:42:28Z</time>
      </trkpt>
      <trkpt lat="42.1084620" lon="2.3149340">
        <ele>817.0</ele>
        <time>2019-10-21T11:42:29Z</time>
      </trkpt>
      <trkpt lat="42.1084590" lon="2.3149290">
        <ele>816.8</ele>
        <time>2019-10-21T11:42:30Z</time>
      </trkpt>
      <trkpt lat="42.1084560" lon="2.3149250">
        <ele>817.0</ele>
        <time>2019-10-21T11:42:31Z</time>
      </trkpt>
      <trkpt lat="42.1084530" lon="2.3149210">
        <ele>817.4</ele>
        <time>2019-10-21T11:42:32Z</time>
      </trkpt>
      <trkpt lat="42.1084500" lon="2.3149160">
        <ele>817.2</ele>
        <time>2019-10-21T11:42:33Z</time>
      </trkpt>
      <trkpt lat="42.1084470" lon="2.3149120">
        <ele>817.0</ele>
        <time>2019-10-21T11:42:34Z</time>
      </trkpt>
      <trkpt lat="42.1084440" lon="2.3149080">
        <ele>816.8</ele>
        <time>2019-10-21T11:42:35Z</time>
      </trkpt>
      <trkpt lat="42.1084410" lon="2.3149030">
        <ele>816.8</ele>
        <time>2019-10-21T11:42:36Z</time>
      </trkpt>
      <trkpt lat="42.1084380" lon="2.3148990">
        <ele>816.6</ele>
        <time>2019-10-21T11:42:37Z</time>
      </trkpt>
      <trkpt lat="42.1084350" lon="2.3148950">
        <ele>816.6</ele>
        <time>2019-10-21T11:42:38Z</time>
      </trkpt>
      <trkpt lat="42.1084320" lon="2.3148900">
        <ele>816.6</ele>
        <time>2019-10-21T11:42:39Z</time>
      </trkpt>
      <trkpt lat="42.1084290" lon="2.3148860">
        <ele>816.6</ele>
        <time>2019-10-21T11:42:40Z</time>
      </trkpt>
      <trkpt lat="42.1084260" lon="2.3148820">
        <ele>816.4</ele>
        <time>2019-10-21T11:42:41Z</time>
      </trkpt>
      <trkpt lat="42.1084230" lon="2.3148770">
        <ele>816.4</ele>
        <time>2019-10-21T11:42:42Z</time>
      </trkpt>
      <trkpt lat="42.1084200" lon="2.3148730">
        <ele>816.4</ele>
        <time>2019-10-21T11:42:43Z</time>
      </trkpt>
      <trkpt lat="42.1084170" lon="2.3148690">
        <ele>816.4</ele>
        <time>2019-10-21T11:42:44Z</time>
      </trkpt>
      <trkpt lat="42.1084140" lon="2.3148640">
        <ele>816.6</ele>
        <time>2019-10-21T11:42:45Z</time>
      </trkpt>
      <trkpt lat="42.1084110" lon="2.3148600">
        <ele>816.6</ele>
        <time>2019-10-21T11:42:46Z</time>
      </trkpt>
      <trkpt lat="42.1084080" lon="2.3148560">
        <ele>816.6</ele>
        <time>2019-10-21T11:42:47Z</time>
      </trkpt>
      <trkpt lat="42.1084050" lon="2.3148510">
        <ele>816.6</ele>
        <time>2019-10-21T11:42:48Z</time>
      </trkpt>
      <trkpt lat="42.1084020" lon="2.3148470">
        <ele>816.6</ele>
        <time>2019-10-21T11:42:49Z</time>
      </trkpt>
      <trkpt lat="42.1083980" lon="2.3148430">
        <ele>816.6</ele>
        <time>2019-10-21T11:42:50Z</time>
      </trkpt>
      <trkpt lat="42.1083950" lon="2.3148380">
        <ele>816.8</ele>
        <time>2019-10-21T11:42:51Z</time>
      </trkpt>
      <trkpt lat="42.1083920" lon="2.3148340">
        <ele>816.6</ele>
        <time>2019-10-21T11:42:52Z</time>
      </trkpt>
      <trkpt lat="42.1083890" lon="2.3148300">
        <ele>816.4</ele>
        <time>2019-10-21T11:42:53Z</time>
      </trkpt>
      <trkpt lat="42.1083860" lon="2.3148250">
        <ele>816.2</ele>
        <time>2019-10-21T11:42:54Z</time>
      </trkpt>
      <trkpt lat="42.1083830" lon="2.3148210">
        <ele>816.0</ele>
        <time>2019-10-21T11:42:55Z</time>
      </trkpt>
      <trkpt lat="42.1083800" lon="2.3148170">
        <ele>816.0</ele>
        <time>2019-10-21T11:42:56Z</time>
      </trkpt>
      <trkpt lat="42.1083770" lon="2.3148120">
        <ele>815.8</ele>
        <time>2019-10-21T11:42:57Z</time>
      </trkpt>
      <trkpt lat="42.1083740" lon="2.3148080">
        <ele>815.8</ele>
        <time>2019-10-21T11:42:58Z</time>
      </trkpt>
      <trkpt lat="42.1083710" lon="2.3148040">
        <ele>815.6</ele>
        <time>2019-10-21T11:42:59Z</time>
      </trkpt>
      <trkpt lat="42.1083680" lon="2.3147990">
        <ele>815.8</ele>
        <time>2019-10-21T11:43:00Z</time>
      </trkpt>
      <trkpt lat="42.1083650" lon="2.3147950">
        <ele>815.8</ele>
        <time>2019-10-21T11:43:01Z</time>
      </trkpt>
      <trkpt lat="42.1083620" lon="2.3147910">
        <ele>815.0</ele>
        <time>2019-10-21T11:43:02Z</time>
      </trkpt>
      <trkpt lat="42.1083590" lon="2.3147860">
        <ele>815.0</ele>
        <time>2019-10-21T11:43:03Z</time>
      </trkpt>
      <trkpt lat="42.1083560" lon="2.3147820">
        <ele>814.4</ele>
        <time>2019-10-21T11:43:04Z</time>
      </trkpt>
      <trkpt lat="42.1083530" lon="2.3147780">
        <ele>814.0</ele>
        <time>2019-10-21T11:43:05Z</time>
      </trkpt>
      <trkpt lat="42.1083500" lon="2.3147730">
        <ele>813.4</ele>
        <time>2019-10-21T11:43:06Z</time>
      </trkpt>
      <trkpt lat="42.1083470" lon="2.3147690">
        <ele>813.4</ele>
        <time>2019-10-21T11:43:07Z</time>
      </trkpt>
      <trkpt lat="42.1083440" lon="2.3147650">
        <ele>812.8</ele>
        <time>2019-10-21T11:43:08Z</time>
      </trkpt>
      <trkpt lat="42.1083410" lon="2.3147600">
        <ele>812.4</ele>
        <time>2019-10-21T11:43:09Z</time>
      </trkpt>
      <trkpt lat="42.1083380" lon="2.3147560">
        <ele>811.4</ele>
        <time>2019-10-21T11:43:10Z</time>
      </trkpt>
      <trkpt lat="42.1083270" lon="2.3147520">
        <ele>811.2</ele>
        <time>2019-10-21T11:43:11Z</time>
      </trkpt>
      <trkpt lat="42.1083160" lon="2.3147470">
        <ele>810.4</ele>
        <time>2019-10-21T11:43:12Z</time>
      </trkpt>
      <trkpt lat="42.1083060" lon="2.3147430">
        <ele>809.8</ele>
        <time>2019-10-21T11:43:13Z</time>
      </trkpt>
      <trkpt lat="42.1082950" lon="2.3147380">
        <ele>809.2</ele>
        <time>2019-10-21T11:43:14Z</time>
      </trkpt>
      <trkpt lat="42.1082840" lon="2.3147340">
        <ele>809.0</ele>
        <time>2019-10-21T11:43:15Z</time>
      </trkpt>
      <trkpt lat="42.1082730" lon="2.3147290">
        <ele>808.6</ele>
        <time>2019-10-21T11:43:16Z</time>
      </trkpt>
      <trkpt lat="42.1082620" lon="2.3147250">
        <ele>808.4</ele>
        <time>2019-10-21T11:43:17Z</time>
      </trkpt>
      <trkpt lat="42.1082510" lon="2.3147200">
        <ele>808.2</ele>
        <time>2019-10-21T11:43:18Z</time>
      </trkpt>
      <trkpt lat="42.1082410" lon="2.3147160">
        <ele>808.0</ele>
        <time>2019-10-21T11:43:19Z</time>
      </trkpt>
      <trkpt lat="42.1082300" lon="2.3147110">
        <ele>808.0</ele>
        <time>2019-10-21T11:43:20Z</time>
      </trkpt>
      <trkpt lat="42.1082190" lon="2.3147070">
        <ele>807.6</ele>
        <time>2019-10-21T11:43:21Z</time>
      </trkpt>
      <trkpt lat="42.1082190" lon="2.3147070">
        <ele>807.2</ele>
        <time>2019-10-21T11:43:22Z</time>
      </trkpt>
      <trkpt lat="42.1082190" lon="2.3147070">
        <ele>807.6</ele>
        <time>2019-10-21T11:43:23Z</time>
      </trkpt>
      <trkpt lat="42.1082190" lon="2.3147070">
        <ele>807.4</ele>
        <time>2019-10-21T11:43:24Z</time>
      </trkpt>
      <trkpt lat="42.1082170" lon="2.3147070">
        <ele>807.4</ele>
        <time>2019-10-21T11:43:25Z</time>
      </trkpt>
      <trkpt lat="42.1082160" lon="2.3147070">
        <ele>807.2</ele>
        <time>2019-10-21T11:43:26Z</time>
      </trkpt>
      <trkpt lat="42.1082140" lon="2.3147080">
        <ele>807.0</ele>
        <time>2019-10-21T11:43:27Z</time>
      </trkpt>
      <trkpt lat="42.1082130" lon="2.3147080">
        <ele>807.0</ele>
        <time>2019-10-21T11:43:28Z</time>
      </trkpt>
      <trkpt lat="42.1082110" lon="2.3147080">
        <ele>806.8</ele>
        <time>2019-10-21T11:43:29Z</time>
      </trkpt>
      <trkpt lat="42.1082100" lon="2.3147080">
        <ele>806.6</ele>
        <time>2019-10-21T11:43:30Z</time>
      </trkpt>
      <trkpt lat="42.1082080" lon="2.3147090">
        <ele>806.6</ele>
        <time>2019-10-21T11:43:31Z</time>
      </trkpt>
      <trkpt lat="42.1082060" lon="2.3147090">
        <ele>806.6</ele>
        <time>2019-10-21T11:43:32Z</time>
      </trkpt>
      <trkpt lat="42.1082050" lon="2.3147090">
        <ele>806.6</ele>
        <time>2019-10-21T11:43:33Z</time>
      </trkpt>
      <trkpt lat="42.1082030" lon="2.3147090">
        <ele>807.2</ele>
        <time>2019-10-21T11:43:34Z</time>
      </trkpt>
      <trkpt lat="42.1082020" lon="2.3147090">
        <ele>807.2</ele>
        <time>2019-10-21T11:43:35Z</time>
      </trkpt>
      <trkpt lat="42.1082000" lon="2.3147100">
        <ele>807.2</ele>
        <time>2019-10-21T11:43:36Z</time>
      </trkpt>
      <trkpt lat="42.1081990" lon="2.3147100">
        <ele>807.2</ele>
        <time>2019-10-21T11:43:37Z</time>
      </trkpt>
      <trkpt lat="42.1081970" lon="2.3147100">
        <ele>808.0</ele>
        <time>2019-10-21T11:43:38Z</time>
      </trkpt>
      <trkpt lat="42.1081930" lon="2.3147160">
        <ele>808.0</ele>
        <time>2019-10-21T11:43:39Z</time>
      </trkpt>
      <trkpt lat="42.1081890" lon="2.3147220">
        <ele>807.8</ele>
        <time>2019-10-21T11:43:40Z</time>
      </trkpt>
      <trkpt lat="42.1081850" lon="2.3147280">
        <ele>807.8</ele>
        <time>2019-10-21T11:43:41Z</time>
      </trkpt>
      <trkpt lat="42.1081820" lon="2.3147340">
        <ele>807.4</ele>
        <time>2019-10-21T11:43:42Z</time>
      </trkpt>
      <trkpt lat="42.1081780" lon="2.3147400">
        <ele>806.8</ele>
        <time>2019-10-21T11:43:43Z</time>
      </trkpt>
      <trkpt lat="42.1081740" lon="2.3147460">
        <ele>806.4</ele>
        <time>2019-10-21T11:43:44Z</time>
      </trkpt>
      <trkpt lat="42.1081700" lon="2.3147520">
        <ele>805.8</ele>
        <time>2019-10-21T11:43:45Z</time>
      </trkpt>
      <trkpt lat="42.1081840" lon="2.3147220">
        <ele>805.4</ele>
        <time>2019-10-21T11:43:46Z</time>
      </trkpt>
      <trkpt lat="42.1081970" lon="2.3146920">
        <ele>805.0</ele>
        <time>2019-10-21T11:43:47Z</time>
      </trkpt>
      <trkpt lat="42.1082110" lon="2.3146610">
        <ele>804.4</ele>
        <time>2019-10-21T11:43:48Z</time>
      </trkpt>
      <trkpt lat="42.1082240" lon="2.3146310">
        <ele>804.0</ele>
        <time>2019-10-21T11:43:49Z</time>
      </trkpt>
      <trkpt lat="42.1082380" lon="2.3146010">
        <ele>803.8</ele>
        <time>2019-10-21T11:43:50Z</time>
      </trkpt>
      <trkpt lat="42.1082510" lon="2.3145710">
        <ele>803.4</ele>
        <time>2019-10-21T11:43:51Z</time>
      </trkpt>
      <trkpt lat="42.1082650" lon="2.3145400">
        <ele>803.2</ele>
        <time>2019-10-21T11:43:52Z</time>
      </trkpt>
      <trkpt lat="42.1082780" lon="2.3145100">
        <ele>802.6</ele>
        <time>2019-10-21T11:43:53Z</time>
      </trkpt>
      <trkpt lat="42.1082890" lon="2.3144680">
        <ele>802.8</ele>
        <time>2019-10-21T11:43:54Z</time>
      </trkpt>
      <trkpt lat="42.1083000" lon="2.3144260">
        <ele>802.2</ele>
        <time>2019-10-21T11:43:55Z</time>
      </trkpt>
      <trkpt lat="42.1083110" lon="2.3143840">
        <ele>801.8</ele>
        <time>2019-10-21T11:43:56Z</time>
      </trkpt>
      <trkpt lat="42.1083220" lon="2.3143420">
        <ele>801.4</ele>
        <time>2019-10-21T11:43:57Z</time>
      </trkpt>
      <trkpt lat="42.1083330" lon="2.3143010">
        <ele>800.8</ele>
        <time>2019-10-21T11:43:58Z</time>
      </trkpt>
      <trkpt lat="42.1083440" lon="2.3142590">
        <ele>800.4</ele>
        <time>2019-10-21T11:43:59Z</time>
      </trkpt>
      <trkpt lat="42.1083550" lon="2.3142170">
        <ele>799.8</ele>
        <time>2019-10-21T11:44:00Z</time>
      </trkpt>
      <trkpt lat="42.1083660" lon="2.3141750">
        <ele>799.6</ele>
        <time>2019-10-21T11:44:01Z</time>
      </trkpt>
      <trkpt lat="42.1083770" lon="2.3141330">
        <ele>799.4</ele>
        <time>2019-10-21T11:44:02Z</time>
      </trkpt>
      <trkpt lat="42.1083880" lon="2.3140910">
        <ele>799.2</ele>
        <time>2019-10-21T11:44:03Z</time>
      </trkpt>
      <trkpt lat="42.1083870" lon="2.3140510">
        <ele>798.8</ele>
        <time>2019-10-21T11:44:04Z</time>
      </trkpt>
      <trkpt lat="42.1083860" lon="2.3140110">
        <ele>798.8</ele>
        <time>2019-10-21T11:44:05Z</time>
      </trkpt>
      <trkpt lat="42.1083850" lon="2.3139710">
        <ele>798.4</ele>
        <time>2019-10-21T11:44:06Z</time>
      </trkpt>
      <trkpt lat="42.1083830" lon="2.3139320">
        <ele>797.8</ele>
        <time>2019-10-21T11:44:07Z</time>
      </trkpt>
      <trkpt lat="42.1083820" lon="2.3138920">
        <ele>797.2</ele>
        <time>2019-10-21T11:44:08Z</time>
      </trkpt>
      <trkpt lat="42.1083810" lon="2.3138520">
        <ele>796.8</ele>
        <time>2019-10-21T11:44:09Z</time>
      </trkpt>
      <trkpt lat="42.1083690" lon="2.3138160">
        <ele>796.8</ele>
        <time>2019-10-21T11:44:10Z</time>
      </trkpt>
      <trkpt lat="42.1083570" lon="2.3137790">
        <ele>796.2</ele>
        <time>2019-10-21T11:44:11Z</time>
      </trkpt>
      <trkpt lat="42.1083450" lon="2.3137430">
        <ele>795.8</ele>
        <time>2019-10-21T11:44:12Z</time>
      </trkpt>
      <trkpt lat="42.1083330" lon="2.3137060">
        <ele>795.8</ele>
        <time>2019-10-21T11:44:13Z</time>
      </trkpt>
      <trkpt lat="42.1083210" lon="2.3136700">
        <ele>795.6</ele>
        <time>2019-10-21T11:44:14Z</time>
      </trkpt>
      <trkpt lat="42.1083090" lon="2.3136330">
        <ele>795.2</ele>
        <time>2019-10-21T11:44:15Z</time>
      </trkpt>
      <trkpt lat="42.1082970" lon="2.3135970">
        <ele>795.0</ele>
        <time>2019-10-21T11:44:16Z</time>
      </trkpt>
      <trkpt lat="42.1082670" lon="2.3135670">
        <ele>794.8</ele>
        <time>2019-10-21T11:44:17Z</time>
      </trkpt>
      <trkpt lat="42.1082380" lon="2.3135370">
        <ele>794.2</ele>
        <time>2019-10-21T11:44:18Z</time>
      </trkpt>
      <trkpt lat="42.1082080" lon="2.3135080">
        <ele>793.6</ele>
        <time>2019-10-21T11:44:19Z</time>
      </trkpt>
      <trkpt lat="42.1081790" lon="2.3134780">
        <ele>793.2</ele>
        <time>2019-10-21T11:44:20Z</time>
      </trkpt>
      <trkpt lat="42.1081490" lon="2.3134480">
        <ele>793.4</ele>
        <time>2019-10-21T11:44:21Z</time>
      </trkpt>
      <trkpt lat="42.1081190" lon="2.3134180">
        <ele>792.8</ele>
        <time>2019-10-21T11:44:22Z</time>
      </trkpt>
      <trkpt lat="42.1080900" lon="2.3133890">
        <ele>792.2</ele>
        <time>2019-10-21T11:44:23Z</time>
      </trkpt>
      <trkpt lat="42.1080600" lon="2.3133590">
        <ele>792.0</ele>
        <time>2019-10-21T11:44:24Z</time>
      </trkpt>
      <trkpt lat="42.1080600" lon="2.3133590">
        <ele>791.8</ele>
        <time>2019-10-21T11:44:25Z</time>
      </trkpt>
      <trkpt lat="42.1079690" lon="2.3133480">
        <ele>791.8</ele>
        <time>2019-10-21T11:44:26Z</time>
      </trkpt>
      <trkpt lat="42.1079690" lon="2.3133480">
        <ele>791.6</ele>
        <time>2019-10-21T11:44:27Z</time>
      </trkpt>
      <trkpt lat="42.1079690" lon="2.3133480">
        <ele>791.6</ele>
        <time>2019-10-21T11:44:28Z</time>
      </trkpt>
      <trkpt lat="42.1079690" lon="2.3133480">
        <ele>791.6</ele>
        <time>2019-10-21T11:44:29Z</time>
      </trkpt>
      <trkpt lat="42.1078550" lon="2.3133460">
        <ele>791.8</ele>
        <time>2019-10-21T11:44:30Z</time>
      </trkpt>
      <trkpt lat="42.1078550" lon="2.3133460">
        <ele>792.0</ele>
        <time>2019-10-21T11:44:31Z</time>
      </trkpt>
      <trkpt lat="42.1078550" lon="2.3133460">
        <ele>792.0</ele>
        <time>2019-10-21T11:44:32Z</time>
      </trkpt>
      <trkpt lat="42.1077580" lon="2.3133600">
        <ele>792.0</ele>
        <time>2019-10-21T11:44:33Z</time>
      </trkpt>
      <trkpt lat="42.1077580" lon="2.3133600">
        <ele>792.0</ele>
        <time>2019-10-21T11:44:34Z</time>
      </trkpt>
      <trkpt lat="42.1077580" lon="2.3133600">
        <ele>792.0</ele>
        <time>2019-10-21T11:44:35Z</time>
      </trkpt>
      <trkpt lat="42.1076630" lon="2.3133810">
        <ele>792.0</ele>
        <time>2019-10-21T11:44:36Z</time>
      </trkpt>
      <trkpt lat="42.1076630" lon="2.3133810">
        <ele>791.8</ele>
        <time>2019-10-21T11:44:37Z</time>
      </trkpt>
      <trkpt lat="42.1076630" lon="2.3133810">
        <ele>792.4</ele>
        <time>2019-10-21T11:44:38Z</time>
      </trkpt>
      <trkpt lat="42.1076630" lon="2.3133810">
        <ele>792.2</ele>
        <time>2019-10-21T11:44:39Z</time>
      </trkpt>
      <trkpt lat="42.1076630" lon="2.3133810">
        <ele>792.8</ele>
        <time>2019-10-21T11:44:40Z</time>
      </trkpt>
      <trkpt lat="42.1076630" lon="2.3133810">
        <ele>792.8</ele>
        <time>2019-10-21T11:44:41Z</time>
      </trkpt>
      <trkpt lat="42.1076630" lon="2.3133810">
        <ele>793.0</ele>
        <time>2019-10-21T11:44:42Z</time>
      </trkpt>
      <trkpt lat="42.1076630" lon="2.3133810">
        <ele>793.0</ele>
        <time>2019-10-21T11:44:43Z</time>
      </trkpt>
      <trkpt lat="42.1076570" lon="2.3133620">
        <ele>793.4</ele>
        <time>2019-10-21T11:44:44Z</time>
      </trkpt>
      <trkpt lat="42.1076510" lon="2.3133430">
        <ele>793.0</ele>
        <time>2019-10-21T11:44:45Z</time>
      </trkpt>
      <trkpt lat="42.1076450" lon="2.3133240">
        <ele>793.0</ele>
        <time>2019-10-21T11:44:46Z</time>
      </trkpt>
      <trkpt lat="42.1076260" lon="2.3132670">
        <ele>793.2</ele>
        <time>2019-10-21T11:44:47Z</time>
      </trkpt>
      <trkpt lat="42.1076260" lon="2.3132670">
        <ele>793.0</ele>
        <time>2019-10-21T11:44:48Z</time>
      </trkpt>
      <trkpt lat="42.1076260" lon="2.3132670">
        <ele>792.6</ele>
        <time>2019-10-21T11:44:49Z</time>
      </trkpt>
      <trkpt lat="42.1076260" lon="2.3132670">
        <ele>793.0</ele>
        <time>2019-10-21T11:44:50Z</time>
      </trkpt>
      <trkpt lat="42.1076260" lon="2.3132670">
        <ele>793.2</ele>
        <time>2019-10-21T11:44:51Z</time>
      </trkpt>
      <trkpt lat="42.1076260" lon="2.3132670">
        <ele>793.6</ele>
        <time>2019-10-21T11:44:52Z</time>
      </trkpt>
      <trkpt lat="42.1076510" lon="2.3132380">
        <ele>793.0</ele>
        <time>2019-10-21T11:44:53Z</time>
      </trkpt>
      <trkpt lat="42.1076760" lon="2.3132090">
        <ele>793.0</ele>
        <time>2019-10-21T11:44:54Z</time>
      </trkpt>
      <trkpt lat="42.1077010" lon="2.3131800">
        <ele>793.6</ele>
        <time>2019-10-21T11:44:55Z</time>
      </trkpt>
      <trkpt lat="42.1077010" lon="2.3131800">
        <ele>793.4</ele>
        <time>2019-10-21T11:44:56Z</time>
      </trkpt>
      <trkpt lat="42.1077010" lon="2.3131800">
        <ele>794.0</ele>
        <time>2019-10-21T11:44:57Z</time>
      </trkpt>
      <trkpt lat="42.1077010" lon="2.3131800">
        <ele>793.6</ele>
        <time>2019-10-21T11:44:58Z</time>
      </trkpt>
      <trkpt lat="42.1077350" lon="2.3131840">
        <ele>794.0</ele>
        <time>2019-10-21T11:44:59Z</time>
      </trkpt>
      <trkpt lat="42.1077700" lon="2.3131890">
        <ele>793.6</ele>
        <time>2019-10-21T11:45:00Z</time>
      </trkpt>
      <trkpt lat="42.1078040" lon="2.3131930">
        <ele>794.2</ele>
        <time>2019-10-21T11:45:01Z</time>
      </trkpt>
      <trkpt lat="42.1078280" lon="2.3131930">
        <ele>793.6</ele>
        <time>2019-10-21T11:45:02Z</time>
      </trkpt>
      <trkpt lat="42.1078520" lon="2.3131930">
        <ele>794.0</ele>
        <time>2019-10-21T11:45:03Z</time>
      </trkpt>
      <trkpt lat="42.1078760" lon="2.3131920">
        <ele>793.4</ele>
        <time>2019-10-21T11:45:04Z</time>
      </trkpt>
      <trkpt lat="42.1079000" lon="2.3131920">
        <ele>793.8</ele>
        <time>2019-10-21T11:45:05Z</time>
      </trkpt>
      <trkpt lat="42.1079380" lon="2.3131960">
        <ele>793.0</ele>
        <time>2019-10-21T11:45:06Z</time>
      </trkpt>
      <trkpt lat="42.1079750" lon="2.3131990">
        <ele>793.2</ele>
        <time>2019-10-21T11:45:07Z</time>
      </trkpt>
      <trkpt lat="42.1080130" lon="2.3132030">
        <ele>792.6</ele>
        <time>2019-10-21T11:45:08Z</time>
      </trkpt>
      <trkpt lat="42.1080130" lon="2.3132030">
        <ele>793.0</ele>
        <time>2019-10-21T11:45:09Z</time>
      </trkpt>
      <trkpt lat="42.1080130" lon="2.3132030">
        <ele>792.4</ele>
        <time>2019-10-21T11:45:10Z</time>
      </trkpt>
      <trkpt lat="42.1081080" lon="2.3132010">
        <ele>793.0</ele>
        <time>2019-10-21T11:45:11Z</time>
      </trkpt>
      <trkpt lat="42.1081080" lon="2.3132010">
        <ele>792.6</ele>
        <time>2019-10-21T11:45:12Z</time>
      </trkpt>
      <trkpt lat="42.1081080" lon="2.3132010">
        <ele>793.0</ele>
        <time>2019-10-21T11:45:13Z</time>
      </trkpt>
      <trkpt lat="42.1081430" lon="2.3132140">
        <ele>792.6</ele>
        <time>2019-10-21T11:45:14Z</time>
      </trkpt>
      <trkpt lat="42.1081790" lon="2.3132270">
        <ele>793.0</ele>
        <time>2019-10-21T11:45:15Z</time>
      </trkpt>
      <trkpt lat="42.1082140" lon="2.3132400">
        <ele>792.6</ele>
        <time>2019-10-21T11:45:16Z</time>
      </trkpt>
      <trkpt lat="42.1082140" lon="2.3132400">
        <ele>792.8</ele>
        <time>2019-10-21T11:45:17Z</time>
      </trkpt>
      <trkpt lat="42.1082140" lon="2.3132400">
        <ele>792.2</ele>
        <time>2019-10-21T11:45:18Z</time>
      </trkpt>
      <trkpt lat="42.1082140" lon="2.3132400">
        <ele>792.2</ele>
        <time>2019-10-21T11:45:19Z</time>
      </trkpt>
      <trkpt lat="42.1082140" lon="2.3132400">
        <ele>791.6</ele>
        <time>2019-10-21T11:45:20Z</time>
      </trkpt>
      <trkpt lat="42.1082140" lon="2.3132400">
        <ele>791.2</ele>
        <time>2019-10-21T11:45:21Z</time>
      </trkpt>
      <trkpt lat="42.1082140" lon="2.3132400">
        <ele>790.4</ele>
        <time>2019-10-21T11:45:22Z</time>
      </trkpt>
      <trkpt lat="42.1082140" lon="2.3132400">
        <ele>790.4</ele>
        <time>2019-10-21T11:45:23Z</time>
      </trkpt>
      <trkpt lat="42.1083140" lon="2.3132660">
        <ele>790.0</ele>
        <time>2019-10-21T11:45:24Z</time>
      </trkpt>
      <trkpt lat="42.1083140" lon="2.3132660">
        <ele>790.0</ele>
        <time>2019-10-21T11:45:25Z</time>
      </trkpt>
      <trkpt lat="42.1083140" lon="2.3132660">
        <ele>789.6</ele>
        <time>2019-10-21T11:45:26Z</time>
      </trkpt>
      <trkpt lat="42.1083350" lon="2.3132930">
        <ele>789.4</ele>
        <time>2019-10-21T11:45:27Z</time>
      </trkpt>
      <trkpt lat="42.1083550" lon="2.3133200">
        <ele>789.2</ele>
        <time>2019-10-21T11:45:28Z</time>
      </trkpt>
      <trkpt lat="42.1083760" lon="2.3133470">
        <ele>789.4</ele>
        <time>2019-10-21T11:45:29Z</time>
      </trkpt>
      <trkpt lat="42.1083960" lon="2.3133740">
        <ele>789.8</ele>
        <time>2019-10-21T11:45:30Z</time>
      </trkpt>
      <trkpt lat="42.1084170" lon="2.3134010">
        <ele>789.8</ele>
        <time>2019-10-21T11:45:31Z</time>
      </trkpt>
      <trkpt lat="42.1084370" lon="2.3134280">
        <ele>790.2</ele>
        <time>2019-10-21T11:45:32Z</time>
      </trkpt>
      <trkpt lat="42.1084580" lon="2.3134550">
        <ele>790.4</ele>
        <time>2019-10-21T11:45:33Z</time>
      </trkpt>
      <trkpt lat="42.1084780" lon="2.3134820">
        <ele>790.6</ele>
        <time>2019-10-21T11:45:34Z</time>
      </trkpt>
      <trkpt lat="42.1084990" lon="2.3135090">
        <ele>791.4</ele>
        <time>2019-10-21T11:45:35Z</time>
      </trkpt>
      <trkpt lat="42.1085190" lon="2.3135360">
        <ele>792.0</ele>
        <time>2019-10-21T11:45:36Z</time>
      </trkpt>
      <trkpt lat="42.1085280" lon="2.3135690">
        <ele>792.4</ele>
        <time>2019-10-21T11:45:37Z</time>
      </trkpt>
      <trkpt lat="42.1085380" lon="2.3136020">
        <ele>792.6</ele>
        <time>2019-10-21T11:45:38Z</time>
      </trkpt>
      <trkpt lat="42.1085470" lon="2.3136350">
        <ele>793.0</ele>
        <time>2019-10-21T11:45:39Z</time>
      </trkpt>
      <trkpt lat="42.1085570" lon="2.3136680">
        <ele>794.2</ele>
        <time>2019-10-21T11:45:40Z</time>
      </trkpt>
      <trkpt lat="42.1085660" lon="2.3137020">
        <ele>794.2</ele>
        <time>2019-10-21T11:45:41Z</time>
      </trkpt>
      <trkpt lat="42.1085750" lon="2.3137350">
        <ele>794.4</ele>
        <time>2019-10-21T11:45:42Z</time>
      </trkpt>
      <trkpt lat="42.1085850" lon="2.3137680">
        <ele>795.4</ele>
        <time>2019-10-21T11:45:43Z</time>
      </trkpt>
      <trkpt lat="42.1085940" lon="2.3138010">
        <ele>796.0</ele>
        <time>2019-10-21T11:45:44Z</time>
      </trkpt>
      <trkpt lat="42.1085990" lon="2.3138210">
        <ele>796.6</ele>
        <time>2019-10-21T11:45:45Z</time>
      </trkpt>
      <trkpt lat="42.1086040" lon="2.3138410">
        <ele>797.0</ele>
        <time>2019-10-21T11:45:46Z</time>
      </trkpt>
      <trkpt lat="42.1086100" lon="2.3138610">
        <ele>797.4</ele>
        <time>2019-10-21T11:45:47Z</time>
      </trkpt>
      <trkpt lat="42.1086150" lon="2.3138820">
        <ele>797.4</ele>
        <time>2019-10-21T11:45:48Z</time>
      </trkpt>
      <trkpt lat="42.1086200" lon="2.3139020">
        <ele>797.4</ele>
        <time>2019-10-21T11:45:49Z</time>
      </trkpt>
      <trkpt lat="42.1086250" lon="2.3139220">
        <ele>798.2</ele>
        <time>2019-10-21T11:45:50Z</time>
      </trkpt>
      <trkpt lat="42.1086310" lon="2.3140540">
        <ele>798.6</ele>
        <time>2019-10-21T11:45:51Z</time>
      </trkpt>
      <trkpt lat="42.1086310" lon="2.3140540">
        <ele>799.4</ele>
        <time>2019-10-21T11:45:52Z</time>
      </trkpt>
      <trkpt lat="42.1086310" lon="2.3140540">
        <ele>799.4</ele>
        <time>2019-10-21T11:45:53Z</time>
      </trkpt>
      <trkpt lat="42.1086310" lon="2.3140540">
        <ele>800.0</ele>
        <time>2019-10-21T11:45:54Z</time>
      </trkpt>
      <trkpt lat="42.1086510" lon="2.3141960">
        <ele>800.0</ele>
        <time>2019-10-21T11:45:55Z</time>
      </trkpt>
      <trkpt lat="42.1086530" lon="2.3142120">
        <ele>799.8</ele>
        <time>2019-10-21T11:45:56Z</time>
      </trkpt>
      <trkpt lat="42.1086540" lon="2.3142280">
        <ele>800.4</ele>
        <time>2019-10-21T11:45:57Z</time>
      </trkpt>
      <trkpt lat="42.1086550" lon="2.3142440">
        <ele>800.2</ele>
        <time>2019-10-21T11:45:58Z</time>
      </trkpt>
      <trkpt lat="42.1086590" lon="2.3143090">
        <ele>801.0</ele>
        <time>2019-10-21T11:45:59Z</time>
      </trkpt>
      <trkpt lat="42.1086590" lon="2.3143090">
        <ele>801.0</ele>
        <time>2019-10-21T11:46:00Z</time>
      </trkpt>
      <trkpt lat="42.1086590" lon="2.3143090">
        <ele>801.6</ele>
        <time>2019-10-21T11:46:01Z</time>
      </trkpt>
      <trkpt lat="42.1086590" lon="2.3143090">
        <ele>802.0</ele>
        <time>2019-10-21T11:46:02Z</time>
      </trkpt>
      <trkpt lat="42.1086590" lon="2.3143090">
        <ele>802.6</ele>
        <time>2019-10-21T11:46:03Z</time>
      </trkpt>
      <trkpt lat="42.1086590" lon="2.3143090">
        <ele>802.8</ele>
        <time>2019-10-21T11:46:04Z</time>
      </trkpt>
      <trkpt lat="42.1086590" lon="2.3143090">
        <ele>803.2</ele>
        <time>2019-10-21T11:46:05Z</time>
      </trkpt>
      <trkpt lat="42.1086590" lon="2.3143090">
        <ele>803.4</ele>
        <time>2019-10-21T11:46:06Z</time>
      </trkpt>
      <trkpt lat="42.1086590" lon="2.3143090">
        <ele>803.0</ele>
        <time>2019-10-21T11:46:07Z</time>
      </trkpt>
      <trkpt lat="42.1086590" lon="2.3143090">
        <ele>803.4</ele>
        <time>2019-10-21T11:46:08Z</time>
      </trkpt>
      <trkpt lat="42.1086590" lon="2.3143090">
        <ele>803.6</ele>
        <time>2019-10-21T11:46:09Z</time>
      </trkpt>
      <trkpt lat="42.1086590" lon="2.3143090">
        <ele>803.6</ele>
        <time>2019-10-21T11:46:10Z</time>
      </trkpt>
      <trkpt lat="42.1086590" lon="2.3143090">
        <ele>803.6</ele>
        <time>2019-10-21T11:46:11Z</time>
      </trkpt>
      <trkpt lat="42.1086590" lon="2.3143090">
        <ele>803.6</ele>
        <time>2019-10-21T11:46:12Z</time>
      </trkpt>
      <trkpt lat="42.1086590" lon="2.3143090">
        <ele>803.4</ele>
        <time>2019-10-21T11:46:13Z</time>
      </trkpt>
      <trkpt lat="42.1086590" lon="2.3143090">
        <ele>804.0</ele>
        <time>2019-10-21T11:46:14Z</time>
      </trkpt>
      <trkpt lat="42.1086650" lon="2.3142770">
        <ele>803.6</ele>
        <time>2019-10-21T11:46:15Z</time>
      </trkpt>
      <trkpt lat="42.1086710" lon="2.3142460">
        <ele>803.4</ele>
        <time>2019-10-21T11:46:16Z</time>
      </trkpt>
      <trkpt lat="42.1086770" lon="2.3142140">
        <ele>803.4</ele>
        <time>2019-10-21T11:46:17Z</time>
      </trkpt>
      <trkpt lat="42.1086830" lon="2.3141820">
        <ele>804.0</ele>
        <time>2019-10-21T11:46:18Z</time>
      </trkpt>
      <trkpt lat="42.1086830" lon="2.3141820">
        <ele>804.2</ele>
        <time>2019-10-21T11:46:19Z</time>
      </trkpt>
      <trkpt lat="42.1086830" lon="2.3141820">
        <ele>805.0</ele>
        <time>2019-10-21T11:46:20Z</time>
      </trkpt>
      <trkpt lat="42.1086830" lon="2.3141820">
        <ele>805.2</ele>
        <time>2019-10-21T11:46:21Z</time>
      </trkpt>
      <trkpt lat="42.1086830" lon="2.3141820">
        <ele>805.4</ele>
        <time>2019-10-21T11:46:22Z</time>
      </trkpt>
      <trkpt lat="42.1086830" lon="2.3141820">
        <ele>805.4</ele>
        <time>2019-10-21T11:46:23Z</time>
      </trkpt>
      <trkpt lat="42.1086830" lon="2.3141820">
        <ele>804.6</ele>
        <time>2019-10-21T11:46:24Z</time>
      </trkpt>
      <trkpt lat="42.1087310" lon="2.3143040">
        <ele>804.6</ele>
        <time>2019-10-21T11:46:25Z</time>
      </trkpt>
      <trkpt lat="42.1087310" lon="2.3143040">
        <ele>804.6</ele>
        <time>2019-10-21T11:46:26Z</time>
      </trkpt>
      <trkpt lat="42.1087310" lon="2.3143040">
        <ele>804.8</ele>
        <time>2019-10-21T11:46:27Z</time>
      </trkpt>
      <trkpt lat="42.1087310" lon="2.3143040">
        <ele>805.0</ele>
        <time>2019-10-21T11:46:28Z</time>
      </trkpt>
      <trkpt lat="42.1087410" lon="2.3143330">
        <ele>805.8</ele>
        <time>2019-10-21T11:46:29Z</time>
      </trkpt>
      <trkpt lat="42.1087520" lon="2.3143620">
        <ele>806.2</ele>
        <time>2019-10-21T11:46:30Z</time>
      </trkpt>
      <trkpt lat="42.1087620" lon="2.3143910">
        <ele>806.6</ele>
        <time>2019-10-21T11:46:31Z</time>
      </trkpt>
      <trkpt lat="42.1087720" lon="2.3144200">
        <ele>806.8</ele>
        <time>2019-10-21T11:46:32Z</time>
      </trkpt>
      <trkpt lat="42.1087720" lon="2.3144200">
        <ele>807.2</ele>
        <time>2019-10-21T11:46:33Z</time>
      </trkpt>
      <trkpt lat="42.1087720" lon="2.3144200">
        <ele>807.4</ele>
        <time>2019-10-21T11:46:34Z</time>
      </trkpt>
      <trkpt lat="42.1087720" lon="2.3144200">
        <ele>807.2</ele>
        <time>2019-10-21T11:46:35Z</time>
      </trkpt>
      <trkpt lat="42.1087720" lon="2.3144200">
        <ele>808.2</ele>
        <time>2019-10-21T11:46:36Z</time>
      </trkpt>
      <trkpt lat="42.1087920" lon="2.3145490">
        <ele>808.4</ele>
        <time>2019-10-21T11:46:37Z</time>
      </trkpt>
      <trkpt lat="42.1087920" lon="2.3145490">
        <ele>809.4</ele>
        <time>2019-10-21T11:46:38Z</time>
      </trkpt>
      <trkpt lat="42.1087920" lon="2.3145490">
        <ele>809.8</ele>
        <time>2019-10-21T11:46:39Z</time>
      </trkpt>
      <trkpt lat="42.1087920" lon="2.3145490">
        <ele>809.8</ele>
        <time>2019-10-21T11:46:40Z</time>
      </trkpt>
      <trkpt lat="42.1087920" lon="2.3145490">
        <ele>809.8</ele>
        <time>2019-10-21T11:46:41Z</time>
      </trkpt>
      <trkpt lat="42.1087930" lon="2.3145840">
        <ele>810.0</ele>
        <time>2019-10-21T11:46:42Z</time>
      </trkpt>
      <trkpt lat="42.1087940" lon="2.3146180">
        <ele>810.8</ele>
        <time>2019-10-21T11:46:43Z</time>
      </trkpt>
      <trkpt lat="42.1087950" lon="2.3146530">
        <ele>811.2</ele>
        <time>2019-10-21T11:46:44Z</time>
      </trkpt>
      <trkpt lat="42.1087960" lon="2.3146880">
        <ele>812.0</ele>
        <time>2019-10-21T11:46:45Z</time>
      </trkpt>
      <trkpt lat="42.1087980" lon="2.3147210">
        <ele>812.4</ele>
        <time>2019-10-21T11:46:46Z</time>
      </trkpt>
      <trkpt lat="42.1088010" lon="2.3147550">
        <ele>812.4</ele>
        <time>2019-10-21T11:46:47Z</time>
      </trkpt>
      <trkpt lat="42.1088030" lon="2.3147880">
        <ele>813.0</ele>
        <time>2019-10-21T11:46:48Z</time>
      </trkpt>
      <trkpt lat="42.1088050" lon="2.3148220">
        <ele>813.4</ele>
        <time>2019-10-21T11:46:49Z</time>
      </trkpt>
      <trkpt lat="42.1088160" lon="2.3148320">
        <ele>814.2</ele>
        <time>2019-10-21T11:46:50Z</time>
      </trkpt>
      <trkpt lat="42.1088260" lon="2.3148430">
        <ele>814.4</ele>
        <time>2019-10-21T11:46:51Z</time>
      </trkpt>
      <trkpt lat="42.1088370" lon="2.3148530">
        <ele>814.6</ele>
        <time>2019-10-21T11:46:52Z</time>
      </trkpt>
      <trkpt lat="42.1088480" lon="2.3148640">
        <ele>814.8</ele>
        <time>2019-10-21T11:46:53Z</time>
      </trkpt>
      <trkpt lat="42.1088580" lon="2.3148740">
        <ele>814.8</ele>
        <time>2019-10-21T11:46:54Z</time>
      </trkpt>
      <trkpt lat="42.1088690" lon="2.3148850">
        <ele>815.2</ele>
        <time>2019-10-21T11:46:55Z</time>
      </trkpt>
      <trkpt lat="42.1088800" lon="2.3148950">
        <ele>815.8</ele>
        <time>2019-10-21T11:46:56Z</time>
      </trkpt>
      <trkpt lat="42.1088900" lon="2.3149060">
        <ele>815.8</ele>
        <time>2019-10-21T11:46:57Z</time>
      </trkpt>
      <trkpt lat="42.1089010" lon="2.3149160">
        <ele>816.2</ele>
        <time>2019-10-21T11:46:58Z</time>
      </trkpt>
      <trkpt lat="42.1089120" lon="2.3149270">
        <ele>817.2</ele>
        <time>2019-10-21T11:46:59Z</time>
      </trkpt>
      <trkpt lat="42.1089220" lon="2.3149370">
        <ele>817.6</ele>
        <time>2019-10-21T11:47:00Z</time>
      </trkpt>
      <trkpt lat="42.1089330" lon="2.3149480">
        <ele>818.0</ele>
        <time>2019-10-21T11:47:01Z</time>
      </trkpt>
      <trkpt lat="42.1089440" lon="2.3149580">
        <ele>818.8</ele>
        <time>2019-10-21T11:47:02Z</time>
      </trkpt>
      <trkpt lat="42.1089540" lon="2.3149690">
        <ele>819.0</ele>
        <time>2019-10-21T11:47:03Z</time>
      </trkpt>
      <trkpt lat="42.1089650" lon="2.3149790">
        <ele>819.0</ele>
        <time>2019-10-21T11:47:04Z</time>
      </trkpt>
      <trkpt lat="42.1089760" lon="2.3149900">
        <ele>819.8</ele>
        <time>2019-10-21T11:47:05Z</time>
      </trkpt>
      <trkpt lat="42.1089860" lon="2.3150000">
        <ele>820.0</ele>
        <time>2019-10-21T11:47:06Z</time>
      </trkpt>
      <trkpt lat="42.1089970" lon="2.3150110">
        <ele>820.6</ele>
        <time>2019-10-21T11:47:07Z</time>
      </trkpt>
      <trkpt lat="42.1090090" lon="2.3150140">
        <ele>820.2</ele>
        <time>2019-10-21T11:47:08Z</time>
      </trkpt>
      <trkpt lat="42.1090220" lon="2.3150160">
        <ele>820.6</ele>
        <time>2019-10-21T11:47:09Z</time>
      </trkpt>
      <trkpt lat="42.1090340" lon="2.3150190">
        <ele>821.4</ele>
        <time>2019-10-21T11:47:10Z</time>
      </trkpt>
      <trkpt lat="42.1090460" lon="2.3150220">
        <ele>821.4</ele>
        <time>2019-10-21T11:47:11Z</time>
      </trkpt>
      <trkpt lat="42.1090580" lon="2.3150250">
        <ele>821.8</ele>
        <time>2019-10-21T11:47:12Z</time>
      </trkpt>
      <trkpt lat="42.1090710" lon="2.3150270">
        <ele>822.6</ele>
        <time>2019-10-21T11:47:13Z</time>
      </trkpt>
      <trkpt lat="42.1090830" lon="2.3150300">
        <ele>822.8</ele>
        <time>2019-10-21T11:47:14Z</time>
      </trkpt>
      <trkpt lat="42.1090950" lon="2.3150330">
        <ele>822.8</ele>
        <time>2019-10-21T11:47:15Z</time>
      </trkpt>
      <trkpt lat="42.1091890" lon="2.3150820">
        <ele>823.4</ele>
        <time>2019-10-21T11:47:16Z</time>
      </trkpt>
      <trkpt lat="42.1091890" lon="2.3150820">
        <ele>823.8</ele>
        <time>2019-10-21T11:47:17Z</time>
      </trkpt>
      <trkpt lat="42.1091890" lon="2.3150820">
        <ele>824.2</ele>
        <time>2019-10-21T11:47:18Z</time>
      </trkpt>
      <trkpt lat="42.1091890" lon="2.3150820">
        <ele>824.4</ele>
        <time>2019-10-21T11:47:19Z</time>
      </trkpt>
      <trkpt lat="42.1091890" lon="2.3150820">
        <ele>824.4</ele>
        <time>2019-10-21T11:47:20Z</time>
      </trkpt>
      <trkpt lat="42.1092940" lon="2.3150810">
        <ele>825.0</ele>
        <time>2019-10-21T11:47:21Z</time>
      </trkpt>
      <trkpt lat="42.1093070" lon="2.3150740">
        <ele>825.4</ele>
        <time>2019-10-21T11:47:22Z</time>
      </trkpt>
      <trkpt lat="42.1093200" lon="2.3150670">
        <ele>825.8</ele>
        <time>2019-10-21T11:47:23Z</time>
      </trkpt>
      <trkpt lat="42.1093330" lon="2.3150590">
        <ele>825.8</ele>
        <time>2019-10-21T11:47:24Z</time>
      </trkpt>
      <trkpt lat="42.1093460" lon="2.3150520">
        <ele>826.6</ele>
        <time>2019-10-21T11:47:25Z</time>
      </trkpt>
      <trkpt lat="42.1093590" lon="2.3150450">
        <ele>826.6</ele>
        <time>2019-10-21T11:47:26Z</time>
      </trkpt>
      <trkpt lat="42.1093720" lon="2.3150380">
        <ele>827.2</ele>
        <time>2019-10-21T11:47:27Z</time>
      </trkpt>
      <trkpt lat="42.1093760" lon="2.3150160">
        <ele>827.6</ele>
        <time>2019-10-21T11:47:28Z</time>
      </trkpt>
      <trkpt lat="42.1093800" lon="2.3149950">
        <ele>827.6</ele>
        <time>2019-10-21T11:47:29Z</time>
      </trkpt>
      <trkpt lat="42.1093840" lon="2.3149730">
        <ele>827.8</ele>
        <time>2019-10-21T11:47:30Z</time>
      </trkpt>
      <trkpt lat="42.1093870" lon="2.3149510">
        <ele>828.4</ele>
        <time>2019-10-21T11:47:31Z</time>
      </trkpt>
      <trkpt lat="42.1093910" lon="2.3149300">
        <ele>828.6</ele>
        <time>2019-10-21T11:47:32Z</time>
      </trkpt>
      <trkpt lat="42.1093950" lon="2.3149080">
        <ele>828.8</ele>
        <time>2019-10-21T11:47:33Z</time>
      </trkpt>
      <trkpt lat="42.1094030" lon="2.3148810">
        <ele>829.6</ele>
        <time>2019-10-21T11:47:34Z</time>
      </trkpt>
      <trkpt lat="42.1094100" lon="2.3148550">
        <ele>830.0</ele>
        <time>2019-10-21T11:47:35Z</time>
      </trkpt>
      <trkpt lat="42.1094180" lon="2.3148280">
        <ele>830.2</ele>
        <time>2019-10-21T11:47:36Z</time>
      </trkpt>
      <trkpt lat="42.1094250" lon="2.3148020">
        <ele>830.2</ele>
        <time>2019-10-21T11:47:37Z</time>
      </trkpt>
      <trkpt lat="42.1094330" lon="2.3147750">
        <ele>830.4</ele>
        <time>2019-10-21T11:47:38Z</time>
      </trkpt>
      <trkpt lat="42.1094410" lon="2.3147530">
        <ele>830.8</ele>
        <time>2019-10-21T11:47:39Z</time>
      </trkpt>
      <trkpt lat="42.1094500" lon="2.3147310">
        <ele>830.8</ele>
        <time>2019-10-21T11:47:40Z</time>
      </trkpt>
      <trkpt lat="42.1094580" lon="2.3147090">
        <ele>831.2</ele>
        <time>2019-10-21T11:47:41Z</time>
      </trkpt>
      <trkpt lat="42.1094670" lon="2.3146870">
        <ele>831.8</ele>
        <time>2019-10-21T11:47:42Z</time>
      </trkpt>
      <trkpt lat="42.1094750" lon="2.3146650">
        <ele>831.8</ele>
        <time>2019-10-21T11:47:43Z</time>
      </trkpt>
      <trkpt lat="42.1094910" lon="2.3146440">
        <ele>831.6</ele>
        <time>2019-10-21T11:47:44Z</time>
      </trkpt>
      <trkpt lat="42.1095080" lon="2.3146230">
        <ele>832.2</ele>
        <time>2019-10-21T11:47:45Z</time>
      </trkpt>
      <trkpt lat="42.1095240" lon="2.3146020">
        <ele>832.4</ele>
        <time>2019-10-21T11:47:46Z</time>
      </trkpt>
      <trkpt lat="42.1095400" lon="2.3145820">
        <ele>833.0</ele>
        <time>2019-10-21T11:47:47Z</time>
      </trkpt>
      <trkpt lat="42.1095560" lon="2.3145610">
        <ele>833.0</ele>
        <time>2019-10-21T11:47:48Z</time>
      </trkpt>
      <trkpt lat="42.1095730" lon="2.3145400">
        <ele>833.0</ele>
        <time>2019-10-21T11:47:49Z</time>
      </trkpt>
      <trkpt lat="42.1095890" lon="2.3145190">
        <ele>833.4</ele>
        <time>2019-10-21T11:47:50Z</time>
      </trkpt>
      <trkpt lat="42.1096320" lon="2.3144510">
        <ele>833.6</ele>
        <time>2019-10-21T11:47:51Z</time>
      </trkpt>
      <trkpt lat="42.1096430" lon="2.3144290">
        <ele>834.0</ele>
        <time>2019-10-21T11:47:52Z</time>
      </trkpt>
      <trkpt lat="42.1096540" lon="2.3144060">
        <ele>833.8</ele>
        <time>2019-10-21T11:47:53Z</time>
      </trkpt>
      <trkpt lat="42.1096650" lon="2.3143830">
        <ele>833.4</ele>
        <time>2019-10-21T11:47:54Z</time>
      </trkpt>
      <trkpt lat="42.1096760" lon="2.3143610">
        <ele>834.0</ele>
        <time>2019-10-21T11:47:55Z</time>
      </trkpt>
      <trkpt lat="42.1096870" lon="2.3143380">
        <ele>834.2</ele>
        <time>2019-10-21T11:47:56Z</time>
      </trkpt>
      <trkpt lat="42.1097010" lon="2.3143190">
        <ele>834.8</ele>
        <time>2019-10-21T11:47:57Z</time>
      </trkpt>
      <trkpt lat="42.1097150" lon="2.3143010">
        <ele>835.0</ele>
        <time>2019-10-21T11:47:58Z</time>
      </trkpt>
      <trkpt lat="42.1097280" lon="2.3142820">
        <ele>834.8</ele>
        <time>2019-10-21T11:47:59Z</time>
      </trkpt>
      <trkpt lat="42.1097420" lon="2.3142640">
        <ele>835.2</ele>
        <time>2019-10-21T11:48:00Z</time>
      </trkpt>
      <trkpt lat="42.1097560" lon="2.3142450">
        <ele>835.4</ele>
        <time>2019-10-21T11:48:01Z</time>
      </trkpt>
      <trkpt lat="42.1098130" lon="2.3141080">
        <ele>836.2</ele>
        <time>2019-10-21T11:48:02Z</time>
      </trkpt>
      <trkpt lat="42.1098140" lon="2.3140950">
        <ele>836.4</ele>
        <time>2019-10-21T11:48:03Z</time>
      </trkpt>
      <trkpt lat="42.1098140" lon="2.3140830">
        <ele>836.4</ele>
        <time>2019-10-21T11:48:04Z</time>
      </trkpt>
      <trkpt lat="42.1098150" lon="2.3140700">
        <ele>836.8</ele>
        <time>2019-10-21T11:48:05Z</time>
      </trkpt>
      <trkpt lat="42.1098160" lon="2.3140570">
        <ele>837.2</ele>
        <time>2019-10-21T11:48:06Z</time>
      </trkpt>
      <trkpt lat="42.1098200" lon="2.3139660">
        <ele>837.4</ele>
        <time>2019-10-21T11:48:07Z</time>
      </trkpt>
      <trkpt lat="42.1098210" lon="2.3139400">
        <ele>837.6</ele>
        <time>2019-10-21T11:48:08Z</time>
      </trkpt>
      <trkpt lat="42.1098220" lon="2.3139140">
        <ele>837.8</ele>
        <time>2019-10-21T11:48:09Z</time>
      </trkpt>
      <trkpt lat="42.1098230" lon="2.3138880">
        <ele>838.6</ele>
        <time>2019-10-21T11:48:10Z</time>
      </trkpt>
      <trkpt lat="42.1098240" lon="2.3138620">
        <ele>838.8</ele>
        <time>2019-10-21T11:48:11Z</time>
      </trkpt>
      <trkpt lat="42.1098300" lon="2.3138380">
        <ele>838.6</ele>
        <time>2019-10-21T11:48:12Z</time>
      </trkpt>
      <trkpt lat="42.1098360" lon="2.3138140">
        <ele>839.4</ele>
        <time>2019-10-21T11:48:13Z</time>
      </trkpt>
      <trkpt lat="42.1098410" lon="2.3137900">
        <ele>839.4</ele>
        <time>2019-10-21T11:48:14Z</time>
      </trkpt>
      <trkpt lat="42.1098470" lon="2.3137660">
        <ele>839.6</ele>
        <time>2019-10-21T11:48:15Z</time>
      </trkpt>
      <trkpt lat="42.1098530" lon="2.3137420">
        <ele>839.0</ele>
        <time>2019-10-21T11:48:16Z</time>
      </trkpt>
      <trkpt lat="42.1098630" lon="2.3136960">
        <ele>839.2</ele>
        <time>2019-10-21T11:48:17Z</time>
      </trkpt>
      <trkpt lat="42.1098730" lon="2.3136510">
        <ele>839.6</ele>
        <time>2019-10-21T11:48:18Z</time>
      </trkpt>
      <trkpt lat="42.1098830" lon="2.3136050">
        <ele>839.4</ele>
        <time>2019-10-21T11:48:19Z</time>
      </trkpt>
      <trkpt lat="42.1098920" lon="2.3135590">
        <ele>839.4</ele>
        <time>2019-10-21T11:48:20Z</time>
      </trkpt>
      <trkpt lat="42.1099020" lon="2.3135140">
        <ele>839.6</ele>
        <time>2019-10-21T11:48:21Z</time>
      </trkpt>
      <trkpt lat="42.1099120" lon="2.3134680">
        <ele>839.4</ele>
        <time>2019-10-21T11:48:22Z</time>
      </trkpt>
      <trkpt lat="42.1099140" lon="2.3134430">
        <ele>840.0</ele>
        <time>2019-10-21T11:48:23Z</time>
      </trkpt>
      <trkpt lat="42.1099170" lon="2.3134170">
        <ele>840.0</ele>
        <time>2019-10-21T11:48:24Z</time>
      </trkpt>
      <trkpt lat="42.1099190" lon="2.3133920">
        <ele>840.0</ele>
        <time>2019-10-21T11:48:25Z</time>
      </trkpt>
      <trkpt lat="42.1099210" lon="2.3133670">
        <ele>839.6</ele>
        <time>2019-10-21T11:48:26Z</time>
      </trkpt>
      <trkpt lat="42.1099240" lon="2.3133410">
        <ele>839.6</ele>
        <time>2019-10-21T11:48:27Z</time>
      </trkpt>
      <trkpt lat="42.1099260" lon="2.3133160">
        <ele>840.0</ele>
        <time>2019-10-21T11:48:28Z</time>
      </trkpt>
      <trkpt lat="42.1099330" lon="2.3132870">
        <ele>840.2</ele>
        <time>2019-10-21T11:48:29Z</time>
      </trkpt>
      <trkpt lat="42.1099390" lon="2.3132580">
        <ele>840.2</ele>
        <time>2019-10-21T11:48:30Z</time>
      </trkpt>
      <trkpt lat="42.1099460" lon="2.3132290">
        <ele>840.4</ele>
        <time>2019-10-21T11:48:31Z</time>
      </trkpt>
      <trkpt lat="42.1099520" lon="2.3132000">
        <ele>840.4</ele>
        <time>2019-10-21T11:48:32Z</time>
      </trkpt>
      <trkpt lat="42.1099580" lon="2.3131720">
        <ele>840.4</ele>
        <time>2019-10-21T11:48:33Z</time>
      </trkpt>
      <trkpt lat="42.1099650" lon="2.3131440">
        <ele>840.0</ele>
        <time>2019-10-21T11:48:34Z</time>
      </trkpt>
      <trkpt lat="42.1099710" lon="2.3131160">
        <ele>839.6</ele>
        <time>2019-10-21T11:48:35Z</time>
      </trkpt>
      <trkpt lat="42.1099780" lon="2.3130880">
        <ele>840.0</ele>
        <time>2019-10-21T11:48:36Z</time>
      </trkpt>
      <trkpt lat="42.1099840" lon="2.3130600">
        <ele>839.8</ele>
        <time>2019-10-21T11:48:37Z</time>
      </trkpt>
      <trkpt lat="42.1100090" lon="2.3130490">
        <ele>840.0</ele>
        <time>2019-10-21T11:48:38Z</time>
      </trkpt>
      <trkpt lat="42.1100330" lon="2.3130390">
        <ele>839.6</ele>
        <time>2019-10-21T11:48:39Z</time>
      </trkpt>
      <trkpt lat="42.1100580" lon="2.3130280">
        <ele>839.8</ele>
        <time>2019-10-21T11:48:40Z</time>
      </trkpt>
      <trkpt lat="42.1100820" lon="2.3130170">
        <ele>840.6</ele>
        <time>2019-10-21T11:48:41Z</time>
      </trkpt>
      <trkpt lat="42.1101110" lon="2.3130200">
        <ele>840.8</ele>
        <time>2019-10-21T11:48:42Z</time>
      </trkpt>
      <trkpt lat="42.1101410" lon="2.3130230">
        <ele>841.6</ele>
        <time>2019-10-21T11:48:43Z</time>
      </trkpt>
      <trkpt lat="42.1101700" lon="2.3130270">
        <ele>841.4</ele>
        <time>2019-10-21T11:48:44Z</time>
      </trkpt>
      <trkpt lat="42.1101990" lon="2.3130300">
        <ele>841.6</ele>
        <time>2019-10-21T11:48:45Z</time>
      </trkpt>
      <trkpt lat="42.1102320" lon="2.3130260">
        <ele>841.2</ele>
        <time>2019-10-21T11:48:46Z</time>
      </trkpt>
      <trkpt lat="42.1102640" lon="2.3130210">
        <ele>840.8</ele>
        <time>2019-10-21T11:48:47Z</time>
      </trkpt>
      <trkpt lat="42.1102970" lon="2.3130170">
        <ele>841.2</ele>
        <time>2019-10-21T11:48:48Z</time>
      </trkpt>
      <trkpt lat="42.1103100" lon="2.3130150">
        <ele>841.0</ele>
        <time>2019-10-21T11:48:49Z</time>
      </trkpt>
      <trkpt lat="42.1103220" lon="2.3130120">
        <ele>841.2</ele>
        <time>2019-10-21T11:48:50Z</time>
      </trkpt>
      <trkpt lat="42.1103350" lon="2.3130100">
        <ele>841.0</ele>
        <time>2019-10-21T11:48:51Z</time>
      </trkpt>
      <trkpt lat="42.1103470" lon="2.3130070">
        <ele>841.2</ele>
        <time>2019-10-21T11:48:52Z</time>
      </trkpt>
      <trkpt lat="42.1104260" lon="2.3130020">
        <ele>840.8</ele>
        <time>2019-10-21T11:48:53Z</time>
      </trkpt>
      <trkpt lat="42.1104560" lon="2.3130080">
        <ele>840.2</ele>
        <time>2019-10-21T11:48:54Z</time>
      </trkpt>
      <trkpt lat="42.1104860" lon="2.3130130">
        <ele>840.6</ele>
        <time>2019-10-21T11:48:55Z</time>
      </trkpt>
      <trkpt lat="42.1105160" lon="2.3130190">
        <ele>840.4</ele>
        <time>2019-10-21T11:48:56Z</time>
      </trkpt>
      <trkpt lat="42.1105410" lon="2.3130320">
        <ele>840.8</ele>
        <time>2019-10-21T11:48:57Z</time>
      </trkpt>
      <trkpt lat="42.1105660" lon="2.3130450">
        <ele>840.6</ele>
        <time>2019-10-21T11:48:58Z</time>
      </trkpt>
      <trkpt lat="42.1105910" lon="2.3130580">
        <ele>841.0</ele>
        <time>2019-10-21T11:48:59Z</time>
      </trkpt>
      <trkpt lat="42.1106160" lon="2.3130710">
        <ele>841.0</ele>
        <time>2019-10-21T11:49:00Z</time>
      </trkpt>
      <trkpt lat="42.1107280" lon="2.3131410">
        <ele>841.4</ele>
        <time>2019-10-21T11:49:01Z</time>
      </trkpt>
      <trkpt lat="42.1107490" lon="2.3131600">
        <ele>841.2</ele>
        <time>2019-10-21T11:49:02Z</time>
      </trkpt>
      <trkpt lat="42.1107700" lon="2.3131790">
        <ele>841.0</ele>
        <time>2019-10-21T11:49:03Z</time>
      </trkpt>
      <trkpt lat="42.1107910" lon="2.3131980">
        <ele>841.2</ele>
        <time>2019-10-21T11:49:04Z</time>
      </trkpt>
      <trkpt lat="42.1108090" lon="2.3132220">
        <ele>841.2</ele>
        <time>2019-10-21T11:49:05Z</time>
      </trkpt>
      <trkpt lat="42.1108270" lon="2.3132450">
        <ele>841.8</ele>
        <time>2019-10-21T11:49:06Z</time>
      </trkpt>
      <trkpt lat="42.1108440" lon="2.3132690">
        <ele>841.8</ele>
        <time>2019-10-21T11:49:07Z</time>
      </trkpt>
      <trkpt lat="42.1108620" lon="2.3132930">
        <ele>842.2</ele>
        <time>2019-10-21T11:49:08Z</time>
      </trkpt>
      <trkpt lat="42.1108780" lon="2.3133160">
        <ele>842.4</ele>
        <time>2019-10-21T11:49:09Z</time>
      </trkpt>
      <trkpt lat="42.1108940" lon="2.3133390">
        <ele>842.8</ele>
        <time>2019-10-21T11:49:10Z</time>
      </trkpt>
      <trkpt lat="42.1109100" lon="2.3133630">
        <ele>842.4</ele>
        <time>2019-10-21T11:49:11Z</time>
      </trkpt>
      <trkpt lat="42.1109260" lon="2.3133860">
        <ele>842.8</ele>
        <time>2019-10-21T11:49:12Z</time>
      </trkpt>
      <trkpt lat="42.1109550" lon="2.3134240">
        <ele>843.0</ele>
        <time>2019-10-21T11:49:13Z</time>
      </trkpt>
      <trkpt lat="42.1109830" lon="2.3134630">
        <ele>842.6</ele>
        <time>2019-10-21T11:49:14Z</time>
      </trkpt>
      <trkpt lat="42.1110120" lon="2.3135010">
        <ele>843.0</ele>
        <time>2019-10-21T11:49:15Z</time>
      </trkpt>
      <trkpt lat="42.1110400" lon="2.3135400">
        <ele>842.6</ele>
        <time>2019-10-21T11:49:16Z</time>
      </trkpt>
      <trkpt lat="42.1110890" lon="2.3136100">
        <ele>843.0</ele>
        <time>2019-10-21T11:49:17Z</time>
      </trkpt>
      <trkpt lat="42.1111040" lon="2.3136330">
        <ele>842.8</ele>
        <time>2019-10-21T11:49:18Z</time>
      </trkpt>
      <trkpt lat="42.1111180" lon="2.3136570">
        <ele>842.6</ele>
        <time>2019-10-21T11:49:19Z</time>
      </trkpt>
      <trkpt lat="42.1111330" lon="2.3136800">
        <ele>843.2</ele>
        <time>2019-10-21T11:49:20Z</time>
      </trkpt>
      <trkpt lat="42.1111430" lon="2.3136930">
        <ele>843.0</ele>
        <time>2019-10-21T11:49:21Z</time>
      </trkpt>
      <trkpt lat="42.1111540" lon="2.3137050">
        <ele>843.0</ele>
        <time>2019-10-21T11:49:22Z</time>
      </trkpt>
      <trkpt lat="42.1111640" lon="2.3137180">
        <ele>842.8</ele>
        <time>2019-10-21T11:49:23Z</time>
      </trkpt>
      <trkpt lat="42.1111740" lon="2.3137310">
        <ele>843.0</ele>
        <time>2019-10-21T11:49:24Z</time>
      </trkpt>
      <trkpt lat="42.1112280" lon="2.3138050">
        <ele>843.0</ele>
        <time>2019-10-21T11:49:25Z</time>
      </trkpt>
      <trkpt lat="42.1112420" lon="2.3138270">
        <ele>843.6</ele>
        <time>2019-10-21T11:49:26Z</time>
      </trkpt>
      <trkpt lat="42.1112570" lon="2.3138490">
        <ele>843.6</ele>
        <time>2019-10-21T11:49:27Z</time>
      </trkpt>
      <trkpt lat="42.1112710" lon="2.3138710">
        <ele>843.4</ele>
        <time>2019-10-21T11:49:28Z</time>
      </trkpt>
      <trkpt lat="42.1112850" lon="2.3138930">
        <ele>843.0</ele>
        <time>2019-10-21T11:49:29Z</time>
      </trkpt>
      <trkpt lat="42.1112960" lon="2.3139030">
        <ele>843.0</ele>
        <time>2019-10-21T11:49:30Z</time>
      </trkpt>
      <trkpt lat="42.1113070" lon="2.3139140">
        <ele>843.4</ele>
        <time>2019-10-21T11:49:31Z</time>
      </trkpt>
      <trkpt lat="42.1113170" lon="2.3139240">
        <ele>843.2</ele>
        <time>2019-10-21T11:49:32Z</time>
      </trkpt>
      <trkpt lat="42.1113280" lon="2.3139350">
        <ele>844.0</ele>
        <time>2019-10-21T11:49:33Z</time>
      </trkpt>
      <trkpt lat="42.1113700" lon="2.3139770">
        <ele>844.4</ele>
        <time>2019-10-21T11:49:34Z</time>
      </trkpt>
      <trkpt lat="42.1113700" lon="2.3139770">
        <ele>845.0</ele>
        <time>2019-10-21T11:49:35Z</time>
      </trkpt>
      <trkpt lat="42.1113700" lon="2.3139770">
        <ele>845.0</ele>
        <time>2019-10-21T11:49:36Z</time>
      </trkpt>
      <trkpt lat="42.1113700" lon="2.3139770">
        <ele>845.0</ele>
        <time>2019-10-21T11:49:37Z</time>
      </trkpt>
      <trkpt lat="42.1114610" lon="2.3140640">
        <ele>844.6</ele>
        <time>2019-10-21T11:49:38Z</time>
      </trkpt>
      <trkpt lat="42.1114680" lon="2.3140750">
        <ele>844.8</ele>
        <time>2019-10-21T11:49:39Z</time>
      </trkpt>
      <trkpt lat="42.1114760" lon="2.3140850">
        <ele>844.6</ele>
        <time>2019-10-21T11:49:40Z</time>
      </trkpt>
      <trkpt lat="42.1114830" lon="2.3140960">
        <ele>844.4</ele>
        <time>2019-10-21T11:49:41Z</time>
      </trkpt>
      <trkpt lat="42.1114900" lon="2.3141060">
        <ele>845.0</ele>
        <time>2019-10-21T11:49:42Z</time>
      </trkpt>
      <trkpt lat="42.1115300" lon="2.3141740">
        <ele>845.0</ele>
        <time>2019-10-21T11:49:43Z</time>
      </trkpt>
      <trkpt lat="42.1115350" lon="2.3141900">
        <ele>845.8</ele>
        <time>2019-10-21T11:49:44Z</time>
      </trkpt>
      <trkpt lat="42.1115390" lon="2.3142070">
        <ele>846.0</ele>
        <time>2019-10-21T11:49:45Z</time>
      </trkpt>
      <trkpt lat="42.1115440" lon="2.3142230">
        <ele>846.6</ele>
        <time>2019-10-21T11:49:46Z</time>
      </trkpt>
      <trkpt lat="42.1115630" lon="2.3142880">
        <ele>846.6</ele>
        <time>2019-10-21T11:49:47Z</time>
      </trkpt>
      <trkpt lat="42.1115630" lon="2.3142880">
        <ele>846.6</ele>
        <time>2019-10-21T11:49:48Z</time>
      </trkpt>
      <trkpt lat="42.1115630" lon="2.3142880">
        <ele>846.8</ele>
        <time>2019-10-21T11:49:49Z</time>
      </trkpt>
      <trkpt lat="42.1115620" lon="2.3143590">
        <ele>846.8</ele>
        <time>2019-10-21T11:49:50Z</time>
      </trkpt>
      <trkpt lat="42.1115610" lon="2.3144300">
        <ele>846.4</ele>
        <time>2019-10-21T11:49:51Z</time>
      </trkpt>
      <trkpt lat="42.1115580" lon="2.3144720">
        <ele>846.2</ele>
        <time>2019-10-21T11:49:52Z</time>
      </trkpt>
      <trkpt lat="42.1115550" lon="2.3145130">
        <ele>846.6</ele>
        <time>2019-10-21T11:49:53Z</time>
      </trkpt>
      <trkpt lat="42.1115520" lon="2.3145550">
        <ele>845.6</ele>
        <time>2019-10-21T11:49:54Z</time>
      </trkpt>
      <trkpt lat="42.1115520" lon="2.3145550">
        <ele>846.6</ele>
        <time>2019-10-21T11:49:55Z</time>
      </trkpt>
      <trkpt lat="42.1115520" lon="2.3145550">
        <ele>846.6</ele>
        <time>2019-10-21T11:49:56Z</time>
      </trkpt>
      <trkpt lat="42.1115520" lon="2.3145550">
        <ele>847.4</ele>
        <time>2019-10-21T11:49:57Z</time>
      </trkpt>
      <trkpt lat="42.1115770" lon="2.3146940">
        <ele>847.4</ele>
        <time>2019-10-21T11:49:58Z</time>
      </trkpt>
      <trkpt lat="42.1115770" lon="2.3146940">
        <ele>848.2</ele>
        <time>2019-10-21T11:49:59Z</time>
      </trkpt>
      <trkpt lat="42.1115770" lon="2.3146940">
        <ele>848.6</ele>
        <time>2019-10-21T11:50:00Z</time>
      </trkpt>
      <trkpt lat="42.1115780" lon="2.3147250">
        <ele>849.0</ele>
        <time>2019-10-21T11:50:01Z</time>
      </trkpt>
      <trkpt lat="42.1115790" lon="2.3147570">
        <ele>849.4</ele>
        <time>2019-10-21T11:50:02Z</time>
      </trkpt>
      <trkpt lat="42.1115790" lon="2.3147880">
        <ele>850.0</ele>
        <time>2019-10-21T11:50:03Z</time>
      </trkpt>
      <trkpt lat="42.1115800" lon="2.3148200">
        <ele>850.2</ele>
        <time>2019-10-21T11:50:04Z</time>
      </trkpt>
      <trkpt lat="42.1115830" lon="2.3148680">
        <ele>850.4</ele>
        <time>2019-10-21T11:50:05Z</time>
      </trkpt>
      <trkpt lat="42.1115850" lon="2.3149170">
        <ele>850.4</ele>
        <time>2019-10-21T11:50:06Z</time>
      </trkpt>
      <trkpt lat="42.1115880" lon="2.3149650">
        <ele>850.2</ele>
        <time>2019-10-21T11:50:07Z</time>
      </trkpt>
      <trkpt lat="42.1115900" lon="2.3150140">
        <ele>850.8</ele>
        <time>2019-10-21T11:50:08Z</time>
      </trkpt>
      <trkpt lat="42.1115930" lon="2.3150640">
        <ele>850.8</ele>
        <time>2019-10-21T11:50:09Z</time>
      </trkpt>
      <trkpt lat="42.1115950" lon="2.3151130">
        <ele>851.6</ele>
        <time>2019-10-21T11:50:10Z</time>
      </trkpt>
      <trkpt lat="42.1115950" lon="2.3151310">
        <ele>851.8</ele>
        <time>2019-10-21T11:50:11Z</time>
      </trkpt>
      <trkpt lat="42.1115950" lon="2.3151500">
        <ele>852.2</ele>
        <time>2019-10-21T11:50:12Z</time>
      </trkpt>
      <trkpt lat="42.1115950" lon="2.3151680">
        <ele>852.4</ele>
        <time>2019-10-21T11:50:13Z</time>
      </trkpt>
      <trkpt lat="42.1115950" lon="2.3151860">
        <ele>852.6</ele>
        <time>2019-10-21T11:50:14Z</time>
      </trkpt>
      <trkpt lat="42.1115940" lon="2.3152720">
        <ele>852.4</ele>
        <time>2019-10-21T11:50:15Z</time>
      </trkpt>
      <trkpt lat="42.1115940" lon="2.3152840">
        <ele>852.2</ele>
        <time>2019-10-21T11:50:16Z</time>
      </trkpt>
      <trkpt lat="42.1115950" lon="2.3152970">
        <ele>852.2</ele>
        <time>2019-10-21T11:50:17Z</time>
      </trkpt>
      <trkpt lat="42.1115950" lon="2.3153090">
        <ele>852.6</ele>
        <time>2019-10-21T11:50:18Z</time>
      </trkpt>
      <trkpt lat="42.1115950" lon="2.3153220">
        <ele>853.4</ele>
        <time>2019-10-21T11:50:19Z</time>
      </trkpt>
      <trkpt lat="42.1115980" lon="2.3154190">
        <ele>853.8</ele>
        <time>2019-10-21T11:50:20Z</time>
      </trkpt>
      <trkpt lat="42.1116000" lon="2.3154540">
        <ele>854.4</ele>
        <time>2019-10-21T11:50:21Z</time>
      </trkpt>
      <trkpt lat="42.1116010" lon="2.3154880">
        <ele>854.8</ele>
        <time>2019-10-21T11:50:22Z</time>
      </trkpt>
      <trkpt lat="42.1116030" lon="2.3155230">
        <ele>855.4</ele>
        <time>2019-10-21T11:50:23Z</time>
      </trkpt>
      <trkpt lat="42.1116010" lon="2.3155370">
        <ele>855.8</ele>
        <time>2019-10-21T11:50:24Z</time>
      </trkpt>
      <trkpt lat="42.1115990" lon="2.3155510">
        <ele>855.8</ele>
        <time>2019-10-21T11:50:25Z</time>
      </trkpt>
      <trkpt lat="42.1115980" lon="2.3155640">
        <ele>856.4</ele>
        <time>2019-10-21T11:50:26Z</time>
      </trkpt>
      <trkpt lat="42.1115960" lon="2.3155780">
        <ele>857.0</ele>
        <time>2019-10-21T11:50:27Z</time>
      </trkpt>
      <trkpt lat="42.1115940" lon="2.3155920">
        <ele>857.8</ele>
        <time>2019-10-21T11:50:28Z</time>
      </trkpt>
      <trkpt lat="42.1115850" lon="2.3156610">
        <ele>858.4</ele>
        <time>2019-10-21T11:50:29Z</time>
      </trkpt>
      <trkpt lat="42.1115850" lon="2.3156610">
        <ele>858.8</ele>
        <time>2019-10-21T11:50:30Z</time>
      </trkpt>
      <trkpt lat="42.1115850" lon="2.3156610">
        <ele>859.0</ele>
        <time>2019-10-21T11:50:31Z</time>
      </trkpt>
      <trkpt lat="42.1115850" lon="2.3156610">
        <ele>859.2</ele>
        <time>2019-10-21T11:50:32Z</time>
      </trkpt>
      <trkpt lat="42.1115850" lon="2.3156610">
        <ele>859.0</ele>
        <time>2019-10-21T11:50:33Z</time>
      </trkpt>
      <trkpt lat="42.1117000" lon="2.3156360">
        <ele>859.6</ele>
        <time>2019-10-21T11:50:34Z</time>
      </trkpt>
      <trkpt lat="42.1117130" lon="2.3156280">
        <ele>860.2</ele>
        <time>2019-10-21T11:50:35Z</time>
      </trkpt>
      <trkpt lat="42.1117260" lon="2.3156190">
        <ele>860.8</ele>
        <time>2019-10-21T11:50:36Z</time>
      </trkpt>
      <trkpt lat="42.1117390" lon="2.3156110">
        <ele>861.6</ele>
        <time>2019-10-21T11:50:37Z</time>
      </trkpt>
      <trkpt lat="42.1118150" lon="2.3155720">
        <ele>862.0</ele>
        <time>2019-10-21T11:50:38Z</time>
      </trkpt>
      <trkpt lat="42.1118390" lon="2.3155670">
        <ele>862.4</ele>
        <time>2019-10-21T11:50:39Z</time>
      </trkpt>
      <trkpt lat="42.1118640" lon="2.3155620">
        <ele>862.6</ele>
        <time>2019-10-21T11:50:40Z</time>
      </trkpt>
      <trkpt lat="42.1118880" lon="2.3155570">
        <ele>863.0</ele>
        <time>2019-10-21T11:50:41Z</time>
      </trkpt>
      <trkpt lat="42.1119240" lon="2.3155680">
        <ele>863.2</ele>
        <time>2019-10-21T11:50:42Z</time>
      </trkpt>
      <trkpt lat="42.1119600" lon="2.3155780">
        <ele>863.2</ele>
        <time>2019-10-21T11:50:43Z</time>
      </trkpt>
      <trkpt lat="42.1119960" lon="2.3155890">
        <ele>863.0</ele>
        <time>2019-10-21T11:50:44Z</time>
      </trkpt>
      <trkpt lat="42.1120390" lon="2.3155810">
        <ele>863.0</ele>
        <time>2019-10-21T11:50:45Z</time>
      </trkpt>
      <trkpt lat="42.1120830" lon="2.3155720">
        <ele>863.8</ele>
        <time>2019-10-21T11:50:46Z</time>
      </trkpt>
      <trkpt lat="42.1121260" lon="2.3155640">
        <ele>863.6</ele>
        <time>2019-10-21T11:50:47Z</time>
      </trkpt>
      <trkpt lat="42.1121690" lon="2.3155550">
        <ele>864.4</ele>
        <time>2019-10-21T11:50:48Z</time>
      </trkpt>
      <trkpt lat="42.1122460" lon="2.3155400">
        <ele>864.6</ele>
        <time>2019-10-21T11:50:49Z</time>
      </trkpt>
      <trkpt lat="42.1122780" lon="2.3155370">
        <ele>865.2</ele>
        <time>2019-10-21T11:50:50Z</time>
      </trkpt>
      <trkpt lat="42.1123090" lon="2.3155350">
        <ele>865.4</ele>
        <time>2019-10-21T11:50:51Z</time>
      </trkpt>
      <trkpt lat="42.1123400" lon="2.3155320">
        <ele>865.6</ele>
        <time>2019-10-21T11:50:52Z</time>
      </trkpt>
      <trkpt lat="42.1123720" lon="2.3155320">
        <ele>865.8</ele>
        <time>2019-10-21T11:50:53Z</time>
      </trkpt>
      <trkpt lat="42.1124040" lon="2.3155320">
        <ele>866.0</ele>
        <time>2019-10-21T11:50:54Z</time>
      </trkpt>
      <trkpt lat="42.1124360" lon="2.3155320">
        <ele>866.0</ele>
        <time>2019-10-21T11:50:55Z</time>
      </trkpt>
      <trkpt lat="42.1124680" lon="2.3155320">
        <ele>865.6</ele>
        <time>2019-10-21T11:50:56Z</time>
      </trkpt>
      <trkpt lat="42.1125010" lon="2.3155620">
        <ele>866.2</ele>
        <time>2019-10-21T11:50:57Z</time>
      </trkpt>
      <trkpt lat="42.1125340" lon="2.3155930">
        <ele>866.4</ele>
        <time>2019-10-21T11:50:58Z</time>
      </trkpt>
      <trkpt lat="42.1125670" lon="2.3156230">
        <ele>867.0</ele>
        <time>2019-10-21T11:50:59Z</time>
      </trkpt>
      <trkpt lat="42.1126000" lon="2.3156540">
        <ele>867.0</ele>
        <time>2019-10-21T11:51:00Z</time>
      </trkpt>
      <trkpt lat="42.1126420" lon="2.3157420">
        <ele>867.6</ele>
        <time>2019-10-21T11:51:01Z</time>
      </trkpt>
      <trkpt lat="42.1126530" lon="2.3157700">
        <ele>867.8</ele>
        <time>2019-10-21T11:51:02Z</time>
      </trkpt>
      <trkpt lat="42.1126650" lon="2.3157970">
        <ele>868.2</ele>
        <time>2019-10-21T11:51:03Z</time>
      </trkpt>
      <trkpt lat="42.1126760" lon="2.3158250">
        <ele>868.4</ele>
        <time>2019-10-21T11:51:04Z</time>
      </trkpt>
      <trkpt lat="42.1126880" lon="2.3158520">
        <ele>868.8</ele>
        <time>2019-10-21T11:51:05Z</time>
      </trkpt>
      <trkpt lat="42.1126970" lon="2.3158860">
        <ele>868.6</ele>
        <time>2019-10-21T11:51:06Z</time>
      </trkpt>
      <trkpt lat="42.1127060" lon="2.3159190">
        <ele>869.0</ele>
        <time>2019-10-21T11:51:07Z</time>
      </trkpt>
      <trkpt lat="42.1127150" lon="2.3159530">
        <ele>869.0</ele>
        <time>2019-10-21T11:51:08Z</time>
      </trkpt>
      <trkpt lat="42.1127240" lon="2.3159870">
        <ele>869.0</ele>
        <time>2019-10-21T11:51:09Z</time>
      </trkpt>
      <trkpt lat="42.1127850" lon="2.3160880">
        <ele>869.6</ele>
        <time>2019-10-21T11:51:10Z</time>
      </trkpt>
      <trkpt lat="42.1127850" lon="2.3160880">
        <ele>869.8</ele>
        <time>2019-10-21T11:51:11Z</time>
      </trkpt>
      <trkpt lat="42.1127850" lon="2.3160880">
        <ele>870.6</ele>
        <time>2019-10-21T11:51:12Z</time>
      </trkpt>
      <trkpt lat="42.1127850" lon="2.3160880">
        <ele>870.6</ele>
        <time>2019-10-21T11:51:13Z</time>
      </trkpt>
      <trkpt lat="42.1128010" lon="2.3161060">
        <ele>871.0</ele>
        <time>2019-10-21T11:51:14Z</time>
      </trkpt>
      <trkpt lat="42.1128170" lon="2.3161240">
        <ele>871.0</ele>
        <time>2019-10-21T11:51:15Z</time>
      </trkpt>
      <trkpt lat="42.1128330" lon="2.3161410">
        <ele>871.0</ele>
        <time>2019-10-21T11:51:16Z</time>
      </trkpt>
      <trkpt lat="42.1128490" lon="2.3161590">
        <ele>871.4</ele>
        <time>2019-10-21T11:51:17Z</time>
      </trkpt>
      <trkpt lat="42.1128650" lon="2.3161770">
        <ele>871.4</ele>
        <time>2019-10-21T11:51:18Z</time>
      </trkpt>
      <trkpt lat="42.1128680" lon="2.3161340">
        <ele>872.4</ele>
        <time>2019-10-21T11:51:19Z</time>
      </trkpt>
      <trkpt lat="42.1128710" lon="2.3160900">
        <ele>872.4</ele>
        <time>2019-10-21T11:51:20Z</time>
      </trkpt>
      <trkpt lat="42.1128750" lon="2.3160470">
        <ele>873.2</ele>
        <time>2019-10-21T11:51:21Z</time>
      </trkpt>
      <trkpt lat="42.1128780" lon="2.3160040">
        <ele>873.2</ele>
        <time>2019-10-21T11:51:22Z</time>
      </trkpt>
      <trkpt lat="42.1128810" lon="2.3159600">
        <ele>873.4</ele>
        <time>2019-10-21T11:51:23Z</time>
      </trkpt>
      <trkpt lat="42.1128840" lon="2.3159170">
        <ele>873.0</ele>
        <time>2019-10-21T11:51:24Z</time>
      </trkpt>
      <trkpt lat="42.1128810" lon="2.3158930">
        <ele>872.6</ele>
        <time>2019-10-21T11:51:25Z</time>
      </trkpt>
      <trkpt lat="42.1128770" lon="2.3158690">
        <ele>873.2</ele>
        <time>2019-10-21T11:51:26Z</time>
      </trkpt>
      <trkpt lat="42.1128740" lon="2.3158450">
        <ele>872.2</ele>
        <time>2019-10-21T11:51:27Z</time>
      </trkpt>
      <trkpt lat="42.1128600" lon="2.3157230">
        <ele>871.8</ele>
        <time>2019-10-21T11:51:28Z</time>
      </trkpt>
      <trkpt lat="42.1128560" lon="2.3156730">
        <ele>871.4</ele>
        <time>2019-10-21T11:51:29Z</time>
      </trkpt>
      <trkpt lat="42.1128520" lon="2.3156220">
        <ele>870.6</ele>
        <time>2019-10-21T11:51:30Z</time>
      </trkpt>
      <trkpt lat="42.1128520" lon="2.3156000">
        <ele>869.6</ele>
        <time>2019-10-21T11:51:31Z</time>
      </trkpt>
      <trkpt lat="42.1128520" lon="2.3155780">
        <ele>869.8</ele>
        <time>2019-10-21T11:51:32Z</time>
      </trkpt>
      <trkpt lat="42.1128520" lon="2.3155560">
        <ele>869.2</ele>
        <time>2019-10-21T11:51:33Z</time>
      </trkpt>
      <trkpt lat="42.1128450" lon="2.3154530">
        <ele>869.4</ele>
        <time>2019-10-21T11:51:34Z</time>
      </trkpt>
      <trkpt lat="42.1128400" lon="2.3154150">
        <ele>868.6</ele>
        <time>2019-10-21T11:51:35Z</time>
      </trkpt>
      <trkpt lat="42.1128340" lon="2.3153770">
        <ele>868.6</ele>
        <time>2019-10-21T11:51:36Z</time>
      </trkpt>
      <trkpt lat="42.1128280" lon="2.3153390">
        <ele>867.8</ele>
        <time>2019-10-21T11:51:37Z</time>
      </trkpt>
      <trkpt lat="42.1128250" lon="2.3152660">
        <ele>867.6</ele>
        <time>2019-10-21T11:51:38Z</time>
      </trkpt>
      <trkpt lat="42.1128220" lon="2.3151940">
        <ele>866.6</ele>
        <time>2019-10-21T11:51:39Z</time>
      </trkpt>
      <trkpt lat="42.1128240" lon="2.3151720">
        <ele>866.4</ele>
        <time>2019-10-21T11:51:40Z</time>
      </trkpt>
      <trkpt lat="42.1128260" lon="2.3151500">
        <ele>866.2</ele>
        <time>2019-10-21T11:51:41Z</time>
      </trkpt>
      <trkpt lat="42.1128280" lon="2.3151280">
        <ele>866.2</ele>
        <time>2019-10-21T11:51:42Z</time>
      </trkpt>
      <trkpt lat="42.1128390" lon="2.3150400">
        <ele>865.6</ele>
        <time>2019-10-21T11:51:43Z</time>
      </trkpt>
      <trkpt lat="42.1128440" lon="2.3150180">
        <ele>865.8</ele>
        <time>2019-10-21T11:51:44Z</time>
      </trkpt>
      <trkpt lat="42.1128490" lon="2.3149960">
        <ele>865.4</ele>
        <time>2019-10-21T11:51:45Z</time>
      </trkpt>
      <trkpt lat="42.1128690" lon="2.3149080">
        <ele>865.2</ele>
        <time>2019-10-21T11:51:46Z</time>
      </trkpt>
      <trkpt lat="42.1128740" lon="2.3148850">
        <ele>864.8</ele>
        <time>2019-10-21T11:51:47Z</time>
      </trkpt>
      <trkpt lat="42.1128800" lon="2.3148630">
        <ele>864.2</ele>
        <time>2019-10-21T11:51:48Z</time>
      </trkpt>
      <trkpt lat="42.1128970" lon="2.3147950">
        <ele>864.0</ele>
        <time>2019-10-21T11:51:49Z</time>
      </trkpt>
      <trkpt lat="42.1128970" lon="2.3147950">
        <ele>863.6</ele>
        <time>2019-10-21T11:51:50Z</time>
      </trkpt>
      <trkpt lat="42.1128970" lon="2.3147950">
        <ele>864.2</ele>
        <time>2019-10-21T11:51:51Z</time>
      </trkpt>
      <trkpt lat="42.1128970" lon="2.3147950">
        <ele>864.0</ele>
        <time>2019-10-21T11:51:52Z</time>
      </trkpt>
      <trkpt lat="42.1128970" lon="2.3147950">
        <ele>864.4</ele>
        <time>2019-10-21T11:51:53Z</time>
      </trkpt>
      <trkpt lat="42.1128970" lon="2.3147950">
        <ele>864.0</ele>
        <time>2019-10-21T11:51:54Z</time>
      </trkpt>
      <trkpt lat="42.1129350" lon="2.3147820">
        <ele>864.6</ele>
        <time>2019-10-21T11:51:55Z</time>
      </trkpt>
      <trkpt lat="42.1129740" lon="2.3147680">
        <ele>864.6</ele>
        <time>2019-10-21T11:51:56Z</time>
      </trkpt>
      <trkpt lat="42.1130120" lon="2.3147550">
        <ele>865.2</ele>
        <time>2019-10-21T11:51:57Z</time>
      </trkpt>
      <trkpt lat="42.1130450" lon="2.3147450">
        <ele>865.4</ele>
        <time>2019-10-21T11:51:58Z</time>
      </trkpt>
      <trkpt lat="42.1130770" lon="2.3147350">
        <ele>865.8</ele>
        <time>2019-10-21T11:51:59Z</time>
      </trkpt>
      <trkpt lat="42.1131100" lon="2.3147250">
        <ele>865.8</ele>
        <time>2019-10-21T11:52:00Z</time>
      </trkpt>
      <trkpt lat="42.1131400" lon="2.3147090">
        <ele>866.4</ele>
        <time>2019-10-21T11:52:01Z</time>
      </trkpt>
      <trkpt lat="42.1131700" lon="2.3146930">
        <ele>866.8</ele>
        <time>2019-10-21T11:52:02Z</time>
      </trkpt>
      <trkpt lat="42.1131990" lon="2.3146760">
        <ele>867.0</ele>
        <time>2019-10-21T11:52:03Z</time>
      </trkpt>
      <trkpt lat="42.1132290" lon="2.3146600">
        <ele>867.4</ele>
        <time>2019-10-21T11:52:04Z</time>
      </trkpt>
      <trkpt lat="42.1132590" lon="2.3146440">
        <ele>867.4</ele>
        <time>2019-10-21T11:52:05Z</time>
      </trkpt>
      <trkpt lat="42.1133370" lon="2.3146000">
        <ele>867.8</ele>
        <time>2019-10-21T11:52:06Z</time>
      </trkpt>
      <trkpt lat="42.1133680" lon="2.3145900">
        <ele>868.2</ele>
        <time>2019-10-21T11:52:07Z</time>
      </trkpt>
      <trkpt lat="42.1133990" lon="2.3145810">
        <ele>869.0</ele>
        <time>2019-10-21T11:52:08Z</time>
      </trkpt>
      <trkpt lat="42.1134300" lon="2.3145720">
        <ele>869.2</ele>
        <time>2019-10-21T11:52:09Z</time>
      </trkpt>
      <trkpt lat="42.1134610" lon="2.3145620">
        <ele>869.8</ele>
        <time>2019-10-21T11:52:10Z</time>
      </trkpt>
      <trkpt lat="42.1134920" lon="2.3145530">
        <ele>870.0</ele>
        <time>2019-10-21T11:52:11Z</time>
      </trkpt>
      <trkpt lat="42.1135230" lon="2.3145500">
        <ele>870.0</ele>
        <time>2019-10-21T11:52:12Z</time>
      </trkpt>
      <trkpt lat="42.1135550" lon="2.3145480">
        <ele>869.2</ele>
        <time>2019-10-21T11:52:13Z</time>
      </trkpt>
      <trkpt lat="42.1135860" lon="2.3145450">
        <ele>869.2</ele>
        <time>2019-10-21T11:52:14Z</time>
      </trkpt>
      <trkpt lat="42.1136060" lon="2.3145410">
        <ele>869.6</ele>
        <time>2019-10-21T11:52:15Z</time>
      </trkpt>
      <trkpt lat="42.1136260" lon="2.3145380">
        <ele>869.2</ele>
        <time>2019-10-21T11:52:16Z</time>
      </trkpt>
      <trkpt lat="42.1136460" lon="2.3145340">
        <ele>869.2</ele>
        <time>2019-10-21T11:52:17Z</time>
      </trkpt>
      <trkpt lat="42.1137220" lon="2.3145020">
        <ele>867.8</ele>
        <time>2019-10-21T11:52:18Z</time>
      </trkpt>
      <trkpt lat="42.1137390" lon="2.3144820">
        <ele>867.8</ele>
        <time>2019-10-21T11:52:19Z</time>
      </trkpt>
      <trkpt lat="42.1137550" lon="2.3144610">
        <ele>867.4</ele>
        <time>2019-10-21T11:52:20Z</time>
      </trkpt>
      <trkpt lat="42.1138030" lon="2.3143990">
        <ele>867.2</ele>
        <time>2019-10-21T11:52:21Z</time>
      </trkpt>
      <trkpt lat="42.1138030" lon="2.3143990">
        <ele>866.8</ele>
        <time>2019-10-21T11:52:22Z</time>
      </trkpt>
      <trkpt lat="42.1138030" lon="2.3143990">
        <ele>866.4</ele>
        <time>2019-10-21T11:52:23Z</time>
      </trkpt>
      <trkpt lat="42.1138850" lon="2.3142930">
        <ele>866.0</ele>
        <time>2019-10-21T11:52:24Z</time>
      </trkpt>
      <trkpt lat="42.1138850" lon="2.3142930">
        <ele>865.6</ele>
        <time>2019-10-21T11:52:25Z</time>
      </trkpt>
      <trkpt lat="42.1138850" lon="2.3142930">
        <ele>864.8</ele>
        <time>2019-10-21T11:52:26Z</time>
      </trkpt>
      <trkpt lat="42.1139130" lon="2.3142700">
        <ele>864.0</ele>
        <time>2019-10-21T11:52:27Z</time>
      </trkpt>
      <trkpt lat="42.1139400" lon="2.3142460">
        <ele>863.6</ele>
        <time>2019-10-21T11:52:28Z</time>
      </trkpt>
      <trkpt lat="42.1139680" lon="2.3142230">
        <ele>863.2</ele>
        <time>2019-10-21T11:52:29Z</time>
      </trkpt>
      <trkpt lat="42.1140030" lon="2.3142200">
        <ele>863.8</ele>
        <time>2019-10-21T11:52:30Z</time>
      </trkpt>
      <trkpt lat="42.1140380" lon="2.3142170">
        <ele>863.6</ele>
        <time>2019-10-21T11:52:31Z</time>
      </trkpt>
      <trkpt lat="42.1140730" lon="2.3142140">
        <ele>864.2</ele>
        <time>2019-10-21T11:52:32Z</time>
      </trkpt>
      <trkpt lat="42.1140910" lon="2.3142100">
        <ele>863.6</ele>
        <time>2019-10-21T11:52:33Z</time>
      </trkpt>
      <trkpt lat="42.1141090" lon="2.3142060">
        <ele>864.0</ele>
        <time>2019-10-21T11:52:34Z</time>
      </trkpt>
      <trkpt lat="42.1141270" lon="2.3142020">
        <ele>863.8</ele>
        <time>2019-10-21T11:52:35Z</time>
      </trkpt>
      <trkpt lat="42.1142060" lon="2.3141700">
        <ele>863.8</ele>
        <time>2019-10-21T11:52:36Z</time>
      </trkpt>
      <trkpt lat="42.1142320" lon="2.3141520">
        <ele>863.6</ele>
        <time>2019-10-21T11:52:37Z</time>
      </trkpt>
      <trkpt lat="42.1142570" lon="2.3141330">
        <ele>863.4</ele>
        <time>2019-10-21T11:52:38Z</time>
      </trkpt>
      <trkpt lat="42.1142830" lon="2.3141140">
        <ele>863.2</ele>
        <time>2019-10-21T11:52:39Z</time>
      </trkpt>
      <trkpt lat="42.1142970" lon="2.3141030">
        <ele>863.0</ele>
        <time>2019-10-21T11:52:40Z</time>
      </trkpt>
      <trkpt lat="42.1143100" lon="2.3140930">
        <ele>862.8</ele>
        <time>2019-10-21T11:52:41Z</time>
      </trkpt>
      <trkpt lat="42.1143240" lon="2.3140820">
        <ele>863.0</ele>
        <time>2019-10-21T11:52:42Z</time>
      </trkpt>
      <trkpt lat="42.1143370" lon="2.3140710">
        <ele>863.0</ele>
        <time>2019-10-21T11:52:43Z</time>
      </trkpt>
      <trkpt lat="42.1143510" lon="2.3140600">
        <ele>863.2</ele>
        <time>2019-10-21T11:52:44Z</time>
      </trkpt>
      <trkpt lat="42.1143640" lon="2.3140500">
        <ele>863.0</ele>
        <time>2019-10-21T11:52:45Z</time>
      </trkpt>
      <trkpt lat="42.1143780" lon="2.3140390">
        <ele>862.2</ele>
        <time>2019-10-21T11:52:46Z</time>
      </trkpt>
      <trkpt lat="42.1144040" lon="2.3140080">
        <ele>861.6</ele>
        <time>2019-10-21T11:52:47Z</time>
      </trkpt>
      <trkpt lat="42.1144310" lon="2.3139780">
        <ele>861.0</ele>
        <time>2019-10-21T11:52:48Z</time>
      </trkpt>
      <trkpt lat="42.1144570" lon="2.3139470">
        <ele>861.4</ele>
        <time>2019-10-21T11:52:49Z</time>
      </trkpt>
      <trkpt lat="42.1144750" lon="2.3139370">
        <ele>861.2</ele>
        <time>2019-10-21T11:52:50Z</time>
      </trkpt>
      <trkpt lat="42.1144920" lon="2.3139280">
        <ele>860.4</ele>
        <time>2019-10-21T11:52:51Z</time>
      </trkpt>
      <trkpt lat="42.1145100" lon="2.3139180">
        <ele>860.0</ele>
        <time>2019-10-21T11:52:52Z</time>
      </trkpt>
      <trkpt lat="42.1145780" lon="2.3138850">
        <ele>860.2</ele>
        <time>2019-10-21T11:52:53Z</time>
      </trkpt>
      <trkpt lat="42.1145930" lon="2.3138820">
        <ele>860.2</ele>
        <time>2019-10-21T11:52:54Z</time>
      </trkpt>
      <trkpt lat="42.1146090" lon="2.3138780">
        <ele>861.2</ele>
        <time>2019-10-21T11:52:55Z</time>
      </trkpt>
      <trkpt lat="42.1146560" lon="2.3138670">
        <ele>861.2</ele>
        <time>2019-10-21T11:52:56Z</time>
      </trkpt>
      <trkpt lat="42.1146560" lon="2.3138670">
        <ele>862.0</ele>
        <time>2019-10-21T11:52:57Z</time>
      </trkpt>
      <trkpt lat="42.1146560" lon="2.3138670">
        <ele>862.0</ele>
        <time>2019-10-21T11:52:58Z</time>
      </trkpt>
      <trkpt lat="42.1147550" lon="2.3138570">
        <ele>862.6</ele>
        <time>2019-10-21T11:52:59Z</time>
      </trkpt>
      <trkpt lat="42.1147550" lon="2.3138570">
        <ele>862.4</ele>
        <time>2019-10-21T11:53:00Z</time>
      </trkpt>
      <trkpt lat="42.1147550" lon="2.3138570">
        <ele>863.0</ele>
        <time>2019-10-21T11:53:01Z</time>
      </trkpt>
      <trkpt lat="42.1148440" lon="2.3137770">
        <ele>862.4</ele>
        <time>2019-10-21T11:53:02Z</time>
      </trkpt>
      <trkpt lat="42.1148440" lon="2.3137770">
        <ele>863.2</ele>
        <time>2019-10-21T11:53:03Z</time>
      </trkpt>
      <trkpt lat="42.1148440" lon="2.3137770">
        <ele>863.0</ele>
        <time>2019-10-21T11:53:04Z</time>
      </trkpt>
      <trkpt lat="42.1148660" lon="2.3137570">
        <ele>863.6</ele>
        <time>2019-10-21T11:53:05Z</time>
      </trkpt>
      <trkpt lat="42.1148880" lon="2.3137380">
        <ele>863.6</ele>
        <time>2019-10-21T11:53:06Z</time>
      </trkpt>
      <trkpt lat="42.1149090" lon="2.3137180">
        <ele>864.4</ele>
        <time>2019-10-21T11:53:07Z</time>
      </trkpt>
      <trkpt lat="42.1149310" lon="2.3136980">
        <ele>864.4</ele>
        <time>2019-10-21T11:53:08Z</time>
      </trkpt>
      <trkpt lat="42.1149610" lon="2.3136780">
        <ele>865.0</ele>
        <time>2019-10-21T11:53:09Z</time>
      </trkpt>
      <trkpt lat="42.1149900" lon="2.3136580">
        <ele>865.0</ele>
        <time>2019-10-21T11:53:10Z</time>
      </trkpt>
      <trkpt lat="42.1150200" lon="2.3136380">
        <ele>865.4</ele>
        <time>2019-10-21T11:53:11Z</time>
      </trkpt>
      <trkpt lat="42.1150360" lon="2.3136430">
        <ele>865.4</ele>
        <time>2019-10-21T11:53:12Z</time>
      </trkpt>
      <trkpt lat="42.1150520" lon="2.3136480">
        <ele>866.0</ele>
        <time>2019-10-21T11:53:13Z</time>
      </trkpt>
      <trkpt lat="42.1150680" lon="2.3136530">
        <ele>866.0</ele>
        <time>2019-10-21T11:53:14Z</time>
      </trkpt>
      <trkpt lat="42.1151300" lon="2.3137010">
        <ele>866.6</ele>
        <time>2019-10-21T11:53:15Z</time>
      </trkpt>
      <trkpt lat="42.1151430" lon="2.3137340">
        <ele>866.6</ele>
        <time>2019-10-21T11:53:16Z</time>
      </trkpt>
      <trkpt lat="42.1151570" lon="2.3137670">
        <ele>867.0</ele>
        <time>2019-10-21T11:53:17Z</time>
      </trkpt>
      <trkpt lat="42.1151700" lon="2.3138000">
        <ele>867.2</ele>
        <time>2019-10-21T11:53:18Z</time>
      </trkpt>
      <trkpt lat="42.1151730" lon="2.3138160">
        <ele>867.8</ele>
        <time>2019-10-21T11:53:19Z</time>
      </trkpt>
      <trkpt lat="42.1151760" lon="2.3138320">
        <ele>868.0</ele>
        <time>2019-10-21T11:53:20Z</time>
      </trkpt>
      <trkpt lat="42.1151780" lon="2.3138480">
        <ele>868.4</ele>
        <time>2019-10-21T11:53:21Z</time>
      </trkpt>
      <trkpt lat="42.1151810" lon="2.3138640">
        <ele>868.6</ele>
        <time>2019-10-21T11:53:22Z</time>
      </trkpt>
      <trkpt lat="42.1151920" lon="2.3139290">
        <ele>869.0</ele>
        <time>2019-10-21T11:53:23Z</time>
      </trkpt>
      <trkpt lat="42.1151920" lon="2.3139290">
        <ele>869.0</ele>
        <time>2019-10-21T11:53:24Z</time>
      </trkpt>
      <trkpt lat="42.1151920" lon="2.3139290">
        <ele>869.2</ele>
        <time>2019-10-21T11:53:25Z</time>
      </trkpt>
      <trkpt lat="42.1152000" lon="2.3139710">
        <ele>869.2</ele>
        <time>2019-10-21T11:53:26Z</time>
      </trkpt>
      <trkpt lat="42.1152070" lon="2.3140120">
        <ele>869.0</ele>
        <time>2019-10-21T11:53:27Z</time>
      </trkpt>
      <trkpt lat="42.1152150" lon="2.3140540">
        <ele>869.0</ele>
        <time>2019-10-21T11:53:28Z</time>
      </trkpt>
      <trkpt lat="42.1152280" lon="2.3140570">
        <ele>867.6</ele>
        <time>2019-10-21T11:53:29Z</time>
      </trkpt>
      <trkpt lat="42.1152400" lon="2.3140600">
        <ele>868.0</ele>
        <time>2019-10-21T11:53:30Z</time>
      </trkpt>
      <trkpt lat="42.1152530" lon="2.3140630">
        <ele>868.2</ele>
        <time>2019-10-21T11:53:31Z</time>
      </trkpt>
      <trkpt lat="42.1152650" lon="2.3140660">
        <ele>869.0</ele>
        <time>2019-10-21T11:53:32Z</time>
      </trkpt>
      <trkpt lat="42.1153390" lon="2.3140810">
        <ele>869.0</ele>
        <time>2019-10-21T11:53:33Z</time>
      </trkpt>
      <trkpt lat="42.1153640" lon="2.3140830">
        <ele>870.0</ele>
        <time>2019-10-21T11:53:34Z</time>
      </trkpt>
      <trkpt lat="42.1153900" lon="2.3140850">
        <ele>870.2</ele>
        <time>2019-10-21T11:53:35Z</time>
      </trkpt>
      <trkpt lat="42.1154150" lon="2.3140880">
        <ele>870.6</ele>
        <time>2019-10-21T11:53:36Z</time>
      </trkpt>
      <trkpt lat="42.1154400" lon="2.3140900">
        <ele>871.0</ele>
        <time>2019-10-21T11:53:37Z</time>
      </trkpt>
      <trkpt lat="42.1154650" lon="2.3140920">
        <ele>871.2</ele>
        <time>2019-10-21T11:53:38Z</time>
      </trkpt>
      <trkpt lat="42.1155430" lon="2.3141090">
        <ele>871.2</ele>
        <time>2019-10-21T11:53:39Z</time>
      </trkpt>
      <trkpt lat="42.1155740" lon="2.3141200">
        <ele>871.4</ele>
        <time>2019-10-21T11:53:40Z</time>
      </trkpt>
      <trkpt lat="42.1156040" lon="2.3141320">
        <ele>871.2</ele>
        <time>2019-10-21T11:53:41Z</time>
      </trkpt>
      <trkpt lat="42.1156350" lon="2.3141430">
        <ele>871.4</ele>
        <time>2019-10-21T11:53:42Z</time>
      </trkpt>
      <trkpt lat="42.1156660" lon="2.3141550">
        <ele>870.8</ele>
        <time>2019-10-21T11:53:43Z</time>
      </trkpt>
      <trkpt lat="42.1157220" lon="2.3142010">
        <ele>871.0</ele>
        <time>2019-10-21T11:53:44Z</time>
      </trkpt>
      <trkpt lat="42.1157220" lon="2.3142010">
        <ele>871.4</ele>
        <time>2019-10-21T11:53:45Z</time>
      </trkpt>
      <trkpt lat="42.1157220" lon="2.3142010">
        <ele>871.8</ele>
        <time>2019-10-21T11:53:46Z</time>
      </trkpt>
      <trkpt lat="42.1157740" lon="2.3143210">
        <ele>872.6</ele>
        <time>2019-10-21T11:53:47Z</time>
      </trkpt>
      <trkpt lat="42.1157740" lon="2.3143210">
        <ele>873.2</ele>
        <time>2019-10-21T11:53:48Z</time>
      </trkpt>
      <trkpt lat="42.1157740" lon="2.3143210">
        <ele>873.8</ele>
        <time>2019-10-21T11:53:49Z</time>
      </trkpt>
      <trkpt lat="42.1157930" lon="2.3144580">
        <ele>874.4</ele>
        <time>2019-10-21T11:53:50Z</time>
      </trkpt>
      <trkpt lat="42.1157930" lon="2.3144580">
        <ele>875.2</ele>
        <time>2019-10-21T11:53:51Z</time>
      </trkpt>
      <trkpt lat="42.1157930" lon="2.3144580">
        <ele>875.8</ele>
        <time>2019-10-21T11:53:52Z</time>
      </trkpt>
      <trkpt lat="42.1158040" lon="2.3144950">
        <ele>876.2</ele>
        <time>2019-10-21T11:53:53Z</time>
      </trkpt>
      <trkpt lat="42.1158150" lon="2.3145330">
        <ele>876.4</ele>
        <time>2019-10-21T11:53:54Z</time>
      </trkpt>
      <trkpt lat="42.1158250" lon="2.3145700">
        <ele>876.4</ele>
        <time>2019-10-21T11:53:55Z</time>
      </trkpt>
      <trkpt lat="42.1158360" lon="2.3146080">
        <ele>876.6</ele>
        <time>2019-10-21T11:53:56Z</time>
      </trkpt>
      <trkpt lat="42.1158410" lon="2.3146450">
        <ele>876.8</ele>
        <time>2019-10-21T11:53:57Z</time>
      </trkpt>
      <trkpt lat="42.1158470" lon="2.3146820">
        <ele>877.6</ele>
        <time>2019-10-21T11:53:58Z</time>
      </trkpt>
      <trkpt lat="42.1158520" lon="2.3147200">
        <ele>878.0</ele>
        <time>2019-10-21T11:53:59Z</time>
      </trkpt>
      <trkpt lat="42.1158570" lon="2.3147570">
        <ele>878.8</ele>
        <time>2019-10-21T11:54:00Z</time>
      </trkpt>
      <trkpt lat="42.1158470" lon="2.3147870">
        <ele>879.4</ele>
        <time>2019-10-21T11:54:01Z</time>
      </trkpt>
      <trkpt lat="42.1158380" lon="2.3148170">
        <ele>880.0</ele>
        <time>2019-10-21T11:54:02Z</time>
      </trkpt>
      <trkpt lat="42.1158280" lon="2.3148470">
        <ele>880.4</ele>
        <time>2019-10-21T11:54:03Z</time>
      </trkpt>
      <trkpt lat="42.1158180" lon="2.3148770">
        <ele>881.0</ele>
        <time>2019-10-21T11:54:04Z</time>
      </trkpt>
      <trkpt lat="42.1158090" lon="2.3149060">
        <ele>881.0</ele>
        <time>2019-10-21T11:54:05Z</time>
      </trkpt>
      <trkpt lat="42.1157990" lon="2.3149360">
        <ele>881.2</ele>
        <time>2019-10-21T11:54:06Z</time>
      </trkpt>
      <trkpt lat="42.1157900" lon="2.3149650">
        <ele>881.4</ele>
        <time>2019-10-21T11:54:07Z</time>
      </trkpt>
      <trkpt lat="42.1157800" lon="2.3149940">
        <ele>881.6</ele>
        <time>2019-10-21T11:54:08Z</time>
      </trkpt>
      <trkpt lat="42.1157680" lon="2.3150260">
        <ele>881.6</ele>
        <time>2019-10-21T11:54:09Z</time>
      </trkpt>
      <trkpt lat="42.1157560" lon="2.3150580">
        <ele>881.6</ele>
        <time>2019-10-21T11:54:10Z</time>
      </trkpt>
      <trkpt lat="42.1157430" lon="2.3150900">
        <ele>881.6</ele>
        <time>2019-10-21T11:54:11Z</time>
      </trkpt>
      <trkpt lat="42.1157310" lon="2.3151220">
        <ele>881.6</ele>
        <time>2019-10-21T11:54:12Z</time>
      </trkpt>
      <trkpt lat="42.1157280" lon="2.3151490">
        <ele>882.6</ele>
        <time>2019-10-21T11:54:13Z</time>
      </trkpt>
      <trkpt lat="42.1157250" lon="2.3151760">
        <ele>883.0</ele>
        <time>2019-10-21T11:54:14Z</time>
      </trkpt>
      <trkpt lat="42.1157230" lon="2.3152020">
        <ele>883.8</ele>
        <time>2019-10-21T11:54:15Z</time>
      </trkpt>
      <trkpt lat="42.1157200" lon="2.3152290">
        <ele>884.0</ele>
        <time>2019-10-21T11:54:16Z</time>
      </trkpt>
      <trkpt lat="42.1157170" lon="2.3152560">
        <ele>884.8</ele>
        <time>2019-10-21T11:54:17Z</time>
      </trkpt>
      <trkpt lat="42.1157240" lon="2.3152820">
        <ele>885.2</ele>
        <time>2019-10-21T11:54:18Z</time>
      </trkpt>
      <trkpt lat="42.1157300" lon="2.3153080">
        <ele>885.4</ele>
        <time>2019-10-21T11:54:19Z</time>
      </trkpt>
      <trkpt lat="42.1157370" lon="2.3153330">
        <ele>885.6</ele>
        <time>2019-10-21T11:54:20Z</time>
      </trkpt>
      <trkpt lat="42.1157430" lon="2.3153590">
        <ele>885.8</ele>
        <time>2019-10-21T11:54:21Z</time>
      </trkpt>
      <trkpt lat="42.1157500" lon="2.3153850">
        <ele>885.2</ele>
        <time>2019-10-21T11:54:22Z</time>
      </trkpt>
      <trkpt lat="42.1157610" lon="2.3154030">
        <ele>884.8</ele>
        <time>2019-10-21T11:54:23Z</time>
      </trkpt>
      <trkpt lat="42.1157730" lon="2.3154200">
        <ele>884.6</ele>
        <time>2019-10-21T11:54:24Z</time>
      </trkpt>
      <trkpt lat="42.1157840" lon="2.3154380">
        <ele>884.4</ele>
        <time>2019-10-21T11:54:25Z</time>
      </trkpt>
      <trkpt lat="42.1158180" lon="2.3154920">
        <ele>883.4</ele>
        <time>2019-10-21T11:54:26Z</time>
      </trkpt>
      <trkpt lat="42.1158180" lon="2.3154920">
        <ele>883.2</ele>
        <time>2019-10-21T11:54:27Z</time>
      </trkpt>
      <trkpt lat="42.1158180" lon="2.3154920">
        <ele>883.6</ele>
        <time>2019-10-21T11:54:28Z</time>
      </trkpt>
      <trkpt lat="42.1158620" lon="2.3156030">
        <ele>883.6</ele>
        <time>2019-10-21T11:54:29Z</time>
      </trkpt>
      <trkpt lat="42.1158620" lon="2.3156030">
        <ele>884.6</ele>
        <time>2019-10-21T11:54:30Z</time>
      </trkpt>
      <trkpt lat="42.1158620" lon="2.3156030">
        <ele>884.6</ele>
        <time>2019-10-21T11:54:31Z</time>
      </trkpt>
      <trkpt lat="42.1158690" lon="2.3156230">
        <ele>885.0</ele>
        <time>2019-10-21T11:54:32Z</time>
      </trkpt>
      <trkpt lat="42.1158770" lon="2.3156430">
        <ele>884.0</ele>
        <time>2019-10-21T11:54:33Z</time>
      </trkpt>
      <trkpt lat="42.1158840" lon="2.3156630">
        <ele>884.2</ele>
        <time>2019-10-21T11:54:34Z</time>
      </trkpt>
      <trkpt lat="42.1159130" lon="2.3157420">
        <ele>883.6</ele>
        <time>2019-10-21T11:54:35Z</time>
      </trkpt>
      <trkpt lat="42.1159200" lon="2.3157610">
        <ele>884.4</ele>
        <time>2019-10-21T11:54:36Z</time>
      </trkpt>
      <trkpt lat="42.1159280" lon="2.3157800">
        <ele>884.2</ele>
        <time>2019-10-21T11:54:37Z</time>
      </trkpt>
      <trkpt lat="42.1159450" lon="2.3158430">
        <ele>884.8</ele>
        <time>2019-10-21T11:54:38Z</time>
      </trkpt>
      <trkpt lat="42.1159490" lon="2.3158520">
        <ele>884.6</ele>
        <time>2019-10-21T11:54:39Z</time>
      </trkpt>
      <trkpt lat="42.1159530" lon="2.3158600">
        <ele>885.2</ele>
        <time>2019-10-21T11:54:40Z</time>
      </trkpt>
      <trkpt lat="42.1159760" lon="2.3158910">
        <ele>885.2</ele>
        <time>2019-10-21T11:54:41Z</time>
      </trkpt>
      <trkpt lat="42.1159880" lon="2.3158980">
        <ele>886.0</ele>
        <time>2019-10-21T11:54:42Z</time>
      </trkpt>
      <trkpt lat="42.1160000" lon="2.3159040">
        <ele>885.8</ele>
        <time>2019-10-21T11:54:43Z</time>
      </trkpt>
      <trkpt lat="42.1160120" lon="2.3159110">
        <ele>886.2</ele>
        <time>2019-10-21T11:54:44Z</time>
      </trkpt>
      <trkpt lat="42.1160710" lon="2.3159340">
        <ele>886.2</ele>
        <time>2019-10-21T11:54:45Z</time>
      </trkpt>
      <trkpt lat="42.1160820" lon="2.3159310">
        <ele>886.6</ele>
        <time>2019-10-21T11:54:46Z</time>
      </trkpt>
      <trkpt lat="42.1160940" lon="2.3159270">
        <ele>886.6</ele>
        <time>2019-10-21T11:54:47Z</time>
      </trkpt>
      <trkpt lat="42.1161050" lon="2.3159230">
        <ele>887.0</ele>
        <time>2019-10-21T11:54:48Z</time>
      </trkpt>
      <trkpt lat="42.1161770" lon="2.3158940">
        <ele>887.2</ele>
        <time>2019-10-21T11:54:49Z</time>
      </trkpt>
      <trkpt lat="42.1162040" lon="2.3158810">
        <ele>887.6</ele>
        <time>2019-10-21T11:54:50Z</time>
      </trkpt>
      <trkpt lat="42.1162300" lon="2.3158670">
        <ele>887.8</ele>
        <time>2019-10-21T11:54:51Z</time>
      </trkpt>
      <trkpt lat="42.1162560" lon="2.3158540">
        <ele>888.0</ele>
        <time>2019-10-21T11:54:52Z</time>
      </trkpt>
      <trkpt lat="42.1162850" lon="2.3158340">
        <ele>888.2</ele>
        <time>2019-10-21T11:54:53Z</time>
      </trkpt>
      <trkpt lat="42.1163150" lon="2.3158140">
        <ele>888.8</ele>
        <time>2019-10-21T11:54:54Z</time>
      </trkpt>
      <trkpt lat="42.1163440" lon="2.3157940">
        <ele>888.8</ele>
        <time>2019-10-21T11:54:55Z</time>
      </trkpt>
      <trkpt lat="42.1163730" lon="2.3157740">
        <ele>888.4</ele>
        <time>2019-10-21T11:54:56Z</time>
      </trkpt>
      <trkpt lat="42.1164020" lon="2.3157450">
        <ele>888.6</ele>
        <time>2019-10-21T11:54:57Z</time>
      </trkpt>
      <trkpt lat="42.1164320" lon="2.3157150">
        <ele>888.6</ele>
        <time>2019-10-21T11:54:58Z</time>
      </trkpt>
      <trkpt lat="42.1164610" lon="2.3156860">
        <ele>889.0</ele>
        <time>2019-10-21T11:54:59Z</time>
      </trkpt>
      <trkpt lat="42.1164910" lon="2.3156560">
        <ele>889.6</ele>
        <time>2019-10-21T11:55:00Z</time>
      </trkpt>
      <trkpt lat="42.1165200" lon="2.3156270">
        <ele>890.6</ele>
        <time>2019-10-21T11:55:01Z</time>
      </trkpt>
      <trkpt lat="42.1165880" lon="2.3155780">
        <ele>891.0</ele>
        <time>2019-10-21T11:55:02Z</time>
      </trkpt>
      <trkpt lat="42.1166100" lon="2.3155680">
        <ele>891.8</ele>
        <time>2019-10-21T11:55:03Z</time>
      </trkpt>
      <trkpt lat="42.1166320" lon="2.3155570">
        <ele>892.2</ele>
        <time>2019-10-21T11:55:04Z</time>
      </trkpt>
      <trkpt lat="42.1166540" lon="2.3155470">
        <ele>893.0</ele>
        <time>2019-10-21T11:55:05Z</time>
      </trkpt>
      <trkpt lat="42.1166760" lon="2.3155370">
        <ele>893.2</ele>
        <time>2019-10-21T11:55:06Z</time>
      </trkpt>
      <trkpt lat="42.1167130" lon="2.3155080">
        <ele>893.6</ele>
        <time>2019-10-21T11:55:07Z</time>
      </trkpt>
      <trkpt lat="42.1167500" lon="2.3154790">
        <ele>893.6</ele>
        <time>2019-10-21T11:55:08Z</time>
      </trkpt>
      <trkpt lat="42.1167870" lon="2.3154500">
        <ele>893.8</ele>
        <time>2019-10-21T11:55:09Z</time>
      </trkpt>
      <trkpt lat="42.1168240" lon="2.3154210">
        <ele>893.8</ele>
        <time>2019-10-21T11:55:10Z</time>
      </trkpt>
      <trkpt lat="42.1168610" lon="2.3153920">
        <ele>894.0</ele>
        <time>2019-10-21T11:55:11Z</time>
      </trkpt>
      <trkpt lat="42.1168820" lon="2.3153700">
        <ele>893.8</ele>
        <time>2019-10-21T11:55:12Z</time>
      </trkpt>
      <trkpt lat="42.1169030" lon="2.3153490">
        <ele>894.0</ele>
        <time>2019-10-21T11:55:13Z</time>
      </trkpt>
      <trkpt lat="42.1169230" lon="2.3153270">
        <ele>893.8</ele>
        <time>2019-10-21T11:55:14Z</time>
      </trkpt>
      <trkpt lat="42.1169440" lon="2.3153050">
        <ele>893.8</ele>
        <time>2019-10-21T11:55:15Z</time>
      </trkpt>
      <trkpt lat="42.1169620" lon="2.3152840">
        <ele>893.8</ele>
        <time>2019-10-21T11:55:16Z</time>
      </trkpt>
      <trkpt lat="42.1169790" lon="2.3152620">
        <ele>893.8</ele>
        <time>2019-10-21T11:55:17Z</time>
      </trkpt>
      <trkpt lat="42.1169970" lon="2.3152410">
        <ele>894.8</ele>
        <time>2019-10-21T11:55:18Z</time>
      </trkpt>
      <trkpt lat="42.1170140" lon="2.3152190">
        <ele>895.0</ele>
        <time>2019-10-21T11:55:19Z</time>
      </trkpt>
      <trkpt lat="42.1171130" lon="2.3151030">
        <ele>896.0</ele>
        <time>2019-10-21T11:55:20Z</time>
      </trkpt>
      <trkpt lat="42.1171310" lon="2.3150850">
        <ele>896.6</ele>
        <time>2019-10-21T11:55:21Z</time>
      </trkpt>
      <trkpt lat="42.1171490" lon="2.3150670">
        <ele>897.4</ele>
        <time>2019-10-21T11:55:22Z</time>
      </trkpt>
      <trkpt lat="42.1171670" lon="2.3150490">
        <ele>897.6</ele>
        <time>2019-10-21T11:55:23Z</time>
      </trkpt>
      <trkpt lat="42.1171850" lon="2.3150310">
        <ele>898.0</ele>
        <time>2019-10-21T11:55:24Z</time>
      </trkpt>
      <trkpt lat="42.1172290" lon="2.3150000">
        <ele>898.4</ele>
        <time>2019-10-21T11:55:25Z</time>
      </trkpt>
      <trkpt lat="42.1172720" lon="2.3149680">
        <ele>898.8</ele>
        <time>2019-10-21T11:55:26Z</time>
      </trkpt>
      <trkpt lat="42.1172720" lon="2.3149680">
        <ele>899.0</ele>
        <time>2019-10-21T11:55:27Z</time>
      </trkpt>
      <trkpt lat="42.1172720" lon="2.3149680">
        <ele>899.2</ele>
        <time>2019-10-21T11:55:28Z</time>
      </trkpt>
      <trkpt lat="42.1173550" lon="2.3149070">
        <ele>899.4</ele>
        <time>2019-10-21T11:55:29Z</time>
      </trkpt>
      <trkpt lat="42.1173550" lon="2.3149070">
        <ele>899.4</ele>
        <time>2019-10-21T11:55:30Z</time>
      </trkpt>
      <trkpt lat="42.1173840" lon="2.3148910">
        <ele>899.4</ele>
        <time>2019-10-21T11:55:31Z</time>
      </trkpt>
      <trkpt lat="42.1174120" lon="2.3148750">
        <ele>898.8</ele>
        <time>2019-10-21T11:55:32Z</time>
      </trkpt>
      <trkpt lat="42.1174410" lon="2.3148590">
        <ele>898.8</ele>
        <time>2019-10-21T11:55:33Z</time>
      </trkpt>
      <trkpt lat="42.1174690" lon="2.3148430">
        <ele>898.6</ele>
        <time>2019-10-21T11:55:34Z</time>
      </trkpt>
      <trkpt lat="42.1174980" lon="2.3148270">
        <ele>899.6</ele>
        <time>2019-10-21T11:55:35Z</time>
      </trkpt>
      <trkpt lat="42.1175720" lon="2.3147870">
        <ele>899.6</ele>
        <time>2019-10-21T11:55:36Z</time>
      </trkpt>
      <trkpt lat="42.1175990" lon="2.3147740">
        <ele>900.2</ele>
        <time>2019-10-21T11:55:37Z</time>
      </trkpt>
      <trkpt lat="42.1176250" lon="2.3147600">
        <ele>900.4</ele>
        <time>2019-10-21T11:55:38Z</time>
      </trkpt>
      <trkpt lat="42.1176520" lon="2.3147460">
        <ele>901.2</ele>
        <time>2019-10-21T11:55:39Z</time>
      </trkpt>
      <trkpt lat="42.1176680" lon="2.3147380">
        <ele>901.6</ele>
        <time>2019-10-21T11:55:40Z</time>
      </trkpt>
      <trkpt lat="42.1176850" lon="2.3147300">
        <ele>902.4</ele>
        <time>2019-10-21T11:55:41Z</time>
      </trkpt>
      <trkpt lat="42.1177010" lon="2.3147220">
        <ele>902.6</ele>
        <time>2019-10-21T11:55:42Z</time>
      </trkpt>
      <trkpt lat="42.1177690" lon="2.3146920">
        <ele>903.2</ele>
        <time>2019-10-21T11:55:43Z</time>
      </trkpt>
      <trkpt lat="42.1177890" lon="2.3146860">
        <ele>902.8</ele>
        <time>2019-10-21T11:55:44Z</time>
      </trkpt>
      <trkpt lat="42.1178080" lon="2.3146800">
        <ele>903.0</ele>
        <time>2019-10-21T11:55:45Z</time>
      </trkpt>
      <trkpt lat="42.1178830" lon="2.3146580">
        <ele>902.6</ele>
        <time>2019-10-21T11:55:46Z</time>
      </trkpt>
      <trkpt lat="42.1179010" lon="2.3146550">
        <ele>902.2</ele>
        <time>2019-10-21T11:55:47Z</time>
      </trkpt>
      <trkpt lat="42.1179190" lon="2.3146510">
        <ele>901.6</ele>
        <time>2019-10-21T11:55:48Z</time>
      </trkpt>
      <trkpt lat="42.1179890" lon="2.3146340">
        <ele>901.4</ele>
        <time>2019-10-21T11:55:49Z</time>
      </trkpt>
      <trkpt lat="42.1180060" lon="2.3146290">
        <ele>901.0</ele>
        <time>2019-10-21T11:55:50Z</time>
      </trkpt>
      <trkpt lat="42.1180230" lon="2.3146240">
        <ele>901.0</ele>
        <time>2019-10-21T11:55:51Z</time>
      </trkpt>
      <trkpt lat="42.1180870" lon="2.3146010">
        <ele>900.4</ele>
        <time>2019-10-21T11:55:52Z</time>
      </trkpt>
      <trkpt lat="42.1181000" lon="2.3145930">
        <ele>900.8</ele>
        <time>2019-10-21T11:55:53Z</time>
      </trkpt>
      <trkpt lat="42.1181130" lon="2.3145860">
        <ele>900.2</ele>
        <time>2019-10-21T11:55:54Z</time>
      </trkpt>
      <trkpt lat="42.1181260" lon="2.3145780">
        <ele>900.4</ele>
        <time>2019-10-21T11:55:55Z</time>
      </trkpt>
      <trkpt lat="42.1181940" lon="2.3145380">
        <ele>899.8</ele>
        <time>2019-10-21T11:55:56Z</time>
      </trkpt>
      <trkpt lat="42.1182100" lon="2.3145280">
        <ele>900.4</ele>
        <time>2019-10-21T11:55:57Z</time>
      </trkpt>
      <trkpt lat="42.1182260" lon="2.3145180">
        <ele>900.0</ele>
        <time>2019-10-21T11:55:58Z</time>
      </trkpt>
      <trkpt lat="42.1182730" lon="2.3144880">
        <ele>900.4</ele>
        <time>2019-10-21T11:55:59Z</time>
      </trkpt>
      <trkpt lat="42.1182730" lon="2.3144880">
        <ele>900.2</ele>
        <time>2019-10-21T11:56:00Z</time>
      </trkpt>
      <trkpt lat="42.1182730" lon="2.3144880">
        <ele>900.4</ele>
        <time>2019-10-21T11:56:01Z</time>
      </trkpt>
      <trkpt lat="42.1183750" lon="2.3144260">
        <ele>900.2</ele>
        <time>2019-10-21T11:56:02Z</time>
      </trkpt>
      <trkpt lat="42.1183750" lon="2.3144260">
        <ele>900.4</ele>
        <time>2019-10-21T11:56:03Z</time>
      </trkpt>
      <trkpt lat="42.1183750" lon="2.3144260">
        <ele>899.8</ele>
        <time>2019-10-21T11:56:04Z</time>
      </trkpt>
      <trkpt lat="42.1184050" lon="2.3143980">
        <ele>900.0</ele>
        <time>2019-10-21T11:56:05Z</time>
      </trkpt>
      <trkpt lat="42.1184340" lon="2.3143700">
        <ele>899.4</ele>
        <time>2019-10-21T11:56:06Z</time>
      </trkpt>
      <trkpt lat="42.1184640" lon="2.3143420">
        <ele>899.6</ele>
        <time>2019-10-21T11:56:07Z</time>
      </trkpt>
      <trkpt lat="42.1184790" lon="2.3143410">
        <ele>899.2</ele>
        <time>2019-10-21T11:56:08Z</time>
      </trkpt>
      <trkpt lat="42.1184950" lon="2.3143400">
        <ele>899.2</ele>
        <time>2019-10-21T11:56:09Z</time>
      </trkpt>
      <trkpt lat="42.1185100" lon="2.3143390">
        <ele>898.6</ele>
        <time>2019-10-21T11:56:10Z</time>
      </trkpt>
      <trkpt lat="42.1185550" lon="2.3143360">
        <ele>898.6</ele>
        <time>2019-10-21T11:56:11Z</time>
      </trkpt>
      <trkpt lat="42.1185550" lon="2.3143360">
        <ele>898.0</ele>
        <time>2019-10-21T11:56:12Z</time>
      </trkpt>
      <trkpt lat="42.1185550" lon="2.3143360">
        <ele>897.8</ele>
        <time>2019-10-21T11:56:13Z</time>
      </trkpt>
      <trkpt lat="42.1185920" lon="2.3143520">
        <ele>897.6</ele>
        <time>2019-10-21T11:56:14Z</time>
      </trkpt>
      <trkpt lat="42.1186280" lon="2.3143670">
        <ele>897.4</ele>
        <time>2019-10-21T11:56:15Z</time>
      </trkpt>
      <trkpt lat="42.1186650" lon="2.3143830">
        <ele>897.0</ele>
        <time>2019-10-21T11:56:16Z</time>
      </trkpt>
      <trkpt lat="42.1186650" lon="2.3143830">
        <ele>896.8</ele>
        <time>2019-10-21T11:56:17Z</time>
      </trkpt>
      <trkpt lat="42.1186650" lon="2.3143830">
        <ele>896.2</ele>
        <time>2019-10-21T11:56:18Z</time>
      </trkpt>
      <trkpt lat="42.1186650" lon="2.3143830">
        <ele>896.0</ele>
        <time>2019-10-21T11:56:19Z</time>
      </trkpt>
      <trkpt lat="42.1187600" lon="2.3144310">
        <ele>895.4</ele>
        <time>2019-10-21T11:56:20Z</time>
      </trkpt>
      <trkpt lat="42.1187600" lon="2.3144310">
        <ele>895.4</ele>
        <time>2019-10-21T11:56:21Z</time>
      </trkpt>
      <trkpt lat="42.1187600" lon="2.3144310">
        <ele>895.0</ele>
        <time>2019-10-21T11:56:22Z</time>
      </trkpt>
      <trkpt lat="42.1187910" lon="2.3144540">
        <ele>894.6</ele>
        <time>2019-10-21T11:56:23Z</time>
      </trkpt>
      <trkpt lat="42.1188220" lon="2.3144760">
        <ele>894.2</ele>
        <time>2019-10-21T11:56:24Z</time>
      </trkpt>
      <trkpt lat="42.1188530" lon="2.3144990">
        <ele>894.0</ele>
        <time>2019-10-21T11:56:25Z</time>
      </trkpt>
      <trkpt lat="42.1188650" lon="2.3145020">
        <ele>894.0</ele>
        <time>2019-10-21T11:56:26Z</time>
      </trkpt>
      <trkpt lat="42.1188780" lon="2.3145060">
        <ele>894.2</ele>
        <time>2019-10-21T11:56:27Z</time>
      </trkpt>
      <trkpt lat="42.1188900" lon="2.3145090">
        <ele>894.2</ele>
        <time>2019-10-21T11:56:28Z</time>
      </trkpt>
      <trkpt lat="42.1189020" lon="2.3145130">
        <ele>894.6</ele>
        <time>2019-10-21T11:56:29Z</time>
      </trkpt>
      <trkpt lat="42.1189510" lon="2.3145280">
        <ele>894.2</ele>
        <time>2019-10-21T11:56:30Z</time>
      </trkpt>
      <trkpt lat="42.1189510" lon="2.3145280">
        <ele>894.0</ele>
        <time>2019-10-21T11:56:31Z</time>
      </trkpt>
      <trkpt lat="42.1189510" lon="2.3145280">
        <ele>894.4</ele>
        <time>2019-10-21T11:56:32Z</time>
      </trkpt>
      <trkpt lat="42.1189840" lon="2.3145300">
        <ele>894.0</ele>
        <time>2019-10-21T11:56:33Z</time>
      </trkpt>
      <trkpt lat="42.1190170" lon="2.3145310">
        <ele>894.2</ele>
        <time>2019-10-21T11:56:34Z</time>
      </trkpt>
      <trkpt lat="42.1190500" lon="2.3145330">
        <ele>893.8</ele>
        <time>2019-10-21T11:56:35Z</time>
      </trkpt>
      <trkpt lat="42.1190760" lon="2.3145380">
        <ele>894.2</ele>
        <time>2019-10-21T11:56:36Z</time>
      </trkpt>
      <trkpt lat="42.1191010" lon="2.3145430">
        <ele>894.0</ele>
        <time>2019-10-21T11:56:37Z</time>
      </trkpt>
      <trkpt lat="42.1191270" lon="2.3145490">
        <ele>894.4</ele>
        <time>2019-10-21T11:56:38Z</time>
      </trkpt>
      <trkpt lat="42.1191520" lon="2.3145540">
        <ele>893.6</ele>
        <time>2019-10-21T11:56:39Z</time>
      </trkpt>
      <trkpt lat="42.1191920" lon="2.3145500">
        <ele>894.0</ele>
        <time>2019-10-21T11:56:40Z</time>
      </trkpt>
      <trkpt lat="42.1192320" lon="2.3145470">
        <ele>893.2</ele>
        <time>2019-10-21T11:56:41Z</time>
      </trkpt>
      <trkpt lat="42.1192720" lon="2.3145430">
        <ele>893.6</ele>
        <time>2019-10-21T11:56:42Z</time>
      </trkpt>
      <trkpt lat="42.1193010" lon="2.3145180">
        <ele>893.4</ele>
        <time>2019-10-21T11:56:43Z</time>
      </trkpt>
      <trkpt lat="42.1193290" lon="2.3144930">
        <ele>893.8</ele>
        <time>2019-10-21T11:56:44Z</time>
      </trkpt>
      <trkpt lat="42.1193580" lon="2.3144680">
        <ele>893.0</ele>
        <time>2019-10-21T11:56:45Z</time>
      </trkpt>
      <trkpt lat="42.1193690" lon="2.3144490">
        <ele>892.8</ele>
        <time>2019-10-21T11:56:46Z</time>
      </trkpt>
      <trkpt lat="42.1193810" lon="2.3144300">
        <ele>893.2</ele>
        <time>2019-10-21T11:56:47Z</time>
      </trkpt>
      <trkpt lat="42.1193920" lon="2.3144110">
        <ele>893.4</ele>
        <time>2019-10-21T11:56:48Z</time>
      </trkpt>
      <trkpt lat="42.1194330" lon="2.3143390">
        <ele>893.6</ele>
        <time>2019-10-21T11:56:49Z</time>
      </trkpt>
      <trkpt lat="42.1194400" lon="2.3143240">
        <ele>893.2</ele>
        <time>2019-10-21T11:56:50Z</time>
      </trkpt>
      <trkpt lat="42.1194460" lon="2.3143100">
        <ele>893.2</ele>
        <time>2019-10-21T11:56:51Z</time>
      </trkpt>
      <trkpt lat="42.1194530" lon="2.3142950">
        <ele>892.8</ele>
        <time>2019-10-21T11:56:52Z</time>
      </trkpt>
      <trkpt lat="42.1194930" lon="2.3142190">
        <ele>893.0</ele>
        <time>2019-10-21T11:56:53Z</time>
      </trkpt>
      <trkpt lat="42.1195070" lon="2.3142000">
        <ele>893.8</ele>
        <time>2019-10-21T11:56:54Z</time>
      </trkpt>
      <trkpt lat="42.1195210" lon="2.3141820">
        <ele>894.4</ele>
        <time>2019-10-21T11:56:55Z</time>
      </trkpt>
      <trkpt lat="42.1195350" lon="2.3141630">
        <ele>894.8</ele>
        <time>2019-10-21T11:56:56Z</time>
      </trkpt>
      <trkpt lat="42.1195490" lon="2.3141450">
        <ele>894.8</ele>
        <time>2019-10-21T11:56:57Z</time>
      </trkpt>
      <trkpt lat="42.1195690" lon="2.3141290">
        <ele>895.8</ele>
        <time>2019-10-21T11:56:58Z</time>
      </trkpt>
      <trkpt lat="42.1195900" lon="2.3141120">
        <ele>895.8</ele>
        <time>2019-10-21T11:56:59Z</time>
      </trkpt>
      <trkpt lat="42.1196100" lon="2.3140960">
        <ele>896.8</ele>
        <time>2019-10-21T11:57:00Z</time>
      </trkpt>
      <trkpt lat="42.1196300" lon="2.3140790">
        <ele>897.0</ele>
        <time>2019-10-21T11:57:01Z</time>
      </trkpt>
      <trkpt lat="42.1196500" lon="2.3140680">
        <ele>897.6</ele>
        <time>2019-10-21T11:57:02Z</time>
      </trkpt>
      <trkpt lat="42.1196700" lon="2.3140570">
        <ele>897.6</ele>
        <time>2019-10-21T11:57:03Z</time>
      </trkpt>
      <trkpt lat="42.1196900" lon="2.3140470">
        <ele>898.0</ele>
        <time>2019-10-21T11:57:04Z</time>
      </trkpt>
      <trkpt lat="42.1197100" lon="2.3140360">
        <ele>898.2</ele>
        <time>2019-10-21T11:57:05Z</time>
      </trkpt>
      <trkpt lat="42.1197300" lon="2.3140250">
        <ele>898.6</ele>
        <time>2019-10-21T11:57:06Z</time>
      </trkpt>
      <trkpt lat="42.1197520" lon="2.3140160">
        <ele>898.8</ele>
        <time>2019-10-21T11:57:07Z</time>
      </trkpt>
      <trkpt lat="42.1197740" lon="2.3140070">
        <ele>899.4</ele>
        <time>2019-10-21T11:57:08Z</time>
      </trkpt>
      <trkpt lat="42.1197950" lon="2.3139980">
        <ele>899.4</ele>
        <time>2019-10-21T11:57:09Z</time>
      </trkpt>
      <trkpt lat="42.1198170" lon="2.3139890">
        <ele>899.2</ele>
        <time>2019-10-21T11:57:10Z</time>
      </trkpt>
      <trkpt lat="42.1198300" lon="2.3139910">
        <ele>899.6</ele>
        <time>2019-10-21T11:57:11Z</time>
      </trkpt>
      <trkpt lat="42.1198430" lon="2.3139930">
        <ele>900.0</ele>
        <time>2019-10-21T11:57:12Z</time>
      </trkpt>
      <trkpt lat="42.1198560" lon="2.3139950">
        <ele>900.8</ele>
        <time>2019-10-21T11:57:13Z</time>
      </trkpt>
      <trkpt lat="42.1198690" lon="2.3139970">
        <ele>901.0</ele>
        <time>2019-10-21T11:57:14Z</time>
      </trkpt>
      <trkpt lat="42.1199200" lon="2.3140050">
        <ele>902.0</ele>
        <time>2019-10-21T11:57:15Z</time>
      </trkpt>
      <trkpt lat="42.1199200" lon="2.3140050">
        <ele>902.4</ele>
        <time>2019-10-21T11:57:16Z</time>
      </trkpt>
      <trkpt lat="42.1199200" lon="2.3140050">
        <ele>903.2</ele>
        <time>2019-10-21T11:57:17Z</time>
      </trkpt>
      <trkpt lat="42.1199200" lon="2.3140050">
        <ele>903.6</ele>
        <time>2019-10-21T11:57:18Z</time>
      </trkpt>
      <trkpt lat="42.1199200" lon="2.3140050">
        <ele>904.0</ele>
        <time>2019-10-21T11:57:19Z</time>
      </trkpt>
      <trkpt lat="42.1199200" lon="2.3140050">
        <ele>904.2</ele>
        <time>2019-10-21T11:57:20Z</time>
      </trkpt>
      <trkpt lat="42.1200220" lon="2.3140250">
        <ele>904.2</ele>
        <time>2019-10-21T11:57:21Z</time>
      </trkpt>
      <trkpt lat="42.1200220" lon="2.3140250">
        <ele>904.2</ele>
        <time>2019-10-21T11:57:22Z</time>
      </trkpt>
      <trkpt lat="42.1200220" lon="2.3140250">
        <ele>904.4</ele>
        <time>2019-10-21T11:57:23Z</time>
      </trkpt>
      <trkpt lat="42.1200220" lon="2.3140250">
        <ele>905.2</ele>
        <time>2019-10-21T11:57:24Z</time>
      </trkpt>
      <trkpt lat="42.1200580" lon="2.3140410">
        <ele>905.4</ele>
        <time>2019-10-21T11:57:25Z</time>
      </trkpt>
      <trkpt lat="42.1200930" lon="2.3140570">
        <ele>906.0</ele>
        <time>2019-10-21T11:57:26Z</time>
      </trkpt>
      <trkpt lat="42.1201290" lon="2.3140730">
        <ele>906.0</ele>
        <time>2019-10-21T11:57:27Z</time>
      </trkpt>
      <trkpt lat="42.1201430" lon="2.3140740">
        <ele>906.8</ele>
        <time>2019-10-21T11:57:28Z</time>
      </trkpt>
      <trkpt lat="42.1201570" lon="2.3140750">
        <ele>906.6</ele>
        <time>2019-10-21T11:57:29Z</time>
      </trkpt>
      <trkpt lat="42.1201710" lon="2.3140770">
        <ele>907.2</ele>
        <time>2019-10-21T11:57:30Z</time>
      </trkpt>
      <trkpt lat="42.1201850" lon="2.3140780">
        <ele>906.8</ele>
        <time>2019-10-21T11:57:31Z</time>
      </trkpt>
      <trkpt lat="42.1202400" lon="2.3140830">
        <ele>907.2</ele>
        <time>2019-10-21T11:57:32Z</time>
      </trkpt>
      <trkpt lat="42.1202400" lon="2.3140830">
        <ele>907.0</ele>
        <time>2019-10-21T11:57:33Z</time>
      </trkpt>
      <trkpt lat="42.1202400" lon="2.3140830">
        <ele>907.4</ele>
        <time>2019-10-21T11:57:34Z</time>
      </trkpt>
      <trkpt lat="42.1202640" lon="2.3140780">
        <ele>907.4</ele>
        <time>2019-10-21T11:57:35Z</time>
      </trkpt>
      <trkpt lat="42.1202880" lon="2.3140730">
        <ele>907.8</ele>
        <time>2019-10-21T11:57:36Z</time>
      </trkpt>
      <trkpt lat="42.1203110" lon="2.3140680">
        <ele>907.6</ele>
        <time>2019-10-21T11:57:37Z</time>
      </trkpt>
      <trkpt lat="42.1203350" lon="2.3140630">
        <ele>908.2</ele>
        <time>2019-10-21T11:57:38Z</time>
      </trkpt>
      <trkpt lat="42.1203770" lon="2.3140590">
        <ele>908.4</ele>
        <time>2019-10-21T11:57:39Z</time>
      </trkpt>
      <trkpt lat="42.1204180" lon="2.3140560">
        <ele>909.0</ele>
        <time>2019-10-21T11:57:40Z</time>
      </trkpt>
      <trkpt lat="42.1204600" lon="2.3140520">
        <ele>909.2</ele>
        <time>2019-10-21T11:57:41Z</time>
      </trkpt>
      <trkpt lat="42.1205010" lon="2.3140480">
        <ele>909.6</ele>
        <time>2019-10-21T11:57:42Z</time>
      </trkpt>
      <trkpt lat="42.1205520" lon="2.3140450">
        <ele>909.8</ele>
        <time>2019-10-21T11:57:43Z</time>
      </trkpt>
      <trkpt lat="42.1205720" lon="2.3140430">
        <ele>910.4</ele>
        <time>2019-10-21T11:57:44Z</time>
      </trkpt>
      <trkpt lat="42.1205930" lon="2.3140420">
        <ele>910.8</ele>
        <time>2019-10-21T11:57:45Z</time>
      </trkpt>
      <trkpt lat="42.1206130" lon="2.3140400">
        <ele>911.2</ele>
        <time>2019-10-21T11:57:46Z</time>
      </trkpt>
      <trkpt lat="42.1206570" lon="2.3140400">
        <ele>911.4</ele>
        <time>2019-10-21T11:57:47Z</time>
      </trkpt>
      <trkpt lat="42.1206730" lon="2.3140390">
        <ele>911.8</ele>
        <time>2019-10-21T11:57:48Z</time>
      </trkpt>
      <trkpt lat="42.1206890" lon="2.3140380">
        <ele>912.0</ele>
        <time>2019-10-21T11:57:49Z</time>
      </trkpt>
      <trkpt lat="42.1207050" lon="2.3140370">
        <ele>912.6</ele>
        <time>2019-10-21T11:57:50Z</time>
      </trkpt>
      <trkpt lat="42.1207390" lon="2.3140330">
        <ele>912.6</ele>
        <time>2019-10-21T11:57:51Z</time>
      </trkpt>
      <trkpt lat="42.1207540" lon="2.3140310">
        <ele>913.0</ele>
        <time>2019-10-21T11:57:52Z</time>
      </trkpt>
      <trkpt lat="42.1207700" lon="2.3140290">
        <ele>913.4</ele>
        <time>2019-10-21T11:57:53Z</time>
      </trkpt>
      <trkpt lat="42.1207850" lon="2.3140270">
        <ele>913.8</ele>
        <time>2019-10-21T11:57:54Z</time>
      </trkpt>
      <trkpt lat="42.1208010" lon="2.3140250">
        <ele>913.8</ele>
        <time>2019-10-21T11:57:55Z</time>
      </trkpt>
      <trkpt lat="42.1208390" lon="2.3140160">
        <ele>914.2</ele>
        <time>2019-10-21T11:57:56Z</time>
      </trkpt>
      <trkpt lat="42.1208540" lon="2.3140060">
        <ele>914.2</ele>
        <time>2019-10-21T11:57:57Z</time>
      </trkpt>
      <trkpt lat="42.1208700" lon="2.3139960">
        <ele>914.2</ele>
        <time>2019-10-21T11:57:58Z</time>
      </trkpt>
      <trkpt lat="42.1208850" lon="2.3139860">
        <ele>914.2</ele>
        <time>2019-10-21T11:57:59Z</time>
      </trkpt>
      <trkpt lat="42.1209000" lon="2.3139760">
        <ele>914.2</ele>
        <time>2019-10-21T11:58:00Z</time>
      </trkpt>
      <trkpt lat="42.1209260" lon="2.3139380">
        <ele>914.8</ele>
        <time>2019-10-21T11:58:01Z</time>
      </trkpt>
      <trkpt lat="42.1209350" lon="2.3139170">
        <ele>915.2</ele>
        <time>2019-10-21T11:58:02Z</time>
      </trkpt>
      <trkpt lat="42.1209440" lon="2.3138970">
        <ele>916.0</ele>
        <time>2019-10-21T11:58:03Z</time>
      </trkpt>
      <trkpt lat="42.1209530" lon="2.3138760">
        <ele>916.4</ele>
        <time>2019-10-21T11:58:04Z</time>
      </trkpt>
      <trkpt lat="42.1209620" lon="2.3138560">
        <ele>917.0</ele>
        <time>2019-10-21T11:58:05Z</time>
      </trkpt>
      <trkpt lat="42.1209720" lon="2.3137970">
        <ele>917.2</ele>
        <time>2019-10-21T11:58:06Z</time>
      </trkpt>
      <trkpt lat="42.1209760" lon="2.3137680">
        <ele>917.6</ele>
        <time>2019-10-21T11:58:07Z</time>
      </trkpt>
      <trkpt lat="42.1209810" lon="2.3137400">
        <ele>917.8</ele>
        <time>2019-10-21T11:58:08Z</time>
      </trkpt>
      <trkpt lat="42.1209850" lon="2.3137110">
        <ele>917.8</ele>
        <time>2019-10-21T11:58:09Z</time>
      </trkpt>
      <trkpt lat="42.1209890" lon="2.3136820">
        <ele>918.2</ele>
        <time>2019-10-21T11:58:10Z</time>
      </trkpt>
      <trkpt lat="42.1209930" lon="2.3136530">
        <ele>918.6</ele>
        <time>2019-10-21T11:58:11Z</time>
      </trkpt>
      <trkpt lat="42.1210150" lon="2.3136080">
        <ele>919.4</ele>
        <time>2019-10-21T11:58:12Z</time>
      </trkpt>
      <trkpt lat="42.1210280" lon="2.3135930">
        <ele>920.0</ele>
        <time>2019-10-21T11:58:13Z</time>
      </trkpt>
      <trkpt lat="42.1210410" lon="2.3135790">
        <ele>920.4</ele>
        <time>2019-10-21T11:58:14Z</time>
      </trkpt>
      <trkpt lat="42.1210540" lon="2.3135640">
        <ele>920.6</ele>
        <time>2019-10-21T11:58:15Z</time>
      </trkpt>
      <trkpt lat="42.1210670" lon="2.3135490">
        <ele>920.8</ele>
        <time>2019-10-21T11:58:16Z</time>
      </trkpt>
      <trkpt lat="42.1210800" lon="2.3135340">
        <ele>920.8</ele>
        <time>2019-10-21T11:58:17Z</time>
      </trkpt>
      <trkpt lat="42.1211050" lon="2.3135200">
        <ele>920.8</ele>
        <time>2019-10-21T11:58:18Z</time>
      </trkpt>
      <trkpt lat="42.1211310" lon="2.3135060">
        <ele>921.6</ele>
        <time>2019-10-21T11:58:19Z</time>
      </trkpt>
      <trkpt lat="42.1211560" lon="2.3134920">
        <ele>921.8</ele>
        <time>2019-10-21T11:58:20Z</time>
      </trkpt>
      <trkpt lat="42.1211820" lon="2.3134780">
        <ele>922.8</ele>
        <time>2019-10-21T11:58:21Z</time>
      </trkpt>
      <trkpt lat="42.1212070" lon="2.3134640">
        <ele>923.0</ele>
        <time>2019-10-21T11:58:22Z</time>
      </trkpt>
      <trkpt lat="42.1212580" lon="2.3134450">
        <ele>923.8</ele>
        <time>2019-10-21T11:58:23Z</time>
      </trkpt>
      <trkpt lat="42.1212760" lon="2.3134400">
        <ele>924.0</ele>
        <time>2019-10-21T11:58:24Z</time>
      </trkpt>
      <trkpt lat="42.1212940" lon="2.3134340">
        <ele>924.6</ele>
        <time>2019-10-21T11:58:25Z</time>
      </trkpt>
      <trkpt lat="42.1213120" lon="2.3134290">
        <ele>924.8</ele>
        <time>2019-10-21T11:58:26Z</time>
      </trkpt>
      <trkpt lat="42.1213530" lon="2.3134250">
        <ele>925.2</ele>
        <time>2019-10-21T11:58:27Z</time>
      </trkpt>
      <trkpt lat="42.1213670" lon="2.3134230">
        <ele>925.4</ele>
        <time>2019-10-21T11:58:28Z</time>
      </trkpt>
      <trkpt lat="42.1213800" lon="2.3134200">
        <ele>925.6</ele>
        <time>2019-10-21T11:58:29Z</time>
      </trkpt>
      <trkpt lat="42.1213940" lon="2.3134180">
        <ele>925.6</ele>
        <time>2019-10-21T11:58:30Z</time>
      </trkpt>
      <trkpt lat="42.1213940" lon="2.3134180">
        <ele>926.0</ele>
        <time>2019-10-21T11:58:31Z</time>
      </trkpt>
      <trkpt lat="42.1213940" lon="2.3134180">
        <ele>926.0</ele>
        <time>2019-10-21T11:58:32Z</time>
      </trkpt>
      <trkpt lat="42.1214950" lon="2.3134400">
        <ele>926.4</ele>
        <time>2019-10-21T11:58:33Z</time>
      </trkpt>
      <trkpt lat="42.1215270" lon="2.3134770">
        <ele>926.2</ele>
        <time>2019-10-21T11:58:34Z</time>
      </trkpt>
      <trkpt lat="42.1215550" lon="2.3134890">
        <ele>925.6</ele>
        <time>2019-10-21T11:58:35Z</time>
      </trkpt>
      <trkpt lat="42.1215810" lon="2.3134960">
        <ele>926.2</ele>
        <time>2019-10-21T11:58:36Z</time>
      </trkpt>
      <trkpt lat="42.1216060" lon="2.3135030">
        <ele>925.4</ele>
        <time>2019-10-21T11:58:37Z</time>
      </trkpt>
      <trkpt lat="42.1216290" lon="2.3135090">
        <ele>926.2</ele>
        <time>2019-10-21T11:58:38Z</time>
      </trkpt>
      <trkpt lat="42.1216510" lon="2.3135090">
        <ele>926.2</ele>
        <time>2019-10-21T11:58:39Z</time>
      </trkpt>
      <trkpt lat="42.1216800" lon="2.3135110">
        <ele>926.8</ele>
        <time>2019-10-21T11:58:40Z</time>
      </trkpt>
      <trkpt lat="42.1217120" lon="2.3135120">
        <ele>927.0</ele>
        <time>2019-10-21T11:58:41Z</time>
      </trkpt>
      <trkpt lat="42.1217400" lon="2.3135180">
        <ele>927.6</ele>
        <time>2019-10-21T11:58:42Z</time>
      </trkpt>
      <trkpt lat="42.1217660" lon="2.3135240">
        <ele>927.8</ele>
        <time>2019-10-21T11:58:43Z</time>
      </trkpt>
      <trkpt lat="42.1217910" lon="2.3135350">
        <ele>928.2</ele>
        <time>2019-10-21T11:58:44Z</time>
      </trkpt>
      <trkpt lat="42.1218260" lon="2.3135430">
        <ele>928.4</ele>
        <time>2019-10-21T11:58:45Z</time>
      </trkpt>
      <trkpt lat="42.1218580" lon="2.3135480">
        <ele>928.6</ele>
        <time>2019-10-21T11:58:46Z</time>
      </trkpt>
      <trkpt lat="42.1218870" lon="2.3135530">
        <ele>928.6</ele>
        <time>2019-10-21T11:58:47Z</time>
      </trkpt>
      <trkpt lat="42.1219180" lon="2.3135530">
        <ele>928.6</ele>
        <time>2019-10-21T11:58:48Z</time>
      </trkpt>
      <trkpt lat="42.1219490" lon="2.3135480">
        <ele>928.4</ele>
        <time>2019-10-21T11:58:49Z</time>
      </trkpt>
      <trkpt lat="42.1219800" lon="2.3135520">
        <ele>928.6</ele>
        <time>2019-10-21T11:58:50Z</time>
      </trkpt>
      <trkpt lat="42.1220100" lon="2.3135520">
        <ele>929.4</ele>
        <time>2019-10-21T11:58:51Z</time>
      </trkpt>
      <trkpt lat="42.1220390" lon="2.3135520">
        <ele>929.4</ele>
        <time>2019-10-21T11:58:52Z</time>
      </trkpt>
      <trkpt lat="42.1220640" lon="2.3135520">
        <ele>930.6</ele>
        <time>2019-10-21T11:58:53Z</time>
      </trkpt>
      <trkpt lat="42.1220950" lon="2.3135580">
        <ele>930.8</ele>
        <time>2019-10-21T11:58:54Z</time>
      </trkpt>
      <trkpt lat="42.1221240" lon="2.3135600">
        <ele>931.2</ele>
        <time>2019-10-21T11:58:55Z</time>
      </trkpt>
      <trkpt lat="42.1221500" lon="2.3135560">
        <ele>931.4</ele>
        <time>2019-10-21T11:58:56Z</time>
      </trkpt>
      <trkpt lat="42.1221730" lon="2.3135560">
        <ele>931.8</ele>
        <time>2019-10-21T11:58:57Z</time>
      </trkpt>
      <trkpt lat="42.1222010" lon="2.3135620">
        <ele>931.6</ele>
        <time>2019-10-21T11:58:58Z</time>
      </trkpt>
      <trkpt lat="42.1222240" lon="2.3135670">
        <ele>931.8</ele>
        <time>2019-10-21T11:58:59Z</time>
      </trkpt>
      <trkpt lat="42.1222450" lon="2.3135680">
        <ele>931.4</ele>
        <time>2019-10-21T11:59:00Z</time>
      </trkpt>
      <trkpt lat="42.1222640" lon="2.3135720">
        <ele>931.4</ele>
        <time>2019-10-21T11:59:01Z</time>
      </trkpt>
      <trkpt lat="42.1222640" lon="2.3135720">
        <ele>931.0</ele>
        <time>2019-10-21T11:59:02Z</time>
      </trkpt>
      <trkpt lat="42.1222980" lon="2.3135840">
        <ele>931.0</ele>
        <time>2019-10-21T11:59:03Z</time>
      </trkpt>
      <trkpt lat="42.1223320" lon="2.3135890">
        <ele>930.4</ele>
        <time>2019-10-21T11:59:04Z</time>
      </trkpt>
      <trkpt lat="42.1223480" lon="2.3135880">
        <ele>931.0</ele>
        <time>2019-10-21T11:59:05Z</time>
      </trkpt>
      <trkpt lat="42.1223630" lon="2.3135860">
        <ele>932.0</ele>
        <time>2019-10-21T11:59:06Z</time>
      </trkpt>
      <trkpt lat="42.1224050" lon="2.3135950">
        <ele>932.4</ele>
        <time>2019-10-21T11:59:07Z</time>
      </trkpt>
      <trkpt lat="42.1224260" lon="2.3135950">
        <ele>933.2</ele>
        <time>2019-10-21T11:59:08Z</time>
      </trkpt>
      <trkpt lat="42.1224470" lon="2.3135940">
        <ele>933.2</ele>
        <time>2019-10-21T11:59:09Z</time>
      </trkpt>
      <trkpt lat="42.1224680" lon="2.3135940">
        <ele>933.6</ele>
        <time>2019-10-21T11:59:10Z</time>
      </trkpt>
      <trkpt lat="42.1225120" lon="2.3135850">
        <ele>933.8</ele>
        <time>2019-10-21T11:59:11Z</time>
      </trkpt>
      <trkpt lat="42.1225310" lon="2.3135810">
        <ele>934.2</ele>
        <time>2019-10-21T11:59:12Z</time>
      </trkpt>
      <trkpt lat="42.1225490" lon="2.3135780">
        <ele>934.4</ele>
        <time>2019-10-21T11:59:13Z</time>
      </trkpt>
      <trkpt lat="42.1225790" lon="2.3135740">
        <ele>934.6</ele>
        <time>2019-10-21T11:59:14Z</time>
      </trkpt>
      <trkpt lat="42.1226090" lon="2.3135660">
        <ele>934.6</ele>
        <time>2019-10-21T11:59:15Z</time>
      </trkpt>
      <trkpt lat="42.1226390" lon="2.3135580">
        <ele>934.8</ele>
        <time>2019-10-21T11:59:16Z</time>
      </trkpt>
      <trkpt lat="42.1226680" lon="2.3135510">
        <ele>934.8</ele>
        <time>2019-10-21T11:59:17Z</time>
      </trkpt>
      <trkpt lat="42.1226940" lon="2.3135410">
        <ele>935.0</ele>
        <time>2019-10-21T11:59:18Z</time>
      </trkpt>
      <trkpt lat="42.1227210" lon="2.3135290">
        <ele>935.0</ele>
        <time>2019-10-21T11:59:19Z</time>
      </trkpt>
      <trkpt lat="42.1227550" lon="2.3135190">
        <ele>935.2</ele>
        <time>2019-10-21T11:59:20Z</time>
      </trkpt>
      <trkpt lat="42.1227610" lon="2.3135160">
        <ele>935.4</ele>
        <time>2019-10-21T11:59:21Z</time>
      </trkpt>
      <trkpt lat="42.1227680" lon="2.3135130">
        <ele>935.6</ele>
        <time>2019-10-21T11:59:22Z</time>
      </trkpt>
      <trkpt lat="42.1227740" lon="2.3135100">
        <ele>935.4</ele>
        <time>2019-10-21T11:59:23Z</time>
      </trkpt>
      <trkpt lat="42.1228410" lon="2.3134330">
        <ele>935.6</ele>
        <time>2019-10-21T11:59:24Z</time>
      </trkpt>
      <trkpt lat="42.1228580" lon="2.3134020">
        <ele>936.0</ele>
        <time>2019-10-21T11:59:25Z</time>
      </trkpt>
      <trkpt lat="42.1228580" lon="2.3134020">
        <ele>935.8</ele>
        <time>2019-10-21T11:59:26Z</time>
      </trkpt>
      <trkpt lat="42.1228580" lon="2.3134020">
        <ele>935.6</ele>
        <time>2019-10-21T11:59:27Z</time>
      </trkpt>
      <trkpt lat="42.1228580" lon="2.3134020">
        <ele>935.8</ele>
        <time>2019-10-21T11:59:28Z</time>
      </trkpt>
      <trkpt lat="42.1228910" lon="2.3132500">
        <ele>936.0</ele>
        <time>2019-10-21T11:59:29Z</time>
      </trkpt>
      <trkpt lat="42.1228910" lon="2.3132500">
        <ele>936.4</ele>
        <time>2019-10-21T11:59:30Z</time>
      </trkpt>
      <trkpt lat="42.1228910" lon="2.3132500">
        <ele>936.6</ele>
        <time>2019-10-21T11:59:31Z</time>
      </trkpt>
      <trkpt lat="42.1228970" lon="2.3131240">
        <ele>936.6</ele>
        <time>2019-10-21T11:59:32Z</time>
      </trkpt>
      <trkpt lat="42.1228970" lon="2.3131240">
        <ele>936.8</ele>
        <time>2019-10-21T11:59:33Z</time>
      </trkpt>
      <trkpt lat="42.1228970" lon="2.3131240">
        <ele>936.8</ele>
        <time>2019-10-21T11:59:34Z</time>
      </trkpt>
      <trkpt lat="42.1228910" lon="2.3129930">
        <ele>937.6</ele>
        <time>2019-10-21T11:59:35Z</time>
      </trkpt>
      <trkpt lat="42.1228910" lon="2.3129930">
        <ele>937.6</ele>
        <time>2019-10-21T11:59:36Z</time>
      </trkpt>
      <trkpt lat="42.1228910" lon="2.3129930">
        <ele>938.2</ele>
        <time>2019-10-21T11:59:37Z</time>
      </trkpt>
      <trkpt lat="42.1228950" lon="2.3128630">
        <ele>938.0</ele>
        <time>2019-10-21T11:59:38Z</time>
      </trkpt>
      <trkpt lat="42.1228950" lon="2.3128630">
        <ele>938.8</ele>
        <time>2019-10-21T11:59:39Z</time>
      </trkpt>
      <trkpt lat="42.1228950" lon="2.3128630">
        <ele>938.8</ele>
        <time>2019-10-21T11:59:40Z</time>
      </trkpt>
      <trkpt lat="42.1228950" lon="2.3128630">
        <ele>939.4</ele>
        <time>2019-10-21T11:59:41Z</time>
      </trkpt>
      <trkpt lat="42.1229120" lon="2.3127150">
        <ele>939.6</ele>
        <time>2019-10-21T11:59:42Z</time>
      </trkpt>
      <trkpt lat="42.1229280" lon="2.3126840">
        <ele>939.8</ele>
        <time>2019-10-21T11:59:43Z</time>
      </trkpt>
      <trkpt lat="42.1229440" lon="2.3126650">
        <ele>940.0</ele>
        <time>2019-10-21T11:59:44Z</time>
      </trkpt>
      <trkpt lat="42.1229440" lon="2.3126650">
        <ele>940.2</ele>
        <time>2019-10-21T11:59:45Z</time>
      </trkpt>
      <trkpt lat="42.1229700" lon="2.3126630">
        <ele>940.4</ele>
        <time>2019-10-21T11:59:46Z</time>
      </trkpt>
      <trkpt lat="42.1229700" lon="2.3126630">
        <ele>940.8</ele>
        <time>2019-10-21T11:59:47Z</time>
      </trkpt>
      <trkpt lat="42.1229700" lon="2.3126630">
        <ele>941.0</ele>
        <time>2019-10-21T11:59:48Z</time>
      </trkpt>
      <trkpt lat="42.1229700" lon="2.3126630">
        <ele>941.4</ele>
        <time>2019-10-21T11:59:49Z</time>
      </trkpt>
      <trkpt lat="42.1230500" lon="2.3127730">
        <ele>941.6</ele>
        <time>2019-10-21T11:59:50Z</time>
      </trkpt>
      <trkpt lat="42.1230500" lon="2.3127730">
        <ele>942.0</ele>
        <time>2019-10-21T11:59:51Z</time>
      </trkpt>
      <trkpt lat="42.1230740" lon="2.3128120">
        <ele>942.2</ele>
        <time>2019-10-21T11:59:52Z</time>
      </trkpt>
      <trkpt lat="42.1230740" lon="2.3128120">
        <ele>942.6</ele>
        <time>2019-10-21T11:59:53Z</time>
      </trkpt>
      <trkpt lat="42.1231040" lon="2.3128460">
        <ele>942.8</ele>
        <time>2019-10-21T11:59:54Z</time>
      </trkpt>
      <trkpt lat="42.1231220" lon="2.3128590">
        <ele>943.0</ele>
        <time>2019-10-21T11:59:55Z</time>
      </trkpt>
      <trkpt lat="42.1231390" lon="2.3128730">
        <ele>943.0</ele>
        <time>2019-10-21T11:59:56Z</time>
      </trkpt>
      <trkpt lat="42.1231580" lon="2.3128830">
        <ele>943.2</ele>
        <time>2019-10-21T11:59:57Z</time>
      </trkpt>
      <trkpt lat="42.1231580" lon="2.3128830">
        <ele>943.2</ele>
        <time>2019-10-21T11:59:58Z</time>
      </trkpt>
      <trkpt lat="42.1231930" lon="2.3128960">
        <ele>943.2</ele>
        <time>2019-10-21T11:59:59Z</time>
      </trkpt>
      <trkpt lat="42.1232280" lon="2.3129030">
        <ele>943.2</ele>
        <time>2019-10-21T12:00:01Z</time>
      </trkpt>
      <trkpt lat="42.1232470" lon="2.3129090">
        <ele>943.2</ele>
        <time>2019-10-21T12:00:02Z</time>
      </trkpt>
      <trkpt lat="42.1232660" lon="2.3129130">
        <ele>943.6</ele>
        <time>2019-10-21T12:00:03Z</time>
      </trkpt>
      <trkpt lat="42.1232830" lon="2.3129210">
        <ele>942.8</ele>
        <time>2019-10-21T12:00:04Z</time>
      </trkpt>
      <trkpt lat="42.1233040" lon="2.3129300">
        <ele>943.0</ele>
        <time>2019-10-21T12:00:05Z</time>
      </trkpt>
      <trkpt lat="42.1233230" lon="2.3129370">
        <ele>943.0</ele>
        <time>2019-10-21T12:00:06Z</time>
      </trkpt>
      <trkpt lat="42.1233420" lon="2.3129410">
        <ele>942.8</ele>
        <time>2019-10-21T12:00:07Z</time>
      </trkpt>
      <trkpt lat="42.1233650" lon="2.3129500">
        <ele>943.6</ele>
        <time>2019-10-21T12:00:08Z</time>
      </trkpt>
      <trkpt lat="42.1233890" lon="2.3129570">
        <ele>943.6</ele>
        <time>2019-10-21T12:00:09Z</time>
      </trkpt>
      <trkpt lat="42.1234170" lon="2.3129620">
        <ele>944.4</ele>
        <time>2019-10-21T12:00:10Z</time>
      </trkpt>
      <trkpt lat="42.1234420" lon="2.3129660">
        <ele>944.4</ele>
        <time>2019-10-21T12:00:11Z</time>
      </trkpt>
      <trkpt lat="42.1234850" lon="2.3129770">
        <ele>945.2</ele>
        <time>2019-10-21T12:00:12Z</time>
      </trkpt>
      <trkpt lat="42.1235000" lon="2.3129790">
        <ele>945.2</ele>
        <time>2019-10-21T12:00:13Z</time>
      </trkpt>
      <trkpt lat="42.1235160" lon="2.3129820">
        <ele>945.6</ele>
        <time>2019-10-21T12:00:14Z</time>
      </trkpt>
      <trkpt lat="42.1235380" lon="2.3129810">
        <ele>945.6</ele>
        <time>2019-10-21T12:00:15Z</time>
      </trkpt>
      <trkpt lat="42.1235790" lon="2.3129790">
        <ele>945.6</ele>
        <time>2019-10-21T12:00:16Z</time>
      </trkpt>
      <trkpt lat="42.1235970" lon="2.3129790">
        <ele>945.4</ele>
        <time>2019-10-21T12:00:17Z</time>
      </trkpt>
      <trkpt lat="42.1236160" lon="2.3129790">
        <ele>945.6</ele>
        <time>2019-10-21T12:00:18Z</time>
      </trkpt>
      <trkpt lat="42.1236340" lon="2.3129790">
        <ele>945.6</ele>
        <time>2019-10-21T12:00:19Z</time>
      </trkpt>
      <trkpt lat="42.1236760" lon="2.3129810">
        <ele>945.4</ele>
        <time>2019-10-21T12:00:20Z</time>
      </trkpt>
      <trkpt lat="42.1236920" lon="2.3129810">
        <ele>945.4</ele>
        <time>2019-10-21T12:00:21Z</time>
      </trkpt>
      <trkpt lat="42.1237090" lon="2.3129810">
        <ele>945.6</ele>
        <time>2019-10-21T12:00:22Z</time>
      </trkpt>
      <trkpt lat="42.1237470" lon="2.3129760">
        <ele>945.6</ele>
        <time>2019-10-21T12:00:23Z</time>
      </trkpt>
      <trkpt lat="42.1237660" lon="2.3129730">
        <ele>945.8</ele>
        <time>2019-10-21T12:00:24Z</time>
      </trkpt>
      <trkpt lat="42.1237840" lon="2.3129710">
        <ele>945.8</ele>
        <time>2019-10-21T12:00:25Z</time>
      </trkpt>
      <trkpt lat="42.1238320" lon="2.3129690">
        <ele>945.8</ele>
        <time>2019-10-21T12:00:26Z</time>
      </trkpt>
      <trkpt lat="42.1238500" lon="2.3129690">
        <ele>945.6</ele>
        <time>2019-10-21T12:00:27Z</time>
      </trkpt>
      <trkpt lat="42.1238680" lon="2.3129700">
        <ele>945.4</ele>
        <time>2019-10-21T12:00:28Z</time>
      </trkpt>
      <trkpt lat="42.1238860" lon="2.3129770">
        <ele>945.4</ele>
        <time>2019-10-21T12:00:29Z</time>
      </trkpt>
      <trkpt lat="42.1239030" lon="2.3129840">
        <ele>945.8</ele>
        <time>2019-10-21T12:00:30Z</time>
      </trkpt>
      <trkpt lat="42.1239210" lon="2.3129910">
        <ele>945.6</ele>
        <time>2019-10-21T12:00:31Z</time>
      </trkpt>
      <trkpt lat="42.1239380" lon="2.3129980">
        <ele>945.4</ele>
        <time>2019-10-21T12:00:32Z</time>
      </trkpt>
      <trkpt lat="42.1240070" lon="2.3130260">
        <ele>945.8</ele>
        <time>2019-10-21T12:00:33Z</time>
      </trkpt>
      <trkpt lat="42.1240340" lon="2.3130560">
        <ele>945.4</ele>
        <time>2019-10-21T12:00:34Z</time>
      </trkpt>
      <trkpt lat="42.1240620" lon="2.3130830">
        <ele>945.6</ele>
        <time>2019-10-21T12:00:35Z</time>
      </trkpt>
      <trkpt lat="42.1240820" lon="2.3131080">
        <ele>945.8</ele>
        <time>2019-10-21T12:00:36Z</time>
      </trkpt>
      <trkpt lat="42.1241170" lon="2.3131560">
        <ele>946.6</ele>
        <time>2019-10-21T12:00:37Z</time>
      </trkpt>
      <trkpt lat="42.1241290" lon="2.3131720">
        <ele>946.8</ele>
        <time>2019-10-21T12:00:38Z</time>
      </trkpt>
      <trkpt lat="42.1241420" lon="2.3131890">
        <ele>947.6</ele>
        <time>2019-10-21T12:00:39Z</time>
      </trkpt>
      <trkpt lat="42.1241540" lon="2.3132060">
        <ele>947.6</ele>
        <time>2019-10-21T12:00:40Z</time>
      </trkpt>
      <trkpt lat="42.1241820" lon="2.3132470">
        <ele>948.2</ele>
        <time>2019-10-21T12:00:41Z</time>
      </trkpt>
      <trkpt lat="42.1242030" lon="2.3132750">
        <ele>948.4</ele>
        <time>2019-10-21T12:00:42Z</time>
      </trkpt>
      <trkpt lat="42.1242030" lon="2.3132750">
        <ele>949.0</ele>
        <time>2019-10-21T12:00:43Z</time>
      </trkpt>
      <trkpt lat="42.1242030" lon="2.3132750">
        <ele>949.4</ele>
        <time>2019-10-21T12:00:44Z</time>
      </trkpt>
      <trkpt lat="42.1242030" lon="2.3132750">
        <ele>950.0</ele>
        <time>2019-10-21T12:00:45Z</time>
      </trkpt>
      <trkpt lat="42.1242750" lon="2.3133740">
        <ele>950.2</ele>
        <time>2019-10-21T12:00:46Z</time>
      </trkpt>
      <trkpt lat="42.1242850" lon="2.3133990">
        <ele>950.6</ele>
        <time>2019-10-21T12:00:47Z</time>
      </trkpt>
      <trkpt lat="42.1242990" lon="2.3134290">
        <ele>950.8</ele>
        <time>2019-10-21T12:00:48Z</time>
      </trkpt>
      <trkpt lat="42.1243170" lon="2.3134580">
        <ele>951.2</ele>
        <time>2019-10-21T12:00:49Z</time>
      </trkpt>
      <trkpt lat="42.1243170" lon="2.3134580">
        <ele>951.4</ele>
        <time>2019-10-21T12:00:50Z</time>
      </trkpt>
      <trkpt lat="42.1243580" lon="2.3135020">
        <ele>951.6</ele>
        <time>2019-10-21T12:00:51Z</time>
      </trkpt>
      <trkpt lat="42.1243580" lon="2.3135020">
        <ele>951.8</ele>
        <time>2019-10-21T12:00:52Z</time>
      </trkpt>
      <trkpt lat="42.1243580" lon="2.3135020">
        <ele>952.0</ele>
        <time>2019-10-21T12:00:53Z</time>
      </trkpt>
      <trkpt lat="42.1243580" lon="2.3135020">
        <ele>951.8</ele>
        <time>2019-10-21T12:00:54Z</time>
      </trkpt>
      <trkpt lat="42.1244400" lon="2.3135820">
        <ele>951.8</ele>
        <time>2019-10-21T12:00:55Z</time>
      </trkpt>
      <trkpt lat="42.1244400" lon="2.3135820">
        <ele>952.2</ele>
        <time>2019-10-21T12:00:56Z</time>
      </trkpt>
      <trkpt lat="42.1244400" lon="2.3135820">
        <ele>952.6</ele>
        <time>2019-10-21T12:00:57Z</time>
      </trkpt>
      <trkpt lat="42.1244400" lon="2.3135820">
        <ele>953.6</ele>
        <time>2019-10-21T12:00:58Z</time>
      </trkpt>
      <trkpt lat="42.1244400" lon="2.3135820">
        <ele>953.8</ele>
        <time>2019-10-21T12:00:59Z</time>
      </trkpt>
      <trkpt lat="42.1244400" lon="2.3135820">
        <ele>954.4</ele>
        <time>2019-10-21T12:01:00Z</time>
      </trkpt>
      <trkpt lat="42.1244400" lon="2.3135820">
        <ele>954.6</ele>
        <time>2019-10-21T12:01:01Z</time>
      </trkpt>
      <trkpt lat="42.1244400" lon="2.3135820">
        <ele>955.2</ele>
        <time>2019-10-21T12:01:02Z</time>
      </trkpt>
      <trkpt lat="42.1244400" lon="2.3135820">
        <ele>955.2</ele>
        <time>2019-10-21T12:01:03Z</time>
      </trkpt>
      <trkpt lat="42.1244400" lon="2.3135820">
        <ele>955.4</ele>
        <time>2019-10-21T12:01:04Z</time>
      </trkpt>
      <trkpt lat="42.1244400" lon="2.3135820">
        <ele>955.6</ele>
        <time>2019-10-21T12:01:05Z</time>
      </trkpt>
      <trkpt lat="42.1244400" lon="2.3135820">
        <ele>955.6</ele>
        <time>2019-10-21T12:01:06Z</time>
      </trkpt>
      <trkpt lat="42.1244400" lon="2.3135820">
        <ele>955.4</ele>
        <time>2019-10-21T12:01:07Z</time>
      </trkpt>
      <trkpt lat="42.1244400" lon="2.3135820">
        <ele>955.2</ele>
        <time>2019-10-21T12:01:08Z</time>
      </trkpt>
      <trkpt lat="42.1244400" lon="2.3135820">
        <ele>955.0</ele>
        <time>2019-10-21T12:01:09Z</time>
      </trkpt>
      <trkpt lat="42.1244400" lon="2.3135820">
        <ele>954.8</ele>
        <time>2019-10-21T12:01:10Z</time>
      </trkpt>
      <trkpt lat="42.1244400" lon="2.3135820">
        <ele>955.4</ele>
        <time>2019-10-21T12:01:11Z</time>
      </trkpt>
      <trkpt lat="42.1244400" lon="2.3135820">
        <ele>955.6</ele>
        <time>2019-10-21T12:01:12Z</time>
      </trkpt>
      <trkpt lat="42.1244400" lon="2.3135820">
        <ele>956.2</ele>
        <time>2019-10-21T12:01:13Z</time>
      </trkpt>
      <trkpt lat="42.1244400" lon="2.3135820">
        <ele>956.2</ele>
        <time>2019-10-21T12:01:14Z</time>
      </trkpt>
      <trkpt lat="42.1244400" lon="2.3135820">
        <ele>956.6</ele>
        <time>2019-10-21T12:01:15Z</time>
      </trkpt>
      <trkpt lat="42.1244400" lon="2.3135820">
        <ele>956.8</ele>
        <time>2019-10-21T12:01:16Z</time>
      </trkpt>
      <trkpt lat="42.1244400" lon="2.3135820">
        <ele>957.0</ele>
        <time>2019-10-21T12:01:17Z</time>
      </trkpt>
      <trkpt lat="42.1244400" lon="2.3135820">
        <ele>957.0</ele>
        <time>2019-10-21T12:01:18Z</time>
      </trkpt>
      <trkpt lat="42.1244400" lon="2.3135820">
        <ele>957.0</ele>
        <time>2019-10-21T12:01:19Z</time>
      </trkpt>
      <trkpt lat="42.1244400" lon="2.3135820">
        <ele>957.0</ele>
        <time>2019-10-21T12:01:20Z</time>
      </trkpt>
      <trkpt lat="42.1244400" lon="2.3135820">
        <ele>956.8</ele>
        <time>2019-10-21T12:01:21Z</time>
      </trkpt>
      <trkpt lat="42.1244400" lon="2.3135820">
        <ele>956.6</ele>
        <time>2019-10-21T12:01:22Z</time>
      </trkpt>
      <trkpt lat="42.1244400" lon="2.3135820">
        <ele>956.4</ele>
        <time>2019-10-21T12:01:23Z</time>
      </trkpt>
      <trkpt lat="42.1244400" lon="2.3135820">
        <ele>957.2</ele>
        <time>2019-10-21T12:01:24Z</time>
      </trkpt>
      <trkpt lat="42.1244400" lon="2.3135820">
        <ele>957.2</ele>
        <time>2019-10-21T12:01:25Z</time>
      </trkpt>
      <trkpt lat="42.1244400" lon="2.3135820">
        <ele>958.2</ele>
        <time>2019-10-21T12:01:26Z</time>
      </trkpt>
      <trkpt lat="42.1244400" lon="2.3135820">
        <ele>958.2</ele>
        <time>2019-10-21T12:01:27Z</time>
      </trkpt>
      <trkpt lat="42.1244400" lon="2.3135820">
        <ele>958.8</ele>
        <time>2019-10-21T12:01:28Z</time>
      </trkpt>
      <trkpt lat="42.1244400" lon="2.3135820">
        <ele>959.2</ele>
        <time>2019-10-21T12:01:29Z</time>
      </trkpt>
      <trkpt lat="42.1244400" lon="2.3135820">
        <ele>959.6</ele>
        <time>2019-10-21T12:01:30Z</time>
      </trkpt>
      <trkpt lat="42.1244400" lon="2.3135820">
        <ele>959.4</ele>
        <time>2019-10-21T12:01:31Z</time>
      </trkpt>
      <trkpt lat="42.1244400" lon="2.3135820">
        <ele>959.8</ele>
        <time>2019-10-21T12:01:32Z</time>
      </trkpt>
      <trkpt lat="42.1244400" lon="2.3135820">
        <ele>959.8</ele>
        <time>2019-10-21T12:01:33Z</time>
      </trkpt>
      <trkpt lat="42.1244400" lon="2.3135820">
        <ele>959.4</ele>
        <time>2019-10-21T12:01:34Z</time>
      </trkpt>
      <trkpt lat="42.1244400" lon="2.3135820">
        <ele>958.4</ele>
        <time>2019-10-21T12:01:35Z</time>
      </trkpt>
      <trkpt lat="42.1244400" lon="2.3135820">
        <ele>958.4</ele>
        <time>2019-10-21T12:01:36Z</time>
      </trkpt>
      <trkpt lat="42.1244400" lon="2.3135820">
        <ele>959.2</ele>
        <time>2019-10-21T12:01:37Z</time>
      </trkpt>
      <trkpt lat="42.1244400" lon="2.3135820">
        <ele>959.2</ele>
        <time>2019-10-21T12:01:38Z</time>
      </trkpt>
      <trkpt lat="42.1244400" lon="2.3135820">
        <ele>960.0</ele>
        <time>2019-10-21T12:01:39Z</time>
      </trkpt>
      <trkpt lat="42.1244400" lon="2.3135820">
        <ele>960.2</ele>
        <time>2019-10-21T12:01:40Z</time>
      </trkpt>
      <trkpt lat="42.1244400" lon="2.3135820">
        <ele>960.8</ele>
        <time>2019-10-21T12:01:41Z</time>
      </trkpt>
      <trkpt lat="42.1244400" lon="2.3135820">
        <ele>961.0</ele>
        <time>2019-10-21T12:01:42Z</time>
      </trkpt>
      <trkpt lat="42.1244400" lon="2.3135820">
        <ele>961.4</ele>
        <time>2019-10-21T12:01:43Z</time>
      </trkpt>
      <trkpt lat="42.1244400" lon="2.3135820">
        <ele>961.2</ele>
        <time>2019-10-21T12:01:44Z</time>
      </trkpt>
      <trkpt lat="42.1244400" lon="2.3135820">
        <ele>961.4</ele>
        <time>2019-10-21T12:01:45Z</time>
      </trkpt>
      <trkpt lat="42.1244400" lon="2.3135820">
        <ele>961.0</ele>
        <time>2019-10-21T12:01:46Z</time>
      </trkpt>
    </trkseg>
  </trk>
</gpx>
